<?xml version='1.0' encoding='UTF-8'?><gpx version="1.1" creator="JPX - https://github.com/jenetics/jpx" xmlns="http://www.topografix.com/GPX/1/1"><trk><trkseg><trkpt lat="43.9924879" lon="8.1122508"><ele>78.0</ele><time>2026-05-02T06:27:45.658Z</time></trkpt><trkpt lat="43.9925768" lon="8.1122505"><ele>78.0</ele><time>2026-05-02T06:29:45.125Z</time></trkpt><trkpt lat="43.9925182" lon="8.1122994"><ele>78.0</ele><time>2026-05-02T06:31:13.126Z</time></trkpt><trkpt lat="43.9924569" lon="8.1123349"><ele>78.0</ele><time>2026-05-02T06:31:27.141Z</time></trkpt><trkpt lat="43.9924038" lon="8.1124068"><ele>78.0</ele><time>2026-05-02T06:31:30.145Z</time></trkpt><trkpt lat="43.9923742" lon="8.1125257"><ele>78.0</ele><time>2026-05-02T06:31:32.142Z</time></trkpt><trkpt lat="43.9923284" lon="8.11269"><ele>78.2</ele><time>2026-05-02T06:31:34.141Z</time></trkpt><trkpt lat="43.992307" lon="8.1127951"><ele>78.4</ele><time>2026-05-02T06:31:35.141Z</time></trkpt><trkpt lat="43.9922716" lon="8.1129249"><ele>78.60000000000001</ele><time>2026-05-02T06:31:36.135Z</time></trkpt><trkpt lat="43.992231" lon="8.1130742"><ele>78.8</ele><time>2026-05-02T06:31:37.137Z</time></trkpt><trkpt lat="43.9921823" lon="8.113244"><ele>79.0</ele><time>2026-05-02T06:31:38.135Z</time></trkpt><trkpt lat="43.9921442" lon="8.1134185"><ele>79.0</ele><time>2026-05-02T06:31:39.135Z</time></trkpt><trkpt lat="43.9921069" lon="8.1135929"><ele>79.0</ele><time>2026-05-02T06:31:40.139Z</time></trkpt><trkpt lat="43.99209" lon="8.1137634"><ele>79.0</ele><time>2026-05-02T06:31:41.13Z</time></trkpt><trkpt lat="43.9920543" lon="8.1139472"><ele>79.0</ele><time>2026-05-02T06:31:42.133Z</time></trkpt><trkpt lat="43.9920017" lon="8.1141243"><ele>80.25</ele><time>2026-05-02T06:31:43.131Z</time></trkpt><trkpt lat="43.991971" lon="8.1143029"><ele>81.5</ele><time>2026-05-02T06:31:44.141Z</time></trkpt><trkpt lat="43.9919521" lon="8.1144759"><ele>82.75</ele><time>2026-05-02T06:31:45.136Z</time></trkpt><trkpt lat="43.9919345" lon="8.1146491"><ele>84.0</ele><time>2026-05-02T06:31:46.14Z</time></trkpt><trkpt lat="43.9919094" lon="8.1148265"><ele>83.25</ele><time>2026-05-02T06:31:47.134Z</time></trkpt><trkpt lat="43.9918847" lon="8.1150036"><ele>82.5</ele><time>2026-05-02T06:31:48.144Z</time></trkpt><trkpt lat="43.9918579" lon="8.1151935"><ele>81.75</ele><time>2026-05-02T06:31:49.137Z</time></trkpt><trkpt lat="43.9918435" lon="8.1153653"><ele>81.0</ele><time>2026-05-02T06:31:50.137Z</time></trkpt><trkpt lat="43.9918263" lon="8.1155538"><ele>77.25</ele><time>2026-05-02T06:31:51.137Z</time></trkpt><trkpt lat="43.9918223" lon="8.1157445"><ele>73.5</ele><time>2026-05-02T06:31:52.137Z</time></trkpt><trkpt lat="43.9918304" lon="8.1159273"><ele>69.75</ele><time>2026-05-02T06:31:53.131Z</time></trkpt><trkpt lat="43.9918436" lon="8.1161082"><ele>66.0</ele><time>2026-05-02T06:31:54.135Z</time></trkpt><trkpt lat="43.991875" lon="8.1162879"><ele>66.0</ele><time>2026-05-02T06:31:55.146Z</time></trkpt><trkpt lat="43.9919219" lon="8.1164741"><ele>66.0</ele><time>2026-05-02T06:31:56.141Z</time></trkpt><trkpt lat="43.9919677" lon="8.1166477"><ele>66.0</ele><time>2026-05-02T06:31:57.143Z</time></trkpt><trkpt lat="43.9920128" lon="8.1168185"><ele>66.0</ele><time>2026-05-02T06:31:58.144Z</time></trkpt><trkpt lat="43.9920384" lon="8.1169882"><ele>62.25</ele><time>2026-05-02T06:31:59.142Z</time></trkpt><trkpt lat="43.992075" lon="8.1171654"><ele>58.5</ele><time>2026-05-02T06:32:00.143Z</time></trkpt><trkpt lat="43.9921175" lon="8.117333"><ele>54.75</ele><time>2026-05-02T06:32:01.144Z</time></trkpt><trkpt lat="43.9921648" lon="8.117497"><ele>51.0</ele><time>2026-05-02T06:32:02.14Z</time></trkpt><trkpt lat="43.9922199" lon="8.1176586"><ele>50.25</ele><time>2026-05-02T06:32:03.146Z</time></trkpt><trkpt lat="43.9922726" lon="8.117812"><ele>49.5</ele><time>2026-05-02T06:32:04.145Z</time></trkpt><trkpt lat="43.9923333" lon="8.1179579"><ele>48.75</ele><time>2026-05-02T06:32:05.143Z</time></trkpt><trkpt lat="43.9923956" lon="8.118098"><ele>48.0</ele><time>2026-05-02T06:32:06.139Z</time></trkpt><trkpt lat="43.9924735" lon="8.1182404"><ele>47.0</ele><time>2026-05-02T06:32:07.139Z</time></trkpt><trkpt lat="43.9925485" lon="8.1183758"><ele>46.0</ele><time>2026-05-02T06:32:08.146Z</time></trkpt><trkpt lat="43.9926029" lon="8.1185238"><ele>45.0</ele><time>2026-05-02T06:32:09.139Z</time></trkpt><trkpt lat="43.9926445" lon="8.1186875"><ele>44.0</ele><time>2026-05-02T06:32:10.141Z</time></trkpt><trkpt lat="43.99268" lon="8.1188422"><ele>44.0</ele><time>2026-05-02T06:32:11.142Z</time></trkpt><trkpt lat="43.9926936" lon="8.1189932"><ele>44.0</ele><time>2026-05-02T06:32:12.145Z</time></trkpt><trkpt lat="43.9926962" lon="8.1191385"><ele>44.0</ele><time>2026-05-02T06:32:13.141Z</time></trkpt><trkpt lat="43.9926938" lon="8.1192604"><ele>44.0</ele><time>2026-05-02T06:32:14.144Z</time></trkpt><trkpt lat="43.9926811" lon="8.1193583"><ele>44.0</ele><time>2026-05-02T06:32:15.144Z</time></trkpt><trkpt lat="43.9926892" lon="8.1194512"><ele>44.0</ele><time>2026-05-02T06:32:16.143Z</time></trkpt><trkpt lat="43.9927746" lon="8.1196183"><ele>44.166666666666664</ele><time>2026-05-02T06:32:18.145Z</time></trkpt><trkpt lat="43.9928251" lon="8.1196947"><ele>44.33333333333333</ele><time>2026-05-02T06:32:19.144Z</time></trkpt><trkpt lat="43.9928716" lon="8.1197556"><ele>44.5</ele><time>2026-05-02T06:32:20.142Z</time></trkpt><trkpt lat="43.9929234" lon="8.119822"><ele>44.666666666666664</ele><time>2026-05-02T06:32:21.143Z</time></trkpt><trkpt lat="43.9929834" lon="8.1199559"><ele>44.833333333333336</ele><time>2026-05-02T06:32:23.14Z</time></trkpt><trkpt lat="43.9930195" lon="8.1200885"><ele>45.0</ele><time>2026-05-02T06:32:25.141Z</time></trkpt><trkpt lat="43.992963" lon="8.1202024"><ele>45.6</ele><time>2026-05-02T06:32:27.141Z</time></trkpt><trkpt lat="43.9929077" lon="8.1202617"><ele>46.2</ele><time>2026-05-02T06:32:28.141Z</time></trkpt><trkpt lat="43.9928323" lon="8.1203267"><ele>46.8</ele><time>2026-05-02T06:32:29.143Z</time></trkpt><trkpt lat="43.9927285" lon="8.1204077"><ele>47.4</ele><time>2026-05-02T06:32:30.139Z</time></trkpt><trkpt lat="43.9926252" lon="8.1205013"><ele>48.0</ele><time>2026-05-02T06:32:31.134Z</time></trkpt><trkpt lat="43.9925239" lon="8.1206078"><ele>47.0</ele><time>2026-05-02T06:32:32.133Z</time></trkpt><trkpt lat="43.9924236" lon="8.1207101"><ele>46.0</ele><time>2026-05-02T06:32:33.135Z</time></trkpt><trkpt lat="43.9923209" lon="8.1208249"><ele>45.0</ele><time>2026-05-02T06:32:34.13Z</time></trkpt><trkpt lat="43.9922118" lon="8.1209461"><ele>44.0</ele><time>2026-05-02T06:32:35.138Z</time></trkpt><trkpt lat="43.9921017" lon="8.1210734"><ele>44.0</ele><time>2026-05-02T06:32:36.137Z</time></trkpt><trkpt lat="43.9919928" lon="8.1211943"><ele>44.0</ele><time>2026-05-02T06:32:37.139Z</time></trkpt><trkpt lat="43.9918747" lon="8.1213274"><ele>44.0</ele><time>2026-05-02T06:32:38.139Z</time></trkpt><trkpt lat="43.9917536" lon="8.1214484"><ele>44.0</ele><time>2026-05-02T06:32:39.138Z</time></trkpt><trkpt lat="43.9916241" lon="8.1215584"><ele>44.0</ele><time>2026-05-02T06:32:40.134Z</time></trkpt><trkpt lat="43.9914846" lon="8.1216688"><ele>44.0</ele><time>2026-05-02T06:32:41.138Z</time></trkpt><trkpt lat="43.9913424" lon="8.1217686"><ele>44.0</ele><time>2026-05-02T06:32:42.136Z</time></trkpt><trkpt lat="43.9912104" lon="8.1218551"><ele>44.0</ele><time>2026-05-02T06:32:43.137Z</time></trkpt><trkpt lat="43.9910745" lon="8.1219353"><ele>44.0</ele><time>2026-05-02T06:32:44.136Z</time></trkpt><trkpt lat="43.9909388" lon="8.1220235"><ele>44.0</ele><time>2026-05-02T06:32:45.137Z</time></trkpt><trkpt lat="43.9907916" lon="8.1221156"><ele>43.0</ele><time>2026-05-02T06:32:46.144Z</time></trkpt><trkpt lat="43.9906456" lon="8.122188"><ele>42.0</ele><time>2026-05-02T06:32:47.134Z</time></trkpt><trkpt lat="43.9905183" lon="8.1222489"><ele>41.0</ele><time>2026-05-02T06:32:48.138Z</time></trkpt><trkpt lat="43.9903756" lon="8.1222991"><ele>40.0</ele><time>2026-05-02T06:32:49.139Z</time></trkpt><trkpt lat="43.9902162" lon="8.1223601"><ele>40.333333333333336</ele><time>2026-05-02T06:32:50.14Z</time></trkpt><trkpt lat="43.9900563" lon="8.1224294"><ele>40.666666666666664</ele><time>2026-05-02T06:32:51.143Z</time></trkpt><trkpt lat="43.9898964" lon="8.1225154"><ele>41.0</ele><time>2026-05-02T06:32:52.141Z</time></trkpt><trkpt lat="43.9897512" lon="8.1225999"><ele>41.0</ele><time>2026-05-02T06:32:53.141Z</time></trkpt><trkpt lat="43.9895888" lon="8.1226692"><ele>41.0</ele><time>2026-05-02T06:32:54.142Z</time></trkpt><trkpt lat="43.9894326" lon="8.1227335"><ele>41.0</ele><time>2026-05-02T06:32:55.14Z</time></trkpt><trkpt lat="43.9892844" lon="8.1227876"><ele>39.666666666666664</ele><time>2026-05-02T06:32:56.136Z</time></trkpt><trkpt lat="43.98912" lon="8.1228247"><ele>38.333333333333336</ele><time>2026-05-02T06:32:57.145Z</time></trkpt><trkpt lat="43.9889555" lon="8.12283"><ele>37.0</ele><time>2026-05-02T06:32:58.146Z</time></trkpt><trkpt lat="43.9887881" lon="8.1228188"><ele>37.0</ele><time>2026-05-02T06:32:59.142Z</time></trkpt><trkpt lat="43.9886172" lon="8.122813"><ele>37.0</ele><time>2026-05-02T06:33:00.145Z</time></trkpt><trkpt lat="43.9884561" lon="8.1228098"><ele>37.0</ele><time>2026-05-02T06:33:01.143Z</time></trkpt><trkpt lat="43.9882974" lon="8.1228335"><ele>37.0</ele><time>2026-05-02T06:33:02.142Z</time></trkpt><trkpt lat="43.9881293" lon="8.122842"><ele>37.0</ele><time>2026-05-02T06:33:03.139Z</time></trkpt><trkpt lat="43.9879629" lon="8.1228789"><ele>37.0</ele><time>2026-05-02T06:33:04.142Z</time></trkpt><trkpt lat="43.9878066" lon="8.1229802"><ele>37.0</ele><time>2026-05-02T06:33:05.14Z</time></trkpt><trkpt lat="43.9876692" lon="8.1231321"><ele>37.0</ele><time>2026-05-02T06:33:06.138Z</time></trkpt><trkpt lat="43.9875392" lon="8.1233124"><ele>37.0</ele><time>2026-05-02T06:33:07.144Z</time></trkpt><trkpt lat="43.9873972" lon="8.1234963"><ele>37.333333333333336</ele><time>2026-05-02T06:33:08.151Z</time></trkpt><trkpt lat="43.9872587" lon="8.1236641"><ele>37.666666666666664</ele><time>2026-05-02T06:33:09.143Z</time></trkpt><trkpt lat="43.9871387" lon="8.1238196"><ele>38.0</ele><time>2026-05-02T06:33:10.142Z</time></trkpt><trkpt lat="43.9870104" lon="8.1239791"><ele>38.33333333333333</ele><time>2026-05-02T06:33:11.149Z</time></trkpt><trkpt lat="43.9868782" lon="8.1241533"><ele>38.666666666666664</ele><time>2026-05-02T06:33:12.135Z</time></trkpt><trkpt lat="43.9867443" lon="8.1243163"><ele>39.0</ele><time>2026-05-02T06:33:13.141Z</time></trkpt><trkpt lat="43.9866087" lon="8.1244794"><ele>38.0</ele><time>2026-05-02T06:33:14.147Z</time></trkpt><trkpt lat="43.986491" lon="8.1246449"><ele>37.0</ele><time>2026-05-02T06:33:15.141Z</time></trkpt><trkpt lat="43.9863865" lon="8.1248289"><ele>36.0</ele><time>2026-05-02T06:33:16.149Z</time></trkpt><trkpt lat="43.9863079" lon="8.1250221"><ele>35.666666666666664</ele><time>2026-05-02T06:33:17.143Z</time></trkpt><trkpt lat="43.9862581" lon="8.1252592"><ele>35.33333333333333</ele><time>2026-05-02T06:33:18.148Z</time></trkpt><trkpt lat="43.9862562" lon="8.1254938"><ele>35.0</ele><time>2026-05-02T06:33:19.149Z</time></trkpt><trkpt lat="43.9862824" lon="8.125733"><ele>35.0</ele><time>2026-05-02T06:33:20.146Z</time></trkpt><trkpt lat="43.986304" lon="8.1259871"><ele>35.0</ele><time>2026-05-02T06:33:21.146Z</time></trkpt><trkpt lat="43.9863234" lon="8.1262395"><ele>35.0</ele><time>2026-05-02T06:33:22.142Z</time></trkpt><trkpt lat="43.9863117" lon="8.1264781"><ele>35.33333333333333</ele><time>2026-05-02T06:33:23.155Z</time></trkpt><trkpt lat="43.9862889" lon="8.1267172"><ele>35.666666666666664</ele><time>2026-05-02T06:33:24.147Z</time></trkpt><trkpt lat="43.9862498" lon="8.1269506"><ele>36.0</ele><time>2026-05-02T06:33:25.144Z</time></trkpt><trkpt lat="43.9862029" lon="8.1271925"><ele>35.666666666666664</ele><time>2026-05-02T06:33:26.15Z</time></trkpt><trkpt lat="43.9861417" lon="8.1274317"><ele>35.33333333333333</ele><time>2026-05-02T06:33:27.145Z</time></trkpt><trkpt lat="43.9860824" lon="8.1276611"><ele>35.0</ele><time>2026-05-02T06:33:28.15Z</time></trkpt><trkpt lat="43.9860307" lon="8.1278939"><ele>35.0</ele><time>2026-05-02T06:33:29.145Z</time></trkpt><trkpt lat="43.9859933" lon="8.128135"><ele>35.0</ele><time>2026-05-02T06:33:30.142Z</time></trkpt><trkpt lat="43.9859465" lon="8.1283697"><ele>35.0</ele><time>2026-05-02T06:33:31.147Z</time></trkpt><trkpt lat="43.9858926" lon="8.1285954"><ele>34.0</ele><time>2026-05-02T06:33:32.15Z</time></trkpt><trkpt lat="43.9858417" lon="8.128813"><ele>33.0</ele><time>2026-05-02T06:33:33.146Z</time></trkpt><trkpt lat="43.9857711" lon="8.1290157"><ele>32.0</ele><time>2026-05-02T06:33:34.143Z</time></trkpt><trkpt lat="43.9856893" lon="8.1292128"><ele>31.666666666666664</ele><time>2026-05-02T06:33:35.136Z</time></trkpt><trkpt lat="43.9855862" lon="8.1293991"><ele>31.333333333333336</ele><time>2026-05-02T06:33:36.149Z</time></trkpt><trkpt lat="43.9854513" lon="8.1295753"><ele>31.0</ele><time>2026-05-02T06:33:37.151Z</time></trkpt><trkpt lat="43.9853262" lon="8.1297583"><ele>31.0</ele><time>2026-05-02T06:33:38.146Z</time></trkpt><trkpt lat="43.985206" lon="8.1299439"><ele>31.0</ele><time>2026-05-02T06:33:39.151Z</time></trkpt><trkpt lat="43.9851064" lon="8.1301113"><ele>31.0</ele><time>2026-05-02T06:33:40.147Z</time></trkpt><trkpt lat="43.9850084" lon="8.1302714"><ele>31.0</ele><time>2026-05-02T06:33:41.141Z</time></trkpt><trkpt lat="43.9849238" lon="8.1304218"><ele>31.0</ele><time>2026-05-02T06:33:42.144Z</time></trkpt><trkpt lat="43.9848356" lon="8.1305678"><ele>31.0</ele><time>2026-05-02T06:33:43.149Z</time></trkpt><trkpt lat="43.9847452" lon="8.1306855"><ele>31.0</ele><time>2026-05-02T06:33:44.138Z</time></trkpt><trkpt lat="43.9846246" lon="8.1307621"><ele>31.0</ele><time>2026-05-02T06:33:45.142Z</time></trkpt><trkpt lat="43.9845337" lon="8.1308014"><ele>31.0</ele><time>2026-05-02T06:33:46.15Z</time></trkpt><trkpt lat="43.9844934" lon="8.1308981"><ele>31.0</ele><time>2026-05-02T06:33:47.147Z</time></trkpt><trkpt lat="43.984489" lon="8.1310125"><ele>31.0</ele><time>2026-05-02T06:33:48.143Z</time></trkpt><trkpt lat="43.9844672" lon="8.1311485"><ele>31.0</ele><time>2026-05-02T06:33:49.151Z</time></trkpt><trkpt lat="43.9844131" lon="8.1312675"><ele>31.0</ele><time>2026-05-02T06:33:50.151Z</time></trkpt><trkpt lat="43.9843525" lon="8.1313841"><ele>31.0</ele><time>2026-05-02T06:33:51.149Z</time></trkpt><trkpt lat="43.9842736" lon="8.131503"><ele>31.0</ele><time>2026-05-02T06:33:52.153Z</time></trkpt><trkpt lat="43.9841971" lon="8.1316343"><ele>31.0</ele><time>2026-05-02T06:33:53.154Z</time></trkpt><trkpt lat="43.9841194" lon="8.1317775"><ele>30.75</ele><time>2026-05-02T06:33:54.151Z</time></trkpt><trkpt lat="43.9840384" lon="8.1319326"><ele>30.5</ele><time>2026-05-02T06:33:55.145Z</time></trkpt><trkpt lat="43.9839521" lon="8.1320951"><ele>30.25</ele><time>2026-05-02T06:33:56.154Z</time></trkpt><trkpt lat="43.9838551" lon="8.1322608"><ele>30.0</ele><time>2026-05-02T06:33:57.152Z</time></trkpt><trkpt lat="43.9837533" lon="8.1324263"><ele>30.0</ele><time>2026-05-02T06:33:58.146Z</time></trkpt><trkpt lat="43.9836398" lon="8.1325868"><ele>30.0</ele><time>2026-05-02T06:33:59.153Z</time></trkpt><trkpt lat="43.9834986" lon="8.1327342"><ele>30.0</ele><time>2026-05-02T06:34:00.148Z</time></trkpt><trkpt lat="43.9833518" lon="8.1328681"><ele>29.0</ele><time>2026-05-02T06:34:01.149Z</time></trkpt><trkpt lat="43.9832006" lon="8.1330002"><ele>28.0</ele><time>2026-05-02T06:34:02.15Z</time></trkpt><trkpt lat="43.9830528" lon="8.1331383"><ele>27.0</ele><time>2026-05-02T06:34:03.144Z</time></trkpt><trkpt lat="43.9829009" lon="8.1332648"><ele>27.333333333333336</ele><time>2026-05-02T06:34:04.148Z</time></trkpt><trkpt lat="43.9827528" lon="8.1333954"><ele>27.666666666666668</ele><time>2026-05-02T06:34:05.145Z</time></trkpt><trkpt lat="43.9825894" lon="8.1335194"><ele>28.0</ele><time>2026-05-02T06:34:06.146Z</time></trkpt><trkpt lat="43.9824287" lon="8.1336374"><ele>28.0</ele><time>2026-05-02T06:34:07.141Z</time></trkpt><trkpt lat="43.9822806" lon="8.133754"><ele>28.0</ele><time>2026-05-02T06:34:08.145Z</time></trkpt><trkpt lat="43.9821293" lon="8.1338642"><ele>28.0</ele><time>2026-05-02T06:34:09.149Z</time></trkpt><trkpt lat="43.981999" lon="8.1339926"><ele>28.0</ele><time>2026-05-02T06:34:10.156Z</time></trkpt><trkpt lat="43.9818642" lon="8.1341222"><ele>28.0</ele><time>2026-05-02T06:34:11.146Z</time></trkpt><trkpt lat="43.9817315" lon="8.1342495"><ele>28.0</ele><time>2026-05-02T06:34:12.148Z</time></trkpt><trkpt lat="43.9815784" lon="8.1343756"><ele>28.0</ele><time>2026-05-02T06:34:13.144Z</time></trkpt><trkpt lat="43.9814094" lon="8.1344951"><ele>28.0</ele><time>2026-05-02T06:34:14.148Z</time></trkpt><trkpt lat="43.9812448" lon="8.1346154"><ele>28.0</ele><time>2026-05-02T06:34:15.141Z</time></trkpt><trkpt lat="43.9810739" lon="8.1347074"><ele>28.0</ele><time>2026-05-02T06:34:16.145Z</time></trkpt><trkpt lat="43.9809017" lon="8.134779"><ele>28.0</ele><time>2026-05-02T06:34:17.14Z</time></trkpt><trkpt lat="43.9807449" lon="8.1348271"><ele>28.0</ele><time>2026-05-02T06:34:18.151Z</time></trkpt><trkpt lat="43.9805842" lon="8.1348537"><ele>26.666666666666668</ele><time>2026-05-02T06:34:19.149Z</time></trkpt><trkpt lat="43.9804273" lon="8.1348596"><ele>25.333333333333336</ele><time>2026-05-02T06:34:20.154Z</time></trkpt><trkpt lat="43.9802793" lon="8.1348918"><ele>24.0</ele><time>2026-05-02T06:34:21.155Z</time></trkpt><trkpt lat="43.9801166" lon="8.1349105"><ele>24.666666666666664</ele><time>2026-05-02T06:34:22.146Z</time></trkpt><trkpt lat="43.9799603" lon="8.1349621"><ele>25.333333333333332</ele><time>2026-05-02T06:34:23.145Z</time></trkpt><trkpt lat="43.9798034" lon="8.1350506"><ele>26.0</ele><time>2026-05-02T06:34:24.147Z</time></trkpt><trkpt lat="43.9796616" lon="8.1351654"><ele>26.0</ele><time>2026-05-02T06:34:25.159Z</time></trkpt><trkpt lat="43.9795152" lon="8.1353188"><ele>26.0</ele><time>2026-05-02T06:34:26.148Z</time></trkpt><trkpt lat="43.9793705" lon="8.135473"><ele>26.0</ele><time>2026-05-02T06:34:27.15Z</time></trkpt><trkpt lat="43.9792314" lon="8.1356035"><ele>26.333333333333332</ele><time>2026-05-02T06:34:28.159Z</time></trkpt><trkpt lat="43.979085" lon="8.1357293"><ele>26.666666666666664</ele><time>2026-05-02T06:34:29.149Z</time></trkpt><trkpt lat="43.97892" lon="8.1358369"><ele>27.0</ele><time>2026-05-02T06:34:30.143Z</time></trkpt><trkpt lat="43.9787624" lon="8.1359054"><ele>27.0</ele><time>2026-05-02T06:34:31.149Z</time></trkpt><trkpt lat="43.9785938" lon="8.1359494"><ele>27.0</ele><time>2026-05-02T06:34:32.152Z</time></trkpt><trkpt lat="43.9784183" lon="8.1359724"><ele>27.0</ele><time>2026-05-02T06:34:33.142Z</time></trkpt><trkpt lat="43.9782424" lon="8.1359565"><ele>26.333333333333336</ele><time>2026-05-02T06:34:34.143Z</time></trkpt><trkpt lat="43.9780697" lon="8.1359285"><ele>25.666666666666668</ele><time>2026-05-02T06:34:35.149Z</time></trkpt><trkpt lat="43.9778866" lon="8.1359133"><ele>25.0</ele><time>2026-05-02T06:34:36.15Z</time></trkpt><trkpt lat="43.9777069" lon="8.1359008"><ele>25.0</ele><time>2026-05-02T06:34:37.141Z</time></trkpt><trkpt lat="43.9775393" lon="8.1358868"><ele>25.0</ele><time>2026-05-02T06:34:38.156Z</time></trkpt><trkpt lat="43.9773723" lon="8.1358504"><ele>25.0</ele><time>2026-05-02T06:34:39.156Z</time></trkpt><trkpt lat="43.9771887" lon="8.1358143"><ele>24.333333333333336</ele><time>2026-05-02T06:34:40.15Z</time></trkpt><trkpt lat="43.9770051" lon="8.1358047"><ele>23.666666666666668</ele><time>2026-05-02T06:34:41.155Z</time></trkpt><trkpt lat="43.9768139" lon="8.1357984"><ele>23.0</ele><time>2026-05-02T06:34:42.147Z</time></trkpt><trkpt lat="43.9766277" lon="8.1358377"><ele>22.666666666666668</ele><time>2026-05-02T06:34:43.135Z</time></trkpt><trkpt lat="43.9764582" lon="8.135906"><ele>22.333333333333332</ele><time>2026-05-02T06:34:44.141Z</time></trkpt><trkpt lat="43.9762892" lon="8.135957"><ele>22.0</ele><time>2026-05-02T06:34:45.146Z</time></trkpt><trkpt lat="43.9761331" lon="8.1360145"><ele>22.0</ele><time>2026-05-02T06:34:46.15Z</time></trkpt><trkpt lat="43.9759887" lon="8.1360744"><ele>22.0</ele><time>2026-05-02T06:34:47.151Z</time></trkpt><trkpt lat="43.9758533" lon="8.1361409"><ele>22.0</ele><time>2026-05-02T06:34:48.141Z</time></trkpt><trkpt lat="43.975723" lon="8.1361982"><ele>22.0</ele><time>2026-05-02T06:34:49.15Z</time></trkpt><trkpt lat="43.9755991" lon="8.1362662"><ele>22.0</ele><time>2026-05-02T06:34:50.146Z</time></trkpt><trkpt lat="43.9754659" lon="8.1363373"><ele>22.0</ele><time>2026-05-02T06:34:51.144Z</time></trkpt><trkpt lat="43.9753308" lon="8.1364286"><ele>22.0</ele><time>2026-05-02T06:34:52.148Z</time></trkpt><trkpt lat="43.975202" lon="8.1365368"><ele>22.0</ele><time>2026-05-02T06:34:53.142Z</time></trkpt><trkpt lat="43.9750662" lon="8.1366461"><ele>21.333333333333332</ele><time>2026-05-02T06:34:54.139Z</time></trkpt><trkpt lat="43.9749228" lon="8.1367504"><ele>20.666666666666668</ele><time>2026-05-02T06:34:55.135Z</time></trkpt><trkpt lat="43.9747756" lon="8.1368543"><ele>20.0</ele><time>2026-05-02T06:34:56.146Z</time></trkpt><trkpt lat="43.9746245" lon="8.1369589"><ele>20.0</ele><time>2026-05-02T06:34:57.139Z</time></trkpt><trkpt lat="43.974476" lon="8.1370458"><ele>20.0</ele><time>2026-05-02T06:34:58.151Z</time></trkpt><trkpt lat="43.974317" lon="8.1371091"><ele>20.0</ele><time>2026-05-02T06:34:59.16Z</time></trkpt><trkpt lat="43.974153" lon="8.1371652"><ele>19.333333333333336</ele><time>2026-05-02T06:35:00.156Z</time></trkpt><trkpt lat="43.9739859" lon="8.1372329"><ele>18.666666666666668</ele><time>2026-05-02T06:35:01.146Z</time></trkpt><trkpt lat="43.9738052" lon="8.1373004"><ele>18.0</ele><time>2026-05-02T06:35:02.15Z</time></trkpt><trkpt lat="43.9736331" lon="8.1373799"><ele>18.333333333333332</ele><time>2026-05-02T06:35:03.146Z</time></trkpt><trkpt lat="43.9734614" lon="8.137462"><ele>18.666666666666664</ele><time>2026-05-02T06:35:04.147Z</time></trkpt><trkpt lat="43.9732829" lon="8.1375575"><ele>19.0</ele><time>2026-05-02T06:35:05.147Z</time></trkpt><trkpt lat="43.9731086" lon="8.1376519"><ele>19.0</ele><time>2026-05-02T06:35:06.144Z</time></trkpt><trkpt lat="43.9729371" lon="8.1377586"><ele>19.0</ele><time>2026-05-02T06:35:07.142Z</time></trkpt><trkpt lat="43.9727752" lon="8.1378787"><ele>19.0</ele><time>2026-05-02T06:35:08.15Z</time></trkpt><trkpt lat="43.9726205" lon="8.138016"><ele>18.666666666666664</ele><time>2026-05-02T06:35:09.143Z</time></trkpt><trkpt lat="43.9724682" lon="8.1381515"><ele>18.333333333333332</ele><time>2026-05-02T06:35:10.141Z</time></trkpt><trkpt lat="43.9723296" lon="8.1382739"><ele>18.0</ele><time>2026-05-02T06:35:11.145Z</time></trkpt><trkpt lat="43.9721896" lon="8.1383986"><ele>17.666666666666668</ele><time>2026-05-02T06:35:12.144Z</time></trkpt><trkpt lat="43.9720514" lon="8.1385226"><ele>17.333333333333336</ele><time>2026-05-02T06:35:13.137Z</time></trkpt><trkpt lat="43.9719202" lon="8.138646"><ele>17.0</ele><time>2026-05-02T06:35:14.142Z</time></trkpt><trkpt lat="43.9717902" lon="8.1387423"><ele>16.5</ele><time>2026-05-02T06:35:15.141Z</time></trkpt><trkpt lat="43.9716597" lon="8.1388397"><ele>16.0</ele><time>2026-05-02T06:35:16.149Z</time></trkpt><trkpt lat="43.9715383" lon="8.1389422"><ele>15.5</ele><time>2026-05-02T06:35:17.139Z</time></trkpt><trkpt lat="43.9714005" lon="8.1390476"><ele>15.0</ele><time>2026-05-02T06:35:18.145Z</time></trkpt><trkpt lat="43.9712509" lon="8.1391627"><ele>15.0</ele><time>2026-05-02T06:35:19.155Z</time></trkpt><trkpt lat="43.9710977" lon="8.1392817"><ele>15.0</ele><time>2026-05-02T06:35:20.149Z</time></trkpt><trkpt lat="43.9709416" lon="8.1394083"><ele>15.0</ele><time>2026-05-02T06:35:21.151Z</time></trkpt><trkpt lat="43.9707858" lon="8.1395281"><ele>15.0</ele><time>2026-05-02T06:35:22.151Z</time></trkpt><trkpt lat="43.9706289" lon="8.1396428"><ele>15.0</ele><time>2026-05-02T06:35:23.146Z</time></trkpt><trkpt lat="43.9704747" lon="8.1397563"><ele>15.0</ele><time>2026-05-02T06:35:24.153Z</time></trkpt><trkpt lat="43.9703082" lon="8.1398701"><ele>15.0</ele><time>2026-05-02T06:35:25.148Z</time></trkpt><trkpt lat="43.9701518" lon="8.139984"><ele>15.0</ele><time>2026-05-02T06:35:26.153Z</time></trkpt><trkpt lat="43.9699963" lon="8.1400939"><ele>15.0</ele><time>2026-05-02T06:35:27.155Z</time></trkpt><trkpt lat="43.969833" lon="8.1401877"><ele>14.666666666666668</ele><time>2026-05-02T06:35:28.155Z</time></trkpt><trkpt lat="43.9696685" lon="8.1402856"><ele>14.333333333333334</ele><time>2026-05-02T06:35:29.153Z</time></trkpt><trkpt lat="43.9695051" lon="8.140386"><ele>14.0</ele><time>2026-05-02T06:35:30.151Z</time></trkpt><trkpt lat="43.9693391" lon="8.1404831"><ele>14.0</ele><time>2026-05-02T06:35:31.15Z</time></trkpt><trkpt lat="43.9691767" lon="8.1405787"><ele>14.0</ele><time>2026-05-02T06:35:32.149Z</time></trkpt><trkpt lat="43.9690164" lon="8.1406642"><ele>14.0</ele><time>2026-05-02T06:35:33.158Z</time></trkpt><trkpt lat="43.9688589" lon="8.1407373"><ele>14.0</ele><time>2026-05-02T06:35:34.152Z</time></trkpt><trkpt lat="43.9687083" lon="8.1407966"><ele>14.0</ele><time>2026-05-02T06:35:35.15Z</time></trkpt><trkpt lat="43.9685637" lon="8.1408554"><ele>14.0</ele><time>2026-05-02T06:35:36.155Z</time></trkpt><trkpt lat="43.9684315" lon="8.1409181"><ele>14.0</ele><time>2026-05-02T06:35:37.151Z</time></trkpt><trkpt lat="43.9683042" lon="8.1409679"><ele>13.75</ele><time>2026-05-02T06:35:38.149Z</time></trkpt><trkpt lat="43.9681865" lon="8.1410201"><ele>13.5</ele><time>2026-05-02T06:35:39.161Z</time></trkpt><trkpt lat="43.9680688" lon="8.1410806"><ele>13.25</ele><time>2026-05-02T06:35:40.15Z</time></trkpt><trkpt lat="43.9679481" lon="8.1411413"><ele>13.0</ele><time>2026-05-02T06:35:41.149Z</time></trkpt><trkpt lat="43.967822" lon="8.1411967"><ele>13.0</ele><time>2026-05-02T06:35:42.141Z</time></trkpt><trkpt lat="43.9676928" lon="8.1412423"><ele>13.0</ele><time>2026-05-02T06:35:43.145Z</time></trkpt><trkpt lat="43.9675533" lon="8.141279"><ele>13.0</ele><time>2026-05-02T06:35:44.146Z</time></trkpt><trkpt lat="43.9674101" lon="8.1413265"><ele>13.0</ele><time>2026-05-02T06:35:45.151Z</time></trkpt><trkpt lat="43.9672652" lon="8.1413897"><ele>12.666666666666666</ele><time>2026-05-02T06:35:46.155Z</time></trkpt><trkpt lat="43.967124" lon="8.1414455"><ele>12.333333333333332</ele><time>2026-05-02T06:35:47.155Z</time></trkpt><trkpt lat="43.9669717" lon="8.141483"><ele>12.0</ele><time>2026-05-02T06:35:48.149Z</time></trkpt><trkpt lat="43.9668134" lon="8.1414875"><ele>12.0</ele><time>2026-05-02T06:35:49.154Z</time></trkpt><trkpt lat="43.966669" lon="8.1415045"><ele>12.0</ele><time>2026-05-02T06:35:50.149Z</time></trkpt><trkpt lat="43.9665398" lon="8.1415291"><ele>12.0</ele><time>2026-05-02T06:35:51.148Z</time></trkpt><trkpt lat="43.9664092" lon="8.1415519"><ele>12.0</ele><time>2026-05-02T06:35:52.147Z</time></trkpt><trkpt lat="43.9662854" lon="8.1415636"><ele>12.0</ele><time>2026-05-02T06:35:53.161Z</time></trkpt><trkpt lat="43.9661726" lon="8.1415752"><ele>12.0</ele><time>2026-05-02T06:35:54.146Z</time></trkpt><trkpt lat="43.9660767" lon="8.1415806"><ele>12.0</ele><time>2026-05-02T06:35:55.15Z</time></trkpt><trkpt lat="43.9659831" lon="8.1415782"><ele>12.0</ele><time>2026-05-02T06:35:56.147Z</time></trkpt><trkpt lat="43.9658899" lon="8.1415534"><ele>12.0</ele><time>2026-05-02T06:35:57.153Z</time></trkpt><trkpt lat="43.9658002" lon="8.1414949"><ele>12.0</ele><time>2026-05-02T06:35:58.151Z</time></trkpt><trkpt lat="43.9657148" lon="8.1414317"><ele>12.0</ele><time>2026-05-02T06:35:59.148Z</time></trkpt><trkpt lat="43.96563" lon="8.1413896"><ele>12.0</ele><time>2026-05-02T06:36:00.148Z</time></trkpt><trkpt lat="43.9655486" lon="8.1413745"><ele>12.0</ele><time>2026-05-02T06:36:01.153Z</time></trkpt><trkpt lat="43.9654689" lon="8.1413762"><ele>12.0</ele><time>2026-05-02T06:36:02.148Z</time></trkpt><trkpt lat="43.965396" lon="8.1413908"><ele>12.0</ele><time>2026-05-02T06:36:03.145Z</time></trkpt><trkpt lat="43.9653172" lon="8.1414243"><ele>12.0</ele><time>2026-05-02T06:36:04.142Z</time></trkpt><trkpt lat="43.9652471" lon="8.1414771"><ele>12.0</ele><time>2026-05-02T06:36:05.146Z</time></trkpt><trkpt lat="43.9651699" lon="8.1415261"><ele>12.0</ele><time>2026-05-02T06:36:06.151Z</time></trkpt><trkpt lat="43.9650784" lon="8.1415669"><ele>12.0</ele><time>2026-05-02T06:36:07.154Z</time></trkpt><trkpt lat="43.9649817" lon="8.1415948"><ele>12.0</ele><time>2026-05-02T06:36:08.148Z</time></trkpt><trkpt lat="43.9648716" lon="8.1416212"><ele>12.5</ele><time>2026-05-02T06:36:09.151Z</time></trkpt><trkpt lat="43.9647475" lon="8.1416381"><ele>13.0</ele><time>2026-05-02T06:36:10.146Z</time></trkpt><trkpt lat="43.9646223" lon="8.141646"><ele>13.5</ele><time>2026-05-02T06:36:11.142Z</time></trkpt><trkpt lat="43.9644791" lon="8.1416741"><ele>14.0</ele><time>2026-05-02T06:36:12.143Z</time></trkpt><trkpt lat="43.9643251" lon="8.1416905"><ele>14.0</ele><time>2026-05-02T06:36:13.15Z</time></trkpt><trkpt lat="43.9641574" lon="8.1417292"><ele>14.0</ele><time>2026-05-02T06:36:14.158Z</time></trkpt><trkpt lat="43.9639679" lon="8.1417666"><ele>14.0</ele><time>2026-05-02T06:36:15.145Z</time></trkpt><trkpt lat="43.963772" lon="8.1418149"><ele>14.0</ele><time>2026-05-02T06:36:16.16Z</time></trkpt><trkpt lat="43.9635625" lon="8.141861"><ele>14.0</ele><time>2026-05-02T06:36:17.145Z</time></trkpt><trkpt lat="43.9633604" lon="8.1418959"><ele>14.0</ele><time>2026-05-02T06:36:18.151Z</time></trkpt><trkpt lat="43.963165" lon="8.141924"><ele>11.666666666666668</ele><time>2026-05-02T06:36:19.158Z</time></trkpt><trkpt lat="43.9629775" lon="8.141955"><ele>9.333333333333334</ele><time>2026-05-02T06:36:20.155Z</time></trkpt><trkpt lat="43.9628126" lon="8.1420067"><ele>7.0</ele><time>2026-05-02T06:36:21.155Z</time></trkpt><trkpt lat="43.9626619" lon="8.1420883"><ele>6.666666666666667</ele><time>2026-05-02T06:36:22.152Z</time></trkpt><trkpt lat="43.9625255" lon="8.142214"><ele>6.333333333333334</ele><time>2026-05-02T06:36:23.152Z</time></trkpt><trkpt lat="43.9623972" lon="8.1423544"><ele>6.0</ele><time>2026-05-02T06:36:24.157Z</time></trkpt><trkpt lat="43.962275" lon="8.1425018"><ele>7.666666666666666</ele><time>2026-05-02T06:36:25.158Z</time></trkpt><trkpt lat="43.9621442" lon="8.1426195"><ele>9.333333333333332</ele><time>2026-05-02T06:36:26.156Z</time></trkpt><trkpt lat="43.9620168" lon="8.142745"><ele>11.0</ele><time>2026-05-02T06:36:27.155Z</time></trkpt><trkpt lat="43.961893" lon="8.1428733"><ele>11.0</ele><time>2026-05-02T06:36:28.143Z</time></trkpt><trkpt lat="43.9617755" lon="8.1429964"><ele>11.0</ele><time>2026-05-02T06:36:29.146Z</time></trkpt><trkpt lat="43.9616585" lon="8.1431156"><ele>11.0</ele><time>2026-05-02T06:36:30.15Z</time></trkpt><trkpt lat="43.9615545" lon="8.1432225"><ele>11.0</ele><time>2026-05-02T06:36:31.152Z</time></trkpt><trkpt lat="43.9614435" lon="8.1432982"><ele>10.8</ele><time>2026-05-02T06:36:32.141Z</time></trkpt><trkpt lat="43.9613334" lon="8.1433831"><ele>10.600000000000001</ele><time>2026-05-02T06:36:33.15Z</time></trkpt><trkpt lat="43.9612488" lon="8.1434525"><ele>10.4</ele><time>2026-05-02T06:36:34.151Z</time></trkpt><trkpt lat="43.9611503" lon="8.1434858"><ele>10.2</ele><time>2026-05-02T06:36:35.15Z</time></trkpt><trkpt lat="43.9610589" lon="8.1434927"><ele>10.0</ele><time>2026-05-02T06:36:36.159Z</time></trkpt><trkpt lat="43.9609812" lon="8.1434794"><ele>10.0</ele><time>2026-05-02T06:36:37.147Z</time></trkpt><trkpt lat="43.9608828" lon="8.1435474"><ele>10.0</ele><time>2026-05-02T06:36:39.151Z</time></trkpt><trkpt lat="43.9608575" lon="8.1437182"><ele>10.0</ele><time>2026-05-02T06:36:41.154Z</time></trkpt><trkpt lat="43.9608102" lon="8.1437972"><ele>10.0</ele><time>2026-05-02T06:36:42.151Z</time></trkpt><trkpt lat="43.9607465" lon="8.1438741"><ele>10.0</ele><time>2026-05-02T06:36:43.142Z</time></trkpt><trkpt lat="43.9606639" lon="8.1439535"><ele>9.75</ele><time>2026-05-02T06:36:44.148Z</time></trkpt><trkpt lat="43.9605753" lon="8.1440364"><ele>9.5</ele><time>2026-05-02T06:36:45.145Z</time></trkpt><trkpt lat="43.9604675" lon="8.1441201"><ele>9.25</ele><time>2026-05-02T06:36:46.146Z</time></trkpt><trkpt lat="43.9603601" lon="8.1442064"><ele>9.0</ele><time>2026-05-02T06:36:47.141Z</time></trkpt><trkpt lat="43.9602463" lon="8.1443026"><ele>9.25</ele><time>2026-05-02T06:36:48.145Z</time></trkpt><trkpt lat="43.9601255" lon="8.1443987"><ele>9.5</ele><time>2026-05-02T06:36:49.145Z</time></trkpt><trkpt lat="43.9599979" lon="8.1444968"><ele>9.75</ele><time>2026-05-02T06:36:50.154Z</time></trkpt><trkpt lat="43.9598651" lon="8.1445894"><ele>10.0</ele><time>2026-05-02T06:36:51.143Z</time></trkpt><trkpt lat="43.959734" lon="8.1446787"><ele>10.0</ele><time>2026-05-02T06:36:52.141Z</time></trkpt><trkpt lat="43.9596029" lon="8.1447693"><ele>10.0</ele><time>2026-05-02T06:36:53.187Z</time></trkpt><trkpt lat="43.9594645" lon="8.1448635"><ele>10.0</ele><time>2026-05-02T06:36:54.138Z</time></trkpt><trkpt lat="43.9593081" lon="8.1449684"><ele>9.666666666666668</ele><time>2026-05-02T06:36:55.139Z</time></trkpt><trkpt lat="43.9591542" lon="8.1450695"><ele>9.333333333333334</ele><time>2026-05-02T06:36:56.135Z</time></trkpt><trkpt lat="43.9590001" lon="8.1451618"><ele>9.0</ele><time>2026-05-02T06:36:57.138Z</time></trkpt><trkpt lat="43.9588505" lon="8.1452517"><ele>9.0</ele><time>2026-05-02T06:36:58.137Z</time></trkpt><trkpt lat="43.9586937" lon="8.1453435"><ele>9.0</ele><time>2026-05-02T06:36:59.135Z</time></trkpt><trkpt lat="43.958553" lon="8.1454384"><ele>9.0</ele><time>2026-05-02T06:37:00.134Z</time></trkpt><trkpt lat="43.9584211" lon="8.1455332"><ele>8.5</ele><time>2026-05-02T06:37:01.141Z</time></trkpt><trkpt lat="43.9581348" lon="8.1456883"><ele>8.0</ele><time>2026-05-02T06:37:03.141Z</time></trkpt><trkpt lat="43.9579834" lon="8.1457615"><ele>7.666666666666666</ele><time>2026-05-02T06:37:04.135Z</time></trkpt><trkpt lat="43.9578424" lon="8.1458388"><ele>7.333333333333334</ele><time>2026-05-02T06:37:05.136Z</time></trkpt><trkpt lat="43.9577038" lon="8.1459116"><ele>7.0</ele><time>2026-05-02T06:37:06.133Z</time></trkpt><trkpt lat="43.957561" lon="8.1459901"><ele>6.666666666666667</ele><time>2026-05-02T06:37:07.14Z</time></trkpt><trkpt lat="43.9574127" lon="8.1460814"><ele>6.333333333333334</ele><time>2026-05-02T06:37:08.139Z</time></trkpt><trkpt lat="43.9572678" lon="8.1461732"><ele>6.0</ele><time>2026-05-02T06:37:09.141Z</time></trkpt><trkpt lat="43.9571266" lon="8.1462575"><ele>6.0</ele><time>2026-05-02T06:37:10.142Z</time></trkpt><trkpt lat="43.9569844" lon="8.1463412"><ele>6.0</ele><time>2026-05-02T06:37:11.146Z</time></trkpt><trkpt lat="43.9568368" lon="8.1464427"><ele>6.0</ele><time>2026-05-02T06:37:12.143Z</time></trkpt><trkpt lat="43.9566858" lon="8.1465481"><ele>6.333333333333334</ele><time>2026-05-02T06:37:13.139Z</time></trkpt><trkpt lat="43.9565312" lon="8.1466535"><ele>6.666666666666667</ele><time>2026-05-02T06:37:14.147Z</time></trkpt><trkpt lat="43.9563777" lon="8.1467653"><ele>7.0</ele><time>2026-05-02T06:37:15.142Z</time></trkpt><trkpt lat="43.956232" lon="8.1468609"><ele>7.0</ele><time>2026-05-02T06:37:16.145Z</time></trkpt><trkpt lat="43.9560801" lon="8.1469472"><ele>7.0</ele><time>2026-05-02T06:37:17.145Z</time></trkpt><trkpt lat="43.9559344" lon="8.1470398"><ele>7.0</ele><time>2026-05-02T06:37:18.142Z</time></trkpt><trkpt lat="43.9557882" lon="8.1471288"><ele>7.333333333333334</ele><time>2026-05-02T06:37:19.141Z</time></trkpt><trkpt lat="43.9556439" lon="8.147213"><ele>7.666666666666666</ele><time>2026-05-02T06:37:20.143Z</time></trkpt><trkpt lat="43.9555025" lon="8.1472957"><ele>8.0</ele><time>2026-05-02T06:37:21.143Z</time></trkpt><trkpt lat="43.9553504" lon="8.1473923"><ele>7.666666666666666</ele><time>2026-05-02T06:37:22.138Z</time></trkpt><trkpt lat="43.9552087" lon="8.1474891"><ele>7.333333333333334</ele><time>2026-05-02T06:37:23.138Z</time></trkpt><trkpt lat="43.9550617" lon="8.1475758"><ele>7.0</ele><time>2026-05-02T06:37:24.137Z</time></trkpt><trkpt lat="43.9549301" lon="8.1476689"><ele>7.0</ele><time>2026-05-02T06:37:25.14Z</time></trkpt><trkpt lat="43.9547923" lon="8.1477677"><ele>7.0</ele><time>2026-05-02T06:37:26.146Z</time></trkpt><trkpt lat="43.9546738" lon="8.1478506"><ele>7.0</ele><time>2026-05-02T06:37:27.146Z</time></trkpt><trkpt lat="43.9545596" lon="8.1479154"><ele>7.0</ele><time>2026-05-02T06:37:28.153Z</time></trkpt><trkpt lat="43.9544437" lon="8.1479631"><ele>7.0</ele><time>2026-05-02T06:37:29.14Z</time></trkpt><trkpt lat="43.9543319" lon="8.1479857"><ele>6.999999999999999</ele><time>2026-05-02T06:37:30.141Z</time></trkpt><trkpt lat="43.9542456" lon="8.147971"><ele>6.999999999999999</ele><time>2026-05-02T06:37:31.143Z</time></trkpt><trkpt lat="43.9541324" lon="8.1479222"><ele>7.0</ele><time>2026-05-02T06:37:32.14Z</time></trkpt><trkpt lat="43.9540169" lon="8.1479084"><ele>7.0</ele><time>2026-05-02T06:37:33.149Z</time></trkpt><trkpt lat="43.9539208" lon="8.1479191"><ele>6.833333333333334</ele><time>2026-05-02T06:37:34.145Z</time></trkpt><trkpt lat="43.9538357" lon="8.1479403"><ele>6.666666666666667</ele><time>2026-05-02T06:37:35.144Z</time></trkpt><trkpt lat="43.9537494" lon="8.1480137"><ele>6.5</ele><time>2026-05-02T06:37:37.145Z</time></trkpt><trkpt lat="43.9537505" lon="8.1481146"><ele>6.333333333333334</ele><time>2026-05-02T06:37:38.145Z</time></trkpt><trkpt lat="43.9537557" lon="8.1482341"><ele>6.166666666666667</ele><time>2026-05-02T06:37:39.141Z</time></trkpt><trkpt lat="43.9537847" lon="8.1483654"><ele>6.0</ele><time>2026-05-02T06:37:40.131Z</time></trkpt><trkpt lat="43.9538281" lon="8.148519"><ele>6.75</ele><time>2026-05-02T06:37:41.139Z</time></trkpt><trkpt lat="43.9538681" lon="8.1486998"><ele>7.5</ele><time>2026-05-02T06:37:42.14Z</time></trkpt><trkpt lat="43.9539102" lon="8.1488892"><ele>8.25</ele><time>2026-05-02T06:37:43.14Z</time></trkpt><trkpt lat="43.9539543" lon="8.1490784"><ele>9.0</ele><time>2026-05-02T06:37:44.148Z</time></trkpt><trkpt lat="43.9540121" lon="8.149279"><ele>9.0</ele><time>2026-05-02T06:37:45.148Z</time></trkpt><trkpt lat="43.9540673" lon="8.14948"><ele>9.0</ele><time>2026-05-02T06:37:46.151Z</time></trkpt><trkpt lat="43.954116" lon="8.1496703"><ele>9.0</ele><time>2026-05-02T06:37:47.147Z</time></trkpt><trkpt lat="43.9541634" lon="8.1498592"><ele>9.0</ele><time>2026-05-02T06:37:48.147Z</time></trkpt><trkpt lat="43.9542119" lon="8.1500358"><ele>10.2</ele><time>2026-05-02T06:37:49.151Z</time></trkpt><trkpt lat="43.954254" lon="8.1501922"><ele>11.4</ele><time>2026-05-02T06:37:50.149Z</time></trkpt><trkpt lat="43.9542765" lon="8.1503224"><ele>12.6</ele><time>2026-05-02T06:37:51.143Z</time></trkpt><trkpt lat="43.9542878" lon="8.1504487"><ele>13.8</ele><time>2026-05-02T06:37:52.144Z</time></trkpt><trkpt lat="43.954292" lon="8.1505682"><ele>15.0</ele><time>2026-05-02T06:37:53.138Z</time></trkpt><trkpt lat="43.954294" lon="8.1506779"><ele>14.8</ele><time>2026-05-02T06:37:54.14Z</time></trkpt><trkpt lat="43.9542911" lon="8.1507759"><ele>14.6</ele><time>2026-05-02T06:37:55.144Z</time></trkpt><trkpt lat="43.9542127" lon="8.1509021"><ele>14.399999999999999</ele><time>2026-05-02T06:37:57.141Z</time></trkpt><trkpt lat="43.9541268" lon="8.1509095"><ele>14.2</ele><time>2026-05-02T06:37:58.152Z</time></trkpt><trkpt lat="43.9540073" lon="8.1508896"><ele>14.0</ele><time>2026-05-02T06:37:59.143Z</time></trkpt><trkpt lat="43.9538588" lon="8.1508684"><ele>14.0</ele><time>2026-05-02T06:38:00.144Z</time></trkpt><trkpt lat="43.9536931" lon="8.1508431"><ele>14.0</ele><time>2026-05-02T06:38:01.15Z</time></trkpt><trkpt lat="43.9535289" lon="8.150835"><ele>14.0</ele><time>2026-05-02T06:38:02.137Z</time></trkpt><trkpt lat="43.953386" lon="8.1508482"><ele>13.0</ele><time>2026-05-02T06:38:03.156Z</time></trkpt><trkpt lat="43.9532475" lon="8.1508537"><ele>12.0</ele><time>2026-05-02T06:38:04.145Z</time></trkpt><trkpt lat="43.9531248" lon="8.1508616"><ele>11.0</ele><time>2026-05-02T06:38:05.15Z</time></trkpt><trkpt lat="43.9530079" lon="8.1508712"><ele>10.0</ele><time>2026-05-02T06:38:06.148Z</time></trkpt><trkpt lat="43.952892" lon="8.1508766"><ele>10.0</ele><time>2026-05-02T06:38:07.149Z</time></trkpt><trkpt lat="43.9527867" lon="8.1508784"><ele>10.0</ele><time>2026-05-02T06:38:08.146Z</time></trkpt><trkpt lat="43.952689" lon="8.1508735"><ele>10.0</ele><time>2026-05-02T06:38:09.149Z</time></trkpt><trkpt lat="43.9526018" lon="8.1508737"><ele>10.0</ele><time>2026-05-02T06:38:10.141Z</time></trkpt><trkpt lat="43.9525153" lon="8.1508731"><ele>10.0</ele><time>2026-05-02T06:38:11.145Z</time></trkpt><trkpt lat="43.9524326" lon="8.1508669"><ele>9.4</ele><time>2026-05-02T06:38:12.153Z</time></trkpt><trkpt lat="43.9523414" lon="8.1508716"><ele>8.8</ele><time>2026-05-02T06:38:13.151Z</time></trkpt><trkpt lat="43.9522572" lon="8.1508905"><ele>8.2</ele><time>2026-05-02T06:38:14.143Z</time></trkpt><trkpt lat="43.9521685" lon="8.150917"><ele>7.6</ele><time>2026-05-02T06:38:15.146Z</time></trkpt><trkpt lat="43.9520796" lon="8.1509498"><ele>7.0</ele><time>2026-05-02T06:38:16.152Z</time></trkpt><trkpt lat="43.9519886" lon="8.1509843"><ele>7.0</ele><time>2026-05-02T06:38:17.149Z</time></trkpt><trkpt lat="43.9518983" lon="8.151017"><ele>6.999999999999999</ele><time>2026-05-02T06:38:18.143Z</time></trkpt><trkpt lat="43.9518079" lon="8.1510517"><ele>6.999999999999999</ele><time>2026-05-02T06:38:19.144Z</time></trkpt><trkpt lat="43.9517226" lon="8.1510858"><ele>7.0</ele><time>2026-05-02T06:38:20.148Z</time></trkpt><trkpt lat="43.9516382" lon="8.1511163"><ele>7.0</ele><time>2026-05-02T06:38:21.144Z</time></trkpt><trkpt lat="43.9515496" lon="8.151149"><ele>6.833333333333334</ele><time>2026-05-02T06:38:22.144Z</time></trkpt><trkpt lat="43.9514758" lon="8.1511787"><ele>6.666666666666667</ele><time>2026-05-02T06:38:23.147Z</time></trkpt><trkpt lat="43.9514087" lon="8.1512016"><ele>6.5</ele><time>2026-05-02T06:38:24.154Z</time></trkpt><trkpt lat="43.9513461" lon="8.1512139"><ele>6.333333333333334</ele><time>2026-05-02T06:38:25.148Z</time></trkpt><trkpt lat="43.9512855" lon="8.1512392"><ele>6.166666666666667</ele><time>2026-05-02T06:38:26.149Z</time></trkpt><trkpt lat="43.9512002" lon="8.1513157"><ele>6.0</ele><time>2026-05-02T06:38:28.149Z</time></trkpt><trkpt lat="43.9512106" lon="8.1514771"><ele>6.166666666666667</ele><time>2026-05-02T06:38:30.151Z</time></trkpt><trkpt lat="43.9512357" lon="8.1515736"><ele>6.333333333333334</ele><time>2026-05-02T06:38:31.16Z</time></trkpt><trkpt lat="43.9512693" lon="8.1516712"><ele>6.5</ele><time>2026-05-02T06:38:32.159Z</time></trkpt><trkpt lat="43.9513074" lon="8.1517765"><ele>6.666666666666667</ele><time>2026-05-02T06:38:33.156Z</time></trkpt><trkpt lat="43.9513492" lon="8.151883"><ele>6.833333333333334</ele><time>2026-05-02T06:38:34.16Z</time></trkpt><trkpt lat="43.9513899" lon="8.1519951"><ele>7.0</ele><time>2026-05-02T06:38:35.163Z</time></trkpt><trkpt lat="43.9514295" lon="8.1521132"><ele>7.0</ele><time>2026-05-02T06:38:36.158Z</time></trkpt><trkpt lat="43.9514719" lon="8.1522352"><ele>6.999999999999999</ele><time>2026-05-02T06:38:37.164Z</time></trkpt><trkpt lat="43.9515165" lon="8.1523604"><ele>6.999999999999999</ele><time>2026-05-02T06:38:38.146Z</time></trkpt><trkpt lat="43.9515673" lon="8.1524935"><ele>7.0</ele><time>2026-05-02T06:38:39.157Z</time></trkpt><trkpt lat="43.9516099" lon="8.1526324"><ele>7.0</ele><time>2026-05-02T06:38:40.162Z</time></trkpt><trkpt lat="43.9516504" lon="8.1527733"><ele>6.75</ele><time>2026-05-02T06:38:41.163Z</time></trkpt><trkpt lat="43.9516904" lon="8.1529169"><ele>6.5</ele><time>2026-05-02T06:38:42.161Z</time></trkpt><trkpt lat="43.9517348" lon="8.1530654"><ele>6.25</ele><time>2026-05-02T06:38:43.151Z</time></trkpt><trkpt lat="43.9517798" lon="8.1532148"><ele>6.0</ele><time>2026-05-02T06:38:44.152Z</time></trkpt><trkpt lat="43.9518184" lon="8.1533594"><ele>7.0</ele><time>2026-05-02T06:38:45.156Z</time></trkpt><trkpt lat="43.9518545" lon="8.1534905"><ele>8.0</ele><time>2026-05-02T06:38:46.156Z</time></trkpt><trkpt lat="43.9518859" lon="8.1536121"><ele>9.0</ele><time>2026-05-02T06:38:47.155Z</time></trkpt><trkpt lat="43.9519089" lon="8.153718"><ele>10.0</ele><time>2026-05-02T06:38:48.158Z</time></trkpt><trkpt lat="43.9519136" lon="8.153825"><ele>11.0</ele><time>2026-05-02T06:38:49.165Z</time></trkpt><trkpt lat="43.9519118" lon="8.1539279"><ele>12.0</ele><time>2026-05-02T06:38:50.155Z</time></trkpt><trkpt lat="43.9519181" lon="8.1540798"><ele>12.166666666666666</ele><time>2026-05-02T06:38:52.16Z</time></trkpt><trkpt lat="43.9519413" lon="8.1541879"><ele>12.333333333333332</ele><time>2026-05-02T06:38:54.152Z</time></trkpt><trkpt lat="43.9519662" lon="8.1542721"><ele>12.5</ele><time>2026-05-02T06:38:56.155Z</time></trkpt><trkpt lat="43.9520074" lon="8.154365"><ele>12.666666666666666</ele><time>2026-05-02T06:39:00.167Z</time></trkpt><trkpt lat="43.9520724" lon="8.1544669"><ele>12.833333333333332</ele><time>2026-05-02T06:48:18.179Z</time></trkpt><trkpt lat="43.952135" lon="8.1546173"><ele>13.0</ele><time>2026-05-02T06:48:20.175Z</time></trkpt><trkpt lat="43.9521661" lon="8.1547024"><ele>12.999999999999998</ele><time>2026-05-02T06:48:21.178Z</time></trkpt><trkpt lat="43.952201" lon="8.1547906"><ele>13.0</ele><time>2026-05-02T06:48:22.177Z</time></trkpt><trkpt lat="43.952239" lon="8.1548744"><ele>13.0</ele><time>2026-05-02T06:48:23.181Z</time></trkpt><trkpt lat="43.9522721" lon="8.1549606"><ele>13.0</ele><time>2026-05-02T06:48:24.178Z</time></trkpt><trkpt lat="43.952304" lon="8.1550592"><ele>12.999999999999998</ele><time>2026-05-02T06:48:25.174Z</time></trkpt><trkpt lat="43.9523254" lon="8.1551712"><ele>13.0</ele><time>2026-05-02T06:48:26.178Z</time></trkpt><trkpt lat="43.9523451" lon="8.1552979"><ele>13.600000000000001</ele><time>2026-05-02T06:48:27.175Z</time></trkpt><trkpt lat="43.9523625" lon="8.155435"><ele>14.200000000000001</ele><time>2026-05-02T06:48:28.182Z</time></trkpt><trkpt lat="43.9523773" lon="8.1555858"><ele>14.8</ele><time>2026-05-02T06:48:29.176Z</time></trkpt><trkpt lat="43.9523961" lon="8.1557407"><ele>15.4</ele><time>2026-05-02T06:48:30.177Z</time></trkpt><trkpt lat="43.9524118" lon="8.1559009"><ele>16.0</ele><time>2026-05-02T06:48:31.172Z</time></trkpt><trkpt lat="43.9524299" lon="8.1560687"><ele>16.0</ele><time>2026-05-02T06:48:32.178Z</time></trkpt><trkpt lat="43.9524587" lon="8.1562429"><ele>16.0</ele><time>2026-05-02T06:48:33.183Z</time></trkpt><trkpt lat="43.9524882" lon="8.1564192"><ele>16.0</ele><time>2026-05-02T06:48:34.169Z</time></trkpt><trkpt lat="43.9525216" lon="8.156589"><ele>16.0</ele><time>2026-05-02T06:48:35.174Z</time></trkpt><trkpt lat="43.9525596" lon="8.1567543"><ele>22.75</ele><time>2026-05-02T06:48:36.164Z</time></trkpt><trkpt lat="43.9525998" lon="8.1569194"><ele>29.5</ele><time>2026-05-02T06:48:37.169Z</time></trkpt><trkpt lat="43.9526406" lon="8.1570885"><ele>36.25</ele><time>2026-05-02T06:48:38.166Z</time></trkpt><trkpt lat="43.9526833" lon="8.1572596"><ele>43.0</ele><time>2026-05-02T06:48:39.164Z</time></trkpt><trkpt lat="43.9527332" lon="8.1574358"><ele>43.0</ele><time>2026-05-02T06:48:40.17Z</time></trkpt><trkpt lat="43.9527821" lon="8.1576195"><ele>43.0</ele><time>2026-05-02T06:48:41.17Z</time></trkpt><trkpt lat="43.9528236" lon="8.157812"><ele>43.0</ele><time>2026-05-02T06:48:42.172Z</time></trkpt><trkpt lat="43.9528536" lon="8.1580133"><ele>43.0</ele><time>2026-05-02T06:48:43.17Z</time></trkpt><trkpt lat="43.9528758" lon="8.1582514"><ele>41.333333333333336</ele><time>2026-05-02T06:48:44.171Z</time></trkpt><trkpt lat="43.9528679" lon="8.1584766"><ele>39.666666666666664</ele><time>2026-05-02T06:48:45.174Z</time></trkpt><trkpt lat="43.9528611" lon="8.1587044"><ele>38.0</ele><time>2026-05-02T06:48:46.18Z</time></trkpt><trkpt lat="43.9528554" lon="8.1589233"><ele>36.33333333333333</ele><time>2026-05-02T06:48:47.181Z</time></trkpt><trkpt lat="43.9528792" lon="8.1591324"><ele>34.666666666666664</ele><time>2026-05-02T06:48:48.168Z</time></trkpt><trkpt lat="43.9529276" lon="8.1593478"><ele>33.0</ele><time>2026-05-02T06:48:49.181Z</time></trkpt><trkpt lat="43.9530063" lon="8.1595383"><ele>33.0</ele><time>2026-05-02T06:48:50.178Z</time></trkpt><trkpt lat="43.9531044" lon="8.1597176"><ele>33.0</ele><time>2026-05-02T06:48:51.174Z</time></trkpt><trkpt lat="43.9531948" lon="8.1599075"><ele>33.0</ele><time>2026-05-02T06:48:52.182Z</time></trkpt><trkpt lat="43.9532788" lon="8.1600993"><ele>35.0</ele><time>2026-05-02T06:48:53.182Z</time></trkpt><trkpt lat="43.9533515" lon="8.1603001"><ele>37.0</ele><time>2026-05-02T06:48:54.183Z</time></trkpt><trkpt lat="43.9533954" lon="8.1605263"><ele>39.0</ele><time>2026-05-02T06:48:55.168Z</time></trkpt><trkpt lat="43.9534128" lon="8.1607687"><ele>43.0</ele><time>2026-05-02T06:48:56.173Z</time></trkpt><trkpt lat="43.9533885" lon="8.1610103"><ele>47.0</ele><time>2026-05-02T06:48:57.171Z</time></trkpt><trkpt lat="43.9533446" lon="8.1612504"><ele>51.0</ele><time>2026-05-02T06:48:58.182Z</time></trkpt><trkpt lat="43.953261" lon="8.1614739"><ele>46.0</ele><time>2026-05-02T06:48:59.177Z</time></trkpt><trkpt lat="43.9532001" lon="8.1616954"><ele>41.0</ele><time>2026-05-02T06:49:00.169Z</time></trkpt><trkpt lat="43.9531326" lon="8.1619103"><ele>36.0</ele><time>2026-05-02T06:49:01.173Z</time></trkpt><trkpt lat="43.9530661" lon="8.1621328"><ele>36.0</ele><time>2026-05-02T06:49:02.174Z</time></trkpt><trkpt lat="43.9530044" lon="8.1623461"><ele>36.0</ele><time>2026-05-02T06:49:03.172Z</time></trkpt><trkpt lat="43.9529489" lon="8.1625592"><ele>36.0</ele><time>2026-05-02T06:49:04.182Z</time></trkpt><trkpt lat="43.9529037" lon="8.1627694"><ele>36.333333333333336</ele><time>2026-05-02T06:49:05.174Z</time></trkpt><trkpt lat="43.9528584" lon="8.1629824"><ele>36.66666666666667</ele><time>2026-05-02T06:49:06.173Z</time></trkpt><trkpt lat="43.9528016" lon="8.1631881"><ele>37.0</ele><time>2026-05-02T06:49:07.176Z</time></trkpt><trkpt lat="43.95275" lon="8.1633997"><ele>41.0</ele><time>2026-05-02T06:49:08.177Z</time></trkpt><trkpt lat="43.9527082" lon="8.1636051"><ele>45.0</ele><time>2026-05-02T06:49:09.174Z</time></trkpt><trkpt lat="43.9526579" lon="8.163799"><ele>49.0</ele><time>2026-05-02T06:49:10.184Z</time></trkpt><trkpt lat="43.9526146" lon="8.1640202"><ele>53.666666666666664</ele><time>2026-05-02T06:49:11.174Z</time></trkpt><trkpt lat="43.9525667" lon="8.1642412"><ele>58.33333333333333</ele><time>2026-05-02T06:49:12.174Z</time></trkpt><trkpt lat="43.9525365" lon="8.1644488"><ele>63.0</ele><time>2026-05-02T06:49:13.171Z</time></trkpt><trkpt lat="43.9525301" lon="8.1646549"><ele>65.0</ele><time>2026-05-02T06:49:14.18Z</time></trkpt><trkpt lat="43.9525495" lon="8.1648649"><ele>67.0</ele><time>2026-05-02T06:49:15.171Z</time></trkpt><trkpt lat="43.952566" lon="8.1650649"><ele>69.0</ele><time>2026-05-02T06:49:16.176Z</time></trkpt><trkpt lat="43.9526057" lon="8.1652629"><ele>71.0</ele><time>2026-05-02T06:49:17.185Z</time></trkpt><trkpt lat="43.9526398" lon="8.1654433"><ele>71.0</ele><time>2026-05-02T06:49:18.187Z</time></trkpt><trkpt lat="43.9526679" lon="8.1656266"><ele>71.0</ele><time>2026-05-02T06:49:19.185Z</time></trkpt><trkpt lat="43.9527024" lon="8.1658093"><ele>71.0</ele><time>2026-05-02T06:49:20.183Z</time></trkpt><trkpt lat="43.95274" lon="8.1659834"><ele>71.0</ele><time>2026-05-02T06:49:21.185Z</time></trkpt><trkpt lat="43.9527902" lon="8.1661554"><ele>70.0</ele><time>2026-05-02T06:49:22.182Z</time></trkpt><trkpt lat="43.9528611" lon="8.1663274"><ele>69.0</ele><time>2026-05-02T06:49:23.188Z</time></trkpt><trkpt lat="43.9529233" lon="8.1665106"><ele>68.0</ele><time>2026-05-02T06:49:24.178Z</time></trkpt><trkpt lat="43.9529802" lon="8.1666996"><ele>67.0</ele><time>2026-05-02T06:49:25.187Z</time></trkpt><trkpt lat="43.9530145" lon="8.1668797"><ele>66.5</ele><time>2026-05-02T06:49:26.188Z</time></trkpt><trkpt lat="43.9530291" lon="8.1670697"><ele>66.0</ele><time>2026-05-02T06:49:27.184Z</time></trkpt><trkpt lat="43.9530469" lon="8.1672536"><ele>65.5</ele><time>2026-05-02T06:49:28.187Z</time></trkpt><trkpt lat="43.9530455" lon="8.1674408"><ele>65.0</ele><time>2026-05-02T06:49:29.181Z</time></trkpt><trkpt lat="43.9530583" lon="8.1676296"><ele>65.0</ele><time>2026-05-02T06:49:30.177Z</time></trkpt><trkpt lat="43.9530904" lon="8.1677976"><ele>65.0</ele><time>2026-05-02T06:49:31.183Z</time></trkpt><trkpt lat="43.953142" lon="8.1679674"><ele>65.0</ele><time>2026-05-02T06:49:32.19Z</time></trkpt><trkpt lat="43.9532094" lon="8.1681316"><ele>65.0</ele><time>2026-05-02T06:49:33.187Z</time></trkpt><trkpt lat="43.9532791" lon="8.1682914"><ele>62.75</ele><time>2026-05-02T06:49:34.178Z</time></trkpt><trkpt lat="43.9533458" lon="8.1684363"><ele>60.5</ele><time>2026-05-02T06:49:35.187Z</time></trkpt><trkpt lat="43.9534215" lon="8.1685616"><ele>58.25</ele><time>2026-05-02T06:49:36.176Z</time></trkpt><trkpt lat="43.9535173" lon="8.168673"><ele>56.0</ele><time>2026-05-02T06:49:37.173Z</time></trkpt><trkpt lat="43.9536281" lon="8.1687638"><ele>58.0</ele><time>2026-05-02T06:49:38.177Z</time></trkpt><trkpt lat="43.9537442" lon="8.1688474"><ele>60.0</ele><time>2026-05-02T06:49:39.173Z</time></trkpt><trkpt lat="43.9538592" lon="8.1689273"><ele>62.0</ele><time>2026-05-02T06:49:40.171Z</time></trkpt><trkpt lat="43.953968" lon="8.1690166"><ele>64.0</ele><time>2026-05-02T06:49:41.176Z</time></trkpt><trkpt lat="43.9540675" lon="8.1691305"><ele>64.0</ele><time>2026-05-02T06:49:42.174Z</time></trkpt><trkpt lat="43.9541481" lon="8.1692671"><ele>64.0</ele><time>2026-05-02T06:49:43.178Z</time></trkpt><trkpt lat="43.9541936" lon="8.1694337"><ele>64.0</ele><time>2026-05-02T06:49:44.172Z</time></trkpt><trkpt lat="43.9542147" lon="8.1696117"><ele>64.0</ele><time>2026-05-02T06:49:45.175Z</time></trkpt><trkpt lat="43.9542269" lon="8.1697924"><ele>70.75</ele><time>2026-05-02T06:49:46.162Z</time></trkpt><trkpt lat="43.9542407" lon="8.1699734"><ele>77.5</ele><time>2026-05-02T06:49:47.172Z</time></trkpt><trkpt lat="43.9542573" lon="8.1701521"><ele>84.25</ele><time>2026-05-02T06:49:48.173Z</time></trkpt><trkpt lat="43.9542741" lon="8.1703285"><ele>91.0</ele><time>2026-05-02T06:49:49.181Z</time></trkpt><trkpt lat="43.954296" lon="8.170505"><ele>91.0</ele><time>2026-05-02T06:49:50.178Z</time></trkpt><trkpt lat="43.9543253" lon="8.1706829"><ele>91.0</ele><time>2026-05-02T06:49:51.173Z</time></trkpt><trkpt lat="43.9543671" lon="8.170854"><ele>91.0</ele><time>2026-05-02T06:49:52.172Z</time></trkpt><trkpt lat="43.9544057" lon="8.1710146"><ele>91.0</ele><time>2026-05-02T06:49:53.172Z</time></trkpt><trkpt lat="43.9544536" lon="8.1711725"><ele>90.75</ele><time>2026-05-02T06:49:54.181Z</time></trkpt><trkpt lat="43.9545029" lon="8.1713377"><ele>90.5</ele><time>2026-05-02T06:49:55.18Z</time></trkpt><trkpt lat="43.9545509" lon="8.1715035"><ele>90.25</ele><time>2026-05-02T06:49:56.183Z</time></trkpt><trkpt lat="43.9546054" lon="8.1716648"><ele>90.0</ele><time>2026-05-02T06:49:57.184Z</time></trkpt><trkpt lat="43.9546635" lon="8.1718194"><ele>88.0</ele><time>2026-05-02T06:49:58.187Z</time></trkpt><trkpt lat="43.954734" lon="8.1719696"><ele>86.0</ele><time>2026-05-02T06:49:59.185Z</time></trkpt><trkpt lat="43.9548229" lon="8.1721027"><ele>84.0</ele><time>2026-05-02T06:50:00.187Z</time></trkpt><trkpt lat="43.9549237" lon="8.1722133"><ele>82.0</ele><time>2026-05-02T06:50:01.182Z</time></trkpt><trkpt lat="43.9550245" lon="8.1723189"><ele>81.5</ele><time>2026-05-02T06:50:02.177Z</time></trkpt><trkpt lat="43.95513" lon="8.1724203"><ele>81.0</ele><time>2026-05-02T06:50:03.18Z</time></trkpt><trkpt lat="43.9552245" lon="8.1725239"><ele>80.5</ele><time>2026-05-02T06:50:04.174Z</time></trkpt><trkpt lat="43.955326" lon="8.1726197"><ele>80.0</ele><time>2026-05-02T06:50:05.169Z</time></trkpt><trkpt lat="43.9554389" lon="8.1727043"><ele>80.0</ele><time>2026-05-02T06:50:06.173Z</time></trkpt><trkpt lat="43.9555545" lon="8.1727606"><ele>80.0</ele><time>2026-05-02T06:50:07.163Z</time></trkpt><trkpt lat="43.9556723" lon="8.1727901"><ele>80.0</ele><time>2026-05-02T06:50:08.172Z</time></trkpt><trkpt lat="43.9557956" lon="8.1727994"><ele>80.0</ele><time>2026-05-02T06:50:09.172Z</time></trkpt><trkpt lat="43.9559199" lon="8.1728025"><ele>85.25</ele><time>2026-05-02T06:50:10.164Z</time></trkpt><trkpt lat="43.9560466" lon="8.1728255"><ele>90.5</ele><time>2026-05-02T06:50:11.179Z</time></trkpt><trkpt lat="43.9561714" lon="8.1728633"><ele>95.75</ele><time>2026-05-02T06:50:12.165Z</time></trkpt><trkpt lat="43.9562972" lon="8.172907"><ele>101.0</ele><time>2026-05-02T06:50:13.162Z</time></trkpt><trkpt lat="43.9564199" lon="8.1729515"><ele>101.0</ele><time>2026-05-02T06:50:14.156Z</time></trkpt><trkpt lat="43.9565391" lon="8.1729998"><ele>101.0</ele><time>2026-05-02T06:50:15.151Z</time></trkpt><trkpt lat="43.95666" lon="8.1730479"><ele>101.0</ele><time>2026-05-02T06:50:16.15Z</time></trkpt><trkpt lat="43.9567851" lon="8.1730937"><ele>101.0</ele><time>2026-05-02T06:50:17.153Z</time></trkpt><trkpt lat="43.9569096" lon="8.1731366"><ele>99.33333333333333</ele><time>2026-05-02T06:50:18.145Z</time></trkpt><trkpt lat="43.9570364" lon="8.173175"><ele>97.66666666666666</ele><time>2026-05-02T06:50:19.142Z</time></trkpt><trkpt lat="43.9571955" lon="8.1731042"><ele>96.0</ele><time>2026-05-02T06:50:20.163Z</time></trkpt><trkpt lat="43.9573506" lon="8.1730574"><ele>96.0</ele><time>2026-05-02T06:50:21.17Z</time></trkpt><trkpt lat="43.9574967" lon="8.1730093"><ele>96.0</ele><time>2026-05-02T06:50:22.165Z</time></trkpt><trkpt lat="43.9576394" lon="8.1729338"><ele>96.0</ele><time>2026-05-02T06:50:23.163Z</time></trkpt><trkpt lat="43.9577642" lon="8.1728675"><ele>96.0</ele><time>2026-05-02T06:50:24.162Z</time></trkpt><trkpt lat="43.9578984" lon="8.1728059"><ele>92.5</ele><time>2026-05-02T06:50:25.163Z</time></trkpt><trkpt lat="43.9580348" lon="8.172751"><ele>89.0</ele><time>2026-05-02T06:50:26.158Z</time></trkpt><trkpt lat="43.9581687" lon="8.1726869"><ele>85.5</ele><time>2026-05-02T06:50:27.162Z</time></trkpt><trkpt lat="43.9583136" lon="8.1726452"><ele>82.0</ele><time>2026-05-02T06:50:28.159Z</time></trkpt><trkpt lat="43.9584512" lon="8.1726327"><ele>81.25</ele><time>2026-05-02T06:50:29.161Z</time></trkpt><trkpt lat="43.9585757" lon="8.1726112"><ele>80.5</ele><time>2026-05-02T06:50:30.174Z</time></trkpt><trkpt lat="43.9586946" lon="8.1725567"><ele>79.75</ele><time>2026-05-02T06:50:31.183Z</time></trkpt><trkpt lat="43.9588074" lon="8.1724632"><ele>79.0</ele><time>2026-05-02T06:50:32.18Z</time></trkpt><trkpt lat="43.9589111" lon="8.1723411"><ele>79.0</ele><time>2026-05-02T06:50:33.184Z</time></trkpt><trkpt lat="43.9589962" lon="8.1721962"><ele>79.0</ele><time>2026-05-02T06:50:34.179Z</time></trkpt><trkpt lat="43.9590798" lon="8.1720395"><ele>79.0</ele><time>2026-05-02T06:50:35.179Z</time></trkpt><trkpt lat="43.9591652" lon="8.1718724"><ele>79.0</ele><time>2026-05-02T06:50:36.161Z</time></trkpt><trkpt lat="43.9592438" lon="8.1717069"><ele>74.33333333333333</ele><time>2026-05-02T06:50:37.165Z</time></trkpt><trkpt lat="43.9593343" lon="8.1715588"><ele>69.66666666666667</ele><time>2026-05-02T06:50:38.152Z</time></trkpt><trkpt lat="43.9594293" lon="8.1714117"><ele>65.0</ele><time>2026-05-02T06:50:39.133Z</time></trkpt><trkpt lat="43.9605294" lon="8.1697627"><ele>72.0</ele><time>2026-05-02T06:50:49.173Z</time></trkpt><trkpt lat="43.9606331" lon="8.1696351"><ele>79.0</ele><time>2026-05-02T06:50:50.167Z</time></trkpt><trkpt lat="43.960751" lon="8.1695213"><ele>86.0</ele><time>2026-05-02T06:50:51.171Z</time></trkpt><trkpt lat="43.9608746" lon="8.1694269"><ele>93.0</ele><time>2026-05-02T06:50:52.17Z</time></trkpt><trkpt lat="43.9609964" lon="8.1693303"><ele>91.75</ele><time>2026-05-02T06:50:53.176Z</time></trkpt><trkpt lat="43.9611188" lon="8.1692331"><ele>90.5</ele><time>2026-05-02T06:50:54.169Z</time></trkpt><trkpt lat="43.9612352" lon="8.1691443"><ele>89.25</ele><time>2026-05-02T06:50:55.168Z</time></trkpt><trkpt lat="43.9613523" lon="8.1690521"><ele>88.0</ele><time>2026-05-02T06:50:56.168Z</time></trkpt><trkpt lat="43.9614639" lon="8.1689579"><ele>88.0</ele><time>2026-05-02T06:50:57.177Z</time></trkpt><trkpt lat="43.961568" lon="8.1688589"><ele>88.0</ele><time>2026-05-02T06:50:58.176Z</time></trkpt><trkpt lat="43.9616748" lon="8.1687548"><ele>88.0</ele><time>2026-05-02T06:50:59.169Z</time></trkpt><trkpt lat="43.9617781" lon="8.1686358"><ele>88.0</ele><time>2026-05-02T06:51:00.17Z</time></trkpt><trkpt lat="43.9618939" lon="8.168505"><ele>78.0</ele><time>2026-05-02T06:51:01.172Z</time></trkpt><trkpt lat="43.96202" lon="8.1682991"><ele>68.0</ele><time>2026-05-02T06:51:02.169Z</time></trkpt><trkpt lat="43.9621354" lon="8.1680845"><ele>58.0</ele><time>2026-05-02T06:51:03.172Z</time></trkpt><trkpt lat="43.9622597" lon="8.1678687"><ele>58.0</ele><time>2026-05-02T06:51:04.172Z</time></trkpt><trkpt lat="43.9623886" lon="8.1676616"><ele>58.0</ele><time>2026-05-02T06:51:05.174Z</time></trkpt><trkpt lat="43.9625162" lon="8.1674778"><ele>58.0</ele><time>2026-05-02T06:51:06.167Z</time></trkpt><trkpt lat="43.9626342" lon="8.1673226"><ele>63.0</ele><time>2026-05-02T06:51:07.164Z</time></trkpt><trkpt lat="43.9627596" lon="8.1671832"><ele>68.0</ele><time>2026-05-02T06:51:08.159Z</time></trkpt><trkpt lat="43.9629119" lon="8.1670511"><ele>73.0</ele><time>2026-05-02T06:51:09.159Z</time></trkpt><trkpt lat="43.963059" lon="8.1669256"><ele>73.0</ele><time>2026-05-02T06:51:10.156Z</time></trkpt><trkpt lat="43.9631997" lon="8.1668012"><ele>73.0</ele><time>2026-05-02T06:51:11.154Z</time></trkpt><trkpt lat="43.9633419" lon="8.1666835"><ele>73.0</ele><time>2026-05-02T06:51:12.157Z</time></trkpt><trkpt lat="43.9634672" lon="8.1665714"><ele>77.66666666666666</ele><time>2026-05-02T06:51:13.16Z</time></trkpt><trkpt lat="43.9636091" lon="8.1664817"><ele>82.33333333333333</ele><time>2026-05-02T06:51:14.149Z</time></trkpt><trkpt lat="43.9637644" lon="8.1663915"><ele>87.0</ele><time>2026-05-02T06:51:15.145Z</time></trkpt><trkpt lat="43.9639143" lon="8.1664796"><ele>87.0</ele><time>2026-05-02T06:51:16.154Z</time></trkpt><trkpt lat="43.9640656" lon="8.166495"><ele>87.0</ele><time>2026-05-02T06:51:17.173Z</time></trkpt><trkpt lat="43.9642094" lon="8.1663955"><ele>87.0</ele><time>2026-05-02T06:51:18.174Z</time></trkpt><trkpt lat="43.9643663" lon="8.1662998"><ele>75.66666666666667</ele><time>2026-05-02T06:51:19.175Z</time></trkpt><trkpt lat="43.9645153" lon="8.1661755"><ele>64.33333333333334</ele><time>2026-05-02T06:51:20.173Z</time></trkpt><trkpt lat="43.9646704" lon="8.1660444"><ele>53.0</ele><time>2026-05-02T06:51:21.183Z</time></trkpt><trkpt lat="43.9648225" lon="8.1659228"><ele>53.0</ele><time>2026-05-02T06:51:22.171Z</time></trkpt><trkpt lat="43.9649748" lon="8.1658191"><ele>53.0</ele><time>2026-05-02T06:51:23.174Z</time></trkpt><trkpt lat="43.9651385" lon="8.1657354"><ele>53.0</ele><time>2026-05-02T06:51:24.17Z</time></trkpt><trkpt lat="43.9652999" lon="8.1656717"><ele>53.0</ele><time>2026-05-02T06:51:25.169Z</time></trkpt><trkpt lat="43.9654624" lon="8.1656183"><ele>53.0</ele><time>2026-05-02T06:51:26.168Z</time></trkpt><trkpt lat="43.9656115" lon="8.1655347"><ele>53.0</ele><time>2026-05-02T06:51:27.164Z</time></trkpt><trkpt lat="43.9657292" lon="8.1653993"><ele>53.0</ele><time>2026-05-02T06:51:28.163Z</time></trkpt><trkpt lat="43.9658467" lon="8.1652606"><ele>53.0</ele><time>2026-05-02T06:51:29.173Z</time></trkpt><trkpt lat="43.9659578" lon="8.1651041"><ele>53.0</ele><time>2026-05-02T06:51:30.166Z</time></trkpt><trkpt lat="43.9660652" lon="8.1649735"><ele>49.333333333333336</ele><time>2026-05-02T06:51:31.171Z</time></trkpt><trkpt lat="43.9662003" lon="8.1648932"><ele>45.66666666666667</ele><time>2026-05-02T06:51:32.165Z</time></trkpt><trkpt lat="43.9663438" lon="8.1648268"><ele>42.0</ele><time>2026-05-02T06:51:33.163Z</time></trkpt><trkpt lat="43.9664899" lon="8.164756"><ele>42.0</ele><time>2026-05-02T06:51:34.162Z</time></trkpt><trkpt lat="43.9666393" lon="8.1646786"><ele>42.0</ele><time>2026-05-02T06:51:35.169Z</time></trkpt><trkpt lat="43.9667724" lon="8.1645672"><ele>42.0</ele><time>2026-05-02T06:51:36.168Z</time></trkpt><trkpt lat="43.9668794" lon="8.1644463"><ele>37.25</ele><time>2026-05-02T06:51:37.165Z</time></trkpt><trkpt lat="43.9669922" lon="8.1643246"><ele>32.5</ele><time>2026-05-02T06:51:38.169Z</time></trkpt><trkpt lat="43.9671009" lon="8.1642246"><ele>27.75</ele><time>2026-05-02T06:51:39.172Z</time></trkpt><trkpt lat="43.967235" lon="8.1641687"><ele>23.0</ele><time>2026-05-02T06:51:40.165Z</time></trkpt><trkpt lat="43.967366" lon="8.1641249"><ele>23.0</ele><time>2026-05-02T06:51:41.168Z</time></trkpt><trkpt lat="43.967494" lon="8.1640801"><ele>23.0</ele><time>2026-05-02T06:51:42.173Z</time></trkpt><trkpt lat="43.9676158" lon="8.1640242"><ele>23.0</ele><time>2026-05-02T06:51:43.175Z</time></trkpt><trkpt lat="43.9677462" lon="8.1639611"><ele>23.0</ele><time>2026-05-02T06:51:44.175Z</time></trkpt><trkpt lat="43.9678666" lon="8.1638718"><ele>23.75</ele><time>2026-05-02T06:51:45.174Z</time></trkpt><trkpt lat="43.9679878" lon="8.1637725"><ele>24.5</ele><time>2026-05-02T06:51:46.173Z</time></trkpt><trkpt lat="43.9681079" lon="8.1636818"><ele>25.25</ele><time>2026-05-02T06:51:47.177Z</time></trkpt><trkpt lat="43.9682189" lon="8.163576"><ele>26.0</ele><time>2026-05-02T06:51:48.176Z</time></trkpt><trkpt lat="43.9683268" lon="8.1634736"><ele>22.0</ele><time>2026-05-02T06:51:49.174Z</time></trkpt><trkpt lat="43.9684294" lon="8.1633643"><ele>18.0</ele><time>2026-05-02T06:51:50.175Z</time></trkpt><trkpt lat="43.9685282" lon="8.1632502"><ele>14.0</ele><time>2026-05-02T06:51:51.177Z</time></trkpt><trkpt lat="43.9686182" lon="8.1631292"><ele>10.0</ele><time>2026-05-02T06:51:52.177Z</time></trkpt><trkpt lat="43.9687047" lon="8.1630012"><ele>10.0</ele><time>2026-05-02T06:51:53.17Z</time></trkpt><trkpt lat="43.968784" lon="8.1628628"><ele>10.0</ele><time>2026-05-02T06:51:54.171Z</time></trkpt><trkpt lat="43.9688565" lon="8.1627112"><ele>10.0</ele><time>2026-05-02T06:51:55.175Z</time></trkpt><trkpt lat="43.9689114" lon="8.1625555"><ele>10.0</ele><time>2026-05-02T06:51:56.179Z</time></trkpt><trkpt lat="43.9689697" lon="8.1623951"><ele>9.0</ele><time>2026-05-02T06:51:57.179Z</time></trkpt><trkpt lat="43.9690203" lon="8.1622377"><ele>8.0</ele><time>2026-05-02T06:51:58.179Z</time></trkpt><trkpt lat="43.9690841" lon="8.1620915"><ele>7.0</ele><time>2026-05-02T06:51:59.172Z</time></trkpt><trkpt lat="43.9691575" lon="8.1619606"><ele>6.0</ele><time>2026-05-02T06:52:00.174Z</time></trkpt><trkpt lat="43.9692241" lon="8.1618334"><ele>6.0</ele><time>2026-05-02T06:52:01.171Z</time></trkpt><trkpt lat="43.9692991" lon="8.1617138"><ele>6.0</ele><time>2026-05-02T06:52:02.167Z</time></trkpt><trkpt lat="43.9693711" lon="8.1615963"><ele>6.0</ele><time>2026-05-02T06:52:03.169Z</time></trkpt><trkpt lat="43.9694555" lon="8.1614827"><ele>6.0</ele><time>2026-05-02T06:52:04.16Z</time></trkpt><trkpt lat="43.969541" lon="8.1613767"><ele>8.0</ele><time>2026-05-02T06:52:05.165Z</time></trkpt><trkpt lat="43.9696305" lon="8.1612858"><ele>10.0</ele><time>2026-05-02T06:52:06.165Z</time></trkpt><trkpt lat="43.9697158" lon="8.1612024"><ele>12.000000000000002</ele><time>2026-05-02T06:52:07.163Z</time></trkpt><trkpt lat="43.9698076" lon="8.1611268"><ele>14.0</ele><time>2026-05-02T06:52:08.163Z</time></trkpt><trkpt lat="43.9699099" lon="8.1610618"><ele>16.0</ele><time>2026-05-02T06:52:09.171Z</time></trkpt><trkpt lat="43.970007" lon="8.1609982"><ele>13.75</ele><time>2026-05-02T06:52:10.168Z</time></trkpt><trkpt lat="43.9701051" lon="8.1609333"><ele>11.5</ele><time>2026-05-02T06:52:11.163Z</time></trkpt><trkpt lat="43.9702175" lon="8.1608789"><ele>9.25</ele><time>2026-05-02T06:52:12.171Z</time></trkpt><trkpt lat="43.9703299" lon="8.1608294"><ele>7.0</ele><time>2026-05-02T06:52:13.171Z</time></trkpt><trkpt lat="43.9704607" lon="8.1607943"><ele>7.0</ele><time>2026-05-02T06:52:14.17Z</time></trkpt><trkpt lat="43.9706016" lon="8.1607604"><ele>7.0</ele><time>2026-05-02T06:52:15.169Z</time></trkpt><trkpt lat="43.9707481" lon="8.1607343"><ele>7.0</ele><time>2026-05-02T06:52:16.179Z</time></trkpt><trkpt lat="43.9709028" lon="8.1606811"><ele>6.75</ele><time>2026-05-02T06:52:17.179Z</time></trkpt><trkpt lat="43.9710498" lon="8.1606029"><ele>6.5</ele><time>2026-05-02T06:52:18.18Z</time></trkpt><trkpt lat="43.9711915" lon="8.1605311"><ele>6.25</ele><time>2026-05-02T06:52:19.18Z</time></trkpt><trkpt lat="43.9713158" lon="8.1604441"><ele>6.0</ele><time>2026-05-02T06:52:20.177Z</time></trkpt><trkpt lat="43.9714476" lon="8.1603775"><ele>6.0</ele><time>2026-05-02T06:52:21.177Z</time></trkpt><trkpt lat="43.9715717" lon="8.160317"><ele>6.0</ele><time>2026-05-02T06:52:22.181Z</time></trkpt><trkpt lat="43.9716659" lon="8.16026"><ele>6.0</ele><time>2026-05-02T06:52:23.179Z</time></trkpt><trkpt lat="43.9717365" lon="8.1602161"><ele>6.0</ele><time>2026-05-02T06:52:24.176Z</time></trkpt><trkpt lat="43.9718039" lon="8.1601794"><ele>6.0</ele><time>2026-05-02T06:52:27.178Z</time></trkpt><trkpt lat="43.9718728" lon="8.1601325"><ele>5.5</ele><time>2026-05-02T06:52:29.179Z</time></trkpt><trkpt lat="43.9719396" lon="8.1601231"><ele>5.0</ele><time>2026-05-02T06:52:33.18Z</time></trkpt><trkpt lat="43.9720388" lon="8.1600652"><ele>4.5</ele><time>2026-05-02T06:52:35.164Z</time></trkpt><trkpt lat="43.972114" lon="8.1600147"><ele>4.0</ele><time>2026-05-02T06:52:36.168Z</time></trkpt><trkpt lat="43.9722017" lon="8.1599709"><ele>3.5</ele><time>2026-05-02T06:52:37.173Z</time></trkpt><trkpt lat="43.9722917" lon="8.1599274"><ele>3.0</ele><time>2026-05-02T06:52:38.176Z</time></trkpt><trkpt lat="43.972383" lon="8.1598898"><ele>3.4</ele><time>2026-05-02T06:52:39.169Z</time></trkpt><trkpt lat="43.9724822" lon="8.1598514"><ele>3.8</ele><time>2026-05-02T06:52:40.175Z</time></trkpt><trkpt lat="43.9725883" lon="8.1598172"><ele>4.2</ele><time>2026-05-02T06:52:41.184Z</time></trkpt><trkpt lat="43.9726973" lon="8.1597872"><ele>4.6</ele><time>2026-05-02T06:52:42.17Z</time></trkpt><trkpt lat="43.9728133" lon="8.159761"><ele>5.0</ele><time>2026-05-02T06:52:43.175Z</time></trkpt><trkpt lat="43.9729316" lon="8.1597363"><ele>5.0</ele><time>2026-05-02T06:52:44.175Z</time></trkpt><trkpt lat="43.9730569" lon="8.1597105"><ele>5.0</ele><time>2026-05-02T06:52:45.178Z</time></trkpt><trkpt lat="43.9731833" lon="8.1596838"><ele>5.0</ele><time>2026-05-02T06:52:46.185Z</time></trkpt><trkpt lat="43.9733117" lon="8.1596541"><ele>5.0</ele><time>2026-05-02T06:52:47.185Z</time></trkpt><trkpt lat="43.9734402" lon="8.1596162"><ele>5.25</ele><time>2026-05-02T06:52:48.18Z</time></trkpt><trkpt lat="43.9735715" lon="8.1595839"><ele>5.5</ele><time>2026-05-02T06:52:49.188Z</time></trkpt><trkpt lat="43.9737012" lon="8.1595546"><ele>5.75</ele><time>2026-05-02T06:52:50.181Z</time></trkpt><trkpt lat="43.9738326" lon="8.1595235"><ele>6.0</ele><time>2026-05-02T06:52:51.183Z</time></trkpt><trkpt lat="43.9739596" lon="8.1594964"><ele>6.0</ele><time>2026-05-02T06:52:52.179Z</time></trkpt><trkpt lat="43.9740897" lon="8.1594678"><ele>6.0</ele><time>2026-05-02T06:52:53.176Z</time></trkpt><trkpt lat="43.9742131" lon="8.159442"><ele>6.0</ele><time>2026-05-02T06:52:54.177Z</time></trkpt><trkpt lat="43.9743375" lon="8.1594108"><ele>6.0</ele><time>2026-05-02T06:52:55.177Z</time></trkpt><trkpt lat="43.9744603" lon="8.1593693"><ele>5.75</ele><time>2026-05-02T06:52:56.179Z</time></trkpt><trkpt lat="43.9745712" lon="8.1593206"><ele>5.5</ele><time>2026-05-02T06:52:57.173Z</time></trkpt><trkpt lat="43.9746723" lon="8.1592696"><ele>5.25</ele><time>2026-05-02T06:52:58.176Z</time></trkpt><trkpt lat="43.9747725" lon="8.1591828"><ele>5.0</ele><time>2026-05-02T06:52:59.169Z</time></trkpt><trkpt lat="43.9748653" lon="8.1590454"><ele>5.75</ele><time>2026-05-02T06:53:00.167Z</time></trkpt><trkpt lat="43.9749409" lon="8.1588911"><ele>6.5</ele><time>2026-05-02T06:53:01.176Z</time></trkpt><trkpt lat="43.9749982" lon="8.158734"><ele>7.25</ele><time>2026-05-02T06:53:02.175Z</time></trkpt><trkpt lat="43.9750519" lon="8.1585837"><ele>8.0</ele><time>2026-05-02T06:53:03.178Z</time></trkpt><trkpt lat="43.975111" lon="8.15844"><ele>8.0</ele><time>2026-05-02T06:53:04.177Z</time></trkpt><trkpt lat="43.975174" lon="8.1583129"><ele>8.0</ele><time>2026-05-02T06:53:05.172Z</time></trkpt><trkpt lat="43.9752589" lon="8.1582084"><ele>8.0</ele><time>2026-05-02T06:53:06.172Z</time></trkpt><trkpt lat="43.9753418" lon="8.1581197"><ele>8.0</ele><time>2026-05-02T06:53:07.16Z</time></trkpt><trkpt lat="43.9754314" lon="8.1580515"><ele>8.0</ele><time>2026-05-02T06:53:08.174Z</time></trkpt><trkpt lat="43.9755225" lon="8.1580127"><ele>8.600000000000001</ele><time>2026-05-02T06:53:09.162Z</time></trkpt><trkpt lat="43.9756275" lon="8.1580073"><ele>9.200000000000001</ele><time>2026-05-02T06:53:10.161Z</time></trkpt><trkpt lat="43.9757405" lon="8.1580077"><ele>9.8</ele><time>2026-05-02T06:53:11.17Z</time></trkpt><trkpt lat="43.9758464" lon="8.1580006"><ele>10.4</ele><time>2026-05-02T06:53:12.163Z</time></trkpt><trkpt lat="43.9759535" lon="8.1579893"><ele>11.0</ele><time>2026-05-02T06:53:13.168Z</time></trkpt><trkpt lat="43.9760752" lon="8.1579657"><ele>11.0</ele><time>2026-05-02T06:53:14.165Z</time></trkpt><trkpt lat="43.9762021" lon="8.1579409"><ele>11.0</ele><time>2026-05-02T06:53:15.165Z</time></trkpt><trkpt lat="43.9763214" lon="8.1579282"><ele>11.0</ele><time>2026-05-02T06:53:16.165Z</time></trkpt><trkpt lat="43.97645" lon="8.1579072"><ele>11.0</ele><time>2026-05-02T06:53:17.171Z</time></trkpt><trkpt lat="43.9765742" lon="8.1578798"><ele>11.0</ele><time>2026-05-02T06:53:18.168Z</time></trkpt><trkpt lat="43.9767004" lon="8.1578544"><ele>11.0</ele><time>2026-05-02T06:53:19.164Z</time></trkpt><trkpt lat="43.9768159" lon="8.1578301"><ele>11.0</ele><time>2026-05-02T06:53:20.165Z</time></trkpt><trkpt lat="43.9769334" lon="8.1578078"><ele>11.0</ele><time>2026-05-02T06:53:21.162Z</time></trkpt><trkpt lat="43.9770521" lon="8.1577943"><ele>11.0</ele><time>2026-05-02T06:53:22.163Z</time></trkpt><trkpt lat="43.9771688" lon="8.1577796"><ele>11.0</ele><time>2026-05-02T06:53:23.164Z</time></trkpt><trkpt lat="43.9772983" lon="8.1577598"><ele>11.0</ele><time>2026-05-02T06:53:24.165Z</time></trkpt><trkpt lat="43.9774334" lon="8.1577555"><ele>11.0</ele><time>2026-05-02T06:53:25.163Z</time></trkpt><trkpt lat="43.9775577" lon="8.157733"><ele>11.0</ele><time>2026-05-02T06:53:26.163Z</time></trkpt><trkpt lat="43.9776857" lon="8.1577092"><ele>11.0</ele><time>2026-05-02T06:53:27.162Z</time></trkpt><trkpt lat="43.9778158" lon="8.1576977"><ele>11.0</ele><time>2026-05-02T06:53:28.163Z</time></trkpt><trkpt lat="43.977945" lon="8.1576986"><ele>11.0</ele><time>2026-05-02T06:53:29.172Z</time></trkpt><trkpt lat="43.9780615" lon="8.1577129"><ele>11.0</ele><time>2026-05-02T06:53:30.174Z</time></trkpt><trkpt lat="43.9781755" lon="8.1577374"><ele>11.0</ele><time>2026-05-02T06:53:31.165Z</time></trkpt><trkpt lat="43.9782923" lon="8.1577725"><ele>11.0</ele><time>2026-05-02T06:53:32.173Z</time></trkpt><trkpt lat="43.9784234" lon="8.157814"><ele>11.0</ele><time>2026-05-02T06:53:33.159Z</time></trkpt><trkpt lat="43.9785442" lon="8.1578676"><ele>13.5</ele><time>2026-05-02T06:53:34.166Z</time></trkpt><trkpt lat="43.9786492" lon="8.1579053"><ele>16.0</ele><time>2026-05-02T06:53:35.16Z</time></trkpt><trkpt lat="43.9787651" lon="8.1579429"><ele>18.5</ele><time>2026-05-02T06:53:36.157Z</time></trkpt><trkpt lat="43.9788843" lon="8.157981"><ele>21.0</ele><time>2026-05-02T06:53:37.167Z</time></trkpt><trkpt lat="43.9790036" lon="8.1580176"><ele>21.0</ele><time>2026-05-02T06:53:38.165Z</time></trkpt><trkpt lat="43.9791349" lon="8.1580577"><ele>21.0</ele><time>2026-05-02T06:53:39.165Z</time></trkpt><trkpt lat="43.979272" lon="8.1581008"><ele>21.0</ele><time>2026-05-02T06:53:40.159Z</time></trkpt><trkpt lat="43.9794073" lon="8.1581437"><ele>21.0</ele><time>2026-05-02T06:53:41.166Z</time></trkpt><trkpt lat="43.9795417" lon="8.1581909"><ele>18.25</ele><time>2026-05-02T06:53:42.166Z</time></trkpt><trkpt lat="43.9796799" lon="8.158245"><ele>15.5</ele><time>2026-05-02T06:53:43.157Z</time></trkpt><trkpt lat="43.9798232" lon="8.1583015"><ele>12.75</ele><time>2026-05-02T06:53:44.155Z</time></trkpt><trkpt lat="43.9799661" lon="8.1583479"><ele>10.0</ele><time>2026-05-02T06:53:45.154Z</time></trkpt><trkpt lat="43.9801141" lon="8.158398"><ele>10.0</ele><time>2026-05-02T06:53:46.157Z</time></trkpt><trkpt lat="43.9802626" lon="8.1584354"><ele>10.0</ele><time>2026-05-02T06:53:47.162Z</time></trkpt><trkpt lat="43.9804036" lon="8.1584767"><ele>10.0</ele><time>2026-05-02T06:53:48.161Z</time></trkpt><trkpt lat="43.9805335" lon="8.1585242"><ele>10.0</ele><time>2026-05-02T06:53:49.16Z</time></trkpt><trkpt lat="43.9806646" lon="8.1585547"><ele>10.0</ele><time>2026-05-02T06:53:50.164Z</time></trkpt><trkpt lat="43.9808082" lon="8.1586113"><ele>10.0</ele><time>2026-05-02T06:53:51.161Z</time></trkpt><trkpt lat="43.9809526" lon="8.1586763"><ele>10.0</ele><time>2026-05-02T06:53:52.165Z</time></trkpt><trkpt lat="43.9810985" lon="8.1587632"><ele>12.5</ele><time>2026-05-02T06:53:53.173Z</time></trkpt><trkpt lat="43.9812315" lon="8.1588641"><ele>15.0</ele><time>2026-05-02T06:53:54.175Z</time></trkpt><trkpt lat="43.9813553" lon="8.1589447"><ele>17.5</ele><time>2026-05-02T06:53:55.175Z</time></trkpt><trkpt lat="43.9814854" lon="8.1589952"><ele>20.0</ele><time>2026-05-02T06:53:56.175Z</time></trkpt><trkpt lat="43.9816141" lon="8.1590222"><ele>17.25</ele><time>2026-05-02T06:53:57.172Z</time></trkpt><trkpt lat="43.981747" lon="8.1590409"><ele>14.5</ele><time>2026-05-02T06:53:58.179Z</time></trkpt><trkpt lat="43.9818804" lon="8.1590613"><ele>11.75</ele><time>2026-05-02T06:53:59.175Z</time></trkpt><trkpt lat="43.9820214" lon="8.1590853"><ele>9.0</ele><time>2026-05-02T06:54:00.174Z</time></trkpt><trkpt lat="43.9821649" lon="8.1591071"><ele>9.0</ele><time>2026-05-02T06:54:01.173Z</time></trkpt><trkpt lat="43.9823148" lon="8.1591346"><ele>9.0</ele><time>2026-05-02T06:54:02.17Z</time></trkpt><trkpt lat="43.9824724" lon="8.1591605"><ele>9.0</ele><time>2026-05-02T06:54:03.174Z</time></trkpt><trkpt lat="43.9826172" lon="8.1591817"><ele>9.5</ele><time>2026-05-02T06:54:04.174Z</time></trkpt><trkpt lat="43.982754" lon="8.1592169"><ele>10.0</ele><time>2026-05-02T06:54:05.173Z</time></trkpt><trkpt lat="43.9828899" lon="8.1592504"><ele>10.5</ele><time>2026-05-02T06:54:06.169Z</time></trkpt><trkpt lat="43.9830284" lon="8.1592835"><ele>11.0</ele><time>2026-05-02T06:54:07.166Z</time></trkpt><trkpt lat="43.9831803" lon="8.159313"><ele>11.0</ele><time>2026-05-02T06:54:08.175Z</time></trkpt><trkpt lat="43.9833201" lon="8.159351"><ele>11.0</ele><time>2026-05-02T06:54:09.167Z</time></trkpt><trkpt lat="43.9834637" lon="8.159384"><ele>11.0</ele><time>2026-05-02T06:54:10.172Z</time></trkpt><trkpt lat="43.9836104" lon="8.159417"><ele>11.0</ele><time>2026-05-02T06:54:11.173Z</time></trkpt><trkpt lat="43.9837572" lon="8.1594499"><ele>11.25</ele><time>2026-05-02T06:54:12.17Z</time></trkpt><trkpt lat="43.9838995" lon="8.1594823"><ele>11.5</ele><time>2026-05-02T06:54:13.168Z</time></trkpt><trkpt lat="43.9840489" lon="8.1595034"><ele>11.75</ele><time>2026-05-02T06:54:14.173Z</time></trkpt><trkpt lat="43.9841952" lon="8.1595324"><ele>12.0</ele><time>2026-05-02T06:54:15.172Z</time></trkpt><trkpt lat="43.9843369" lon="8.1595712"><ele>14.25</ele><time>2026-05-02T06:54:16.172Z</time></trkpt><trkpt lat="43.9844733" lon="8.1596111"><ele>16.5</ele><time>2026-05-02T06:54:17.173Z</time></trkpt><trkpt lat="43.9846133" lon="8.1596536"><ele>18.75</ele><time>2026-05-02T06:54:18.175Z</time></trkpt><trkpt lat="43.9847558" lon="8.1596877"><ele>21.0</ele><time>2026-05-02T06:54:19.183Z</time></trkpt><trkpt lat="43.984906" lon="8.1597264"><ele>22.666666666666664</ele><time>2026-05-02T06:54:20.178Z</time></trkpt><trkpt lat="43.9850537" lon="8.1597658"><ele>24.333333333333332</ele><time>2026-05-02T06:54:21.176Z</time></trkpt><trkpt lat="43.9852027" lon="8.1598007"><ele>26.0</ele><time>2026-05-02T06:54:22.18Z</time></trkpt><trkpt lat="43.9853566" lon="8.1598326"><ele>26.0</ele><time>2026-05-02T06:54:23.176Z</time></trkpt><trkpt lat="43.9855058" lon="8.1598618"><ele>26.0</ele><time>2026-05-02T06:54:24.174Z</time></trkpt><trkpt lat="43.9856547" lon="8.1598995"><ele>26.0</ele><time>2026-05-02T06:54:25.179Z</time></trkpt><trkpt lat="43.9858099" lon="8.1599439"><ele>21.666666666666664</ele><time>2026-05-02T06:54:26.175Z</time></trkpt><trkpt lat="43.9859594" lon="8.1599896"><ele>17.333333333333332</ele><time>2026-05-02T06:54:27.173Z</time></trkpt><trkpt lat="43.9861136" lon="8.1600427"><ele>13.0</ele><time>2026-05-02T06:54:28.178Z</time></trkpt><trkpt lat="43.9862693" lon="8.1600905"><ele>13.0</ele><time>2026-05-02T06:54:29.173Z</time></trkpt><trkpt lat="43.9864229" lon="8.1601465"><ele>13.0</ele><time>2026-05-02T06:54:30.179Z</time></trkpt><trkpt lat="43.9865726" lon="8.1602069"><ele>13.0</ele><time>2026-05-02T06:54:31.175Z</time></trkpt><trkpt lat="43.9867202" lon="8.1602697"><ele>16.666666666666664</ele><time>2026-05-02T06:54:32.178Z</time></trkpt><trkpt lat="43.9868744" lon="8.1603378"><ele>20.333333333333332</ele><time>2026-05-02T06:54:33.175Z</time></trkpt><trkpt lat="43.9870256" lon="8.1604015"><ele>24.0</ele><time>2026-05-02T06:54:34.173Z</time></trkpt><trkpt lat="43.9871755" lon="8.1604825"><ele>24.0</ele><time>2026-05-02T06:54:35.173Z</time></trkpt><trkpt lat="43.9873314" lon="8.1605622"><ele>24.0</ele><time>2026-05-02T06:54:36.181Z</time></trkpt><trkpt lat="43.9874842" lon="8.160643"><ele>24.0</ele><time>2026-05-02T06:54:37.174Z</time></trkpt><trkpt lat="43.9876314" lon="8.1607275"><ele>21.666666666666668</ele><time>2026-05-02T06:54:38.178Z</time></trkpt><trkpt lat="43.987774" lon="8.1608108"><ele>19.333333333333336</ele><time>2026-05-02T06:54:39.171Z</time></trkpt><trkpt lat="43.9879217" lon="8.1608918"><ele>17.0</ele><time>2026-05-02T06:54:40.169Z</time></trkpt><trkpt lat="43.9880708" lon="8.1609718"><ele>17.0</ele><time>2026-05-02T06:54:41.179Z</time></trkpt><trkpt lat="43.9882184" lon="8.1610513"><ele>17.0</ele><time>2026-05-02T06:54:42.178Z</time></trkpt><trkpt lat="43.988374" lon="8.1611354"><ele>17.0</ele><time>2026-05-02T06:54:43.176Z</time></trkpt><trkpt lat="43.9885322" lon="8.1612277"><ele>24.333333333333336</ele><time>2026-05-02T06:54:44.183Z</time></trkpt><trkpt lat="43.9886889" lon="8.1613008"><ele>31.666666666666668</ele><time>2026-05-02T06:54:45.176Z</time></trkpt><trkpt lat="43.9888486" lon="8.1613788"><ele>39.0</ele><time>2026-05-02T06:54:46.184Z</time></trkpt><trkpt lat="43.9890111" lon="8.1614635"><ele>34.666666666666664</ele><time>2026-05-02T06:54:47.186Z</time></trkpt><trkpt lat="43.9891707" lon="8.1615544"><ele>30.333333333333332</ele><time>2026-05-02T06:54:48.184Z</time></trkpt><trkpt lat="43.9893312" lon="8.1616385"><ele>26.0</ele><time>2026-05-02T06:54:49.183Z</time></trkpt><trkpt lat="43.9894878" lon="8.1617235"><ele>26.0</ele><time>2026-05-02T06:54:50.189Z</time></trkpt><trkpt lat="43.9896461" lon="8.1618095"><ele>26.0</ele><time>2026-05-02T06:54:51.187Z</time></trkpt><trkpt lat="43.9898004" lon="8.1619059"><ele>26.0</ele><time>2026-05-02T06:54:52.183Z</time></trkpt><trkpt lat="43.9899498" lon="8.1620009"><ele>39.33333333333333</ele><time>2026-05-02T06:54:53.185Z</time></trkpt><trkpt lat="43.9901017" lon="8.1620908"><ele>52.666666666666664</ele><time>2026-05-02T06:54:54.188Z</time></trkpt><trkpt lat="43.990249" lon="8.1621851"><ele>66.0</ele><time>2026-05-02T06:54:55.18Z</time></trkpt><trkpt lat="43.9904055" lon="8.1622734"><ele>52.333333333333336</ele><time>2026-05-02T06:54:56.187Z</time></trkpt><trkpt lat="43.9905569" lon="8.1623717"><ele>38.66666666666667</ele><time>2026-05-02T06:54:57.176Z</time></trkpt><trkpt lat="43.9907149" lon="8.162469"><ele>25.0</ele><time>2026-05-02T06:54:58.176Z</time></trkpt><trkpt lat="43.9908619" lon="8.1625604"><ele>25.0</ele><time>2026-05-02T06:54:59.175Z</time></trkpt><trkpt lat="43.9910017" lon="8.162639"><ele>25.0</ele><time>2026-05-02T06:55:00.174Z</time></trkpt><trkpt lat="43.9911424" lon="8.1626961"><ele>25.0</ele><time>2026-05-02T06:55:01.18Z</time></trkpt><trkpt lat="43.9912831" lon="8.1627434"><ele>25.0</ele><time>2026-05-02T06:55:02.173Z</time></trkpt><trkpt lat="43.9914154" lon="8.1627789"><ele>25.0</ele><time>2026-05-02T06:55:03.174Z</time></trkpt><trkpt lat="43.991533" lon="8.1628062"><ele>25.0</ele><time>2026-05-02T06:55:04.176Z</time></trkpt><trkpt lat="43.9916487" lon="8.1628175"><ele>25.0</ele><time>2026-05-02T06:55:05.174Z</time></trkpt><trkpt lat="43.9917684" lon="8.1628068"><ele>25.0</ele><time>2026-05-02T06:55:06.172Z</time></trkpt><trkpt lat="43.9918896" lon="8.1627985"><ele>26.0</ele><time>2026-05-02T06:55:07.174Z</time></trkpt><trkpt lat="43.9920249" lon="8.1628061"><ele>27.0</ele><time>2026-05-02T06:55:08.176Z</time></trkpt><trkpt lat="43.9921685" lon="8.1628211"><ele>28.0</ele><time>2026-05-02T06:55:09.178Z</time></trkpt><trkpt lat="43.9923134" lon="8.1628369"><ele>29.0</ele><time>2026-05-02T06:55:10.18Z</time></trkpt><trkpt lat="43.9924736" lon="8.1628621"><ele>29.0</ele><time>2026-05-02T06:55:11.178Z</time></trkpt><trkpt lat="43.992633" lon="8.1628906"><ele>29.0</ele><time>2026-05-02T06:55:12.178Z</time></trkpt><trkpt lat="43.9927886" lon="8.1629378"><ele>29.0</ele><time>2026-05-02T06:55:13.183Z</time></trkpt><trkpt lat="43.9929439" lon="8.162973"><ele>29.0</ele><time>2026-05-02T06:55:14.186Z</time></trkpt><trkpt lat="43.9930971" lon="8.1630196"><ele>29.0</ele><time>2026-05-02T06:55:15.183Z</time></trkpt><trkpt lat="43.9932469" lon="8.1630896"><ele>29.0</ele><time>2026-05-02T06:55:16.184Z</time></trkpt><trkpt lat="43.9933932" lon="8.1631597"><ele>22.666666666666664</ele><time>2026-05-02T06:55:17.179Z</time></trkpt><trkpt lat="43.9935458" lon="8.1632326"><ele>16.333333333333332</ele><time>2026-05-02T06:55:18.185Z</time></trkpt><trkpt lat="43.9937043" lon="8.1633039"><ele>10.0</ele><time>2026-05-02T06:55:19.179Z</time></trkpt><trkpt lat="43.9938486" lon="8.1633789"><ele>10.0</ele><time>2026-05-02T06:55:20.173Z</time></trkpt><trkpt lat="43.9939987" lon="8.1634594"><ele>10.0</ele><time>2026-05-02T06:55:21.186Z</time></trkpt><trkpt lat="43.9941477" lon="8.1635533"><ele>10.0</ele><time>2026-05-02T06:55:22.174Z</time></trkpt><trkpt lat="43.9942937" lon="8.1636318"><ele>11.25</ele><time>2026-05-02T06:55:23.177Z</time></trkpt><trkpt lat="43.9944204" lon="8.1637021"><ele>12.5</ele><time>2026-05-02T06:55:24.179Z</time></trkpt><trkpt lat="43.9945444" lon="8.1637795"><ele>13.75</ele><time>2026-05-02T06:55:25.176Z</time></trkpt><trkpt lat="43.9946784" lon="8.1638592"><ele>15.0</ele><time>2026-05-02T06:55:26.172Z</time></trkpt><trkpt lat="43.9948115" lon="8.1639452"><ele>15.0</ele><time>2026-05-02T06:55:27.177Z</time></trkpt><trkpt lat="43.994946" lon="8.1640221"><ele>15.0</ele><time>2026-05-02T06:55:28.191Z</time></trkpt><trkpt lat="43.9950881" lon="8.1640968"><ele>15.0</ele><time>2026-05-02T06:55:29.18Z</time></trkpt><trkpt lat="43.9952329" lon="8.1641831"><ele>13.5</ele><time>2026-05-02T06:55:30.191Z</time></trkpt><trkpt lat="43.995362" lon="8.1642675"><ele>12.0</ele><time>2026-05-02T06:55:31.185Z</time></trkpt><trkpt lat="43.995491" lon="8.1643512"><ele>10.5</ele><time>2026-05-02T06:55:32.193Z</time></trkpt><trkpt lat="43.9956371" lon="8.1644239"><ele>9.0</ele><time>2026-05-02T06:55:33.183Z</time></trkpt><trkpt lat="43.9957741" lon="8.1645075"><ele>10.0</ele><time>2026-05-02T06:55:34.188Z</time></trkpt><trkpt lat="43.9959151" lon="8.1645909"><ele>11.0</ele><time>2026-05-02T06:55:35.191Z</time></trkpt><trkpt lat="43.9960506" lon="8.164678"><ele>12.0</ele><time>2026-05-02T06:55:36.184Z</time></trkpt><trkpt lat="43.9961771" lon="8.1647487"><ele>13.0</ele><time>2026-05-02T06:55:37.189Z</time></trkpt><trkpt lat="43.9963027" lon="8.164822"><ele>12.75</ele><time>2026-05-02T06:55:38.187Z</time></trkpt><trkpt lat="43.9964118" lon="8.1648933"><ele>12.5</ele><time>2026-05-02T06:55:39.187Z</time></trkpt><trkpt lat="43.9965132" lon="8.1649606"><ele>12.25</ele><time>2026-05-02T06:55:40.185Z</time></trkpt><trkpt lat="43.9966244" lon="8.1650201"><ele>12.0</ele><time>2026-05-02T06:55:41.187Z</time></trkpt><trkpt lat="43.9967325" lon="8.1650853"><ele>12.0</ele><time>2026-05-02T06:55:42.187Z</time></trkpt><trkpt lat="43.9968372" lon="8.1651561"><ele>12.0</ele><time>2026-05-02T06:55:43.185Z</time></trkpt><trkpt lat="43.99694" lon="8.1652074"><ele>12.0</ele><time>2026-05-02T06:55:44.184Z</time></trkpt><trkpt lat="43.9970331" lon="8.1652544"><ele>12.0</ele><time>2026-05-02T06:55:45.186Z</time></trkpt><trkpt lat="43.9971136" lon="8.1653047"><ele>12.0</ele><time>2026-05-02T06:55:46.198Z</time></trkpt><trkpt lat="43.9971946" lon="8.1653447"><ele>12.0</ele><time>2026-05-02T06:55:47.186Z</time></trkpt><trkpt lat="43.9972783" lon="8.1653873"><ele>12.0</ele><time>2026-05-02T06:55:48.18Z</time></trkpt><trkpt lat="43.9973688" lon="8.1654258"><ele>12.0</ele><time>2026-05-02T06:55:49.177Z</time></trkpt><trkpt lat="43.9974619" lon="8.1654437"><ele>12.0</ele><time>2026-05-02T06:55:50.188Z</time></trkpt><trkpt lat="43.9975685" lon="8.1654383"><ele>12.0</ele><time>2026-05-02T06:55:51.181Z</time></trkpt><trkpt lat="43.9976827" lon="8.1654211"><ele>12.5</ele><time>2026-05-02T06:55:52.189Z</time></trkpt><trkpt lat="43.9978052" lon="8.1653981"><ele>13.0</ele><time>2026-05-02T06:55:53.178Z</time></trkpt><trkpt lat="43.9979326" lon="8.165371"><ele>13.5</ele><time>2026-05-02T06:55:54.178Z</time></trkpt><trkpt lat="43.9980606" lon="8.1653408"><ele>14.0</ele><time>2026-05-02T06:55:55.177Z</time></trkpt><trkpt lat="43.9981905" lon="8.1653027"><ele>14.0</ele><time>2026-05-02T06:55:56.173Z</time></trkpt><trkpt lat="43.9983288" lon="8.1652722"><ele>14.0</ele><time>2026-05-02T06:55:57.177Z</time></trkpt><trkpt lat="43.9984656" lon="8.1652456"><ele>14.0</ele><time>2026-05-02T06:55:58.185Z</time></trkpt><trkpt lat="43.998606" lon="8.1652254"><ele>14.0</ele><time>2026-05-02T06:55:59.168Z</time></trkpt><trkpt lat="43.9987481" lon="8.165205"><ele>13.75</ele><time>2026-05-02T06:56:00.174Z</time></trkpt><trkpt lat="43.9988843" lon="8.1651808"><ele>13.5</ele><time>2026-05-02T06:56:01.174Z</time></trkpt><trkpt lat="43.9990249" lon="8.1651613"><ele>13.25</ele><time>2026-05-02T06:56:02.174Z</time></trkpt><trkpt lat="43.9991676" lon="8.1651452"><ele>13.0</ele><time>2026-05-02T06:56:03.175Z</time></trkpt><trkpt lat="43.9993121" lon="8.165133"><ele>12.5</ele><time>2026-05-02T06:56:04.167Z</time></trkpt><trkpt lat="43.9994448" lon="8.1651105"><ele>12.0</ele><time>2026-05-02T06:56:05.168Z</time></trkpt><trkpt lat="43.9995715" lon="8.1651131"><ele>11.5</ele><time>2026-05-02T06:56:06.168Z</time></trkpt><trkpt lat="43.999687" lon="8.1651443"><ele>11.0</ele><time>2026-05-02T06:56:07.162Z</time></trkpt><trkpt lat="43.9997979" lon="8.1652065"><ele>11.0</ele><time>2026-05-02T06:56:08.173Z</time></trkpt><trkpt lat="43.9999177" lon="8.1652686"><ele>11.0</ele><time>2026-05-02T06:56:09.169Z</time></trkpt><trkpt lat="44.0000438" lon="8.1653197"><ele>11.0</ele><time>2026-05-02T06:56:10.165Z</time></trkpt><trkpt lat="44.000172" lon="8.1653798"><ele>11.0</ele><time>2026-05-02T06:56:11.164Z</time></trkpt><trkpt lat="44.0002977" lon="8.1654297"><ele>11.0</ele><time>2026-05-02T06:56:12.168Z</time></trkpt><trkpt lat="44.0004182" lon="8.1654787"><ele>11.0</ele><time>2026-05-02T06:56:13.167Z</time></trkpt><trkpt lat="44.0005396" lon="8.1655336"><ele>11.0</ele><time>2026-05-02T06:56:14.18Z</time></trkpt><trkpt lat="44.000664" lon="8.1655815"><ele>11.0</ele><time>2026-05-02T06:56:15.172Z</time></trkpt><trkpt lat="44.0007866" lon="8.1656265"><ele>11.25</ele><time>2026-05-02T06:56:16.168Z</time></trkpt><trkpt lat="44.0009089" lon="8.1656728"><ele>11.5</ele><time>2026-05-02T06:56:17.176Z</time></trkpt><trkpt lat="44.0010368" lon="8.1657247"><ele>11.75</ele><time>2026-05-02T06:56:18.169Z</time></trkpt><trkpt lat="44.0011592" lon="8.1657845"><ele>12.0</ele><time>2026-05-02T06:56:19.168Z</time></trkpt><trkpt lat="44.0012765" lon="8.1658449"><ele>12.0</ele><time>2026-05-02T06:56:20.163Z</time></trkpt><trkpt lat="44.0013868" lon="8.1659148"><ele>12.0</ele><time>2026-05-02T06:56:21.17Z</time></trkpt><trkpt lat="44.0014946" lon="8.165985"><ele>12.0</ele><time>2026-05-02T06:56:22.172Z</time></trkpt><trkpt lat="44.0016013" lon="8.1660643"><ele>12.0</ele><time>2026-05-02T06:56:23.159Z</time></trkpt><trkpt lat="44.0017059" lon="8.1661456"><ele>12.0</ele><time>2026-05-02T06:56:24.161Z</time></trkpt><trkpt lat="44.0018056" lon="8.1662349"><ele>12.0</ele><time>2026-05-02T06:56:25.173Z</time></trkpt><trkpt lat="44.0018961" lon="8.1663136"><ele>12.0</ele><time>2026-05-02T06:56:26.17Z</time></trkpt><trkpt lat="44.0019771" lon="8.166372"><ele>12.0</ele><time>2026-05-02T06:56:27.174Z</time></trkpt><trkpt lat="44.0020424" lon="8.1664217"><ele>12.0</ele><time>2026-05-02T06:56:28.174Z</time></trkpt><trkpt lat="44.0021056" lon="8.1664783"><ele>12.0</ele><time>2026-05-02T06:56:29.177Z</time></trkpt><trkpt lat="44.0021773" lon="8.1665285"><ele>12.0</ele><time>2026-05-02T06:56:30.184Z</time></trkpt><trkpt lat="44.0022413" lon="8.1665813"><ele>12.0</ele><time>2026-05-02T06:56:31.176Z</time></trkpt><trkpt lat="44.0023092" lon="8.166636"><ele>12.0</ele><time>2026-05-02T06:56:32.175Z</time></trkpt><trkpt lat="44.0023791" lon="8.1666914"><ele>12.0</ele><time>2026-05-02T06:56:33.168Z</time></trkpt><trkpt lat="44.002447" lon="8.1667444"><ele>12.0</ele><time>2026-05-02T06:56:34.163Z</time></trkpt><trkpt lat="44.0025159" lon="8.1667955"><ele>11.999999999999998</ele><time>2026-05-02T06:56:35.173Z</time></trkpt><trkpt lat="44.0025735" lon="8.1668568"><ele>12.0</ele><time>2026-05-02T06:56:36.178Z</time></trkpt><trkpt lat="44.0026277" lon="8.1669035"><ele>12.0</ele><time>2026-05-02T06:56:37.178Z</time></trkpt><trkpt lat="44.0026858" lon="8.1669396"><ele>12.0</ele><time>2026-05-02T06:56:38.17Z</time></trkpt><trkpt lat="44.0027483" lon="8.1669778"><ele>12.0</ele><time>2026-05-02T06:56:39.179Z</time></trkpt><trkpt lat="44.002818" lon="8.167019"><ele>11.999999999999998</ele><time>2026-05-02T06:56:40.175Z</time></trkpt><trkpt lat="44.002891" lon="8.1670699"><ele>12.0</ele><time>2026-05-02T06:56:41.161Z</time></trkpt><trkpt lat="44.0029659" lon="8.1671247"><ele>12.0</ele><time>2026-05-02T06:56:42.162Z</time></trkpt><trkpt lat="44.0030455" lon="8.1671811"><ele>12.0</ele><time>2026-05-02T06:56:43.154Z</time></trkpt><trkpt lat="44.0031328" lon="8.1672448"><ele>12.0</ele><time>2026-05-02T06:56:44.161Z</time></trkpt><trkpt lat="44.0032287" lon="8.1673051"><ele>12.0</ele><time>2026-05-02T06:56:45.147Z</time></trkpt><trkpt lat="44.0033168" lon="8.1673668"><ele>12.0</ele><time>2026-05-02T06:56:46.147Z</time></trkpt><trkpt lat="44.0034057" lon="8.1674221"><ele>12.166666666666666</ele><time>2026-05-02T06:56:47.16Z</time></trkpt><trkpt lat="44.003489" lon="8.1674735"><ele>12.333333333333332</ele><time>2026-05-02T06:56:48.169Z</time></trkpt><trkpt lat="44.0035603" lon="8.1675231"><ele>12.5</ele><time>2026-05-02T06:56:49.159Z</time></trkpt><trkpt lat="44.003625" lon="8.1675665"><ele>12.666666666666666</ele><time>2026-05-02T06:56:50.158Z</time></trkpt><trkpt lat="44.0037183" lon="8.1676265"><ele>12.833333333333332</ele><time>2026-05-02T06:56:52.161Z</time></trkpt><trkpt lat="44.0037756" lon="8.167695"><ele>13.0</ele><time>2026-05-02T06:57:01.168Z</time></trkpt><trkpt lat="44.0038391" lon="8.1677455"><ele>13.0</ele><time>2026-05-02T06:57:02.16Z</time></trkpt><trkpt lat="44.0039134" lon="8.1678014"><ele>13.0</ele><time>2026-05-02T06:57:03.161Z</time></trkpt><trkpt lat="44.0040009" lon="8.1678656"><ele>13.0</ele><time>2026-05-02T06:57:04.177Z</time></trkpt><trkpt lat="44.0040913" lon="8.1679388"><ele>13.0</ele><time>2026-05-02T06:57:05.167Z</time></trkpt><trkpt lat="44.0041867" lon="8.1680048"><ele>13.0</ele><time>2026-05-02T06:57:06.167Z</time></trkpt><trkpt lat="44.0042833" lon="8.168083"><ele>12.75</ele><time>2026-05-02T06:57:07.166Z</time></trkpt><trkpt lat="44.0043855" lon="8.1681849"><ele>12.5</ele><time>2026-05-02T06:57:08.168Z</time></trkpt><trkpt lat="44.0044876" lon="8.1682938"><ele>12.25</ele><time>2026-05-02T06:57:09.168Z</time></trkpt><trkpt lat="44.0045865" lon="8.1684134"><ele>12.0</ele><time>2026-05-02T06:57:10.166Z</time></trkpt><trkpt lat="44.0046813" lon="8.168526"><ele>11.5</ele><time>2026-05-02T06:57:11.161Z</time></trkpt><trkpt lat="44.0047741" lon="8.1686489"><ele>11.0</ele><time>2026-05-02T06:57:12.171Z</time></trkpt><trkpt lat="44.0048769" lon="8.1687641"><ele>10.5</ele><time>2026-05-02T06:57:13.165Z</time></trkpt><trkpt lat="44.004963" lon="8.1688714"><ele>10.0</ele><time>2026-05-02T06:57:14.172Z</time></trkpt><trkpt lat="44.0050383" lon="8.1689797"><ele>9.8</ele><time>2026-05-02T06:57:15.16Z</time></trkpt><trkpt lat="44.0051159" lon="8.1690764"><ele>9.6</ele><time>2026-05-02T06:57:16.169Z</time></trkpt><trkpt lat="44.0051986" lon="8.1691623"><ele>9.4</ele><time>2026-05-02T06:57:17.172Z</time></trkpt><trkpt lat="44.0052754" lon="8.1692382"><ele>9.2</ele><time>2026-05-02T06:57:18.173Z</time></trkpt><trkpt lat="44.0053462" lon="8.1693094"><ele>9.0</ele><time>2026-05-02T06:57:19.17Z</time></trkpt><trkpt lat="44.0054118" lon="8.1693673"><ele>9.0</ele><time>2026-05-02T06:57:20.166Z</time></trkpt><trkpt lat="44.0054695" lon="8.1694145"><ele>9.0</ele><time>2026-05-02T06:57:21.173Z</time></trkpt><trkpt lat="44.0055495" lon="8.1694675"><ele>9.0</ele><time>2026-05-02T06:57:23.164Z</time></trkpt><trkpt lat="44.0056229" lon="8.1695577"><ele>9.0</ele><time>2026-05-02T06:57:26.167Z</time></trkpt><trkpt lat="44.005664" lon="8.1696676"><ele>9.0</ele><time>2026-05-02T06:57:28.17Z</time></trkpt><trkpt lat="44.0057001" lon="8.1697401"><ele>9.0</ele><time>2026-05-02T06:57:29.163Z</time></trkpt><trkpt lat="44.005746" lon="8.1698178"><ele>8.833333333333334</ele><time>2026-05-02T06:57:30.162Z</time></trkpt><trkpt lat="44.005799" lon="8.169898"><ele>8.666666666666666</ele><time>2026-05-02T06:57:31.167Z</time></trkpt><trkpt lat="44.0058558" lon="8.1699798"><ele>8.5</ele><time>2026-05-02T06:57:32.184Z</time></trkpt><trkpt lat="44.0059217" lon="8.1700644"><ele>8.333333333333332</ele><time>2026-05-02T06:57:33.175Z</time></trkpt><trkpt lat="44.0059946" lon="8.1701455"><ele>8.166666666666666</ele><time>2026-05-02T06:57:34.176Z</time></trkpt><trkpt lat="44.0060604" lon="8.1702289"><ele>8.0</ele><time>2026-05-02T06:57:35.165Z</time></trkpt><trkpt lat="44.0061206" lon="8.170306"><ele>7.999999999999999</ele><time>2026-05-02T06:57:36.161Z</time></trkpt><trkpt lat="44.0061817" lon="8.1703664"><ele>8.0</ele><time>2026-05-02T06:57:37.17Z</time></trkpt><trkpt lat="44.0062464" lon="8.1704325"><ele>8.0</ele><time>2026-05-02T06:57:39.167Z</time></trkpt><trkpt lat="44.0063041" lon="8.1704964"><ele>8.0</ele><time>2026-05-02T06:57:41.176Z</time></trkpt><trkpt lat="44.006371" lon="8.1706219"><ele>7.999999999999999</ele><time>2026-05-02T06:57:43.17Z</time></trkpt><trkpt lat="44.0064247" lon="8.1707038"><ele>8.0</ele><time>2026-05-02T06:57:44.171Z</time></trkpt><trkpt lat="44.0064893" lon="8.1708001"><ele>8.5</ele><time>2026-05-02T06:57:45.162Z</time></trkpt><trkpt lat="44.006565" lon="8.1708999"><ele>9.0</ele><time>2026-05-02T06:57:46.164Z</time></trkpt><trkpt lat="44.0066493" lon="8.1710016"><ele>9.5</ele><time>2026-05-02T06:57:47.161Z</time></trkpt><trkpt lat="44.0067376" lon="8.1711073"><ele>10.0</ele><time>2026-05-02T06:57:48.172Z</time></trkpt><trkpt lat="44.0068266" lon="8.1712191"><ele>10.25</ele><time>2026-05-02T06:57:49.169Z</time></trkpt><trkpt lat="44.0069208" lon="8.1713298"><ele>10.5</ele><time>2026-05-02T06:57:50.172Z</time></trkpt><trkpt lat="44.0070156" lon="8.1714454"><ele>10.75</ele><time>2026-05-02T06:57:51.167Z</time></trkpt><trkpt lat="44.0071067" lon="8.1715558"><ele>11.0</ele><time>2026-05-02T06:57:52.171Z</time></trkpt><trkpt lat="44.0071915" lon="8.1716504"><ele>11.0</ele><time>2026-05-02T06:57:53.168Z</time></trkpt><trkpt lat="44.0072704" lon="8.1717419"><ele>11.0</ele><time>2026-05-02T06:57:54.173Z</time></trkpt><trkpt lat="44.0073378" lon="8.1718284"><ele>11.0</ele><time>2026-05-02T06:57:55.173Z</time></trkpt><trkpt lat="44.0074169" lon="8.1719185"><ele>11.0</ele><time>2026-05-02T06:57:56.182Z</time></trkpt><trkpt lat="44.0074936" lon="8.1720049"><ele>11.0</ele><time>2026-05-02T06:57:57.183Z</time></trkpt><trkpt lat="44.0075644" lon="8.1720949"><ele>11.0</ele><time>2026-05-02T06:57:58.188Z</time></trkpt><trkpt lat="44.007624" lon="8.1721775"><ele>11.0</ele><time>2026-05-02T06:57:59.189Z</time></trkpt><trkpt lat="44.0076818" lon="8.1722452"><ele>11.0</ele><time>2026-05-02T06:58:00.188Z</time></trkpt><trkpt lat="44.0077378" lon="8.1723067"><ele>11.0</ele><time>2026-05-02T06:58:01.189Z</time></trkpt><trkpt lat="44.007795" lon="8.1723665"><ele>11.0</ele><time>2026-05-02T06:58:02.188Z</time></trkpt><trkpt lat="44.00785" lon="8.1724344"><ele>11.0</ele><time>2026-05-02T06:58:03.181Z</time></trkpt><trkpt lat="44.0079074" lon="8.1725107"><ele>10.8</ele><time>2026-05-02T06:58:04.189Z</time></trkpt><trkpt lat="44.0079613" lon="8.172596"><ele>10.600000000000001</ele><time>2026-05-02T06:58:05.181Z</time></trkpt><trkpt lat="44.0080297" lon="8.1726906"><ele>10.4</ele><time>2026-05-02T06:58:06.179Z</time></trkpt><trkpt lat="44.008111" lon="8.1727848"><ele>10.2</ele><time>2026-05-02T06:58:07.184Z</time></trkpt><trkpt lat="44.0081995" lon="8.1728822"><ele>10.0</ele><time>2026-05-02T06:58:08.178Z</time></trkpt><trkpt lat="44.0082905" lon="8.1729785"><ele>10.4</ele><time>2026-05-02T06:58:09.178Z</time></trkpt><trkpt lat="44.008374" lon="8.1730669"><ele>10.8</ele><time>2026-05-02T06:58:10.191Z</time></trkpt><trkpt lat="44.0084546" lon="8.1731601"><ele>11.2</ele><time>2026-05-02T06:58:11.181Z</time></trkpt><trkpt lat="44.0085326" lon="8.1732591"><ele>11.6</ele><time>2026-05-02T06:58:12.179Z</time></trkpt><trkpt lat="44.0086059" lon="8.1733553"><ele>12.0</ele><time>2026-05-02T06:58:13.185Z</time></trkpt><trkpt lat="44.0086877" lon="8.1734537"><ele>12.0</ele><time>2026-05-02T06:58:14.184Z</time></trkpt><trkpt lat="44.0087757" lon="8.1735501"><ele>12.0</ele><time>2026-05-02T06:58:15.175Z</time></trkpt><trkpt lat="44.0088728" lon="8.1736426"><ele>12.0</ele><time>2026-05-02T06:58:16.18Z</time></trkpt><trkpt lat="44.0089825" lon="8.1737364"><ele>12.0</ele><time>2026-05-02T06:58:17.186Z</time></trkpt><trkpt lat="44.0090971" lon="8.1738233"><ele>12.75</ele><time>2026-05-02T06:58:18.177Z</time></trkpt><trkpt lat="44.0092124" lon="8.17391"><ele>13.5</ele><time>2026-05-02T06:58:19.18Z</time></trkpt><trkpt lat="44.0093249" lon="8.174008"><ele>14.25</ele><time>2026-05-02T06:58:20.167Z</time></trkpt><trkpt lat="44.0094391" lon="8.1741006"><ele>15.0</ele><time>2026-05-02T06:58:21.177Z</time></trkpt><trkpt lat="44.0095556" lon="8.1742012"><ele>15.0</ele><time>2026-05-02T06:58:22.175Z</time></trkpt><trkpt lat="44.0096725" lon="8.1742971"><ele>15.0</ele><time>2026-05-02T06:58:23.179Z</time></trkpt><trkpt lat="44.0097918" lon="8.1743966"><ele>15.0</ele><time>2026-05-02T06:58:24.18Z</time></trkpt><trkpt lat="44.0099156" lon="8.1745004"><ele>15.0</ele><time>2026-05-02T06:58:25.175Z</time></trkpt><trkpt lat="44.0100454" lon="8.1746088"><ele>14.666666666666668</ele><time>2026-05-02T06:58:26.174Z</time></trkpt><trkpt lat="44.0101865" lon="8.174712"><ele>14.333333333333334</ele><time>2026-05-02T06:58:27.178Z</time></trkpt><trkpt lat="44.0103082" lon="8.174832"><ele>14.0</ele><time>2026-05-02T06:58:28.18Z</time></trkpt><trkpt lat="44.0104388" lon="8.1749265"><ele>13.25</ele><time>2026-05-02T06:58:29.171Z</time></trkpt><trkpt lat="44.010554" lon="8.1750006"><ele>12.5</ele><time>2026-05-02T06:58:30.176Z</time></trkpt><trkpt lat="44.0106521" lon="8.1750977"><ele>11.75</ele><time>2026-05-02T06:58:31.18Z</time></trkpt><trkpt lat="44.0107553" lon="8.1751982"><ele>11.0</ele><time>2026-05-02T06:58:32.17Z</time></trkpt><trkpt lat="44.0108412" lon="8.1753204"><ele>11.200000000000001</ele><time>2026-05-02T06:58:33.176Z</time></trkpt><trkpt lat="44.0109253" lon="8.1754437"><ele>11.4</ele><time>2026-05-02T06:58:34.173Z</time></trkpt><trkpt lat="44.0109964" lon="8.1755619"><ele>11.6</ele><time>2026-05-02T06:58:35.171Z</time></trkpt><trkpt lat="44.0110624" lon="8.1756752"><ele>11.8</ele><time>2026-05-02T06:58:36.179Z</time></trkpt><trkpt lat="44.0111139" lon="8.1757948"><ele>12.0</ele><time>2026-05-02T06:58:37.171Z</time></trkpt><trkpt lat="44.0111442" lon="8.1759225"><ele>12.0</ele><time>2026-05-02T06:58:38.185Z</time></trkpt><trkpt lat="44.0111741" lon="8.1760432"><ele>12.0</ele><time>2026-05-02T06:58:39.181Z</time></trkpt><trkpt lat="44.0112103" lon="8.1761658"><ele>12.0</ele><time>2026-05-02T06:58:40.184Z</time></trkpt><trkpt lat="44.011246" lon="8.1762815"><ele>12.0</ele><time>2026-05-02T06:58:41.197Z</time></trkpt><trkpt lat="44.011279" lon="8.1763897"><ele>12.0</ele><time>2026-05-02T06:58:42.186Z</time></trkpt><trkpt lat="44.011309" lon="8.1764957"><ele>12.0</ele><time>2026-05-02T06:58:43.191Z</time></trkpt><trkpt lat="44.0113401" lon="8.1765978"><ele>11.4</ele><time>2026-05-02T06:58:44.189Z</time></trkpt><trkpt lat="44.0113805" lon="8.1766965"><ele>10.799999999999999</ele><time>2026-05-02T06:58:45.184Z</time></trkpt><trkpt lat="44.0114249" lon="8.1768068"><ele>10.2</ele><time>2026-05-02T06:58:46.178Z</time></trkpt><trkpt lat="44.0114841" lon="8.1769235"><ele>9.6</ele><time>2026-05-02T06:58:47.178Z</time></trkpt><trkpt lat="44.0115563" lon="8.1770496"><ele>9.0</ele><time>2026-05-02T06:58:48.177Z</time></trkpt><trkpt lat="44.0116397" lon="8.1771956"><ele>11.0</ele><time>2026-05-02T06:58:49.171Z</time></trkpt><trkpt lat="44.0117369" lon="8.1773526"><ele>13.0</ele><time>2026-05-02T06:58:50.155Z</time></trkpt><trkpt lat="44.0118347" lon="8.1775123"><ele>15.0</ele><time>2026-05-02T06:58:51.162Z</time></trkpt><trkpt lat="44.0119424" lon="8.1776693"><ele>15.0</ele><time>2026-05-02T06:58:52.167Z</time></trkpt><trkpt lat="44.012069" lon="8.1778111"><ele>15.0</ele><time>2026-05-02T06:58:53.158Z</time></trkpt><trkpt lat="44.0122059" lon="8.1779332"><ele>15.0</ele><time>2026-05-02T06:58:54.158Z</time></trkpt><trkpt lat="44.0123476" lon="8.1780543"><ele>15.666666666666668</ele><time>2026-05-02T06:58:55.16Z</time></trkpt><trkpt lat="44.0124903" lon="8.1781888"><ele>16.333333333333336</ele><time>2026-05-02T06:58:56.158Z</time></trkpt><trkpt lat="44.0126137" lon="8.1783272"><ele>17.0</ele><time>2026-05-02T06:58:57.17Z</time></trkpt><trkpt lat="44.0127283" lon="8.178473"><ele>17.0</ele><time>2026-05-02T06:58:58.175Z</time></trkpt><trkpt lat="44.0128428" lon="8.1786269"><ele>17.0</ele><time>2026-05-02T06:58:59.176Z</time></trkpt><trkpt lat="44.0129425" lon="8.1787535"><ele>17.0</ele><time>2026-05-02T06:59:00.172Z</time></trkpt><trkpt lat="44.0130319" lon="8.178886"><ele>17.0</ele><time>2026-05-02T06:59:01.169Z</time></trkpt><trkpt lat="44.0131222" lon="8.1790336"><ele>16.75</ele><time>2026-05-02T06:59:02.167Z</time></trkpt><trkpt lat="44.0132286" lon="8.1791789"><ele>16.5</ele><time>2026-05-02T06:59:03.164Z</time></trkpt><trkpt lat="44.0133235" lon="8.1793236"><ele>16.25</ele><time>2026-05-02T06:59:04.167Z</time></trkpt><trkpt lat="44.0134318" lon="8.1794639"><ele>16.0</ele><time>2026-05-02T06:59:05.172Z</time></trkpt><trkpt lat="44.0135249" lon="8.1795886"><ele>16.75</ele><time>2026-05-02T06:59:06.163Z</time></trkpt><trkpt lat="44.0136031" lon="8.1797159"><ele>17.5</ele><time>2026-05-02T06:59:07.16Z</time></trkpt><trkpt lat="44.0136823" lon="8.1798496"><ele>18.25</ele><time>2026-05-02T06:59:08.163Z</time></trkpt><trkpt lat="44.0137573" lon="8.1799869"><ele>19.0</ele><time>2026-05-02T06:59:09.167Z</time></trkpt><trkpt lat="44.013823" lon="8.1801406"><ele>17.0</ele><time>2026-05-02T06:59:10.161Z</time></trkpt><trkpt lat="44.013886" lon="8.1802884"><ele>15.0</ele><time>2026-05-02T06:59:11.175Z</time></trkpt><trkpt lat="44.0139444" lon="8.180432"><ele>13.0</ele><time>2026-05-02T06:59:12.171Z</time></trkpt><trkpt lat="44.0140033" lon="8.1805862"><ele>11.0</ele><time>2026-05-02T06:59:13.169Z</time></trkpt><trkpt lat="44.0140611" lon="8.1807378"><ele>10.75</ele><time>2026-05-02T06:59:14.179Z</time></trkpt><trkpt lat="44.0141173" lon="8.1808929"><ele>10.5</ele><time>2026-05-02T06:59:15.172Z</time></trkpt><trkpt lat="44.0141807" lon="8.1810548"><ele>10.25</ele><time>2026-05-02T06:59:16.171Z</time></trkpt><trkpt lat="44.0142452" lon="8.1812297"><ele>10.0</ele><time>2026-05-02T06:59:17.181Z</time></trkpt><trkpt lat="44.0143057" lon="8.1814087"><ele>11.333333333333334</ele><time>2026-05-02T06:59:18.177Z</time></trkpt><trkpt lat="44.0143634" lon="8.1815935"><ele>12.666666666666668</ele><time>2026-05-02T06:59:19.178Z</time></trkpt><trkpt lat="44.014428" lon="8.1817823"><ele>14.0</ele><time>2026-05-02T06:59:20.181Z</time></trkpt><trkpt lat="44.0145056" lon="8.1819705"><ele>14.0</ele><time>2026-05-02T06:59:21.186Z</time></trkpt><trkpt lat="44.0145756" lon="8.1821473"><ele>14.0</ele><time>2026-05-02T06:59:22.183Z</time></trkpt><trkpt lat="44.0146527" lon="8.1823179"><ele>14.0</ele><time>2026-05-02T06:59:23.194Z</time></trkpt><trkpt lat="44.0147234" lon="8.1824926"><ele>14.0</ele><time>2026-05-02T06:59:24.191Z</time></trkpt><trkpt lat="44.0147832" lon="8.1826718"><ele>13.0</ele><time>2026-05-02T06:59:25.193Z</time></trkpt><trkpt lat="44.0148414" lon="8.1828607"><ele>12.0</ele><time>2026-05-02T06:59:26.18Z</time></trkpt><trkpt lat="44.014902" lon="8.1830482"><ele>11.0</ele><time>2026-05-02T06:59:27.18Z</time></trkpt><trkpt lat="44.0149691" lon="8.1832465"><ele>13.666666666666666</ele><time>2026-05-02T06:59:28.178Z</time></trkpt><trkpt lat="44.0150398" lon="8.183441"><ele>16.333333333333332</ele><time>2026-05-02T06:59:29.182Z</time></trkpt><trkpt lat="44.015118" lon="8.1836505"><ele>19.0</ele><time>2026-05-02T06:59:30.174Z</time></trkpt><trkpt lat="44.0151965" lon="8.1838558"><ele>16.0</ele><time>2026-05-02T06:59:31.183Z</time></trkpt><trkpt lat="44.0152651" lon="8.1840557"><ele>13.0</ele><time>2026-05-02T06:59:32.186Z</time></trkpt><trkpt lat="44.0153322" lon="8.1842485"><ele>10.0</ele><time>2026-05-02T06:59:33.185Z</time></trkpt><trkpt lat="44.0153953" lon="8.1844451"><ele>10.0</ele><time>2026-05-02T06:59:34.185Z</time></trkpt><trkpt lat="44.0154572" lon="8.1846447"><ele>10.0</ele><time>2026-05-02T06:59:35.193Z</time></trkpt><trkpt lat="44.015516" lon="8.1848388"><ele>10.0</ele><time>2026-05-02T06:59:36.188Z</time></trkpt><trkpt lat="44.0155718" lon="8.1850418"><ele>8.75</ele><time>2026-05-02T06:59:37.194Z</time></trkpt><trkpt lat="44.0156214" lon="8.1852376"><ele>7.5</ele><time>2026-05-02T06:59:38.192Z</time></trkpt><trkpt lat="44.0156658" lon="8.1854254"><ele>6.25</ele><time>2026-05-02T06:59:39.183Z</time></trkpt><trkpt lat="44.0157023" lon="8.1856126"><ele>5.0</ele><time>2026-05-02T06:59:40.191Z</time></trkpt><trkpt lat="44.0157369" lon="8.1858055"><ele>4.25</ele><time>2026-05-02T06:59:41.185Z</time></trkpt><trkpt lat="44.0157804" lon="8.1860034"><ele>3.5</ele><time>2026-05-02T06:59:42.196Z</time></trkpt><trkpt lat="44.0158212" lon="8.1861989"><ele>2.75</ele><time>2026-05-02T06:59:43.198Z</time></trkpt><trkpt lat="44.0158569" lon="8.1863975"><ele>2.0</ele><time>2026-05-02T06:59:44.196Z</time></trkpt><trkpt lat="44.0158884" lon="8.1865963"><ele>7.666666666666666</ele><time>2026-05-02T06:59:45.192Z</time></trkpt><trkpt lat="44.0159233" lon="8.1868006"><ele>13.333333333333332</ele><time>2026-05-02T06:59:46.202Z</time></trkpt><trkpt lat="44.0159594" lon="8.1869974"><ele>19.0</ele><time>2026-05-02T06:59:47.187Z</time></trkpt><trkpt lat="44.0159887" lon="8.1872088"><ele>18.5</ele><time>2026-05-02T06:59:48.184Z</time></trkpt><trkpt lat="44.0160163" lon="8.1874148"><ele>18.0</ele><time>2026-05-02T06:59:49.191Z</time></trkpt><trkpt lat="44.0160388" lon="8.1876218"><ele>17.5</ele><time>2026-05-02T06:59:50.197Z</time></trkpt><trkpt lat="44.0160639" lon="8.1878234"><ele>17.0</ele><time>2026-05-02T06:59:51.199Z</time></trkpt><trkpt lat="44.0160866" lon="8.1880323"><ele>16.0</ele><time>2026-05-02T06:59:52.189Z</time></trkpt><trkpt lat="44.0161073" lon="8.1882422"><ele>15.0</ele><time>2026-05-02T06:59:53.198Z</time></trkpt><trkpt lat="44.0161391" lon="8.1884515"><ele>14.0</ele><time>2026-05-02T06:59:54.19Z</time></trkpt><trkpt lat="44.0161803" lon="8.1886461"><ele>14.0</ele><time>2026-05-02T06:59:55.183Z</time></trkpt><trkpt lat="44.016252" lon="8.1888238"><ele>14.0</ele><time>2026-05-02T06:59:56.191Z</time></trkpt><trkpt lat="44.016345" lon="8.1889808"><ele>14.0</ele><time>2026-05-02T06:59:57.18Z</time></trkpt><trkpt lat="44.0164216" lon="8.1891513"><ele>14.0</ele><time>2026-05-02T06:59:58.18Z</time></trkpt><trkpt lat="44.016465" lon="8.1893313"><ele>13.75</ele><time>2026-05-02T06:59:59.186Z</time></trkpt><trkpt lat="44.0164588" lon="8.1895323"><ele>13.5</ele><time>2026-05-02T07:00:00.175Z</time></trkpt><trkpt lat="44.0164285" lon="8.1897361"><ele>13.25</ele><time>2026-05-02T07:00:01.181Z</time></trkpt><trkpt lat="44.016393" lon="8.1899409"><ele>13.0</ele><time>2026-05-02T07:00:02.186Z</time></trkpt><trkpt lat="44.0163588" lon="8.1901361"><ele>13.0</ele><time>2026-05-02T07:00:03.19Z</time></trkpt><trkpt lat="44.0163207" lon="8.1903341"><ele>13.0</ele><time>2026-05-02T07:00:04.188Z</time></trkpt><trkpt lat="44.0162802" lon="8.1905418"><ele>13.0</ele><time>2026-05-02T07:00:05.193Z</time></trkpt><trkpt lat="44.0162491" lon="8.1907381"><ele>13.0</ele><time>2026-05-02T07:00:06.199Z</time></trkpt><trkpt lat="44.0162284" lon="8.1909343"><ele>14.5</ele><time>2026-05-02T07:00:07.188Z</time></trkpt><trkpt lat="44.016207" lon="8.1911042"><ele>16.0</ele><time>2026-05-02T07:00:08.199Z</time></trkpt><trkpt lat="44.016185" lon="8.1912754"><ele>17.5</ele><time>2026-05-02T07:00:09.192Z</time></trkpt><trkpt lat="44.0161841" lon="8.191439"><ele>19.0</ele><time>2026-05-02T07:00:10.185Z</time></trkpt><trkpt lat="44.0162179" lon="8.1915982"><ele>19.0</ele><time>2026-05-02T07:00:11.179Z</time></trkpt><trkpt lat="44.0162914" lon="8.1917278"><ele>19.0</ele><time>2026-05-02T07:00:12.197Z</time></trkpt><trkpt lat="44.0164118" lon="8.1918143"><ele>19.0</ele><time>2026-05-02T07:00:13.194Z</time></trkpt><trkpt lat="44.016543" lon="8.1918664"><ele>19.0</ele><time>2026-05-02T07:00:14.212Z</time></trkpt><trkpt lat="44.0166788" lon="8.1918805"><ele>22.75</ele><time>2026-05-02T07:00:15.184Z</time></trkpt><trkpt lat="44.0168094" lon="8.1918566"><ele>26.5</ele><time>2026-05-02T07:00:16.162Z</time></trkpt><trkpt lat="44.0169434" lon="8.1918033"><ele>30.25</ele><time>2026-05-02T07:00:17.18Z</time></trkpt><trkpt lat="44.0170721" lon="8.1917296"><ele>34.0</ele><time>2026-05-02T07:00:18.167Z</time></trkpt><trkpt lat="44.0172036" lon="8.1916413"><ele>34.0</ele><time>2026-05-02T07:00:19.18Z</time></trkpt><trkpt lat="44.0173232" lon="8.1915222"><ele>34.0</ele><time>2026-05-02T07:00:20.17Z</time></trkpt><trkpt lat="44.0174494" lon="8.1914478"><ele>34.0</ele><time>2026-05-02T07:00:21.175Z</time></trkpt><trkpt lat="44.0175825" lon="8.1913792"><ele>34.0</ele><time>2026-05-02T07:00:22.172Z</time></trkpt><trkpt lat="44.0176917" lon="8.1913262"><ele>44.75</ele><time>2026-05-02T07:00:23.173Z</time></trkpt><trkpt lat="44.0178064" lon="8.191262"><ele>55.5</ele><time>2026-05-02T07:00:24.174Z</time></trkpt><trkpt lat="44.017915" lon="8.1911981"><ele>66.25</ele><time>2026-05-02T07:00:25.175Z</time></trkpt><trkpt lat="44.018035" lon="8.1911475"><ele>77.0</ele><time>2026-05-02T07:00:26.165Z</time></trkpt><trkpt lat="44.018145" lon="8.1910933"><ele>77.0</ele><time>2026-05-02T07:00:27.174Z</time></trkpt><trkpt lat="44.0182544" lon="8.191029"><ele>77.0</ele><time>2026-05-02T07:00:28.177Z</time></trkpt><trkpt lat="44.0183656" lon="8.1909691"><ele>77.0</ele><time>2026-05-02T07:00:29.175Z</time></trkpt><trkpt lat="44.0184735" lon="8.1909142"><ele>77.0</ele><time>2026-05-02T07:00:30.18Z</time></trkpt><trkpt lat="44.0185728" lon="8.1908546"><ele>75.0</ele><time>2026-05-02T07:00:31.171Z</time></trkpt><trkpt lat="44.0186743" lon="8.190795"><ele>73.0</ele><time>2026-05-02T07:00:32.174Z</time></trkpt><trkpt lat="44.0187817" lon="8.1907263"><ele>71.0</ele><time>2026-05-02T07:00:33.173Z</time></trkpt><trkpt lat="44.0188873" lon="8.1906563"><ele>69.0</ele><time>2026-05-02T07:00:34.166Z</time></trkpt><trkpt lat="44.0189932" lon="8.1906061"><ele>62.75</ele><time>2026-05-02T07:00:35.176Z</time></trkpt><trkpt lat="44.0191029" lon="8.1905863"><ele>56.5</ele><time>2026-05-02T07:00:36.178Z</time></trkpt><trkpt lat="44.0192229" lon="8.1906048"><ele>50.25</ele><time>2026-05-02T07:00:37.169Z</time></trkpt><trkpt lat="44.0193581" lon="8.1906572"><ele>44.0</ele><time>2026-05-02T07:00:38.177Z</time></trkpt><trkpt lat="44.0195029" lon="8.1907157"><ele>44.0</ele><time>2026-05-02T07:00:39.176Z</time></trkpt><trkpt lat="44.0196658" lon="8.1907791"><ele>44.0</ele><time>2026-05-02T07:00:40.175Z</time></trkpt><trkpt lat="44.0198389" lon="8.1908596"><ele>44.0</ele><time>2026-05-02T07:00:41.176Z</time></trkpt><trkpt lat="44.0200246" lon="8.190931"><ele>46.33333333333333</ele><time>2026-05-02T07:00:42.182Z</time></trkpt><trkpt lat="44.0202078" lon="8.1909995"><ele>48.666666666666664</ele><time>2026-05-02T07:00:43.186Z</time></trkpt><trkpt lat="44.0203856" lon="8.1910567"><ele>51.0</ele><time>2026-05-02T07:00:44.193Z</time></trkpt><trkpt lat="44.0205441" lon="8.1911034"><ele>51.0</ele><time>2026-05-02T07:00:45.182Z</time></trkpt><trkpt lat="44.020692" lon="8.1911442"><ele>51.0</ele><time>2026-05-02T07:00:46.19Z</time></trkpt><trkpt lat="44.0208425" lon="8.1911902"><ele>51.0</ele><time>2026-05-02T07:00:47.193Z</time></trkpt><trkpt lat="44.0209937" lon="8.1912381"><ele>54.33333333333333</ele><time>2026-05-02T07:00:48.181Z</time></trkpt><trkpt lat="44.0211649" lon="8.191299"><ele>57.666666666666664</ele><time>2026-05-02T07:00:49.192Z</time></trkpt><trkpt lat="44.0213316" lon="8.1913805"><ele>61.0</ele><time>2026-05-02T07:00:50.191Z</time></trkpt><trkpt lat="44.0214951" lon="8.1914471"><ele>52.666666666666664</ele><time>2026-05-02T07:00:51.182Z</time></trkpt><trkpt lat="44.0216581" lon="8.1915101"><ele>44.33333333333333</ele><time>2026-05-02T07:00:52.193Z</time></trkpt><trkpt lat="44.0218284" lon="8.1915595"><ele>36.0</ele><time>2026-05-02T07:00:53.201Z</time></trkpt><trkpt lat="44.0219946" lon="8.1916109"><ele>36.0</ele><time>2026-05-02T07:00:54.184Z</time></trkpt><trkpt lat="44.022143" lon="8.1916609"><ele>36.0</ele><time>2026-05-02T07:00:55.187Z</time></trkpt><trkpt lat="44.0222804" lon="8.1917169"><ele>36.0</ele><time>2026-05-02T07:00:56.187Z</time></trkpt><trkpt lat="44.0224201" lon="8.1917953"><ele>36.0</ele><time>2026-05-02T07:00:57.183Z</time></trkpt><trkpt lat="44.0225431" lon="8.1919395"><ele>35.333333333333336</ele><time>2026-05-02T07:00:58.185Z</time></trkpt><trkpt lat="44.0226198" lon="8.1921325"><ele>34.66666666666667</ele><time>2026-05-02T07:00:59.19Z</time></trkpt><trkpt lat="44.0226659" lon="8.1923539"><ele>34.0</ele><time>2026-05-02T07:01:00.18Z</time></trkpt><trkpt lat="44.0227348" lon="8.192565"><ele>34.0</ele><time>2026-05-02T07:01:01.183Z</time></trkpt><trkpt lat="44.0228027" lon="8.1927656"><ele>34.0</ele><time>2026-05-02T07:01:02.186Z</time></trkpt><trkpt lat="44.0228845" lon="8.1929621"><ele>34.0</ele><time>2026-05-02T07:01:03.178Z</time></trkpt><trkpt lat="44.0229612" lon="8.1931563"><ele>37.0</ele><time>2026-05-02T07:01:04.164Z</time></trkpt><trkpt lat="44.0230535" lon="8.1933302"><ele>40.0</ele><time>2026-05-02T07:01:05.163Z</time></trkpt><trkpt lat="44.0231802" lon="8.1934581"><ele>43.0</ele><time>2026-05-02T07:01:06.168Z</time></trkpt><trkpt lat="44.0233382" lon="8.1935551"><ele>43.0</ele><time>2026-05-02T07:01:07.177Z</time></trkpt><trkpt lat="44.0235062" lon="8.1936425"><ele>43.0</ele><time>2026-05-02T07:01:08.166Z</time></trkpt><trkpt lat="44.0236467" lon="8.1937565"><ele>43.0</ele><time>2026-05-02T07:01:09.167Z</time></trkpt><trkpt lat="44.0237873" lon="8.1939032"><ele>44.0</ele><time>2026-05-02T07:01:10.166Z</time></trkpt><trkpt lat="44.0239176" lon="8.1940561"><ele>45.0</ele><time>2026-05-02T07:01:11.174Z</time></trkpt><trkpt lat="44.0240477" lon="8.1941932"><ele>46.0</ele><time>2026-05-02T07:01:12.165Z</time></trkpt><trkpt lat="44.0241885" lon="8.1943309"><ele>46.0</ele><time>2026-05-02T07:01:13.177Z</time></trkpt><trkpt lat="44.0243152" lon="8.1944652"><ele>46.0</ele><time>2026-05-02T07:01:14.172Z</time></trkpt><trkpt lat="44.0244405" lon="8.1945994"><ele>46.0</ele><time>2026-05-02T07:01:15.169Z</time></trkpt><trkpt lat="44.0245646" lon="8.1947383"><ele>36.66666666666667</ele><time>2026-05-02T07:01:16.167Z</time></trkpt><trkpt lat="44.0246537" lon="8.194905"><ele>27.333333333333336</ele><time>2026-05-02T07:01:17.179Z</time></trkpt><trkpt lat="44.0247088" lon="8.1951208"><ele>18.0</ele><time>2026-05-02T07:01:18.174Z</time></trkpt><trkpt lat="44.0247311" lon="8.1953473"><ele>18.0</ele><time>2026-05-02T07:01:19.167Z</time></trkpt><trkpt lat="44.0247872" lon="8.1955293"><ele>18.0</ele><time>2026-05-02T07:01:20.182Z</time></trkpt><trkpt lat="44.0248703" lon="8.1956839"><ele>18.0</ele><time>2026-05-02T07:01:21.176Z</time></trkpt><trkpt lat="44.025003" lon="8.1958083"><ele>18.0</ele><time>2026-05-02T07:01:22.171Z</time></trkpt><trkpt lat="44.0251256" lon="8.195965"><ele>20.333333333333336</ele><time>2026-05-02T07:01:23.173Z</time></trkpt><trkpt lat="44.025217" lon="8.1961634"><ele>22.666666666666668</ele><time>2026-05-02T07:01:24.173Z</time></trkpt><trkpt lat="44.025257" lon="8.1963713"><ele>25.0</ele><time>2026-05-02T07:01:25.176Z</time></trkpt><trkpt lat="44.025289" lon="8.1965771"><ele>25.0</ele><time>2026-05-02T07:01:26.182Z</time></trkpt><trkpt lat="44.0253451" lon="8.1967488"><ele>25.0</ele><time>2026-05-02T07:01:27.181Z</time></trkpt><trkpt lat="44.0254501" lon="8.1968903"><ele>25.0</ele><time>2026-05-02T07:01:28.182Z</time></trkpt><trkpt lat="44.0255652" lon="8.1970408"><ele>25.0</ele><time>2026-05-02T07:01:29.175Z</time></trkpt><trkpt lat="44.0256364" lon="8.1972104"><ele>27.0</ele><time>2026-05-02T07:01:30.178Z</time></trkpt><trkpt lat="44.0256998" lon="8.1973833"><ele>29.0</ele><time>2026-05-02T07:01:31.181Z</time></trkpt><trkpt lat="44.0257959" lon="8.1975429"><ele>31.0</ele><time>2026-05-02T07:01:32.192Z</time></trkpt><trkpt lat="44.0259381" lon="8.1976405"><ele>33.0</ele><time>2026-05-02T07:01:33.179Z</time></trkpt><trkpt lat="44.0260858" lon="8.19771"><ele>33.0</ele><time>2026-05-02T07:01:34.181Z</time></trkpt><trkpt lat="44.0262109" lon="8.1977975"><ele>33.0</ele><time>2026-05-02T07:01:35.187Z</time></trkpt><trkpt lat="44.0263217" lon="8.1979036"><ele>33.0</ele><time>2026-05-02T07:01:36.179Z</time></trkpt><trkpt lat="44.0264181" lon="8.1980396"><ele>33.0</ele><time>2026-05-02T07:01:37.178Z</time></trkpt><trkpt lat="44.0265175" lon="8.1981827"><ele>31.0</ele><time>2026-05-02T07:01:38.181Z</time></trkpt><trkpt lat="44.0266137" lon="8.1983363"><ele>29.0</ele><time>2026-05-02T07:01:39.194Z</time></trkpt><trkpt lat="44.0267229" lon="8.1984821"><ele>27.0</ele><time>2026-05-02T07:01:40.187Z</time></trkpt><trkpt lat="44.0268321" lon="8.1986241"><ele>25.0</ele><time>2026-05-02T07:01:41.183Z</time></trkpt><trkpt lat="44.0269523" lon="8.1987449"><ele>25.0</ele><time>2026-05-02T07:01:42.185Z</time></trkpt><trkpt lat="44.0270743" lon="8.1988575"><ele>25.0</ele><time>2026-05-02T07:01:43.195Z</time></trkpt><trkpt lat="44.0272011" lon="8.198969"><ele>25.0</ele><time>2026-05-02T07:01:44.19Z</time></trkpt><trkpt lat="44.0273289" lon="8.1990726"><ele>25.0</ele><time>2026-05-02T07:01:45.19Z</time></trkpt><trkpt lat="44.0274583" lon="8.1991434"><ele>24.5</ele><time>2026-05-02T07:01:46.191Z</time></trkpt><trkpt lat="44.0275934" lon="8.1991824"><ele>24.0</ele><time>2026-05-02T07:01:47.188Z</time></trkpt><trkpt lat="44.0277263" lon="8.1992331"><ele>23.5</ele><time>2026-05-02T07:01:48.188Z</time></trkpt><trkpt lat="44.027847" lon="8.1993116"><ele>23.0</ele><time>2026-05-02T07:01:49.19Z</time></trkpt><trkpt lat="44.0279539" lon="8.1994317"><ele>23.0</ele><time>2026-05-02T07:01:50.196Z</time></trkpt><trkpt lat="44.0280444" lon="8.199558"><ele>23.0</ele><time>2026-05-02T07:01:51.191Z</time></trkpt><trkpt lat="44.0281342" lon="8.1996718"><ele>23.0</ele><time>2026-05-02T07:01:52.19Z</time></trkpt><trkpt lat="44.0282194" lon="8.1997888"><ele>23.0</ele><time>2026-05-02T07:01:53.185Z</time></trkpt><trkpt lat="44.0283222" lon="8.1999173"><ele>24.333333333333336</ele><time>2026-05-02T07:01:54.184Z</time></trkpt><trkpt lat="44.0284376" lon="8.2000512"><ele>25.666666666666668</ele><time>2026-05-02T07:01:55.183Z</time></trkpt><trkpt lat="44.0285703" lon="8.2001902"><ele>27.0</ele><time>2026-05-02T07:01:56.184Z</time></trkpt><trkpt lat="44.0287161" lon="8.20031"><ele>27.0</ele><time>2026-05-02T07:01:57.192Z</time></trkpt><trkpt lat="44.0288703" lon="8.2004372"><ele>27.0</ele><time>2026-05-02T07:01:58.201Z</time></trkpt><trkpt lat="44.0290329" lon="8.2005462"><ele>27.0</ele><time>2026-05-02T07:01:59.186Z</time></trkpt><trkpt lat="44.0291928" lon="8.2006666"><ele>24.333333333333332</ele><time>2026-05-02T07:02:00.19Z</time></trkpt><trkpt lat="44.0293551" lon="8.2007827"><ele>21.666666666666664</ele><time>2026-05-02T07:02:01.193Z</time></trkpt><trkpt lat="44.0295199" lon="8.2009019"><ele>19.0</ele><time>2026-05-02T07:02:02.191Z</time></trkpt><trkpt lat="44.0296807" lon="8.2010232"><ele>19.0</ele><time>2026-05-02T07:02:03.189Z</time></trkpt><trkpt lat="44.029841" lon="8.2011489"><ele>19.0</ele><time>2026-05-02T07:02:04.189Z</time></trkpt><trkpt lat="44.0300096" lon="8.2012799"><ele>19.0</ele><time>2026-05-02T07:02:05.184Z</time></trkpt><trkpt lat="44.0301617" lon="8.2014067"><ele>16.0</ele><time>2026-05-02T07:02:06.184Z</time></trkpt><trkpt lat="44.0303293" lon="8.2015295"><ele>13.0</ele><time>2026-05-02T07:02:07.184Z</time></trkpt><trkpt lat="44.0304939" lon="8.201668"><ele>10.0</ele><time>2026-05-02T07:02:08.178Z</time></trkpt><trkpt lat="44.0306489" lon="8.2017897"><ele>17.0</ele><time>2026-05-02T07:02:09.192Z</time></trkpt><trkpt lat="44.0308088" lon="8.2019236"><ele>24.0</ele><time>2026-05-02T07:02:10.189Z</time></trkpt><trkpt lat="44.0309707" lon="8.2020693"><ele>31.0</ele><time>2026-05-02T07:02:11.186Z</time></trkpt><trkpt lat="44.0311267" lon="8.2022184"><ele>23.0</ele><time>2026-05-02T07:02:12.176Z</time></trkpt><trkpt lat="44.031276" lon="8.2023858"><ele>15.0</ele><time>2026-05-02T07:02:13.18Z</time></trkpt><trkpt lat="44.0314201" lon="8.2025645"><ele>7.0</ele><time>2026-05-02T07:02:14.184Z</time></trkpt><trkpt lat="44.0315582" lon="8.2027332"><ele>7.333333333333334</ele><time>2026-05-02T07:02:15.18Z</time></trkpt><trkpt lat="44.0317009" lon="8.2028891"><ele>7.666666666666666</ele><time>2026-05-02T07:02:16.181Z</time></trkpt><trkpt lat="44.0318494" lon="8.2030441"><ele>8.0</ele><time>2026-05-02T07:02:17.195Z</time></trkpt><trkpt lat="44.0319899" lon="8.2032203"><ele>8.0</ele><time>2026-05-02T07:02:18.178Z</time></trkpt><trkpt lat="44.0321025" lon="8.2034185"><ele>8.0</ele><time>2026-05-02T07:02:19.189Z</time></trkpt><trkpt lat="44.0322078" lon="8.2036183"><ele>8.0</ele><time>2026-05-02T07:02:20.192Z</time></trkpt><trkpt lat="44.0323129" lon="8.2038256"><ele>6.333333333333333</ele><time>2026-05-02T07:02:21.184Z</time></trkpt><trkpt lat="44.0323865" lon="8.2040326"><ele>4.666666666666666</ele><time>2026-05-02T07:02:22.193Z</time></trkpt><trkpt lat="44.0324309" lon="8.2042679"><ele>3.0</ele><time>2026-05-02T07:02:23.194Z</time></trkpt><trkpt lat="44.0324304" lon="8.2045113"><ele>3.0</ele><time>2026-05-02T07:02:24.194Z</time></trkpt><trkpt lat="44.0324004" lon="8.2047415"><ele>3.0</ele><time>2026-05-02T07:02:25.185Z</time></trkpt><trkpt lat="44.0323437" lon="8.2049831"><ele>3.0</ele><time>2026-05-02T07:02:26.184Z</time></trkpt><trkpt lat="44.0322874" lon="8.2052268"><ele>3.0</ele><time>2026-05-02T07:02:27.183Z</time></trkpt><trkpt lat="44.0322394" lon="8.2054597"><ele>3.0</ele><time>2026-05-02T07:02:28.185Z</time></trkpt><trkpt lat="44.0322586" lon="8.2057031"><ele>3.0</ele><time>2026-05-02T07:02:29.198Z</time></trkpt><trkpt lat="44.0323341" lon="8.2059424"><ele>2.3333333333333335</ele><time>2026-05-02T07:02:30.197Z</time></trkpt><trkpt lat="44.0324412" lon="8.2061416"><ele>1.6666666666666665</ele><time>2026-05-02T07:02:31.191Z</time></trkpt><trkpt lat="44.0325678" lon="8.2062927"><ele>1.0</ele><time>2026-05-02T07:02:32.187Z</time></trkpt><trkpt lat="44.0327125" lon="8.2064183"><ele>2.6666666666666665</ele><time>2026-05-02T07:02:33.18Z</time></trkpt><trkpt lat="44.032872" lon="8.2065079"><ele>4.333333333333333</ele><time>2026-05-02T07:02:34.182Z</time></trkpt><trkpt lat="44.0330268" lon="8.2065873"><ele>6.0</ele><time>2026-05-02T07:02:35.181Z</time></trkpt><trkpt lat="44.0331898" lon="8.206668"><ele>11.333333333333332</ele><time>2026-05-02T07:02:36.181Z</time></trkpt><trkpt lat="44.0333458" lon="8.2067556"><ele>16.666666666666664</ele><time>2026-05-02T07:02:37.187Z</time></trkpt><trkpt lat="44.0335034" lon="8.2068547"><ele>22.0</ele><time>2026-05-02T07:02:38.189Z</time></trkpt><trkpt lat="44.0336648" lon="8.2069513"><ele>22.0</ele><time>2026-05-02T07:02:39.189Z</time></trkpt><trkpt lat="44.0338191" lon="8.2070506"><ele>22.0</ele><time>2026-05-02T07:02:40.193Z</time></trkpt><trkpt lat="44.0339775" lon="8.207143"><ele>22.0</ele><time>2026-05-02T07:02:41.185Z</time></trkpt><trkpt lat="44.0341259" lon="8.207249"><ele>19.666666666666664</ele><time>2026-05-02T07:02:42.193Z</time></trkpt><trkpt lat="44.0342846" lon="8.2073555"><ele>17.333333333333332</ele><time>2026-05-02T07:02:43.196Z</time></trkpt><trkpt lat="44.0344348" lon="8.2074592"><ele>15.0</ele><time>2026-05-02T07:02:44.183Z</time></trkpt><trkpt lat="44.034587" lon="8.2075487"><ele>15.0</ele><time>2026-05-02T07:02:45.199Z</time></trkpt><trkpt lat="44.0347491" lon="8.2076171"><ele>15.0</ele><time>2026-05-02T07:02:46.185Z</time></trkpt><trkpt lat="44.0349212" lon="8.2076381"><ele>15.0</ele><time>2026-05-02T07:02:47.198Z</time></trkpt><trkpt lat="44.0350944" lon="8.2076066"><ele>14.666666666666668</ele><time>2026-05-02T07:02:48.187Z</time></trkpt><trkpt lat="44.0352601" lon="8.2075806"><ele>14.333333333333334</ele><time>2026-05-02T07:02:49.19Z</time></trkpt><trkpt lat="44.0354208" lon="8.207575"><ele>14.0</ele><time>2026-05-02T07:02:50.186Z</time></trkpt><trkpt lat="44.035597" lon="8.2075654"><ele>14.0</ele><time>2026-05-02T07:02:51.191Z</time></trkpt><trkpt lat="44.0357666" lon="8.2075557"><ele>14.0</ele><time>2026-05-02T07:02:52.195Z</time></trkpt><trkpt lat="44.035926" lon="8.2075418"><ele>14.0</ele><time>2026-05-02T07:02:53.195Z</time></trkpt><trkpt lat="44.0360835" lon="8.2075551"><ele>12.0</ele><time>2026-05-02T07:02:54.202Z</time></trkpt><trkpt lat="44.0362317" lon="8.2076207"><ele>10.0</ele><time>2026-05-02T07:02:55.199Z</time></trkpt><trkpt lat="44.0363749" lon="8.2077"><ele>8.0</ele><time>2026-05-02T07:02:56.197Z</time></trkpt><trkpt lat="44.0365226" lon="8.2077646"><ele>11.25</ele><time>2026-05-02T07:02:57.189Z</time></trkpt><trkpt lat="44.0366663" lon="8.2078027"><ele>14.5</ele><time>2026-05-02T07:02:58.185Z</time></trkpt><trkpt lat="44.0368106" lon="8.2077941"><ele>17.75</ele><time>2026-05-02T07:02:59.192Z</time></trkpt><trkpt lat="44.0369655" lon="8.2077766"><ele>21.0</ele><time>2026-05-02T07:03:00.178Z</time></trkpt><trkpt lat="44.0371377" lon="8.2077818"><ele>21.0</ele><time>2026-05-02T07:03:01.185Z</time></trkpt><trkpt lat="44.0373088" lon="8.2077906"><ele>21.0</ele><time>2026-05-02T07:03:02.187Z</time></trkpt><trkpt lat="44.0374707" lon="8.2078003"><ele>21.0</ele><time>2026-05-02T07:03:03.182Z</time></trkpt><trkpt lat="44.0376422" lon="8.2078077"><ele>21.333333333333332</ele><time>2026-05-02T07:03:04.186Z</time></trkpt><trkpt lat="44.0378124" lon="8.207822"><ele>21.666666666666664</ele><time>2026-05-02T07:03:05.185Z</time></trkpt><trkpt lat="44.0379774" lon="8.2078488"><ele>22.0</ele><time>2026-05-02T07:03:06.182Z</time></trkpt><trkpt lat="44.0381502" lon="8.2078686"><ele>20.666666666666664</ele><time>2026-05-02T07:03:07.186Z</time></trkpt><trkpt lat="44.0383194" lon="8.2078941"><ele>19.333333333333332</ele><time>2026-05-02T07:03:08.175Z</time></trkpt><trkpt lat="44.0384877" lon="8.2079171"><ele>18.0</ele><time>2026-05-02T07:03:09.179Z</time></trkpt><trkpt lat="44.0386574" lon="8.2079313"><ele>18.0</ele><time>2026-05-02T07:03:10.183Z</time></trkpt><trkpt lat="44.038827" lon="8.2079351"><ele>18.0</ele><time>2026-05-02T07:03:11.177Z</time></trkpt><trkpt lat="44.0390064" lon="8.2079329"><ele>18.0</ele><time>2026-05-02T07:03:12.178Z</time></trkpt><trkpt lat="44.0391864" lon="8.2079153"><ele>20.0</ele><time>2026-05-02T07:03:13.186Z</time></trkpt><trkpt lat="44.0393598" lon="8.2078935"><ele>22.0</ele><time>2026-05-02T07:03:14.187Z</time></trkpt><trkpt lat="44.0395262" lon="8.2078676"><ele>24.0</ele><time>2026-05-02T07:03:15.178Z</time></trkpt><trkpt lat="44.039689" lon="8.2078407"><ele>24.0</ele><time>2026-05-02T07:03:16.175Z</time></trkpt><trkpt lat="44.0398652" lon="8.2078153"><ele>24.0</ele><time>2026-05-02T07:03:17.173Z</time></trkpt><trkpt lat="44.0400433" lon="8.2077857"><ele>24.0</ele><time>2026-05-02T07:03:18.164Z</time></trkpt><trkpt lat="44.0402155" lon="8.2077539"><ele>26.333333333333336</ele><time>2026-05-02T07:03:19.153Z</time></trkpt><trkpt lat="44.0403865" lon="8.2077431"><ele>28.666666666666668</ele><time>2026-05-02T07:03:20.143Z</time></trkpt><trkpt lat="44.040576" lon="8.2077142"><ele>31.0</ele><time>2026-05-02T07:03:21.147Z</time></trkpt><trkpt lat="44.0407522" lon="8.20769"><ele>31.5</ele><time>2026-05-02T07:03:22.125Z</time></trkpt><trkpt lat="44.0409285" lon="8.2076657"><ele>32.0</ele><time>2026-05-02T07:03:23.099Z</time></trkpt><trkpt lat="44.0447938" lon="8.2071781"><ele>23.0</ele><time>2026-05-02T07:03:44.181Z</time></trkpt><trkpt lat="44.044983" lon="8.207145"><ele>14.0</ele><time>2026-05-02T07:03:45.185Z</time></trkpt><trkpt lat="44.0451872" lon="8.207115"><ele>5.0</ele><time>2026-05-02T07:03:46.193Z</time></trkpt><trkpt lat="44.0453797" lon="8.207096"><ele>5.0</ele><time>2026-05-02T07:03:47.198Z</time></trkpt><trkpt lat="44.0455635" lon="8.207067"><ele>5.0</ele><time>2026-05-02T07:03:48.194Z</time></trkpt><trkpt lat="44.0457491" lon="8.2070493"><ele>5.0</ele><time>2026-05-02T07:03:49.187Z</time></trkpt><trkpt lat="44.0459385" lon="8.2070311"><ele>4.666666666666667</ele><time>2026-05-02T07:03:50.201Z</time></trkpt><trkpt lat="44.04613" lon="8.2069992"><ele>4.333333333333333</ele><time>2026-05-02T07:03:51.204Z</time></trkpt><trkpt lat="44.0463209" lon="8.2069733"><ele>4.0</ele><time>2026-05-02T07:03:52.205Z</time></trkpt><trkpt lat="44.046515" lon="8.2069434"><ele>4.333333333333333</ele><time>2026-05-02T07:03:53.203Z</time></trkpt><trkpt lat="44.0467098" lon="8.2069088"><ele>4.666666666666667</ele><time>2026-05-02T07:03:54.209Z</time></trkpt><trkpt lat="44.0469068" lon="8.2068866"><ele>5.0</ele><time>2026-05-02T07:03:55.202Z</time></trkpt><trkpt lat="44.0471075" lon="8.2068638"><ele>5.0</ele><time>2026-05-02T07:03:56.2Z</time></trkpt><trkpt lat="44.0473027" lon="8.2068377"><ele>5.0</ele><time>2026-05-02T07:03:57.195Z</time></trkpt><trkpt lat="44.0475012" lon="8.2068109"><ele>5.0</ele><time>2026-05-02T07:03:58.206Z</time></trkpt><trkpt lat="44.047703" lon="8.2067781"><ele>4.666666666666667</ele><time>2026-05-02T07:03:59.211Z</time></trkpt><trkpt lat="44.0479093" lon="8.2067548"><ele>4.333333333333333</ele><time>2026-05-02T07:04:00.211Z</time></trkpt><trkpt lat="44.0481108" lon="8.2067376"><ele>4.0</ele><time>2026-05-02T07:04:01.211Z</time></trkpt><trkpt lat="44.048316" lon="8.2067199"><ele>4.0</ele><time>2026-05-02T07:04:02.206Z</time></trkpt><trkpt lat="44.0485207" lon="8.2067032"><ele>4.0</ele><time>2026-05-02T07:04:03.206Z</time></trkpt><trkpt lat="44.0487287" lon="8.2067012"><ele>4.0</ele><time>2026-05-02T07:04:04.199Z</time></trkpt><trkpt lat="44.0489273" lon="8.2067078"><ele>4.0</ele><time>2026-05-02T07:04:05.193Z</time></trkpt><trkpt lat="44.0491219" lon="8.2067269"><ele>4.0</ele><time>2026-05-02T07:04:06.208Z</time></trkpt><trkpt lat="44.049319" lon="8.2067629"><ele>4.0</ele><time>2026-05-02T07:04:07.202Z</time></trkpt><trkpt lat="44.0495216" lon="8.2068179"><ele>4.333333333333333</ele><time>2026-05-02T07:04:08.192Z</time></trkpt><trkpt lat="44.0497206" lon="8.2068822"><ele>4.666666666666667</ele><time>2026-05-02T07:04:09.22Z</time></trkpt><trkpt lat="44.0499047" lon="8.2069522"><ele>5.0</ele><time>2026-05-02T07:04:10.201Z</time></trkpt><trkpt lat="44.0500919" lon="8.2070273"><ele>5.0</ele><time>2026-05-02T07:04:11.202Z</time></trkpt><trkpt lat="44.0502806" lon="8.2071037"><ele>5.0</ele><time>2026-05-02T07:04:12.207Z</time></trkpt><trkpt lat="44.0504725" lon="8.2071843"><ele>5.0</ele><time>2026-05-02T07:04:13.206Z</time></trkpt><trkpt lat="44.0506704" lon="8.2072646"><ele>4.0</ele><time>2026-05-02T07:04:14.211Z</time></trkpt><trkpt lat="44.0508664" lon="8.2073432"><ele>3.0</ele><time>2026-05-02T07:04:15.205Z</time></trkpt><trkpt lat="44.0510473" lon="8.2074197"><ele>2.0</ele><time>2026-05-02T07:04:16.205Z</time></trkpt><trkpt lat="44.0512338" lon="8.2074856"><ele>2.0</ele><time>2026-05-02T07:04:17.203Z</time></trkpt><trkpt lat="44.0514104" lon="8.2075557"><ele>2.0</ele><time>2026-05-02T07:04:18.204Z</time></trkpt><trkpt lat="44.0515888" lon="8.2076256"><ele>2.0</ele><time>2026-05-02T07:04:19.206Z</time></trkpt><trkpt lat="44.0517687" lon="8.2076887"><ele>3.0</ele><time>2026-05-02T07:04:20.214Z</time></trkpt><trkpt lat="44.0519489" lon="8.2077547"><ele>4.0</ele><time>2026-05-02T07:04:21.216Z</time></trkpt><trkpt lat="44.0521305" lon="8.2078297"><ele>5.0</ele><time>2026-05-02T07:04:22.214Z</time></trkpt><trkpt lat="44.0523101" lon="8.2079075"><ele>5.666666666666667</ele><time>2026-05-02T07:04:23.214Z</time></trkpt><trkpt lat="44.052486" lon="8.207995"><ele>6.333333333333334</ele><time>2026-05-02T07:04:24.21Z</time></trkpt><trkpt lat="44.0526611" lon="8.2080778"><ele>7.0</ele><time>2026-05-02T07:04:25.211Z</time></trkpt><trkpt lat="44.0528317" lon="8.2081559"><ele>6.666666666666667</ele><time>2026-05-02T07:04:26.208Z</time></trkpt><trkpt lat="44.0529887" lon="8.2082479"><ele>6.333333333333334</ele><time>2026-05-02T07:04:27.216Z</time></trkpt><trkpt lat="44.0531407" lon="8.2083296"><ele>6.0</ele><time>2026-05-02T07:04:28.213Z</time></trkpt><trkpt lat="44.0532866" lon="8.2084173"><ele>6.0</ele><time>2026-05-02T07:04:29.215Z</time></trkpt><trkpt lat="44.0534369" lon="8.2085144"><ele>6.0</ele><time>2026-05-02T07:04:30.204Z</time></trkpt><trkpt lat="44.053608" lon="8.2086064"><ele>6.0</ele><time>2026-05-02T07:04:31.199Z</time></trkpt><trkpt lat="44.0537774" lon="8.2087061"><ele>6.0</ele><time>2026-05-02T07:04:32.201Z</time></trkpt><trkpt lat="44.0539371" lon="8.2088118"><ele>6.0</ele><time>2026-05-02T07:04:33.188Z</time></trkpt><trkpt lat="44.0541053" lon="8.2089078"><ele>6.0</ele><time>2026-05-02T07:04:34.197Z</time></trkpt><trkpt lat="44.054267" lon="8.2090046"><ele>6.0</ele><time>2026-05-02T07:04:35.193Z</time></trkpt><trkpt lat="44.054423" lon="8.2090825"><ele>6.0</ele><time>2026-05-02T07:04:36.189Z</time></trkpt><trkpt lat="44.0545694" lon="8.2091542"><ele>6.0</ele><time>2026-05-02T07:04:37.193Z</time></trkpt><trkpt lat="44.0547039" lon="8.2092193"><ele>6.0</ele><time>2026-05-02T07:04:38.19Z</time></trkpt><trkpt lat="44.054845" lon="8.2093008"><ele>6.0</ele><time>2026-05-02T07:04:39.206Z</time></trkpt><trkpt lat="44.0549803" lon="8.2093751"><ele>6.0</ele><time>2026-05-02T07:04:40.203Z</time></trkpt><trkpt lat="44.0551109" lon="8.2094611"><ele>6.0</ele><time>2026-05-02T07:04:41.207Z</time></trkpt><trkpt lat="44.0552475" lon="8.2095321"><ele>5.333333333333333</ele><time>2026-05-02T07:04:42.205Z</time></trkpt><trkpt lat="44.0553762" lon="8.2096206"><ele>4.666666666666666</ele><time>2026-05-02T07:04:43.195Z</time></trkpt><trkpt lat="44.0555164" lon="8.2097045"><ele>4.0</ele><time>2026-05-02T07:04:44.196Z</time></trkpt><trkpt lat="44.0556637" lon="8.2097786"><ele>4.0</ele><time>2026-05-02T07:04:45.194Z</time></trkpt><trkpt lat="44.0558094" lon="8.2098583"><ele>4.0</ele><time>2026-05-02T07:04:46.193Z</time></trkpt><trkpt lat="44.0559603" lon="8.209935"><ele>4.0</ele><time>2026-05-02T07:04:47.197Z</time></trkpt><trkpt lat="44.0561084" lon="8.2100154"><ele>4.0</ele><time>2026-05-02T07:04:48.198Z</time></trkpt><trkpt lat="44.0562448" lon="8.2100876"><ele>4.0</ele><time>2026-05-02T07:04:49.2Z</time></trkpt><trkpt lat="44.0563764" lon="8.2101549"><ele>4.0</ele><time>2026-05-02T07:04:50.197Z</time></trkpt><trkpt lat="44.0565149" lon="8.2102237"><ele>4.0</ele><time>2026-05-02T07:04:51.199Z</time></trkpt><trkpt lat="44.0566469" lon="8.2103"><ele>4.0</ele><time>2026-05-02T07:04:52.199Z</time></trkpt><trkpt lat="44.0567638" lon="8.2103763"><ele>4.0</ele><time>2026-05-02T07:04:53.203Z</time></trkpt><trkpt lat="44.056877" lon="8.2104447"><ele>4.0</ele><time>2026-05-02T07:04:54.196Z</time></trkpt><trkpt lat="44.0569834" lon="8.2104975"><ele>4.0</ele><time>2026-05-02T07:04:55.2Z</time></trkpt><trkpt lat="44.057079" lon="8.2105497"><ele>3.9999999999999996</ele><time>2026-05-02T07:04:56.2Z</time></trkpt><trkpt lat="44.0571713" lon="8.2106094"><ele>4.0</ele><time>2026-05-02T07:04:57.199Z</time></trkpt><trkpt lat="44.0572488" lon="8.2106627"><ele>4.0</ele><time>2026-05-02T07:04:58.196Z</time></trkpt><trkpt lat="44.0573181" lon="8.2107128"><ele>4.0</ele><time>2026-05-02T07:04:59.198Z</time></trkpt><trkpt lat="44.0573763" lon="8.2107571"><ele>3.9999999999999996</ele><time>2026-05-02T07:05:00.197Z</time></trkpt><trkpt lat="44.0574579" lon="8.2108052"><ele>4.0</ele><time>2026-05-02T07:05:02.186Z</time></trkpt><trkpt lat="44.0575356" lon="8.210827"><ele>4.0</ele><time>2026-05-02T07:06:09.196Z</time></trkpt><trkpt lat="44.0576048" lon="8.2108595"><ele>4.0</ele><time>2026-05-02T07:06:10.193Z</time></trkpt><trkpt lat="44.0576891" lon="8.2108937"><ele>4.0</ele><time>2026-05-02T07:06:11.193Z</time></trkpt><trkpt lat="44.0577828" lon="8.21093"><ele>4.0</ele><time>2026-05-02T07:06:12.19Z</time></trkpt><trkpt lat="44.0578904" lon="8.2109661"><ele>4.0</ele><time>2026-05-02T07:06:13.193Z</time></trkpt><trkpt lat="44.0580074" lon="8.2110048"><ele>4.0</ele><time>2026-05-02T07:06:14.194Z</time></trkpt><trkpt lat="44.0581332" lon="8.2110398"><ele>4.0</ele><time>2026-05-02T07:06:15.201Z</time></trkpt><trkpt lat="44.0582619" lon="8.2110762"><ele>4.0</ele><time>2026-05-02T07:06:16.206Z</time></trkpt><trkpt lat="44.0583989" lon="8.211112"><ele>4.0</ele><time>2026-05-02T07:06:17.212Z</time></trkpt><trkpt lat="44.058544" lon="8.2111472"><ele>3.6666666666666665</ele><time>2026-05-02T07:06:18.203Z</time></trkpt><trkpt lat="44.0586921" lon="8.2111826"><ele>3.333333333333333</ele><time>2026-05-02T07:06:19.207Z</time></trkpt><trkpt lat="44.058854" lon="8.2112122"><ele>3.0</ele><time>2026-05-02T07:06:20.203Z</time></trkpt><trkpt lat="44.0590081" lon="8.2112514"><ele>3.333333333333333</ele><time>2026-05-02T07:06:21.203Z</time></trkpt><trkpt lat="44.0591668" lon="8.2112919"><ele>3.6666666666666665</ele><time>2026-05-02T07:06:22.205Z</time></trkpt><trkpt lat="44.0593255" lon="8.2113372"><ele>4.0</ele><time>2026-05-02T07:06:23.211Z</time></trkpt><trkpt lat="44.0594904" lon="8.2113796"><ele>4.0</ele><time>2026-05-02T07:06:24.206Z</time></trkpt><trkpt lat="44.0596492" lon="8.2114128"><ele>4.0</ele><time>2026-05-02T07:06:25.201Z</time></trkpt><trkpt lat="44.0598094" lon="8.2114499"><ele>4.0</ele><time>2026-05-02T07:06:26.207Z</time></trkpt><trkpt lat="44.0599685" lon="8.2114833"><ele>3.6666666666666665</ele><time>2026-05-02T07:06:27.202Z</time></trkpt><trkpt lat="44.060131" lon="8.2115267"><ele>3.333333333333333</ele><time>2026-05-02T07:06:28.208Z</time></trkpt><trkpt lat="44.0602967" lon="8.2115755"><ele>3.0</ele><time>2026-05-02T07:06:29.207Z</time></trkpt><trkpt lat="44.0604611" lon="8.2116303"><ele>3.0</ele><time>2026-05-02T07:06:30.209Z</time></trkpt><trkpt lat="44.0606288" lon="8.2116765"><ele>3.0</ele><time>2026-05-02T07:06:31.21Z</time></trkpt><trkpt lat="44.0607902" lon="8.2117316"><ele>3.0</ele><time>2026-05-02T07:06:32.206Z</time></trkpt><trkpt lat="44.0609512" lon="8.2117853"><ele>3.333333333333333</ele><time>2026-05-02T07:06:33.203Z</time></trkpt><trkpt lat="44.0611185" lon="8.2118439"><ele>3.6666666666666665</ele><time>2026-05-02T07:06:34.206Z</time></trkpt><trkpt lat="44.0612771" lon="8.2119059"><ele>4.0</ele><time>2026-05-02T07:06:35.202Z</time></trkpt><trkpt lat="44.0614398" lon="8.2119762"><ele>4.0</ele><time>2026-05-02T07:06:36.209Z</time></trkpt><trkpt lat="44.0616074" lon="8.2120537"><ele>4.0</ele><time>2026-05-02T07:06:37.206Z</time></trkpt><trkpt lat="44.0617785" lon="8.2121328"><ele>4.0</ele><time>2026-05-02T07:06:38.207Z</time></trkpt><trkpt lat="44.0619477" lon="8.2122106"><ele>3.6666666666666665</ele><time>2026-05-02T07:06:39.207Z</time></trkpt><trkpt lat="44.0621205" lon="8.2122892"><ele>3.333333333333333</ele><time>2026-05-02T07:06:40.208Z</time></trkpt><trkpt lat="44.0622893" lon="8.2123714"><ele>3.0</ele><time>2026-05-02T07:06:41.209Z</time></trkpt><trkpt lat="44.0624557" lon="8.2124485"><ele>3.0</ele><time>2026-05-02T07:06:42.207Z</time></trkpt><trkpt lat="44.0626209" lon="8.2125232"><ele>3.0</ele><time>2026-05-02T07:06:43.207Z</time></trkpt><trkpt lat="44.0627916" lon="8.2125999"><ele>3.0</ele><time>2026-05-02T07:06:44.206Z</time></trkpt><trkpt lat="44.0629658" lon="8.2126781"><ele>3.0</ele><time>2026-05-02T07:06:45.2Z</time></trkpt><trkpt lat="44.0631284" lon="8.2127469"><ele>3.0</ele><time>2026-05-02T07:06:46.203Z</time></trkpt><trkpt lat="44.0632895" lon="8.2128131"><ele>3.0</ele><time>2026-05-02T07:06:47.207Z</time></trkpt><trkpt lat="44.0634543" lon="8.212892"><ele>3.333333333333333</ele><time>2026-05-02T07:06:48.2Z</time></trkpt><trkpt lat="44.0636257" lon="8.2129691"><ele>3.6666666666666665</ele><time>2026-05-02T07:06:49.198Z</time></trkpt><trkpt lat="44.0637999" lon="8.2130329"><ele>4.0</ele><time>2026-05-02T07:06:50.192Z</time></trkpt><trkpt lat="44.0639672" lon="8.2130966"><ele>3.6666666666666665</ele><time>2026-05-02T07:06:51.197Z</time></trkpt><trkpt lat="44.0641315" lon="8.2131704"><ele>3.333333333333333</ele><time>2026-05-02T07:06:52.199Z</time></trkpt><trkpt lat="44.0642899" lon="8.2132315"><ele>3.0</ele><time>2026-05-02T07:06:53.204Z</time></trkpt><trkpt lat="44.0644439" lon="8.213304"><ele>3.0</ele><time>2026-05-02T07:06:54.201Z</time></trkpt><trkpt lat="44.0646049" lon="8.2133712"><ele>3.0</ele><time>2026-05-02T07:06:55.2Z</time></trkpt><trkpt lat="44.0647631" lon="8.2134391"><ele>3.0</ele><time>2026-05-02T07:06:56.202Z</time></trkpt><trkpt lat="44.0649145" lon="8.2135119"><ele>3.0</ele><time>2026-05-02T07:06:57.202Z</time></trkpt><trkpt lat="44.0650688" lon="8.2135824"><ele>3.0</ele><time>2026-05-02T07:06:58.202Z</time></trkpt><trkpt lat="44.0652309" lon="8.2136406"><ele>3.0</ele><time>2026-05-02T07:06:59.194Z</time></trkpt><trkpt lat="44.0653985" lon="8.2136955"><ele>3.0</ele><time>2026-05-02T07:07:00.196Z</time></trkpt><trkpt lat="44.0655574" lon="8.2137632"><ele>3.0</ele><time>2026-05-02T07:07:01.199Z</time></trkpt><trkpt lat="44.0657177" lon="8.2138409"><ele>3.0</ele><time>2026-05-02T07:07:02.196Z</time></trkpt><trkpt lat="44.0658713" lon="8.2139348"><ele>3.0</ele><time>2026-05-02T07:07:03.186Z</time></trkpt><trkpt lat="44.0660206" lon="8.2140217"><ele>3.0</ele><time>2026-05-02T07:07:04.2Z</time></trkpt><trkpt lat="44.0661726" lon="8.2141046"><ele>3.0</ele><time>2026-05-02T07:07:05.191Z</time></trkpt><trkpt lat="44.0663211" lon="8.2141774"><ele>3.0</ele><time>2026-05-02T07:07:06.197Z</time></trkpt><trkpt lat="44.0664538" lon="8.2142473"><ele>3.0</ele><time>2026-05-02T07:07:07.195Z</time></trkpt><trkpt lat="44.0666032" lon="8.2143216"><ele>3.0</ele><time>2026-05-02T07:07:08.196Z</time></trkpt><trkpt lat="44.0667589" lon="8.2143914"><ele>2.3333333333333335</ele><time>2026-05-02T07:07:09.192Z</time></trkpt><trkpt lat="44.0669232" lon="8.2144681"><ele>1.6666666666666665</ele><time>2026-05-02T07:07:10.192Z</time></trkpt><trkpt lat="44.0670875" lon="8.2145325"><ele>1.0</ele><time>2026-05-02T07:07:11.194Z</time></trkpt><trkpt lat="44.0672682" lon="8.2146102"><ele>1.0</ele><time>2026-05-02T07:07:12.192Z</time></trkpt><trkpt lat="44.0674534" lon="8.2146884"><ele>1.0</ele><time>2026-05-02T07:07:13.195Z</time></trkpt><trkpt lat="44.067643" lon="8.2147733"><ele>1.0</ele><time>2026-05-02T07:07:14.195Z</time></trkpt><trkpt lat="44.0678242" lon="8.2148568"><ele>1.3333333333333333</ele><time>2026-05-02T07:07:15.197Z</time></trkpt><trkpt lat="44.0679991" lon="8.2149526"><ele>1.6666666666666665</ele><time>2026-05-02T07:07:16.201Z</time></trkpt><trkpt lat="44.0681791" lon="8.2150536"><ele>2.0</ele><time>2026-05-02T07:07:17.207Z</time></trkpt><trkpt lat="44.0683647" lon="8.2151823"><ele>2.333333333333333</ele><time>2026-05-02T07:07:18.203Z</time></trkpt><trkpt lat="44.0685375" lon="8.2153058"><ele>2.6666666666666665</ele><time>2026-05-02T07:07:19.201Z</time></trkpt><trkpt lat="44.0687162" lon="8.2154205"><ele>3.0</ele><time>2026-05-02T07:07:20.2Z</time></trkpt><trkpt lat="44.0688956" lon="8.2155314"><ele>3.0</ele><time>2026-05-02T07:07:21.199Z</time></trkpt><trkpt lat="44.0690821" lon="8.2156362"><ele>3.0</ele><time>2026-05-02T07:07:22.201Z</time></trkpt><trkpt lat="44.0692702" lon="8.2157313"><ele>3.0</ele><time>2026-05-02T07:07:23.207Z</time></trkpt><trkpt lat="44.0694582" lon="8.2158382"><ele>3.0</ele><time>2026-05-02T07:07:24.202Z</time></trkpt><trkpt lat="44.0696457" lon="8.2159338"><ele>3.0</ele><time>2026-05-02T07:07:25.195Z</time></trkpt><trkpt lat="44.0698297" lon="8.2160175"><ele>3.0</ele><time>2026-05-02T07:07:26.195Z</time></trkpt><trkpt lat="44.0700134" lon="8.2161012"><ele>3.0</ele><time>2026-05-02T07:07:27.199Z</time></trkpt><trkpt lat="44.0702006" lon="8.2161886"><ele>3.0</ele><time>2026-05-02T07:07:28.197Z</time></trkpt><trkpt lat="44.0703814" lon="8.2162709"><ele>3.0</ele><time>2026-05-02T07:07:29.194Z</time></trkpt><trkpt lat="44.0705623" lon="8.2163507"><ele>3.0</ele><time>2026-05-02T07:07:30.192Z</time></trkpt><trkpt lat="44.07074" lon="8.216436"><ele>3.0</ele><time>2026-05-02T07:07:31.189Z</time></trkpt><trkpt lat="44.0709227" lon="8.2165208"><ele>3.0</ele><time>2026-05-02T07:07:32.192Z</time></trkpt><trkpt lat="44.0711024" lon="8.2166026"><ele>2.6666666666666665</ele><time>2026-05-02T07:07:33.196Z</time></trkpt><trkpt lat="44.0712799" lon="8.2166802"><ele>2.333333333333333</ele><time>2026-05-02T07:07:34.195Z</time></trkpt><trkpt lat="44.0714585" lon="8.2167595"><ele>2.0</ele><time>2026-05-02T07:07:35.197Z</time></trkpt><trkpt lat="44.071645" lon="8.2168381"><ele>2.0</ele><time>2026-05-02T07:07:36.193Z</time></trkpt><trkpt lat="44.0718246" lon="8.2169158"><ele>2.0</ele><time>2026-05-02T07:07:37.195Z</time></trkpt><trkpt lat="44.0720094" lon="8.2170063"><ele>2.0</ele><time>2026-05-02T07:07:38.194Z</time></trkpt><trkpt lat="44.0721911" lon="8.217095"><ele>2.0</ele><time>2026-05-02T07:07:39.196Z</time></trkpt><trkpt lat="44.0723754" lon="8.2171808"><ele>2.0</ele><time>2026-05-02T07:07:40.201Z</time></trkpt><trkpt lat="44.0725557" lon="8.2172517"><ele>2.0</ele><time>2026-05-02T07:07:41.202Z</time></trkpt><trkpt lat="44.0727337" lon="8.2173192"><ele>2.333333333333333</ele><time>2026-05-02T07:07:42.2Z</time></trkpt><trkpt lat="44.0729215" lon="8.2173921"><ele>2.6666666666666665</ele><time>2026-05-02T07:07:43.194Z</time></trkpt><trkpt lat="44.0731103" lon="8.2174777"><ele>3.0</ele><time>2026-05-02T07:07:44.197Z</time></trkpt><trkpt lat="44.0733013" lon="8.2175555"><ele>3.666666666666667</ele><time>2026-05-02T07:07:45.194Z</time></trkpt><trkpt lat="44.0734874" lon="8.2176145"><ele>4.333333333333334</ele><time>2026-05-02T07:07:46.195Z</time></trkpt><trkpt lat="44.0736748" lon="8.2176724"><ele>5.0</ele><time>2026-05-02T07:07:47.201Z</time></trkpt><trkpt lat="44.0738613" lon="8.2177365"><ele>5.0</ele><time>2026-05-02T07:07:48.199Z</time></trkpt><trkpt lat="44.0740416" lon="8.2178008"><ele>5.0</ele><time>2026-05-02T07:07:49.198Z</time></trkpt><trkpt lat="44.0742234" lon="8.2178762"><ele>5.0</ele><time>2026-05-02T07:07:50.196Z</time></trkpt><trkpt lat="44.0743988" lon="8.2179495"><ele>4.333333333333334</ele><time>2026-05-02T07:07:51.198Z</time></trkpt><trkpt lat="44.0745824" lon="8.2180253"><ele>3.666666666666667</ele><time>2026-05-02T07:07:52.194Z</time></trkpt><trkpt lat="44.074764" lon="8.2180958"><ele>3.0</ele><time>2026-05-02T07:07:53.2Z</time></trkpt><trkpt lat="44.0749407" lon="8.2181632"><ele>3.0</ele><time>2026-05-02T07:07:54.196Z</time></trkpt><trkpt lat="44.0751144" lon="8.218229"><ele>3.0</ele><time>2026-05-02T07:07:55.198Z</time></trkpt><trkpt lat="44.0752911" lon="8.2182854"><ele>3.0</ele><time>2026-05-02T07:07:56.202Z</time></trkpt><trkpt lat="44.0754686" lon="8.2183524"><ele>3.0</ele><time>2026-05-02T07:07:57.201Z</time></trkpt><trkpt lat="44.0756519" lon="8.2184261"><ele>3.0</ele><time>2026-05-02T07:07:58.207Z</time></trkpt><trkpt lat="44.0758317" lon="8.2185007"><ele>3.0</ele><time>2026-05-02T07:07:59.206Z</time></trkpt><trkpt lat="44.0760075" lon="8.2185817"><ele>3.333333333333333</ele><time>2026-05-02T07:08:00.203Z</time></trkpt><trkpt lat="44.0761831" lon="8.2186535"><ele>3.6666666666666665</ele><time>2026-05-02T07:08:01.196Z</time></trkpt><trkpt lat="44.0763586" lon="8.2187179"><ele>4.0</ele><time>2026-05-02T07:08:02.196Z</time></trkpt><trkpt lat="44.0765321" lon="8.2187791"><ele>4.0</ele><time>2026-05-02T07:08:03.197Z</time></trkpt><trkpt lat="44.0767088" lon="8.2188388"><ele>4.0</ele><time>2026-05-02T07:08:04.198Z</time></trkpt><trkpt lat="44.0768753" lon="8.2189049"><ele>4.0</ele><time>2026-05-02T07:08:05.196Z</time></trkpt><trkpt lat="44.077045" lon="8.2189818"><ele>4.0</ele><time>2026-05-02T07:08:06.188Z</time></trkpt><trkpt lat="44.0772076" lon="8.2190765"><ele>4.0</ele><time>2026-05-02T07:08:07.194Z</time></trkpt><trkpt lat="44.0773557" lon="8.2191846"><ele>4.0</ele><time>2026-05-02T07:08:08.197Z</time></trkpt><trkpt lat="44.0774923" lon="8.2192835"><ele>3.333333333333333</ele><time>2026-05-02T07:08:09.192Z</time></trkpt><trkpt lat="44.0776414" lon="8.2193867"><ele>2.6666666666666665</ele><time>2026-05-02T07:08:10.195Z</time></trkpt><trkpt lat="44.0777904" lon="8.2194824"><ele>2.0</ele><time>2026-05-02T07:08:11.193Z</time></trkpt><trkpt lat="44.0779357" lon="8.2196003"><ele>2.0</ele><time>2026-05-02T07:08:12.194Z</time></trkpt><trkpt lat="44.0780825" lon="8.2197164"><ele>2.0</ele><time>2026-05-02T07:08:13.194Z</time></trkpt><trkpt lat="44.0782314" lon="8.2198379"><ele>2.0</ele><time>2026-05-02T07:08:14.2Z</time></trkpt><trkpt lat="44.0783826" lon="8.2199512"><ele>2.333333333333333</ele><time>2026-05-02T07:08:15.193Z</time></trkpt><trkpt lat="44.0785362" lon="8.2200741"><ele>2.6666666666666665</ele><time>2026-05-02T07:08:16.195Z</time></trkpt><trkpt lat="44.0786785" lon="8.2201893"><ele>3.0</ele><time>2026-05-02T07:08:17.198Z</time></trkpt><trkpt lat="44.0788189" lon="8.2203085"><ele>3.0</ele><time>2026-05-02T07:08:18.195Z</time></trkpt><trkpt lat="44.0789658" lon="8.2204287"><ele>3.0</ele><time>2026-05-02T07:08:19.194Z</time></trkpt><trkpt lat="44.0791234" lon="8.2205312"><ele>3.0</ele><time>2026-05-02T07:08:20.198Z</time></trkpt><trkpt lat="44.0792746" lon="8.220617"><ele>3.0</ele><time>2026-05-02T07:08:21.201Z</time></trkpt><trkpt lat="44.0794282" lon="8.2207076"><ele>3.0</ele><time>2026-05-02T07:08:22.2Z</time></trkpt><trkpt lat="44.0795831" lon="8.2208107"><ele>3.0</ele><time>2026-05-02T07:08:23.204Z</time></trkpt><trkpt lat="44.0797354" lon="8.2209178"><ele>3.0</ele><time>2026-05-02T07:08:24.201Z</time></trkpt><trkpt lat="44.0798873" lon="8.2210276"><ele>3.0</ele><time>2026-05-02T07:08:25.198Z</time></trkpt><trkpt lat="44.0800374" lon="8.2211435"><ele>3.0</ele><time>2026-05-02T07:08:26.2Z</time></trkpt><trkpt lat="44.0801923" lon="8.2212586"><ele>3.0</ele><time>2026-05-02T07:08:27.2Z</time></trkpt><trkpt lat="44.0803491" lon="8.2213612"><ele>3.0</ele><time>2026-05-02T07:08:28.203Z</time></trkpt><trkpt lat="44.0804987" lon="8.2214593"><ele>3.0</ele><time>2026-05-02T07:08:29.201Z</time></trkpt><trkpt lat="44.0806475" lon="8.2215488"><ele>3.0</ele><time>2026-05-02T07:08:30.201Z</time></trkpt><trkpt lat="44.0808042" lon="8.2216515"><ele>3.0</ele><time>2026-05-02T07:08:31.2Z</time></trkpt><trkpt lat="44.0809465" lon="8.2217524"><ele>3.0</ele><time>2026-05-02T07:08:32.201Z</time></trkpt><trkpt lat="44.0810786" lon="8.2218414"><ele>3.0</ele><time>2026-05-02T07:08:33.2Z</time></trkpt><trkpt lat="44.081209" lon="8.2219295"><ele>3.0</ele><time>2026-05-02T07:08:34.202Z</time></trkpt><trkpt lat="44.0813279" lon="8.2220177"><ele>3.0</ele><time>2026-05-02T07:08:35.201Z</time></trkpt><trkpt lat="44.0814472" lon="8.2221053"><ele>3.0</ele><time>2026-05-02T07:08:36.199Z</time></trkpt><trkpt lat="44.0815713" lon="8.222186"><ele>3.4</ele><time>2026-05-02T07:08:37.2Z</time></trkpt><trkpt lat="44.0816898" lon="8.22226"><ele>3.8</ele><time>2026-05-02T07:08:38.202Z</time></trkpt><trkpt lat="44.0818024" lon="8.2223258"><ele>4.2</ele><time>2026-05-02T07:08:39.201Z</time></trkpt><trkpt lat="44.0818977" lon="8.222393"><ele>4.6</ele><time>2026-05-02T07:08:40.196Z</time></trkpt><trkpt lat="44.0819669" lon="8.2224693"><ele>5.0</ele><time>2026-05-02T07:08:41.194Z</time></trkpt><trkpt lat="44.0820217" lon="8.2225414"><ele>5.0</ele><time>2026-05-02T07:08:42.199Z</time></trkpt><trkpt lat="44.0820725" lon="8.2226059"><ele>5.0</ele><time>2026-05-02T07:08:43.199Z</time></trkpt><trkpt lat="44.082127" lon="8.2226534"><ele>5.0</ele><time>2026-05-02T07:08:44.197Z</time></trkpt><trkpt lat="44.0822375" lon="8.2226883"><ele>5.0</ele><time>2026-05-02T07:08:46.193Z</time></trkpt><trkpt lat="44.0823099" lon="8.2227069"><ele>5.0</ele><time>2026-05-02T07:08:47.191Z</time></trkpt><trkpt lat="44.0823919" lon="8.2227439"><ele>5.0</ele><time>2026-05-02T07:08:48.195Z</time></trkpt><trkpt lat="44.0824815" lon="8.222811"><ele>5.25</ele><time>2026-05-02T07:08:49.195Z</time></trkpt><trkpt lat="44.0825835" lon="8.2228997"><ele>5.5</ele><time>2026-05-02T07:08:50.195Z</time></trkpt><trkpt lat="44.0826926" lon="8.2230053"><ele>5.75</ele><time>2026-05-02T07:08:51.188Z</time></trkpt><trkpt lat="44.0827967" lon="8.2231148"><ele>6.0</ele><time>2026-05-02T07:08:52.193Z</time></trkpt><trkpt lat="44.0829081" lon="8.2232374"><ele>5.0</ele><time>2026-05-02T07:08:53.197Z</time></trkpt><trkpt lat="44.0830216" lon="8.2233661"><ele>4.0</ele><time>2026-05-02T07:08:54.192Z</time></trkpt><trkpt lat="44.0831409" lon="8.2235157"><ele>3.0</ele><time>2026-05-02T07:08:55.194Z</time></trkpt><trkpt lat="44.0832601" lon="8.2236573"><ele>3.0</ele><time>2026-05-02T07:08:56.192Z</time></trkpt><trkpt lat="44.0833764" lon="8.2237863"><ele>3.0</ele><time>2026-05-02T07:08:57.19Z</time></trkpt><trkpt lat="44.0834836" lon="8.2239037"><ele>3.0</ele><time>2026-05-02T07:08:58.201Z</time></trkpt><trkpt lat="44.0835814" lon="8.2240178"><ele>3.0</ele><time>2026-05-02T07:08:59.196Z</time></trkpt><trkpt lat="44.0836713" lon="8.224132"><ele>3.0</ele><time>2026-05-02T07:09:00.202Z</time></trkpt><trkpt lat="44.0837698" lon="8.2242538"><ele>3.0</ele><time>2026-05-02T07:09:01.206Z</time></trkpt><trkpt lat="44.0838744" lon="8.2243751"><ele>3.0</ele><time>2026-05-02T07:09:02.2Z</time></trkpt><trkpt lat="44.0839782" lon="8.2244951"><ele>3.0</ele><time>2026-05-02T07:09:03.2Z</time></trkpt><trkpt lat="44.0840815" lon="8.2246143"><ele>3.25</ele><time>2026-05-02T07:09:04.2Z</time></trkpt><trkpt lat="44.0841841" lon="8.224733"><ele>3.5</ele><time>2026-05-02T07:09:05.201Z</time></trkpt><trkpt lat="44.0842829" lon="8.2248524"><ele>3.75</ele><time>2026-05-02T07:09:06.199Z</time></trkpt><trkpt lat="44.084383" lon="8.2249671"><ele>4.0</ele><time>2026-05-02T07:09:07.198Z</time></trkpt><trkpt lat="44.0844945" lon="8.2250802"><ele>4.0</ele><time>2026-05-02T07:09:08.187Z</time></trkpt><trkpt lat="44.0846148" lon="8.225175"><ele>4.0</ele><time>2026-05-02T07:09:09.186Z</time></trkpt><trkpt lat="44.084734" lon="8.2252491"><ele>4.0</ele><time>2026-05-02T07:09:10.19Z</time></trkpt><trkpt lat="44.0848547" lon="8.2253126"><ele>4.0</ele><time>2026-05-02T07:09:11.188Z</time></trkpt><trkpt lat="44.0849753" lon="8.2253682"><ele>4.0</ele><time>2026-05-02T07:09:12.189Z</time></trkpt><trkpt lat="44.0850923" lon="8.2254102"><ele>4.0</ele><time>2026-05-02T07:09:13.19Z</time></trkpt><trkpt lat="44.0852158" lon="8.2254634"><ele>4.0</ele><time>2026-05-02T07:09:14.189Z</time></trkpt><trkpt lat="44.0853426" lon="8.2255189"><ele>4.0</ele><time>2026-05-02T07:09:15.195Z</time></trkpt><trkpt lat="44.0854709" lon="8.2255783"><ele>4.0</ele><time>2026-05-02T07:09:16.194Z</time></trkpt><trkpt lat="44.0856031" lon="8.2256386"><ele>4.0</ele><time>2026-05-02T07:09:17.195Z</time></trkpt><trkpt lat="44.0857413" lon="8.2257043"><ele>4.0</ele><time>2026-05-02T07:09:18.193Z</time></trkpt><trkpt lat="44.0858763" lon="8.225768"><ele>4.0</ele><time>2026-05-02T07:09:19.19Z</time></trkpt><trkpt lat="44.0860095" lon="8.2258263"><ele>3.75</ele><time>2026-05-02T07:09:20.191Z</time></trkpt><trkpt lat="44.0861415" lon="8.2258836"><ele>3.5</ele><time>2026-05-02T07:09:21.193Z</time></trkpt><trkpt lat="44.086272" lon="8.2259484"><ele>3.25</ele><time>2026-05-02T07:09:22.193Z</time></trkpt><trkpt lat="44.086398" lon="8.2260068"><ele>3.0</ele><time>2026-05-02T07:09:23.195Z</time></trkpt><trkpt lat="44.0865233" lon="8.2260873"><ele>3.25</ele><time>2026-05-02T07:09:24.194Z</time></trkpt><trkpt lat="44.0866513" lon="8.2261611"><ele>3.5</ele><time>2026-05-02T07:09:25.192Z</time></trkpt><trkpt lat="44.0867771" lon="8.2262364"><ele>3.75</ele><time>2026-05-02T07:09:26.198Z</time></trkpt><trkpt lat="44.0869038" lon="8.2263108"><ele>4.0</ele><time>2026-05-02T07:09:27.197Z</time></trkpt><trkpt lat="44.087035" lon="8.2263814"><ele>4.0</ele><time>2026-05-02T07:09:28.198Z</time></trkpt><trkpt lat="44.0871801" lon="8.2264583"><ele>4.0</ele><time>2026-05-02T07:09:29.198Z</time></trkpt><trkpt lat="44.0873287" lon="8.2265371"><ele>4.0</ele><time>2026-05-02T07:09:30.2Z</time></trkpt><trkpt lat="44.0874768" lon="8.2266206"><ele>4.333333333333333</ele><time>2026-05-02T07:09:31.197Z</time></trkpt><trkpt lat="44.0876302" lon="8.2267097"><ele>4.666666666666667</ele><time>2026-05-02T07:09:32.193Z</time></trkpt><trkpt lat="44.0877831" lon="8.2268022"><ele>5.0</ele><time>2026-05-02T07:09:33.194Z</time></trkpt><trkpt lat="44.087936" lon="8.2269095"><ele>5.0</ele><time>2026-05-02T07:09:34.195Z</time></trkpt><trkpt lat="44.0880846" lon="8.2270171"><ele>5.0</ele><time>2026-05-02T07:09:35.196Z</time></trkpt><trkpt lat="44.088233" lon="8.2271117"><ele>5.0</ele><time>2026-05-02T07:09:36.195Z</time></trkpt><trkpt lat="44.088375" lon="8.2271889"><ele>4.75</ele><time>2026-05-02T07:09:37.198Z</time></trkpt><trkpt lat="44.0885078" lon="8.2272597"><ele>4.5</ele><time>2026-05-02T07:09:38.194Z</time></trkpt><trkpt lat="44.0886391" lon="8.2273434"><ele>4.25</ele><time>2026-05-02T07:09:39.186Z</time></trkpt><trkpt lat="44.0887829" lon="8.2274308"><ele>4.0</ele><time>2026-05-02T07:09:40.19Z</time></trkpt><trkpt lat="44.0889258" lon="8.2275151"><ele>4.75</ele><time>2026-05-02T07:09:41.192Z</time></trkpt><trkpt lat="44.0890477" lon="8.2275873"><ele>5.5</ele><time>2026-05-02T07:09:42.192Z</time></trkpt><trkpt lat="44.08917" lon="8.2276518"><ele>6.25</ele><time>2026-05-02T07:09:43.195Z</time></trkpt><trkpt lat="44.0892886" lon="8.2277176"><ele>7.0</ele><time>2026-05-02T07:09:44.195Z</time></trkpt><trkpt lat="44.0894017" lon="8.2277762"><ele>7.0</ele><time>2026-05-02T07:09:45.193Z</time></trkpt><trkpt lat="44.0895093" lon="8.2278287"><ele>6.999999999999999</ele><time>2026-05-02T07:09:46.187Z</time></trkpt><trkpt lat="44.0896145" lon="8.2278815"><ele>6.999999999999999</ele><time>2026-05-02T07:09:47.19Z</time></trkpt><trkpt lat="44.0897128" lon="8.2279213"><ele>7.0</ele><time>2026-05-02T07:09:48.183Z</time></trkpt><trkpt lat="44.089796" lon="8.2279634"><ele>7.0</ele><time>2026-05-02T07:09:49.184Z</time></trkpt><trkpt lat="44.0898731" lon="8.2280055"><ele>7.0</ele><time>2026-05-02T07:09:50.186Z</time></trkpt><trkpt lat="44.0899496" lon="8.2280572"><ele>6.999999999999999</ele><time>2026-05-02T07:09:51.18Z</time></trkpt><trkpt lat="44.0900321" lon="8.2281171"><ele>6.999999999999999</ele><time>2026-05-02T07:09:52.189Z</time></trkpt><trkpt lat="44.0901272" lon="8.2281948"><ele>7.0</ele><time>2026-05-02T07:09:53.184Z</time></trkpt><trkpt lat="44.0902318" lon="8.2282834"><ele>7.0</ele><time>2026-05-02T07:09:54.183Z</time></trkpt><trkpt lat="44.0903383" lon="8.2283823"><ele>6.75</ele><time>2026-05-02T07:09:55.185Z</time></trkpt><trkpt lat="44.0904421" lon="8.2284828"><ele>6.5</ele><time>2026-05-02T07:09:56.182Z</time></trkpt><trkpt lat="44.0905458" lon="8.2285842"><ele>6.25</ele><time>2026-05-02T07:09:57.19Z</time></trkpt><trkpt lat="44.0906616" lon="8.2286826"><ele>6.0</ele><time>2026-05-02T07:09:58.187Z</time></trkpt><trkpt lat="44.0907793" lon="8.228785"><ele>6.5</ele><time>2026-05-02T07:09:59.185Z</time></trkpt><trkpt lat="44.0909003" lon="8.2288818"><ele>7.0</ele><time>2026-05-02T07:10:00.186Z</time></trkpt><trkpt lat="44.0910212" lon="8.2289813"><ele>7.5</ele><time>2026-05-02T07:10:01.188Z</time></trkpt><trkpt lat="44.0911382" lon="8.2290616"><ele>8.0</ele><time>2026-05-02T07:10:02.19Z</time></trkpt><trkpt lat="44.0912526" lon="8.2291437"><ele>8.0</ele><time>2026-05-02T07:10:03.19Z</time></trkpt><trkpt lat="44.09137" lon="8.2292191"><ele>8.0</ele><time>2026-05-02T07:10:04.189Z</time></trkpt><trkpt lat="44.0914882" lon="8.2292951"><ele>8.0</ele><time>2026-05-02T07:10:05.184Z</time></trkpt><trkpt lat="44.0916179" lon="8.229356"><ele>8.0</ele><time>2026-05-02T07:10:06.189Z</time></trkpt><trkpt lat="44.0917447" lon="8.2294168"><ele>8.25</ele><time>2026-05-02T07:10:07.189Z</time></trkpt><trkpt lat="44.0918721" lon="8.2294818"><ele>8.5</ele><time>2026-05-02T07:10:08.19Z</time></trkpt><trkpt lat="44.0919946" lon="8.2295378"><ele>8.75</ele><time>2026-05-02T07:10:09.193Z</time></trkpt><trkpt lat="44.0921166" lon="8.2295981"><ele>9.0</ele><time>2026-05-02T07:10:10.191Z</time></trkpt><trkpt lat="44.0922339" lon="8.2296546"><ele>9.0</ele><time>2026-05-02T07:10:11.195Z</time></trkpt><trkpt lat="44.0923526" lon="8.2297125"><ele>9.0</ele><time>2026-05-02T07:10:12.198Z</time></trkpt><trkpt lat="44.0924673" lon="8.2297753"><ele>9.0</ele><time>2026-05-02T07:10:13.198Z</time></trkpt><trkpt lat="44.0925811" lon="8.2298408"><ele>9.0</ele><time>2026-05-02T07:10:14.196Z</time></trkpt><trkpt lat="44.0926857" lon="8.2299"><ele>8.666666666666666</ele><time>2026-05-02T07:10:15.194Z</time></trkpt><trkpt lat="44.092776" lon="8.2299479"><ele>8.333333333333334</ele><time>2026-05-02T07:10:16.193Z</time></trkpt><trkpt lat="44.0928476" lon="8.2299881"><ele>8.0</ele><time>2026-05-02T07:10:17.197Z</time></trkpt><trkpt lat="44.0929193" lon="8.2300342"><ele>7.666666666666667</ele><time>2026-05-02T07:10:18.19Z</time></trkpt><trkpt lat="44.0929975" lon="8.2300932"><ele>7.333333333333334</ele><time>2026-05-02T07:10:19.192Z</time></trkpt><trkpt lat="44.0930888" lon="8.230156"><ele>7.0</ele><time>2026-05-02T07:10:20.188Z</time></trkpt><trkpt lat="44.0931875" lon="8.2302238"><ele>7.25</ele><time>2026-05-02T07:10:21.19Z</time></trkpt><trkpt lat="44.093295" lon="8.2303019"><ele>7.5</ele><time>2026-05-02T07:10:22.194Z</time></trkpt><trkpt lat="44.0934104" lon="8.2303822"><ele>7.75</ele><time>2026-05-02T07:10:23.188Z</time></trkpt><trkpt lat="44.0935202" lon="8.2304742"><ele>8.0</ele><time>2026-05-02T07:10:24.18Z</time></trkpt><trkpt lat="44.0936236" lon="8.2305533"><ele>8.0</ele><time>2026-05-02T07:10:25.189Z</time></trkpt><trkpt lat="44.093721" lon="8.2306306"><ele>8.0</ele><time>2026-05-02T07:10:26.184Z</time></trkpt><trkpt lat="44.0938076" lon="8.2306967"><ele>8.0</ele><time>2026-05-02T07:10:27.184Z</time></trkpt><trkpt lat="44.0938968" lon="8.2307562"><ele>8.0</ele><time>2026-05-02T07:10:28.183Z</time></trkpt><trkpt lat="44.0939998" lon="8.2308048"><ele>8.0</ele><time>2026-05-02T07:10:29.182Z</time></trkpt><trkpt lat="44.0941136" lon="8.2308435"><ele>7.75</ele><time>2026-05-02T07:10:30.185Z</time></trkpt><trkpt lat="44.0942288" lon="8.2308664"><ele>7.5</ele><time>2026-05-02T07:10:31.179Z</time></trkpt><trkpt lat="44.094348" lon="8.2308857"><ele>7.25</ele><time>2026-05-02T07:10:32.184Z</time></trkpt><trkpt lat="44.0944703" lon="8.230912"><ele>7.0</ele><time>2026-05-02T07:10:33.183Z</time></trkpt><trkpt lat="44.0945903" lon="8.2309475"><ele>7.0</ele><time>2026-05-02T07:10:34.185Z</time></trkpt><trkpt lat="44.0947096" lon="8.2309848"><ele>7.0</ele><time>2026-05-02T07:10:35.189Z</time></trkpt><trkpt lat="44.0948287" lon="8.2310214"><ele>7.0</ele><time>2026-05-02T07:10:36.19Z</time></trkpt><trkpt lat="44.0949465" lon="8.2310631"><ele>7.0</ele><time>2026-05-02T07:10:37.185Z</time></trkpt><trkpt lat="44.0950676" lon="8.2311059"><ele>7.75</ele><time>2026-05-02T07:10:38.191Z</time></trkpt><trkpt lat="44.0951841" lon="8.2311505"><ele>8.5</ele><time>2026-05-02T07:10:39.19Z</time></trkpt><trkpt lat="44.0952985" lon="8.2311886"><ele>9.25</ele><time>2026-05-02T07:10:40.189Z</time></trkpt><trkpt lat="44.0954094" lon="8.2312251"><ele>10.0</ele><time>2026-05-02T07:10:41.189Z</time></trkpt><trkpt lat="44.0955142" lon="8.2312647"><ele>10.0</ele><time>2026-05-02T07:10:42.193Z</time></trkpt><trkpt lat="44.095612" lon="8.2313003"><ele>10.0</ele><time>2026-05-02T07:10:43.195Z</time></trkpt><trkpt lat="44.095704" lon="8.2313345"><ele>10.0</ele><time>2026-05-02T07:10:44.198Z</time></trkpt><trkpt lat="44.0957888" lon="8.2313615"><ele>10.0</ele><time>2026-05-02T07:10:45.191Z</time></trkpt><trkpt lat="44.0958632" lon="8.2313983"><ele>10.0</ele><time>2026-05-02T07:10:46.18Z</time></trkpt><trkpt lat="44.0959386" lon="8.2314355"><ele>10.0</ele><time>2026-05-02T07:10:47.19Z</time></trkpt><trkpt lat="44.0960176" lon="8.2314683"><ele>9.8</ele><time>2026-05-02T07:10:48.192Z</time></trkpt><trkpt lat="44.0961004" lon="8.2314955"><ele>9.6</ele><time>2026-05-02T07:10:49.188Z</time></trkpt><trkpt lat="44.0961815" lon="8.2315268"><ele>9.4</ele><time>2026-05-02T07:10:50.19Z</time></trkpt><trkpt lat="44.0962696" lon="8.231568"><ele>9.2</ele><time>2026-05-02T07:10:51.186Z</time></trkpt><trkpt lat="44.0963665" lon="8.2316088"><ele>9.0</ele><time>2026-05-02T07:10:52.188Z</time></trkpt><trkpt lat="44.0964642" lon="8.2316453"><ele>9.0</ele><time>2026-05-02T07:10:53.19Z</time></trkpt><trkpt lat="44.0965572" lon="8.2316842"><ele>9.0</ele><time>2026-05-02T07:10:54.185Z</time></trkpt><trkpt lat="44.0966463" lon="8.2317281"><ele>9.0</ele><time>2026-05-02T07:10:55.188Z</time></trkpt><trkpt lat="44.0967382" lon="8.2317809"><ele>9.0</ele><time>2026-05-02T07:10:56.18Z</time></trkpt><trkpt lat="44.096836" lon="8.2318423"><ele>9.0</ele><time>2026-05-02T07:10:57.183Z</time></trkpt><trkpt lat="44.096941" lon="8.2319201"><ele>9.25</ele><time>2026-05-02T07:10:58.184Z</time></trkpt><trkpt lat="44.0970424" lon="8.2320108"><ele>9.5</ele><time>2026-05-02T07:10:59.184Z</time></trkpt><trkpt lat="44.097145" lon="8.2321041"><ele>9.75</ele><time>2026-05-02T07:11:00.178Z</time></trkpt><trkpt lat="44.0972512" lon="8.2321988"><ele>10.0</ele><time>2026-05-02T07:11:01.178Z</time></trkpt><trkpt lat="44.0973571" lon="8.2322955"><ele>10.25</ele><time>2026-05-02T07:11:02.179Z</time></trkpt><trkpt lat="44.0974611" lon="8.2324029"><ele>10.5</ele><time>2026-05-02T07:11:03.179Z</time></trkpt><trkpt lat="44.0975669" lon="8.232521"><ele>10.75</ele><time>2026-05-02T07:11:04.183Z</time></trkpt><trkpt lat="44.0976754" lon="8.2326458"><ele>11.0</ele><time>2026-05-02T07:11:05.185Z</time></trkpt><trkpt lat="44.0977827" lon="8.2327714"><ele>11.0</ele><time>2026-05-02T07:11:06.177Z</time></trkpt><trkpt lat="44.0978995" lon="8.2328964"><ele>11.0</ele><time>2026-05-02T07:11:07.184Z</time></trkpt><trkpt lat="44.0980178" lon="8.2330291"><ele>11.0</ele><time>2026-05-02T07:11:08.178Z</time></trkpt><trkpt lat="44.0981466" lon="8.2331634"><ele>11.75</ele><time>2026-05-02T07:11:09.177Z</time></trkpt><trkpt lat="44.0982704" lon="8.2332809"><ele>12.5</ele><time>2026-05-02T07:11:10.182Z</time></trkpt><trkpt lat="44.0983754" lon="8.2334078"><ele>13.25</ele><time>2026-05-02T07:11:11.176Z</time></trkpt><trkpt lat="44.0984829" lon="8.2335349"><ele>14.0</ele><time>2026-05-02T07:11:12.176Z</time></trkpt><trkpt lat="44.0986104" lon="8.2336626"><ele>14.0</ele><time>2026-05-02T07:11:13.178Z</time></trkpt><trkpt lat="44.0987381" lon="8.2337789"><ele>14.0</ele><time>2026-05-02T07:11:14.185Z</time></trkpt><trkpt lat="44.0988665" lon="8.2338966"><ele>14.0</ele><time>2026-05-02T07:11:15.182Z</time></trkpt><trkpt lat="44.0989946" lon="8.2340202"><ele>13.0</ele><time>2026-05-02T07:11:16.181Z</time></trkpt><trkpt lat="44.0991208" lon="8.2341474"><ele>12.0</ele><time>2026-05-02T07:11:17.186Z</time></trkpt><trkpt lat="44.0992455" lon="8.2342669"><ele>11.0</ele><time>2026-05-02T07:11:18.183Z</time></trkpt><trkpt lat="44.0993651" lon="8.2343955"><ele>11.0</ele><time>2026-05-02T07:11:19.185Z</time></trkpt><trkpt lat="44.0994899" lon="8.2345246"><ele>11.0</ele><time>2026-05-02T07:11:20.183Z</time></trkpt><trkpt lat="44.0996135" lon="8.2346544"><ele>11.0</ele><time>2026-05-02T07:11:21.189Z</time></trkpt><trkpt lat="44.0997341" lon="8.2347835"><ele>11.333333333333332</ele><time>2026-05-02T07:11:22.193Z</time></trkpt><trkpt lat="44.0998639" lon="8.2349093"><ele>11.666666666666666</ele><time>2026-05-02T07:11:23.19Z</time></trkpt><trkpt lat="44.0999916" lon="8.2350343"><ele>12.0</ele><time>2026-05-02T07:11:24.184Z</time></trkpt><trkpt lat="44.1001216" lon="8.2351653"><ele>12.0</ele><time>2026-05-02T07:11:25.185Z</time></trkpt><trkpt lat="44.1002435" lon="8.2352956"><ele>12.0</ele><time>2026-05-02T07:11:26.189Z</time></trkpt><trkpt lat="44.1003607" lon="8.2354177"><ele>12.0</ele><time>2026-05-02T07:11:27.186Z</time></trkpt><trkpt lat="44.1004775" lon="8.2355393"><ele>12.0</ele><time>2026-05-02T07:11:28.187Z</time></trkpt><trkpt lat="44.1005833" lon="8.2356468"><ele>11.0</ele><time>2026-05-02T07:11:29.189Z</time></trkpt><trkpt lat="44.1006836" lon="8.2357445"><ele>10.0</ele><time>2026-05-02T07:11:30.187Z</time></trkpt><trkpt lat="44.1007802" lon="8.235834"><ele>9.0</ele><time>2026-05-02T07:11:31.186Z</time></trkpt><trkpt lat="44.1008755" lon="8.2359127"><ele>8.0</ele><time>2026-05-02T07:11:32.186Z</time></trkpt><trkpt lat="44.1009723" lon="8.2359815"><ele>9.8</ele><time>2026-05-02T07:11:33.188Z</time></trkpt><trkpt lat="44.1010532" lon="8.2360549"><ele>11.600000000000001</ele><time>2026-05-02T07:11:34.189Z</time></trkpt><trkpt lat="44.1011325" lon="8.2361267"><ele>13.399999999999999</ele><time>2026-05-02T07:11:35.19Z</time></trkpt><trkpt lat="44.101208" lon="8.2362104"><ele>15.2</ele><time>2026-05-02T07:11:36.189Z</time></trkpt><trkpt lat="44.1012897" lon="8.2363048"><ele>17.0</ele><time>2026-05-02T07:11:37.188Z</time></trkpt><trkpt lat="44.101382" lon="8.2364068"><ele>17.0</ele><time>2026-05-02T07:11:38.186Z</time></trkpt><trkpt lat="44.1014741" lon="8.2365091"><ele>17.0</ele><time>2026-05-02T07:11:39.188Z</time></trkpt><trkpt lat="44.1015756" lon="8.2366165"><ele>17.0</ele><time>2026-05-02T07:11:40.189Z</time></trkpt><trkpt lat="44.1016831" lon="8.2367276"><ele>17.0</ele><time>2026-05-02T07:11:41.193Z</time></trkpt><trkpt lat="44.1017914" lon="8.2368356"><ele>17.0</ele><time>2026-05-02T07:11:42.19Z</time></trkpt><trkpt lat="44.1019098" lon="8.2369424"><ele>17.0</ele><time>2026-05-02T07:11:43.189Z</time></trkpt><trkpt lat="44.1020358" lon="8.2370456"><ele>17.0</ele><time>2026-05-02T07:11:44.194Z</time></trkpt><trkpt lat="44.1021713" lon="8.2371439"><ele>17.0</ele><time>2026-05-02T07:11:45.188Z</time></trkpt><trkpt lat="44.1023135" lon="8.2372282"><ele>17.0</ele><time>2026-05-02T07:11:46.185Z</time></trkpt><trkpt lat="44.1024442" lon="8.237309"><ele>17.0</ele><time>2026-05-02T07:11:47.187Z</time></trkpt><trkpt lat="44.1025726" lon="8.2373903"><ele>17.0</ele><time>2026-05-02T07:11:48.178Z</time></trkpt><trkpt lat="44.1026932" lon="8.2374964"><ele>17.0</ele><time>2026-05-02T07:11:49.173Z</time></trkpt><trkpt lat="44.1027986" lon="8.2376186"><ele>17.0</ele><time>2026-05-02T07:11:50.179Z</time></trkpt><trkpt lat="44.1028855" lon="8.2377633"><ele>17.0</ele><time>2026-05-02T07:11:51.18Z</time></trkpt><trkpt lat="44.1029761" lon="8.2378767"><ele>17.0</ele><time>2026-05-02T07:11:52.182Z</time></trkpt><trkpt lat="44.1030733" lon="8.2379901"><ele>17.0</ele><time>2026-05-02T07:11:53.178Z</time></trkpt><trkpt lat="44.1031811" lon="8.2380998"><ele>17.75</ele><time>2026-05-02T07:11:54.178Z</time></trkpt><trkpt lat="44.1032789" lon="8.2382067"><ele>18.5</ele><time>2026-05-02T07:11:55.178Z</time></trkpt><trkpt lat="44.103382" lon="8.2383128"><ele>19.25</ele><time>2026-05-02T07:11:56.179Z</time></trkpt><trkpt lat="44.1034896" lon="8.2384206"><ele>20.0</ele><time>2026-05-02T07:11:57.185Z</time></trkpt><trkpt lat="44.1035961" lon="8.2385386"><ele>20.0</ele><time>2026-05-02T07:11:58.183Z</time></trkpt><trkpt lat="44.1037014" lon="8.2386497"><ele>20.0</ele><time>2026-05-02T07:11:59.181Z</time></trkpt><trkpt lat="44.10381" lon="8.2387579"><ele>20.0</ele><time>2026-05-02T07:12:00.18Z</time></trkpt><trkpt lat="44.1039248" lon="8.2388451"><ele>20.0</ele><time>2026-05-02T07:12:01.177Z</time></trkpt><trkpt lat="44.104041" lon="8.2389249"><ele>17.0</ele><time>2026-05-02T07:12:02.186Z</time></trkpt><trkpt lat="44.1041691" lon="8.2389865"><ele>14.0</ele><time>2026-05-02T07:12:03.184Z</time></trkpt><trkpt lat="44.104295" lon="8.2390525"><ele>11.0</ele><time>2026-05-02T07:12:04.188Z</time></trkpt><trkpt lat="44.1044274" lon="8.2391096"><ele>8.0</ele><time>2026-05-02T07:12:05.189Z</time></trkpt><trkpt lat="44.1045556" lon="8.2391627"><ele>8.0</ele><time>2026-05-02T07:12:06.179Z</time></trkpt><trkpt lat="44.1046876" lon="8.2392053"><ele>8.0</ele><time>2026-05-02T07:12:07.191Z</time></trkpt><trkpt lat="44.1048157" lon="8.2392017"><ele>8.0</ele><time>2026-05-02T07:12:08.189Z</time></trkpt><trkpt lat="44.1049467" lon="8.2391696"><ele>8.0</ele><time>2026-05-02T07:12:09.188Z</time></trkpt><trkpt lat="44.105074" lon="8.2391377"><ele>10.0</ele><time>2026-05-02T07:12:10.18Z</time></trkpt><trkpt lat="44.105199" lon="8.239102"><ele>12.0</ele><time>2026-05-02T07:12:11.183Z</time></trkpt><trkpt lat="44.1053191" lon="8.239063"><ele>14.0</ele><time>2026-05-02T07:12:12.18Z</time></trkpt><trkpt lat="44.1054318" lon="8.239024"><ele>16.0</ele><time>2026-05-02T07:12:13.185Z</time></trkpt><trkpt lat="44.1055419" lon="8.2389818"><ele>21.5</ele><time>2026-05-02T07:12:14.181Z</time></trkpt><trkpt lat="44.1056502" lon="8.2389401"><ele>27.0</ele><time>2026-05-02T07:12:15.18Z</time></trkpt><trkpt lat="44.1057574" lon="8.238899"><ele>32.5</ele><time>2026-05-02T07:12:16.176Z</time></trkpt><trkpt lat="44.1058631" lon="8.238849"><ele>38.0</ele><time>2026-05-02T07:12:17.178Z</time></trkpt><trkpt lat="44.1059784" lon="8.2387838"><ele>38.0</ele><time>2026-05-02T07:12:18.171Z</time></trkpt><trkpt lat="44.1060963" lon="8.2387096"><ele>38.0</ele><time>2026-05-02T07:12:19.177Z</time></trkpt><trkpt lat="44.1062093" lon="8.2386373"><ele>38.0</ele><time>2026-05-02T07:12:20.175Z</time></trkpt><trkpt lat="44.106315" lon="8.2385763"><ele>38.0</ele><time>2026-05-02T07:12:21.173Z</time></trkpt><trkpt lat="44.1064325" lon="8.2385356"><ele>38.0</ele><time>2026-05-02T07:12:22.17Z</time></trkpt><trkpt lat="44.1065633" lon="8.2385238"><ele>38.0</ele><time>2026-05-02T07:12:23.172Z</time></trkpt><trkpt lat="44.1066981" lon="8.238542"><ele>38.0</ele><time>2026-05-02T07:12:24.167Z</time></trkpt><trkpt lat="44.1068259" lon="8.238593"><ele>38.0</ele><time>2026-05-02T07:12:25.173Z</time></trkpt><trkpt lat="44.1069293" lon="8.2386837"><ele>37.25</ele><time>2026-05-02T07:12:26.168Z</time></trkpt><trkpt lat="44.1070172" lon="8.2388076"><ele>36.5</ele><time>2026-05-02T07:12:27.177Z</time></trkpt><trkpt lat="44.1070935" lon="8.2389432"><ele>35.75</ele><time>2026-05-02T07:12:28.186Z</time></trkpt><trkpt lat="44.1071741" lon="8.2390749"><ele>35.0</ele><time>2026-05-02T07:12:29.191Z</time></trkpt><trkpt lat="44.1072495" lon="8.2391983"><ele>30.0</ele><time>2026-05-02T07:12:30.182Z</time></trkpt><trkpt lat="44.1073262" lon="8.2393181"><ele>25.0</ele><time>2026-05-02T07:12:31.181Z</time></trkpt><trkpt lat="44.107393" lon="8.2394269"><ele>20.0</ele><time>2026-05-02T07:12:32.182Z</time></trkpt><trkpt lat="44.107463" lon="8.2395323"><ele>15.0</ele><time>2026-05-02T07:12:33.182Z</time></trkpt><trkpt lat="44.1075311" lon="8.239638"><ele>10.0</ele><time>2026-05-02T07:12:34.182Z</time></trkpt><trkpt lat="44.1076071" lon="8.2397401"><ele>9.0</ele><time>2026-05-02T07:12:35.181Z</time></trkpt><trkpt lat="44.1076901" lon="8.2398421"><ele>8.0</ele><time>2026-05-02T07:12:36.187Z</time></trkpt><trkpt lat="44.1077704" lon="8.2399482"><ele>7.0</ele><time>2026-05-02T07:12:37.186Z</time></trkpt><trkpt lat="44.1078526" lon="8.2400555"><ele>6.0</ele><time>2026-05-02T07:12:38.186Z</time></trkpt><trkpt lat="44.1079379" lon="8.2401612"><ele>5.0</ele><time>2026-05-02T07:12:39.183Z</time></trkpt><trkpt lat="44.1080144" lon="8.2402689"><ele>5.0</ele><time>2026-05-02T07:12:40.183Z</time></trkpt><trkpt lat="44.1080934" lon="8.2403694"><ele>5.0</ele><time>2026-05-02T07:12:41.173Z</time></trkpt><trkpt lat="44.1081787" lon="8.2404567"><ele>5.0</ele><time>2026-05-02T07:12:42.172Z</time></trkpt><trkpt lat="44.1082645" lon="8.2405346"><ele>5.0</ele><time>2026-05-02T07:12:43.18Z</time></trkpt><trkpt lat="44.108348" lon="8.240612"><ele>5.0</ele><time>2026-05-02T07:12:44.174Z</time></trkpt><trkpt lat="44.1084242" lon="8.2406742"><ele>5.333333333333334</ele><time>2026-05-02T07:12:45.178Z</time></trkpt><trkpt lat="44.1084973" lon="8.2407332"><ele>5.666666666666667</ele><time>2026-05-02T07:12:46.172Z</time></trkpt><trkpt lat="44.1085649" lon="8.2407819"><ele>6.0</ele><time>2026-05-02T07:12:47.176Z</time></trkpt><trkpt lat="44.1086473" lon="8.240845"><ele>6.333333333333334</ele><time>2026-05-02T07:12:49.179Z</time></trkpt><trkpt lat="44.1087121" lon="8.2408975"><ele>6.666666666666667</ele><time>2026-05-02T07:13:07.17Z</time></trkpt><trkpt lat="44.1087703" lon="8.2409508"><ele>7.0</ele><time>2026-05-02T07:13:08.183Z</time></trkpt><trkpt lat="44.1088407" lon="8.2410297"><ele>7.0</ele><time>2026-05-02T07:13:09.176Z</time></trkpt><trkpt lat="44.1089262" lon="8.2411114"><ele>6.999999999999999</ele><time>2026-05-02T07:13:10.174Z</time></trkpt><trkpt lat="44.1090116" lon="8.2411945"><ele>6.999999999999999</ele><time>2026-05-02T07:13:11.173Z</time></trkpt><trkpt lat="44.1090993" lon="8.2412765"><ele>7.0</ele><time>2026-05-02T07:13:12.177Z</time></trkpt><trkpt lat="44.1091874" lon="8.241353"><ele>7.0</ele><time>2026-05-02T07:13:13.179Z</time></trkpt><trkpt lat="44.1092728" lon="8.2414264"><ele>7.0</ele><time>2026-05-02T07:13:14.179Z</time></trkpt><trkpt lat="44.1093633" lon="8.2415007"><ele>6.999999999999999</ele><time>2026-05-02T07:13:15.176Z</time></trkpt><trkpt lat="44.1094467" lon="8.2415829"><ele>6.999999999999999</ele><time>2026-05-02T07:13:16.176Z</time></trkpt><trkpt lat="44.1095177" lon="8.2416741"><ele>7.0</ele><time>2026-05-02T07:13:17.177Z</time></trkpt><trkpt lat="44.1095847" lon="8.2417752"><ele>7.0</ele><time>2026-05-02T07:13:18.171Z</time></trkpt><trkpt lat="44.1096485" lon="8.2418631"><ele>7.0</ele><time>2026-05-02T07:13:19.166Z</time></trkpt><trkpt lat="44.1097098" lon="8.2419485"><ele>6.999999999999999</ele><time>2026-05-02T07:13:20.174Z</time></trkpt><trkpt lat="44.1097785" lon="8.242027"><ele>6.999999999999999</ele><time>2026-05-02T07:13:21.173Z</time></trkpt><trkpt lat="44.109858" lon="8.2421054"><ele>7.0</ele><time>2026-05-02T07:13:22.173Z</time></trkpt><trkpt lat="44.109944" lon="8.2421728"><ele>7.0</ele><time>2026-05-02T07:13:23.178Z</time></trkpt><trkpt lat="44.1100432" lon="8.2422244"><ele>7.0</ele><time>2026-05-02T07:13:24.169Z</time></trkpt><trkpt lat="44.1101486" lon="8.2422661"><ele>7.0</ele><time>2026-05-02T07:13:25.168Z</time></trkpt><trkpt lat="44.1102575" lon="8.2423036"><ele>7.0</ele><time>2026-05-02T07:13:26.173Z</time></trkpt><trkpt lat="44.1103736" lon="8.2423317"><ele>7.0</ele><time>2026-05-02T07:13:27.168Z</time></trkpt><trkpt lat="44.1104815" lon="8.2423662"><ele>7.0</ele><time>2026-05-02T07:13:28.168Z</time></trkpt><trkpt lat="44.1105834" lon="8.2423952"><ele>6.999999999999999</ele><time>2026-05-02T07:13:29.171Z</time></trkpt><trkpt lat="44.1106847" lon="8.2424243"><ele>6.999999999999999</ele><time>2026-05-02T07:13:30.181Z</time></trkpt><trkpt lat="44.1107818" lon="8.2424451"><ele>7.0</ele><time>2026-05-02T07:13:31.176Z</time></trkpt><trkpt lat="44.1108835" lon="8.2424703"><ele>7.0</ele><time>2026-05-02T07:13:32.169Z</time></trkpt><trkpt lat="44.1109808" lon="8.2425042"><ele>6.8</ele><time>2026-05-02T07:13:33.172Z</time></trkpt><trkpt lat="44.1110774" lon="8.242569"><ele>6.6</ele><time>2026-05-02T07:13:34.176Z</time></trkpt><trkpt lat="44.1111723" lon="8.2426561"><ele>6.3999999999999995</ele><time>2026-05-02T07:13:35.17Z</time></trkpt><trkpt lat="44.1112618" lon="8.2427527"><ele>6.199999999999999</ele><time>2026-05-02T07:13:36.171Z</time></trkpt><trkpt lat="44.1113483" lon="8.2428553"><ele>6.0</ele><time>2026-05-02T07:13:37.164Z</time></trkpt><trkpt lat="44.1114369" lon="8.2429527"><ele>6.0</ele><time>2026-05-02T07:13:38.177Z</time></trkpt><trkpt lat="44.1115215" lon="8.2430506"><ele>6.0</ele><time>2026-05-02T07:13:39.182Z</time></trkpt><trkpt lat="44.111609" lon="8.2431547"><ele>6.0</ele><time>2026-05-02T07:13:40.173Z</time></trkpt><trkpt lat="44.1116987" lon="8.2432636"><ele>6.0</ele><time>2026-05-02T07:13:41.178Z</time></trkpt><trkpt lat="44.1117936" lon="8.2433787"><ele>7.25</ele><time>2026-05-02T07:13:42.18Z</time></trkpt><trkpt lat="44.1118951" lon="8.2434819"><ele>8.5</ele><time>2026-05-02T07:13:43.181Z</time></trkpt><trkpt lat="44.1119961" lon="8.2435968"><ele>9.75</ele><time>2026-05-02T07:13:44.183Z</time></trkpt><trkpt lat="44.1120976" lon="8.2437093"><ele>11.0</ele><time>2026-05-02T07:13:45.18Z</time></trkpt><trkpt lat="44.1121866" lon="8.2438008"><ele>11.0</ele><time>2026-05-02T07:13:46.178Z</time></trkpt><trkpt lat="44.1122684" lon="8.2438845"><ele>11.0</ele><time>2026-05-02T07:13:47.175Z</time></trkpt><trkpt lat="44.112333" lon="8.2439616"><ele>11.0</ele><time>2026-05-02T07:13:48.181Z</time></trkpt><trkpt lat="44.1123922" lon="8.2440436"><ele>11.0</ele><time>2026-05-02T07:13:49.179Z</time></trkpt><trkpt lat="44.112448" lon="8.244127"><ele>11.0</ele><time>2026-05-02T07:13:50.186Z</time></trkpt><trkpt lat="44.1125115" lon="8.2442079"><ele>11.0</ele><time>2026-05-02T07:13:51.186Z</time></trkpt><trkpt lat="44.112584" lon="8.244295"><ele>10.600000000000001</ele><time>2026-05-02T07:13:52.193Z</time></trkpt><trkpt lat="44.1126668" lon="8.2443867"><ele>10.200000000000001</ele><time>2026-05-02T07:13:53.19Z</time></trkpt><trkpt lat="44.1127546" lon="8.2444812"><ele>9.8</ele><time>2026-05-02T07:13:54.193Z</time></trkpt><trkpt lat="44.1128345" lon="8.2445784"><ele>9.4</ele><time>2026-05-02T07:13:55.193Z</time></trkpt><trkpt lat="44.1129192" lon="8.2446809"><ele>9.0</ele><time>2026-05-02T07:13:56.203Z</time></trkpt><trkpt lat="44.1130061" lon="8.2447822"><ele>9.0</ele><time>2026-05-02T07:13:57.197Z</time></trkpt><trkpt lat="44.1130931" lon="8.2448861"><ele>9.0</ele><time>2026-05-02T07:13:58.199Z</time></trkpt><trkpt lat="44.1131914" lon="8.2449858"><ele>9.0</ele><time>2026-05-02T07:13:59.196Z</time></trkpt><trkpt lat="44.1132998" lon="8.2450923"><ele>9.0</ele><time>2026-05-02T07:14:00.198Z</time></trkpt><trkpt lat="44.1134035" lon="8.2452044"><ele>9.25</ele><time>2026-05-02T07:14:01.19Z</time></trkpt><trkpt lat="44.1135096" lon="8.2453155"><ele>9.5</ele><time>2026-05-02T07:14:02.19Z</time></trkpt><trkpt lat="44.1136132" lon="8.2454176"><ele>9.75</ele><time>2026-05-02T07:14:03.191Z</time></trkpt><trkpt lat="44.1137111" lon="8.245508"><ele>10.0</ele><time>2026-05-02T07:14:04.187Z</time></trkpt><trkpt lat="44.1138053" lon="8.2455977"><ele>9.833333333333334</ele><time>2026-05-02T07:14:05.192Z</time></trkpt><trkpt lat="44.1138793" lon="8.2456674"><ele>9.666666666666668</ele><time>2026-05-02T07:14:06.207Z</time></trkpt><trkpt lat="44.1139393" lon="8.2457317"><ele>9.5</ele><time>2026-05-02T07:14:07.204Z</time></trkpt><trkpt lat="44.1139892" lon="8.2457853"><ele>9.333333333333334</ele><time>2026-05-02T07:14:08.173Z</time></trkpt><trkpt lat="44.1140418" lon="8.2458522"><ele>9.166666666666666</ele><time>2026-05-02T07:14:09.185Z</time></trkpt><trkpt lat="44.1141055" lon="8.2459313"><ele>9.0</ele><time>2026-05-02T07:14:10.179Z</time></trkpt><trkpt lat="44.1141754" lon="8.2460177"><ele>9.5</ele><time>2026-05-02T07:14:11.188Z</time></trkpt><trkpt lat="44.1142543" lon="8.2461119"><ele>10.0</ele><time>2026-05-02T07:14:12.18Z</time></trkpt><trkpt lat="44.1143448" lon="8.2462271"><ele>10.5</ele><time>2026-05-02T07:14:13.185Z</time></trkpt><trkpt lat="44.1144479" lon="8.2463399"><ele>11.0</ele><time>2026-05-02T07:14:14.179Z</time></trkpt><trkpt lat="44.1145428" lon="8.246453"><ele>11.0</ele><time>2026-05-02T07:14:15.191Z</time></trkpt><trkpt lat="44.1146435" lon="8.2465667"><ele>11.0</ele><time>2026-05-02T07:14:16.194Z</time></trkpt><trkpt lat="44.1147453" lon="8.2466897"><ele>11.0</ele><time>2026-05-02T07:14:17.197Z</time></trkpt><trkpt lat="44.1148466" lon="8.2468138"><ele>11.0</ele><time>2026-05-02T07:14:18.197Z</time></trkpt><trkpt lat="44.1149591" lon="8.2469336"><ele>11.0</ele><time>2026-05-02T07:14:19.188Z</time></trkpt><trkpt lat="44.1150739" lon="8.2470552"><ele>11.0</ele><time>2026-05-02T07:14:20.19Z</time></trkpt><trkpt lat="44.115196" lon="8.2471818"><ele>11.0</ele><time>2026-05-02T07:14:21.187Z</time></trkpt><trkpt lat="44.1153132" lon="8.2473175"><ele>11.0</ele><time>2026-05-02T07:14:22.189Z</time></trkpt><trkpt lat="44.1154276" lon="8.2474518"><ele>11.25</ele><time>2026-05-02T07:14:23.187Z</time></trkpt><trkpt lat="44.1155565" lon="8.2475577"><ele>11.5</ele><time>2026-05-02T07:14:24.211Z</time></trkpt><trkpt lat="44.1156802" lon="8.2476447"><ele>11.75</ele><time>2026-05-02T07:14:25.197Z</time></trkpt><trkpt lat="44.1158068" lon="8.2477385"><ele>12.0</ele><time>2026-05-02T07:14:26.199Z</time></trkpt><trkpt lat="44.115927" lon="8.2478362"><ele>12.0</ele><time>2026-05-02T07:14:27.198Z</time></trkpt><trkpt lat="44.1160495" lon="8.2479365"><ele>12.0</ele><time>2026-05-02T07:14:28.199Z</time></trkpt><trkpt lat="44.1161765" lon="8.2480179"><ele>12.0</ele><time>2026-05-02T07:14:29.2Z</time></trkpt><trkpt lat="44.1163112" lon="8.2481031"><ele>12.0</ele><time>2026-05-02T07:14:30.203Z</time></trkpt><trkpt lat="44.1164473" lon="8.2481876"><ele>11.25</ele><time>2026-05-02T07:14:31.203Z</time></trkpt><trkpt lat="44.1165838" lon="8.2482649"><ele>10.5</ele><time>2026-05-02T07:14:32.203Z</time></trkpt><trkpt lat="44.1167296" lon="8.2483257"><ele>9.75</ele><time>2026-05-02T07:14:33.193Z</time></trkpt><trkpt lat="44.1168694" lon="8.2483716"><ele>9.0</ele><time>2026-05-02T07:14:34.198Z</time></trkpt><trkpt lat="44.1170063" lon="8.2484165"><ele>9.0</ele><time>2026-05-02T07:14:35.193Z</time></trkpt><trkpt lat="44.1171658" lon="8.248438"><ele>9.0</ele><time>2026-05-02T07:14:36.194Z</time></trkpt><trkpt lat="44.1173176" lon="8.2484634"><ele>9.0</ele><time>2026-05-02T07:14:37.192Z</time></trkpt><trkpt lat="44.1174578" lon="8.2484996"><ele>8.5</ele><time>2026-05-02T07:14:38.189Z</time></trkpt><trkpt lat="44.1175964" lon="8.2485279"><ele>8.0</ele><time>2026-05-02T07:14:39.19Z</time></trkpt><trkpt lat="44.1177434" lon="8.2485514"><ele>7.5</ele><time>2026-05-02T07:14:40.194Z</time></trkpt><trkpt lat="44.1178748" lon="8.2485763"><ele>7.0</ele><time>2026-05-02T07:14:41.188Z</time></trkpt><trkpt lat="44.1179933" lon="8.2486063"><ele>7.0</ele><time>2026-05-02T07:14:42.185Z</time></trkpt><trkpt lat="44.1181194" lon="8.2486385"><ele>6.999999999999999</ele><time>2026-05-02T07:14:43.188Z</time></trkpt><trkpt lat="44.1182364" lon="8.2486685"><ele>6.999999999999999</ele><time>2026-05-02T07:14:44.188Z</time></trkpt><trkpt lat="44.1183393" lon="8.2486942"><ele>7.0</ele><time>2026-05-02T07:14:45.19Z</time></trkpt><trkpt lat="44.1184258" lon="8.2487172"><ele>7.0</ele><time>2026-05-02T07:14:46.184Z</time></trkpt><trkpt lat="44.118496" lon="8.2487293"><ele>7.333333333333334</ele><time>2026-05-02T07:14:47.188Z</time></trkpt><trkpt lat="44.1185934" lon="8.2487468"><ele>7.666666666666667</ele><time>2026-05-02T07:14:49.179Z</time></trkpt><trkpt lat="44.118652" lon="8.2487864"><ele>8.0</ele><time>2026-05-02T07:14:53.188Z</time></trkpt><trkpt lat="44.1187373" lon="8.2488044"><ele>8.333333333333334</ele><time>2026-05-02T07:14:56.179Z</time></trkpt><trkpt lat="44.1188348" lon="8.2488248"><ele>8.666666666666666</ele><time>2026-05-02T07:14:58.18Z</time></trkpt><trkpt lat="44.1189031" lon="8.2488517"><ele>9.0</ele><time>2026-05-02T07:15:01.18Z</time></trkpt><trkpt lat="44.1189573" lon="8.2488993"><ele>9.0</ele><time>2026-05-02T07:15:16.183Z</time></trkpt><trkpt lat="44.119023" lon="8.2488598"><ele>9.0</ele><time>2026-05-02T07:15:19.182Z</time></trkpt><trkpt lat="44.1191059" lon="8.2488536"><ele>9.0</ele><time>2026-05-02T07:15:21.175Z</time></trkpt><trkpt lat="44.1192512" lon="8.2488703"><ele>9.0</ele><time>2026-05-02T07:15:23.182Z</time></trkpt><trkpt lat="44.1193465" lon="8.2488955"><ele>9.0</ele><time>2026-05-02T07:15:24.168Z</time></trkpt><trkpt lat="44.1194405" lon="8.2489232"><ele>8.5</ele><time>2026-05-02T07:15:25.175Z</time></trkpt><trkpt lat="44.1195325" lon="8.2489666"><ele>8.0</ele><time>2026-05-02T07:15:26.18Z</time></trkpt><trkpt lat="44.1196092" lon="8.2490189"><ele>7.5</ele><time>2026-05-02T07:15:27.178Z</time></trkpt><trkpt lat="44.1196789" lon="8.2490804"><ele>7.0</ele><time>2026-05-02T07:15:28.186Z</time></trkpt><trkpt lat="44.1197314" lon="8.2491379"><ele>6.5</ele><time>2026-05-02T07:15:29.179Z</time></trkpt><trkpt lat="44.1197868" lon="8.249211"><ele>6.0</ele><time>2026-05-02T07:15:31.175Z</time></trkpt><trkpt lat="44.1198281" lon="8.2493121"><ele>6.0</ele><time>2026-05-02T07:15:34.182Z</time></trkpt><trkpt lat="44.1198909" lon="8.2494089"><ele>6.0</ele><time>2026-05-02T07:15:36.18Z</time></trkpt><trkpt lat="44.120002" lon="8.2494974"><ele>6.0</ele><time>2026-05-02T07:15:38.185Z</time></trkpt><trkpt lat="44.1200883" lon="8.2495553"><ele>6.0</ele><time>2026-05-02T07:15:39.18Z</time></trkpt><trkpt lat="44.1201768" lon="8.2496278"><ele>6.0</ele><time>2026-05-02T07:15:40.18Z</time></trkpt><trkpt lat="44.1202648" lon="8.2496999"><ele>6.6</ele><time>2026-05-02T07:15:41.182Z</time></trkpt><trkpt lat="44.1203461" lon="8.2497841"><ele>7.199999999999999</ele><time>2026-05-02T07:15:42.179Z</time></trkpt><trkpt lat="44.1204163" lon="8.2498772"><ele>7.800000000000001</ele><time>2026-05-02T07:15:43.187Z</time></trkpt><trkpt lat="44.1204837" lon="8.2499698"><ele>8.4</ele><time>2026-05-02T07:15:44.183Z</time></trkpt><trkpt lat="44.1205493" lon="8.2500632"><ele>9.0</ele><time>2026-05-02T07:15:45.182Z</time></trkpt><trkpt lat="44.1206166" lon="8.2501483"><ele>9.0</ele><time>2026-05-02T07:15:46.182Z</time></trkpt><trkpt lat="44.1206786" lon="8.2502261"><ele>9.0</ele><time>2026-05-02T07:15:47.177Z</time></trkpt><trkpt lat="44.1207371" lon="8.2502989"><ele>9.0</ele><time>2026-05-02T07:15:48.178Z</time></trkpt><trkpt lat="44.1207952" lon="8.2503736"><ele>9.0</ele><time>2026-05-02T07:15:49.178Z</time></trkpt><trkpt lat="44.1208573" lon="8.2504538"><ele>9.0</ele><time>2026-05-02T07:15:50.182Z</time></trkpt><trkpt lat="44.1209203" lon="8.2505215"><ele>9.0</ele><time>2026-05-02T07:15:51.175Z</time></trkpt><trkpt lat="44.1209762" lon="8.2505972"><ele>9.166666666666666</ele><time>2026-05-02T07:15:52.183Z</time></trkpt><trkpt lat="44.1210256" lon="8.2506694"><ele>9.333333333333334</ele><time>2026-05-02T07:15:53.181Z</time></trkpt><trkpt lat="44.1210771" lon="8.2507322"><ele>9.5</ele><time>2026-05-02T07:15:54.177Z</time></trkpt><trkpt lat="44.1211313" lon="8.2507832"><ele>9.666666666666668</ele><time>2026-05-02T07:15:55.179Z</time></trkpt><trkpt lat="44.1211842" lon="8.250837"><ele>9.833333333333334</ele><time>2026-05-02T07:15:56.176Z</time></trkpt><trkpt lat="44.1212385" lon="8.2508887"><ele>10.0</ele><time>2026-05-02T07:15:57.181Z</time></trkpt><trkpt lat="44.1213373" lon="8.2509848"><ele>10.0</ele><time>2026-05-02T07:15:59.186Z</time></trkpt><trkpt lat="44.1214192" lon="8.2510849"><ele>10.0</ele><time>2026-05-02T07:16:01.186Z</time></trkpt><trkpt lat="44.1215028" lon="8.2511939"><ele>10.0</ele><time>2026-05-02T07:16:03.184Z</time></trkpt><trkpt lat="44.1215478" lon="8.2512601"><ele>10.0</ele><time>2026-05-02T07:16:04.186Z</time></trkpt><trkpt lat="44.1216227" lon="8.2513777"><ele>10.0</ele><time>2026-05-02T07:16:06.19Z</time></trkpt><trkpt lat="44.1217076" lon="8.2515042"><ele>10.333333333333334</ele><time>2026-05-02T07:16:08.183Z</time></trkpt><trkpt lat="44.1217603" lon="8.2515793"><ele>10.666666666666668</ele><time>2026-05-02T07:16:09.184Z</time></trkpt><trkpt lat="44.1218226" lon="8.2516538"><ele>11.0</ele><time>2026-05-02T07:16:10.181Z</time></trkpt><trkpt lat="44.121889" lon="8.2517305"><ele>11.333333333333334</ele><time>2026-05-02T07:16:11.179Z</time></trkpt><trkpt lat="44.1219459" lon="8.2518119"><ele>11.666666666666666</ele><time>2026-05-02T07:16:12.178Z</time></trkpt><trkpt lat="44.121998" lon="8.2518845"><ele>12.0</ele><time>2026-05-02T07:16:13.184Z</time></trkpt><trkpt lat="44.1220538" lon="8.2519824"><ele>12.0</ele><time>2026-05-02T07:16:15.179Z</time></trkpt><trkpt lat="44.1221086" lon="8.2520724"><ele>12.0</ele><time>2026-05-02T07:16:23.183Z</time></trkpt><trkpt lat="44.1221586" lon="8.2521714"><ele>12.0</ele><time>2026-05-02T07:16:25.176Z</time></trkpt><trkpt lat="44.1222255" lon="8.2522839"><ele>12.0</ele><time>2026-05-02T07:16:27.18Z</time></trkpt><trkpt lat="44.1223161" lon="8.2523963"><ele>12.0</ele><time>2026-05-02T07:16:29.18Z</time></trkpt><trkpt lat="44.1223692" lon="8.2524618"><ele>11.857142857142856</ele><time>2026-05-02T07:16:30.189Z</time></trkpt><trkpt lat="44.1224223" lon="8.252527"><ele>11.714285714285714</ele><time>2026-05-02T07:16:31.188Z</time></trkpt><trkpt lat="44.1224742" lon="8.2525928"><ele>11.571428571428571</ele><time>2026-05-02T07:16:32.186Z</time></trkpt><trkpt lat="44.1225222" lon="8.2526674"><ele>11.428571428571427</ele><time>2026-05-02T07:16:33.19Z</time></trkpt><trkpt lat="44.1225724" lon="8.2527472"><ele>11.285714285714285</ele><time>2026-05-02T07:16:34.185Z</time></trkpt><trkpt lat="44.1226244" lon="8.2528242"><ele>11.142857142857142</ele><time>2026-05-02T07:16:35.188Z</time></trkpt><trkpt lat="44.1226798" lon="8.2529061"><ele>11.0</ele><time>2026-05-02T07:16:36.186Z</time></trkpt><trkpt lat="44.1227353" lon="8.2529891"><ele>11.0</ele><time>2026-05-02T07:16:37.186Z</time></trkpt><trkpt lat="44.1227965" lon="8.2530752"><ele>11.0</ele><time>2026-05-02T07:16:38.188Z</time></trkpt><trkpt lat="44.1228604" lon="8.2531604"><ele>11.0</ele><time>2026-05-02T07:16:39.187Z</time></trkpt><trkpt lat="44.1229205" lon="8.2532385"><ele>11.0</ele><time>2026-05-02T07:16:40.186Z</time></trkpt><trkpt lat="44.1229807" lon="8.2533144"><ele>11.0</ele><time>2026-05-02T07:16:41.184Z</time></trkpt><trkpt lat="44.123037" lon="8.2533862"><ele>11.0</ele><time>2026-05-02T07:16:42.188Z</time></trkpt><trkpt lat="44.1230846" lon="8.2534536"><ele>11.0</ele><time>2026-05-02T07:16:43.193Z</time></trkpt><trkpt lat="44.1231625" lon="8.2535658"><ele>11.0</ele><time>2026-05-02T07:16:45.188Z</time></trkpt><trkpt lat="44.1232251" lon="8.2536501"><ele>11.0</ele><time>2026-05-02T07:16:48.175Z</time></trkpt><trkpt lat="44.1232761" lon="8.2537182"><ele>11.0</ele><time>2026-05-02T07:16:50.177Z</time></trkpt><trkpt lat="44.123354" lon="8.2538159"><ele>11.0</ele><time>2026-05-02T07:16:52.18Z</time></trkpt><trkpt lat="44.1234239" lon="8.2538828"><ele>11.166666666666666</ele><time>2026-05-02T07:16:54.176Z</time></trkpt><trkpt lat="44.123489" lon="8.2539434"><ele>11.333333333333332</ele><time>2026-05-02T07:16:57.179Z</time></trkpt><trkpt lat="44.123549" lon="8.2539888"><ele>11.5</ele><time>2026-05-02T07:17:00.193Z</time></trkpt><trkpt lat="44.123624" lon="8.254061"><ele>11.666666666666666</ele><time>2026-05-02T07:17:03.186Z</time></trkpt><trkpt lat="44.1236902" lon="8.2540802"><ele>11.833333333333334</ele><time>2026-05-02T07:19:03.193Z</time></trkpt><trkpt lat="44.1237863" lon="8.2541008"><ele>12.0</ele><time>2026-05-02T07:19:06.184Z</time></trkpt><trkpt lat="44.1238608" lon="8.2541321"><ele>12.2</ele><time>2026-05-02T07:19:08.182Z</time></trkpt><trkpt lat="44.1239822" lon="8.2542165"><ele>12.399999999999999</ele><time>2026-05-02T07:19:10.178Z</time></trkpt><trkpt lat="44.1240534" lon="8.2542757"><ele>12.600000000000001</ele><time>2026-05-02T07:19:11.177Z</time></trkpt><trkpt lat="44.1241305" lon="8.2543379"><ele>12.8</ele><time>2026-05-02T07:19:12.18Z</time></trkpt><trkpt lat="44.12422" lon="8.2544081"><ele>13.0</ele><time>2026-05-02T07:19:13.185Z</time></trkpt><trkpt lat="44.1243122" lon="8.2544812"><ele>13.0</ele><time>2026-05-02T07:19:14.176Z</time></trkpt><trkpt lat="44.1244035" lon="8.2545509"><ele>13.0</ele><time>2026-05-02T07:19:15.176Z</time></trkpt><trkpt lat="44.1244989" lon="8.2546199"><ele>13.0</ele><time>2026-05-02T07:19:16.179Z</time></trkpt><trkpt lat="44.1245867" lon="8.2546937"><ele>13.0</ele><time>2026-05-02T07:19:17.179Z</time></trkpt><trkpt lat="44.1246703" lon="8.2547678"><ele>13.0</ele><time>2026-05-02T07:19:18.178Z</time></trkpt><trkpt lat="44.1247553" lon="8.2548356"><ele>12.999999999999998</ele><time>2026-05-02T07:19:19.174Z</time></trkpt><trkpt lat="44.124837" lon="8.2549043"><ele>13.0</ele><time>2026-05-02T07:19:20.17Z</time></trkpt><trkpt lat="44.1249185" lon="8.2549699"><ele>13.0</ele><time>2026-05-02T07:19:21.176Z</time></trkpt><trkpt lat="44.1249955" lon="8.2550302"><ele>13.0</ele><time>2026-05-02T07:19:22.175Z</time></trkpt><trkpt lat="44.1250646" lon="8.255086"><ele>12.999999999999998</ele><time>2026-05-02T07:19:23.18Z</time></trkpt><trkpt lat="44.1251237" lon="8.2551443"><ele>13.0</ele><time>2026-05-02T07:19:24.178Z</time></trkpt><trkpt lat="44.1251773" lon="8.2551994"><ele>13.166666666666666</ele><time>2026-05-02T07:19:25.185Z</time></trkpt><trkpt lat="44.1252381" lon="8.2552479"><ele>13.333333333333332</ele><time>2026-05-02T07:19:26.182Z</time></trkpt><trkpt lat="44.1252989" lon="8.2552806"><ele>13.5</ele><time>2026-05-02T07:19:27.183Z</time></trkpt><trkpt lat="44.1253866" lon="8.2553402"><ele>13.666666666666668</ele><time>2026-05-02T07:19:29.184Z</time></trkpt><trkpt lat="44.1254606" lon="8.2553797"><ele>13.833333333333334</ele><time>2026-05-02T07:19:31.192Z</time></trkpt><trkpt lat="44.1255402" lon="8.255414"><ele>14.0</ele><time>2026-05-02T07:19:33.197Z</time></trkpt><trkpt lat="44.1256372" lon="8.2554856"><ele>14.0</ele><time>2026-05-02T07:19:35.19Z</time></trkpt><trkpt lat="44.1256912" lon="8.2555352"><ele>13.999999999999998</ele><time>2026-05-02T07:19:36.188Z</time></trkpt><trkpt lat="44.1257907" lon="8.2556257"><ele>13.999999999999998</ele><time>2026-05-02T07:19:38.19Z</time></trkpt><trkpt lat="44.125892" lon="8.2557057"><ele>14.0</ele><time>2026-05-02T07:19:40.189Z</time></trkpt><trkpt lat="44.1259701" lon="8.2557659"><ele>14.0</ele><time>2026-05-02T07:19:42.19Z</time></trkpt><trkpt lat="44.1260363" lon="8.2557981"><ele>13.799999999999999</ele><time>2026-05-02T07:19:45.192Z</time></trkpt><trkpt lat="44.126119" lon="8.2558195"><ele>13.599999999999998</ele><time>2026-05-02T07:19:51.184Z</time></trkpt><trkpt lat="44.1261839" lon="8.2558519"><ele>13.4</ele><time>2026-05-02T07:19:53.188Z</time></trkpt><trkpt lat="44.1262648" lon="8.2559052"><ele>13.2</ele><time>2026-05-02T07:19:56.178Z</time></trkpt><trkpt lat="44.1263483" lon="8.2559619"><ele>13.0</ele><time>2026-05-02T07:19:59.19Z</time></trkpt><trkpt lat="44.126455" lon="8.2560451"><ele>12.999999999999998</ele><time>2026-05-02T07:20:01.18Z</time></trkpt><trkpt lat="44.1265187" lon="8.2561076"><ele>13.0</ele><time>2026-05-02T07:20:02.184Z</time></trkpt><trkpt lat="44.1265857" lon="8.2561634"><ele>13.0</ele><time>2026-05-02T07:20:03.184Z</time></trkpt><trkpt lat="44.1266475" lon="8.2562172"><ele>13.0</ele><time>2026-05-02T07:20:04.182Z</time></trkpt><trkpt lat="44.1267048" lon="8.2562683"><ele>12.999999999999998</ele><time>2026-05-02T07:20:05.182Z</time></trkpt><trkpt lat="44.1268051" lon="8.256366"><ele>13.0</ele><time>2026-05-02T07:20:07.185Z</time></trkpt><trkpt lat="44.1269192" lon="8.2564651"><ele>12.8</ele><time>2026-05-02T07:20:09.184Z</time></trkpt><trkpt lat="44.1269868" lon="8.2565211"><ele>12.600000000000001</ele><time>2026-05-02T07:20:10.183Z</time></trkpt><trkpt lat="44.1270529" lon="8.2565916"><ele>12.399999999999999</ele><time>2026-05-02T07:20:11.186Z</time></trkpt><trkpt lat="44.1271266" lon="8.256675"><ele>12.2</ele><time>2026-05-02T07:20:12.181Z</time></trkpt><trkpt lat="44.1272055" lon="8.2567667"><ele>12.0</ele><time>2026-05-02T07:20:13.174Z</time></trkpt><trkpt lat="44.1272861" lon="8.2568583"><ele>12.0</ele><time>2026-05-02T07:20:14.176Z</time></trkpt><trkpt lat="44.1273734" lon="8.2569542"><ele>12.0</ele><time>2026-05-02T07:20:15.181Z</time></trkpt><trkpt lat="44.1274609" lon="8.2570534"><ele>12.0</ele><time>2026-05-02T07:20:16.177Z</time></trkpt><trkpt lat="44.1275429" lon="8.2571456"><ele>12.0</ele><time>2026-05-02T07:20:17.174Z</time></trkpt><trkpt lat="44.12762" lon="8.2572331"><ele>12.0</ele><time>2026-05-02T07:20:18.169Z</time></trkpt><trkpt lat="44.1276999" lon="8.2573112"><ele>12.166666666666666</ele><time>2026-05-02T07:20:19.17Z</time></trkpt><trkpt lat="44.1277789" lon="8.2573813"><ele>12.333333333333332</ele><time>2026-05-02T07:20:20.169Z</time></trkpt><trkpt lat="44.1278524" lon="8.2574404"><ele>12.5</ele><time>2026-05-02T07:20:21.176Z</time></trkpt><trkpt lat="44.1279234" lon="8.2574994"><ele>12.666666666666666</ele><time>2026-05-02T07:20:22.174Z</time></trkpt><trkpt lat="44.1279938" lon="8.2575611"><ele>12.833333333333332</ele><time>2026-05-02T07:20:23.172Z</time></trkpt><trkpt lat="44.1280547" lon="8.2576179"><ele>13.0</ele><time>2026-05-02T07:20:24.165Z</time></trkpt><trkpt lat="44.1281134" lon="8.2576714"><ele>12.999999999999998</ele><time>2026-05-02T07:20:25.17Z</time></trkpt><trkpt lat="44.1281687" lon="8.2577182"><ele>13.0</ele><time>2026-05-02T07:20:26.174Z</time></trkpt><trkpt lat="44.1282534" lon="8.2577665"><ele>13.0</ele><time>2026-05-02T07:20:28.178Z</time></trkpt><trkpt lat="44.1282987" lon="8.2578305"><ele>13.0</ele><time>2026-05-02T07:20:32.184Z</time></trkpt><trkpt lat="44.1283752" lon="8.2578941"><ele>12.999999999999998</ele><time>2026-05-02T07:20:34.187Z</time></trkpt><trkpt lat="44.1284457" lon="8.2579475"><ele>13.0</ele><time>2026-05-02T07:20:35.19Z</time></trkpt><trkpt lat="44.1285222" lon="8.2580072"><ele>12.4</ele><time>2026-05-02T07:20:36.188Z</time></trkpt><trkpt lat="44.128601" lon="8.258071"><ele>11.8</ele><time>2026-05-02T07:20:37.177Z</time></trkpt><trkpt lat="44.1286806" lon="8.2581386"><ele>11.2</ele><time>2026-05-02T07:20:38.173Z</time></trkpt><trkpt lat="44.1287648" lon="8.2582134"><ele>10.6</ele><time>2026-05-02T07:20:39.181Z</time></trkpt><trkpt lat="44.1288497" lon="8.2582819"><ele>10.0</ele><time>2026-05-02T07:20:40.183Z</time></trkpt><trkpt lat="44.1289347" lon="8.2583455"><ele>10.0</ele><time>2026-05-02T07:20:41.182Z</time></trkpt><trkpt lat="44.1290262" lon="8.2584067"><ele>10.0</ele><time>2026-05-02T07:20:42.18Z</time></trkpt><trkpt lat="44.1291223" lon="8.2584769"><ele>10.0</ele><time>2026-05-02T07:20:43.186Z</time></trkpt><trkpt lat="44.1292153" lon="8.2585441"><ele>10.0</ele><time>2026-05-02T07:20:44.187Z</time></trkpt><trkpt lat="44.1293149" lon="8.2586187"><ele>10.0</ele><time>2026-05-02T07:20:45.181Z</time></trkpt><trkpt lat="44.1294214" lon="8.2587069"><ele>9.75</ele><time>2026-05-02T07:20:46.184Z</time></trkpt><trkpt lat="44.1295315" lon="8.2588016"><ele>9.5</ele><time>2026-05-02T07:20:47.191Z</time></trkpt><trkpt lat="44.1296465" lon="8.2589018"><ele>9.25</ele><time>2026-05-02T07:20:48.184Z</time></trkpt><trkpt lat="44.1297694" lon="8.2590082"><ele>9.0</ele><time>2026-05-02T07:20:49.191Z</time></trkpt><trkpt lat="44.1298974" lon="8.2591069"><ele>8.5</ele><time>2026-05-02T07:20:50.186Z</time></trkpt><trkpt lat="44.1300356" lon="8.2592026"><ele>8.0</ele><time>2026-05-02T07:20:51.19Z</time></trkpt><trkpt lat="44.1301588" lon="8.2593038"><ele>7.5</ele><time>2026-05-02T07:20:52.189Z</time></trkpt><trkpt lat="44.1302701" lon="8.2594042"><ele>7.0</ele><time>2026-05-02T07:20:53.191Z</time></trkpt><trkpt lat="44.130378" lon="8.2594946"><ele>7.000000000000001</ele><time>2026-05-02T07:20:54.19Z</time></trkpt><trkpt lat="44.1304779" lon="8.2595658"><ele>7.0</ele><time>2026-05-02T07:20:55.182Z</time></trkpt><trkpt lat="44.1305726" lon="8.2596238"><ele>7.0</ele><time>2026-05-02T07:20:56.18Z</time></trkpt><trkpt lat="44.1306392" lon="8.2596881"><ele>7.0</ele><time>2026-05-02T07:20:57.188Z</time></trkpt><trkpt lat="44.1307016" lon="8.2597541"><ele>7.000000000000001</ele><time>2026-05-02T07:20:58.188Z</time></trkpt><trkpt lat="44.1307605" lon="8.2598075"><ele>7.0</ele><time>2026-05-02T07:20:59.188Z</time></trkpt><trkpt lat="44.1308192" lon="8.2598506"><ele>7.199999999999999</ele><time>2026-05-02T07:21:00.188Z</time></trkpt><trkpt lat="44.1308864" lon="8.2598976"><ele>7.3999999999999995</ele><time>2026-05-02T07:21:01.186Z</time></trkpt><trkpt lat="44.130968" lon="8.2599567"><ele>7.6000000000000005</ele><time>2026-05-02T07:21:02.183Z</time></trkpt><trkpt lat="44.131049" lon="8.2600219"><ele>7.800000000000001</ele><time>2026-05-02T07:21:03.188Z</time></trkpt><trkpt lat="44.1311336" lon="8.2600871"><ele>8.0</ele><time>2026-05-02T07:21:04.186Z</time></trkpt><trkpt lat="44.131219" lon="8.2601573"><ele>8.0</ele><time>2026-05-02T07:21:05.189Z</time></trkpt><trkpt lat="44.1313141" lon="8.2602238"><ele>8.0</ele><time>2026-05-02T07:21:06.191Z</time></trkpt><trkpt lat="44.1314115" lon="8.2602955"><ele>8.0</ele><time>2026-05-02T07:21:07.199Z</time></trkpt><trkpt lat="44.1315069" lon="8.2603704"><ele>8.0</ele><time>2026-05-02T07:21:08.195Z</time></trkpt><trkpt lat="44.131604" lon="8.2604469"><ele>8.0</ele><time>2026-05-02T07:21:09.198Z</time></trkpt><trkpt lat="44.1317004" lon="8.2605186"><ele>8.200000000000001</ele><time>2026-05-02T07:21:10.197Z</time></trkpt><trkpt lat="44.1317894" lon="8.2605951"><ele>8.4</ele><time>2026-05-02T07:21:11.197Z</time></trkpt><trkpt lat="44.1318726" lon="8.2606658"><ele>8.600000000000001</ele><time>2026-05-02T07:21:12.198Z</time></trkpt><trkpt lat="44.1319462" lon="8.2607384"><ele>8.8</ele><time>2026-05-02T07:21:13.195Z</time></trkpt><trkpt lat="44.1320203" lon="8.260802"><ele>9.0</ele><time>2026-05-02T07:21:14.198Z</time></trkpt><trkpt lat="44.1320911" lon="8.2608664"><ele>9.0</ele><time>2026-05-02T07:21:15.197Z</time></trkpt><trkpt lat="44.1321554" lon="8.2609296"><ele>9.0</ele><time>2026-05-02T07:21:16.196Z</time></trkpt><trkpt lat="44.1322173" lon="8.2609924"><ele>9.0</ele><time>2026-05-02T07:21:17.195Z</time></trkpt><trkpt lat="44.1322827" lon="8.261053"><ele>9.0</ele><time>2026-05-02T07:21:18.197Z</time></trkpt><trkpt lat="44.1323506" lon="8.2611126"><ele>9.0</ele><time>2026-05-02T07:21:19.201Z</time></trkpt><trkpt lat="44.1324166" lon="8.2611742"><ele>9.0</ele><time>2026-05-02T07:21:20.185Z</time></trkpt><trkpt lat="44.1324828" lon="8.2612376"><ele>8.333333333333334</ele><time>2026-05-02T07:21:21.195Z</time></trkpt><trkpt lat="44.1325457" lon="8.2613002"><ele>7.666666666666667</ele><time>2026-05-02T07:21:22.189Z</time></trkpt><trkpt lat="44.1326041" lon="8.2613649"><ele>7.0</ele><time>2026-05-02T07:21:23.195Z</time></trkpt><trkpt lat="44.1326591" lon="8.2614274"><ele>6.333333333333334</ele><time>2026-05-02T07:21:24.193Z</time></trkpt><trkpt lat="44.1327135" lon="8.2614825"><ele>5.666666666666667</ele><time>2026-05-02T07:21:25.194Z</time></trkpt><trkpt lat="44.132766" lon="8.2615375"><ele>5.0</ele><time>2026-05-02T07:21:26.187Z</time></trkpt><trkpt lat="44.1328697" lon="8.2616413"><ele>5.0</ele><time>2026-05-02T07:21:28.189Z</time></trkpt><trkpt lat="44.1329261" lon="8.2616926"><ele>5.0</ele><time>2026-05-02T07:21:29.187Z</time></trkpt><trkpt lat="44.1329848" lon="8.261748"><ele>5.0</ele><time>2026-05-02T07:21:30.185Z</time></trkpt><trkpt lat="44.133043" lon="8.2618059"><ele>5.0</ele><time>2026-05-02T07:21:31.183Z</time></trkpt><trkpt lat="44.1331037" lon="8.2618657"><ele>5.0</ele><time>2026-05-02T07:21:32.189Z</time></trkpt><trkpt lat="44.1331586" lon="8.2619207"><ele>5.0</ele><time>2026-05-02T07:21:33.18Z</time></trkpt><trkpt lat="44.1332107" lon="8.261978"><ele>5.0</ele><time>2026-05-02T07:21:34.181Z</time></trkpt><trkpt lat="44.133264" lon="8.2620295"><ele>5.0</ele><time>2026-05-02T07:21:35.186Z</time></trkpt><trkpt lat="44.133365" lon="8.2621259"><ele>5.0</ele><time>2026-05-02T07:21:37.189Z</time></trkpt><trkpt lat="44.1334542" lon="8.2622138"><ele>5.0</ele><time>2026-05-02T07:21:39.189Z</time></trkpt><trkpt lat="44.1335167" lon="8.2623086"><ele>5.0</ele><time>2026-05-02T07:21:41.188Z</time></trkpt><trkpt lat="44.1335337" lon="8.262457"><ele>5.0</ele><time>2026-05-02T07:21:43.187Z</time></trkpt><trkpt lat="44.1334876" lon="8.2626496"><ele>5.0</ele><time>2026-05-02T07:21:45.182Z</time></trkpt><trkpt lat="44.1334342" lon="8.2627734"><ele>5.0</ele><time>2026-05-02T07:21:46.191Z</time></trkpt><trkpt lat="44.1333812" lon="8.2628914"><ele>5.0</ele><time>2026-05-02T07:21:47.184Z</time></trkpt><trkpt lat="44.1333321" lon="8.2630081"><ele>5.0</ele><time>2026-05-02T07:21:48.181Z</time></trkpt><trkpt lat="44.1332878" lon="8.2630986"><ele>5.0</ele><time>2026-05-02T07:21:49.186Z</time></trkpt><trkpt lat="44.1332129" lon="8.2631753"><ele>4.666666666666667</ele><time>2026-05-02T07:21:51.19Z</time></trkpt><trkpt lat="44.1332424" lon="8.2632765"><ele>4.333333333333334</ele><time>2026-05-02T07:21:56.186Z</time></trkpt><trkpt lat="44.1333112" lon="8.2633192"><ele>4.0</ele><time>2026-05-02T07:21:57.195Z</time></trkpt><trkpt lat="44.1334166" lon="8.2633891"><ele>3.666666666666667</ele><time>2026-05-02T07:21:59.196Z</time></trkpt><trkpt lat="44.1334783" lon="8.2634371"><ele>3.3333333333333335</ele><time>2026-05-02T07:22:01.198Z</time></trkpt><trkpt lat="44.133548" lon="8.2634986"><ele>3.0</ele><time>2026-05-02T07:22:04.192Z</time></trkpt><trkpt lat="44.1334829" lon="8.2634775"><ele>3.0</ele><time>2026-05-02T07:22:15.189Z</time></trkpt><trkpt lat="44.1334128" lon="8.2634124"><ele>3.0</ele><time>2026-05-02T07:22:18.188Z</time></trkpt><trkpt lat="44.133426" lon="8.263512"><ele>3.0</ele><time>2026-05-02T07:23:29.187Z</time></trkpt><trkpt lat="44.1334055" lon="8.2634269"><ele>3.0</ele><time>2026-05-02T07:24:51.187Z</time></trkpt><trkpt lat="44.1335469" lon="8.2633432"><ele>3.0</ele><time>2026-05-02T07:27:19.962Z</time></trkpt><trkpt lat="44.1335262" lon="8.2631843"><ele>3.0</ele><time>2026-05-02T07:27:28.155Z</time></trkpt><trkpt lat="44.1333035" lon="8.2633629"><ele>3.0</ele><time>2026-05-02T07:27:44.159Z</time></trkpt><trkpt lat="44.1335674" lon="8.2637173"><ele>2.9999999999999996</ele><time>2026-05-02T07:27:49.147Z</time></trkpt><trkpt lat="44.1335684" lon="8.2636045"><ele>3.0</ele><time>2026-05-02T07:28:04.16Z</time></trkpt><trkpt lat="44.133551" lon="8.2634759"><ele>3.0</ele><time>2026-05-02T07:28:08.154Z</time></trkpt><trkpt lat="44.1335367" lon="8.2633847"><ele>3.0</ele><time>2026-05-02T07:28:12.15Z</time></trkpt><trkpt lat="44.1334735" lon="8.2634164"><ele>3.0</ele><time>2026-05-02T07:29:38.168Z</time></trkpt><trkpt lat="44.1334432" lon="8.2633348"><ele>2.9999999999999996</ele><time>2026-05-02T07:29:42.172Z</time></trkpt><trkpt lat="44.1334801" lon="8.2634108"><ele>3.0</ele><time>2026-05-02T07:35:35.181Z</time></trkpt><trkpt lat="44.133543" lon="8.2633695"><ele>3.0</ele><time>2026-05-02T07:41:37.173Z</time></trkpt><trkpt lat="44.1334792" lon="8.2633869"><ele>3.0</ele><time>2026-05-02T07:43:09.17Z</time></trkpt><trkpt lat="44.1335045" lon="8.2634696"><ele>3.0</ele><time>2026-05-02T07:45:51.132Z</time></trkpt><trkpt lat="44.1334399" lon="8.2633808"><ele>3.0</ele><time>2026-05-02T07:48:05.209Z</time></trkpt><trkpt lat="44.1333546" lon="8.2633266"><ele>3.0</ele><time>2026-05-02T07:48:43.208Z</time></trkpt><trkpt lat="44.1332576" lon="8.2632604"><ele>3.0</ele><time>2026-05-02T07:48:45.215Z</time></trkpt><trkpt lat="44.1331814" lon="8.2631994"><ele>2.8571428571428568</ele><time>2026-05-02T07:48:47.213Z</time></trkpt><trkpt lat="44.1331229" lon="8.2631272"><ele>2.7142857142857144</ele><time>2026-05-02T07:48:49.217Z</time></trkpt><trkpt lat="44.1330913" lon="8.2630368"><ele>2.571428571428571</ele><time>2026-05-02T07:48:52.214Z</time></trkpt><trkpt lat="44.1330373" lon="8.2630996"><ele>2.4285714285714284</ele><time>2026-05-02T07:49:44.209Z</time></trkpt><trkpt lat="44.1330938" lon="8.2631411"><ele>2.2857142857142856</ele><time>2026-05-02T07:49:56.212Z</time></trkpt><trkpt lat="44.1331609" lon="8.2631609"><ele>2.142857142857143</ele><time>2026-05-02T07:49:59.204Z</time></trkpt><trkpt lat="44.1332221" lon="8.2631245"><ele>2.0</ele><time>2026-05-02T07:50:01.21Z</time></trkpt><trkpt lat="44.1332477" lon="8.2630309"><ele>2.5</ele><time>2026-05-02T07:50:04.212Z</time></trkpt><trkpt lat="44.133267" lon="8.262942"><ele>3.0</ele><time>2026-05-02T07:50:06.193Z</time></trkpt><trkpt lat="44.1333007" lon="8.262835"><ele>3.5</ele><time>2026-05-02T07:50:08.194Z</time></trkpt><trkpt lat="44.1333377" lon="8.2627167"><ele>4.0</ele><time>2026-05-02T07:50:10.198Z</time></trkpt><trkpt lat="44.1333582" lon="8.2626253"><ele>4.5</ele><time>2026-05-02T07:50:12.204Z</time></trkpt><trkpt lat="44.1333828" lon="8.2625346"><ele>5.0</ele><time>2026-05-02T07:50:20.208Z</time></trkpt><trkpt lat="44.1334332" lon="8.2624682"><ele>5.0</ele><time>2026-05-02T07:50:37.216Z</time></trkpt><trkpt lat="44.1335223" lon="8.2624414"><ele>5.0</ele><time>2026-05-02T07:50:40.215Z</time></trkpt><trkpt lat="44.1335782" lon="8.2623681"><ele>5.0</ele><time>2026-05-02T07:50:42.209Z</time></trkpt><trkpt lat="44.1335831" lon="8.2622563"><ele>5.0</ele><time>2026-05-02T07:50:44.216Z</time></trkpt><trkpt lat="44.1335042" lon="8.2621833"><ele>5.0</ele><time>2026-05-02T07:50:46.21Z</time></trkpt><trkpt lat="44.133433" lon="8.2621272"><ele>5.0</ele><time>2026-05-02T07:50:48.202Z</time></trkpt><trkpt lat="44.1333533" lon="8.2620731"><ele>5.0</ele><time>2026-05-02T07:50:58.213Z</time></trkpt><trkpt lat="44.1332839" lon="8.2619905"><ele>5.0</ele><time>2026-05-02T07:51:00.205Z</time></trkpt><trkpt lat="44.1331934" lon="8.2619797"><ele>5.0</ele><time>2026-05-02T07:52:11.216Z</time></trkpt><trkpt lat="44.1331334" lon="8.26194"><ele>5.0</ele><time>2026-05-02T07:52:12.21Z</time></trkpt><trkpt lat="44.1330551" lon="8.2618786"><ele>5.0</ele><time>2026-05-02T07:52:13.203Z</time></trkpt><trkpt lat="44.1329735" lon="8.2617913"><ele>5.0</ele><time>2026-05-02T07:52:14.203Z</time></trkpt><trkpt lat="44.1328846" lon="8.261703"><ele>5.0</ele><time>2026-05-02T07:52:15.208Z</time></trkpt><trkpt lat="44.13279" lon="8.2616238"><ele>5.0</ele><time>2026-05-02T07:52:16.213Z</time></trkpt><trkpt lat="44.1327008" lon="8.2615326"><ele>5.0</ele><time>2026-05-02T07:52:17.219Z</time></trkpt><trkpt lat="44.1326126" lon="8.2614468"><ele>5.0</ele><time>2026-05-02T07:52:18.22Z</time></trkpt><trkpt lat="44.1325184" lon="8.2613628"><ele>5.0</ele><time>2026-05-02T07:52:19.218Z</time></trkpt><trkpt lat="44.1324215" lon="8.261273"><ele>5.8</ele><time>2026-05-02T07:52:20.218Z</time></trkpt><trkpt lat="44.1323242" lon="8.2611799"><ele>6.6</ele><time>2026-05-02T07:52:21.216Z</time></trkpt><trkpt lat="44.1322299" lon="8.2610921"><ele>7.4</ele><time>2026-05-02T07:52:22.209Z</time></trkpt><trkpt lat="44.1321326" lon="8.2610148"><ele>8.2</ele><time>2026-05-02T07:52:23.208Z</time></trkpt><trkpt lat="44.1320465" lon="8.2609385"><ele>9.0</ele><time>2026-05-02T07:52:24.204Z</time></trkpt><trkpt lat="44.1319669" lon="8.2608639"><ele>9.0</ele><time>2026-05-02T07:52:25.206Z</time></trkpt><trkpt lat="44.1318913" lon="8.260791"><ele>9.0</ele><time>2026-05-02T07:52:26.213Z</time></trkpt><trkpt lat="44.131815" lon="8.2607204"><ele>9.0</ele><time>2026-05-02T07:52:27.209Z</time></trkpt><trkpt lat="44.1317445" lon="8.2606494"><ele>9.0</ele><time>2026-05-02T07:52:28.21Z</time></trkpt><trkpt lat="44.1316791" lon="8.2605819"><ele>9.0</ele><time>2026-05-02T07:52:29.206Z</time></trkpt><trkpt lat="44.1316219" lon="8.2605214"><ele>9.0</ele><time>2026-05-02T07:52:30.21Z</time></trkpt><trkpt lat="44.1315639" lon="8.2604659"><ele>8.833333333333334</ele><time>2026-05-02T07:52:31.209Z</time></trkpt><trkpt lat="44.1314989" lon="8.2604059"><ele>8.666666666666666</ele><time>2026-05-02T07:52:32.209Z</time></trkpt><trkpt lat="44.131429" lon="8.2603489"><ele>8.5</ele><time>2026-05-02T07:52:33.205Z</time></trkpt><trkpt lat="44.1313558" lon="8.2602916"><ele>8.333333333333332</ele><time>2026-05-02T07:52:34.202Z</time></trkpt><trkpt lat="44.1312869" lon="8.2602384"><ele>8.166666666666666</ele><time>2026-05-02T07:52:35.211Z</time></trkpt><trkpt lat="44.1312261" lon="8.2601899"><ele>8.0</ele><time>2026-05-02T07:52:36.21Z</time></trkpt><trkpt lat="44.1311275" lon="8.2601129"><ele>7.999999999999999</ele><time>2026-05-02T07:52:38.204Z</time></trkpt><trkpt lat="44.1310503" lon="8.2600603"><ele>8.0</ele><time>2026-05-02T07:52:40.211Z</time></trkpt><trkpt lat="44.1309836" lon="8.2600205"><ele>8.0</ele><time>2026-05-02T07:52:42.218Z</time></trkpt><trkpt lat="44.1309185" lon="8.2599645"><ele>8.0</ele><time>2026-05-02T07:52:44.211Z</time></trkpt><trkpt lat="44.130843" lon="8.2598967"><ele>7.999999999999999</ele><time>2026-05-02T07:52:46.218Z</time></trkpt><trkpt lat="44.1307373" lon="8.2598138"><ele>8.0</ele><time>2026-05-02T07:52:48.216Z</time></trkpt><trkpt lat="44.1306732" lon="8.2597728"><ele>7.800000000000001</ele><time>2026-05-02T07:52:49.213Z</time></trkpt><trkpt lat="44.1306023" lon="8.2597302"><ele>7.6000000000000005</ele><time>2026-05-02T07:52:50.206Z</time></trkpt><trkpt lat="44.1305249" lon="8.2596828"><ele>7.3999999999999995</ele><time>2026-05-02T07:52:51.217Z</time></trkpt><trkpt lat="44.1304398" lon="8.2596198"><ele>7.199999999999999</ele><time>2026-05-02T07:52:52.223Z</time></trkpt><trkpt lat="44.130344" lon="8.2595479"><ele>7.0</ele><time>2026-05-02T07:52:53.209Z</time></trkpt><trkpt lat="44.1302437" lon="8.2594711"><ele>7.0</ele><time>2026-05-02T07:52:54.21Z</time></trkpt><trkpt lat="44.1301467" lon="8.2593906"><ele>6.999999999999999</ele><time>2026-05-02T07:52:55.205Z</time></trkpt><trkpt lat="44.1300518" lon="8.2593107"><ele>6.999999999999999</ele><time>2026-05-02T07:52:56.215Z</time></trkpt><trkpt lat="44.1299549" lon="8.2592306"><ele>7.0</ele><time>2026-05-02T07:52:57.215Z</time></trkpt><trkpt lat="44.1298566" lon="8.2591605"><ele>7.0</ele><time>2026-05-02T07:52:58.22Z</time></trkpt><trkpt lat="44.1297661" lon="8.2590905"><ele>7.0</ele><time>2026-05-02T07:52:59.21Z</time></trkpt><trkpt lat="44.1296779" lon="8.2590182"><ele>6.999999999999999</ele><time>2026-05-02T07:53:00.219Z</time></trkpt><trkpt lat="44.1295993" lon="8.2589542"><ele>6.999999999999999</ele><time>2026-05-02T07:53:01.212Z</time></trkpt><trkpt lat="44.1295288" lon="8.2588982"><ele>7.0</ele><time>2026-05-02T07:53:02.218Z</time></trkpt><trkpt lat="44.1294528" lon="8.2588462"><ele>7.0</ele><time>2026-05-02T07:53:03.215Z</time></trkpt><trkpt lat="44.1293729" lon="8.2587867"><ele>7.333333333333334</ele><time>2026-05-02T07:53:04.221Z</time></trkpt><trkpt lat="44.1292886" lon="8.2587298"><ele>7.666666666666667</ele><time>2026-05-02T07:53:05.217Z</time></trkpt><trkpt lat="44.1292076" lon="8.258666"><ele>8.0</ele><time>2026-05-02T07:53:06.218Z</time></trkpt><trkpt lat="44.1291307" lon="8.2586"><ele>8.333333333333334</ele><time>2026-05-02T07:53:07.22Z</time></trkpt><trkpt lat="44.1290582" lon="8.2585358"><ele>8.666666666666666</ele><time>2026-05-02T07:53:08.216Z</time></trkpt><trkpt lat="44.128986" lon="8.2584768"><ele>9.0</ele><time>2026-05-02T07:53:09.214Z</time></trkpt><trkpt lat="44.1289106" lon="8.2584212"><ele>9.2</ele><time>2026-05-02T07:53:10.215Z</time></trkpt><trkpt lat="44.1288363" lon="8.2583727"><ele>9.4</ele><time>2026-05-02T07:53:11.218Z</time></trkpt><trkpt lat="44.1287613" lon="8.2583243"><ele>9.6</ele><time>2026-05-02T07:53:12.214Z</time></trkpt><trkpt lat="44.1286833" lon="8.2582658"><ele>9.8</ele><time>2026-05-02T07:53:13.211Z</time></trkpt><trkpt lat="44.1285966" lon="8.2582022"><ele>10.0</ele><time>2026-05-02T07:53:14.212Z</time></trkpt><trkpt lat="44.1285071" lon="8.2581313"><ele>10.0</ele><time>2026-05-02T07:53:15.218Z</time></trkpt><trkpt lat="44.1284243" lon="8.2580512"><ele>10.0</ele><time>2026-05-02T07:53:16.209Z</time></trkpt><trkpt lat="44.1283534" lon="8.257986"><ele>10.0</ele><time>2026-05-02T07:53:17.215Z</time></trkpt><trkpt lat="44.128301" lon="8.2579276"><ele>10.0</ele><time>2026-05-02T07:53:18.212Z</time></trkpt><trkpt lat="44.1282596" lon="8.2578162"><ele>10.0</ele><time>2026-05-02T07:53:20.215Z</time></trkpt><trkpt lat="44.1282697" lon="8.2576923"><ele>10.0</ele><time>2026-05-02T07:53:22.216Z</time></trkpt><trkpt lat="44.1282554" lon="8.2575792"><ele>10.6</ele><time>2026-05-02T07:53:24.21Z</time></trkpt><trkpt lat="44.1281886" lon="8.2575517"><ele>11.2</ele><time>2026-05-02T07:53:26.209Z</time></trkpt><trkpt lat="44.128096" lon="8.2575932"><ele>11.8</ele><time>2026-05-02T07:53:28.224Z</time></trkpt><trkpt lat="44.1279781" lon="8.2576155"><ele>12.4</ele><time>2026-05-02T07:53:30.226Z</time></trkpt><trkpt lat="44.1278655" lon="8.2575919"><ele>13.0</ele><time>2026-05-02T07:53:32.22Z</time></trkpt><trkpt lat="44.1277584" lon="8.2575433"><ele>12.999999999999998</ele><time>2026-05-02T07:53:34.208Z</time></trkpt><trkpt lat="44.1277012" lon="8.2574997"><ele>13.0</ele><time>2026-05-02T07:53:35.207Z</time></trkpt><trkpt lat="44.1276409" lon="8.2574415"><ele>13.0</ele><time>2026-05-02T07:53:36.208Z</time></trkpt><trkpt lat="44.1275831" lon="8.25738"><ele>13.0</ele><time>2026-05-02T07:53:37.213Z</time></trkpt><trkpt lat="44.1275216" lon="8.257318"><ele>12.999999999999998</ele><time>2026-05-02T07:53:38.214Z</time></trkpt><trkpt lat="44.1274622" lon="8.2572626"><ele>13.0</ele><time>2026-05-02T07:53:39.211Z</time></trkpt><trkpt lat="44.1273598" lon="8.2571769"><ele>12.833333333333332</ele><time>2026-05-02T07:53:41.212Z</time></trkpt><trkpt lat="44.1272723" lon="8.2570909"><ele>12.666666666666666</ele><time>2026-05-02T07:53:43.21Z</time></trkpt><trkpt lat="44.1272016" lon="8.2570262"><ele>12.5</ele><time>2026-05-02T07:53:45.22Z</time></trkpt><trkpt lat="44.1271428" lon="8.2569751"><ele>12.333333333333332</ele><time>2026-05-02T07:53:47.221Z</time></trkpt><trkpt lat="44.127082" lon="8.2568936"><ele>12.166666666666666</ele><time>2026-05-02T07:53:50.223Z</time></trkpt><trkpt lat="44.1270258" lon="8.2568209"><ele>12.0</ele><time>2026-05-02T07:53:53.223Z</time></trkpt><trkpt lat="44.1269463" lon="8.2567513"><ele>12.0</ele><time>2026-05-02T07:53:57.218Z</time></trkpt><trkpt lat="44.1268752" lon="8.2566677"><ele>12.0</ele><time>2026-05-02T07:53:59.22Z</time></trkpt><trkpt lat="44.1268178" lon="8.2565842"><ele>12.0</ele><time>2026-05-02T07:54:01.221Z</time></trkpt><trkpt lat="44.1267878" lon="8.256506"><ele>12.0</ele><time>2026-05-02T07:54:13.222Z</time></trkpt><trkpt lat="44.1267319" lon="8.2564613"><ele>12.0</ele><time>2026-05-02T07:54:17.227Z</time></trkpt><trkpt lat="44.1266764" lon="8.2563956"><ele>12.0</ele><time>2026-05-02T07:54:21.224Z</time></trkpt><trkpt lat="44.1266051" lon="8.2563368"><ele>12.166666666666666</ele><time>2026-05-02T07:54:24.222Z</time></trkpt><trkpt lat="44.1265462" lon="8.2562938"><ele>12.333333333333332</ele><time>2026-05-02T07:54:26.222Z</time></trkpt><trkpt lat="44.1264831" lon="8.2562201"><ele>12.5</ele><time>2026-05-02T07:54:29.226Z</time></trkpt><trkpt lat="44.1264291" lon="8.2561624"><ele>12.666666666666666</ele><time>2026-05-02T07:54:33.218Z</time></trkpt><trkpt lat="44.1263668" lon="8.2560831"><ele>12.833333333333332</ele><time>2026-05-02T07:54:37.212Z</time></trkpt><trkpt lat="44.1262865" lon="8.2559843"><ele>13.0</ele><time>2026-05-02T07:54:40.209Z</time></trkpt><trkpt lat="44.1262272" lon="8.2558798"><ele>12.999999999999998</ele><time>2026-05-02T07:54:42.209Z</time></trkpt><trkpt lat="44.1261859" lon="8.2557892"><ele>13.0</ele><time>2026-05-02T07:54:45.221Z</time></trkpt><trkpt lat="44.126149" lon="8.2557134"><ele>13.0</ele><time>2026-05-02T07:54:49.222Z</time></trkpt><trkpt lat="44.1260754" lon="8.2557023"><ele>13.0</ele><time>2026-05-02T07:54:52.231Z</time></trkpt><trkpt lat="44.1259669" lon="8.2557124"><ele>12.999999999999998</ele><time>2026-05-02T07:54:55.221Z</time></trkpt><trkpt lat="44.1258963" lon="8.2557142"><ele>13.0</ele><time>2026-05-02T07:54:56.225Z</time></trkpt><trkpt lat="44.1258124" lon="8.2557052"><ele>13.2</ele><time>2026-05-02T07:54:57.21Z</time></trkpt><trkpt lat="44.1257152" lon="8.2556763"><ele>13.4</ele><time>2026-05-02T07:54:58.214Z</time></trkpt><trkpt lat="44.1256271" lon="8.2556194"><ele>13.599999999999998</ele><time>2026-05-02T07:54:59.217Z</time></trkpt><trkpt lat="44.1255415" lon="8.2555579"><ele>13.799999999999999</ele><time>2026-05-02T07:55:00.214Z</time></trkpt><trkpt lat="44.1254565" lon="8.2555057"><ele>14.0</ele><time>2026-05-02T07:55:01.226Z</time></trkpt><trkpt lat="44.125387" lon="8.2554495"><ele>14.000000000000002</ele><time>2026-05-02T07:55:02.216Z</time></trkpt><trkpt lat="44.1253258" lon="8.2553873"><ele>14.0</ele><time>2026-05-02T07:55:03.222Z</time></trkpt><trkpt lat="44.1252668" lon="8.2553303"><ele>14.0</ele><time>2026-05-02T07:55:04.217Z</time></trkpt><trkpt lat="44.1252078" lon="8.2552785"><ele>14.0</ele><time>2026-05-02T07:55:05.225Z</time></trkpt><trkpt lat="44.1251538" lon="8.2552286"><ele>14.000000000000002</ele><time>2026-05-02T07:55:06.214Z</time></trkpt><trkpt lat="44.1250436" lon="8.2551619"><ele>14.0</ele><time>2026-05-02T07:55:08.213Z</time></trkpt><trkpt lat="44.1249294" lon="8.2551075"><ele>13.833333333333334</ele><time>2026-05-02T07:55:10.222Z</time></trkpt><trkpt lat="44.1248263" lon="8.2550322"><ele>13.666666666666668</ele><time>2026-05-02T07:55:12.209Z</time></trkpt><trkpt lat="44.1247654" lon="8.2549787"><ele>13.5</ele><time>2026-05-02T07:55:13.209Z</time></trkpt><trkpt lat="44.1247053" lon="8.2549369"><ele>13.333333333333332</ele><time>2026-05-02T07:55:14.215Z</time></trkpt><trkpt lat="44.1246356" lon="8.2548923"><ele>13.166666666666666</ele><time>2026-05-02T07:55:15.218Z</time></trkpt><trkpt lat="44.1245627" lon="8.2548404"><ele>13.0</ele><time>2026-05-02T07:55:16.225Z</time></trkpt><trkpt lat="44.1244925" lon="8.2547908"><ele>12.999999999999998</ele><time>2026-05-02T07:55:17.228Z</time></trkpt><trkpt lat="44.1244221" lon="8.2547411"><ele>13.0</ele><time>2026-05-02T07:55:18.217Z</time></trkpt><trkpt lat="44.1243579" lon="8.2546873"><ele>13.0</ele><time>2026-05-02T07:55:19.227Z</time></trkpt><trkpt lat="44.124293" lon="8.2546429"><ele>13.0</ele><time>2026-05-02T07:55:20.228Z</time></trkpt><trkpt lat="44.1242303" lon="8.2545886"><ele>12.999999999999998</ele><time>2026-05-02T07:55:21.224Z</time></trkpt><trkpt lat="44.1241684" lon="8.2545325"><ele>13.0</ele><time>2026-05-02T07:55:22.225Z</time></trkpt><trkpt lat="44.1241036" lon="8.2544747"><ele>12.499999999999998</ele><time>2026-05-02T07:55:23.23Z</time></trkpt><trkpt lat="44.124039" lon="8.2544222"><ele>12.0</ele><time>2026-05-02T07:55:24.233Z</time></trkpt><trkpt lat="44.1239746" lon="8.2543723"><ele>11.5</ele><time>2026-05-02T07:55:25.231Z</time></trkpt><trkpt lat="44.1239118" lon="8.2543305"><ele>11.0</ele><time>2026-05-02T07:55:26.234Z</time></trkpt><trkpt lat="44.1238528" lon="8.2542844"><ele>10.5</ele><time>2026-05-02T07:55:27.239Z</time></trkpt><trkpt lat="44.123794" lon="8.2542402"><ele>10.0</ele><time>2026-05-02T07:55:28.234Z</time></trkpt><trkpt lat="44.1236921" lon="8.2541753"><ele>10.0</ele><time>2026-05-02T07:55:30.231Z</time></trkpt><trkpt lat="44.1236189" lon="8.2541038"><ele>10.0</ele><time>2026-05-02T07:55:32.223Z</time></trkpt><trkpt lat="44.1235592" lon="8.2540255"><ele>10.0</ele><time>2026-05-02T07:55:35.227Z</time></trkpt><trkpt lat="44.1235099" lon="8.2539585"><ele>10.0</ele><time>2026-05-02T07:55:37.231Z</time></trkpt><trkpt lat="44.1234368" lon="8.2538925"><ele>10.0</ele><time>2026-05-02T07:55:39.221Z</time></trkpt><trkpt lat="44.1233447" lon="8.2538059"><ele>10.0</ele><time>2026-05-02T07:55:41.227Z</time></trkpt><trkpt lat="44.1232411" lon="8.253701"><ele>10.142857142857142</ele><time>2026-05-02T07:55:43.224Z</time></trkpt><trkpt lat="44.1231787" lon="8.2536457"><ele>10.285714285714286</ele><time>2026-05-02T07:55:44.229Z</time></trkpt><trkpt lat="44.1231155" lon="8.2535817"><ele>10.428571428571429</ele><time>2026-05-02T07:55:45.225Z</time></trkpt><trkpt lat="44.1230581" lon="8.2535215"><ele>10.571428571428571</ele><time>2026-05-02T07:55:46.225Z</time></trkpt><trkpt lat="44.1230062" lon="8.2534654"><ele>10.714285714285714</ele><time>2026-05-02T07:55:47.226Z</time></trkpt><trkpt lat="44.1229577" lon="8.2534073"><ele>10.857142857142858</ele><time>2026-05-02T07:55:48.217Z</time></trkpt><trkpt lat="44.122909" lon="8.2533501"><ele>11.0</ele><time>2026-05-02T07:55:49.219Z</time></trkpt><trkpt lat="44.1228616" lon="8.2532922"><ele>11.0</ele><time>2026-05-02T07:55:50.219Z</time></trkpt><trkpt lat="44.1227692" lon="8.2531701"><ele>11.0</ele><time>2026-05-02T07:55:52.231Z</time></trkpt><trkpt lat="44.1227202" lon="8.2531018"><ele>11.0</ele><time>2026-05-02T07:55:53.232Z</time></trkpt><trkpt lat="44.1226703" lon="8.2530357"><ele>11.0</ele><time>2026-05-02T07:55:54.225Z</time></trkpt><trkpt lat="44.1226195" lon="8.2529625"><ele>11.0</ele><time>2026-05-02T07:55:55.224Z</time></trkpt><trkpt lat="44.1225658" lon="8.2528786"><ele>11.0</ele><time>2026-05-02T07:55:56.231Z</time></trkpt><trkpt lat="44.1225136" lon="8.2527913"><ele>11.0</ele><time>2026-05-02T07:55:57.23Z</time></trkpt><trkpt lat="44.1224707" lon="8.2527163"><ele>11.0</ele><time>2026-05-02T07:55:58.241Z</time></trkpt><trkpt lat="44.1224034" lon="8.2525992"><ele>11.0</ele><time>2026-05-02T07:56:00.228Z</time></trkpt><trkpt lat="44.122352" lon="8.2525196"><ele>11.0</ele><time>2026-05-02T07:56:02.216Z</time></trkpt><trkpt lat="44.1222863" lon="8.252445"><ele>11.0</ele><time>2026-05-02T07:56:06.217Z</time></trkpt><trkpt lat="44.1222356" lon="8.2523525"><ele>11.0</ele><time>2026-05-02T07:56:09.224Z</time></trkpt><trkpt lat="44.1221824" lon="8.2522632"><ele>11.200000000000001</ele><time>2026-05-02T07:56:11.218Z</time></trkpt><trkpt lat="44.1221102" lon="8.2521757"><ele>11.4</ele><time>2026-05-02T07:56:13.224Z</time></trkpt><trkpt lat="44.1220404" lon="8.2520726"><ele>11.6</ele><time>2026-05-02T07:56:15.224Z</time></trkpt><trkpt lat="44.1219518" lon="8.2519518"><ele>11.8</ele><time>2026-05-02T07:56:17.228Z</time></trkpt><trkpt lat="44.1218996" lon="8.2518822"><ele>12.0</ele><time>2026-05-02T07:56:18.226Z</time></trkpt><trkpt lat="44.1218534" lon="8.2518157"><ele>12.0</ele><time>2026-05-02T07:56:19.227Z</time></trkpt><trkpt lat="44.1218064" lon="8.2517516"><ele>12.0</ele><time>2026-05-02T07:56:20.229Z</time></trkpt><trkpt lat="44.1217423" lon="8.2516415"><ele>12.0</ele><time>2026-05-02T07:56:22.232Z</time></trkpt><trkpt lat="44.1216832" lon="8.2515567"><ele>12.0</ele><time>2026-05-02T07:56:25.234Z</time></trkpt><trkpt lat="44.1216238" lon="8.2515068"><ele>12.0</ele><time>2026-05-02T07:56:27.228Z</time></trkpt><trkpt lat="44.1215412" lon="8.2514351"><ele>12.0</ele><time>2026-05-02T07:56:29.237Z</time></trkpt><trkpt lat="44.1214461" lon="8.2513289"><ele>11.666666666666666</ele><time>2026-05-02T07:56:31.23Z</time></trkpt><trkpt lat="44.1213959" lon="8.251263"><ele>11.333333333333334</ele><time>2026-05-02T07:56:32.232Z</time></trkpt><trkpt lat="44.1213451" lon="8.2511927"><ele>11.0</ele><time>2026-05-02T07:56:33.23Z</time></trkpt><trkpt lat="44.1212924" lon="8.2511231"><ele>10.666666666666668</ele><time>2026-05-02T07:56:34.23Z</time></trkpt><trkpt lat="44.1212374" lon="8.2510479"><ele>10.333333333333334</ele><time>2026-05-02T07:56:35.224Z</time></trkpt><trkpt lat="44.1211789" lon="8.2509685"><ele>10.0</ele><time>2026-05-02T07:56:36.225Z</time></trkpt><trkpt lat="44.1211208" lon="8.2508884"><ele>10.0</ele><time>2026-05-02T07:56:37.229Z</time></trkpt><trkpt lat="44.1210561" lon="8.2508077"><ele>10.0</ele><time>2026-05-02T07:56:38.226Z</time></trkpt><trkpt lat="44.1209904" lon="8.2507289"><ele>10.0</ele><time>2026-05-02T07:56:39.224Z</time></trkpt><trkpt lat="44.1209188" lon="8.2506409"><ele>10.0</ele><time>2026-05-02T07:56:40.232Z</time></trkpt><trkpt lat="44.1208449" lon="8.2505504"><ele>10.0</ele><time>2026-05-02T07:56:41.231Z</time></trkpt><trkpt lat="44.1207704" lon="8.2504548"><ele>9.8</ele><time>2026-05-02T07:56:42.222Z</time></trkpt><trkpt lat="44.1206955" lon="8.2503598"><ele>9.6</ele><time>2026-05-02T07:56:43.233Z</time></trkpt><trkpt lat="44.1206213" lon="8.2502667"><ele>9.4</ele><time>2026-05-02T07:56:44.229Z</time></trkpt><trkpt lat="44.120546" lon="8.2501705"><ele>9.2</ele><time>2026-05-02T07:56:45.216Z</time></trkpt><trkpt lat="44.1204686" lon="8.2500754"><ele>9.0</ele><time>2026-05-02T07:56:46.227Z</time></trkpt><trkpt lat="44.1203814" lon="8.2499713"><ele>9.0</ele><time>2026-05-02T07:56:47.233Z</time></trkpt><trkpt lat="44.120292" lon="8.2498522"><ele>9.0</ele><time>2026-05-02T07:56:48.23Z</time></trkpt><trkpt lat="44.1201981" lon="8.2497297"><ele>9.0</ele><time>2026-05-02T07:56:49.233Z</time></trkpt><trkpt lat="44.1201055" lon="8.249611"><ele>9.0</ele><time>2026-05-02T07:56:50.227Z</time></trkpt><trkpt lat="44.1200249" lon="8.2495066"><ele>9.166666666666666</ele><time>2026-05-02T07:56:51.229Z</time></trkpt><trkpt lat="44.1199562" lon="8.2494082"><ele>9.333333333333334</ele><time>2026-05-02T07:56:52.231Z</time></trkpt><trkpt lat="44.1198999" lon="8.2493188"><ele>9.5</ele><time>2026-05-02T07:56:53.23Z</time></trkpt><trkpt lat="44.1198632" lon="8.2492282"><ele>9.666666666666668</ele><time>2026-05-02T07:56:54.232Z</time></trkpt><trkpt lat="44.1198404" lon="8.2491335"><ele>9.833333333333334</ele><time>2026-05-02T07:56:55.227Z</time></trkpt><trkpt lat="44.1198179" lon="8.249041"><ele>10.0</ele><time>2026-05-02T07:56:56.224Z</time></trkpt><trkpt lat="44.1197942" lon="8.2489517"><ele>9.5</ele><time>2026-05-02T07:56:57.23Z</time></trkpt><trkpt lat="44.1197689" lon="8.2488608"><ele>9.0</ele><time>2026-05-02T07:56:58.233Z</time></trkpt><trkpt lat="44.1197348" lon="8.2487611"><ele>8.5</ele><time>2026-05-02T07:56:59.225Z</time></trkpt><trkpt lat="44.1196863" lon="8.2486557"><ele>8.0</ele><time>2026-05-02T07:57:00.226Z</time></trkpt><trkpt lat="44.1196239" lon="8.2485498"><ele>7.500000000000001</ele><time>2026-05-02T07:57:01.224Z</time></trkpt><trkpt lat="44.1195463" lon="8.2484478"><ele>7.0</ele><time>2026-05-02T07:57:02.23Z</time></trkpt><trkpt lat="44.1194612" lon="8.2483458"><ele>7.0</ele><time>2026-05-02T07:57:03.231Z</time></trkpt><trkpt lat="44.1193714" lon="8.2482507"><ele>7.0</ele><time>2026-05-02T07:57:04.234Z</time></trkpt><trkpt lat="44.1192745" lon="8.2481679"><ele>7.0</ele><time>2026-05-02T07:57:05.232Z</time></trkpt><trkpt lat="44.1191692" lon="8.2481"><ele>7.0</ele><time>2026-05-02T07:57:06.224Z</time></trkpt><trkpt lat="44.1190556" lon="8.2480435"><ele>7.5</ele><time>2026-05-02T07:57:07.224Z</time></trkpt><trkpt lat="44.1189322" lon="8.2479865"><ele>8.0</ele><time>2026-05-02T07:57:08.219Z</time></trkpt><trkpt lat="44.1188051" lon="8.2479182"><ele>8.5</ele><time>2026-05-02T07:57:09.225Z</time></trkpt><trkpt lat="44.1186873" lon="8.2478348"><ele>9.0</ele><time>2026-05-02T07:57:10.223Z</time></trkpt><trkpt lat="44.118576" lon="8.2477398"><ele>9.0</ele><time>2026-05-02T07:57:11.221Z</time></trkpt><trkpt lat="44.1184709" lon="8.2476388"><ele>9.0</ele><time>2026-05-02T07:57:12.219Z</time></trkpt><trkpt lat="44.1183654" lon="8.247527"><ele>9.0</ele><time>2026-05-02T07:57:13.226Z</time></trkpt><trkpt lat="44.1182692" lon="8.2474047"><ele>9.0</ele><time>2026-05-02T07:57:14.226Z</time></trkpt><trkpt lat="44.1181869" lon="8.2472673"><ele>8.5</ele><time>2026-05-02T07:57:15.23Z</time></trkpt><trkpt lat="44.1181181" lon="8.2471199"><ele>8.0</ele><time>2026-05-02T07:57:16.237Z</time></trkpt><trkpt lat="44.1180581" lon="8.246965"><ele>7.5</ele><time>2026-05-02T07:57:17.226Z</time></trkpt><trkpt lat="44.1180088" lon="8.246807"><ele>7.0</ele><time>2026-05-02T07:57:18.221Z</time></trkpt><trkpt lat="44.1179683" lon="8.2466409"><ele>7.0</ele><time>2026-05-02T07:57:19.223Z</time></trkpt><trkpt lat="44.1179383" lon="8.2464619"><ele>7.0</ele><time>2026-05-02T07:57:20.222Z</time></trkpt><trkpt lat="44.1179165" lon="8.2462716"><ele>7.0</ele><time>2026-05-02T07:57:21.217Z</time></trkpt><trkpt lat="44.1179029" lon="8.2460666"><ele>7.0</ele><time>2026-05-02T07:57:22.218Z</time></trkpt><trkpt lat="44.117907" lon="8.2458331"><ele>7.0</ele><time>2026-05-02T07:57:23.225Z</time></trkpt><trkpt lat="44.1179101" lon="8.2455924"><ele>7.0</ele><time>2026-05-02T07:57:24.225Z</time></trkpt><trkpt lat="44.1179077" lon="8.2453564"><ele>7.0</ele><time>2026-05-02T07:57:25.231Z</time></trkpt><trkpt lat="44.1178943" lon="8.2451377"><ele>7.0</ele><time>2026-05-02T07:57:26.227Z</time></trkpt><trkpt lat="44.1178838" lon="8.2449229"><ele>7.0</ele><time>2026-05-02T07:57:27.228Z</time></trkpt><trkpt lat="44.1178557" lon="8.2447098"><ele>7.0</ele><time>2026-05-02T07:57:28.213Z</time></trkpt><trkpt lat="44.1178288" lon="8.2445217"><ele>7.0</ele><time>2026-05-02T07:57:29.216Z</time></trkpt><trkpt lat="44.1177952" lon="8.2443517"><ele>7.25</ele><time>2026-05-02T07:57:30.21Z</time></trkpt><trkpt lat="44.1177542" lon="8.2441852"><ele>7.5</ele><time>2026-05-02T07:57:31.201Z</time></trkpt><trkpt lat="44.1177188" lon="8.2440231"><ele>7.75</ele><time>2026-05-02T07:57:32.198Z</time></trkpt><trkpt lat="44.117688" lon="8.2438743"><ele>8.0</ele><time>2026-05-02T07:57:33.198Z</time></trkpt><trkpt lat="44.1176589" lon="8.2437109"><ele>8.0</ele><time>2026-05-02T07:57:34.2Z</time></trkpt><trkpt lat="44.117643" lon="8.2435454"><ele>8.0</ele><time>2026-05-02T07:57:35.208Z</time></trkpt><trkpt lat="44.1176244" lon="8.2433715"><ele>8.0</ele><time>2026-05-02T07:57:36.218Z</time></trkpt><trkpt lat="44.1176013" lon="8.2431853"><ele>8.0</ele><time>2026-05-02T07:57:37.215Z</time></trkpt><trkpt lat="44.117579" lon="8.2430028"><ele>8.0</ele><time>2026-05-02T07:57:38.214Z</time></trkpt><trkpt lat="44.1175554" lon="8.2428267"><ele>8.0</ele><time>2026-05-02T07:57:39.213Z</time></trkpt><trkpt lat="44.1175368" lon="8.242657"><ele>8.0</ele><time>2026-05-02T07:57:40.217Z</time></trkpt><trkpt lat="44.1175312" lon="8.2425014"><ele>8.0</ele><time>2026-05-02T07:57:41.218Z</time></trkpt><trkpt lat="44.1175343" lon="8.2423553"><ele>7.800000000000001</ele><time>2026-05-02T07:57:42.209Z</time></trkpt><trkpt lat="44.117546" lon="8.2422195"><ele>7.6000000000000005</ele><time>2026-05-02T07:57:43.214Z</time></trkpt><trkpt lat="44.1175562" lon="8.2421141"><ele>7.3999999999999995</ele><time>2026-05-02T07:57:44.212Z</time></trkpt><trkpt lat="44.1175137" lon="8.242006"><ele>7.199999999999999</ele><time>2026-05-02T07:57:46.21Z</time></trkpt><trkpt lat="44.1174067" lon="8.2419988"><ele>7.0</ele><time>2026-05-02T07:57:48.222Z</time></trkpt><trkpt lat="44.1173168" lon="8.2420248"><ele>6.75</ele><time>2026-05-02T07:57:49.225Z</time></trkpt><trkpt lat="44.1172052" lon="8.242036"><ele>6.5</ele><time>2026-05-02T07:57:50.218Z</time></trkpt><trkpt lat="44.1170814" lon="8.2420216"><ele>6.25</ele><time>2026-05-02T07:57:51.215Z</time></trkpt><trkpt lat="44.1169566" lon="8.2419853"><ele>6.0</ele><time>2026-05-02T07:57:52.219Z</time></trkpt><trkpt lat="44.1168315" lon="8.2419345"><ele>6.0</ele><time>2026-05-02T07:57:53.217Z</time></trkpt><trkpt lat="44.1167111" lon="8.2418505"><ele>6.0</ele><time>2026-05-02T07:57:54.221Z</time></trkpt><trkpt lat="44.1165988" lon="8.2417559"><ele>6.0</ele><time>2026-05-02T07:57:55.211Z</time></trkpt><trkpt lat="44.116493" lon="8.2416633"><ele>6.0</ele><time>2026-05-02T07:57:56.223Z</time></trkpt><trkpt lat="44.1163941" lon="8.2415796"><ele>6.0</ele><time>2026-05-02T07:57:57.222Z</time></trkpt><trkpt lat="44.1163052" lon="8.2415005"><ele>6.0</ele><time>2026-05-02T07:57:58.232Z</time></trkpt><trkpt lat="44.1162235" lon="8.241426"><ele>6.0</ele><time>2026-05-02T07:57:59.237Z</time></trkpt><trkpt lat="44.1161446" lon="8.2413558"><ele>6.0</ele><time>2026-05-02T07:58:00.237Z</time></trkpt><trkpt lat="44.1160652" lon="8.2412876"><ele>6.0</ele><time>2026-05-02T07:58:01.225Z</time></trkpt><trkpt lat="44.1159798" lon="8.2412126"><ele>5.75</ele><time>2026-05-02T07:58:02.231Z</time></trkpt><trkpt lat="44.1158875" lon="8.2411341"><ele>5.5</ele><time>2026-05-02T07:58:03.223Z</time></trkpt><trkpt lat="44.1157835" lon="8.2410555"><ele>5.25</ele><time>2026-05-02T07:58:04.229Z</time></trkpt><trkpt lat="44.1156766" lon="8.2409636"><ele>5.0</ele><time>2026-05-02T07:58:05.232Z</time></trkpt><trkpt lat="44.1155693" lon="8.2408697"><ele>5.5</ele><time>2026-05-02T07:58:06.235Z</time></trkpt><trkpt lat="44.1154569" lon="8.2407748"><ele>6.0</ele><time>2026-05-02T07:58:07.228Z</time></trkpt><trkpt lat="44.1153422" lon="8.2406821"><ele>6.5</ele><time>2026-05-02T07:58:08.233Z</time></trkpt><trkpt lat="44.115225" lon="8.2405853"><ele>7.0</ele><time>2026-05-02T07:58:09.236Z</time></trkpt><trkpt lat="44.1151101" lon="8.2404915"><ele>7.0</ele><time>2026-05-02T07:58:10.237Z</time></trkpt><trkpt lat="44.1149947" lon="8.2403947"><ele>7.0</ele><time>2026-05-02T07:58:11.232Z</time></trkpt><trkpt lat="44.1148835" lon="8.2403027"><ele>7.0</ele><time>2026-05-02T07:58:12.236Z</time></trkpt><trkpt lat="44.1147817" lon="8.2402133"><ele>7.0</ele><time>2026-05-02T07:58:13.228Z</time></trkpt><trkpt lat="44.1146842" lon="8.2401319"><ele>6.8</ele><time>2026-05-02T07:58:14.234Z</time></trkpt><trkpt lat="44.1145901" lon="8.2400563"><ele>6.6</ele><time>2026-05-02T07:58:15.235Z</time></trkpt><trkpt lat="44.114494" lon="8.239982"><ele>6.3999999999999995</ele><time>2026-05-02T07:58:16.236Z</time></trkpt><trkpt lat="44.1143978" lon="8.2399082"><ele>6.199999999999999</ele><time>2026-05-02T07:58:17.239Z</time></trkpt><trkpt lat="44.1143011" lon="8.2398341"><ele>6.0</ele><time>2026-05-02T07:58:18.232Z</time></trkpt><trkpt lat="44.1142038" lon="8.2397612"><ele>6.0</ele><time>2026-05-02T07:58:19.233Z</time></trkpt><trkpt lat="44.1141096" lon="8.2396897"><ele>6.0</ele><time>2026-05-02T07:58:20.229Z</time></trkpt><trkpt lat="44.1140183" lon="8.2396123"><ele>6.0</ele><time>2026-05-02T07:58:21.232Z</time></trkpt><trkpt lat="44.1139356" lon="8.2395404"><ele>6.0</ele><time>2026-05-02T07:58:22.235Z</time></trkpt><trkpt lat="44.1138649" lon="8.2394702"><ele>6.0</ele><time>2026-05-02T07:58:23.23Z</time></trkpt><trkpt lat="44.1138102" lon="8.2393935"><ele>6.5</ele><time>2026-05-02T07:58:24.23Z</time></trkpt><trkpt lat="44.1137674" lon="8.239309"><ele>7.0</ele><time>2026-05-02T07:58:25.221Z</time></trkpt><trkpt lat="44.1137462" lon="8.2392057"><ele>7.5</ele><time>2026-05-02T07:58:26.224Z</time></trkpt><trkpt lat="44.1137205" lon="8.2391107"><ele>8.0</ele><time>2026-05-02T07:58:27.231Z</time></trkpt><trkpt lat="44.1136852" lon="8.2390308"><ele>8.5</ele><time>2026-05-02T07:58:28.227Z</time></trkpt><trkpt lat="44.1135932" lon="8.2389529"><ele>9.0</ele><time>2026-05-02T07:58:30.222Z</time></trkpt><trkpt lat="44.1134548" lon="8.2389758"><ele>9.0</ele><time>2026-05-02T07:58:32.228Z</time></trkpt><trkpt lat="44.1133675" lon="8.2389676"><ele>9.0</ele><time>2026-05-02T07:58:33.223Z</time></trkpt><trkpt lat="44.1132871" lon="8.2389365"><ele>9.0</ele><time>2026-05-02T07:58:34.217Z</time></trkpt><trkpt lat="44.1131959" lon="8.238886"><ele>9.0</ele><time>2026-05-02T07:58:35.218Z</time></trkpt><trkpt lat="44.1130974" lon="8.2388272"><ele>9.0</ele><time>2026-05-02T07:58:36.225Z</time></trkpt><trkpt lat="44.1129965" lon="8.2387356"><ele>9.25</ele><time>2026-05-02T07:58:37.232Z</time></trkpt><trkpt lat="44.1128783" lon="8.2386399"><ele>9.5</ele><time>2026-05-02T07:58:38.223Z</time></trkpt><trkpt lat="44.1127588" lon="8.2385297"><ele>9.75</ele><time>2026-05-02T07:58:39.221Z</time></trkpt><trkpt lat="44.1126487" lon="8.2384071"><ele>10.0</ele><time>2026-05-02T07:58:40.231Z</time></trkpt><trkpt lat="44.1125468" lon="8.2382697"><ele>10.0</ele><time>2026-05-02T07:58:41.22Z</time></trkpt><trkpt lat="44.1124491" lon="8.238135"><ele>10.0</ele><time>2026-05-02T07:58:42.23Z</time></trkpt><trkpt lat="44.1123439" lon="8.2379997"><ele>10.0</ele><time>2026-05-02T07:58:43.221Z</time></trkpt><trkpt lat="44.1122346" lon="8.237868"><ele>10.0</ele><time>2026-05-02T07:58:44.222Z</time></trkpt><trkpt lat="44.1121307" lon="8.2377423"><ele>11.0</ele><time>2026-05-02T07:58:45.23Z</time></trkpt><trkpt lat="44.1120256" lon="8.2376239"><ele>12.0</ele><time>2026-05-02T07:58:46.231Z</time></trkpt><trkpt lat="44.1119285" lon="8.2375067"><ele>13.0</ele><time>2026-05-02T07:58:47.236Z</time></trkpt><trkpt lat="44.1118461" lon="8.237406"><ele>14.0</ele><time>2026-05-02T07:58:48.232Z</time></trkpt><trkpt lat="44.1117649" lon="8.2373206"><ele>14.6</ele><time>2026-05-02T07:58:49.236Z</time></trkpt><trkpt lat="44.1116908" lon="8.2372318"><ele>15.2</ele><time>2026-05-02T07:58:50.229Z</time></trkpt><trkpt lat="44.1116294" lon="8.2371307"><ele>15.799999999999999</ele><time>2026-05-02T07:58:51.239Z</time></trkpt><trkpt lat="44.1115847" lon="8.2370245"><ele>16.4</ele><time>2026-05-02T07:58:52.242Z</time></trkpt><trkpt lat="44.1115889" lon="8.2369136"><ele>17.0</ele><time>2026-05-02T07:58:53.234Z</time></trkpt><trkpt lat="44.1116464" lon="8.2367913"><ele>17.0</ele><time>2026-05-02T07:58:54.231Z</time></trkpt><trkpt lat="44.1117357" lon="8.2366603"><ele>17.0</ele><time>2026-05-02T07:58:55.217Z</time></trkpt><trkpt lat="44.1118389" lon="8.2365229"><ele>17.0</ele><time>2026-05-02T07:58:56.226Z</time></trkpt><trkpt lat="44.111937" lon="8.2363708"><ele>17.0</ele><time>2026-05-02T07:58:57.226Z</time></trkpt><trkpt lat="44.1120336" lon="8.2362148"><ele>17.333333333333336</ele><time>2026-05-02T07:58:58.222Z</time></trkpt><trkpt lat="44.1121322" lon="8.2360537"><ele>17.666666666666668</ele><time>2026-05-02T07:58:59.22Z</time></trkpt><trkpt lat="44.1122331" lon="8.2358923"><ele>18.0</ele><time>2026-05-02T07:59:00.219Z</time></trkpt><trkpt lat="44.1123383" lon="8.2357267"><ele>18.5</ele><time>2026-05-02T07:59:01.229Z</time></trkpt><trkpt lat="44.1124168" lon="8.2355614"><ele>19.0</ele><time>2026-05-02T07:59:02.23Z</time></trkpt><trkpt lat="44.1124926" lon="8.2354145"><ele>19.5</ele><time>2026-05-02T07:59:03.228Z</time></trkpt><trkpt lat="44.1125578" lon="8.235248"><ele>20.0</ele><time>2026-05-02T07:59:04.229Z</time></trkpt><trkpt lat="44.112614" lon="8.2350942"><ele>20.0</ele><time>2026-05-02T07:59:05.219Z</time></trkpt><trkpt lat="44.1126802" lon="8.2349514"><ele>20.0</ele><time>2026-05-02T07:59:06.217Z</time></trkpt><trkpt lat="44.1127373" lon="8.2348196"><ele>20.0</ele><time>2026-05-02T07:59:07.212Z</time></trkpt><trkpt lat="44.1127928" lon="8.2346854"><ele>20.0</ele><time>2026-05-02T07:59:08.224Z</time></trkpt><trkpt lat="44.1128436" lon="8.2345553"><ele>20.333333333333336</ele><time>2026-05-02T07:59:09.227Z</time></trkpt><trkpt lat="44.1128953" lon="8.2344402"><ele>20.666666666666668</ele><time>2026-05-02T07:59:10.224Z</time></trkpt><trkpt lat="44.1129374" lon="8.2343234"><ele>21.0</ele><time>2026-05-02T07:59:11.224Z</time></trkpt><trkpt lat="44.1129797" lon="8.2342169"><ele>21.333333333333332</ele><time>2026-05-02T07:59:12.225Z</time></trkpt><trkpt lat="44.1130199" lon="8.2341209"><ele>21.666666666666664</ele><time>2026-05-02T07:59:13.223Z</time></trkpt><trkpt lat="44.1130662" lon="8.2340163"><ele>22.0</ele><time>2026-05-02T07:59:14.228Z</time></trkpt><trkpt lat="44.1131227" lon="8.2338986"><ele>22.200000000000003</ele><time>2026-05-02T07:59:15.227Z</time></trkpt><trkpt lat="44.1131827" lon="8.2337764"><ele>22.4</ele><time>2026-05-02T07:59:16.23Z</time></trkpt><trkpt lat="44.1132448" lon="8.2336502"><ele>22.6</ele><time>2026-05-02T07:59:17.226Z</time></trkpt><trkpt lat="44.1133071" lon="8.2335184"><ele>22.799999999999997</ele><time>2026-05-02T07:59:18.229Z</time></trkpt><trkpt lat="44.1133697" lon="8.2333816"><ele>23.0</ele><time>2026-05-02T07:59:19.227Z</time></trkpt><trkpt lat="44.1134277" lon="8.2332559"><ele>23.2</ele><time>2026-05-02T07:59:20.232Z</time></trkpt><trkpt lat="44.1134821" lon="8.2331379"><ele>23.4</ele><time>2026-05-02T07:59:21.236Z</time></trkpt><trkpt lat="44.1135316" lon="8.2330222"><ele>23.599999999999998</ele><time>2026-05-02T07:59:22.238Z</time></trkpt><trkpt lat="44.1135875" lon="8.232902"><ele>23.799999999999997</ele><time>2026-05-02T07:59:23.239Z</time></trkpt><trkpt lat="44.1136393" lon="8.232776"><ele>24.0</ele><time>2026-05-02T07:59:24.232Z</time></trkpt><trkpt lat="44.1136866" lon="8.2326454"><ele>24.0</ele><time>2026-05-02T07:59:25.239Z</time></trkpt><trkpt lat="44.1137325" lon="8.2325181"><ele>24.0</ele><time>2026-05-02T07:59:26.231Z</time></trkpt><trkpt lat="44.1137823" lon="8.232392"><ele>24.0</ele><time>2026-05-02T07:59:27.235Z</time></trkpt><trkpt lat="44.1138314" lon="8.2322557"><ele>24.0</ele><time>2026-05-02T07:59:28.236Z</time></trkpt><trkpt lat="44.113883" lon="8.2321233"><ele>24.0</ele><time>2026-05-02T07:59:29.237Z</time></trkpt><trkpt lat="44.1139325" lon="8.2319853"><ele>23.799999999999997</ele><time>2026-05-02T07:59:30.232Z</time></trkpt><trkpt lat="44.1139832" lon="8.2318498"><ele>23.599999999999998</ele><time>2026-05-02T07:59:31.24Z</time></trkpt><trkpt lat="44.1140373" lon="8.2317123"><ele>23.4</ele><time>2026-05-02T07:59:32.238Z</time></trkpt><trkpt lat="44.1140845" lon="8.231568"><ele>23.2</ele><time>2026-05-02T07:59:33.237Z</time></trkpt><trkpt lat="44.1141326" lon="8.2314262"><ele>23.0</ele><time>2026-05-02T07:59:34.233Z</time></trkpt><trkpt lat="44.114182" lon="8.2312814"><ele>23.0</ele><time>2026-05-02T07:59:35.242Z</time></trkpt><trkpt lat="44.1142329" lon="8.231134"><ele>23.0</ele><time>2026-05-02T07:59:36.234Z</time></trkpt><trkpt lat="44.114287" lon="8.2309827"><ele>23.0</ele><time>2026-05-02T07:59:37.236Z</time></trkpt><trkpt lat="44.1143428" lon="8.2308242"><ele>23.0</ele><time>2026-05-02T07:59:38.23Z</time></trkpt><trkpt lat="44.1143993" lon="8.230658"><ele>24.75</ele><time>2026-05-02T07:59:39.238Z</time></trkpt><trkpt lat="44.1144614" lon="8.2304842"><ele>26.5</ele><time>2026-05-02T07:59:40.227Z</time></trkpt><trkpt lat="44.1145259" lon="8.230306"><ele>28.25</ele><time>2026-05-02T07:59:41.231Z</time></trkpt><trkpt lat="44.1146012" lon="8.2301187"><ele>30.0</ele><time>2026-05-02T07:59:42.232Z</time></trkpt><trkpt lat="44.1146938" lon="8.2299478"><ele>29.0</ele><time>2026-05-02T07:59:43.226Z</time></trkpt><trkpt lat="44.1147942" lon="8.2297869"><ele>28.0</ele><time>2026-05-02T07:59:44.226Z</time></trkpt><trkpt lat="44.1148989" lon="8.2296291"><ele>27.0</ele><time>2026-05-02T07:59:45.234Z</time></trkpt><trkpt lat="44.1150052" lon="8.2294729"><ele>27.0</ele><time>2026-05-02T07:59:46.231Z</time></trkpt><trkpt lat="44.1151182" lon="8.2293226"><ele>27.0</ele><time>2026-05-02T07:59:47.234Z</time></trkpt><trkpt lat="44.115236" lon="8.2291918"><ele>27.0</ele><time>2026-05-02T07:59:48.224Z</time></trkpt><trkpt lat="44.1153683" lon="8.2290823"><ele>27.0</ele><time>2026-05-02T07:59:49.23Z</time></trkpt><trkpt lat="44.1154996" lon="8.2290045"><ele>27.0</ele><time>2026-05-02T07:59:50.232Z</time></trkpt><trkpt lat="44.1156216" lon="8.2289292"><ele>27.0</ele><time>2026-05-02T07:59:51.235Z</time></trkpt><trkpt lat="44.1157244" lon="8.2288535"><ele>27.0</ele><time>2026-05-02T07:59:52.231Z</time></trkpt><trkpt lat="44.1158148" lon="8.2287938"><ele>27.5</ele><time>2026-05-02T07:59:53.236Z</time></trkpt><trkpt lat="44.1159016" lon="8.2287575"><ele>28.0</ele><time>2026-05-02T07:59:54.235Z</time></trkpt><trkpt lat="44.1159811" lon="8.2287719"><ele>28.5</ele><time>2026-05-02T07:59:55.241Z</time></trkpt><trkpt lat="44.1160604" lon="8.2287981"><ele>29.0</ele><time>2026-05-02T07:59:56.217Z</time></trkpt><trkpt lat="44.1161332" lon="8.2288049"><ele>29.5</ele><time>2026-05-02T07:59:57.222Z</time></trkpt><trkpt lat="44.116232" lon="8.2287361"><ele>30.0</ele><time>2026-05-02T07:59:59.231Z</time></trkpt><trkpt lat="44.1162471" lon="8.2286372"><ele>30.0</ele><time>2026-05-02T08:00:00.228Z</time></trkpt><trkpt lat="44.1162601" lon="8.2285057"><ele>30.0</ele><time>2026-05-02T08:00:01.246Z</time></trkpt><trkpt lat="44.1162895" lon="8.2283515"><ele>30.0</ele><time>2026-05-02T08:00:02.232Z</time></trkpt><trkpt lat="44.1163441" lon="8.228188"><ele>30.0</ele><time>2026-05-02T08:00:03.231Z</time></trkpt><trkpt lat="44.1164215" lon="8.2280256"><ele>29.0</ele><time>2026-05-02T08:00:04.234Z</time></trkpt><trkpt lat="44.1165082" lon="8.2278645"><ele>28.0</ele><time>2026-05-02T08:00:05.235Z</time></trkpt><trkpt lat="44.1166039" lon="8.2277059"><ele>27.0</ele><time>2026-05-02T08:00:06.237Z</time></trkpt><trkpt lat="44.1167088" lon="8.2275266"><ele>27.0</ele><time>2026-05-02T08:00:07.227Z</time></trkpt><trkpt lat="44.1168177" lon="8.2273369"><ele>27.0</ele><time>2026-05-02T08:00:08.237Z</time></trkpt><trkpt lat="44.1169155" lon="8.2271618"><ele>27.0</ele><time>2026-05-02T08:00:09.231Z</time></trkpt><trkpt lat="44.1170113" lon="8.2269959"><ele>32.0</ele><time>2026-05-02T08:00:10.207Z</time></trkpt><trkpt lat="44.1171143" lon="8.2268375"><ele>37.0</ele><time>2026-05-02T08:00:11.205Z</time></trkpt><trkpt lat="44.1172099" lon="8.2266616"><ele>42.0</ele><time>2026-05-02T08:00:12.198Z</time></trkpt><trkpt lat="44.1173488" lon="8.2264468"><ele>40.0</ele><time>2026-05-02T08:00:13.194Z</time></trkpt><trkpt lat="44.1174684" lon="8.2262639"><ele>38.0</ele><time>2026-05-02T08:00:14.202Z</time></trkpt><trkpt lat="44.1175615" lon="8.2260832"><ele>36.0</ele><time>2026-05-02T08:00:15.217Z</time></trkpt><trkpt lat="44.1176593" lon="8.2259003"><ele>36.0</ele><time>2026-05-02T08:00:16.228Z</time></trkpt><trkpt lat="44.1177611" lon="8.2257132"><ele>36.0</ele><time>2026-05-02T08:00:17.214Z</time></trkpt><trkpt lat="44.1178629" lon="8.2255191"><ele>36.0</ele><time>2026-05-02T08:00:18.222Z</time></trkpt><trkpt lat="44.1179476" lon="8.2253354"><ele>42.0</ele><time>2026-05-02T08:00:19.216Z</time></trkpt><trkpt lat="44.1180338" lon="8.2251564"><ele>48.0</ele><time>2026-05-02T08:00:20.226Z</time></trkpt><trkpt lat="44.1181221" lon="8.2249946"><ele>54.0</ele><time>2026-05-02T08:00:21.221Z</time></trkpt><trkpt lat="44.118216" lon="8.2248313"><ele>49.75</ele><time>2026-05-02T08:00:22.231Z</time></trkpt><trkpt lat="44.1182981" lon="8.224666"><ele>45.5</ele><time>2026-05-02T08:00:23.225Z</time></trkpt><trkpt lat="44.1183715" lon="8.2245032"><ele>41.25</ele><time>2026-05-02T08:00:24.22Z</time></trkpt><trkpt lat="44.1184479" lon="8.2243346"><ele>37.0</ele><time>2026-05-02T08:00:25.223Z</time></trkpt><trkpt lat="44.1185271" lon="8.2241685"><ele>37.0</ele><time>2026-05-02T08:00:26.214Z</time></trkpt><trkpt lat="44.1186058" lon="8.2239939"><ele>37.0</ele><time>2026-05-02T08:00:27.219Z</time></trkpt><trkpt lat="44.1186883" lon="8.2238228"><ele>37.0</ele><time>2026-05-02T08:00:28.228Z</time></trkpt><trkpt lat="44.1187746" lon="8.2236608"><ele>37.0</ele><time>2026-05-02T08:00:29.221Z</time></trkpt><trkpt lat="44.1188601" lon="8.2234905"><ele>36.5</ele><time>2026-05-02T08:00:30.229Z</time></trkpt><trkpt lat="44.1189484" lon="8.2233335"><ele>36.0</ele><time>2026-05-02T08:00:31.235Z</time></trkpt><trkpt lat="44.1190295" lon="8.2231718"><ele>35.5</ele><time>2026-05-02T08:00:32.227Z</time></trkpt><trkpt lat="44.1191196" lon="8.2230056"><ele>35.0</ele><time>2026-05-02T08:00:33.22Z</time></trkpt><trkpt lat="44.1192039" lon="8.222834"><ele>35.0</ele><time>2026-05-02T08:00:34.227Z</time></trkpt><trkpt lat="44.11929" lon="8.222649"><ele>35.0</ele><time>2026-05-02T08:00:35.226Z</time></trkpt><trkpt lat="44.1193799" lon="8.2224713"><ele>35.0</ele><time>2026-05-02T08:00:36.22Z</time></trkpt><trkpt lat="44.1194638" lon="8.2222932"><ele>39.666666666666664</ele><time>2026-05-02T08:00:37.221Z</time></trkpt><trkpt lat="44.1195491" lon="8.2221112"><ele>44.33333333333333</ele><time>2026-05-02T08:00:38.231Z</time></trkpt><trkpt lat="44.1196325" lon="8.2219378"><ele>49.0</ele><time>2026-05-02T08:00:39.228Z</time></trkpt><trkpt lat="44.1197266" lon="8.2217698"><ele>49.0</ele><time>2026-05-02T08:00:40.227Z</time></trkpt><trkpt lat="44.1198208" lon="8.2215869"><ele>49.0</ele><time>2026-05-02T08:00:41.228Z</time></trkpt><trkpt lat="44.1199137" lon="8.2214037"><ele>49.0</ele><time>2026-05-02T08:00:42.219Z</time></trkpt><trkpt lat="44.1200022" lon="8.2212136"><ele>43.666666666666664</ele><time>2026-05-02T08:00:43.223Z</time></trkpt><trkpt lat="44.120092" lon="8.2210362"><ele>38.33333333333333</ele><time>2026-05-02T08:00:44.22Z</time></trkpt><trkpt lat="44.1201791" lon="8.2208604"><ele>33.0</ele><time>2026-05-02T08:00:45.235Z</time></trkpt><trkpt lat="44.1202649" lon="8.2206829"><ele>34.666666666666664</ele><time>2026-05-02T08:00:46.222Z</time></trkpt><trkpt lat="44.1203502" lon="8.2204967"><ele>36.33333333333333</ele><time>2026-05-02T08:00:47.227Z</time></trkpt><trkpt lat="44.120438" lon="8.2202997"><ele>38.0</ele><time>2026-05-02T08:00:48.226Z</time></trkpt><trkpt lat="44.1205299" lon="8.2201114"><ele>38.0</ele><time>2026-05-02T08:00:49.223Z</time></trkpt><trkpt lat="44.1206174" lon="8.2199281"><ele>38.0</ele><time>2026-05-02T08:00:50.233Z</time></trkpt><trkpt lat="44.1207098" lon="8.2197446"><ele>38.0</ele><time>2026-05-02T08:00:51.225Z</time></trkpt><trkpt lat="44.1207895" lon="8.2195498"><ele>38.0</ele><time>2026-05-02T08:00:52.224Z</time></trkpt><trkpt lat="44.1208612" lon="8.2193601"><ele>38.0</ele><time>2026-05-02T08:00:53.222Z</time></trkpt><trkpt lat="44.1209227" lon="8.2191584"><ele>38.0</ele><time>2026-05-02T08:00:54.226Z</time></trkpt><trkpt lat="44.1209837" lon="8.2189697"><ele>38.0</ele><time>2026-05-02T08:00:55.224Z</time></trkpt><trkpt lat="44.1210496" lon="8.2187756"><ele>38.0</ele><time>2026-05-02T08:00:56.223Z</time></trkpt><trkpt lat="44.1211025" lon="8.2185746"><ele>38.0</ele><time>2026-05-02T08:00:57.219Z</time></trkpt><trkpt lat="44.1211407" lon="8.2183888"><ele>38.0</ele><time>2026-05-02T08:00:58.224Z</time></trkpt><trkpt lat="44.1211802" lon="8.2182175"><ele>40.0</ele><time>2026-05-02T08:00:59.229Z</time></trkpt><trkpt lat="44.1212232" lon="8.2180497"><ele>42.0</ele><time>2026-05-02T08:01:00.23Z</time></trkpt><trkpt lat="44.1212581" lon="8.2178954"><ele>44.0</ele><time>2026-05-02T08:01:01.237Z</time></trkpt><trkpt lat="44.121287" lon="8.2177381"><ele>46.0</ele><time>2026-05-02T08:01:02.224Z</time></trkpt><trkpt lat="44.1213156" lon="8.2175923"><ele>46.0</ele><time>2026-05-02T08:01:03.228Z</time></trkpt><trkpt lat="44.1213481" lon="8.2174403"><ele>46.0</ele><time>2026-05-02T08:01:04.224Z</time></trkpt><trkpt lat="44.1213781" lon="8.2172842"><ele>46.0</ele><time>2026-05-02T08:01:05.231Z</time></trkpt><trkpt lat="44.1214107" lon="8.2171313"><ele>46.0</ele><time>2026-05-02T08:01:06.224Z</time></trkpt><trkpt lat="44.1214385" lon="8.2169776"><ele>47.4</ele><time>2026-05-02T08:01:07.229Z</time></trkpt><trkpt lat="44.1214657" lon="8.2168369"><ele>48.8</ele><time>2026-05-02T08:01:08.227Z</time></trkpt><trkpt lat="44.1214902" lon="8.2166974"><ele>50.199999999999996</ele><time>2026-05-02T08:01:09.232Z</time></trkpt><trkpt lat="44.12151" lon="8.216567"><ele>51.599999999999994</ele><time>2026-05-02T08:01:10.226Z</time></trkpt><trkpt lat="44.1215272" lon="8.2164399"><ele>53.0</ele><time>2026-05-02T08:01:11.216Z</time></trkpt><trkpt lat="44.1215437" lon="8.216314"><ele>53.00000000000001</ele><time>2026-05-02T08:01:12.22Z</time></trkpt><trkpt lat="44.1215594" lon="8.2161864"><ele>53.0</ele><time>2026-05-02T08:01:13.218Z</time></trkpt><trkpt lat="44.1215814" lon="8.2160636"><ele>53.0</ele><time>2026-05-02T08:01:14.216Z</time></trkpt><trkpt lat="44.1216085" lon="8.2159465"><ele>53.0</ele><time>2026-05-02T08:01:15.218Z</time></trkpt><trkpt lat="44.1216342" lon="8.2158416"><ele>53.00000000000001</ele><time>2026-05-02T08:01:16.227Z</time></trkpt><trkpt lat="44.1216611" lon="8.2157441"><ele>53.0</ele><time>2026-05-02T08:01:17.226Z</time></trkpt><trkpt lat="44.1216959" lon="8.2156438"><ele>52.50000000000001</ele><time>2026-05-02T08:01:18.226Z</time></trkpt><trkpt lat="44.1217293" lon="8.21554"><ele>52.0</ele><time>2026-05-02T08:01:19.236Z</time></trkpt><trkpt lat="44.1217664" lon="8.2154343"><ele>51.5</ele><time>2026-05-02T08:01:20.228Z</time></trkpt><trkpt lat="44.1218076" lon="8.2153298"><ele>51.0</ele><time>2026-05-02T08:01:21.228Z</time></trkpt><trkpt lat="44.121854" lon="8.2152217"><ele>50.50000000000001</ele><time>2026-05-02T08:01:22.236Z</time></trkpt><trkpt lat="44.1219095" lon="8.2151094"><ele>50.0</ele><time>2026-05-02T08:01:23.235Z</time></trkpt><trkpt lat="44.1219687" lon="8.2149937"><ele>50.0</ele><time>2026-05-02T08:01:24.233Z</time></trkpt><trkpt lat="44.1220326" lon="8.2148783"><ele>50.0</ele><time>2026-05-02T08:01:25.236Z</time></trkpt><trkpt lat="44.122099" lon="8.2147562"><ele>50.0</ele><time>2026-05-02T08:01:26.241Z</time></trkpt><trkpt lat="44.122172" lon="8.2146367"><ele>50.0</ele><time>2026-05-02T08:01:27.237Z</time></trkpt><trkpt lat="44.1222537" lon="8.2145136"><ele>50.0</ele><time>2026-05-02T08:01:28.226Z</time></trkpt><trkpt lat="44.122341" lon="8.2143952"><ele>48.5</ele><time>2026-05-02T08:01:29.24Z</time></trkpt><trkpt lat="44.1224369" lon="8.2142756"><ele>47.0</ele><time>2026-05-02T08:01:30.228Z</time></trkpt><trkpt lat="44.122534" lon="8.2141649"><ele>45.5</ele><time>2026-05-02T08:01:31.229Z</time></trkpt><trkpt lat="44.1226297" lon="8.2140599"><ele>44.0</ele><time>2026-05-02T08:01:32.236Z</time></trkpt><trkpt lat="44.1227284" lon="8.2139581"><ele>47.5</ele><time>2026-05-02T08:01:33.227Z</time></trkpt><trkpt lat="44.1228277" lon="8.213851"><ele>51.0</ele><time>2026-05-02T08:01:34.226Z</time></trkpt><trkpt lat="44.122916" lon="8.2137317"><ele>54.5</ele><time>2026-05-02T08:01:35.222Z</time></trkpt><trkpt lat="44.1229965" lon="8.2136005"><ele>58.0</ele><time>2026-05-02T08:01:36.218Z</time></trkpt><trkpt lat="44.1230714" lon="8.2134498"><ele>58.0</ele><time>2026-05-02T08:01:37.217Z</time></trkpt><trkpt lat="44.1231291" lon="8.2132921"><ele>58.0</ele><time>2026-05-02T08:01:38.222Z</time></trkpt><trkpt lat="44.1231741" lon="8.2131214"><ele>58.0</ele><time>2026-05-02T08:01:39.222Z</time></trkpt><trkpt lat="44.1232074" lon="8.2129386"><ele>58.0</ele><time>2026-05-02T08:01:40.217Z</time></trkpt><trkpt lat="44.1232494" lon="8.2127588"><ele>58.5</ele><time>2026-05-02T08:01:41.229Z</time></trkpt><trkpt lat="44.1233015" lon="8.2125867"><ele>59.0</ele><time>2026-05-02T08:01:42.226Z</time></trkpt><trkpt lat="44.1233562" lon="8.2124277"><ele>59.5</ele><time>2026-05-02T08:01:43.227Z</time></trkpt><trkpt lat="44.1234081" lon="8.2122845"><ele>60.0</ele><time>2026-05-02T08:01:44.223Z</time></trkpt><trkpt lat="44.1234611" lon="8.2121475"><ele>60.0</ele><time>2026-05-02T08:01:45.22Z</time></trkpt><trkpt lat="44.1235133" lon="8.2120165"><ele>60.0</ele><time>2026-05-02T08:01:46.217Z</time></trkpt><trkpt lat="44.1235675" lon="8.2118838"><ele>60.0</ele><time>2026-05-02T08:01:47.22Z</time></trkpt><trkpt lat="44.1236254" lon="8.2117537"><ele>60.0</ele><time>2026-05-02T08:01:48.221Z</time></trkpt><trkpt lat="44.123684" lon="8.2116166"><ele>60.0</ele><time>2026-05-02T08:01:49.224Z</time></trkpt><trkpt lat="44.1237485" lon="8.2114745"><ele>58.0</ele><time>2026-05-02T08:01:50.214Z</time></trkpt><trkpt lat="44.1238195" lon="8.2113217"><ele>56.0</ele><time>2026-05-02T08:01:51.222Z</time></trkpt><trkpt lat="44.1238986" lon="8.2111567"><ele>54.0</ele><time>2026-05-02T08:01:52.216Z</time></trkpt><trkpt lat="44.1239818" lon="8.2109732"><ele>52.0</ele><time>2026-05-02T08:01:53.218Z</time></trkpt><trkpt lat="44.1240715" lon="8.2107692"><ele>52.666666666666664</ele><time>2026-05-02T08:01:54.221Z</time></trkpt><trkpt lat="44.12416" lon="8.2105435"><ele>53.33333333333333</ele><time>2026-05-02T08:01:55.216Z</time></trkpt><trkpt lat="44.1242601" lon="8.210338"><ele>54.0</ele><time>2026-05-02T08:01:56.222Z</time></trkpt><trkpt lat="44.1243519" lon="8.2101386"><ele>54.0</ele><time>2026-05-02T08:01:57.217Z</time></trkpt><trkpt lat="44.1244407" lon="8.209931"><ele>54.0</ele><time>2026-05-02T08:01:58.236Z</time></trkpt><trkpt lat="44.1245281" lon="8.2097302"><ele>54.0</ele><time>2026-05-02T08:01:59.217Z</time></trkpt><trkpt lat="44.1246068" lon="8.2095301"><ele>55.0</ele><time>2026-05-02T08:02:00.219Z</time></trkpt><trkpt lat="44.1246824" lon="8.2093547"><ele>56.0</ele><time>2026-05-02T08:02:01.221Z</time></trkpt><trkpt lat="44.124769" lon="8.2091823"><ele>57.0</ele><time>2026-05-02T08:02:02.217Z</time></trkpt><trkpt lat="44.1248446" lon="8.2090141"><ele>58.0</ele><time>2026-05-02T08:02:03.226Z</time></trkpt><trkpt lat="44.1249156" lon="8.2088375"><ele>58.0</ele><time>2026-05-02T08:02:04.223Z</time></trkpt><trkpt lat="44.1249957" lon="8.2086683"><ele>58.0</ele><time>2026-05-02T08:02:05.22Z</time></trkpt><trkpt lat="44.1250807" lon="8.2085024"><ele>58.0</ele><time>2026-05-02T08:02:06.221Z</time></trkpt><trkpt lat="44.1251713" lon="8.2083411"><ele>58.0</ele><time>2026-05-02T08:02:07.224Z</time></trkpt><trkpt lat="44.1252632" lon="8.2081695"><ele>59.0</ele><time>2026-05-02T08:02:08.226Z</time></trkpt><trkpt lat="44.1253694" lon="8.2080005"><ele>60.0</ele><time>2026-05-02T08:02:09.224Z</time></trkpt><trkpt lat="44.1254715" lon="8.2078238"><ele>61.0</ele><time>2026-05-02T08:02:10.217Z</time></trkpt><trkpt lat="44.1255752" lon="8.2076519"><ele>61.0</ele><time>2026-05-02T08:02:11.213Z</time></trkpt><trkpt lat="44.1256776" lon="8.2074785"><ele>61.0</ele><time>2026-05-02T08:02:12.221Z</time></trkpt><trkpt lat="44.1257788" lon="8.2072901"><ele>61.0</ele><time>2026-05-02T08:02:13.22Z</time></trkpt><trkpt lat="44.1258728" lon="8.207107"><ele>60.25</ele><time>2026-05-02T08:02:14.223Z</time></trkpt><trkpt lat="44.1259646" lon="8.2069494"><ele>59.5</ele><time>2026-05-02T08:02:15.216Z</time></trkpt><trkpt lat="44.1260407" lon="8.2067978"><ele>58.75</ele><time>2026-05-02T08:02:16.221Z</time></trkpt><trkpt lat="44.126112" lon="8.2066773"><ele>58.0</ele><time>2026-05-02T08:02:17.223Z</time></trkpt><trkpt lat="44.1261746" lon="8.2065558"><ele>58.4</ele><time>2026-05-02T08:02:18.225Z</time></trkpt><trkpt lat="44.1262451" lon="8.2064432"><ele>58.8</ele><time>2026-05-02T08:02:19.225Z</time></trkpt><trkpt lat="44.1263005" lon="8.2063454"><ele>59.2</ele><time>2026-05-02T08:02:20.22Z</time></trkpt><trkpt lat="44.1263549" lon="8.2062461"><ele>59.6</ele><time>2026-05-02T08:02:21.212Z</time></trkpt><trkpt lat="44.1264081" lon="8.2061436"><ele>60.0</ele><time>2026-05-02T08:02:22.225Z</time></trkpt><trkpt lat="44.1264489" lon="8.2060365"><ele>60.0</ele><time>2026-05-02T08:02:23.219Z</time></trkpt><trkpt lat="44.1264793" lon="8.2059293"><ele>60.0</ele><time>2026-05-02T08:02:24.218Z</time></trkpt><trkpt lat="44.1264924" lon="8.2058138"><ele>60.0</ele><time>2026-05-02T08:02:25.217Z</time></trkpt><trkpt lat="44.1264882" lon="8.2056897"><ele>60.0</ele><time>2026-05-02T08:02:26.214Z</time></trkpt><trkpt lat="44.126469" lon="8.2055457"><ele>60.0</ele><time>2026-05-02T08:02:27.211Z</time></trkpt><trkpt lat="44.1264541" lon="8.205396"><ele>60.333333333333336</ele><time>2026-05-02T08:02:28.217Z</time></trkpt><trkpt lat="44.1264397" lon="8.2052629"><ele>60.66666666666667</ele><time>2026-05-02T08:02:29.221Z</time></trkpt><trkpt lat="44.1264254" lon="8.205142"><ele>61.0</ele><time>2026-05-02T08:02:30.209Z</time></trkpt><trkpt lat="44.1264176" lon="8.205041"><ele>61.333333333333336</ele><time>2026-05-02T08:02:31.22Z</time></trkpt><trkpt lat="44.1264099" lon="8.2049496"><ele>61.66666666666667</ele><time>2026-05-02T08:02:32.212Z</time></trkpt><trkpt lat="44.1263999" lon="8.2048544"><ele>62.0</ele><time>2026-05-02T08:02:33.216Z</time></trkpt><trkpt lat="44.1263905" lon="8.2047551"><ele>63.0</ele><time>2026-05-02T08:02:34.215Z</time></trkpt><trkpt lat="44.1263822" lon="8.2046457"><ele>64.0</ele><time>2026-05-02T08:02:35.216Z</time></trkpt><trkpt lat="44.1263709" lon="8.2045289"><ele>65.0</ele><time>2026-05-02T08:02:36.215Z</time></trkpt><trkpt lat="44.1263603" lon="8.2044027"><ele>66.0</ele><time>2026-05-02T08:02:37.209Z</time></trkpt><trkpt lat="44.1263456" lon="8.2042696"><ele>67.0</ele><time>2026-05-02T08:02:38.219Z</time></trkpt><trkpt lat="44.126323" lon="8.2041205"><ele>67.75</ele><time>2026-05-02T08:02:39.214Z</time></trkpt><trkpt lat="44.1262931" lon="8.20396"><ele>68.5</ele><time>2026-05-02T08:02:40.217Z</time></trkpt><trkpt lat="44.126259" lon="8.203793"><ele>69.25</ele><time>2026-05-02T08:02:41.212Z</time></trkpt><trkpt lat="44.1262183" lon="8.2036215"><ele>70.0</ele><time>2026-05-02T08:02:42.219Z</time></trkpt><trkpt lat="44.1261807" lon="8.2034498"><ele>70.0</ele><time>2026-05-02T08:02:43.212Z</time></trkpt><trkpt lat="44.1261364" lon="8.2032751"><ele>70.0</ele><time>2026-05-02T08:02:44.211Z</time></trkpt><trkpt lat="44.1260845" lon="8.2030946"><ele>70.0</ele><time>2026-05-02T08:02:45.211Z</time></trkpt><trkpt lat="44.1260384" lon="8.2029109"><ele>70.0</ele><time>2026-05-02T08:02:46.223Z</time></trkpt><trkpt lat="44.1259972" lon="8.2027202"><ele>70.0</ele><time>2026-05-02T08:02:47.211Z</time></trkpt><trkpt lat="44.1259623" lon="8.202543"><ele>70.0</ele><time>2026-05-02T08:02:48.216Z</time></trkpt><trkpt lat="44.1259313" lon="8.2023834"><ele>70.0</ele><time>2026-05-02T08:02:49.216Z</time></trkpt><trkpt lat="44.1259007" lon="8.202243"><ele>70.0</ele><time>2026-05-02T08:02:50.215Z</time></trkpt><trkpt lat="44.1258776" lon="8.20213"><ele>70.0</ele><time>2026-05-02T08:02:51.215Z</time></trkpt><trkpt lat="44.1258696" lon="8.2020203"><ele>70.66666666666666</ele><time>2026-05-02T08:02:52.215Z</time></trkpt><trkpt lat="44.1258828" lon="8.2019203"><ele>71.33333333333333</ele><time>2026-05-02T08:02:53.216Z</time></trkpt><trkpt lat="44.1258975" lon="8.2018181"><ele>72.0</ele><time>2026-05-02T08:02:54.217Z</time></trkpt><trkpt lat="44.1259049" lon="8.2017153"><ele>72.66666666666667</ele><time>2026-05-02T08:02:55.216Z</time></trkpt><trkpt lat="44.1259005" lon="8.2015972"><ele>73.33333333333334</ele><time>2026-05-02T08:02:56.215Z</time></trkpt><trkpt lat="44.1258919" lon="8.2014773"><ele>74.0</ele><time>2026-05-02T08:02:57.221Z</time></trkpt><trkpt lat="44.1258844" lon="8.2013462"><ele>75.0</ele><time>2026-05-02T08:02:58.233Z</time></trkpt><trkpt lat="44.1258753" lon="8.2012054"><ele>76.0</ele><time>2026-05-02T08:02:59.22Z</time></trkpt><trkpt lat="44.1258694" lon="8.2010573"><ele>77.0</ele><time>2026-05-02T08:03:00.224Z</time></trkpt><trkpt lat="44.1258649" lon="8.2009045"><ele>78.0</ele><time>2026-05-02T08:03:01.214Z</time></trkpt><trkpt lat="44.1258602" lon="8.2007492"><ele>79.0</ele><time>2026-05-02T08:03:02.215Z</time></trkpt><trkpt lat="44.1258529" lon="8.2005846"><ele>80.0</ele><time>2026-05-02T08:03:03.223Z</time></trkpt><trkpt lat="44.1258396" lon="8.2004143"><ele>81.0</ele><time>2026-05-02T08:03:04.221Z</time></trkpt><trkpt lat="44.1258245" lon="8.2002426"><ele>82.0</ele><time>2026-05-02T08:03:05.222Z</time></trkpt><trkpt lat="44.1257999" lon="8.2000661"><ele>83.0</ele><time>2026-05-02T08:03:06.217Z</time></trkpt><trkpt lat="44.1257611" lon="8.1998841"><ele>82.33333333333334</ele><time>2026-05-02T08:03:07.225Z</time></trkpt><trkpt lat="44.1257094" lon="8.1997024"><ele>81.66666666666667</ele><time>2026-05-02T08:03:08.213Z</time></trkpt><trkpt lat="44.1256603" lon="8.1995058"><ele>81.0</ele><time>2026-05-02T08:03:09.225Z</time></trkpt><trkpt lat="44.1255907" lon="8.1992941"><ele>81.0</ele><time>2026-05-02T08:03:10.22Z</time></trkpt><trkpt lat="44.125532" lon="8.1990789"><ele>81.0</ele><time>2026-05-02T08:03:11.227Z</time></trkpt><trkpt lat="44.1254703" lon="8.198864"><ele>81.0</ele><time>2026-05-02T08:03:12.225Z</time></trkpt><trkpt lat="44.1254191" lon="8.1986402"><ele>83.66666666666667</ele><time>2026-05-02T08:03:13.219Z</time></trkpt><trkpt lat="44.1253644" lon="8.1984242"><ele>86.33333333333334</ele><time>2026-05-02T08:03:14.22Z</time></trkpt><trkpt lat="44.125305" lon="8.1982101"><ele>89.0</ele><time>2026-05-02T08:03:15.221Z</time></trkpt><trkpt lat="44.125222" lon="8.1980201"><ele>89.0</ele><time>2026-05-02T08:03:16.224Z</time></trkpt><trkpt lat="44.1251268" lon="8.1978296"><ele>89.0</ele><time>2026-05-02T08:03:17.229Z</time></trkpt><trkpt lat="44.1250084" lon="8.1976412"><ele>89.0</ele><time>2026-05-02T08:03:18.222Z</time></trkpt><trkpt lat="44.1248789" lon="8.1974902"><ele>89.0</ele><time>2026-05-02T08:03:19.217Z</time></trkpt><trkpt lat="44.1247519" lon="8.1973356"><ele>89.0</ele><time>2026-05-02T08:03:20.229Z</time></trkpt><trkpt lat="44.12465" lon="8.1971804"><ele>89.0</ele><time>2026-05-02T08:03:21.224Z</time></trkpt><trkpt lat="44.1245547" lon="8.1970393"><ele>90.2</ele><time>2026-05-02T08:03:22.24Z</time></trkpt><trkpt lat="44.1244764" lon="8.1968923"><ele>91.4</ele><time>2026-05-02T08:03:23.221Z</time></trkpt><trkpt lat="44.1244412" lon="8.1967597"><ele>92.6</ele><time>2026-05-02T08:03:24.227Z</time></trkpt><trkpt lat="44.124462" lon="8.1966267"><ele>93.8</ele><time>2026-05-02T08:03:25.216Z</time></trkpt><trkpt lat="44.124501" lon="8.1964906"><ele>95.0</ele><time>2026-05-02T08:03:26.22Z</time></trkpt><trkpt lat="44.1245513" lon="8.196347"><ele>96.0</ele><time>2026-05-02T08:03:27.224Z</time></trkpt><trkpt lat="44.1245782" lon="8.1961952"><ele>97.0</ele><time>2026-05-02T08:03:28.213Z</time></trkpt><trkpt lat="44.124575" lon="8.1960314"><ele>98.0</ele><time>2026-05-02T08:03:29.221Z</time></trkpt><trkpt lat="44.1245537" lon="8.1958583"><ele>99.0</ele><time>2026-05-02T08:03:30.204Z</time></trkpt><trkpt lat="44.1245089" lon="8.1956873"><ele>104.0</ele><time>2026-05-02T08:03:31.215Z</time></trkpt><trkpt lat="44.1244465" lon="8.1955197"><ele>109.0</ele><time>2026-05-02T08:03:32.209Z</time></trkpt><trkpt lat="44.1243722" lon="8.19535"><ele>114.0</ele><time>2026-05-02T08:03:33.225Z</time></trkpt><trkpt lat="44.124288" lon="8.195178"><ele>119.0</ele><time>2026-05-02T08:03:34.21Z</time></trkpt><trkpt lat="44.124185" lon="8.1949915"><ele>116.66666666666666</ele><time>2026-05-02T08:03:35.209Z</time></trkpt><trkpt lat="44.1240594" lon="8.1947968"><ele>114.33333333333334</ele><time>2026-05-02T08:03:36.213Z</time></trkpt><trkpt lat="44.1239196" lon="8.1945928"><ele>112.0</ele><time>2026-05-02T08:03:37.212Z</time></trkpt><trkpt lat="44.1237786" lon="8.1943642"><ele>112.0</ele><time>2026-05-02T08:03:38.203Z</time></trkpt><trkpt lat="44.1236418" lon="8.1941274"><ele>112.0</ele><time>2026-05-02T08:03:39.215Z</time></trkpt><trkpt lat="44.1235195" lon="8.1938824"><ele>112.0</ele><time>2026-05-02T08:03:40.217Z</time></trkpt><trkpt lat="44.1234181" lon="8.193644"><ele>113.33333333333334</ele><time>2026-05-02T08:03:41.215Z</time></trkpt><trkpt lat="44.1233247" lon="8.1933778"><ele>114.66666666666666</ele><time>2026-05-02T08:03:42.22Z</time></trkpt><trkpt lat="44.123204" lon="8.1931271"><ele>116.0</ele><time>2026-05-02T08:03:43.219Z</time></trkpt><trkpt lat="44.1230645" lon="8.1929252"><ele>116.0</ele><time>2026-05-02T08:03:44.215Z</time></trkpt><trkpt lat="44.1229333" lon="8.1927715"><ele>116.0</ele><time>2026-05-02T08:03:45.218Z</time></trkpt><trkpt lat="44.1228235" lon="8.1926089"><ele>116.0</ele><time>2026-05-02T08:03:46.21Z</time></trkpt><trkpt lat="44.1227328" lon="8.192408"><ele>119.75</ele><time>2026-05-02T08:03:47.21Z</time></trkpt><trkpt lat="44.1226725" lon="8.1922107"><ele>123.5</ele><time>2026-05-02T08:03:48.2Z</time></trkpt><trkpt lat="44.1226235" lon="8.1920405"><ele>127.25</ele><time>2026-05-02T08:03:49.21Z</time></trkpt><trkpt lat="44.1225749" lon="8.1918842"><ele>131.0</ele><time>2026-05-02T08:03:50.219Z</time></trkpt><trkpt lat="44.1225398" lon="8.1917652"><ele>131.0</ele><time>2026-05-02T08:03:51.217Z</time></trkpt><trkpt lat="44.1225211" lon="8.191667"><ele>131.0</ele><time>2026-05-02T08:03:52.218Z</time></trkpt><trkpt lat="44.1225399" lon="8.1915762"><ele>131.0</ele><time>2026-05-02T08:03:53.224Z</time></trkpt><trkpt lat="44.1225925" lon="8.1915097"><ele>131.0</ele><time>2026-05-02T08:03:54.227Z</time></trkpt><trkpt lat="44.1226512" lon="8.1914755"><ele>131.0</ele><time>2026-05-02T08:03:55.22Z</time></trkpt><trkpt lat="44.1227125" lon="8.1914982"><ele>131.0</ele><time>2026-05-02T08:03:56.223Z</time></trkpt><trkpt lat="44.1227637" lon="8.1915928"><ele>131.0</ele><time>2026-05-02T08:03:57.216Z</time></trkpt><trkpt lat="44.12279" lon="8.1917442"><ele>131.0</ele><time>2026-05-02T08:03:58.219Z</time></trkpt><trkpt lat="44.1228091" lon="8.1919135"><ele>131.0</ele><time>2026-05-02T08:03:59.225Z</time></trkpt><trkpt lat="44.122845" lon="8.1921023"><ele>131.0</ele><time>2026-05-02T08:04:00.217Z</time></trkpt><trkpt lat="44.1229186" lon="8.1922876"><ele>131.0</ele><time>2026-05-02T08:04:01.219Z</time></trkpt><trkpt lat="44.1230307" lon="8.1924564"><ele>126.0</ele><time>2026-05-02T08:04:02.217Z</time></trkpt><trkpt lat="44.1232078" lon="8.1926175"><ele>121.0</ele><time>2026-05-02T08:04:03.216Z</time></trkpt><trkpt lat="44.1234035" lon="8.1927473"><ele>116.0</ele><time>2026-05-02T08:04:04.21Z</time></trkpt><trkpt lat="44.1235633" lon="8.1928342"><ele>119.75</ele><time>2026-05-02T08:04:05.218Z</time></trkpt><trkpt lat="44.1236811" lon="8.1929128"><ele>123.5</ele><time>2026-05-02T08:04:06.219Z</time></trkpt><trkpt lat="44.1237892" lon="8.192985"><ele>127.25</ele><time>2026-05-02T08:04:07.224Z</time></trkpt><trkpt lat="44.1238884" lon="8.1930796"><ele>131.0</ele><time>2026-05-02T08:04:08.215Z</time></trkpt><trkpt lat="44.1239572" lon="8.1932369"><ele>131.0</ele><time>2026-05-02T08:04:09.218Z</time></trkpt><trkpt lat="44.1240136" lon="8.1933916"><ele>131.0</ele><time>2026-05-02T08:04:10.218Z</time></trkpt><trkpt lat="44.1240895" lon="8.1935333"><ele>131.0</ele><time>2026-05-02T08:04:11.211Z</time></trkpt><trkpt lat="44.1241877" lon="8.1936637"><ele>131.0</ele><time>2026-05-02T08:04:12.215Z</time></trkpt><trkpt lat="44.1243146" lon="8.1937845"><ele>133.66666666666666</ele><time>2026-05-02T08:04:13.231Z</time></trkpt><trkpt lat="44.124449" lon="8.1939164"><ele>136.33333333333334</ele><time>2026-05-02T08:04:14.225Z</time></trkpt><trkpt lat="44.1245782" lon="8.1940594"><ele>139.0</ele><time>2026-05-02T08:04:15.226Z</time></trkpt><trkpt lat="44.1247153" lon="8.1942066"><ele>139.0</ele><time>2026-05-02T08:04:16.233Z</time></trkpt><trkpt lat="44.1248428" lon="8.1943413"><ele>139.0</ele><time>2026-05-02T08:04:17.245Z</time></trkpt><trkpt lat="44.1249719" lon="8.194466"><ele>139.0</ele><time>2026-05-02T08:04:18.253Z</time></trkpt><trkpt lat="44.1251083" lon="8.1945622"><ele>149.0</ele><time>2026-05-02T08:04:19.241Z</time></trkpt><trkpt lat="44.12526" lon="8.1946191"><ele>159.0</ele><time>2026-05-02T08:04:20.244Z</time></trkpt><trkpt lat="44.1254305" lon="8.1946371"><ele>169.0</ele><time>2026-05-02T08:04:21.239Z</time></trkpt><trkpt lat="44.1255979" lon="8.1946244"><ele>174.0</ele><time>2026-05-02T08:04:22.226Z</time></trkpt><trkpt lat="44.1257644" lon="8.1945915"><ele>179.0</ele><time>2026-05-02T08:04:23.228Z</time></trkpt><trkpt lat="44.1259143" lon="8.1945364"><ele>184.0</ele><time>2026-05-02T08:04:24.221Z</time></trkpt><trkpt lat="44.1260284" lon="8.1944948"><ele>189.0</ele><time>2026-05-02T08:04:25.228Z</time></trkpt><trkpt lat="44.1261277" lon="8.1944876"><ele>189.0</ele><time>2026-05-02T08:04:26.232Z</time></trkpt><trkpt lat="44.1262073" lon="8.1945256"><ele>189.0</ele><time>2026-05-02T08:04:27.226Z</time></trkpt><trkpt lat="44.1262531" lon="8.1946256"><ele>189.0</ele><time>2026-05-02T08:04:28.257Z</time></trkpt><trkpt lat="44.1262712" lon="8.1947462"><ele>189.0</ele><time>2026-05-02T08:04:29.249Z</time></trkpt><trkpt lat="44.1262812" lon="8.19488"><ele>189.0</ele><time>2026-05-02T08:04:30.257Z</time></trkpt><trkpt lat="44.1262949" lon="8.1950175"><ele>183.0</ele><time>2026-05-02T08:04:31.25Z</time></trkpt><trkpt lat="44.1263094" lon="8.1951672"><ele>177.0</ele><time>2026-05-02T08:04:32.251Z</time></trkpt><trkpt lat="44.1263323" lon="8.19532"><ele>171.0</ele><time>2026-05-02T08:04:33.245Z</time></trkpt><trkpt lat="44.1263732" lon="8.1954774"><ele>165.0</ele><time>2026-05-02T08:04:34.245Z</time></trkpt><trkpt lat="44.1264347" lon="8.1956517"><ele>161.0</ele><time>2026-05-02T08:04:35.245Z</time></trkpt><trkpt lat="44.1265139" lon="8.1958204"><ele>157.0</ele><time>2026-05-02T08:04:36.242Z</time></trkpt><trkpt lat="44.1266121" lon="8.1959804"><ele>153.0</ele><time>2026-05-02T08:04:37.249Z</time></trkpt><trkpt lat="44.1267426" lon="8.1961158"><ele>163.33333333333334</ele><time>2026-05-02T08:04:38.253Z</time></trkpt><trkpt lat="44.1268988" lon="8.1962011"><ele>173.66666666666669</ele><time>2026-05-02T08:04:39.242Z</time></trkpt><trkpt lat="44.1270507" lon="8.1962752"><ele>184.0</ele><time>2026-05-02T08:04:40.256Z</time></trkpt><trkpt lat="44.1272024" lon="8.1963531"><ele>184.0</ele><time>2026-05-02T08:04:41.248Z</time></trkpt><trkpt lat="44.1273661" lon="8.1964291"><ele>184.0</ele><time>2026-05-02T08:04:42.253Z</time></trkpt><trkpt lat="44.1275247" lon="8.196519"><ele>184.0</ele><time>2026-05-02T08:04:43.241Z</time></trkpt><trkpt lat="44.1276735" lon="8.1966066"><ele>183.5</ele><time>2026-05-02T08:04:44.242Z</time></trkpt><trkpt lat="44.1278004" lon="8.196689"><ele>183.0</ele><time>2026-05-02T08:04:45.238Z</time></trkpt><trkpt lat="44.127922" lon="8.1967767"><ele>182.5</ele><time>2026-05-02T08:04:46.237Z</time></trkpt><trkpt lat="44.128018" lon="8.1968662"><ele>182.0</ele><time>2026-05-02T08:04:47.237Z</time></trkpt><trkpt lat="44.1280951" lon="8.1969491"><ele>182.0</ele><time>2026-05-02T08:04:48.232Z</time></trkpt><trkpt lat="44.1281747" lon="8.1969815"><ele>182.0</ele><time>2026-05-02T08:04:49.235Z</time></trkpt><trkpt lat="44.1282341" lon="8.1969403"><ele>182.0</ele><time>2026-05-02T08:04:50.234Z</time></trkpt><trkpt lat="44.128209" lon="8.1967692"><ele>182.0</ele><time>2026-05-02T08:04:52.212Z</time></trkpt><trkpt lat="44.1281644" lon="8.19669"><ele>182.0</ele><time>2026-05-02T08:04:53.202Z</time></trkpt><trkpt lat="44.1281" lon="8.1966131"><ele>182.0</ele><time>2026-05-02T08:04:54.214Z</time></trkpt><trkpt lat="44.1279909" lon="8.1965521"><ele>188.75</ele><time>2026-05-02T08:04:55.225Z</time></trkpt><trkpt lat="44.1278593" lon="8.1964958"><ele>195.5</ele><time>2026-05-02T08:04:56.226Z</time></trkpt><trkpt lat="44.1277282" lon="8.196417"><ele>202.25</ele><time>2026-05-02T08:04:57.209Z</time></trkpt><trkpt lat="44.1275935" lon="8.19631"><ele>209.0</ele><time>2026-05-02T08:04:58.229Z</time></trkpt><trkpt lat="44.1274553" lon="8.1961853"><ele>200.66666666666669</ele><time>2026-05-02T08:04:59.234Z</time></trkpt><trkpt lat="44.1272989" lon="8.1960454"><ele>192.33333333333334</ele><time>2026-05-02T08:05:00.241Z</time></trkpt><trkpt lat="44.1271472" lon="8.1959106"><ele>184.0</ele><time>2026-05-02T08:05:01.237Z</time></trkpt><trkpt lat="44.1270173" lon="8.1957694"><ele>189.33333333333334</ele><time>2026-05-02T08:05:02.221Z</time></trkpt><trkpt lat="44.1269123" lon="8.1956078"><ele>194.66666666666669</ele><time>2026-05-02T08:05:03.208Z</time></trkpt><trkpt lat="44.1268362" lon="8.1954263"><ele>200.0</ele><time>2026-05-02T08:05:04.205Z</time></trkpt><trkpt lat="44.1267835" lon="8.1952287"><ele>200.0</ele><time>2026-05-02T08:05:05.2Z</time></trkpt><trkpt lat="44.1267499" lon="8.1950111"><ele>200.0</ele><time>2026-05-02T08:05:06.213Z</time></trkpt><trkpt lat="44.1267688" lon="8.1947775"><ele>200.0</ele><time>2026-05-02T08:05:07.207Z</time></trkpt><trkpt lat="44.1267806" lon="8.194548"><ele>203.66666666666669</ele><time>2026-05-02T08:05:08.207Z</time></trkpt><trkpt lat="44.1267751" lon="8.1943134"><ele>207.33333333333331</ele><time>2026-05-02T08:05:09.213Z</time></trkpt><trkpt lat="44.1267773" lon="8.1940749"><ele>211.0</ele><time>2026-05-02T08:05:10.21Z</time></trkpt><trkpt lat="44.1267738" lon="8.1938592"><ele>215.0</ele><time>2026-05-02T08:05:11.207Z</time></trkpt><trkpt lat="44.1267683" lon="8.1936675"><ele>219.0</ele><time>2026-05-02T08:05:12.205Z</time></trkpt><trkpt lat="44.1267612" lon="8.1934838"><ele>223.0</ele><time>2026-05-02T08:05:13.205Z</time></trkpt><trkpt lat="44.1267586" lon="8.1933181"><ele>227.0</ele><time>2026-05-02T08:05:14.209Z</time></trkpt><trkpt lat="44.1267316" lon="8.1931956"><ele>226.0</ele><time>2026-05-02T08:05:15.21Z</time></trkpt><trkpt lat="44.126666" lon="8.1931229"><ele>225.0</ele><time>2026-05-02T08:05:16.201Z</time></trkpt><trkpt lat="44.1265706" lon="8.1930774"><ele>224.0</ele><time>2026-05-02T08:05:17.211Z</time></trkpt><trkpt lat="44.1264643" lon="8.1930747"><ele>223.0</ele><time>2026-05-02T08:05:18.204Z</time></trkpt><trkpt lat="44.1263637" lon="8.1931665"><ele>222.0</ele><time>2026-05-02T08:05:19.203Z</time></trkpt><trkpt lat="44.1262604" lon="8.1932525"><ele>222.0</ele><time>2026-05-02T08:05:20.206Z</time></trkpt><trkpt lat="44.1261594" lon="8.1933405"><ele>222.0</ele><time>2026-05-02T08:05:21.235Z</time></trkpt><trkpt lat="44.1260662" lon="8.1934118"><ele>222.0</ele><time>2026-05-02T08:05:22.239Z</time></trkpt><trkpt lat="44.1259806" lon="8.1934408"><ele>222.0</ele><time>2026-05-02T08:05:23.241Z</time></trkpt><trkpt lat="44.1258782" lon="8.1934061"><ele>222.0</ele><time>2026-05-02T08:05:24.232Z</time></trkpt><trkpt lat="44.125762" lon="8.1933672"><ele>216.5</ele><time>2026-05-02T08:05:25.238Z</time></trkpt><trkpt lat="44.1256354" lon="8.1933319"><ele>211.0</ele><time>2026-05-02T08:05:26.23Z</time></trkpt><trkpt lat="44.125509" lon="8.1932959"><ele>205.5</ele><time>2026-05-02T08:05:27.241Z</time></trkpt><trkpt lat="44.1253949" lon="8.1932576"><ele>200.0</ele><time>2026-05-02T08:05:28.241Z</time></trkpt><trkpt lat="44.1252909" lon="8.1932005"><ele>207.25</ele><time>2026-05-02T08:05:29.217Z</time></trkpt><trkpt lat="44.1252073" lon="8.1930975"><ele>214.5</ele><time>2026-05-02T08:05:30.218Z</time></trkpt><trkpt lat="44.1251331" lon="8.1929458"><ele>221.75</ele><time>2026-05-02T08:05:31.217Z</time></trkpt><trkpt lat="44.1250662" lon="8.1927687"><ele>229.0</ele><time>2026-05-02T08:05:32.21Z</time></trkpt><trkpt lat="44.1250041" lon="8.1925844"><ele>229.0</ele><time>2026-05-02T08:05:33.209Z</time></trkpt><trkpt lat="44.1249376" lon="8.1923981"><ele>229.0</ele><time>2026-05-02T08:05:34.21Z</time></trkpt><trkpt lat="44.1248707" lon="8.1921943"><ele>229.0</ele><time>2026-05-02T08:05:35.212Z</time></trkpt><trkpt lat="44.1248073" lon="8.1919791"><ele>230.0</ele><time>2026-05-02T08:05:36.211Z</time></trkpt><trkpt lat="44.1247439" lon="8.1917777"><ele>231.0</ele><time>2026-05-02T08:05:37.209Z</time></trkpt><trkpt lat="44.124641" lon="8.1916162"><ele>232.0</ele><time>2026-05-02T08:05:38.203Z</time></trkpt><trkpt lat="44.1245348" lon="8.1914964"><ele>232.0</ele><time>2026-05-02T08:05:39.208Z</time></trkpt><trkpt lat="44.124443" lon="8.1914141"><ele>232.0</ele><time>2026-05-02T08:05:40.232Z</time></trkpt><trkpt lat="44.1243742" lon="8.1913087"><ele>232.0</ele><time>2026-05-02T08:05:41.229Z</time></trkpt><trkpt lat="44.1243402" lon="8.1911783"><ele>232.0</ele><time>2026-05-02T08:05:42.211Z</time></trkpt><trkpt lat="44.124335" lon="8.1910174"><ele>232.0</ele><time>2026-05-02T08:05:43.211Z</time></trkpt><trkpt lat="44.1243436" lon="8.1908303"><ele>233.0</ele><time>2026-05-02T08:05:44.214Z</time></trkpt><trkpt lat="44.1243487" lon="8.190623"><ele>234.0</ele><time>2026-05-02T08:05:45.217Z</time></trkpt><trkpt lat="44.1243534" lon="8.1904219"><ele>235.0</ele><time>2026-05-02T08:05:46.216Z</time></trkpt><trkpt lat="44.1243577" lon="8.1902111"><ele>236.0</ele><time>2026-05-02T08:05:47.209Z</time></trkpt><trkpt lat="44.1243708" lon="8.1899955"><ele>236.0</ele><time>2026-05-02T08:05:48.212Z</time></trkpt><trkpt lat="44.1243782" lon="8.18979"><ele>236.0</ele><time>2026-05-02T08:05:49.205Z</time></trkpt><trkpt lat="44.1243618" lon="8.1895969"><ele>236.0</ele><time>2026-05-02T08:05:50.209Z</time></trkpt><trkpt lat="44.1243289" lon="8.1894317"><ele>236.0</ele><time>2026-05-02T08:05:51.21Z</time></trkpt><trkpt lat="44.1243155" lon="8.1892763"><ele>236.0</ele><time>2026-05-02T08:05:52.214Z</time></trkpt><trkpt lat="44.124324" lon="8.1891307"><ele>236.0</ele><time>2026-05-02T08:05:53.213Z</time></trkpt><trkpt lat="44.1243776" lon="8.188972"><ele>236.0</ele><time>2026-05-02T08:05:54.22Z</time></trkpt><trkpt lat="44.1244592" lon="8.1888623"><ele>236.0</ele><time>2026-05-02T08:05:55.206Z</time></trkpt><trkpt lat="44.124561" lon="8.188752"><ele>234.25</ele><time>2026-05-02T08:05:56.217Z</time></trkpt><trkpt lat="44.124669" lon="8.1886482"><ele>232.5</ele><time>2026-05-02T08:05:57.209Z</time></trkpt><trkpt lat="44.124765" lon="8.1885295"><ele>230.75</ele><time>2026-05-02T08:05:58.211Z</time></trkpt><trkpt lat="44.1248545" lon="8.1884076"><ele>229.0</ele><time>2026-05-02T08:05:59.211Z</time></trkpt><trkpt lat="44.1249198" lon="8.1882826"><ele>230.79999999999998</ele><time>2026-05-02T08:06:00.217Z</time></trkpt><trkpt lat="44.1249495" lon="8.1881695"><ele>232.59999999999997</ele><time>2026-05-02T08:06:01.213Z</time></trkpt><trkpt lat="44.1249319" lon="8.1880584"><ele>234.4</ele><time>2026-05-02T08:06:02.209Z</time></trkpt><trkpt lat="44.1248843" lon="8.1879389"><ele>236.2</ele><time>2026-05-02T08:06:03.208Z</time></trkpt><trkpt lat="44.1248363" lon="8.1878113"><ele>238.0</ele><time>2026-05-02T08:06:04.208Z</time></trkpt><trkpt lat="44.124788" lon="8.1876724"><ele>238.0</ele><time>2026-05-02T08:06:05.206Z</time></trkpt><trkpt lat="44.1247487" lon="8.1874909"><ele>238.0</ele><time>2026-05-02T08:06:06.203Z</time></trkpt><trkpt lat="44.1247171" lon="8.1872968"><ele>238.0</ele><time>2026-05-02T08:06:07.206Z</time></trkpt><trkpt lat="44.1247085" lon="8.1871098"><ele>238.0</ele><time>2026-05-02T08:06:08.203Z</time></trkpt><trkpt lat="44.1247198" lon="8.1869115"><ele>245.5</ele><time>2026-05-02T08:06:09.21Z</time></trkpt><trkpt lat="44.1247614" lon="8.1867251"><ele>253.0</ele><time>2026-05-02T08:06:10.206Z</time></trkpt><trkpt lat="44.124806" lon="8.1865311"><ele>260.5</ele><time>2026-05-02T08:06:11.211Z</time></trkpt><trkpt lat="44.1248554" lon="8.1863315"><ele>268.0</ele><time>2026-05-02T08:06:12.206Z</time></trkpt><trkpt lat="44.1249101" lon="8.1861496"><ele>273.2</ele><time>2026-05-02T08:06:13.213Z</time></trkpt><trkpt lat="44.1249411" lon="8.1860008"><ele>278.4</ele><time>2026-05-02T08:06:14.216Z</time></trkpt><trkpt lat="44.1249325" lon="8.1858604"><ele>283.59999999999997</ele><time>2026-05-02T08:06:15.203Z</time></trkpt><trkpt lat="44.1248653" lon="8.1857682"><ele>288.8</ele><time>2026-05-02T08:06:16.209Z</time></trkpt><trkpt lat="44.1247836" lon="8.1857769"><ele>294.0</ele><time>2026-05-02T08:06:17.208Z</time></trkpt><trkpt lat="44.1246953" lon="8.1858138"><ele>294.0</ele><time>2026-05-02T08:06:18.203Z</time></trkpt><trkpt lat="44.1246233" lon="8.1858854"><ele>294.0</ele><time>2026-05-02T08:06:19.2Z</time></trkpt><trkpt lat="44.1245439" lon="8.1859644"><ele>294.0</ele><time>2026-05-02T08:06:20.207Z</time></trkpt><trkpt lat="44.1244569" lon="8.1860349"><ele>294.0</ele><time>2026-05-02T08:06:21.209Z</time></trkpt><trkpt lat="44.1243585" lon="8.1861205"><ele>294.0</ele><time>2026-05-02T08:06:22.234Z</time></trkpt><trkpt lat="44.124246" lon="8.1862023"><ele>294.0</ele><time>2026-05-02T08:06:23.234Z</time></trkpt><trkpt lat="44.1241386" lon="8.1862793"><ele>294.0</ele><time>2026-05-02T08:06:24.224Z</time></trkpt><trkpt lat="44.1240288" lon="8.1863322"><ele>294.0</ele><time>2026-05-02T08:06:25.221Z</time></trkpt><trkpt lat="44.123925" lon="8.1863787"><ele>294.0</ele><time>2026-05-02T08:06:26.232Z</time></trkpt><trkpt lat="44.1238277" lon="8.186364"><ele>294.0</ele><time>2026-05-02T08:06:27.231Z</time></trkpt><trkpt lat="44.1237457" lon="8.1862873"><ele>289.25</ele><time>2026-05-02T08:06:28.214Z</time></trkpt><trkpt lat="44.1236671" lon="8.1861682"><ele>284.5</ele><time>2026-05-02T08:06:29.21Z</time></trkpt><trkpt lat="44.123587" lon="8.1860327"><ele>279.75</ele><time>2026-05-02T08:06:30.211Z</time></trkpt><trkpt lat="44.1235048" lon="8.1859035"><ele>275.0</ele><time>2026-05-02T08:06:31.239Z</time></trkpt><trkpt lat="44.1234308" lon="8.1857749"><ele>274.0</ele><time>2026-05-02T08:06:32.237Z</time></trkpt><trkpt lat="44.1233758" lon="8.1856471"><ele>273.0</ele><time>2026-05-02T08:06:33.238Z</time></trkpt><trkpt lat="44.1233592" lon="8.1855155"><ele>272.0</ele><time>2026-05-02T08:06:34.213Z</time></trkpt><trkpt lat="44.1233782" lon="8.1853511"><ele>271.0</ele><time>2026-05-02T08:06:35.213Z</time></trkpt><trkpt lat="44.1234312" lon="8.1851832"><ele>271.0</ele><time>2026-05-02T08:06:36.212Z</time></trkpt><trkpt lat="44.1235118" lon="8.1850175"><ele>271.0</ele><time>2026-05-02T08:06:37.216Z</time></trkpt><trkpt lat="44.1236094" lon="8.1848552"><ele>271.0</ele><time>2026-05-02T08:06:38.21Z</time></trkpt><trkpt lat="44.1237219" lon="8.1846998"><ele>266.0</ele><time>2026-05-02T08:06:39.21Z</time></trkpt><trkpt lat="44.1238422" lon="8.184537"><ele>261.0</ele><time>2026-05-02T08:06:40.213Z</time></trkpt><trkpt lat="44.1239798" lon="8.1843717"><ele>256.0</ele><time>2026-05-02T08:06:41.206Z</time></trkpt><trkpt lat="44.1240921" lon="8.1841816"><ele>268.0</ele><time>2026-05-02T08:06:42.211Z</time></trkpt><trkpt lat="44.1241979" lon="8.1840037"><ele>280.0</ele><time>2026-05-02T08:06:43.21Z</time></trkpt><trkpt lat="44.124282" lon="8.1838264"><ele>292.0</ele><time>2026-05-02T08:06:44.212Z</time></trkpt><trkpt lat="44.1243264" lon="8.1836495"><ele>292.0</ele><time>2026-05-02T08:06:45.207Z</time></trkpt><trkpt lat="44.1243201" lon="8.1834989"><ele>292.0</ele><time>2026-05-02T08:06:46.203Z</time></trkpt><trkpt lat="44.1243472" lon="8.1833286"><ele>292.0</ele><time>2026-05-02T08:06:47.212Z</time></trkpt><trkpt lat="44.1243992" lon="8.1831574"><ele>292.0</ele><time>2026-05-02T08:06:48.212Z</time></trkpt><trkpt lat="44.1244524" lon="8.1829785"><ele>292.5</ele><time>2026-05-02T08:06:49.217Z</time></trkpt><trkpt lat="44.1245041" lon="8.1827968"><ele>293.0</ele><time>2026-05-02T08:06:50.213Z</time></trkpt><trkpt lat="44.1245749" lon="8.1826293"><ele>293.5</ele><time>2026-05-02T08:06:51.213Z</time></trkpt><trkpt lat="44.1246612" lon="8.1824843"><ele>294.0</ele><time>2026-05-02T08:06:52.206Z</time></trkpt><trkpt lat="44.1247475" lon="8.1823647"><ele>297.0</ele><time>2026-05-02T08:06:53.211Z</time></trkpt><trkpt lat="44.124822" lon="8.1822671"><ele>300.0</ele><time>2026-05-02T08:06:54.209Z</time></trkpt><trkpt lat="44.1248775" lon="8.1821716"><ele>303.0</ele><time>2026-05-02T08:06:55.211Z</time></trkpt><trkpt lat="44.1249164" lon="8.1820757"><ele>306.0</ele><time>2026-05-02T08:06:56.211Z</time></trkpt><trkpt lat="44.1249244" lon="8.18198"><ele>309.0</ele><time>2026-05-02T08:06:57.205Z</time></trkpt><trkpt lat="44.1248877" lon="8.1818877"><ele>312.0</ele><time>2026-05-02T08:06:58.213Z</time></trkpt><trkpt lat="44.1248094" lon="8.1818204"><ele>312.0</ele><time>2026-05-02T08:06:59.21Z</time></trkpt><trkpt lat="44.1247058" lon="8.1817641"><ele>312.0</ele><time>2026-05-02T08:07:00.206Z</time></trkpt><trkpt lat="44.1246005" lon="8.1816917"><ele>312.0</ele><time>2026-05-02T08:07:01.204Z</time></trkpt><trkpt lat="44.1244905" lon="8.1816108"><ele>312.0</ele><time>2026-05-02T08:07:02.206Z</time></trkpt><trkpt lat="44.1243771" lon="8.1815028"><ele>314.4</ele><time>2026-05-02T08:07:03.214Z</time></trkpt><trkpt lat="44.1242694" lon="8.1813958"><ele>316.79999999999995</ele><time>2026-05-02T08:07:04.234Z</time></trkpt><trkpt lat="44.1241758" lon="8.1812817"><ele>319.2</ele><time>2026-05-02T08:07:05.238Z</time></trkpt><trkpt lat="44.1241261" lon="8.181163"><ele>321.59999999999997</ele><time>2026-05-02T08:07:06.214Z</time></trkpt><trkpt lat="44.1241175" lon="8.1810373"><ele>324.0</ele><time>2026-05-02T08:07:07.21Z</time></trkpt><trkpt lat="44.1241441" lon="8.1809016"><ele>324.0</ele><time>2026-05-02T08:07:08.213Z</time></trkpt><trkpt lat="44.1241818" lon="8.1807485"><ele>324.0</ele><time>2026-05-02T08:07:09.203Z</time></trkpt><trkpt lat="44.1242308" lon="8.1805781"><ele>324.0</ele><time>2026-05-02T08:07:10.208Z</time></trkpt><trkpt lat="44.1242847" lon="8.180397"><ele>324.0</ele><time>2026-05-02T08:07:11.207Z</time></trkpt><trkpt lat="44.1243406" lon="8.1802122"><ele>322.0</ele><time>2026-05-02T08:07:12.212Z</time></trkpt><trkpt lat="44.1244016" lon="8.1800229"><ele>320.0</ele><time>2026-05-02T08:07:13.209Z</time></trkpt><trkpt lat="44.1244678" lon="8.1798246"><ele>318.0</ele><time>2026-05-02T08:07:14.208Z</time></trkpt><trkpt lat="44.1245429" lon="8.1796246"><ele>317.3333333333333</ele><time>2026-05-02T08:07:15.212Z</time></trkpt><trkpt lat="44.1246194" lon="8.1794312"><ele>316.66666666666663</ele><time>2026-05-02T08:07:16.208Z</time></trkpt><trkpt lat="44.1246925" lon="8.1792209"><ele>316.0</ele><time>2026-05-02T08:07:17.213Z</time></trkpt><trkpt lat="44.1247488" lon="8.1790048"><ele>313.3333333333333</ele><time>2026-05-02T08:07:18.21Z</time></trkpt><trkpt lat="44.1247713" lon="8.1787812"><ele>310.6666666666667</ele><time>2026-05-02T08:07:19.206Z</time></trkpt><trkpt lat="44.1248019" lon="8.1785761"><ele>308.0</ele><time>2026-05-02T08:07:20.213Z</time></trkpt><trkpt lat="44.1248365" lon="8.1783869"><ele>308.0</ele><time>2026-05-02T08:07:21.209Z</time></trkpt><trkpt lat="44.1248843" lon="8.1782002"><ele>308.0</ele><time>2026-05-02T08:07:22.211Z</time></trkpt><trkpt lat="44.1249488" lon="8.1780227"><ele>308.0</ele><time>2026-05-02T08:07:23.214Z</time></trkpt><trkpt lat="44.1250332" lon="8.1778507"><ele>308.0</ele><time>2026-05-02T08:07:24.212Z</time></trkpt><trkpt lat="44.1251314" lon="8.1776851"><ele>314.0</ele><time>2026-05-02T08:07:25.214Z</time></trkpt><trkpt lat="44.1252308" lon="8.1775103"><ele>320.0</ele><time>2026-05-02T08:07:26.215Z</time></trkpt><trkpt lat="44.1253374" lon="8.1773521"><ele>326.0</ele><time>2026-05-02T08:07:27.213Z</time></trkpt><trkpt lat="44.1254466" lon="8.1771954"><ele>326.0</ele><time>2026-05-02T08:07:28.211Z</time></trkpt><trkpt lat="44.1255563" lon="8.1770404"><ele>326.0</ele><time>2026-05-02T08:07:29.204Z</time></trkpt><trkpt lat="44.125661" lon="8.1768838"><ele>326.0</ele><time>2026-05-02T08:07:30.2Z</time></trkpt><trkpt lat="44.1257613" lon="8.1767338"><ele>332.5</ele><time>2026-05-02T08:07:31.216Z</time></trkpt><trkpt lat="44.1258454" lon="8.1765886"><ele>339.0</ele><time>2026-05-02T08:07:32.202Z</time></trkpt><trkpt lat="44.1259011" lon="8.1764155"><ele>345.5</ele><time>2026-05-02T08:07:33.201Z</time></trkpt><trkpt lat="44.1259437" lon="8.1762334"><ele>352.0</ele><time>2026-05-02T08:07:34.209Z</time></trkpt><trkpt lat="44.1259782" lon="8.1760608"><ele>352.40000000000003</ele><time>2026-05-02T08:07:35.209Z</time></trkpt><trkpt lat="44.1259956" lon="8.1759182"><ele>352.8</ele><time>2026-05-02T08:07:36.211Z</time></trkpt><trkpt lat="44.1260047" lon="8.1757819"><ele>353.2</ele><time>2026-05-02T08:07:37.207Z</time></trkpt><trkpt lat="44.1259829" lon="8.175675"><ele>353.6</ele><time>2026-05-02T08:07:38.205Z</time></trkpt><trkpt lat="44.1259293" lon="8.1755749"><ele>354.0</ele><time>2026-05-02T08:07:39.209Z</time></trkpt><trkpt lat="44.1258392" lon="8.1754986"><ele>355.79999999999995</ele><time>2026-05-02T08:07:40.205Z</time></trkpt><trkpt lat="44.1257441" lon="8.1754747"><ele>357.59999999999997</ele><time>2026-05-02T08:07:41.199Z</time></trkpt><trkpt lat="44.1256485" lon="8.1754587"><ele>359.4</ele><time>2026-05-02T08:07:42.209Z</time></trkpt><trkpt lat="44.1255429" lon="8.175452"><ele>361.2</ele><time>2026-05-02T08:07:43.227Z</time></trkpt><trkpt lat="44.1254353" lon="8.1754521"><ele>363.0</ele><time>2026-05-02T08:07:44.237Z</time></trkpt><trkpt lat="44.1253329" lon="8.1754738"><ele>363.0</ele><time>2026-05-02T08:07:45.231Z</time></trkpt><trkpt lat="44.1252378" lon="8.1755067"><ele>363.0</ele><time>2026-05-02T08:07:46.231Z</time></trkpt><trkpt lat="44.1251517" lon="8.1755504"><ele>363.0</ele><time>2026-05-02T08:07:47.207Z</time></trkpt><trkpt lat="44.1250739" lon="8.1755793"><ele>363.0</ele><time>2026-05-02T08:07:48.208Z</time></trkpt><trkpt lat="44.1250115" lon="8.1755925"><ele>363.0</ele><time>2026-05-02T08:07:49.229Z</time></trkpt><trkpt lat="44.1249003" lon="8.1755196"><ele>361.4</ele><time>2026-05-02T08:07:51.207Z</time></trkpt><trkpt lat="44.124863" lon="8.1754099"><ele>359.79999999999995</ele><time>2026-05-02T08:07:52.203Z</time></trkpt><trkpt lat="44.1248357" lon="8.1752735"><ele>358.2</ele><time>2026-05-02T08:07:53.204Z</time></trkpt><trkpt lat="44.1248051" lon="8.1751217"><ele>356.6</ele><time>2026-05-02T08:07:54.195Z</time></trkpt><trkpt lat="44.1247743" lon="8.1749549"><ele>355.0</ele><time>2026-05-02T08:07:55.196Z</time></trkpt><trkpt lat="44.1247422" lon="8.1747702"><ele>359.0</ele><time>2026-05-02T08:07:56.208Z</time></trkpt><trkpt lat="44.124715" lon="8.1745819"><ele>363.0</ele><time>2026-05-02T08:07:57.201Z</time></trkpt><trkpt lat="44.1246887" lon="8.1743891"><ele>367.0</ele><time>2026-05-02T08:07:58.21Z</time></trkpt><trkpt lat="44.1246667" lon="8.1742021"><ele>371.0</ele><time>2026-05-02T08:07:59.211Z</time></trkpt><trkpt lat="44.1246508" lon="8.1740252"><ele>368.8</ele><time>2026-05-02T08:08:00.209Z</time></trkpt><trkpt lat="44.1246442" lon="8.1738795"><ele>366.6</ele><time>2026-05-02T08:08:01.212Z</time></trkpt><trkpt lat="44.124658" lon="8.1737649"><ele>364.4</ele><time>2026-05-02T08:08:02.213Z</time></trkpt><trkpt lat="44.1246834" lon="8.1736652"><ele>362.2</ele><time>2026-05-02T08:08:04.203Z</time></trkpt><trkpt lat="44.1246886" lon="8.1735492"><ele>360.0</ele><time>2026-05-02T08:08:16.201Z</time></trkpt><trkpt lat="44.1246607" lon="8.1733755"><ele>360.0</ele><time>2026-05-02T08:08:18.202Z</time></trkpt><trkpt lat="44.1246433" lon="8.1732666"><ele>360.0</ele><time>2026-05-02T08:08:19.208Z</time></trkpt><trkpt lat="44.1246241" lon="8.1731487"><ele>360.0</ele><time>2026-05-02T08:08:20.209Z</time></trkpt><trkpt lat="44.1245954" lon="8.1730209"><ele>360.0</ele><time>2026-05-02T08:08:21.206Z</time></trkpt><trkpt lat="44.1245597" lon="8.172884"><ele>360.0</ele><time>2026-05-02T08:08:22.208Z</time></trkpt><trkpt lat="44.1245215" lon="8.1727422"><ele>361.2</ele><time>2026-05-02T08:08:23.204Z</time></trkpt><trkpt lat="44.1244812" lon="8.172604"><ele>362.4</ele><time>2026-05-02T08:08:24.205Z</time></trkpt><trkpt lat="44.1244426" lon="8.1724626"><ele>363.6</ele><time>2026-05-02T08:08:25.204Z</time></trkpt><trkpt lat="44.1244075" lon="8.1723304"><ele>364.8</ele><time>2026-05-02T08:08:26.215Z</time></trkpt><trkpt lat="44.1243805" lon="8.1721966"><ele>366.0</ele><time>2026-05-02T08:08:27.208Z</time></trkpt><trkpt lat="44.1243652" lon="8.172051"><ele>366.0</ele><time>2026-05-02T08:08:28.209Z</time></trkpt><trkpt lat="44.1243627" lon="8.171905"><ele>366.0</ele><time>2026-05-02T08:08:29.214Z</time></trkpt><trkpt lat="44.124375" lon="8.1717434"><ele>366.0</ele><time>2026-05-02T08:08:30.217Z</time></trkpt><trkpt lat="44.1244079" lon="8.1715755"><ele>366.0</ele><time>2026-05-02T08:08:31.219Z</time></trkpt><trkpt lat="44.1244505" lon="8.1713962"><ele>365.75</ele><time>2026-05-02T08:08:32.216Z</time></trkpt><trkpt lat="44.124498" lon="8.1712123"><ele>365.5</ele><time>2026-05-02T08:08:33.214Z</time></trkpt><trkpt lat="44.1245494" lon="8.1710274"><ele>365.25</ele><time>2026-05-02T08:08:34.212Z</time></trkpt><trkpt lat="44.1245949" lon="8.1708418"><ele>365.0</ele><time>2026-05-02T08:08:35.216Z</time></trkpt><trkpt lat="44.124636" lon="8.1706565"><ele>367.75</ele><time>2026-05-02T08:08:36.218Z</time></trkpt><trkpt lat="44.1246689" lon="8.1704815"><ele>370.5</ele><time>2026-05-02T08:08:37.215Z</time></trkpt><trkpt lat="44.1246899" lon="8.1703173"><ele>373.25</ele><time>2026-05-02T08:08:38.21Z</time></trkpt><trkpt lat="44.1247028" lon="8.1701607"><ele>376.0</ele><time>2026-05-02T08:08:39.216Z</time></trkpt><trkpt lat="44.1246934" lon="8.1700079"><ele>380.5</ele><time>2026-05-02T08:08:40.213Z</time></trkpt><trkpt lat="44.1246424" lon="8.1698566"><ele>385.0</ele><time>2026-05-02T08:08:41.202Z</time></trkpt><trkpt lat="44.1245744" lon="8.1697261"><ele>389.5</ele><time>2026-05-02T08:08:42.217Z</time></trkpt><trkpt lat="44.1244882" lon="8.1696248"><ele>394.0</ele><time>2026-05-02T08:08:43.212Z</time></trkpt><trkpt lat="44.1243964" lon="8.1695338"><ele>394.0</ele><time>2026-05-02T08:08:44.213Z</time></trkpt><trkpt lat="44.1242964" lon="8.1694634"><ele>394.0</ele><time>2026-05-02T08:08:45.215Z</time></trkpt><trkpt lat="44.1242029" lon="8.1694004"><ele>394.0</ele><time>2026-05-02T08:08:46.213Z</time></trkpt><trkpt lat="44.1241267" lon="8.1693331"><ele>394.0</ele><time>2026-05-02T08:08:47.221Z</time></trkpt><trkpt lat="44.1240744" lon="8.1692403"><ele>394.0</ele><time>2026-05-02T08:08:48.214Z</time></trkpt><trkpt lat="44.1240368" lon="8.1691354"><ele>393.2</ele><time>2026-05-02T08:08:49.217Z</time></trkpt><trkpt lat="44.1240213" lon="8.1690199"><ele>392.4</ele><time>2026-05-02T08:08:50.218Z</time></trkpt><trkpt lat="44.124024" lon="8.1688953"><ele>391.6</ele><time>2026-05-02T08:08:51.215Z</time></trkpt><trkpt lat="44.1240416" lon="8.1687719"><ele>390.8</ele><time>2026-05-02T08:08:52.219Z</time></trkpt><trkpt lat="44.1240664" lon="8.1686441"><ele>390.0</ele><time>2026-05-02T08:08:53.212Z</time></trkpt><trkpt lat="44.1240973" lon="8.1685059"><ele>390.0</ele><time>2026-05-02T08:08:54.203Z</time></trkpt><trkpt lat="44.1241347" lon="8.1683616"><ele>390.0</ele><time>2026-05-02T08:08:55.206Z</time></trkpt><trkpt lat="44.1241891" lon="8.168219"><ele>390.0</ele><time>2026-05-02T08:08:56.206Z</time></trkpt><trkpt lat="44.1242518" lon="8.1680799"><ele>390.0</ele><time>2026-05-02T08:08:57.2Z</time></trkpt><trkpt lat="44.1243188" lon="8.1679587"><ele>388.0</ele><time>2026-05-02T08:08:58.205Z</time></trkpt><trkpt lat="44.1243934" lon="8.167859"><ele>386.0</ele><time>2026-05-02T08:08:59.206Z</time></trkpt><trkpt lat="44.1244643" lon="8.1677607"><ele>384.0</ele><time>2026-05-02T08:09:00.21Z</time></trkpt><trkpt lat="44.1245321" lon="8.1676605"><ele>382.0</ele><time>2026-05-02T08:09:01.202Z</time></trkpt><trkpt lat="44.1246065" lon="8.1675617"><ele>380.0</ele><time>2026-05-02T08:09:02.204Z</time></trkpt><trkpt lat="44.1246889" lon="8.1674598"><ele>378.75</ele><time>2026-05-02T08:09:03.204Z</time></trkpt><trkpt lat="44.1247747" lon="8.1673479"><ele>377.5</ele><time>2026-05-02T08:09:04.211Z</time></trkpt><trkpt lat="44.1248676" lon="8.1672409"><ele>376.25</ele><time>2026-05-02T08:09:05.212Z</time></trkpt><trkpt lat="44.1249713" lon="8.167138"><ele>375.0</ele><time>2026-05-02T08:09:06.208Z</time></trkpt><trkpt lat="44.1250842" lon="8.1670349"><ele>375.0</ele><time>2026-05-02T08:09:07.216Z</time></trkpt><trkpt lat="44.1252032" lon="8.1669251"><ele>375.0</ele><time>2026-05-02T08:09:08.21Z</time></trkpt><trkpt lat="44.1253236" lon="8.1668213"><ele>375.0</ele><time>2026-05-02T08:09:09.211Z</time></trkpt><trkpt lat="44.1254493" lon="8.1667246"><ele>375.0</ele><time>2026-05-02T08:09:10.202Z</time></trkpt><trkpt lat="44.125597" lon="8.1666459"><ele>377.0</ele><time>2026-05-02T08:09:11.205Z</time></trkpt><trkpt lat="44.1257669" lon="8.166624"><ele>379.0</ele><time>2026-05-02T08:09:12.209Z</time></trkpt><trkpt lat="44.1259215" lon="8.1666029"><ele>381.0</ele><time>2026-05-02T08:09:13.206Z</time></trkpt><trkpt lat="44.1260648" lon="8.1665558"><ele>374.75</ele><time>2026-05-02T08:09:14.204Z</time></trkpt><trkpt lat="44.1261912" lon="8.1664643"><ele>368.5</ele><time>2026-05-02T08:09:15.204Z</time></trkpt><trkpt lat="44.1263015" lon="8.1663896"><ele>362.25</ele><time>2026-05-02T08:09:16.204Z</time></trkpt><trkpt lat="44.1264155" lon="8.166311"><ele>356.0</ele><time>2026-05-02T08:09:17.201Z</time></trkpt><trkpt lat="44.1265151" lon="8.1662181"><ele>362.20000000000005</ele><time>2026-05-02T08:09:18.199Z</time></trkpt><trkpt lat="44.1265948" lon="8.1661321"><ele>368.40000000000003</ele><time>2026-05-02T08:09:19.208Z</time></trkpt><trkpt lat="44.1266259" lon="8.1660108"><ele>374.6</ele><time>2026-05-02T08:09:20.211Z</time></trkpt><trkpt lat="44.1266022" lon="8.1658422"><ele>380.8</ele><time>2026-05-02T08:09:21.214Z</time></trkpt><trkpt lat="44.1265717" lon="8.1656755"><ele>387.0</ele><time>2026-05-02T08:09:22.211Z</time></trkpt><trkpt lat="44.1265653" lon="8.1655008"><ele>387.25</ele><time>2026-05-02T08:09:23.203Z</time></trkpt><trkpt lat="44.1265701" lon="8.1653181"><ele>387.5</ele><time>2026-05-02T08:09:24.207Z</time></trkpt><trkpt lat="44.1265678" lon="8.1651327"><ele>387.75</ele><time>2026-05-02T08:09:25.213Z</time></trkpt><trkpt lat="44.1265504" lon="8.1649463"><ele>388.0</ele><time>2026-05-02T08:09:26.203Z</time></trkpt><trkpt lat="44.1265162" lon="8.1647568"><ele>377.6666666666667</ele><time>2026-05-02T08:09:27.206Z</time></trkpt><trkpt lat="44.1264445" lon="8.1645608"><ele>367.33333333333337</ele><time>2026-05-02T08:09:28.211Z</time></trkpt><trkpt lat="44.1263553" lon="8.164359"><ele>357.0</ele><time>2026-05-02T08:09:29.212Z</time></trkpt><trkpt lat="44.1262728" lon="8.1641893"><ele>357.0</ele><time>2026-05-02T08:09:30.214Z</time></trkpt><trkpt lat="44.1262196" lon="8.1640462"><ele>357.0</ele><time>2026-05-02T08:09:31.213Z</time></trkpt><trkpt lat="44.1261704" lon="8.1638968"><ele>357.0</ele><time>2026-05-02T08:09:32.208Z</time></trkpt><trkpt lat="44.1261285" lon="8.1637304"><ele>357.0</ele><time>2026-05-02T08:09:33.214Z</time></trkpt><trkpt lat="44.1261064" lon="8.1635588"><ele>358.25</ele><time>2026-05-02T08:09:34.213Z</time></trkpt><trkpt lat="44.1260754" lon="8.1633833"><ele>359.5</ele><time>2026-05-02T08:09:35.217Z</time></trkpt><trkpt lat="44.1260541" lon="8.163201"><ele>360.75</ele><time>2026-05-02T08:09:36.221Z</time></trkpt><trkpt lat="44.1260435" lon="8.163006"><ele>362.0</ele><time>2026-05-02T08:09:37.222Z</time></trkpt><trkpt lat="44.1260478" lon="8.1627957"><ele>361.25</ele><time>2026-05-02T08:09:38.223Z</time></trkpt><trkpt lat="44.1260538" lon="8.1625844"><ele>360.5</ele><time>2026-05-02T08:09:39.226Z</time></trkpt><trkpt lat="44.126053" lon="8.1623904"><ele>359.75</ele><time>2026-05-02T08:09:40.227Z</time></trkpt><trkpt lat="44.1260549" lon="8.1622173"><ele>359.0</ele><time>2026-05-02T08:09:41.215Z</time></trkpt><trkpt lat="44.1260689" lon="8.1620499"><ele>359.0</ele><time>2026-05-02T08:09:42.221Z</time></trkpt><trkpt lat="44.1261098" lon="8.1618928"><ele>359.0</ele><time>2026-05-02T08:09:43.213Z</time></trkpt><trkpt lat="44.1261598" lon="8.1617423"><ele>359.0</ele><time>2026-05-02T08:09:44.212Z</time></trkpt><trkpt lat="44.1262227" lon="8.1615978"><ele>359.0</ele><time>2026-05-02T08:09:45.212Z</time></trkpt><trkpt lat="44.1263033" lon="8.1614587"><ele>357.75</ele><time>2026-05-02T08:09:46.209Z</time></trkpt><trkpt lat="44.1263944" lon="8.1613229"><ele>356.5</ele><time>2026-05-02T08:09:47.211Z</time></trkpt><trkpt lat="44.1264843" lon="8.1611789"><ele>355.25</ele><time>2026-05-02T08:09:48.208Z</time></trkpt><trkpt lat="44.1265664" lon="8.1610247"><ele>354.0</ele><time>2026-05-02T08:09:49.212Z</time></trkpt><trkpt lat="44.1266452" lon="8.1608597"><ele>360.6666666666667</ele><time>2026-05-02T08:09:50.211Z</time></trkpt><trkpt lat="44.1267407" lon="8.1607003"><ele>367.33333333333337</ele><time>2026-05-02T08:09:51.211Z</time></trkpt><trkpt lat="44.1268393" lon="8.1605319"><ele>374.0</ele><time>2026-05-02T08:09:52.207Z</time></trkpt><trkpt lat="44.1269418" lon="8.1603644"><ele>374.0</ele><time>2026-05-02T08:09:53.207Z</time></trkpt><trkpt lat="44.1270394" lon="8.1601894"><ele>374.0</ele><time>2026-05-02T08:09:54.204Z</time></trkpt><trkpt lat="44.1271299" lon="8.1600163"><ele>374.0</ele><time>2026-05-02T08:09:55.207Z</time></trkpt><trkpt lat="44.1272042" lon="8.1598558"><ele>378.79999999999995</ele><time>2026-05-02T08:09:56.207Z</time></trkpt><trkpt lat="44.1272777" lon="8.1597073"><ele>383.59999999999997</ele><time>2026-05-02T08:09:57.204Z</time></trkpt><trkpt lat="44.12735" lon="8.1595779"><ele>388.4</ele><time>2026-05-02T08:09:58.202Z</time></trkpt><trkpt lat="44.1273974" lon="8.1594408"><ele>393.2</ele><time>2026-05-02T08:09:59.2Z</time></trkpt><trkpt lat="44.127417" lon="8.1593305"><ele>398.0</ele><time>2026-05-02T08:10:00.198Z</time></trkpt><trkpt lat="44.1273995" lon="8.1592366"><ele>398.4</ele><time>2026-05-02T08:10:01.212Z</time></trkpt><trkpt lat="44.1273419" lon="8.1591586"><ele>398.79999999999995</ele><time>2026-05-02T08:10:02.208Z</time></trkpt><trkpt lat="44.1272682" lon="8.1590978"><ele>399.2</ele><time>2026-05-02T08:10:03.198Z</time></trkpt><trkpt lat="44.1271769" lon="8.1590566"><ele>399.6</ele><time>2026-05-02T08:10:04.204Z</time></trkpt><trkpt lat="44.1270686" lon="8.1590508"><ele>400.0</ele><time>2026-05-02T08:10:05.213Z</time></trkpt><trkpt lat="44.1269454" lon="8.1590933"><ele>400.0</ele><time>2026-05-02T08:10:06.203Z</time></trkpt><trkpt lat="44.1268203" lon="8.1591444"><ele>400.0</ele><time>2026-05-02T08:10:07.2Z</time></trkpt><trkpt lat="44.1266845" lon="8.1592102"><ele>400.0</ele><time>2026-05-02T08:10:08.195Z</time></trkpt><trkpt lat="44.1265435" lon="8.1592895"><ele>400.0</ele><time>2026-05-02T08:10:09.226Z</time></trkpt><trkpt lat="44.1264" lon="8.1593623"><ele>402.75</ele><time>2026-05-02T08:10:10.227Z</time></trkpt><trkpt lat="44.1262629" lon="8.159417"><ele>405.5</ele><time>2026-05-02T08:10:11.232Z</time></trkpt><trkpt lat="44.1261298" lon="8.1594166"><ele>408.25</ele><time>2026-05-02T08:10:12.227Z</time></trkpt><trkpt lat="44.1260021" lon="8.1593652"><ele>411.0</ele><time>2026-05-02T08:10:13.233Z</time></trkpt><trkpt lat="44.1258841" lon="8.1593216"><ele>411.0</ele><time>2026-05-02T08:10:14.232Z</time></trkpt><trkpt lat="44.1257686" lon="8.1593167"><ele>411.0</ele><time>2026-05-02T08:10:15.232Z</time></trkpt><trkpt lat="44.1256601" lon="8.1593533"><ele>411.0</ele><time>2026-05-02T08:10:16.229Z</time></trkpt><trkpt lat="44.1255655" lon="8.1594134"><ele>411.0</ele><time>2026-05-02T08:10:17.232Z</time></trkpt><trkpt lat="44.1254586" lon="8.1594999"><ele>409.0</ele><time>2026-05-02T08:10:18.228Z</time></trkpt><trkpt lat="44.1253465" lon="8.1595604"><ele>407.0</ele><time>2026-05-02T08:10:19.233Z</time></trkpt><trkpt lat="44.1252424" lon="8.1595876"><ele>405.0</ele><time>2026-05-02T08:10:20.238Z</time></trkpt><trkpt lat="44.1251459" lon="8.1595729"><ele>403.0</ele><time>2026-05-02T08:10:21.244Z</time></trkpt><trkpt lat="44.1250586" lon="8.1594942"><ele>401.0</ele><time>2026-05-02T08:10:22.239Z</time></trkpt><trkpt lat="44.1249823" lon="8.1593681"><ele>401.0</ele><time>2026-05-02T08:10:23.208Z</time></trkpt><trkpt lat="44.1249087" lon="8.1592232"><ele>401.0</ele><time>2026-05-02T08:10:24.213Z</time></trkpt><trkpt lat="44.1248375" lon="8.1590616"><ele>401.0</ele><time>2026-05-02T08:10:25.211Z</time></trkpt><trkpt lat="44.1247684" lon="8.1588997"><ele>401.0</ele><time>2026-05-02T08:10:26.206Z</time></trkpt><trkpt lat="44.1246936" lon="8.1587283"><ele>402.5</ele><time>2026-05-02T08:10:27.202Z</time></trkpt><trkpt lat="44.1246047" lon="8.1585688"><ele>404.0</ele><time>2026-05-02T08:10:28.202Z</time></trkpt><trkpt lat="44.1245116" lon="8.1584308"><ele>405.5</ele><time>2026-05-02T08:10:29.209Z</time></trkpt><trkpt lat="44.1243968" lon="8.1583306"><ele>407.0</ele><time>2026-05-02T08:10:30.208Z</time></trkpt><trkpt lat="44.1242695" lon="8.1582451"><ele>413.5</ele><time>2026-05-02T08:10:31.203Z</time></trkpt><trkpt lat="44.1241312" lon="8.1581716"><ele>420.0</ele><time>2026-05-02T08:10:32.199Z</time></trkpt><trkpt lat="44.123982" lon="8.1581397"><ele>426.5</ele><time>2026-05-02T08:10:33.207Z</time></trkpt><trkpt lat="44.1238353" lon="8.158121"><ele>433.0</ele><time>2026-05-02T08:10:34.204Z</time></trkpt><trkpt lat="44.1236942" lon="8.1581241"><ele>433.0</ele><time>2026-05-02T08:10:35.229Z</time></trkpt><trkpt lat="44.1235546" lon="8.1581483"><ele>433.0</ele><time>2026-05-02T08:10:36.209Z</time></trkpt><trkpt lat="44.1234153" lon="8.1582038"><ele>433.0</ele><time>2026-05-02T08:10:37.208Z</time></trkpt><trkpt lat="44.1232998" lon="8.1582646"><ele>433.0</ele><time>2026-05-02T08:10:38.23Z</time></trkpt><trkpt lat="44.1231871" lon="8.1583145"><ele>426.75</ele><time>2026-05-02T08:10:39.241Z</time></trkpt><trkpt lat="44.1230642" lon="8.1583351"><ele>420.5</ele><time>2026-05-02T08:10:40.21Z</time></trkpt><trkpt lat="44.1229346" lon="8.1583504"><ele>414.25</ele><time>2026-05-02T08:10:41.208Z</time></trkpt><trkpt lat="44.1228019" lon="8.1583314"><ele>408.0</ele><time>2026-05-02T08:10:42.213Z</time></trkpt><trkpt lat="44.1226776" lon="8.1582747"><ele>408.0</ele><time>2026-05-02T08:10:43.214Z</time></trkpt><trkpt lat="44.122541" lon="8.1582434"><ele>408.0</ele><time>2026-05-02T08:10:44.214Z</time></trkpt><trkpt lat="44.1224066" lon="8.1582439"><ele>408.0</ele><time>2026-05-02T08:10:45.23Z</time></trkpt><trkpt lat="44.1222572" lon="8.1583132"><ele>408.0</ele><time>2026-05-02T08:10:46.236Z</time></trkpt><trkpt lat="44.1221174" lon="8.1584143"><ele>409.0</ele><time>2026-05-02T08:10:47.231Z</time></trkpt><trkpt lat="44.1219897" lon="8.1585409"><ele>410.0</ele><time>2026-05-02T08:10:48.234Z</time></trkpt><trkpt lat="44.1218686" lon="8.1586333"><ele>411.0</ele><time>2026-05-02T08:10:49.234Z</time></trkpt><trkpt lat="44.121763" lon="8.1586772"><ele>412.0</ele><time>2026-05-02T08:10:50.236Z</time></trkpt><trkpt lat="44.1216778" lon="8.1586845"><ele>412.0</ele><time>2026-05-02T08:10:51.231Z</time></trkpt><trkpt lat="44.1216056" lon="8.1586486"><ele>412.0</ele><time>2026-05-02T08:10:52.236Z</time></trkpt><trkpt lat="44.1215602" lon="8.1585534"><ele>412.0</ele><time>2026-05-02T08:10:53.234Z</time></trkpt><trkpt lat="44.1215443" lon="8.1584087"><ele>412.0</ele><time>2026-05-02T08:10:54.23Z</time></trkpt><trkpt lat="44.1215514" lon="8.1582378"><ele>412.0</ele><time>2026-05-02T08:10:55.204Z</time></trkpt><trkpt lat="44.1215633" lon="8.1580792"><ele>412.75</ele><time>2026-05-02T08:10:56.205Z</time></trkpt><trkpt lat="44.1215739" lon="8.1579212"><ele>413.5</ele><time>2026-05-02T08:10:57.208Z</time></trkpt><trkpt lat="44.1215895" lon="8.1577531"><ele>414.25</ele><time>2026-05-02T08:10:58.211Z</time></trkpt><trkpt lat="44.1216188" lon="8.157579"><ele>415.0</ele><time>2026-05-02T08:10:59.211Z</time></trkpt><trkpt lat="44.1216716" lon="8.1574017"><ele>415.33333333333337</ele><time>2026-05-02T08:11:00.207Z</time></trkpt><trkpt lat="44.1217326" lon="8.1572184"><ele>415.66666666666663</ele><time>2026-05-02T08:11:01.205Z</time></trkpt><trkpt lat="44.1217838" lon="8.157022"><ele>416.0</ele><time>2026-05-02T08:11:02.203Z</time></trkpt><trkpt lat="44.1218157" lon="8.1567955"><ele>416.0</ele><time>2026-05-02T08:11:03.206Z</time></trkpt><trkpt lat="44.1218095" lon="8.1565703"><ele>416.0</ele><time>2026-05-02T08:11:04.204Z</time></trkpt><trkpt lat="44.1217875" lon="8.1563556"><ele>416.0</ele><time>2026-05-02T08:11:05.201Z</time></trkpt><trkpt lat="44.1217475" lon="8.1561589"><ele>416.4</ele><time>2026-05-02T08:11:06.198Z</time></trkpt><trkpt lat="44.1216942" lon="8.1560132"><ele>416.8</ele><time>2026-05-02T08:11:07.204Z</time></trkpt><trkpt lat="44.1216677" lon="8.1558849"><ele>417.2</ele><time>2026-05-02T08:11:08.214Z</time></trkpt><trkpt lat="44.121705" lon="8.1557726"><ele>417.59999999999997</ele><time>2026-05-02T08:11:09.214Z</time></trkpt><trkpt lat="44.1217907" lon="8.1556918"><ele>418.0</ele><time>2026-05-02T08:11:10.207Z</time></trkpt><trkpt lat="44.1218772" lon="8.1556327"><ele>420.79999999999995</ele><time>2026-05-02T08:11:11.209Z</time></trkpt><trkpt lat="44.1219319" lon="8.155542"><ele>423.6</ele><time>2026-05-02T08:11:12.21Z</time></trkpt><trkpt lat="44.1219521" lon="8.1554516"><ele>426.40000000000003</ele><time>2026-05-02T08:11:13.215Z</time></trkpt><trkpt lat="44.1219116" lon="8.1552799"><ele>429.20000000000005</ele><time>2026-05-02T08:11:15.214Z</time></trkpt><trkpt lat="44.1218428" lon="8.1551947"><ele>432.0</ele><time>2026-05-02T08:11:16.207Z</time></trkpt><trkpt lat="44.1217523" lon="8.1551068"><ele>432.0</ele><time>2026-05-02T08:11:17.208Z</time></trkpt><trkpt lat="44.1216516" lon="8.1550228"><ele>432.0</ele><time>2026-05-02T08:11:18.212Z</time></trkpt><trkpt lat="44.1215519" lon="8.1549166"><ele>432.0</ele><time>2026-05-02T08:11:19.21Z</time></trkpt><trkpt lat="44.1214529" lon="8.1547988"><ele>432.0</ele><time>2026-05-02T08:11:20.207Z</time></trkpt><trkpt lat="44.1213695" lon="8.1546612"><ele>435.0</ele><time>2026-05-02T08:11:21.212Z</time></trkpt><trkpt lat="44.1212955" lon="8.1545257"><ele>438.0</ele><time>2026-05-02T08:11:22.206Z</time></trkpt><trkpt lat="44.1212209" lon="8.154407"><ele>441.0</ele><time>2026-05-02T08:11:23.211Z</time></trkpt><trkpt lat="44.1211355" lon="8.1543051"><ele>444.0</ele><time>2026-05-02T08:11:24.206Z</time></trkpt><trkpt lat="44.1210458" lon="8.15422"><ele>444.0</ele><time>2026-05-02T08:11:25.214Z</time></trkpt><trkpt lat="44.1209442" lon="8.1542005"><ele>444.0</ele><time>2026-05-02T08:11:26.21Z</time></trkpt><trkpt lat="44.1208377" lon="8.1541995"><ele>444.0</ele><time>2026-05-02T08:11:27.209Z</time></trkpt><trkpt lat="44.1207241" lon="8.1541873"><ele>444.0</ele><time>2026-05-02T08:11:28.228Z</time></trkpt><trkpt lat="44.1206026" lon="8.1541737"><ele>444.0</ele><time>2026-05-02T08:11:29.23Z</time></trkpt><trkpt lat="44.1204724" lon="8.1541724"><ele>441.0</ele><time>2026-05-02T08:11:30.244Z</time></trkpt><trkpt lat="44.120343" lon="8.1541827"><ele>438.0</ele><time>2026-05-02T08:11:31.237Z</time></trkpt><trkpt lat="44.1202222" lon="8.1541774"><ele>435.0</ele><time>2026-05-02T08:11:32.23Z</time></trkpt><trkpt lat="44.1201318" lon="8.1541172"><ele>432.0</ele><time>2026-05-02T08:11:33.237Z</time></trkpt><trkpt lat="44.120076" lon="8.15403"><ele>429.0</ele><time>2026-05-02T08:11:34.211Z</time></trkpt><trkpt lat="44.1200677" lon="8.153908"><ele>429.0</ele><time>2026-05-02T08:11:35.213Z</time></trkpt><trkpt lat="44.1201108" lon="8.153761"><ele>429.0</ele><time>2026-05-02T08:11:36.208Z</time></trkpt><trkpt lat="44.1201717" lon="8.1535915"><ele>429.0</ele><time>2026-05-02T08:11:37.206Z</time></trkpt><trkpt lat="44.1202318" lon="8.1534108"><ele>429.0</ele><time>2026-05-02T08:11:38.213Z</time></trkpt><trkpt lat="44.1202847" lon="8.1532227"><ele>430.5</ele><time>2026-05-02T08:11:39.206Z</time></trkpt><trkpt lat="44.120314" lon="8.1530302"><ele>432.0</ele><time>2026-05-02T08:11:40.205Z</time></trkpt><trkpt lat="44.1203295" lon="8.1528309"><ele>433.5</ele><time>2026-05-02T08:11:41.21Z</time></trkpt><trkpt lat="44.1203427" lon="8.1526381"><ele>435.0</ele><time>2026-05-02T08:11:42.21Z</time></trkpt><trkpt lat="44.1203455" lon="8.1524548"><ele>436.4</ele><time>2026-05-02T08:11:43.205Z</time></trkpt><trkpt lat="44.1203327" lon="8.1522807"><ele>437.8</ele><time>2026-05-02T08:11:44.211Z</time></trkpt><trkpt lat="44.120284" lon="8.1521305"><ele>439.20000000000005</ele><time>2026-05-02T08:11:45.205Z</time></trkpt><trkpt lat="44.1202227" lon="8.1520138"><ele>440.6</ele><time>2026-05-02T08:11:46.213Z</time></trkpt><trkpt lat="44.1201645" lon="8.1519179"><ele>442.0</ele><time>2026-05-02T08:11:47.212Z</time></trkpt><trkpt lat="44.1201154" lon="8.1518377"><ele>442.00000000000006</ele><time>2026-05-02T08:11:48.208Z</time></trkpt><trkpt lat="44.1200542" lon="8.1517157"><ele>442.0</ele><time>2026-05-02T08:11:50.202Z</time></trkpt><trkpt lat="44.120023" lon="8.1516355"><ele>442.0</ele><time>2026-05-02T08:11:52.205Z</time></trkpt><trkpt lat="44.1200094" lon="8.1515465"><ele>442.0</ele><time>2026-05-02T08:11:54.207Z</time></trkpt><trkpt lat="44.1200462" lon="8.1514526"><ele>442.00000000000006</ele><time>2026-05-02T08:11:56.218Z</time></trkpt><trkpt lat="44.1201251" lon="8.1514891"><ele>442.0</ele><time>2026-05-02T08:11:58.236Z</time></trkpt><trkpt lat="44.1201592" lon="8.151568"><ele>442.00000000000006</ele><time>2026-05-02T08:11:59.213Z</time></trkpt><trkpt lat="44.1201881" lon="8.1516704"><ele>442.0</ele><time>2026-05-02T08:12:00.213Z</time></trkpt><trkpt lat="44.1202142" lon="8.1517798"><ele>442.0</ele><time>2026-05-02T08:12:01.235Z</time></trkpt><trkpt lat="44.1202435" lon="8.1518959"><ele>442.0</ele><time>2026-05-02T08:12:02.237Z</time></trkpt><trkpt lat="44.1202848" lon="8.1520102"><ele>442.00000000000006</ele><time>2026-05-02T08:12:03.237Z</time></trkpt><trkpt lat="44.1203416" lon="8.1521118"><ele>442.0</ele><time>2026-05-02T08:12:04.231Z</time></trkpt><trkpt lat="44.1204179" lon="8.1522006"><ele>442.0</ele><time>2026-05-02T08:12:05.228Z</time></trkpt><trkpt lat="44.1204966" lon="8.1522677"><ele>442.00000000000006</ele><time>2026-05-02T08:12:06.234Z</time></trkpt><trkpt lat="44.1205734" lon="8.1523361"><ele>442.00000000000006</ele><time>2026-05-02T08:12:07.21Z</time></trkpt><trkpt lat="44.1206319" lon="8.1524189"><ele>442.0</ele><time>2026-05-02T08:12:08.232Z</time></trkpt><trkpt lat="44.1206801" lon="8.1525206"><ele>442.0</ele><time>2026-05-02T08:12:09.23Z</time></trkpt><trkpt lat="44.1207226" lon="8.1526446"><ele>446.5</ele><time>2026-05-02T08:12:10.23Z</time></trkpt><trkpt lat="44.1207573" lon="8.1527947"><ele>451.0</ele><time>2026-05-02T08:12:11.224Z</time></trkpt><trkpt lat="44.1207848" lon="8.1529753"><ele>455.5</ele><time>2026-05-02T08:12:12.234Z</time></trkpt><trkpt lat="44.1208057" lon="8.1531786"><ele>460.0</ele><time>2026-05-02T08:12:13.234Z</time></trkpt><trkpt lat="44.1208226" lon="8.1533884"><ele>460.0</ele><time>2026-05-02T08:12:14.231Z</time></trkpt><trkpt lat="44.1208346" lon="8.1535816"><ele>460.0</ele><time>2026-05-02T08:12:15.228Z</time></trkpt><trkpt lat="44.1208585" lon="8.1537482"><ele>460.0</ele><time>2026-05-02T08:12:16.233Z</time></trkpt><trkpt lat="44.1208853" lon="8.1538854"><ele>460.0</ele><time>2026-05-02T08:12:17.237Z</time></trkpt><trkpt lat="44.1209277" lon="8.1539802"><ele>460.0</ele><time>2026-05-02T08:12:18.239Z</time></trkpt><trkpt lat="44.1209835" lon="8.1540265"><ele>460.0</ele><time>2026-05-02T08:12:19.234Z</time></trkpt><trkpt lat="44.1210504" lon="8.1540248"><ele>460.0</ele><time>2026-05-02T08:12:20.207Z</time></trkpt><trkpt lat="44.1211346" lon="8.1539805"><ele>460.0</ele><time>2026-05-02T08:12:21.214Z</time></trkpt><trkpt lat="44.1212304" lon="8.1538791"><ele>460.0</ele><time>2026-05-02T08:12:22.21Z</time></trkpt><trkpt lat="44.1213349" lon="8.1537647"><ele>460.0</ele><time>2026-05-02T08:12:23.207Z</time></trkpt><trkpt lat="44.1214344" lon="8.1536816"><ele>460.0</ele><time>2026-05-02T08:12:24.208Z</time></trkpt><trkpt lat="44.1215469" lon="8.1536662"><ele>460.0</ele><time>2026-05-02T08:12:25.229Z</time></trkpt><trkpt lat="44.1216548" lon="8.1537253"><ele>460.0</ele><time>2026-05-02T08:12:26.235Z</time></trkpt><trkpt lat="44.1217448" lon="8.153837"><ele>460.0</ele><time>2026-05-02T08:12:27.235Z</time></trkpt><trkpt lat="44.1218216" lon="8.1539663"><ele>460.0</ele><time>2026-05-02T08:12:28.231Z</time></trkpt><trkpt lat="44.1219013" lon="8.1540969"><ele>460.0</ele><time>2026-05-02T08:12:29.231Z</time></trkpt><trkpt lat="44.1219875" lon="8.1542217"><ele>460.0</ele><time>2026-05-02T08:12:30.237Z</time></trkpt><trkpt lat="44.1220858" lon="8.154316"><ele>460.0</ele><time>2026-05-02T08:12:31.243Z</time></trkpt><trkpt lat="44.1221817" lon="8.1543762"><ele>460.0</ele><time>2026-05-02T08:12:32.238Z</time></trkpt><trkpt lat="44.1222896" lon="8.1543978"><ele>460.0</ele><time>2026-05-02T08:12:33.217Z</time></trkpt><trkpt lat="44.1224006" lon="8.1543783"><ele>460.0</ele><time>2026-05-02T08:12:34.217Z</time></trkpt><trkpt lat="44.1224862" lon="8.1543045"><ele>460.0</ele><time>2026-05-02T08:12:35.208Z</time></trkpt><trkpt lat="44.1225652" lon="8.1541928"><ele>460.0</ele><time>2026-05-02T08:12:36.212Z</time></trkpt><trkpt lat="44.1226398" lon="8.154087"><ele>463.6</ele><time>2026-05-02T08:12:37.217Z</time></trkpt><trkpt lat="44.1227263" lon="8.1540184"><ele>467.2</ele><time>2026-05-02T08:12:38.215Z</time></trkpt><trkpt lat="44.1228317" lon="8.1540032"><ele>470.79999999999995</ele><time>2026-05-02T08:12:39.205Z</time></trkpt><trkpt lat="44.1229435" lon="8.1540203"><ele>474.4</ele><time>2026-05-02T08:12:40.21Z</time></trkpt><trkpt lat="44.123051" lon="8.154065"><ele>478.0</ele><time>2026-05-02T08:12:41.234Z</time></trkpt><trkpt lat="44.123154" lon="8.1541475"><ele>482.0</ele><time>2026-05-02T08:12:42.238Z</time></trkpt><trkpt lat="44.1232479" lon="8.1542778"><ele>486.0</ele><time>2026-05-02T08:12:43.24Z</time></trkpt><trkpt lat="44.1233297" lon="8.1544456"><ele>490.0</ele><time>2026-05-02T08:12:44.237Z</time></trkpt><trkpt lat="44.1233889" lon="8.1546244"><ele>494.0</ele><time>2026-05-02T08:12:45.235Z</time></trkpt><trkpt lat="44.1234258" lon="8.1548118"><ele>492.25</ele><time>2026-05-02T08:12:46.236Z</time></trkpt><trkpt lat="44.1234539" lon="8.1550065"><ele>490.5</ele><time>2026-05-02T08:12:47.22Z</time></trkpt><trkpt lat="44.1234656" lon="8.1552059"><ele>488.75</ele><time>2026-05-02T08:12:48.215Z</time></trkpt><trkpt lat="44.1234504" lon="8.155395"><ele>487.0</ele><time>2026-05-02T08:12:49.217Z</time></trkpt><trkpt lat="44.1234062" lon="8.1555594"><ele>487.0</ele><time>2026-05-02T08:12:50.214Z</time></trkpt><trkpt lat="44.1233665" lon="8.155703"><ele>487.00000000000006</ele><time>2026-05-02T08:12:51.216Z</time></trkpt><trkpt lat="44.1233471" lon="8.1558434"><ele>487.00000000000006</ele><time>2026-05-02T08:12:52.215Z</time></trkpt><trkpt lat="44.1233473" lon="8.1559729"><ele>487.0</ele><time>2026-05-02T08:12:53.22Z</time></trkpt><trkpt lat="44.1233893" lon="8.1561039"><ele>487.0</ele><time>2026-05-02T08:12:54.237Z</time></trkpt><trkpt lat="44.1234455" lon="8.156218"><ele>486.6</ele><time>2026-05-02T08:12:55.242Z</time></trkpt><trkpt lat="44.1235009" lon="8.1563035"><ele>486.20000000000005</ele><time>2026-05-02T08:12:56.253Z</time></trkpt><trkpt lat="44.1235736" lon="8.1563458"><ele>485.8</ele><time>2026-05-02T08:12:57.237Z</time></trkpt><trkpt lat="44.1236713" lon="8.1563252"><ele>485.4</ele><time>2026-05-02T08:12:58.22Z</time></trkpt><trkpt lat="44.1237864" lon="8.156282"><ele>485.0</ele><time>2026-05-02T08:12:59.213Z</time></trkpt><trkpt lat="44.1239161" lon="8.1562445"><ele>485.0</ele><time>2026-05-02T08:13:00.222Z</time></trkpt><trkpt lat="44.1240498" lon="8.1562176"><ele>485.0</ele><time>2026-05-02T08:13:01.209Z</time></trkpt><trkpt lat="44.1241884" lon="8.1561926"><ele>485.0</ele><time>2026-05-02T08:13:02.205Z</time></trkpt><trkpt lat="44.1243318" lon="8.1561648"><ele>485.0</ele><time>2026-05-02T08:13:03.211Z</time></trkpt><trkpt lat="44.1244868" lon="8.1561298"><ele>491.66666666666663</ele><time>2026-05-02T08:13:04.203Z</time></trkpt><trkpt lat="44.1246432" lon="8.1560662"><ele>498.33333333333337</ele><time>2026-05-02T08:13:05.204Z</time></trkpt><trkpt lat="44.1248055" lon="8.1559665"><ele>505.0</ele><time>2026-05-02T08:13:06.203Z</time></trkpt><trkpt lat="44.1249409" lon="8.1559085"><ele>507.25</ele><time>2026-05-02T08:13:07.204Z</time></trkpt><trkpt lat="44.1250831" lon="8.1559398"><ele>509.5</ele><time>2026-05-02T08:13:08.217Z</time></trkpt><trkpt lat="44.1251889" lon="8.1560248"><ele>511.75</ele><time>2026-05-02T08:13:09.233Z</time></trkpt><trkpt lat="44.1252898" lon="8.1561369"><ele>514.0</ele><time>2026-05-02T08:13:10.238Z</time></trkpt><trkpt lat="44.1253869" lon="8.156234"><ele>514.0</ele><time>2026-05-02T08:13:11.233Z</time></trkpt><trkpt lat="44.1255003" lon="8.15633"><ele>514.0</ele><time>2026-05-02T08:13:12.234Z</time></trkpt><trkpt lat="44.1256152" lon="8.1564199"><ele>514.0</ele><time>2026-05-02T08:13:13.239Z</time></trkpt><trkpt lat="44.125727" lon="8.1564996"><ele>514.0</ele><time>2026-05-02T08:13:14.217Z</time></trkpt><trkpt lat="44.1258302" lon="8.1565482"><ele>512.3333333333334</ele><time>2026-05-02T08:13:15.23Z</time></trkpt><trkpt lat="44.1259215" lon="8.1565712"><ele>510.6666666666667</ele><time>2026-05-02T08:13:16.22Z</time></trkpt><trkpt lat="44.125991" lon="8.1565601"><ele>509.0</ele><time>2026-05-02T08:13:17.216Z</time></trkpt><trkpt lat="44.1260206" lon="8.1564582"><ele>507.33333333333337</ele><time>2026-05-02T08:13:19.213Z</time></trkpt><trkpt lat="44.1259974" lon="8.1563662"><ele>505.6666666666667</ele><time>2026-05-02T08:13:46.211Z</time></trkpt><trkpt lat="44.1260311" lon="8.1562444"><ele>504.0</ele><time>2026-05-02T08:13:49.211Z</time></trkpt><trkpt lat="44.1260763" lon="8.1561279"><ele>508.2</ele><time>2026-05-02T08:13:51.21Z</time></trkpt><trkpt lat="44.126115" lon="8.1560228"><ele>512.4</ele><time>2026-05-02T08:13:53.207Z</time></trkpt><trkpt lat="44.126147" lon="8.1559005"><ele>516.6</ele><time>2026-05-02T08:13:55.212Z</time></trkpt><trkpt lat="44.1261898" lon="8.1557837"><ele>520.8</ele><time>2026-05-02T08:13:57.212Z</time></trkpt><trkpt lat="44.12626" lon="8.1556766"><ele>525.0</ele><time>2026-05-02T08:13:59.214Z</time></trkpt><trkpt lat="44.1263826" lon="8.1556553"><ele>528.6</ele><time>2026-05-02T08:14:01.232Z</time></trkpt><trkpt lat="44.1264635" lon="8.1556805"><ele>532.2</ele><time>2026-05-02T08:14:02.226Z</time></trkpt><trkpt lat="44.126557" lon="8.1556959"><ele>535.8</ele><time>2026-05-02T08:14:03.216Z</time></trkpt><trkpt lat="44.126652" lon="8.1556897"><ele>539.4</ele><time>2026-05-02T08:14:04.216Z</time></trkpt><trkpt lat="44.1267412" lon="8.1556671"><ele>543.0</ele><time>2026-05-02T08:14:05.211Z</time></trkpt><trkpt lat="44.1268328" lon="8.1556229"><ele>543.0</ele><time>2026-05-02T08:14:06.206Z</time></trkpt><trkpt lat="44.1269228" lon="8.1555345"><ele>543.0</ele><time>2026-05-02T08:14:07.208Z</time></trkpt><trkpt lat="44.1269984" lon="8.1554287"><ele>543.0</ele><time>2026-05-02T08:14:08.205Z</time></trkpt><trkpt lat="44.1270705" lon="8.1553041"><ele>543.0</ele><time>2026-05-02T08:14:09.21Z</time></trkpt><trkpt lat="44.1271445" lon="8.1551846"><ele>543.0</ele><time>2026-05-02T08:14:10.205Z</time></trkpt><trkpt lat="44.1272141" lon="8.1550779"><ele>543.0</ele><time>2026-05-02T08:14:11.199Z</time></trkpt><trkpt lat="44.1272961" lon="8.1549817"><ele>543.0</ele><time>2026-05-02T08:14:12.2Z</time></trkpt><trkpt lat="44.1273851" lon="8.1548958"><ele>543.0</ele><time>2026-05-02T08:14:13.204Z</time></trkpt><trkpt lat="44.127485" lon="8.1548253"><ele>543.0</ele><time>2026-05-02T08:14:14.2Z</time></trkpt><trkpt lat="44.1275865" lon="8.1547663"><ele>543.0</ele><time>2026-05-02T08:14:15.206Z</time></trkpt><trkpt lat="44.1276925" lon="8.1547231"><ele>545.0</ele><time>2026-05-02T08:14:16.206Z</time></trkpt><trkpt lat="44.1277949" lon="8.1547214"><ele>547.0</ele><time>2026-05-02T08:14:17.205Z</time></trkpt><trkpt lat="44.1278913" lon="8.1547389"><ele>549.0</ele><time>2026-05-02T08:14:18.204Z</time></trkpt><trkpt lat="44.1279735" lon="8.1547415"><ele>551.0</ele><time>2026-05-02T08:14:19.204Z</time></trkpt><trkpt lat="44.1280552" lon="8.1547206"><ele>553.0</ele><time>2026-05-02T08:14:20.205Z</time></trkpt><trkpt lat="44.1281428" lon="8.1546727"><ele>553.0</ele><time>2026-05-02T08:14:21.201Z</time></trkpt><trkpt lat="44.1282121" lon="8.1546161"><ele>553.0</ele><time>2026-05-02T08:14:22.2Z</time></trkpt><trkpt lat="44.1282737" lon="8.1545803"><ele>553.0</ele><time>2026-05-02T08:14:23.207Z</time></trkpt><trkpt lat="44.1283403" lon="8.154566"><ele>553.0</ele><time>2026-05-02T08:14:24.2Z</time></trkpt><trkpt lat="44.128454" lon="8.1546493"><ele>553.0</ele><time>2026-05-02T08:14:26.233Z</time></trkpt><trkpt lat="44.1285205" lon="8.1547451"><ele>553.0</ele><time>2026-05-02T08:14:27.231Z</time></trkpt><trkpt lat="44.1285959" lon="8.1548593"><ele>548.0</ele><time>2026-05-02T08:14:28.232Z</time></trkpt><trkpt lat="44.1286788" lon="8.1549928"><ele>543.0</ele><time>2026-05-02T08:14:29.232Z</time></trkpt><trkpt lat="44.1287576" lon="8.1551365"><ele>538.0</ele><time>2026-05-02T08:14:30.234Z</time></trkpt><trkpt lat="44.1288275" lon="8.1552741"><ele>533.0</ele><time>2026-05-02T08:14:31.232Z</time></trkpt><trkpt lat="44.1288936" lon="8.1553972"><ele>533.0</ele><time>2026-05-02T08:14:32.225Z</time></trkpt><trkpt lat="44.1289637" lon="8.1554916"><ele>533.0</ele><time>2026-05-02T08:14:33.224Z</time></trkpt><trkpt lat="44.1290566" lon="8.1555669"><ele>533.0</ele><time>2026-05-02T08:14:34.202Z</time></trkpt><trkpt lat="44.1291465" lon="8.1556499"><ele>533.0</ele><time>2026-05-02T08:14:35.23Z</time></trkpt><trkpt lat="44.1292378" lon="8.1557495"><ele>533.0</ele><time>2026-05-02T08:14:36.232Z</time></trkpt><trkpt lat="44.1293249" lon="8.1558663"><ele>533.6</ele><time>2026-05-02T08:14:37.23Z</time></trkpt><trkpt lat="44.1294152" lon="8.1559782"><ele>534.1999999999999</ele><time>2026-05-02T08:14:38.231Z</time></trkpt><trkpt lat="44.1294927" lon="8.1560871"><ele>534.8</ele><time>2026-05-02T08:14:39.229Z</time></trkpt><trkpt lat="44.1295633" lon="8.1561849"><ele>535.4</ele><time>2026-05-02T08:14:40.229Z</time></trkpt><trkpt lat="44.1296169" lon="8.1562665"><ele>536.0</ele><time>2026-05-02T08:14:41.235Z</time></trkpt><trkpt lat="44.129677" lon="8.1563104"><ele>536.0</ele><time>2026-05-02T08:14:42.231Z</time></trkpt><trkpt lat="44.1297972" lon="8.1562142"><ele>536.0</ele><time>2026-05-02T08:14:44.203Z</time></trkpt><trkpt lat="44.1298523" lon="8.1561285"><ele>536.0</ele><time>2026-05-02T08:14:45.211Z</time></trkpt><trkpt lat="44.129917" lon="8.1560817"><ele>536.0</ele><time>2026-05-02T08:14:46.216Z</time></trkpt><trkpt lat="44.1299857" lon="8.1560823"><ele>536.0</ele><time>2026-05-02T08:14:47.217Z</time></trkpt><trkpt lat="44.130057" lon="8.1561383"><ele>536.0</ele><time>2026-05-02T08:14:48.211Z</time></trkpt><trkpt lat="44.1301246" lon="8.1562325"><ele>538.2</ele><time>2026-05-02T08:14:49.241Z</time></trkpt><trkpt lat="44.1301828" lon="8.1563419"><ele>540.4000000000001</ele><time>2026-05-02T08:14:50.238Z</time></trkpt><trkpt lat="44.130241" lon="8.1564622"><ele>542.6</ele><time>2026-05-02T08:14:51.236Z</time></trkpt><trkpt lat="44.1302797" lon="8.1565944"><ele>544.8000000000001</ele><time>2026-05-02T08:14:52.229Z</time></trkpt><trkpt lat="44.1303096" lon="8.1567421"><ele>547.0</ele><time>2026-05-02T08:14:53.234Z</time></trkpt><trkpt lat="44.1303359" lon="8.1568938"><ele>547.0</ele><time>2026-05-02T08:14:54.23Z</time></trkpt><trkpt lat="44.1303557" lon="8.1570567"><ele>547.0</ele><time>2026-05-02T08:14:55.235Z</time></trkpt><trkpt lat="44.1303709" lon="8.1572265"><ele>547.0</ele><time>2026-05-02T08:14:56.231Z</time></trkpt><trkpt lat="44.1303835" lon="8.1573994"><ele>547.0</ele><time>2026-05-02T08:14:57.208Z</time></trkpt><trkpt lat="44.1303957" lon="8.157571"><ele>546.6</ele><time>2026-05-02T08:14:58.212Z</time></trkpt><trkpt lat="44.1304106" lon="8.1577329"><ele>546.2</ele><time>2026-05-02T08:14:59.206Z</time></trkpt><trkpt lat="44.1304264" lon="8.157882"><ele>545.8</ele><time>2026-05-02T08:15:00.21Z</time></trkpt><trkpt lat="44.1304397" lon="8.1580208"><ele>545.4</ele><time>2026-05-02T08:15:01.203Z</time></trkpt><trkpt lat="44.1304405" lon="8.1581551"><ele>545.0</ele><time>2026-05-02T08:15:02.204Z</time></trkpt><trkpt lat="44.130425" lon="8.1582958"><ele>545.0</ele><time>2026-05-02T08:15:03.198Z</time></trkpt><trkpt lat="44.1303959" lon="8.1584195"><ele>545.0</ele><time>2026-05-02T08:15:04.2Z</time></trkpt><trkpt lat="44.1303619" lon="8.1585134"><ele>545.0</ele><time>2026-05-02T08:15:05.197Z</time></trkpt><trkpt lat="44.1303255" lon="8.1586016"><ele>545.0</ele><time>2026-05-02T08:15:06.195Z</time></trkpt><trkpt lat="44.1302954" lon="8.1587022"><ele>545.0</ele><time>2026-05-02T08:15:07.199Z</time></trkpt><trkpt lat="44.1302849" lon="8.1588089"><ele>545.0</ele><time>2026-05-02T08:15:08.2Z</time></trkpt><trkpt lat="44.1302916" lon="8.158929"><ele>544.8</ele><time>2026-05-02T08:15:09.202Z</time></trkpt><trkpt lat="44.1303022" lon="8.1590501"><ele>544.6</ele><time>2026-05-02T08:15:10.206Z</time></trkpt><trkpt lat="44.1303232" lon="8.1591894"><ele>544.4</ele><time>2026-05-02T08:15:11.206Z</time></trkpt><trkpt lat="44.1303481" lon="8.1593375"><ele>544.2</ele><time>2026-05-02T08:15:12.211Z</time></trkpt><trkpt lat="44.1303717" lon="8.159492"><ele>544.0</ele><time>2026-05-02T08:15:13.206Z</time></trkpt><trkpt lat="44.1303899" lon="8.1596511"><ele>544.0</ele><time>2026-05-02T08:15:14.201Z</time></trkpt><trkpt lat="44.1303997" lon="8.15981"><ele>544.0</ele><time>2026-05-02T08:15:15.208Z</time></trkpt><trkpt lat="44.1304148" lon="8.1599648"><ele>544.0</ele><time>2026-05-02T08:15:16.204Z</time></trkpt><trkpt lat="44.1304364" lon="8.1601184"><ele>544.0</ele><time>2026-05-02T08:15:17.199Z</time></trkpt><trkpt lat="44.1304538" lon="8.1602645"><ele>544.0</ele><time>2026-05-02T08:15:18.208Z</time></trkpt><trkpt lat="44.1304692" lon="8.1603939"><ele>543.8</ele><time>2026-05-02T08:15:19.206Z</time></trkpt><trkpt lat="44.1304807" lon="8.1605164"><ele>543.5999999999999</ele><time>2026-05-02T08:15:20.204Z</time></trkpt><trkpt lat="44.1304897" lon="8.1606222"><ele>543.4</ele><time>2026-05-02T08:15:21.202Z</time></trkpt><trkpt lat="44.1304906" lon="8.1607161"><ele>543.1999999999999</ele><time>2026-05-02T08:15:22.2Z</time></trkpt><trkpt lat="44.1304908" lon="8.1608707"><ele>543.0</ele><time>2026-05-02T08:15:24.203Z</time></trkpt><trkpt lat="44.1304831" lon="8.1610406"><ele>542.8333333333334</ele><time>2026-05-02T08:15:26.21Z</time></trkpt><trkpt lat="44.1304867" lon="8.1611375"><ele>542.6666666666666</ele><time>2026-05-02T08:15:27.209Z</time></trkpt><trkpt lat="44.130493" lon="8.161242"><ele>542.5</ele><time>2026-05-02T08:15:28.213Z</time></trkpt><trkpt lat="44.1305017" lon="8.1613443"><ele>542.3333333333333</ele><time>2026-05-02T08:15:29.232Z</time></trkpt><trkpt lat="44.1305184" lon="8.1614435"><ele>542.1666666666666</ele><time>2026-05-02T08:15:30.207Z</time></trkpt><trkpt lat="44.130563" lon="8.1615757"><ele>542.0</ele><time>2026-05-02T08:15:32.24Z</time></trkpt><trkpt lat="44.1306527" lon="8.1616113"><ele>548.6</ele><time>2026-05-02T08:15:34.21Z</time></trkpt><trkpt lat="44.1307537" lon="8.1615364"><ele>555.2</ele><time>2026-05-02T08:15:36.209Z</time></trkpt><trkpt lat="44.1307927" lon="8.1614579"><ele>561.8</ele><time>2026-05-02T08:15:37.209Z</time></trkpt><trkpt lat="44.1308344" lon="8.1613448"><ele>568.4</ele><time>2026-05-02T08:15:38.202Z</time></trkpt><trkpt lat="44.1308733" lon="8.1612092"><ele>575.0</ele><time>2026-05-02T08:15:39.202Z</time></trkpt><trkpt lat="44.1309165" lon="8.1610641"><ele>575.25</ele><time>2026-05-02T08:15:40.204Z</time></trkpt><trkpt lat="44.1309562" lon="8.1609008"><ele>575.5</ele><time>2026-05-02T08:15:41.205Z</time></trkpt><trkpt lat="44.1309935" lon="8.1607303"><ele>575.75</ele><time>2026-05-02T08:15:42.203Z</time></trkpt><trkpt lat="44.1310255" lon="8.1605598"><ele>576.0</ele><time>2026-05-02T08:15:43.199Z</time></trkpt><trkpt lat="44.1310552" lon="8.1603723"><ele>577.0</ele><time>2026-05-02T08:15:44.203Z</time></trkpt><trkpt lat="44.1310861" lon="8.1601837"><ele>578.0</ele><time>2026-05-02T08:15:45.203Z</time></trkpt><trkpt lat="44.1311156" lon="8.1600053"><ele>579.0</ele><time>2026-05-02T08:15:46.197Z</time></trkpt><trkpt lat="44.1311438" lon="8.1598282"><ele>580.0</ele><time>2026-05-02T08:15:47.197Z</time></trkpt><trkpt lat="44.1311625" lon="8.1596532"><ele>580.75</ele><time>2026-05-02T08:15:48.194Z</time></trkpt><trkpt lat="44.1311673" lon="8.1594755"><ele>581.5</ele><time>2026-05-02T08:15:49.197Z</time></trkpt><trkpt lat="44.131168" lon="8.1592927"><ele>582.25</ele><time>2026-05-02T08:15:50.193Z</time></trkpt><trkpt lat="44.1311556" lon="8.1591041"><ele>583.0</ele><time>2026-05-02T08:15:51.196Z</time></trkpt><trkpt lat="44.1311539" lon="8.1589164"><ele>583.0</ele><time>2026-05-02T08:15:52.193Z</time></trkpt><trkpt lat="44.1311635" lon="8.1587283"><ele>583.0</ele><time>2026-05-02T08:15:53.194Z</time></trkpt><trkpt lat="44.1311975" lon="8.1585458"><ele>583.0</ele><time>2026-05-02T08:15:54.191Z</time></trkpt><trkpt lat="44.1312349" lon="8.1583669"><ele>583.0</ele><time>2026-05-02T08:15:55.19Z</time></trkpt><trkpt lat="44.1312779" lon="8.1582086"><ele>582.0</ele><time>2026-05-02T08:15:56.193Z</time></trkpt><trkpt lat="44.1313268" lon="8.1580608"><ele>581.0</ele><time>2026-05-02T08:15:57.192Z</time></trkpt><trkpt lat="44.1313676" lon="8.1579233"><ele>580.0</ele><time>2026-05-02T08:15:58.192Z</time></trkpt><trkpt lat="44.1314179" lon="8.1577891"><ele>579.0</ele><time>2026-05-02T08:15:59.192Z</time></trkpt><trkpt lat="44.1314525" lon="8.157656"><ele>578.0</ele><time>2026-05-02T08:16:00.194Z</time></trkpt><trkpt lat="44.1314647" lon="8.1575216"><ele>578.0</ele><time>2026-05-02T08:16:01.194Z</time></trkpt><trkpt lat="44.1314611" lon="8.1573744"><ele>578.0</ele><time>2026-05-02T08:16:02.19Z</time></trkpt><trkpt lat="44.1314509" lon="8.1572278"><ele>578.0</ele><time>2026-05-02T08:16:03.192Z</time></trkpt><trkpt lat="44.1314442" lon="8.1570681"><ele>578.0</ele><time>2026-05-02T08:16:04.184Z</time></trkpt><trkpt lat="44.1314385" lon="8.1569032"><ele>578.0</ele><time>2026-05-02T08:16:05.189Z</time></trkpt><trkpt lat="44.1314374" lon="8.1567288"><ele>578.75</ele><time>2026-05-02T08:16:06.192Z</time></trkpt><trkpt lat="44.1314428" lon="8.1565529"><ele>579.5</ele><time>2026-05-02T08:16:07.193Z</time></trkpt><trkpt lat="44.1314551" lon="8.156384"><ele>580.25</ele><time>2026-05-02T08:16:08.195Z</time></trkpt><trkpt lat="44.1314687" lon="8.1562155"><ele>581.0</ele><time>2026-05-02T08:16:09.195Z</time></trkpt><trkpt lat="44.1315006" lon="8.1560449"><ele>583.2</ele><time>2026-05-02T08:16:10.199Z</time></trkpt><trkpt lat="44.1315423" lon="8.155881"><ele>585.4000000000001</ele><time>2026-05-02T08:16:11.19Z</time></trkpt><trkpt lat="44.1315843" lon="8.1557385"><ele>587.6</ele><time>2026-05-02T08:16:12.188Z</time></trkpt><trkpt lat="44.1316252" lon="8.1556118"><ele>589.8000000000001</ele><time>2026-05-02T08:16:13.187Z</time></trkpt><trkpt lat="44.1316704" lon="8.1554932"><ele>592.0</ele><time>2026-05-02T08:16:14.179Z</time></trkpt><trkpt lat="44.1317239" lon="8.1553734"><ele>595.3333333333334</ele><time>2026-05-02T08:16:15.181Z</time></trkpt><trkpt lat="44.1317726" lon="8.1552547"><ele>598.6666666666667</ele><time>2026-05-02T08:16:16.183Z</time></trkpt><trkpt lat="44.1318231" lon="8.1551455"><ele>602.0</ele><time>2026-05-02T08:16:17.184Z</time></trkpt><trkpt lat="44.1318763" lon="8.1550474"><ele>605.3333333333334</ele><time>2026-05-02T08:16:18.184Z</time></trkpt><trkpt lat="44.1319158" lon="8.1549534"><ele>608.6666666666666</ele><time>2026-05-02T08:16:19.185Z</time></trkpt><trkpt lat="44.1319404" lon="8.1548562"><ele>612.0</ele><time>2026-05-02T08:16:20.188Z</time></trkpt><trkpt lat="44.1319578" lon="8.1547595"><ele>614.6</ele><time>2026-05-02T08:16:21.184Z</time></trkpt><trkpt lat="44.1319695" lon="8.1546479"><ele>617.2</ele><time>2026-05-02T08:16:22.189Z</time></trkpt><trkpt lat="44.1319767" lon="8.154533"><ele>619.8</ele><time>2026-05-02T08:16:23.193Z</time></trkpt><trkpt lat="44.1319972" lon="8.1544035"><ele>622.4</ele><time>2026-05-02T08:16:24.182Z</time></trkpt><trkpt lat="44.132018" lon="8.1542708"><ele>625.0</ele><time>2026-05-02T08:16:25.184Z</time></trkpt><trkpt lat="44.1320531" lon="8.1541061"><ele>628.5</ele><time>2026-05-02T08:16:26.193Z</time></trkpt><trkpt lat="44.1320907" lon="8.1539346"><ele>632.0</ele><time>2026-05-02T08:16:27.19Z</time></trkpt><trkpt lat="44.1321281" lon="8.153791"><ele>635.5</ele><time>2026-05-02T08:16:28.201Z</time></trkpt><trkpt lat="44.1321648" lon="8.1536359"><ele>639.0</ele><time>2026-05-02T08:16:29.195Z</time></trkpt><trkpt lat="44.1321986" lon="8.1534906"><ele>639.0</ele><time>2026-05-02T08:16:30.181Z</time></trkpt><trkpt lat="44.1322252" lon="8.1533484"><ele>639.0</ele><time>2026-05-02T08:16:31.189Z</time></trkpt><trkpt lat="44.1322341" lon="8.1532035"><ele>639.0</ele><time>2026-05-02T08:16:32.185Z</time></trkpt><trkpt lat="44.1322421" lon="8.1530529"><ele>639.0</ele><time>2026-05-02T08:16:33.189Z</time></trkpt><trkpt lat="44.1322497" lon="8.1529054"><ele>639.0</ele><time>2026-05-02T08:16:34.185Z</time></trkpt><trkpt lat="44.1322486" lon="8.1527669"><ele>639.2</ele><time>2026-05-02T08:16:35.185Z</time></trkpt><trkpt lat="44.1322442" lon="8.1526252"><ele>639.4</ele><time>2026-05-02T08:16:36.181Z</time></trkpt><trkpt lat="44.132233" lon="8.1524734"><ele>639.6</ele><time>2026-05-02T08:16:37.181Z</time></trkpt><trkpt lat="44.1322124" lon="8.1523302"><ele>639.8</ele><time>2026-05-02T08:16:38.187Z</time></trkpt><trkpt lat="44.1321883" lon="8.1521785"><ele>640.0</ele><time>2026-05-02T08:16:39.185Z</time></trkpt><trkpt lat="44.1321557" lon="8.1520405"><ele>640.3333333333334</ele><time>2026-05-02T08:16:40.189Z</time></trkpt><trkpt lat="44.1321221" lon="8.1518953"><ele>640.6666666666667</ele><time>2026-05-02T08:16:41.192Z</time></trkpt><trkpt lat="44.1320915" lon="8.151751"><ele>641.0</ele><time>2026-05-02T08:16:42.197Z</time></trkpt><trkpt lat="44.1320625" lon="8.1516356"><ele>641.3333333333334</ele><time>2026-05-02T08:16:43.199Z</time></trkpt><trkpt lat="44.1320391" lon="8.1515424"><ele>641.6666666666666</ele><time>2026-05-02T08:16:44.184Z</time></trkpt><trkpt lat="44.1320315" lon="8.1514488"><ele>642.0</ele><time>2026-05-02T08:16:45.187Z</time></trkpt><trkpt lat="44.1320314" lon="8.1513574"><ele>644.3333333333334</ele><time>2026-05-02T08:16:46.179Z</time></trkpt><trkpt lat="44.1320374" lon="8.1512585"><ele>646.6666666666666</ele><time>2026-05-02T08:16:47.187Z</time></trkpt><trkpt lat="44.1320688" lon="8.1511579"><ele>649.0</ele><time>2026-05-02T08:16:48.189Z</time></trkpt><trkpt lat="44.1321098" lon="8.1510731"><ele>651.3333333333333</ele><time>2026-05-02T08:16:49.184Z</time></trkpt><trkpt lat="44.1321637" lon="8.1509828"><ele>653.6666666666666</ele><time>2026-05-02T08:16:50.19Z</time></trkpt><trkpt lat="44.132235" lon="8.1509162"><ele>656.0</ele><time>2026-05-02T08:16:51.196Z</time></trkpt><trkpt lat="44.1323166" lon="8.1508492"><ele>655.5999999999999</ele><time>2026-05-02T08:16:52.193Z</time></trkpt><trkpt lat="44.1324081" lon="8.1508081"><ele>655.2</ele><time>2026-05-02T08:16:53.198Z</time></trkpt><trkpt lat="44.1325102" lon="8.1507743"><ele>654.8</ele><time>2026-05-02T08:16:54.192Z</time></trkpt><trkpt lat="44.1326159" lon="8.1507382"><ele>654.4000000000001</ele><time>2026-05-02T08:16:55.188Z</time></trkpt><trkpt lat="44.1327277" lon="8.1507012"><ele>654.0</ele><time>2026-05-02T08:16:56.194Z</time></trkpt><trkpt lat="44.1328364" lon="8.1506653"><ele>654.0</ele><time>2026-05-02T08:16:57.194Z</time></trkpt><trkpt lat="44.1329315" lon="8.150609"><ele>654.0</ele><time>2026-05-02T08:16:58.188Z</time></trkpt><trkpt lat="44.1330221" lon="8.150518"><ele>654.0</ele><time>2026-05-02T08:16:59.192Z</time></trkpt><trkpt lat="44.1330898" lon="8.1504094"><ele>654.0</ele><time>2026-05-02T08:17:00.192Z</time></trkpt><trkpt lat="44.1331426" lon="8.1502792"><ele>654.0</ele><time>2026-05-02T08:17:01.202Z</time></trkpt><trkpt lat="44.1331503" lon="8.1501164"><ele>654.0</ele><time>2026-05-02T08:17:02.198Z</time></trkpt><trkpt lat="44.1331504" lon="8.1499156"><ele>654.0</ele><time>2026-05-02T08:17:03.191Z</time></trkpt><trkpt lat="44.133165" lon="8.1497048"><ele>654.0</ele><time>2026-05-02T08:17:04.185Z</time></trkpt><trkpt lat="44.1331779" lon="8.1495025"><ele>654.0</ele><time>2026-05-02T08:17:05.18Z</time></trkpt><trkpt lat="44.1331874" lon="8.1492962"><ele>651.4000000000001</ele><time>2026-05-02T08:17:06.185Z</time></trkpt><trkpt lat="44.1332083" lon="8.149131"><ele>648.8</ele><time>2026-05-02T08:17:07.178Z</time></trkpt><trkpt lat="44.1332601" lon="8.1489943"><ele>646.2</ele><time>2026-05-02T08:17:08.186Z</time></trkpt><trkpt lat="44.1333109" lon="8.1488801"><ele>643.5999999999999</ele><time>2026-05-02T08:17:09.183Z</time></trkpt><trkpt lat="44.1333775" lon="8.1487974"><ele>641.0</ele><time>2026-05-02T08:17:10.181Z</time></trkpt><trkpt lat="44.1334261" lon="8.1487181"><ele>641.0</ele><time>2026-05-02T08:17:11.198Z</time></trkpt><trkpt lat="44.1334652" lon="8.1486235"><ele>641.0</ele><time>2026-05-02T08:17:12.198Z</time></trkpt><trkpt lat="44.1334812" lon="8.1484986"><ele>641.0</ele><time>2026-05-02T08:17:13.202Z</time></trkpt><trkpt lat="44.133469" lon="8.1483581"><ele>641.0</ele><time>2026-05-02T08:17:14.194Z</time></trkpt><trkpt lat="44.1334274" lon="8.148183"><ele>641.0</ele><time>2026-05-02T08:17:15.197Z</time></trkpt><trkpt lat="44.1333628" lon="8.1480114"><ele>640.75</ele><time>2026-05-02T08:17:16.19Z</time></trkpt><trkpt lat="44.1332968" lon="8.1478452"><ele>640.5</ele><time>2026-05-02T08:17:17.187Z</time></trkpt><trkpt lat="44.1332198" lon="8.147679"><ele>640.25</ele><time>2026-05-02T08:17:18.19Z</time></trkpt><trkpt lat="44.1331351" lon="8.147522"><ele>640.0</ele><time>2026-05-02T08:17:19.184Z</time></trkpt><trkpt lat="44.1330559" lon="8.1473919"><ele>640.75</ele><time>2026-05-02T08:17:20.191Z</time></trkpt><trkpt lat="44.1329759" lon="8.1472605"><ele>641.5</ele><time>2026-05-02T08:17:21.192Z</time></trkpt><trkpt lat="44.1328833" lon="8.147145"><ele>642.25</ele><time>2026-05-02T08:17:22.197Z</time></trkpt><trkpt lat="44.1327753" lon="8.1470563"><ele>643.0</ele><time>2026-05-02T08:17:23.196Z</time></trkpt><trkpt lat="44.1326512" lon="8.1469865"><ele>643.0</ele><time>2026-05-02T08:17:24.192Z</time></trkpt><trkpt lat="44.13252" lon="8.1469225"><ele>643.0</ele><time>2026-05-02T08:17:25.194Z</time></trkpt><trkpt lat="44.132387" lon="8.1468712"><ele>643.0</ele><time>2026-05-02T08:17:26.198Z</time></trkpt><trkpt lat="44.1322661" lon="8.1468461"><ele>643.0</ele><time>2026-05-02T08:17:27.184Z</time></trkpt><trkpt lat="44.1321558" lon="8.1468198"><ele>647.0</ele><time>2026-05-02T08:17:28.188Z</time></trkpt><trkpt lat="44.132066" lon="8.1467956"><ele>651.0</ele><time>2026-05-02T08:17:29.193Z</time></trkpt><trkpt lat="44.1319852" lon="8.1467855"><ele>655.0</ele><time>2026-05-02T08:17:30.197Z</time></trkpt><trkpt lat="44.1319062" lon="8.1467464"><ele>659.0</ele><time>2026-05-02T08:17:31.202Z</time></trkpt><trkpt lat="44.1318217" lon="8.146711"><ele>663.0</ele><time>2026-05-02T08:17:32.199Z</time></trkpt><trkpt lat="44.1317448" lon="8.1466558"><ele>667.0</ele><time>2026-05-02T08:17:33.2Z</time></trkpt><trkpt lat="44.1317018" lon="8.1465856"><ele>665.8</ele><time>2026-05-02T08:17:34.193Z</time></trkpt><trkpt lat="44.1316999" lon="8.1464883"><ele>664.6</ele><time>2026-05-02T08:17:35.197Z</time></trkpt><trkpt lat="44.1317016" lon="8.1463587"><ele>663.4</ele><time>2026-05-02T08:17:36.193Z</time></trkpt><trkpt lat="44.1317076" lon="8.1462326"><ele>662.1999999999999</ele><time>2026-05-02T08:17:37.191Z</time></trkpt><trkpt lat="44.1316919" lon="8.146105"><ele>661.0</ele><time>2026-05-02T08:17:38.192Z</time></trkpt><trkpt lat="44.1316541" lon="8.1459604"><ele>661.0</ele><time>2026-05-02T08:17:39.189Z</time></trkpt><trkpt lat="44.1316093" lon="8.1458408"><ele>661.0</ele><time>2026-05-02T08:17:40.192Z</time></trkpt><trkpt lat="44.1315891" lon="8.1457205"><ele>661.0</ele><time>2026-05-02T08:17:41.199Z</time></trkpt><trkpt lat="44.1315834" lon="8.1456028"><ele>661.0</ele><time>2026-05-02T08:17:42.195Z</time></trkpt><trkpt lat="44.1316007" lon="8.1454798"><ele>661.0</ele><time>2026-05-02T08:17:43.195Z</time></trkpt><trkpt lat="44.1316167" lon="8.1453694"><ele>661.0</ele><time>2026-05-02T08:17:44.184Z</time></trkpt><trkpt lat="44.131614" lon="8.1452613"><ele>660.8</ele><time>2026-05-02T08:17:45.196Z</time></trkpt><trkpt lat="44.131598" lon="8.1451407"><ele>660.5999999999999</ele><time>2026-05-02T08:17:46.192Z</time></trkpt><trkpt lat="44.1315678" lon="8.1450159"><ele>660.4</ele><time>2026-05-02T08:17:47.189Z</time></trkpt><trkpt lat="44.1315518" lon="8.1448831"><ele>660.2</ele><time>2026-05-02T08:17:48.19Z</time></trkpt><trkpt lat="44.1315528" lon="8.1447424"><ele>660.0</ele><time>2026-05-02T08:17:49.193Z</time></trkpt><trkpt lat="44.1315673" lon="8.1446039"><ele>662.0</ele><time>2026-05-02T08:17:50.191Z</time></trkpt><trkpt lat="44.1315924" lon="8.1444689"><ele>664.0</ele><time>2026-05-02T08:17:51.189Z</time></trkpt><trkpt lat="44.1316295" lon="8.1443244"><ele>666.0</ele><time>2026-05-02T08:17:52.192Z</time></trkpt><trkpt lat="44.1316706" lon="8.1441777"><ele>668.0</ele><time>2026-05-02T08:17:53.189Z</time></trkpt><trkpt lat="44.1317117" lon="8.1440144"><ele>670.0</ele><time>2026-05-02T08:17:54.191Z</time></trkpt><trkpt lat="44.1317598" lon="8.1438444"><ele>674.25</ele><time>2026-05-02T08:17:55.19Z</time></trkpt><trkpt lat="44.1318073" lon="8.1436762"><ele>678.5</ele><time>2026-05-02T08:17:56.192Z</time></trkpt><trkpt lat="44.1318445" lon="8.143512"><ele>682.75</ele><time>2026-05-02T08:17:57.181Z</time></trkpt><trkpt lat="44.1318841" lon="8.1433496"><ele>687.0</ele><time>2026-05-02T08:17:58.186Z</time></trkpt><trkpt lat="44.1319166" lon="8.1432021"><ele>691.2</ele><time>2026-05-02T08:17:59.187Z</time></trkpt><trkpt lat="44.1319353" lon="8.1430621"><ele>695.4000000000001</ele><time>2026-05-02T08:18:00.183Z</time></trkpt><trkpt lat="44.1319623" lon="8.1429256"><ele>699.5999999999999</ele><time>2026-05-02T08:18:01.185Z</time></trkpt><trkpt lat="44.1320189" lon="8.1428022"><ele>703.8</ele><time>2026-05-02T08:18:02.183Z</time></trkpt><trkpt lat="44.1320912" lon="8.1426961"><ele>708.0</ele><time>2026-05-02T08:18:03.179Z</time></trkpt><trkpt lat="44.132156" lon="8.1425914"><ele>708.0</ele><time>2026-05-02T08:18:04.18Z</time></trkpt><trkpt lat="44.1322441" lon="8.1425061"><ele>708.0</ele><time>2026-05-02T08:18:05.176Z</time></trkpt><trkpt lat="44.1323147" lon="8.1424049"><ele>708.0</ele><time>2026-05-02T08:18:06.18Z</time></trkpt><trkpt lat="44.1323795" lon="8.1423074"><ele>708.0</ele><time>2026-05-02T08:18:07.182Z</time></trkpt><trkpt lat="44.1324503" lon="8.1422144"><ele>708.0</ele><time>2026-05-02T08:18:08.179Z</time></trkpt><trkpt lat="44.1325234" lon="8.142115"><ele>704.0</ele><time>2026-05-02T08:18:09.186Z</time></trkpt><trkpt lat="44.1326092" lon="8.1420169"><ele>700.0</ele><time>2026-05-02T08:18:10.188Z</time></trkpt><trkpt lat="44.1326876" lon="8.1419161"><ele>696.0</ele><time>2026-05-02T08:18:11.191Z</time></trkpt><trkpt lat="44.132762" lon="8.1418105"><ele>692.0</ele><time>2026-05-02T08:18:12.191Z</time></trkpt><trkpt lat="44.1328329" lon="8.1416988"><ele>688.0</ele><time>2026-05-02T08:18:13.202Z</time></trkpt><trkpt lat="44.1329062" lon="8.1415832"><ele>691.0</ele><time>2026-05-02T08:18:14.199Z</time></trkpt><trkpt lat="44.1329808" lon="8.1414728"><ele>694.0</ele><time>2026-05-02T08:18:15.203Z</time></trkpt><trkpt lat="44.1330348" lon="8.1413636"><ele>697.0</ele><time>2026-05-02T08:18:16.19Z</time></trkpt><trkpt lat="44.1330887" lon="8.1412509"><ele>700.0</ele><time>2026-05-02T08:18:17.182Z</time></trkpt><trkpt lat="44.1331324" lon="8.1411315"><ele>703.0</ele><time>2026-05-02T08:18:18.184Z</time></trkpt><trkpt lat="44.1331604" lon="8.1410015"><ele>703.0</ele><time>2026-05-02T08:18:19.192Z</time></trkpt><trkpt lat="44.1331752" lon="8.140867"><ele>703.0</ele><time>2026-05-02T08:18:20.19Z</time></trkpt><trkpt lat="44.1331556" lon="8.1407021"><ele>703.0</ele><time>2026-05-02T08:18:21.184Z</time></trkpt><trkpt lat="44.1331194" lon="8.1405284"><ele>703.0</ele><time>2026-05-02T08:18:22.185Z</time></trkpt><trkpt lat="44.1330691" lon="8.1403524"><ele>702.0</ele><time>2026-05-02T08:18:23.191Z</time></trkpt><trkpt lat="44.1330163" lon="8.1401745"><ele>701.0</ele><time>2026-05-02T08:18:24.196Z</time></trkpt><trkpt lat="44.1329562" lon="8.139991"><ele>700.0</ele><time>2026-05-02T08:18:25.196Z</time></trkpt><trkpt lat="44.1329124" lon="8.1398034"><ele>699.0</ele><time>2026-05-02T08:18:26.194Z</time></trkpt><trkpt lat="44.1328843" lon="8.1396124"><ele>698.75</ele><time>2026-05-02T08:18:27.19Z</time></trkpt><trkpt lat="44.1328586" lon="8.1394096"><ele>698.5</ele><time>2026-05-02T08:18:28.192Z</time></trkpt><trkpt lat="44.1328467" lon="8.1392272"><ele>698.25</ele><time>2026-05-02T08:18:29.18Z</time></trkpt><trkpt lat="44.1328433" lon="8.1390597"><ele>698.0</ele><time>2026-05-02T08:18:30.181Z</time></trkpt><trkpt lat="44.1328503" lon="8.1388904"><ele>699.5999999999999</ele><time>2026-05-02T08:18:31.189Z</time></trkpt><trkpt lat="44.13287" lon="8.138728"><ele>701.1999999999999</ele><time>2026-05-02T08:18:32.186Z</time></trkpt><trkpt lat="44.1328988" lon="8.1385801"><ele>702.8</ele><time>2026-05-02T08:18:33.184Z</time></trkpt><trkpt lat="44.1329051" lon="8.1384398"><ele>704.4</ele><time>2026-05-02T08:18:34.177Z</time></trkpt><trkpt lat="44.1329026" lon="8.1382896"><ele>706.0</ele><time>2026-05-02T08:18:35.187Z</time></trkpt><trkpt lat="44.1329125" lon="8.1381473"><ele>708.4</ele><time>2026-05-02T08:18:36.188Z</time></trkpt><trkpt lat="44.1329209" lon="8.138004"><ele>710.8</ele><time>2026-05-02T08:18:37.182Z</time></trkpt><trkpt lat="44.1329334" lon="8.1378691"><ele>713.1999999999999</ele><time>2026-05-02T08:18:38.188Z</time></trkpt><trkpt lat="44.1329576" lon="8.1377359"><ele>715.5999999999999</ele><time>2026-05-02T08:18:39.185Z</time></trkpt><trkpt lat="44.132992" lon="8.13762"><ele>718.0</ele><time>2026-05-02T08:18:40.185Z</time></trkpt><trkpt lat="44.1330384" lon="8.1375105"><ele>718.0</ele><time>2026-05-02T08:18:41.188Z</time></trkpt><trkpt lat="44.1330865" lon="8.1374041"><ele>718.0</ele><time>2026-05-02T08:18:42.186Z</time></trkpt><trkpt lat="44.1331415" lon="8.1373303"><ele>718.0</ele><time>2026-05-02T08:18:43.194Z</time></trkpt><trkpt lat="44.1331746" lon="8.1372465"><ele>718.0</ele><time>2026-05-02T08:18:44.19Z</time></trkpt><trkpt lat="44.1332127" lon="8.1370814"><ele>718.0</ele><time>2026-05-02T08:18:46.195Z</time></trkpt><trkpt lat="44.1332214" lon="8.1369599"><ele>718.0</ele><time>2026-05-02T08:18:47.194Z</time></trkpt><trkpt lat="44.1332249" lon="8.1368508"><ele>718.1666666666667</ele><time>2026-05-02T08:18:48.197Z</time></trkpt><trkpt lat="44.1332388" lon="8.1367476"><ele>718.3333333333334</ele><time>2026-05-02T08:18:49.188Z</time></trkpt><trkpt lat="44.1332635" lon="8.1366468"><ele>718.5</ele><time>2026-05-02T08:18:50.188Z</time></trkpt><trkpt lat="44.1332965" lon="8.136548"><ele>718.6666666666666</ele><time>2026-05-02T08:18:51.18Z</time></trkpt><trkpt lat="44.1333457" lon="8.1364548"><ele>718.8333333333333</ele><time>2026-05-02T08:18:52.196Z</time></trkpt><trkpt lat="44.1333976" lon="8.1363854"><ele>719.0</ele><time>2026-05-02T08:18:53.185Z</time></trkpt><trkpt lat="44.1334567" lon="8.1363199"><ele>719.0</ele><time>2026-05-02T08:18:54.19Z</time></trkpt><trkpt lat="44.133531" lon="8.1362685"><ele>719.0</ele><time>2026-05-02T08:18:55.192Z</time></trkpt><trkpt lat="44.1335923" lon="8.1362189"><ele>719.0</ele><time>2026-05-02T08:18:56.202Z</time></trkpt><trkpt lat="44.1336455" lon="8.1361383"><ele>719.0</ele><time>2026-05-02T08:18:57.196Z</time></trkpt><trkpt lat="44.1337126" lon="8.1360621"><ele>719.0</ele><time>2026-05-02T08:18:58.197Z</time></trkpt><trkpt lat="44.1337803" lon="8.1359627"><ele>719.0</ele><time>2026-05-02T08:18:59.192Z</time></trkpt><trkpt lat="44.1338459" lon="8.1358559"><ele>719.0</ele><time>2026-05-02T08:19:00.191Z</time></trkpt><trkpt lat="44.1339283" lon="8.1357755"><ele>719.0</ele><time>2026-05-02T08:19:01.192Z</time></trkpt><trkpt lat="44.1339992" lon="8.135686"><ele>719.0</ele><time>2026-05-02T08:19:02.19Z</time></trkpt><trkpt lat="44.1340672" lon="8.1355942"><ele>719.0</ele><time>2026-05-02T08:19:03.187Z</time></trkpt><trkpt lat="44.1341378" lon="8.1355024"><ele>719.0</ele><time>2026-05-02T08:19:04.191Z</time></trkpt><trkpt lat="44.1342023" lon="8.1354125"><ele>717.4000000000001</ele><time>2026-05-02T08:19:05.193Z</time></trkpt><trkpt lat="44.1342723" lon="8.1353141"><ele>715.8</ele><time>2026-05-02T08:19:06.201Z</time></trkpt><trkpt lat="44.1343465" lon="8.1352331"><ele>714.2</ele><time>2026-05-02T08:19:07.193Z</time></trkpt><trkpt lat="44.1344174" lon="8.1351575"><ele>712.5999999999999</ele><time>2026-05-02T08:19:08.189Z</time></trkpt><trkpt lat="44.1344913" lon="8.135091"><ele>711.0</ele><time>2026-05-02T08:19:09.193Z</time></trkpt><trkpt lat="44.1345809" lon="8.1350215"><ele>711.0</ele><time>2026-05-02T08:19:10.187Z</time></trkpt><trkpt lat="44.1346782" lon="8.1349818"><ele>711.0</ele><time>2026-05-02T08:19:11.193Z</time></trkpt><trkpt lat="44.1347849" lon="8.1349239"><ele>711.0</ele><time>2026-05-02T08:19:12.189Z</time></trkpt><trkpt lat="44.1348916" lon="8.134876"><ele>711.0</ele><time>2026-05-02T08:19:13.191Z</time></trkpt><trkpt lat="44.1349896" lon="8.1348343"><ele>711.0</ele><time>2026-05-02T08:19:14.194Z</time></trkpt><trkpt lat="44.1350798" lon="8.1347819"><ele>712.1999999999999</ele><time>2026-05-02T08:19:15.197Z</time></trkpt><trkpt lat="44.1351723" lon="8.1346991"><ele>713.4</ele><time>2026-05-02T08:19:16.198Z</time></trkpt><trkpt lat="44.1352636" lon="8.1346089"><ele>714.6</ele><time>2026-05-02T08:19:17.195Z</time></trkpt><trkpt lat="44.1353553" lon="8.1345337"><ele>715.8</ele><time>2026-05-02T08:19:18.192Z</time></trkpt><trkpt lat="44.1354429" lon="8.1344594"><ele>717.0</ele><time>2026-05-02T08:19:19.191Z</time></trkpt><trkpt lat="44.1355385" lon="8.1343978"><ele>717.0</ele><time>2026-05-02T08:19:20.199Z</time></trkpt><trkpt lat="44.1356305" lon="8.1343348"><ele>717.0</ele><time>2026-05-02T08:19:21.196Z</time></trkpt><trkpt lat="44.1357266" lon="8.134287"><ele>717.0</ele><time>2026-05-02T08:19:22.203Z</time></trkpt><trkpt lat="44.1358243" lon="8.1342602"><ele>717.0</ele><time>2026-05-02T08:19:23.199Z</time></trkpt><trkpt lat="44.1359247" lon="8.1342714"><ele>717.0</ele><time>2026-05-02T08:19:24.199Z</time></trkpt><trkpt lat="44.1360162" lon="8.1342946"><ele>714.8</ele><time>2026-05-02T08:19:25.192Z</time></trkpt><trkpt lat="44.1360947" lon="8.1343487"><ele>712.6</ele><time>2026-05-02T08:19:26.184Z</time></trkpt><trkpt lat="44.1361665" lon="8.1344056"><ele>710.4</ele><time>2026-05-02T08:19:27.186Z</time></trkpt><trkpt lat="44.136237" lon="8.1344855"><ele>708.1999999999999</ele><time>2026-05-02T08:19:28.216Z</time></trkpt><trkpt lat="44.1363041" lon="8.1345873"><ele>706.0</ele><time>2026-05-02T08:19:29.217Z</time></trkpt><trkpt lat="44.1363496" lon="8.1347073"><ele>706.0</ele><time>2026-05-02T08:19:30.192Z</time></trkpt><trkpt lat="44.1363967" lon="8.134814"><ele>706.0</ele><time>2026-05-02T08:19:31.193Z</time></trkpt><trkpt lat="44.1364465" lon="8.1348811"><ele>706.0</ele><time>2026-05-02T08:19:32.187Z</time></trkpt><trkpt lat="44.1365601" lon="8.1349463"><ele>706.0</ele><time>2026-05-02T08:19:34.19Z</time></trkpt><trkpt lat="44.1366348" lon="8.1349512"><ele>706.0</ele><time>2026-05-02T08:19:35.198Z</time></trkpt><trkpt lat="44.1367169" lon="8.1349334"><ele>706.0</ele><time>2026-05-02T08:19:36.186Z</time></trkpt><trkpt lat="44.1367988" lon="8.1349073"><ele>705.6666666666667</ele><time>2026-05-02T08:19:37.187Z</time></trkpt><trkpt lat="44.1368917" lon="8.1348711"><ele>705.3333333333334</ele><time>2026-05-02T08:19:38.198Z</time></trkpt><trkpt lat="44.1369699" lon="8.1348585"><ele>705.0</ele><time>2026-05-02T08:19:39.182Z</time></trkpt><trkpt lat="44.1370519" lon="8.1348551"><ele>704.6666666666666</ele><time>2026-05-02T08:19:40.195Z</time></trkpt><trkpt lat="44.1371175" lon="8.1348533"><ele>704.3333333333333</ele><time>2026-05-02T08:19:41.193Z</time></trkpt><trkpt lat="44.1371933" lon="8.1348063"><ele>704.0</ele><time>2026-05-02T08:21:02.194Z</time></trkpt><trkpt lat="44.1372954" lon="8.1347447"><ele>704.0</ele><time>2026-05-02T08:21:05.197Z</time></trkpt><trkpt lat="44.1373582" lon="8.1347234"><ele>704.0</ele><time>2026-05-02T08:21:06.195Z</time></trkpt><trkpt lat="44.1374242" lon="8.1347085"><ele>704.0</ele><time>2026-05-02T08:21:07.194Z</time></trkpt><trkpt lat="44.1374944" lon="8.1346942"><ele>704.0</ele><time>2026-05-02T08:21:08.181Z</time></trkpt><trkpt lat="44.1376263" lon="8.1346474"><ele>704.0</ele><time>2026-05-02T08:21:10.186Z</time></trkpt><trkpt lat="44.137699" lon="8.1346182"><ele>704.0</ele><time>2026-05-02T08:21:11.182Z</time></trkpt><trkpt lat="44.1377865" lon="8.1345881"><ele>702.8000000000001</ele><time>2026-05-02T08:21:12.184Z</time></trkpt><trkpt lat="44.1378746" lon="8.1345347"><ele>701.6</ele><time>2026-05-02T08:21:13.18Z</time></trkpt><trkpt lat="44.1379684" lon="8.1344891"><ele>700.4</ele><time>2026-05-02T08:21:14.187Z</time></trkpt><trkpt lat="44.1380596" lon="8.1344444"><ele>699.2</ele><time>2026-05-02T08:21:15.184Z</time></trkpt><trkpt lat="44.1381505" lon="8.1344113"><ele>698.0</ele><time>2026-05-02T08:21:16.184Z</time></trkpt><trkpt lat="44.1382394" lon="8.1344034"><ele>698.0</ele><time>2026-05-02T08:21:17.18Z</time></trkpt><trkpt lat="44.1383304" lon="8.1343968"><ele>698.0</ele><time>2026-05-02T08:21:18.177Z</time></trkpt><trkpt lat="44.1384237" lon="8.1344019"><ele>698.0</ele><time>2026-05-02T08:21:19.185Z</time></trkpt><trkpt lat="44.1385301" lon="8.1344023"><ele>698.0</ele><time>2026-05-02T08:21:20.176Z</time></trkpt><trkpt lat="44.1386338" lon="8.1343925"><ele>698.0</ele><time>2026-05-02T08:21:21.182Z</time></trkpt><trkpt lat="44.1387559" lon="8.1344008"><ele>698.0</ele><time>2026-05-02T08:21:22.186Z</time></trkpt><trkpt lat="44.1388629" lon="8.1343951"><ele>698.0</ele><time>2026-05-02T08:21:23.187Z</time></trkpt><trkpt lat="44.1389692" lon="8.1343706"><ele>698.0</ele><time>2026-05-02T08:21:24.184Z</time></trkpt><trkpt lat="44.1390679" lon="8.1343354"><ele>698.0</ele><time>2026-05-02T08:21:25.19Z</time></trkpt><trkpt lat="44.139152" lon="8.1342828"><ele>698.0</ele><time>2026-05-02T08:21:26.19Z</time></trkpt><trkpt lat="44.1392333" lon="8.1342534"><ele>698.2</ele><time>2026-05-02T08:21:27.186Z</time></trkpt><trkpt lat="44.1393203" lon="8.1342412"><ele>698.4</ele><time>2026-05-02T08:21:28.188Z</time></trkpt><trkpt lat="44.1393984" lon="8.1342416"><ele>698.6</ele><time>2026-05-02T08:21:29.189Z</time></trkpt><trkpt lat="44.1394817" lon="8.1342785"><ele>698.8000000000001</ele><time>2026-05-02T08:21:30.186Z</time></trkpt><trkpt lat="44.1395723" lon="8.1343399"><ele>699.0</ele><time>2026-05-02T08:21:31.197Z</time></trkpt><trkpt lat="44.1396662" lon="8.1344088"><ele>699.0</ele><time>2026-05-02T08:21:32.181Z</time></trkpt><trkpt lat="44.1397616" lon="8.1344514"><ele>699.0</ele><time>2026-05-02T08:21:33.189Z</time></trkpt><trkpt lat="44.1398777" lon="8.1344767"><ele>699.0</ele><time>2026-05-02T08:21:34.185Z</time></trkpt><trkpt lat="44.1399824" lon="8.1344739"><ele>699.0</ele><time>2026-05-02T08:21:35.19Z</time></trkpt><trkpt lat="44.1400891" lon="8.1344614"><ele>699.0</ele><time>2026-05-02T08:21:36.191Z</time></trkpt><trkpt lat="44.1401929" lon="8.1344252"><ele>698.8000000000001</ele><time>2026-05-02T08:21:37.189Z</time></trkpt><trkpt lat="44.1402938" lon="8.1343737"><ele>698.6</ele><time>2026-05-02T08:21:38.192Z</time></trkpt><trkpt lat="44.1403807" lon="8.134304"><ele>698.4</ele><time>2026-05-02T08:21:39.194Z</time></trkpt><trkpt lat="44.140457" lon="8.1342216"><ele>698.2</ele><time>2026-05-02T08:21:40.196Z</time></trkpt><trkpt lat="44.1405362" lon="8.1341541"><ele>698.0</ele><time>2026-05-02T08:21:41.194Z</time></trkpt><trkpt lat="44.1406208" lon="8.1340649"><ele>696.4</ele><time>2026-05-02T08:21:42.195Z</time></trkpt><trkpt lat="44.1407059" lon="8.1339899"><ele>694.8</ele><time>2026-05-02T08:21:43.198Z</time></trkpt><trkpt lat="44.1407988" lon="8.1339295"><ele>693.2</ele><time>2026-05-02T08:21:44.203Z</time></trkpt><trkpt lat="44.1408809" lon="8.1338707"><ele>691.6</ele><time>2026-05-02T08:21:45.201Z</time></trkpt><trkpt lat="44.1409679" lon="8.1338214"><ele>690.0</ele><time>2026-05-02T08:21:46.204Z</time></trkpt><trkpt lat="44.1410512" lon="8.1338152"><ele>690.0</ele><time>2026-05-02T08:21:47.196Z</time></trkpt><trkpt lat="44.1411358" lon="8.1338343"><ele>690.0</ele><time>2026-05-02T08:21:48.199Z</time></trkpt><trkpt lat="44.1412257" lon="8.1338922"><ele>690.0</ele><time>2026-05-02T08:21:49.187Z</time></trkpt><trkpt lat="44.1413165" lon="8.1339685"><ele>690.0</ele><time>2026-05-02T08:21:50.191Z</time></trkpt><trkpt lat="44.1414055" lon="8.1340413"><ele>690.0</ele><time>2026-05-02T08:21:51.189Z</time></trkpt><trkpt lat="44.1414853" lon="8.1340986"><ele>693.6</ele><time>2026-05-02T08:21:52.195Z</time></trkpt><trkpt lat="44.1415787" lon="8.1341491"><ele>697.2</ele><time>2026-05-02T08:21:53.187Z</time></trkpt><trkpt lat="44.1416776" lon="8.1342046"><ele>700.8</ele><time>2026-05-02T08:21:54.19Z</time></trkpt><trkpt lat="44.1417897" lon="8.13426"><ele>704.4</ele><time>2026-05-02T08:21:55.185Z</time></trkpt><trkpt lat="44.1419041" lon="8.1343131"><ele>708.0</ele><time>2026-05-02T08:21:56.188Z</time></trkpt><trkpt lat="44.142019" lon="8.1343631"><ele>708.0</ele><time>2026-05-02T08:21:57.179Z</time></trkpt><trkpt lat="44.1421571" lon="8.1344126"><ele>708.0</ele><time>2026-05-02T08:21:58.188Z</time></trkpt><trkpt lat="44.1422846" lon="8.1344708"><ele>708.0</ele><time>2026-05-02T08:21:59.181Z</time></trkpt><trkpt lat="44.1424078" lon="8.1345273"><ele>708.0</ele><time>2026-05-02T08:22:00.184Z</time></trkpt><trkpt lat="44.1425239" lon="8.1345653"><ele>707.4</ele><time>2026-05-02T08:22:01.184Z</time></trkpt><trkpt lat="44.1426355" lon="8.1345852"><ele>706.8</ele><time>2026-05-02T08:22:02.189Z</time></trkpt><trkpt lat="44.1427259" lon="8.1345898"><ele>706.2</ele><time>2026-05-02T08:22:03.191Z</time></trkpt><trkpt lat="44.1428327" lon="8.1345685"><ele>705.6</ele><time>2026-05-02T08:22:04.196Z</time></trkpt><trkpt lat="44.1429016" lon="8.1345108"><ele>705.0</ele><time>2026-05-02T08:22:05.191Z</time></trkpt><trkpt lat="44.1429495" lon="8.1344294"><ele>705.0</ele><time>2026-05-02T08:22:06.186Z</time></trkpt><trkpt lat="44.1429999" lon="8.1343336"><ele>705.0</ele><time>2026-05-02T08:22:07.179Z</time></trkpt><trkpt lat="44.1430543" lon="8.1342321"><ele>705.0</ele><time>2026-05-02T08:22:08.184Z</time></trkpt><trkpt lat="44.1431168" lon="8.1341128"><ele>705.0</ele><time>2026-05-02T08:22:09.182Z</time></trkpt><trkpt lat="44.1431843" lon="8.1339903"><ele>705.0</ele><time>2026-05-02T08:22:10.19Z</time></trkpt><trkpt lat="44.1432624" lon="8.1338962"><ele>703.6</ele><time>2026-05-02T08:22:11.183Z</time></trkpt><trkpt lat="44.1433255" lon="8.1338084"><ele>702.2</ele><time>2026-05-02T08:22:12.191Z</time></trkpt><trkpt lat="44.1433855" lon="8.1337247"><ele>700.8</ele><time>2026-05-02T08:22:13.192Z</time></trkpt><trkpt lat="44.1434693" lon="8.1336736"><ele>699.4</ele><time>2026-05-02T08:22:14.185Z</time></trkpt><trkpt lat="44.1435691" lon="8.1336454"><ele>698.0</ele><time>2026-05-02T08:22:15.186Z</time></trkpt><trkpt lat="44.14368" lon="8.1335867"><ele>698.0</ele><time>2026-05-02T08:22:16.189Z</time></trkpt><trkpt lat="44.1437849" lon="8.1335396"><ele>698.0</ele><time>2026-05-02T08:22:17.191Z</time></trkpt><trkpt lat="44.1439001" lon="8.133532"><ele>698.0</ele><time>2026-05-02T08:22:18.187Z</time></trkpt><trkpt lat="44.1439999" lon="8.1335223"><ele>698.0</ele><time>2026-05-02T08:22:19.191Z</time></trkpt><trkpt lat="44.14409" lon="8.1335243"><ele>698.0</ele><time>2026-05-02T08:22:20.187Z</time></trkpt><trkpt lat="44.144172" lon="8.1335448"><ele>697.6666666666666</ele><time>2026-05-02T08:22:21.192Z</time></trkpt><trkpt lat="44.1442495" lon="8.1335467"><ele>697.3333333333333</ele><time>2026-05-02T08:22:22.192Z</time></trkpt><trkpt lat="44.1443275" lon="8.133523"><ele>697.0</ele><time>2026-05-02T08:22:23.189Z</time></trkpt><trkpt lat="44.1444183" lon="8.1334857"><ele>696.6666666666666</ele><time>2026-05-02T08:22:24.191Z</time></trkpt><trkpt lat="44.1445088" lon="8.13345"><ele>696.3333333333334</ele><time>2026-05-02T08:22:25.192Z</time></trkpt><trkpt lat="44.1445872" lon="8.1334118"><ele>696.0</ele><time>2026-05-02T08:22:26.192Z</time></trkpt><trkpt lat="44.1446654" lon="8.1333832"><ele>696.0</ele><time>2026-05-02T08:22:27.19Z</time></trkpt><trkpt lat="44.1447288" lon="8.1333573"><ele>696.0</ele><time>2026-05-02T08:22:28.185Z</time></trkpt><trkpt lat="44.1448139" lon="8.1333187"><ele>696.0</ele><time>2026-05-02T08:22:30.194Z</time></trkpt><trkpt lat="44.1448787" lon="8.1332794"><ele>696.0</ele><time>2026-05-02T08:22:32.196Z</time></trkpt><trkpt lat="44.1449516" lon="8.133241"><ele>696.0</ele><time>2026-05-02T08:22:34.196Z</time></trkpt><trkpt lat="44.145018" lon="8.1331954"><ele>696.0</ele><time>2026-05-02T08:22:36.193Z</time></trkpt><trkpt lat="44.1451005" lon="8.1331297"><ele>694.5</ele><time>2026-05-02T08:22:38.195Z</time></trkpt><trkpt lat="44.1451943" lon="8.133062"><ele>693.0</ele><time>2026-05-02T08:22:40.193Z</time></trkpt><trkpt lat="44.1452998" lon="8.1330049"><ele>691.5</ele><time>2026-05-02T08:22:42.192Z</time></trkpt><trkpt lat="44.1454206" lon="8.1329861"><ele>690.0</ele><time>2026-05-02T08:22:44.193Z</time></trkpt><trkpt lat="44.1455304" lon="8.1329719"><ele>690.0</ele><time>2026-05-02T08:22:46.191Z</time></trkpt><trkpt lat="44.1456348" lon="8.1329461"><ele>690.0</ele><time>2026-05-02T08:22:48.195Z</time></trkpt><trkpt lat="44.1457364" lon="8.1329076"><ele>690.0</ele><time>2026-05-02T08:22:50.192Z</time></trkpt><trkpt lat="44.1458319" lon="8.1328694"><ele>690.0</ele><time>2026-05-02T08:22:52.192Z</time></trkpt><trkpt lat="44.1459281" lon="8.1328499"><ele>690.0</ele><time>2026-05-02T08:22:54.189Z</time></trkpt><trkpt lat="44.1460277" lon="8.1328265"><ele>690.6</ele><time>2026-05-02T08:22:56.191Z</time></trkpt><trkpt lat="44.1461387" lon="8.1327969"><ele>691.2</ele><time>2026-05-02T08:22:58.197Z</time></trkpt><trkpt lat="44.1462406" lon="8.1327524"><ele>691.8</ele><time>2026-05-02T08:23:00.195Z</time></trkpt><trkpt lat="44.1463339" lon="8.1327169"><ele>692.4</ele><time>2026-05-02T08:23:02.192Z</time></trkpt><trkpt lat="44.1464194" lon="8.1326882"><ele>693.0</ele><time>2026-05-02T08:23:04.192Z</time></trkpt><trkpt lat="44.1464934" lon="8.1326894"><ele>694.3333333333334</ele><time>2026-05-02T08:23:06.197Z</time></trkpt><trkpt lat="44.1465583" lon="8.1327435"><ele>695.6666666666666</ele><time>2026-05-02T08:23:08.191Z</time></trkpt><trkpt lat="44.1466101" lon="8.1328365"><ele>697.0</ele><time>2026-05-02T08:23:10.197Z</time></trkpt><trkpt lat="44.1466474" lon="8.1329391"><ele>698.3333333333333</ele><time>2026-05-02T08:23:13.198Z</time></trkpt><trkpt lat="44.1466956" lon="8.1330427"><ele>699.6666666666666</ele><time>2026-05-02T08:23:16.185Z</time></trkpt><trkpt lat="44.1467598" lon="8.1331421"><ele>701.0</ele><time>2026-05-02T08:23:18.191Z</time></trkpt><trkpt lat="44.1468307" lon="8.1332009"><ele>701.0</ele><time>2026-05-02T08:23:20.19Z</time></trkpt><trkpt lat="44.1469086" lon="8.1332404"><ele>701.0</ele><time>2026-05-02T08:23:23.195Z</time></trkpt><trkpt lat="44.1469762" lon="8.1332353"><ele>701.0</ele><time>2026-05-02T08:23:25.188Z</time></trkpt><trkpt lat="44.1470632" lon="8.1331741"><ele>701.0</ele><time>2026-05-02T08:23:27.182Z</time></trkpt><trkpt lat="44.1471211" lon="8.1330458"><ele>701.0</ele><time>2026-05-02T08:23:29.191Z</time></trkpt><trkpt lat="44.1471623" lon="8.1329375"><ele>701.0</ele><time>2026-05-02T08:23:31.201Z</time></trkpt><trkpt lat="44.14721" lon="8.1328643"><ele>701.0</ele><time>2026-05-02T08:23:44.186Z</time></trkpt><trkpt lat="44.1472841" lon="8.1327962"><ele>701.0</ele><time>2026-05-02T08:23:46.182Z</time></trkpt><trkpt lat="44.1473341" lon="8.1327425"><ele>701.0</ele><time>2026-05-02T08:23:47.188Z</time></trkpt><trkpt lat="44.14739" lon="8.1326657"><ele>701.0</ele><time>2026-05-02T08:23:48.185Z</time></trkpt><trkpt lat="44.1474495" lon="8.1325648"><ele>701.0</ele><time>2026-05-02T08:23:49.178Z</time></trkpt><trkpt lat="44.1475019" lon="8.1324559"><ele>701.0</ele><time>2026-05-02T08:23:50.189Z</time></trkpt><trkpt lat="44.1475328" lon="8.1323077"><ele>705.25</ele><time>2026-05-02T08:23:51.191Z</time></trkpt><trkpt lat="44.1475443" lon="8.1321286"><ele>709.5</ele><time>2026-05-02T08:23:52.195Z</time></trkpt><trkpt lat="44.1475465" lon="8.1319422"><ele>713.75</ele><time>2026-05-02T08:23:53.2Z</time></trkpt><trkpt lat="44.1475561" lon="8.1317528"><ele>718.0</ele><time>2026-05-02T08:23:54.194Z</time></trkpt><trkpt lat="44.1475818" lon="8.1315698"><ele>715.5</ele><time>2026-05-02T08:23:55.196Z</time></trkpt><trkpt lat="44.1476256" lon="8.1313944"><ele>713.0</ele><time>2026-05-02T08:23:56.193Z</time></trkpt><trkpt lat="44.1476768" lon="8.1312314"><ele>710.5</ele><time>2026-05-02T08:23:57.194Z</time></trkpt><trkpt lat="44.1477334" lon="8.1310689"><ele>708.0</ele><time>2026-05-02T08:23:58.195Z</time></trkpt><trkpt lat="44.1477873" lon="8.1309044"><ele>708.0</ele><time>2026-05-02T08:23:59.194Z</time></trkpt><trkpt lat="44.1478388" lon="8.1307349"><ele>708.0</ele><time>2026-05-02T08:24:00.198Z</time></trkpt><trkpt lat="44.1478921" lon="8.1305784"><ele>708.0</ele><time>2026-05-02T08:24:01.187Z</time></trkpt><trkpt lat="44.1479479" lon="8.1304283"><ele>708.0</ele><time>2026-05-02T08:24:02.19Z</time></trkpt><trkpt lat="44.1480132" lon="8.130288"><ele>709.0</ele><time>2026-05-02T08:24:03.194Z</time></trkpt><trkpt lat="44.1480842" lon="8.1301546"><ele>710.0</ele><time>2026-05-02T08:24:04.188Z</time></trkpt><trkpt lat="44.1481792" lon="8.1300328"><ele>711.0</ele><time>2026-05-02T08:24:05.191Z</time></trkpt><trkpt lat="44.1482767" lon="8.1299095"><ele>712.0</ele><time>2026-05-02T08:24:06.194Z</time></trkpt><trkpt lat="44.1483738" lon="8.1297814"><ele>712.0</ele><time>2026-05-02T08:24:07.193Z</time></trkpt><trkpt lat="44.1484797" lon="8.1296488"><ele>712.0</ele><time>2026-05-02T08:24:08.192Z</time></trkpt><trkpt lat="44.1485908" lon="8.1295193"><ele>712.0</ele><time>2026-05-02T08:24:09.192Z</time></trkpt><trkpt lat="44.1487104" lon="8.1293881"><ele>712.0</ele><time>2026-05-02T08:24:10.193Z</time></trkpt><trkpt lat="44.1488342" lon="8.1292637"><ele>712.0</ele><time>2026-05-02T08:24:11.192Z</time></trkpt><trkpt lat="44.1489651" lon="8.1291225"><ele>712.0</ele><time>2026-05-02T08:24:12.195Z</time></trkpt><trkpt lat="44.1490875" lon="8.1289678"><ele>712.0</ele><time>2026-05-02T08:24:13.195Z</time></trkpt><trkpt lat="44.1492076" lon="8.1288204"><ele>713.3333333333334</ele><time>2026-05-02T08:24:14.194Z</time></trkpt><trkpt lat="44.1493365" lon="8.1286698"><ele>714.6666666666666</ele><time>2026-05-02T08:24:15.197Z</time></trkpt><trkpt lat="44.1494654" lon="8.1285494"><ele>716.0</ele><time>2026-05-02T08:24:16.195Z</time></trkpt><trkpt lat="44.1495986" lon="8.128462"><ele>716.0</ele><time>2026-05-02T08:24:17.192Z</time></trkpt><trkpt lat="44.1497349" lon="8.1283974"><ele>716.0</ele><time>2026-05-02T08:24:18.195Z</time></trkpt><trkpt lat="44.1498561" lon="8.1283296"><ele>716.0</ele><time>2026-05-02T08:24:19.2Z</time></trkpt><trkpt lat="44.1499742" lon="8.1282739"><ele>716.0</ele><time>2026-05-02T08:24:20.2Z</time></trkpt><trkpt lat="44.1500886" lon="8.1282226"><ele>713.25</ele><time>2026-05-02T08:24:21.196Z</time></trkpt><trkpt lat="44.1502008" lon="8.1281824"><ele>710.5</ele><time>2026-05-02T08:24:22.193Z</time></trkpt><trkpt lat="44.1503095" lon="8.1281658"><ele>707.75</ele><time>2026-05-02T08:24:23.191Z</time></trkpt><trkpt lat="44.1504188" lon="8.1281911"><ele>705.0</ele><time>2026-05-02T08:24:24.204Z</time></trkpt><trkpt lat="44.1505058" lon="8.1283126"><ele>708.25</ele><time>2026-05-02T08:24:25.195Z</time></trkpt><trkpt lat="44.1505883" lon="8.128456"><ele>711.5</ele><time>2026-05-02T08:24:26.197Z</time></trkpt><trkpt lat="44.1506605" lon="8.1285968"><ele>714.75</ele><time>2026-05-02T08:24:27.196Z</time></trkpt><trkpt lat="44.1507358" lon="8.1287343"><ele>718.0</ele><time>2026-05-02T08:24:28.2Z</time></trkpt><trkpt lat="44.150814" lon="8.1288741"><ele>718.0</ele><time>2026-05-02T08:24:29.198Z</time></trkpt><trkpt lat="44.1508984" lon="8.1290225"><ele>718.0</ele><time>2026-05-02T08:24:30.197Z</time></trkpt><trkpt lat="44.1509928" lon="8.1291755"><ele>718.0</ele><time>2026-05-02T08:24:31.197Z</time></trkpt><trkpt lat="44.1510926" lon="8.1293247"><ele>718.0</ele><time>2026-05-02T08:24:32.194Z</time></trkpt><trkpt lat="44.1512022" lon="8.1294814"><ele>721.0</ele><time>2026-05-02T08:24:33.196Z</time></trkpt><trkpt lat="44.1513129" lon="8.1295876"><ele>724.0</ele><time>2026-05-02T08:24:34.193Z</time></trkpt><trkpt lat="44.1514261" lon="8.1296849"><ele>727.0</ele><time>2026-05-02T08:24:35.193Z</time></trkpt><trkpt lat="44.1515545" lon="8.1297488"><ele>730.0</ele><time>2026-05-02T08:24:36.193Z</time></trkpt><trkpt lat="44.1516771" lon="8.1298115"><ele>730.0</ele><time>2026-05-02T08:24:37.191Z</time></trkpt><trkpt lat="44.1517709" lon="8.129868"><ele>730.0</ele><time>2026-05-02T08:24:38.193Z</time></trkpt><trkpt lat="44.151852" lon="8.1299055"><ele>730.0</ele><time>2026-05-02T08:24:39.193Z</time></trkpt><trkpt lat="44.1519256" lon="8.1299226"><ele>730.0</ele><time>2026-05-02T08:24:40.185Z</time></trkpt><trkpt lat="44.1519926" lon="8.1299246"><ele>730.0</ele><time>2026-05-02T08:24:41.185Z</time></trkpt><trkpt lat="44.1520573" lon="8.1298979"><ele>730.0</ele><time>2026-05-02T08:24:42.192Z</time></trkpt><trkpt lat="44.1521241" lon="8.1298427"><ele>730.0</ele><time>2026-05-02T08:24:43.192Z</time></trkpt><trkpt lat="44.1521889" lon="8.1297672"><ele>730.0</ele><time>2026-05-02T08:24:44.189Z</time></trkpt><trkpt lat="44.152255" lon="8.1296688"><ele>730.0</ele><time>2026-05-02T08:24:45.188Z</time></trkpt><trkpt lat="44.1523232" lon="8.1295583"><ele>730.0</ele><time>2026-05-02T08:24:46.188Z</time></trkpt><trkpt lat="44.1523934" lon="8.1294397"><ele>730.0</ele><time>2026-05-02T08:24:47.182Z</time></trkpt><trkpt lat="44.15247" lon="8.1292974"><ele>732.0</ele><time>2026-05-02T08:24:48.187Z</time></trkpt><trkpt lat="44.1525615" lon="8.1291554"><ele>734.0</ele><time>2026-05-02T08:24:49.186Z</time></trkpt><trkpt lat="44.1526554" lon="8.1290129"><ele>736.0</ele><time>2026-05-02T08:24:50.188Z</time></trkpt><trkpt lat="44.1527607" lon="8.1288469"><ele>738.0</ele><time>2026-05-02T08:24:51.183Z</time></trkpt><trkpt lat="44.1528597" lon="8.1286685"><ele>738.0</ele><time>2026-05-02T08:24:52.189Z</time></trkpt><trkpt lat="44.1529525" lon="8.1284781"><ele>738.0</ele><time>2026-05-02T08:24:53.191Z</time></trkpt><trkpt lat="44.1530402" lon="8.1282906"><ele>738.0</ele><time>2026-05-02T08:24:54.189Z</time></trkpt><trkpt lat="44.1531244" lon="8.1280991"><ele>735.3333333333334</ele><time>2026-05-02T08:24:55.194Z</time></trkpt><trkpt lat="44.1531998" lon="8.127879"><ele>732.6666666666667</ele><time>2026-05-02T08:24:56.186Z</time></trkpt><trkpt lat="44.1532591" lon="8.1276437"><ele>730.0</ele><time>2026-05-02T08:24:57.19Z</time></trkpt><trkpt lat="44.1533083" lon="8.1274067"><ele>737.0</ele><time>2026-05-02T08:24:58.187Z</time></trkpt><trkpt lat="44.1533605" lon="8.1271556"><ele>744.0</ele><time>2026-05-02T08:24:59.193Z</time></trkpt><trkpt lat="44.1534158" lon="8.1269276"><ele>751.0</ele><time>2026-05-02T08:25:00.186Z</time></trkpt><trkpt lat="44.1534735" lon="8.1267241"><ele>751.0</ele><time>2026-05-02T08:25:01.189Z</time></trkpt><trkpt lat="44.1535447" lon="8.1265616"><ele>751.0</ele><time>2026-05-02T08:25:02.186Z</time></trkpt><trkpt lat="44.1536422" lon="8.1264424"><ele>751.0</ele><time>2026-05-02T08:25:03.195Z</time></trkpt><trkpt lat="44.1537771" lon="8.1263648"><ele>751.0</ele><time>2026-05-02T08:25:04.191Z</time></trkpt><trkpt lat="44.1538788" lon="8.1262693"><ele>747.25</ele><time>2026-05-02T08:25:05.192Z</time></trkpt><trkpt lat="44.1539351" lon="8.1261468"><ele>743.5</ele><time>2026-05-02T08:25:06.19Z</time></trkpt><trkpt lat="44.1539506" lon="8.1259829"><ele>739.75</ele><time>2026-05-02T08:25:07.185Z</time></trkpt><trkpt lat="44.1539682" lon="8.1258192"><ele>736.0</ele><time>2026-05-02T08:25:08.188Z</time></trkpt><trkpt lat="44.1540061" lon="8.1256526"><ele>742.5</ele><time>2026-05-02T08:25:09.188Z</time></trkpt><trkpt lat="44.1540422" lon="8.1254814"><ele>749.0</ele><time>2026-05-02T08:25:10.188Z</time></trkpt><trkpt lat="44.1540993" lon="8.1252978"><ele>755.5</ele><time>2026-05-02T08:25:11.183Z</time></trkpt><trkpt lat="44.1541667" lon="8.1251145"><ele>762.0</ele><time>2026-05-02T08:25:12.18Z</time></trkpt><trkpt lat="44.1542501" lon="8.1249224"><ele>756.0</ele><time>2026-05-02T08:25:13.187Z</time></trkpt><trkpt lat="44.1543406" lon="8.1247406"><ele>750.0</ele><time>2026-05-02T08:25:14.197Z</time></trkpt><trkpt lat="44.1544318" lon="8.1245682"><ele>744.0</ele><time>2026-05-02T08:25:15.198Z</time></trkpt><trkpt lat="44.1545199" lon="8.1244209"><ele>744.0</ele><time>2026-05-02T08:25:16.19Z</time></trkpt><trkpt lat="44.1546103" lon="8.1242964"><ele>744.0</ele><time>2026-05-02T08:25:17.189Z</time></trkpt><trkpt lat="44.1547149" lon="8.1242119"><ele>744.0</ele><time>2026-05-02T08:25:18.191Z</time></trkpt><trkpt lat="44.1548418" lon="8.1241648"><ele>744.0</ele><time>2026-05-02T08:25:19.191Z</time></trkpt><trkpt lat="44.1549885" lon="8.1241235"><ele>744.75</ele><time>2026-05-02T08:25:20.191Z</time></trkpt><trkpt lat="44.1551234" lon="8.1240497"><ele>745.5</ele><time>2026-05-02T08:25:21.183Z</time></trkpt><trkpt lat="44.1552545" lon="8.123979"><ele>746.25</ele><time>2026-05-02T08:25:22.186Z</time></trkpt><trkpt lat="44.155388" lon="8.1239292"><ele>747.0</ele><time>2026-05-02T08:25:23.191Z</time></trkpt><trkpt lat="44.1555161" lon="8.1238832"><ele>747.0</ele><time>2026-05-02T08:25:24.182Z</time></trkpt><trkpt lat="44.1556373" lon="8.123875"><ele>747.0</ele><time>2026-05-02T08:25:25.186Z</time></trkpt><trkpt lat="44.1557447" lon="8.1238839"><ele>747.0</ele><time>2026-05-02T08:25:26.186Z</time></trkpt><trkpt lat="44.1558502" lon="8.123899"><ele>747.0</ele><time>2026-05-02T08:25:27.184Z</time></trkpt><trkpt lat="44.155953" lon="8.123955"><ele>747.0</ele><time>2026-05-02T08:25:28.192Z</time></trkpt><trkpt lat="44.1560602" lon="8.1240457"><ele>754.75</ele><time>2026-05-02T08:25:29.19Z</time></trkpt><trkpt lat="44.1561633" lon="8.1241414"><ele>762.5</ele><time>2026-05-02T08:25:30.188Z</time></trkpt><trkpt lat="44.1562674" lon="8.1242431"><ele>770.25</ele><time>2026-05-02T08:25:31.19Z</time></trkpt><trkpt lat="44.1563616" lon="8.1243481"><ele>778.0</ele><time>2026-05-02T08:25:32.183Z</time></trkpt><trkpt lat="44.1564494" lon="8.1244425"><ele>781.5999999999999</ele><time>2026-05-02T08:25:33.182Z</time></trkpt><trkpt lat="44.1565408" lon="8.1245135"><ele>785.1999999999999</ele><time>2026-05-02T08:25:34.176Z</time></trkpt><trkpt lat="44.1566271" lon="8.1245607"><ele>788.8</ele><time>2026-05-02T08:25:35.183Z</time></trkpt><trkpt lat="44.1567147" lon="8.1245667"><ele>792.4</ele><time>2026-05-02T08:25:36.193Z</time></trkpt><trkpt lat="44.1568002" lon="8.1245242"><ele>796.0</ele><time>2026-05-02T08:25:37.192Z</time></trkpt><trkpt lat="44.1568635" lon="8.124459"><ele>796.0</ele><time>2026-05-02T08:25:38.192Z</time></trkpt><trkpt lat="44.1569117" lon="8.1243622"><ele>796.0</ele><time>2026-05-02T08:25:39.184Z</time></trkpt><trkpt lat="44.1569522" lon="8.1242572"><ele>796.0</ele><time>2026-05-02T08:25:40.194Z</time></trkpt><trkpt lat="44.1569952" lon="8.1241401"><ele>796.0</ele><time>2026-05-02T08:25:41.194Z</time></trkpt><trkpt lat="44.1570529" lon="8.1239908"><ele>796.0</ele><time>2026-05-02T08:25:42.193Z</time></trkpt><trkpt lat="44.1571164" lon="8.1238492"><ele>798.25</ele><time>2026-05-02T08:25:43.192Z</time></trkpt><trkpt lat="44.1571866" lon="8.1237016"><ele>800.5</ele><time>2026-05-02T08:25:44.191Z</time></trkpt><trkpt lat="44.1572695" lon="8.1235486"><ele>802.75</ele><time>2026-05-02T08:25:45.198Z</time></trkpt><trkpt lat="44.15737" lon="8.1234048"><ele>805.0</ele><time>2026-05-02T08:25:46.19Z</time></trkpt><trkpt lat="44.1574868" lon="8.1232907"><ele>793.6666666666666</ele><time>2026-05-02T08:25:47.189Z</time></trkpt><trkpt lat="44.1576096" lon="8.1231726"><ele>782.3333333333333</ele><time>2026-05-02T08:25:48.191Z</time></trkpt><trkpt lat="44.1577435" lon="8.123057"><ele>771.0</ele><time>2026-05-02T08:25:49.191Z</time></trkpt><trkpt lat="44.1578953" lon="8.1229451"><ele>771.0</ele><time>2026-05-02T08:25:50.179Z</time></trkpt><trkpt lat="44.1580584" lon="8.1228206"><ele>771.0</ele><time>2026-05-02T08:25:51.188Z</time></trkpt><trkpt lat="44.1582258" lon="8.1226824"><ele>771.0</ele><time>2026-05-02T08:25:52.187Z</time></trkpt><trkpt lat="44.1583961" lon="8.1225113"><ele>773.3333333333333</ele><time>2026-05-02T08:25:53.192Z</time></trkpt><trkpt lat="44.1585695" lon="8.1223304"><ele>775.6666666666666</ele><time>2026-05-02T08:25:54.191Z</time></trkpt><trkpt lat="44.1587234" lon="8.122144"><ele>778.0</ele><time>2026-05-02T08:25:55.188Z</time></trkpt><trkpt lat="44.1588744" lon="8.1219598"><ele>778.0</ele><time>2026-05-02T08:25:56.186Z</time></trkpt><trkpt lat="44.1590097" lon="8.1217555"><ele>778.0</ele><time>2026-05-02T08:25:57.19Z</time></trkpt><trkpt lat="44.1591187" lon="8.1215397"><ele>778.0</ele><time>2026-05-02T08:25:58.194Z</time></trkpt><trkpt lat="44.1591994" lon="8.1213142"><ele>783.3333333333333</ele><time>2026-05-02T08:25:59.196Z</time></trkpt><trkpt lat="44.1592599" lon="8.1210946"><ele>788.6666666666667</ele><time>2026-05-02T08:26:00.199Z</time></trkpt><trkpt lat="44.1593168" lon="8.1208783"><ele>794.0</ele><time>2026-05-02T08:26:01.197Z</time></trkpt><trkpt lat="44.1593701" lon="8.1207041"><ele>794.0</ele><time>2026-05-02T08:26:02.194Z</time></trkpt><trkpt lat="44.1594239" lon="8.1205715"><ele>794.0</ele><time>2026-05-02T08:26:03.192Z</time></trkpt><trkpt lat="44.1594731" lon="8.1204748"><ele>794.0</ele><time>2026-05-02T08:26:04.201Z</time></trkpt><trkpt lat="44.1595325" lon="8.1203726"><ele>794.0</ele><time>2026-05-02T08:26:06.202Z</time></trkpt><trkpt lat="44.1595676" lon="8.1202623"><ele>794.0</ele><time>2026-05-02T08:26:08.209Z</time></trkpt><trkpt lat="44.1596314" lon="8.1201166"><ele>794.0</ele><time>2026-05-02T08:26:10.207Z</time></trkpt><trkpt lat="44.1596929" lon="8.1200167"><ele>794.0</ele><time>2026-05-02T08:26:12.207Z</time></trkpt><trkpt lat="44.1597436" lon="8.119931"><ele>794.0</ele><time>2026-05-02T08:26:35.195Z</time></trkpt><trkpt lat="44.159827" lon="8.1198034"><ele>794.0</ele><time>2026-05-02T08:26:37.194Z</time></trkpt><trkpt lat="44.1598922" lon="8.1196907"><ele>794.0</ele><time>2026-05-02T08:26:38.198Z</time></trkpt><trkpt lat="44.1599611" lon="8.1196114"><ele>796.4000000000001</ele><time>2026-05-02T08:26:39.194Z</time></trkpt><trkpt lat="44.1600299" lon="8.1195192"><ele>798.8</ele><time>2026-05-02T08:26:40.195Z</time></trkpt><trkpt lat="44.1600885" lon="8.1194068"><ele>801.2</ele><time>2026-05-02T08:26:41.187Z</time></trkpt><trkpt lat="44.1601467" lon="8.1192927"><ele>803.5999999999999</ele><time>2026-05-02T08:26:42.198Z</time></trkpt><trkpt lat="44.1601865" lon="8.1191599"><ele>806.0</ele><time>2026-05-02T08:26:43.192Z</time></trkpt><trkpt lat="44.1602229" lon="8.1190224"><ele>806.0</ele><time>2026-05-02T08:26:44.193Z</time></trkpt><trkpt lat="44.160255" lon="8.1188823"><ele>806.0</ele><time>2026-05-02T08:26:45.192Z</time></trkpt><trkpt lat="44.1602926" lon="8.1187457"><ele>806.0</ele><time>2026-05-02T08:26:46.198Z</time></trkpt><trkpt lat="44.1603335" lon="8.1186131"><ele>806.0</ele><time>2026-05-02T08:26:47.198Z</time></trkpt><trkpt lat="44.160384" lon="8.1184812"><ele>806.0</ele><time>2026-05-02T08:26:48.207Z</time></trkpt><trkpt lat="44.1604398" lon="8.1183446"><ele>805.0</ele><time>2026-05-02T08:26:49.197Z</time></trkpt><trkpt lat="44.160501" lon="8.1182138"><ele>804.0</ele><time>2026-05-02T08:26:50.199Z</time></trkpt><trkpt lat="44.160561" lon="8.1180841"><ele>803.0</ele><time>2026-05-02T08:26:51.199Z</time></trkpt><trkpt lat="44.1606134" lon="8.1179617"><ele>802.0</ele><time>2026-05-02T08:26:52.207Z</time></trkpt><trkpt lat="44.1606604" lon="8.1178533"><ele>801.0</ele><time>2026-05-02T08:26:53.21Z</time></trkpt><trkpt lat="44.1607001" lon="8.1177666"><ele>806.1666666666666</ele><time>2026-05-02T08:26:54.207Z</time></trkpt><trkpt lat="44.1607685" lon="8.1176756"><ele>811.3333333333333</ele><time>2026-05-02T08:26:56.206Z</time></trkpt><trkpt lat="44.1608424" lon="8.1176815"><ele>816.5</ele><time>2026-05-02T08:26:58.21Z</time></trkpt><trkpt lat="44.1608604" lon="8.1178271"><ele>821.6666666666666</ele><time>2026-05-02T08:27:00.213Z</time></trkpt><trkpt lat="44.1608396" lon="8.1179296"><ele>826.8333333333333</ele><time>2026-05-02T08:27:01.202Z</time></trkpt><trkpt lat="44.1608164" lon="8.1180574"><ele>832.0</ele><time>2026-05-02T08:27:02.206Z</time></trkpt><trkpt lat="44.1607899" lon="8.1182031"><ele>832.25</ele><time>2026-05-02T08:27:03.207Z</time></trkpt><trkpt lat="44.1607622" lon="8.1183527"><ele>832.5</ele><time>2026-05-02T08:27:04.205Z</time></trkpt><trkpt lat="44.1607334" lon="8.1185223"><ele>832.75</ele><time>2026-05-02T08:27:05.2Z</time></trkpt><trkpt lat="44.1607076" lon="8.1186936"><ele>833.0</ele><time>2026-05-02T08:27:06.207Z</time></trkpt><trkpt lat="44.1606839" lon="8.1188487"><ele>833.0000000000001</ele><time>2026-05-02T08:27:07.193Z</time></trkpt><trkpt lat="44.1606704" lon="8.1189821"><ele>833.0</ele><time>2026-05-02T08:27:08.21Z</time></trkpt><trkpt lat="44.1606698" lon="8.1190924"><ele>833.0</ele><time>2026-05-02T08:27:09.224Z</time></trkpt><trkpt lat="44.1607083" lon="8.1192092"><ele>833.0</ele><time>2026-05-02T08:27:11.224Z</time></trkpt><trkpt lat="44.1607817" lon="8.119149"><ele>833.0000000000001</ele><time>2026-05-02T08:27:13.21Z</time></trkpt><trkpt lat="44.1608134" lon="8.1190531"><ele>833.0</ele><time>2026-05-02T08:27:14.206Z</time></trkpt><trkpt lat="44.1608393" lon="8.1189273"><ele>833.0</ele><time>2026-05-02T08:27:15.215Z</time></trkpt><trkpt lat="44.1608533" lon="8.1187778"><ele>833.0</ele><time>2026-05-02T08:27:16.212Z</time></trkpt><trkpt lat="44.1608782" lon="8.1186327"><ele>833.0</ele><time>2026-05-02T08:27:17.213Z</time></trkpt><trkpt lat="44.1609184" lon="8.118486"><ele>833.0</ele><time>2026-05-02T08:27:18.215Z</time></trkpt><trkpt lat="44.1609784" lon="8.1183384"><ele>832.75</ele><time>2026-05-02T08:27:19.212Z</time></trkpt><trkpt lat="44.1610513" lon="8.1181993"><ele>832.5</ele><time>2026-05-02T08:27:20.223Z</time></trkpt><trkpt lat="44.1611271" lon="8.1180515"><ele>832.25</ele><time>2026-05-02T08:27:21.218Z</time></trkpt><trkpt lat="44.1612038" lon="8.1179076"><ele>832.0</ele><time>2026-05-02T08:27:22.207Z</time></trkpt><trkpt lat="44.1612734" lon="8.1177633"><ele>832.0</ele><time>2026-05-02T08:27:23.2Z</time></trkpt><trkpt lat="44.1613276" lon="8.1176158"><ele>832.0</ele><time>2026-05-02T08:27:24.206Z</time></trkpt><trkpt lat="44.1613632" lon="8.117464"><ele>832.0</ele><time>2026-05-02T08:27:25.194Z</time></trkpt><trkpt lat="44.1613849" lon="8.1173197"><ele>832.0</ele><time>2026-05-02T08:27:26.196Z</time></trkpt><trkpt lat="44.1613975" lon="8.1171855"><ele>832.0</ele><time>2026-05-02T08:27:27.192Z</time></trkpt><trkpt lat="44.1614091" lon="8.1170556"><ele>833.3333333333333</ele><time>2026-05-02T08:27:28.195Z</time></trkpt><trkpt lat="44.1614412" lon="8.116933"><ele>834.6666666666666</ele><time>2026-05-02T08:27:29.197Z</time></trkpt><trkpt lat="44.1614785" lon="8.1168069"><ele>836.0</ele><time>2026-05-02T08:27:30.197Z</time></trkpt><trkpt lat="44.1615199" lon="8.1166889"><ele>837.3333333333333</ele><time>2026-05-02T08:27:31.19Z</time></trkpt><trkpt lat="44.1615577" lon="8.1165851"><ele>838.6666666666666</ele><time>2026-05-02T08:27:32.194Z</time></trkpt><trkpt lat="44.1615723" lon="8.1164883"><ele>840.0</ele><time>2026-05-02T08:27:33.197Z</time></trkpt><trkpt lat="44.161558" lon="8.1164014"><ele>842.0</ele><time>2026-05-02T08:27:34.194Z</time></trkpt><trkpt lat="44.161518" lon="8.116323"><ele>844.0</ele><time>2026-05-02T08:27:35.193Z</time></trkpt><trkpt lat="44.1614602" lon="8.1162503"><ele>846.0</ele><time>2026-05-02T08:27:36.191Z</time></trkpt><trkpt lat="44.1614123" lon="8.1161637"><ele>848.0</ele><time>2026-05-02T08:27:37.204Z</time></trkpt><trkpt lat="44.1613607" lon="8.1160785"><ele>850.0</ele><time>2026-05-02T08:27:38.193Z</time></trkpt><trkpt lat="44.1613048" lon="8.1159751"><ele>852.0</ele><time>2026-05-02T08:27:39.207Z</time></trkpt><trkpt lat="44.1612592" lon="8.1158588"><ele>852.8</ele><time>2026-05-02T08:27:40.203Z</time></trkpt><trkpt lat="44.1612283" lon="8.1157365"><ele>853.6</ele><time>2026-05-02T08:27:41.204Z</time></trkpt><trkpt lat="44.1612268" lon="8.1156116"><ele>854.3999999999999</ele><time>2026-05-02T08:27:42.216Z</time></trkpt><trkpt lat="44.1612538" lon="8.1154782"><ele>855.1999999999999</ele><time>2026-05-02T08:27:43.204Z</time></trkpt><trkpt lat="44.161295" lon="8.1153498"><ele>856.0</ele><time>2026-05-02T08:27:44.206Z</time></trkpt><trkpt lat="44.1613276" lon="8.1152244"><ele>855.9999999999999</ele><time>2026-05-02T08:27:45.204Z</time></trkpt><trkpt lat="44.161348" lon="8.1150952"><ele>856.0</ele><time>2026-05-02T08:27:46.204Z</time></trkpt><trkpt lat="44.1613695" lon="8.1149933"><ele>856.0</ele><time>2026-05-02T08:27:47.206Z</time></trkpt><trkpt lat="44.1614425" lon="8.1149187"><ele>856.0</ele><time>2026-05-02T08:27:49.21Z</time></trkpt><trkpt lat="44.1615213" lon="8.1150136"><ele>855.9999999999999</ele><time>2026-05-02T08:27:51.209Z</time></trkpt><trkpt lat="44.1615599" lon="8.1151072"><ele>856.0</ele><time>2026-05-02T08:27:52.197Z</time></trkpt><trkpt lat="44.1615932" lon="8.1152208"><ele>861.0</ele><time>2026-05-02T08:27:53.209Z</time></trkpt><trkpt lat="44.1616242" lon="8.1153503"><ele>866.0</ele><time>2026-05-02T08:27:54.201Z</time></trkpt><trkpt lat="44.1616688" lon="8.1154916"><ele>871.0</ele><time>2026-05-02T08:27:55.207Z</time></trkpt><trkpt lat="44.1617318" lon="8.1156274"><ele>876.0</ele><time>2026-05-02T08:27:56.199Z</time></trkpt><trkpt lat="44.161807" lon="8.1157679"><ele>876.0</ele><time>2026-05-02T08:27:57.199Z</time></trkpt><trkpt lat="44.1619032" lon="8.1158886"><ele>876.0</ele><time>2026-05-02T08:27:58.2Z</time></trkpt><trkpt lat="44.1619971" lon="8.1159774"><ele>876.0</ele><time>2026-05-02T08:27:59.2Z</time></trkpt><trkpt lat="44.162099" lon="8.1160432"><ele>876.0</ele><time>2026-05-02T08:28:00.2Z</time></trkpt><trkpt lat="44.1621885" lon="8.1161053"><ele>876.0</ele><time>2026-05-02T08:28:01.195Z</time></trkpt><trkpt lat="44.1622641" lon="8.1161717"><ele>876.0</ele><time>2026-05-02T08:28:02.185Z</time></trkpt><trkpt lat="44.1623287" lon="8.1162469"><ele>876.0</ele><time>2026-05-02T08:28:03.188Z</time></trkpt><trkpt lat="44.162387" lon="8.1163227"><ele>876.0</ele><time>2026-05-02T08:28:04.196Z</time></trkpt><trkpt lat="44.1624357" lon="8.1163871"><ele>876.0</ele><time>2026-05-02T08:28:05.195Z</time></trkpt><trkpt lat="44.1624694" lon="8.116471"><ele>876.0</ele><time>2026-05-02T08:28:06.186Z</time></trkpt><trkpt lat="44.1624891" lon="8.1165693"><ele>879.8333333333334</ele><time>2026-05-02T08:28:07.201Z</time></trkpt><trkpt lat="44.1624879" lon="8.1166868"><ele>883.6666666666667</ele><time>2026-05-02T08:28:08.201Z</time></trkpt><trkpt lat="44.1624938" lon="8.1167977"><ele>887.5</ele><time>2026-05-02T08:28:09.193Z</time></trkpt><trkpt lat="44.1624994" lon="8.1169031"><ele>891.3333333333334</ele><time>2026-05-02T08:28:10.199Z</time></trkpt><trkpt lat="44.1624827" lon="8.1170135"><ele>895.1666666666667</ele><time>2026-05-02T08:28:11.196Z</time></trkpt><trkpt lat="44.1624565" lon="8.1171164"><ele>899.0</ele><time>2026-05-02T08:28:12.204Z</time></trkpt><trkpt lat="44.1624346" lon="8.117206"><ele>899.0</ele><time>2026-05-02T08:28:13.198Z</time></trkpt><trkpt lat="44.1624242" lon="8.117353"><ele>899.0000000000001</ele><time>2026-05-02T08:28:15.204Z</time></trkpt><trkpt lat="44.1624702" lon="8.1174438"><ele>899.0000000000001</ele><time>2026-05-02T08:28:17.2Z</time></trkpt><trkpt lat="44.1625368" lon="8.117394"><ele>899.0</ele><time>2026-05-02T08:28:19.209Z</time></trkpt><trkpt lat="44.1625441" lon="8.1172291"><ele>899.0</ele><time>2026-05-02T08:28:21.194Z</time></trkpt><trkpt lat="44.1625367" lon="8.1171183"><ele>899.0000000000001</ele><time>2026-05-02T08:28:22.199Z</time></trkpt><trkpt lat="44.162528" lon="8.117006"><ele>899.0</ele><time>2026-05-02T08:28:23.198Z</time></trkpt><trkpt lat="44.1625268" lon="8.1168865"><ele>899.0</ele><time>2026-05-02T08:28:24.204Z</time></trkpt><trkpt lat="44.1625393" lon="8.1167747"><ele>899.0</ele><time>2026-05-02T08:28:25.194Z</time></trkpt><trkpt lat="44.1625524" lon="8.1166597"><ele>899.0000000000001</ele><time>2026-05-02T08:28:26.191Z</time></trkpt><trkpt lat="44.1625625" lon="8.1165475"><ele>899.0</ele><time>2026-05-02T08:28:27.2Z</time></trkpt><trkpt lat="44.1625773" lon="8.1164357"><ele>900.1666666666667</ele><time>2026-05-02T08:28:28.194Z</time></trkpt><trkpt lat="44.1625934" lon="8.1163177"><ele>901.3333333333334</ele><time>2026-05-02T08:28:29.198Z</time></trkpt><trkpt lat="44.1626098" lon="8.1161969"><ele>902.5</ele><time>2026-05-02T08:28:30.197Z</time></trkpt><trkpt lat="44.1626192" lon="8.1160749"><ele>903.6666666666667</ele><time>2026-05-02T08:28:31.2Z</time></trkpt><trkpt lat="44.1626312" lon="8.1159553"><ele>904.8333333333334</ele><time>2026-05-02T08:28:32.197Z</time></trkpt><trkpt lat="44.1626372" lon="8.115857"><ele>906.0</ele><time>2026-05-02T08:28:33.2Z</time></trkpt><trkpt lat="44.1626381" lon="8.1157502"><ele>908.4</ele><time>2026-05-02T08:28:34.197Z</time></trkpt><trkpt lat="44.1626315" lon="8.1156422"><ele>910.8</ele><time>2026-05-02T08:28:35.191Z</time></trkpt><trkpt lat="44.1626138" lon="8.115531"><ele>913.1999999999999</ele><time>2026-05-02T08:28:36.19Z</time></trkpt><trkpt lat="44.162589" lon="8.1154049"><ele>915.5999999999999</ele><time>2026-05-02T08:28:37.194Z</time></trkpt><trkpt lat="44.1625698" lon="8.1152618"><ele>918.0</ele><time>2026-05-02T08:28:38.185Z</time></trkpt><trkpt lat="44.162541" lon="8.1151177"><ele>918.0</ele><time>2026-05-02T08:28:39.193Z</time></trkpt><trkpt lat="44.1625208" lon="8.1149711"><ele>918.0</ele><time>2026-05-02T08:28:40.195Z</time></trkpt><trkpt lat="44.1625062" lon="8.1148225"><ele>918.0</ele><time>2026-05-02T08:28:41.191Z</time></trkpt><trkpt lat="44.1624813" lon="8.1146876"><ele>918.0</ele><time>2026-05-02T08:28:42.204Z</time></trkpt><trkpt lat="44.1624499" lon="8.1145449"><ele>918.0</ele><time>2026-05-02T08:28:43.2Z</time></trkpt><trkpt lat="44.1624244" lon="8.1144167"><ele>918.8333333333334</ele><time>2026-05-02T08:28:44.206Z</time></trkpt><trkpt lat="44.1623937" lon="8.1142927"><ele>919.6666666666667</ele><time>2026-05-02T08:28:45.191Z</time></trkpt><trkpt lat="44.1623938" lon="8.11418"><ele>920.5</ele><time>2026-05-02T08:28:46.198Z</time></trkpt><trkpt lat="44.1624134" lon="8.1140766"><ele>921.3333333333334</ele><time>2026-05-02T08:28:47.192Z</time></trkpt><trkpt lat="44.1624419" lon="8.1139777"><ele>922.1666666666667</ele><time>2026-05-02T08:28:48.188Z</time></trkpt><trkpt lat="44.1624667" lon="8.1138697"><ele>923.0</ele><time>2026-05-02T08:28:49.196Z</time></trkpt><trkpt lat="44.1624875" lon="8.1137616"><ele>923.0</ele><time>2026-05-02T08:28:50.193Z</time></trkpt><trkpt lat="44.1625163" lon="8.1136429"><ele>923.0</ele><time>2026-05-02T08:28:51.201Z</time></trkpt><trkpt lat="44.1625579" lon="8.1135204"><ele>923.0</ele><time>2026-05-02T08:28:52.203Z</time></trkpt><trkpt lat="44.1626006" lon="8.1133974"><ele>923.0</ele><time>2026-05-02T08:28:53.199Z</time></trkpt><trkpt lat="44.1626438" lon="8.1132714"><ele>923.0</ele><time>2026-05-02T08:28:54.202Z</time></trkpt><trkpt lat="44.1626753" lon="8.1131392"><ele>923.0000000000001</ele><time>2026-05-02T08:28:55.197Z</time></trkpt><trkpt lat="44.1627047" lon="8.1130196"><ele>923.0</ele><time>2026-05-02T08:28:56.196Z</time></trkpt><trkpt lat="44.1627253" lon="8.1128925"><ele>923.0</ele><time>2026-05-02T08:28:57.2Z</time></trkpt><trkpt lat="44.1627377" lon="8.112772"><ele>923.0</ele><time>2026-05-02T08:28:58.186Z</time></trkpt><trkpt lat="44.162748" lon="8.1126489"><ele>923.0000000000001</ele><time>2026-05-02T08:28:59.195Z</time></trkpt><trkpt lat="44.1627527" lon="8.1125283"><ele>923.0</ele><time>2026-05-02T08:29:00.195Z</time></trkpt><trkpt lat="44.1627626" lon="8.1124134"><ele>919.8</ele><time>2026-05-02T08:29:01.196Z</time></trkpt><trkpt lat="44.1627713" lon="8.1123098"><ele>916.5999999999999</ele><time>2026-05-02T08:29:02.193Z</time></trkpt><trkpt lat="44.1627751" lon="8.1122126"><ele>913.4000000000001</ele><time>2026-05-02T08:29:03.194Z</time></trkpt><trkpt lat="44.1627745" lon="8.1121173"><ele>910.2</ele><time>2026-05-02T08:29:04.194Z</time></trkpt><trkpt lat="44.1627905" lon="8.11195"><ele>907.0</ele><time>2026-05-02T08:29:06.2Z</time></trkpt><trkpt lat="44.162859" lon="8.1118137"><ele>907.0</ele><time>2026-05-02T08:29:08.2Z</time></trkpt><trkpt lat="44.1629305" lon="8.1117614"><ele>907.0</ele><time>2026-05-02T08:29:09.201Z</time></trkpt><trkpt lat="44.1630192" lon="8.1117284"><ele>907.0</ele><time>2026-05-02T08:29:10.199Z</time></trkpt><trkpt lat="44.1631224" lon="8.1117006"><ele>907.0</ele><time>2026-05-02T08:29:11.193Z</time></trkpt><trkpt lat="44.1632341" lon="8.1116712"><ele>907.0</ele><time>2026-05-02T08:29:12.192Z</time></trkpt><trkpt lat="44.1633432" lon="8.1116297"><ele>910.25</ele><time>2026-05-02T08:29:13.191Z</time></trkpt><trkpt lat="44.1634573" lon="8.1115856"><ele>913.5</ele><time>2026-05-02T08:29:14.19Z</time></trkpt><trkpt lat="44.1635793" lon="8.1115268"><ele>916.75</ele><time>2026-05-02T08:29:15.189Z</time></trkpt><trkpt lat="44.1636992" lon="8.1114742"><ele>920.0</ele><time>2026-05-02T08:29:16.191Z</time></trkpt><trkpt lat="44.1638161" lon="8.1114147"><ele>920.0</ele><time>2026-05-02T08:29:17.194Z</time></trkpt><trkpt lat="44.1639324" lon="8.1113584"><ele>920.0</ele><time>2026-05-02T08:29:18.192Z</time></trkpt><trkpt lat="44.1640434" lon="8.1112828"><ele>920.0</ele><time>2026-05-02T08:29:19.19Z</time></trkpt><trkpt lat="44.1641434" lon="8.1112286"><ele>920.0</ele><time>2026-05-02T08:29:20.198Z</time></trkpt><trkpt lat="44.1642395" lon="8.1111619"><ele>925.8</ele><time>2026-05-02T08:29:21.193Z</time></trkpt><trkpt lat="44.1643329" lon="8.1110782"><ele>931.6</ele><time>2026-05-02T08:29:22.19Z</time></trkpt><trkpt lat="44.164422" lon="8.1109918"><ele>937.4000000000001</ele><time>2026-05-02T08:29:23.191Z</time></trkpt><trkpt lat="44.1645058" lon="8.1109205"><ele>943.2</ele><time>2026-05-02T08:29:24.193Z</time></trkpt><trkpt lat="44.1645891" lon="8.1108435"><ele>949.0</ele><time>2026-05-02T08:29:25.193Z</time></trkpt><trkpt lat="44.1646794" lon="8.1107834"><ele>950.6</ele><time>2026-05-02T08:29:26.194Z</time></trkpt><trkpt lat="44.1647597" lon="8.1107084"><ele>952.2</ele><time>2026-05-02T08:29:27.188Z</time></trkpt><trkpt lat="44.164841" lon="8.1106317"><ele>953.8000000000001</ele><time>2026-05-02T08:29:28.183Z</time></trkpt><trkpt lat="44.164928" lon="8.1105598"><ele>955.4000000000001</ele><time>2026-05-02T08:29:29.181Z</time></trkpt><trkpt lat="44.1650032" lon="8.1104861"><ele>957.0</ele><time>2026-05-02T08:29:30.2Z</time></trkpt><trkpt lat="44.1650832" lon="8.1104331"><ele>957.0</ele><time>2026-05-02T08:29:31.189Z</time></trkpt><trkpt lat="44.1651615" lon="8.1103762"><ele>957.0</ele><time>2026-05-02T08:29:32.185Z</time></trkpt><trkpt lat="44.165242" lon="8.1103231"><ele>957.0</ele><time>2026-05-02T08:29:33.182Z</time></trkpt><trkpt lat="44.1653288" lon="8.1102781"><ele>957.0</ele><time>2026-05-02T08:29:34.178Z</time></trkpt><trkpt lat="44.1654175" lon="8.1102374"><ele>957.0</ele><time>2026-05-02T08:29:35.18Z</time></trkpt><trkpt lat="44.165506" lon="8.1101991"><ele>957.0</ele><time>2026-05-02T08:29:36.183Z</time></trkpt><trkpt lat="44.1655792" lon="8.1101651"><ele>957.0</ele><time>2026-05-02T08:29:37.182Z</time></trkpt><trkpt lat="44.1656529" lon="8.1101373"><ele>957.0</ele><time>2026-05-02T08:29:38.172Z</time></trkpt><trkpt lat="44.1657313" lon="8.1101159"><ele>957.0</ele><time>2026-05-02T08:29:39.182Z</time></trkpt><trkpt lat="44.165815" lon="8.1100984"><ele>957.0</ele><time>2026-05-02T08:29:40.181Z</time></trkpt><trkpt lat="44.1658984" lon="8.1100785"><ele>957.0</ele><time>2026-05-02T08:29:41.183Z</time></trkpt><trkpt lat="44.1659926" lon="8.1100551"><ele>954.8</ele><time>2026-05-02T08:29:42.186Z</time></trkpt><trkpt lat="44.1660931" lon="8.1100269"><ele>952.6</ele><time>2026-05-02T08:29:43.185Z</time></trkpt><trkpt lat="44.1661964" lon="8.1099917"><ele>950.3999999999999</ele><time>2026-05-02T08:29:44.185Z</time></trkpt><trkpt lat="44.1663023" lon="8.1099623"><ele>948.1999999999999</ele><time>2026-05-02T08:29:45.186Z</time></trkpt><trkpt lat="44.1664111" lon="8.1099114"><ele>946.0</ele><time>2026-05-02T08:29:46.183Z</time></trkpt><trkpt lat="44.1665102" lon="8.1098691"><ele>951.4</ele><time>2026-05-02T08:29:47.178Z</time></trkpt><trkpt lat="44.1666033" lon="8.109812"><ele>956.8</ele><time>2026-05-02T08:29:48.196Z</time></trkpt><trkpt lat="44.1666847" lon="8.1097607"><ele>962.1999999999999</ele><time>2026-05-02T08:29:49.177Z</time></trkpt><trkpt lat="44.1667632" lon="8.1096815"><ele>967.5999999999999</ele><time>2026-05-02T08:29:50.185Z</time></trkpt><trkpt lat="44.1668389" lon="8.1096047"><ele>973.0</ele><time>2026-05-02T08:29:51.174Z</time></trkpt><trkpt lat="44.1669145" lon="8.1095424"><ele>973.0</ele><time>2026-05-02T08:29:52.177Z</time></trkpt><trkpt lat="44.166982" lon="8.1094825"><ele>973.0</ele><time>2026-05-02T08:29:53.184Z</time></trkpt><trkpt lat="44.1670613" lon="8.1094238"><ele>973.0</ele><time>2026-05-02T08:29:54.178Z</time></trkpt><trkpt lat="44.1671533" lon="8.1093572"><ele>973.0</ele><time>2026-05-02T08:29:55.183Z</time></trkpt><trkpt lat="44.1672484" lon="8.109277"><ele>973.0</ele><time>2026-05-02T08:29:56.183Z</time></trkpt><trkpt lat="44.1673441" lon="8.1092001"><ele>977.25</ele><time>2026-05-02T08:29:57.175Z</time></trkpt><trkpt lat="44.1674376" lon="8.1091049"><ele>981.5</ele><time>2026-05-02T08:29:58.184Z</time></trkpt><trkpt lat="44.1675333" lon="8.1089818"><ele>985.75</ele><time>2026-05-02T08:29:59.192Z</time></trkpt><trkpt lat="44.1676377" lon="8.1088602"><ele>990.0</ele><time>2026-05-02T08:30:00.186Z</time></trkpt><trkpt lat="44.1677405" lon="8.1087473"><ele>990.0</ele><time>2026-05-02T08:30:01.185Z</time></trkpt><trkpt lat="44.1678311" lon="8.1086005"><ele>990.0</ele><time>2026-05-02T08:30:02.191Z</time></trkpt><trkpt lat="44.1679093" lon="8.1084689"><ele>990.0</ele><time>2026-05-02T08:30:03.192Z</time></trkpt><trkpt lat="44.1679661" lon="8.1083482"><ele>990.0</ele><time>2026-05-02T08:30:04.196Z</time></trkpt><trkpt lat="44.1680048" lon="8.1082261"><ele>991.25</ele><time>2026-05-02T08:30:05.188Z</time></trkpt><trkpt lat="44.1680276" lon="8.1080899"><ele>992.5</ele><time>2026-05-02T08:30:06.184Z</time></trkpt><trkpt lat="44.1680419" lon="8.1079502"><ele>993.75</ele><time>2026-05-02T08:30:07.192Z</time></trkpt><trkpt lat="44.1680544" lon="8.1077764"><ele>995.0</ele><time>2026-05-02T08:30:08.202Z</time></trkpt><trkpt lat="44.1680681" lon="8.1075939"><ele>995.0</ele><time>2026-05-02T08:30:09.196Z</time></trkpt><trkpt lat="44.1680773" lon="8.1074245"><ele>995.0</ele><time>2026-05-02T08:30:10.197Z</time></trkpt><trkpt lat="44.1680844" lon="8.1072836"><ele>995.0</ele><time>2026-05-02T08:30:11.199Z</time></trkpt><trkpt lat="44.1680842" lon="8.1071395"><ele>995.0</ele><time>2026-05-02T08:30:12.196Z</time></trkpt><trkpt lat="44.1680688" lon="8.1069919"><ele>995.0</ele><time>2026-05-02T08:30:13.186Z</time></trkpt><trkpt lat="44.1680433" lon="8.1068615"><ele>996.3333333333334</ele><time>2026-05-02T08:30:14.197Z</time></trkpt><trkpt lat="44.1680094" lon="8.1067458"><ele>997.6666666666667</ele><time>2026-05-02T08:30:15.202Z</time></trkpt><trkpt lat="44.1679613" lon="8.1066646"><ele>999.0</ele><time>2026-05-02T08:30:16.202Z</time></trkpt><trkpt lat="44.1678713" lon="8.1066118"><ele>1000.3333333333333</ele><time>2026-05-02T08:30:17.184Z</time></trkpt><trkpt lat="44.1677827" lon="8.1065741"><ele>1001.6666666666666</ele><time>2026-05-02T08:30:18.194Z</time></trkpt><trkpt lat="44.1677029" lon="8.1065321"><ele>1003.0</ele><time>2026-05-02T08:30:19.201Z</time></trkpt><trkpt lat="44.1676521" lon="8.1064581"><ele>1003.1666666666666</ele><time>2026-05-02T08:30:20.202Z</time></trkpt><trkpt lat="44.1676366" lon="8.1063593"><ele>1003.3333333333333</ele><time>2026-05-02T08:30:21.196Z</time></trkpt><trkpt lat="44.1676265" lon="8.1062552"><ele>1003.5</ele><time>2026-05-02T08:30:22.199Z</time></trkpt><trkpt lat="44.1676365" lon="8.1061582"><ele>1003.6666666666667</ele><time>2026-05-02T08:30:23.208Z</time></trkpt><trkpt lat="44.167647" lon="8.1060432"><ele>1003.8333333333334</ele><time>2026-05-02T08:30:24.203Z</time></trkpt><trkpt lat="44.1676573" lon="8.1059212"><ele>1004.0</ele><time>2026-05-02T08:30:25.206Z</time></trkpt><trkpt lat="44.1676588" lon="8.1057997"><ele>1004.6</ele><time>2026-05-02T08:30:26.209Z</time></trkpt><trkpt lat="44.1676629" lon="8.1056712"><ele>1005.2</ele><time>2026-05-02T08:30:27.206Z</time></trkpt><trkpt lat="44.1676717" lon="8.1055368"><ele>1005.8000000000001</ele><time>2026-05-02T08:30:28.198Z</time></trkpt><trkpt lat="44.1676852" lon="8.1054012"><ele>1006.4000000000001</ele><time>2026-05-02T08:30:29.205Z</time></trkpt><trkpt lat="44.1677016" lon="8.1052676"><ele>1007.0</ele><time>2026-05-02T08:30:30.205Z</time></trkpt><trkpt lat="44.1677182" lon="8.1051439"><ele>1007.0000000000001</ele><time>2026-05-02T08:30:31.206Z</time></trkpt><trkpt lat="44.1677306" lon="8.1050284"><ele>1007.0</ele><time>2026-05-02T08:30:32.205Z</time></trkpt><trkpt lat="44.1677445" lon="8.104925"><ele>1007.0</ele><time>2026-05-02T08:30:33.199Z</time></trkpt><trkpt lat="44.1677605" lon="8.1048171"><ele>1007.0</ele><time>2026-05-02T08:30:34.196Z</time></trkpt><trkpt lat="44.1677814" lon="8.1047054"><ele>1007.0000000000001</ele><time>2026-05-02T08:30:35.204Z</time></trkpt><trkpt lat="44.1678026" lon="8.1045876"><ele>1007.0</ele><time>2026-05-02T08:30:36.195Z</time></trkpt><trkpt lat="44.1678266" lon="8.1044633"><ele>1006.5000000000001</ele><time>2026-05-02T08:30:37.199Z</time></trkpt><trkpt lat="44.167847" lon="8.1043414"><ele>1006.0</ele><time>2026-05-02T08:30:38.194Z</time></trkpt><trkpt lat="44.1678602" lon="8.1042182"><ele>1005.5</ele><time>2026-05-02T08:30:39.204Z</time></trkpt><trkpt lat="44.1678718" lon="8.1041012"><ele>1005.0</ele><time>2026-05-02T08:30:40.199Z</time></trkpt><trkpt lat="44.1678884" lon="8.1039837"><ele>1004.5000000000001</ele><time>2026-05-02T08:30:41.198Z</time></trkpt><trkpt lat="44.1679095" lon="8.1038694"><ele>1004.0</ele><time>2026-05-02T08:30:42.196Z</time></trkpt><trkpt lat="44.1679329" lon="8.1037543"><ele>1004.0</ele><time>2026-05-02T08:30:43.193Z</time></trkpt><trkpt lat="44.1679587" lon="8.1036272"><ele>1004.0000000000001</ele><time>2026-05-02T08:30:44.203Z</time></trkpt><trkpt lat="44.1679977" lon="8.1034993"><ele>1004.0000000000001</ele><time>2026-05-02T08:30:45.2Z</time></trkpt><trkpt lat="44.1680457" lon="8.1033754"><ele>1004.0</ele><time>2026-05-02T08:30:46.204Z</time></trkpt><trkpt lat="44.1681034" lon="8.1032592"><ele>1004.0</ele><time>2026-05-02T08:30:47.202Z</time></trkpt><trkpt lat="44.1681642" lon="8.1031536"><ele>1010.2</ele><time>2026-05-02T08:30:48.206Z</time></trkpt><trkpt lat="44.1682165" lon="8.1030566"><ele>1016.4000000000001</ele><time>2026-05-02T08:30:49.213Z</time></trkpt><trkpt lat="44.1682627" lon="8.10295"><ele>1022.6</ele><time>2026-05-02T08:30:50.212Z</time></trkpt><trkpt lat="44.1683138" lon="8.1028391"><ele>1028.8</ele><time>2026-05-02T08:30:51.21Z</time></trkpt><trkpt lat="44.168368" lon="8.102726"><ele>1035.0</ele><time>2026-05-02T08:30:52.207Z</time></trkpt><trkpt lat="44.1684205" lon="8.1026145"><ele>1035.0</ele><time>2026-05-02T08:30:53.208Z</time></trkpt><trkpt lat="44.1684796" lon="8.1025133"><ele>1035.0</ele><time>2026-05-02T08:30:54.203Z</time></trkpt><trkpt lat="44.1685391" lon="8.1024397"><ele>1035.0</ele><time>2026-05-02T08:30:55.208Z</time></trkpt><trkpt lat="44.1686059" lon="8.1023698"><ele>1035.0</ele><time>2026-05-02T08:30:56.2Z</time></trkpt><trkpt lat="44.1686725" lon="8.1022898"><ele>1035.0</ele><time>2026-05-02T08:30:57.206Z</time></trkpt><trkpt lat="44.1687279" lon="8.1022012"><ele>1035.0</ele><time>2026-05-02T08:30:58.202Z</time></trkpt><trkpt lat="44.1687751" lon="8.1021109"><ele>1037.4</ele><time>2026-05-02T08:30:59.209Z</time></trkpt><trkpt lat="44.1688106" lon="8.1020052"><ele>1039.8</ele><time>2026-05-02T08:31:00.203Z</time></trkpt><trkpt lat="44.1688405" lon="8.1018839"><ele>1042.2</ele><time>2026-05-02T08:31:01.205Z</time></trkpt><trkpt lat="44.1688581" lon="8.1017439"><ele>1044.6</ele><time>2026-05-02T08:31:02.194Z</time></trkpt><trkpt lat="44.1688827" lon="8.1015971"><ele>1047.0</ele><time>2026-05-02T08:31:03.194Z</time></trkpt><trkpt lat="44.168904" lon="8.1014441"><ele>1047.75</ele><time>2026-05-02T08:31:04.196Z</time></trkpt><trkpt lat="44.1689362" lon="8.1012924"><ele>1048.5</ele><time>2026-05-02T08:31:05.199Z</time></trkpt><trkpt lat="44.1689772" lon="8.101148"><ele>1049.25</ele><time>2026-05-02T08:31:06.195Z</time></trkpt><trkpt lat="44.1690275" lon="8.1010036"><ele>1050.0</ele><time>2026-05-02T08:31:07.205Z</time></trkpt><trkpt lat="44.1690781" lon="8.1008615"><ele>1050.6</ele><time>2026-05-02T08:31:08.197Z</time></trkpt><trkpt lat="44.1691243" lon="8.1007305"><ele>1051.2</ele><time>2026-05-02T08:31:09.2Z</time></trkpt><trkpt lat="44.1691641" lon="8.1005991"><ele>1051.8</ele><time>2026-05-02T08:31:10.197Z</time></trkpt><trkpt lat="44.1691926" lon="8.1004756"><ele>1052.4</ele><time>2026-05-02T08:31:11.194Z</time></trkpt><trkpt lat="44.1692164" lon="8.1003396"><ele>1053.0</ele><time>2026-05-02T08:31:12.185Z</time></trkpt><trkpt lat="44.1692305" lon="8.1001972"><ele>1053.0</ele><time>2026-05-02T08:31:13.198Z</time></trkpt><trkpt lat="44.1692431" lon="8.100069"><ele>1053.0</ele><time>2026-05-02T08:31:14.195Z</time></trkpt><trkpt lat="44.1692579" lon="8.0999332"><ele>1053.0</ele><time>2026-05-02T08:31:15.194Z</time></trkpt><trkpt lat="44.1692773" lon="8.0998087"><ele>1053.0</ele><time>2026-05-02T08:31:16.197Z</time></trkpt><trkpt lat="44.169299" lon="8.0996887"><ele>1053.0</ele><time>2026-05-02T08:31:17.187Z</time></trkpt><trkpt lat="44.1693315" lon="8.0995588"><ele>1054.0</ele><time>2026-05-02T08:31:18.183Z</time></trkpt><trkpt lat="44.1693614" lon="8.0994301"><ele>1055.0</ele><time>2026-05-02T08:31:19.182Z</time></trkpt><trkpt lat="44.1694078" lon="8.0993054"><ele>1056.0</ele><time>2026-05-02T08:31:20.194Z</time></trkpt><trkpt lat="44.1694477" lon="8.0991828"><ele>1057.0</ele><time>2026-05-02T08:31:21.187Z</time></trkpt><trkpt lat="44.1695046" lon="8.0990635"><ele>1058.0</ele><time>2026-05-02T08:31:22.194Z</time></trkpt><trkpt lat="44.1695602" lon="8.098952"><ele>1055.6</ele><time>2026-05-02T08:31:23.194Z</time></trkpt><trkpt lat="44.1696209" lon="8.0988403"><ele>1053.1999999999998</ele><time>2026-05-02T08:31:24.203Z</time></trkpt><trkpt lat="44.1696787" lon="8.0987199"><ele>1050.8</ele><time>2026-05-02T08:31:25.203Z</time></trkpt><trkpt lat="44.1697429" lon="8.0985961"><ele>1048.3999999999999</ele><time>2026-05-02T08:31:26.201Z</time></trkpt><trkpt lat="44.1697897" lon="8.098468"><ele>1046.0</ele><time>2026-05-02T08:31:27.197Z</time></trkpt><trkpt lat="44.1698318" lon="8.098328"><ele>1049.0</ele><time>2026-05-02T08:31:28.198Z</time></trkpt><trkpt lat="44.1698706" lon="8.0982046"><ele>1052.0</ele><time>2026-05-02T08:31:29.198Z</time></trkpt><trkpt lat="44.1698997" lon="8.0980803"><ele>1055.0</ele><time>2026-05-02T08:31:30.196Z</time></trkpt><trkpt lat="44.1699231" lon="8.0979514"><ele>1058.0</ele><time>2026-05-02T08:31:31.192Z</time></trkpt><trkpt lat="44.1699493" lon="8.0978034"><ele>1061.0</ele><time>2026-05-02T08:31:32.193Z</time></trkpt><trkpt lat="44.16997" lon="8.0976704"><ele>1061.0</ele><time>2026-05-02T08:31:33.186Z</time></trkpt><trkpt lat="44.1700002" lon="8.0975374"><ele>1061.0</ele><time>2026-05-02T08:31:34.19Z</time></trkpt><trkpt lat="44.170026" lon="8.0973989"><ele>1061.0</ele><time>2026-05-02T08:31:35.196Z</time></trkpt><trkpt lat="44.1700452" lon="8.097261"><ele>1061.0</ele><time>2026-05-02T08:31:36.197Z</time></trkpt><trkpt lat="44.1700679" lon="8.0971166"><ele>1061.0</ele><time>2026-05-02T08:31:37.197Z</time></trkpt><trkpt lat="44.1700835" lon="8.0969707"><ele>1061.2</ele><time>2026-05-02T08:31:38.195Z</time></trkpt><trkpt lat="44.1700988" lon="8.0968327"><ele>1061.3999999999999</ele><time>2026-05-02T08:31:39.202Z</time></trkpt><trkpt lat="44.1701163" lon="8.0966857"><ele>1061.6</ele><time>2026-05-02T08:31:40.2Z</time></trkpt><trkpt lat="44.1701302" lon="8.0965283"><ele>1061.8</ele><time>2026-05-02T08:31:41.201Z</time></trkpt><trkpt lat="44.1701428" lon="8.0963805"><ele>1062.0</ele><time>2026-05-02T08:31:42.204Z</time></trkpt><trkpt lat="44.1701662" lon="8.0962496"><ele>1062.0</ele><time>2026-05-02T08:31:43.203Z</time></trkpt><trkpt lat="44.1701982" lon="8.0961154"><ele>1062.0</ele><time>2026-05-02T08:31:44.193Z</time></trkpt><trkpt lat="44.1702375" lon="8.0959776"><ele>1062.0</ele><time>2026-05-02T08:31:45.198Z</time></trkpt><trkpt lat="44.1702936" lon="8.0958404"><ele>1062.0</ele><time>2026-05-02T08:31:46.193Z</time></trkpt><trkpt lat="44.1703533" lon="8.0957031"><ele>1062.0</ele><time>2026-05-02T08:31:47.197Z</time></trkpt><trkpt lat="44.1704082" lon="8.0955679"><ele>1061.75</ele><time>2026-05-02T08:31:48.2Z</time></trkpt><trkpt lat="44.1704722" lon="8.0954367"><ele>1061.5</ele><time>2026-05-02T08:31:49.191Z</time></trkpt><trkpt lat="44.1705377" lon="8.0952998"><ele>1061.25</ele><time>2026-05-02T08:31:50.208Z</time></trkpt><trkpt lat="44.170595" lon="8.095165"><ele>1061.0</ele><time>2026-05-02T08:31:51.208Z</time></trkpt><trkpt lat="44.1706628" lon="8.0950465"><ele>1061.3999999999999</ele><time>2026-05-02T08:31:52.199Z</time></trkpt><trkpt lat="44.170729" lon="8.0949423"><ele>1061.8</ele><time>2026-05-02T08:31:53.202Z</time></trkpt><trkpt lat="44.1707932" lon="8.0948474"><ele>1062.1999999999998</ele><time>2026-05-02T08:31:54.201Z</time></trkpt><trkpt lat="44.1708518" lon="8.0947508"><ele>1062.6</ele><time>2026-05-02T08:31:55.205Z</time></trkpt><trkpt lat="44.1709064" lon="8.0946502"><ele>1063.0</ele><time>2026-05-02T08:31:56.199Z</time></trkpt><trkpt lat="44.1709628" lon="8.0945503"><ele>1063.0</ele><time>2026-05-02T08:31:57.197Z</time></trkpt><trkpt lat="44.1710218" lon="8.0944564"><ele>1063.0</ele><time>2026-05-02T08:31:58.206Z</time></trkpt><trkpt lat="44.1710916" lon="8.0943726"><ele>1063.0</ele><time>2026-05-02T08:31:59.2Z</time></trkpt><trkpt lat="44.1711633" lon="8.0943085"><ele>1063.0</ele><time>2026-05-02T08:32:00.193Z</time></trkpt><trkpt lat="44.1712402" lon="8.0942661"><ele>1063.0</ele><time>2026-05-02T08:32:01.195Z</time></trkpt><trkpt lat="44.1713393" lon="8.0942332"><ele>1063.0</ele><time>2026-05-02T08:32:02.198Z</time></trkpt><trkpt lat="44.1714612" lon="8.0941907"><ele>1063.0</ele><time>2026-05-02T08:32:03.201Z</time></trkpt><trkpt lat="44.1715802" lon="8.0941671"><ele>1063.0</ele><time>2026-05-02T08:32:04.198Z</time></trkpt><trkpt lat="44.1717043" lon="8.094129"><ele>1063.0</ele><time>2026-05-02T08:32:05.195Z</time></trkpt><trkpt lat="44.1718442" lon="8.094091"><ele>1057.75</ele><time>2026-05-02T08:32:06.201Z</time></trkpt><trkpt lat="44.1719665" lon="8.0940628"><ele>1052.5</ele><time>2026-05-02T08:32:07.203Z</time></trkpt><trkpt lat="44.1720753" lon="8.0940537"><ele>1047.25</ele><time>2026-05-02T08:32:08.19Z</time></trkpt><trkpt lat="44.1721934" lon="8.0940593"><ele>1042.0</ele><time>2026-05-02T08:32:09.199Z</time></trkpt><trkpt lat="44.1723072" lon="8.094052"><ele>1043.2</ele><time>2026-05-02T08:32:10.199Z</time></trkpt><trkpt lat="44.172403" lon="8.0940076"><ele>1044.4</ele><time>2026-05-02T08:32:11.19Z</time></trkpt><trkpt lat="44.1724942" lon="8.093978"><ele>1045.6</ele><time>2026-05-02T08:32:12.193Z</time></trkpt><trkpt lat="44.1725915" lon="8.0939507"><ele>1046.8</ele><time>2026-05-02T08:32:13.185Z</time></trkpt><trkpt lat="44.1726825" lon="8.0939346"><ele>1048.0</ele><time>2026-05-02T08:32:14.193Z</time></trkpt><trkpt lat="44.1727639" lon="8.0939096"><ele>1048.0</ele><time>2026-05-02T08:32:15.197Z</time></trkpt><trkpt lat="44.1728317" lon="8.09389"><ele>1048.0</ele><time>2026-05-02T08:32:16.19Z</time></trkpt><trkpt lat="44.1728942" lon="8.0938624"><ele>1048.0</ele><time>2026-05-02T08:32:17.184Z</time></trkpt><trkpt lat="44.172957" lon="8.093831"><ele>1048.0</ele><time>2026-05-02T08:32:18.185Z</time></trkpt><trkpt lat="44.1730108" lon="8.0937746"><ele>1048.0</ele><time>2026-05-02T08:32:19.185Z</time></trkpt><trkpt lat="44.173067" lon="8.0936984"><ele>1048.0</ele><time>2026-05-02T08:32:20.183Z</time></trkpt><trkpt lat="44.1731312" lon="8.093593"><ele>1048.0</ele><time>2026-05-02T08:32:21.188Z</time></trkpt><trkpt lat="44.1732009" lon="8.0935231"><ele>1049.6</ele><time>2026-05-02T08:32:22.197Z</time></trkpt><trkpt lat="44.1732829" lon="8.0934684"><ele>1051.1999999999998</ele><time>2026-05-02T08:32:23.201Z</time></trkpt><trkpt lat="44.173381" lon="8.0934021"><ele>1052.8</ele><time>2026-05-02T08:32:24.189Z</time></trkpt><trkpt lat="44.1734868" lon="8.0933619"><ele>1054.3999999999999</ele><time>2026-05-02T08:32:25.191Z</time></trkpt><trkpt lat="44.1735871" lon="8.093309"><ele>1056.0</ele><time>2026-05-02T08:32:26.193Z</time></trkpt><trkpt lat="44.1736833" lon="8.0932459"><ele>1050.25</ele><time>2026-05-02T08:32:27.189Z</time></trkpt><trkpt lat="44.1737904" lon="8.0931765"><ele>1044.5</ele><time>2026-05-02T08:32:28.195Z</time></trkpt><trkpt lat="44.1738968" lon="8.0931076"><ele>1038.75</ele><time>2026-05-02T08:32:29.192Z</time></trkpt><trkpt lat="44.1739998" lon="8.0930359"><ele>1033.0</ele><time>2026-05-02T08:32:30.198Z</time></trkpt><trkpt lat="44.1741011" lon="8.0929678"><ele>1033.0</ele><time>2026-05-02T08:32:31.197Z</time></trkpt><trkpt lat="44.174193" lon="8.0929218"><ele>1033.0</ele><time>2026-05-02T08:32:32.188Z</time></trkpt><trkpt lat="44.1742778" lon="8.0928855"><ele>1033.0</ele><time>2026-05-02T08:32:33.182Z</time></trkpt><trkpt lat="44.1743512" lon="8.0928655"><ele>1033.0</ele><time>2026-05-02T08:32:34.204Z</time></trkpt><trkpt lat="44.1744201" lon="8.0928783"><ele>1033.0</ele><time>2026-05-02T08:32:35.194Z</time></trkpt><trkpt lat="44.1745202" lon="8.0928792"><ele>1033.0</ele><time>2026-05-02T08:32:37.187Z</time></trkpt><trkpt lat="44.1745699" lon="8.0927756"><ele>1033.0</ele><time>2026-05-02T08:32:39.195Z</time></trkpt><trkpt lat="44.1746166" lon="8.0926241"><ele>1033.0</ele><time>2026-05-02T08:32:41.2Z</time></trkpt><trkpt lat="44.1746793" lon="8.0925513"><ele>1033.0</ele><time>2026-05-02T08:32:42.203Z</time></trkpt><trkpt lat="44.1747592" lon="8.0924842"><ele>1033.0</ele><time>2026-05-02T08:32:43.193Z</time></trkpt><trkpt lat="44.1748574" lon="8.0924035"><ele>1033.0</ele><time>2026-05-02T08:32:44.19Z</time></trkpt><trkpt lat="44.1749645" lon="8.0923506"><ele>1031.6</ele><time>2026-05-02T08:32:45.19Z</time></trkpt><trkpt lat="44.1750663" lon="8.0922854"><ele>1030.1999999999998</ele><time>2026-05-02T08:32:46.185Z</time></trkpt><trkpt lat="44.1751572" lon="8.0922347"><ele>1028.8</ele><time>2026-05-02T08:32:47.189Z</time></trkpt><trkpt lat="44.1752299" lon="8.0921906"><ele>1027.3999999999999</ele><time>2026-05-02T08:32:48.194Z</time></trkpt><trkpt lat="44.175289" lon="8.0921237"><ele>1026.0</ele><time>2026-05-02T08:32:50.198Z</time></trkpt><trkpt lat="44.1752402" lon="8.0919673"><ele>1026.0</ele><time>2026-05-02T08:32:52.199Z</time></trkpt><trkpt lat="44.1752049" lon="8.0918682"><ele>1026.0</ele><time>2026-05-02T08:32:53.202Z</time></trkpt><trkpt lat="44.1751759" lon="8.0917453"><ele>1026.0</ele><time>2026-05-02T08:32:54.19Z</time></trkpt><trkpt lat="44.1751464" lon="8.0916107"><ele>1026.0</ele><time>2026-05-02T08:32:55.189Z</time></trkpt><trkpt lat="44.1751249" lon="8.0914745"><ele>1026.0</ele><time>2026-05-02T08:32:56.195Z</time></trkpt><trkpt lat="44.1751091" lon="8.0913403"><ele>1024.75</ele><time>2026-05-02T08:32:57.184Z</time></trkpt><trkpt lat="44.1750888" lon="8.0911941"><ele>1023.5</ele><time>2026-05-02T08:32:58.195Z</time></trkpt><trkpt lat="44.1750734" lon="8.0910472"><ele>1022.25</ele><time>2026-05-02T08:32:59.194Z</time></trkpt><trkpt lat="44.1750833" lon="8.0908779"><ele>1021.0</ele><time>2026-05-02T08:33:00.197Z</time></trkpt><trkpt lat="44.1751057" lon="8.090689"><ele>1021.0</ele><time>2026-05-02T08:33:01.192Z</time></trkpt><trkpt lat="44.175147" lon="8.0904859"><ele>1021.0</ele><time>2026-05-02T08:33:02.187Z</time></trkpt><trkpt lat="44.175194" lon="8.0902835"><ele>1021.0</ele><time>2026-05-02T08:33:03.199Z</time></trkpt><trkpt lat="44.1752555" lon="8.0900911"><ele>1019.5</ele><time>2026-05-02T08:33:04.196Z</time></trkpt><trkpt lat="44.1752891" lon="8.0898919"><ele>1018.0</ele><time>2026-05-02T08:33:05.193Z</time></trkpt><trkpt lat="44.175325" lon="8.0897012"><ele>1016.5</ele><time>2026-05-02T08:33:06.201Z</time></trkpt><trkpt lat="44.1753532" lon="8.0895291"><ele>1015.0</ele><time>2026-05-02T08:33:07.198Z</time></trkpt><trkpt lat="44.1753731" lon="8.0893997"><ele>1014.9999999999999</ele><time>2026-05-02T08:33:08.209Z</time></trkpt><trkpt lat="44.1754046" lon="8.0892953"><ele>1015.0</ele><time>2026-05-02T08:33:10.195Z</time></trkpt><trkpt lat="44.1753321" lon="8.0892412"><ele>1015.0</ele><time>2026-05-02T08:34:39.199Z</time></trkpt><trkpt lat="44.1752996" lon="8.08911"><ele>1015.0</ele><time>2026-05-02T08:34:41.19Z</time></trkpt><trkpt lat="44.1753146" lon="8.088952"><ele>1014.9999999999999</ele><time>2026-05-02T08:34:43.194Z</time></trkpt><trkpt lat="44.1753393" lon="8.0888589"><ele>1015.0</ele><time>2026-05-02T08:34:44.198Z</time></trkpt><trkpt lat="44.1753756" lon="8.0887598"><ele>1014.0</ele><time>2026-05-02T08:34:45.19Z</time></trkpt><trkpt lat="44.1754031" lon="8.088644"><ele>1013.0</ele><time>2026-05-02T08:34:46.186Z</time></trkpt><trkpt lat="44.1754172" lon="8.0885297"><ele>1012.0</ele><time>2026-05-02T08:34:47.188Z</time></trkpt><trkpt lat="44.1754131" lon="8.0883918"><ele>1011.0</ele><time>2026-05-02T08:34:48.187Z</time></trkpt><trkpt lat="44.1753977" lon="8.0882506"><ele>1010.0</ele><time>2026-05-02T08:34:49.188Z</time></trkpt><trkpt lat="44.1753832" lon="8.0881222"><ele>1007.8</ele><time>2026-05-02T08:34:50.194Z</time></trkpt><trkpt lat="44.1753838" lon="8.088005"><ele>1005.6</ele><time>2026-05-02T08:34:51.186Z</time></trkpt><trkpt lat="44.1754032" lon="8.0878909"><ele>1003.4000000000001</ele><time>2026-05-02T08:34:52.196Z</time></trkpt><trkpt lat="44.1754359" lon="8.0877736"><ele>1001.2</ele><time>2026-05-02T08:34:53.204Z</time></trkpt><trkpt lat="44.1754835" lon="8.0876553"><ele>999.0</ele><time>2026-05-02T08:34:54.198Z</time></trkpt><trkpt lat="44.1755398" lon="8.0875353"><ele>995.8000000000001</ele><time>2026-05-02T08:34:55.2Z</time></trkpt><trkpt lat="44.1755918" lon="8.0874054"><ele>992.6000000000001</ele><time>2026-05-02T08:34:56.199Z</time></trkpt><trkpt lat="44.1756331" lon="8.0872788"><ele>989.4</ele><time>2026-05-02T08:34:57.2Z</time></trkpt><trkpt lat="44.1756758" lon="8.0871446"><ele>986.2</ele><time>2026-05-02T08:34:58.201Z</time></trkpt><trkpt lat="44.1757104" lon="8.0870115"><ele>983.0</ele><time>2026-05-02T08:34:59.201Z</time></trkpt><trkpt lat="44.1757381" lon="8.0868752"><ele>989.0</ele><time>2026-05-02T08:35:00.199Z</time></trkpt><trkpt lat="44.1757692" lon="8.0867193"><ele>995.0</ele><time>2026-05-02T08:35:01.196Z</time></trkpt><trkpt lat="44.1757954" lon="8.0865726"><ele>1001.0</ele><time>2026-05-02T08:35:02.194Z</time></trkpt><trkpt lat="44.1758291" lon="8.0864207"><ele>1007.0</ele><time>2026-05-02T08:35:03.192Z</time></trkpt><trkpt lat="44.1758637" lon="8.0862711"><ele>1007.0</ele><time>2026-05-02T08:35:04.184Z</time></trkpt><trkpt lat="44.1759137" lon="8.0861344"><ele>1007.0</ele><time>2026-05-02T08:35:05.192Z</time></trkpt><trkpt lat="44.1759713" lon="8.0859969"><ele>1007.0</ele><time>2026-05-02T08:35:06.196Z</time></trkpt><trkpt lat="44.1760326" lon="8.0858565"><ele>1007.0</ele><time>2026-05-02T08:35:07.19Z</time></trkpt><trkpt lat="44.1760854" lon="8.0857134"><ele>1005.0</ele><time>2026-05-02T08:35:08.189Z</time></trkpt><trkpt lat="44.1761403" lon="8.0855757"><ele>1003.0</ele><time>2026-05-02T08:35:09.19Z</time></trkpt><trkpt lat="44.176195" lon="8.0854409"><ele>1001.0</ele><time>2026-05-02T08:35:10.188Z</time></trkpt><trkpt lat="44.1762511" lon="8.0853024"><ele>999.0</ele><time>2026-05-02T08:35:11.188Z</time></trkpt><trkpt lat="44.1762923" lon="8.0851647"><ele>997.0</ele><time>2026-05-02T08:35:12.183Z</time></trkpt><trkpt lat="44.1763317" lon="8.0850331"><ele>994.6</ele><time>2026-05-02T08:35:13.195Z</time></trkpt><trkpt lat="44.1763657" lon="8.0849056"><ele>992.2</ele><time>2026-05-02T08:35:14.191Z</time></trkpt><trkpt lat="44.176408" lon="8.0847858"><ele>989.8</ele><time>2026-05-02T08:35:15.194Z</time></trkpt><trkpt lat="44.1764519" lon="8.084664"><ele>987.4</ele><time>2026-05-02T08:35:16.194Z</time></trkpt><trkpt lat="44.1765085" lon="8.0845483"><ele>985.0</ele><time>2026-05-02T08:35:17.192Z</time></trkpt><trkpt lat="44.1765632" lon="8.0844314"><ele>990.8</ele><time>2026-05-02T08:35:18.199Z</time></trkpt><trkpt lat="44.176605" lon="8.0843179"><ele>996.6</ele><time>2026-05-02T08:35:19.191Z</time></trkpt><trkpt lat="44.1766339" lon="8.0841997"><ele>1002.4000000000001</ele><time>2026-05-02T08:35:20.19Z</time></trkpt><trkpt lat="44.1766566" lon="8.0840656"><ele>1008.2</ele><time>2026-05-02T08:35:21.194Z</time></trkpt><trkpt lat="44.1766887" lon="8.0839294"><ele>1014.0</ele><time>2026-05-02T08:35:22.198Z</time></trkpt><trkpt lat="44.1767327" lon="8.0838065"><ele>1014.0</ele><time>2026-05-02T08:35:23.195Z</time></trkpt><trkpt lat="44.1767791" lon="8.0836902"><ele>1014.0000000000001</ele><time>2026-05-02T08:35:24.199Z</time></trkpt><trkpt lat="44.1768127" lon="8.0835637"><ele>1014.0000000000001</ele><time>2026-05-02T08:35:25.192Z</time></trkpt><trkpt lat="44.176845" lon="8.083441"><ele>1014.0</ele><time>2026-05-02T08:35:26.19Z</time></trkpt><trkpt lat="44.1768665" lon="8.0833207"><ele>1014.0</ele><time>2026-05-02T08:35:27.196Z</time></trkpt><trkpt lat="44.1768597" lon="8.0832081"><ele>1012.6666666666666</ele><time>2026-05-02T08:35:28.203Z</time></trkpt><trkpt lat="44.1768434" lon="8.0830973"><ele>1011.3333333333333</ele><time>2026-05-02T08:35:29.198Z</time></trkpt><trkpt lat="44.1768439" lon="8.0829873"><ele>1010.0</ele><time>2026-05-02T08:35:30.197Z</time></trkpt><trkpt lat="44.1768683" lon="8.082883"><ele>1008.6666666666666</ele><time>2026-05-02T08:35:31.193Z</time></trkpt><trkpt lat="44.1768994" lon="8.0827637"><ele>1007.3333333333333</ele><time>2026-05-02T08:35:32.193Z</time></trkpt><trkpt lat="44.1769232" lon="8.0826429"><ele>1006.0</ele><time>2026-05-02T08:35:33.186Z</time></trkpt><trkpt lat="44.1769552" lon="8.0825127"><ele>1004.4</ele><time>2026-05-02T08:35:34.186Z</time></trkpt><trkpt lat="44.176993" lon="8.0823805"><ele>1002.8</ele><time>2026-05-02T08:35:35.194Z</time></trkpt><trkpt lat="44.1770339" lon="8.082246"><ele>1001.1999999999999</ele><time>2026-05-02T08:35:36.19Z</time></trkpt><trkpt lat="44.1770846" lon="8.082109"><ele>999.5999999999999</ele><time>2026-05-02T08:35:37.197Z</time></trkpt><trkpt lat="44.1771391" lon="8.0819725"><ele>998.0</ele><time>2026-05-02T08:35:38.202Z</time></trkpt><trkpt lat="44.1771856" lon="8.0818389"><ele>998.0</ele><time>2026-05-02T08:35:39.2Z</time></trkpt><trkpt lat="44.1772361" lon="8.0817117"><ele>998.0</ele><time>2026-05-02T08:35:40.195Z</time></trkpt><trkpt lat="44.1772729" lon="8.0815843"><ele>998.0</ele><time>2026-05-02T08:35:41.193Z</time></trkpt><trkpt lat="44.1773223" lon="8.0814574"><ele>998.0</ele><time>2026-05-02T08:35:42.193Z</time></trkpt><trkpt lat="44.177373" lon="8.081331"><ele>998.0</ele><time>2026-05-02T08:35:43.191Z</time></trkpt><trkpt lat="44.1774389" lon="8.0812057"><ele>1002.8333333333334</ele><time>2026-05-02T08:35:44.189Z</time></trkpt><trkpt lat="44.1775009" lon="8.0810838"><ele>1007.6666666666667</ele><time>2026-05-02T08:35:45.19Z</time></trkpt><trkpt lat="44.1775406" lon="8.0809647"><ele>1012.5</ele><time>2026-05-02T08:35:46.192Z</time></trkpt><trkpt lat="44.1775647" lon="8.0808539"><ele>1017.3333333333333</ele><time>2026-05-02T08:35:47.185Z</time></trkpt><trkpt lat="44.1775618" lon="8.0807492"><ele>1022.1666666666666</ele><time>2026-05-02T08:35:48.193Z</time></trkpt><trkpt lat="44.1775416" lon="8.0806505"><ele>1027.0</ele><time>2026-05-02T08:35:49.19Z</time></trkpt><trkpt lat="44.1774962" lon="8.0805531"><ele>1027.4</ele><time>2026-05-02T08:35:50.199Z</time></trkpt><trkpt lat="44.1774552" lon="8.0804239"><ele>1027.8000000000002</ele><time>2026-05-02T08:35:51.195Z</time></trkpt><trkpt lat="44.1774183" lon="8.0802865"><ele>1028.2</ele><time>2026-05-02T08:35:52.203Z</time></trkpt><trkpt lat="44.1773903" lon="8.0801725"><ele>1028.6000000000001</ele><time>2026-05-02T08:35:53.203Z</time></trkpt><trkpt lat="44.1773722" lon="8.0800627"><ele>1029.0</ele><time>2026-05-02T08:35:54.2Z</time></trkpt><trkpt lat="44.1773717" lon="8.0799524"><ele>1028.6000000000001</ele><time>2026-05-02T08:35:55.203Z</time></trkpt><trkpt lat="44.1773897" lon="8.0798447"><ele>1028.2</ele><time>2026-05-02T08:35:56.202Z</time></trkpt><trkpt lat="44.1774295" lon="8.0797383"><ele>1027.8000000000002</ele><time>2026-05-02T08:35:57.2Z</time></trkpt><trkpt lat="44.1774833" lon="8.0796342"><ele>1027.4</ele><time>2026-05-02T08:35:58.202Z</time></trkpt><trkpt lat="44.177544" lon="8.0795243"><ele>1027.0</ele><time>2026-05-02T08:35:59.204Z</time></trkpt><trkpt lat="44.1776021" lon="8.0794067"><ele>1027.0</ele><time>2026-05-02T08:36:00.203Z</time></trkpt><trkpt lat="44.177652" lon="8.0792705"><ele>1027.0</ele><time>2026-05-02T08:36:01.196Z</time></trkpt><trkpt lat="44.1776952" lon="8.07913"><ele>1027.0</ele><time>2026-05-02T08:36:02.198Z</time></trkpt><trkpt lat="44.1777391" lon="8.0789978"><ele>1027.0</ele><time>2026-05-02T08:36:03.198Z</time></trkpt><trkpt lat="44.1777792" lon="8.0788613"><ele>1027.0</ele><time>2026-05-02T08:36:04.198Z</time></trkpt><trkpt lat="44.1778256" lon="8.0787359"><ele>1027.6</ele><time>2026-05-02T08:36:05.19Z</time></trkpt><trkpt lat="44.1778827" lon="8.0786203"><ele>1028.2</ele><time>2026-05-02T08:36:06.194Z</time></trkpt><trkpt lat="44.1779475" lon="8.0785277"><ele>1028.8</ele><time>2026-05-02T08:36:07.198Z</time></trkpt><trkpt lat="44.1780286" lon="8.0784605"><ele>1029.4</ele><time>2026-05-02T08:36:08.19Z</time></trkpt><trkpt lat="44.178116" lon="8.0784239"><ele>1030.0</ele><time>2026-05-02T08:36:09.189Z</time></trkpt><trkpt lat="44.1781987" lon="8.0784058"><ele>1030.0</ele><time>2026-05-02T08:36:10.19Z</time></trkpt><trkpt lat="44.1782857" lon="8.078397"><ele>1030.0</ele><time>2026-05-02T08:36:11.181Z</time></trkpt><trkpt lat="44.1783751" lon="8.0783953"><ele>1030.0</ele><time>2026-05-02T08:36:12.184Z</time></trkpt><trkpt lat="44.1784688" lon="8.0784038"><ele>1030.0</ele><time>2026-05-02T08:36:13.195Z</time></trkpt><trkpt lat="44.1785649" lon="8.0784218"><ele>1030.0</ele><time>2026-05-02T08:36:14.195Z</time></trkpt><trkpt lat="44.1786817" lon="8.0784531"><ele>1030.0</ele><time>2026-05-02T08:36:15.199Z</time></trkpt><trkpt lat="44.1788083" lon="8.0784428"><ele>1030.0</ele><time>2026-05-02T08:36:16.199Z</time></trkpt><trkpt lat="44.178923" lon="8.0784139"><ele>1030.0</ele><time>2026-05-02T08:36:17.187Z</time></trkpt><trkpt lat="44.1790235" lon="8.0783582"><ele>1030.0</ele><time>2026-05-02T08:36:18.192Z</time></trkpt><trkpt lat="44.1791169" lon="8.0783063"><ele>1029.6</ele><time>2026-05-02T08:36:19.185Z</time></trkpt><trkpt lat="44.1792019" lon="8.0782339"><ele>1029.2</ele><time>2026-05-02T08:36:20.19Z</time></trkpt><trkpt lat="44.1792806" lon="8.0781595"><ele>1028.8</ele><time>2026-05-02T08:36:21.192Z</time></trkpt><trkpt lat="44.1793609" lon="8.0780858"><ele>1028.4</ele><time>2026-05-02T08:36:22.197Z</time></trkpt><trkpt lat="44.1794387" lon="8.0780314"><ele>1028.0</ele><time>2026-05-02T08:36:23.193Z</time></trkpt><trkpt lat="44.1795297" lon="8.0779804"><ele>1028.0</ele><time>2026-05-02T08:36:24.19Z</time></trkpt><trkpt lat="44.1796181" lon="8.0779311"><ele>1028.0</ele><time>2026-05-02T08:36:25.192Z</time></trkpt><trkpt lat="44.1797042" lon="8.0778958"><ele>1028.0</ele><time>2026-05-02T08:36:26.194Z</time></trkpt><trkpt lat="44.1797894" lon="8.0778751"><ele>1028.0</ele><time>2026-05-02T08:36:27.191Z</time></trkpt><trkpt lat="44.1798715" lon="8.0778476"><ele>1028.0</ele><time>2026-05-02T08:36:28.193Z</time></trkpt><trkpt lat="44.1799633" lon="8.0778257"><ele>1028.0</ele><time>2026-05-02T08:36:29.185Z</time></trkpt><trkpt lat="44.1800582" lon="8.077791"><ele>1032.2</ele><time>2026-05-02T08:36:30.192Z</time></trkpt><trkpt lat="44.1801474" lon="8.0777409"><ele>1036.4</ele><time>2026-05-02T08:36:31.185Z</time></trkpt><trkpt lat="44.1802352" lon="8.0776915"><ele>1040.6000000000001</ele><time>2026-05-02T08:36:32.184Z</time></trkpt><trkpt lat="44.1803349" lon="8.0776349"><ele>1044.8</ele><time>2026-05-02T08:36:33.188Z</time></trkpt><trkpt lat="44.1804359" lon="8.0775618"><ele>1049.0</ele><time>2026-05-02T08:36:34.191Z</time></trkpt><trkpt lat="44.1805319" lon="8.0774967"><ele>1049.0</ele><time>2026-05-02T08:36:35.185Z</time></trkpt><trkpt lat="44.1806343" lon="8.0774364"><ele>1049.0</ele><time>2026-05-02T08:36:36.186Z</time></trkpt><trkpt lat="44.1807457" lon="8.0773744"><ele>1049.0</ele><time>2026-05-02T08:36:37.184Z</time></trkpt><trkpt lat="44.180858" lon="8.0773173"><ele>1049.0</ele><time>2026-05-02T08:36:38.185Z</time></trkpt><trkpt lat="44.1809708" lon="8.0772816"><ele>1045.75</ele><time>2026-05-02T08:36:39.185Z</time></trkpt><trkpt lat="44.1810873" lon="8.077251"><ele>1042.5</ele><time>2026-05-02T08:36:40.193Z</time></trkpt><trkpt lat="44.1812028" lon="8.0772049"><ele>1039.25</ele><time>2026-05-02T08:36:41.192Z</time></trkpt><trkpt lat="44.1813197" lon="8.0771703"><ele>1036.0</ele><time>2026-05-02T08:36:42.192Z</time></trkpt><trkpt lat="44.1814336" lon="8.0771139"><ele>1042.3999999999999</ele><time>2026-05-02T08:36:43.199Z</time></trkpt><trkpt lat="44.1815366" lon="8.0770541"><ele>1048.8</ele><time>2026-05-02T08:36:44.201Z</time></trkpt><trkpt lat="44.1816343" lon="8.0769871"><ele>1055.1999999999998</ele><time>2026-05-02T08:36:45.192Z</time></trkpt><trkpt lat="44.1817279" lon="8.0769231"><ele>1061.6</ele><time>2026-05-02T08:36:46.193Z</time></trkpt><trkpt lat="44.18181" lon="8.0768613"><ele>1068.0</ele><time>2026-05-02T08:36:47.195Z</time></trkpt><trkpt lat="44.1818834" lon="8.0767894"><ele>1068.0</ele><time>2026-05-02T08:36:48.196Z</time></trkpt><trkpt lat="44.1819362" lon="8.0767021"><ele>1068.0</ele><time>2026-05-02T08:36:49.202Z</time></trkpt><trkpt lat="44.1819774" lon="8.0765853"><ele>1068.0</ele><time>2026-05-02T08:36:50.196Z</time></trkpt><trkpt lat="44.1820051" lon="8.0764592"><ele>1068.0</ele><time>2026-05-02T08:36:51.194Z</time></trkpt><trkpt lat="44.1820148" lon="8.0763073"><ele>1068.0</ele><time>2026-05-02T08:36:52.194Z</time></trkpt><trkpt lat="44.1820052" lon="8.0761415"><ele>1067.0</ele><time>2026-05-02T08:36:53.194Z</time></trkpt><trkpt lat="44.1819809" lon="8.0759863"><ele>1066.0</ele><time>2026-05-02T08:36:54.197Z</time></trkpt><trkpt lat="44.1819443" lon="8.0758257"><ele>1065.0</ele><time>2026-05-02T08:36:55.204Z</time></trkpt><trkpt lat="44.1818998" lon="8.075678"><ele>1064.0</ele><time>2026-05-02T08:36:56.193Z</time></trkpt><trkpt lat="44.1818921" lon="8.0755221"><ele>1062.2</ele><time>2026-05-02T08:36:57.196Z</time></trkpt><trkpt lat="44.1819044" lon="8.0753811"><ele>1060.4</ele><time>2026-05-02T08:36:58.198Z</time></trkpt><trkpt lat="44.1819224" lon="8.0752512"><ele>1058.6</ele><time>2026-05-02T08:36:59.205Z</time></trkpt><trkpt lat="44.1819577" lon="8.0751298"><ele>1056.8</ele><time>2026-05-02T08:37:00.196Z</time></trkpt><trkpt lat="44.1820142" lon="8.0750203"><ele>1055.0</ele><time>2026-05-02T08:37:01.205Z</time></trkpt><trkpt lat="44.1820801" lon="8.0749107"><ele>1052.2</ele><time>2026-05-02T08:37:02.196Z</time></trkpt><trkpt lat="44.1821521" lon="8.0747983"><ele>1049.4</ele><time>2026-05-02T08:37:03.192Z</time></trkpt><trkpt lat="44.1822199" lon="8.0746726"><ele>1046.6</ele><time>2026-05-02T08:37:04.201Z</time></trkpt><trkpt lat="44.1822858" lon="8.074545"><ele>1043.8</ele><time>2026-05-02T08:37:05.199Z</time></trkpt><trkpt lat="44.1823565" lon="8.0744175"><ele>1041.0</ele><time>2026-05-02T08:37:06.194Z</time></trkpt><trkpt lat="44.1824283" lon="8.0742936"><ele>1046.6</ele><time>2026-05-02T08:37:07.197Z</time></trkpt><trkpt lat="44.1825014" lon="8.0741703"><ele>1052.1999999999998</ele><time>2026-05-02T08:37:08.192Z</time></trkpt><trkpt lat="44.1825685" lon="8.074053"><ele>1057.8000000000002</ele><time>2026-05-02T08:37:09.192Z</time></trkpt><trkpt lat="44.1826233" lon="8.0739436"><ele>1063.4</ele><time>2026-05-02T08:37:10.195Z</time></trkpt><trkpt lat="44.1826584" lon="8.0738467"><ele>1069.0</ele><time>2026-05-02T08:37:11.198Z</time></trkpt><trkpt lat="44.1826912" lon="8.0737713"><ele>1069.0</ele><time>2026-05-02T08:37:12.19Z</time></trkpt><trkpt lat="44.1827016" lon="8.0738632"><ele>1069.0</ele><time>2026-05-02T08:37:18.206Z</time></trkpt><trkpt lat="44.1826901" lon="8.0739745"><ele>1069.0</ele><time>2026-05-02T08:37:23.198Z</time></trkpt><trkpt lat="44.1826761" lon="8.0740831"><ele>1069.0</ele><time>2026-05-02T08:37:25.21Z</time></trkpt><trkpt lat="44.1826413" lon="8.0742113"><ele>1069.0</ele><time>2026-05-02T08:37:27.208Z</time></trkpt><trkpt lat="44.1826224" lon="8.0743208"><ele>1069.0</ele><time>2026-05-02T08:38:32.206Z</time></trkpt><trkpt lat="44.1826067" lon="8.074422"><ele>1071.0</ele><time>2026-05-02T08:38:34.199Z</time></trkpt><trkpt lat="44.1825718" lon="8.074595"><ele>1073.0</ele><time>2026-05-02T08:38:36.199Z</time></trkpt><trkpt lat="44.1825432" lon="8.0746948"><ele>1075.0</ele><time>2026-05-02T08:38:37.198Z</time></trkpt><trkpt lat="44.1825199" lon="8.0747998"><ele>1077.0</ele><time>2026-05-02T08:38:38.197Z</time></trkpt><trkpt lat="44.1824946" lon="8.0749302"><ele>1079.0</ele><time>2026-05-02T08:38:39.192Z</time></trkpt><trkpt lat="44.1824725" lon="8.0750754"><ele>1083.0</ele><time>2026-05-02T08:38:40.199Z</time></trkpt><trkpt lat="44.1824462" lon="8.0752271"><ele>1087.0</ele><time>2026-05-02T08:38:41.195Z</time></trkpt><trkpt lat="44.1824117" lon="8.0753717"><ele>1091.0</ele><time>2026-05-02T08:38:42.195Z</time></trkpt><trkpt lat="44.1823935" lon="8.0755352"><ele>1095.0</ele><time>2026-05-02T08:38:43.195Z</time></trkpt><trkpt lat="44.1823683" lon="8.0757086"><ele>1087.25</ele><time>2026-05-02T08:38:44.197Z</time></trkpt><trkpt lat="44.1823442" lon="8.0758745"><ele>1079.5</ele><time>2026-05-02T08:38:45.19Z</time></trkpt><trkpt lat="44.1823237" lon="8.0760348"><ele>1071.75</ele><time>2026-05-02T08:38:46.189Z</time></trkpt><trkpt lat="44.1823035" lon="8.0761874"><ele>1064.0</ele><time>2026-05-02T08:38:47.19Z</time></trkpt><trkpt lat="44.1822802" lon="8.0763263"><ele>1064.0</ele><time>2026-05-02T08:38:48.195Z</time></trkpt><trkpt lat="44.182267" lon="8.0764613"><ele>1064.0</ele><time>2026-05-02T08:38:49.187Z</time></trkpt><trkpt lat="44.1822562" lon="8.0765825"><ele>1064.0</ele><time>2026-05-02T08:38:50.195Z</time></trkpt><trkpt lat="44.1822549" lon="8.076697"><ele>1064.0</ele><time>2026-05-02T08:38:51.198Z</time></trkpt><trkpt lat="44.1822676" lon="8.0768134"><ele>1064.0</ele><time>2026-05-02T08:38:52.191Z</time></trkpt><trkpt lat="44.1822735" lon="8.0769202"><ele>1064.0</ele><time>2026-05-02T08:38:53.193Z</time></trkpt><trkpt lat="44.182286" lon="8.0770278"><ele>1064.6666666666667</ele><time>2026-05-02T08:38:54.191Z</time></trkpt><trkpt lat="44.1822906" lon="8.0771402"><ele>1065.3333333333335</ele><time>2026-05-02T08:38:55.193Z</time></trkpt><trkpt lat="44.1822708" lon="8.077242"><ele>1066.0</ele><time>2026-05-02T08:38:56.192Z</time></trkpt><trkpt lat="44.1822458" lon="8.0773573"><ele>1066.6666666666667</ele><time>2026-05-02T08:38:57.197Z</time></trkpt><trkpt lat="44.1822141" lon="8.0774708"><ele>1067.3333333333333</ele><time>2026-05-02T08:38:58.189Z</time></trkpt><trkpt lat="44.1821496" lon="8.0775843"><ele>1068.0</ele><time>2026-05-02T08:38:59.196Z</time></trkpt><trkpt lat="44.182073" lon="8.0776956"><ele>1072.5</ele><time>2026-05-02T08:39:00.198Z</time></trkpt><trkpt lat="44.1819751" lon="8.0778094"><ele>1077.0</ele><time>2026-05-02T08:39:01.192Z</time></trkpt><trkpt lat="44.1818825" lon="8.07793"><ele>1081.5</ele><time>2026-05-02T08:39:02.191Z</time></trkpt><trkpt lat="44.1817928" lon="8.0780589"><ele>1086.0</ele><time>2026-05-02T08:39:03.199Z</time></trkpt><trkpt lat="44.1817048" lon="8.0781772"><ele>1086.8</ele><time>2026-05-02T08:39:04.199Z</time></trkpt><trkpt lat="44.1816144" lon="8.0782841"><ele>1087.6</ele><time>2026-05-02T08:39:05.196Z</time></trkpt><trkpt lat="44.1815339" lon="8.078378"><ele>1088.4</ele><time>2026-05-02T08:39:06.197Z</time></trkpt><trkpt lat="44.1814545" lon="8.0784558"><ele>1089.2</ele><time>2026-05-02T08:39:07.197Z</time></trkpt><trkpt lat="44.1813613" lon="8.078524"><ele>1090.0</ele><time>2026-05-02T08:39:08.214Z</time></trkpt><trkpt lat="44.1812851" lon="8.0785934"><ele>1090.0</ele><time>2026-05-02T08:39:09.198Z</time></trkpt><trkpt lat="44.1812155" lon="8.0786688"><ele>1090.0</ele><time>2026-05-02T08:39:10.199Z</time></trkpt><trkpt lat="44.181153" lon="8.0787758"><ele>1090.0</ele><time>2026-05-02T08:39:11.192Z</time></trkpt><trkpt lat="44.181089" lon="8.0789013"><ele>1090.0</ele><time>2026-05-02T08:39:12.201Z</time></trkpt><trkpt lat="44.1810298" lon="8.0790368"><ele>1090.0</ele><time>2026-05-02T08:39:13.2Z</time></trkpt><trkpt lat="44.1809824" lon="8.0791844"><ele>1091.6</ele><time>2026-05-02T08:39:14.193Z</time></trkpt><trkpt lat="44.1809408" lon="8.0793285"><ele>1093.2</ele><time>2026-05-02T08:39:15.199Z</time></trkpt><trkpt lat="44.1809021" lon="8.0794649"><ele>1094.8</ele><time>2026-05-02T08:39:16.194Z</time></trkpt><trkpt lat="44.1808676" lon="8.0795937"><ele>1096.4</ele><time>2026-05-02T08:39:17.19Z</time></trkpt><trkpt lat="44.1808424" lon="8.0797031"><ele>1098.0</ele><time>2026-05-02T08:39:18.202Z</time></trkpt><trkpt lat="44.1808646" lon="8.079827"><ele>1098.0</ele><time>2026-05-02T08:39:20.196Z</time></trkpt><trkpt lat="44.1809739" lon="8.0798842"><ele>1098.0</ele><time>2026-05-02T08:39:22.21Z</time></trkpt><trkpt lat="44.1810575" lon="8.079885"><ele>1098.0</ele><time>2026-05-02T08:39:23.199Z</time></trkpt><trkpt lat="44.1811733" lon="8.0798865"><ele>1098.0</ele><time>2026-05-02T08:39:24.199Z</time></trkpt><trkpt lat="44.1812999" lon="8.0798739"><ele>1098.0</ele><time>2026-05-02T08:39:25.19Z</time></trkpt><trkpt lat="44.1814256" lon="8.0798691"><ele>1099.75</ele><time>2026-05-02T08:39:26.194Z</time></trkpt><trkpt lat="44.1815427" lon="8.0798367"><ele>1101.5</ele><time>2026-05-02T08:39:27.189Z</time></trkpt><trkpt lat="44.1816446" lon="8.0797958"><ele>1103.25</ele><time>2026-05-02T08:39:28.191Z</time></trkpt><trkpt lat="44.1817472" lon="8.0797349"><ele>1105.0</ele><time>2026-05-02T08:39:29.193Z</time></trkpt><trkpt lat="44.1818488" lon="8.0796588"><ele>1105.0</ele><time>2026-05-02T08:39:30.19Z</time></trkpt><trkpt lat="44.1819483" lon="8.0795814"><ele>1105.0</ele><time>2026-05-02T08:39:31.192Z</time></trkpt><trkpt lat="44.1820387" lon="8.0795045"><ele>1105.0</ele><time>2026-05-02T08:39:32.188Z</time></trkpt><trkpt lat="44.1821354" lon="8.0794439"><ele>1105.0</ele><time>2026-05-02T08:39:33.194Z</time></trkpt><trkpt lat="44.1822393" lon="8.079398"><ele>1105.0</ele><time>2026-05-02T08:39:34.189Z</time></trkpt><trkpt lat="44.1823398" lon="8.0793897"><ele>1103.5</ele><time>2026-05-02T08:39:35.185Z</time></trkpt><trkpt lat="44.1824342" lon="8.0794033"><ele>1102.0</ele><time>2026-05-02T08:39:36.193Z</time></trkpt><trkpt lat="44.1825171" lon="8.0794705"><ele>1100.5</ele><time>2026-05-02T08:39:37.191Z</time></trkpt><trkpt lat="44.182593" lon="8.0795252"><ele>1099.0</ele><time>2026-05-02T08:39:38.184Z</time></trkpt><trkpt lat="44.1826679" lon="8.0795546"><ele>1097.5</ele><time>2026-05-02T08:39:39.199Z</time></trkpt><trkpt lat="44.1827386" lon="8.0795517"><ele>1096.0</ele><time>2026-05-02T08:39:40.199Z</time></trkpt><trkpt lat="44.1828419" lon="8.0794756"><ele>1096.0</ele><time>2026-05-02T08:39:42.197Z</time></trkpt><trkpt lat="44.1828894" lon="8.0794083"><ele>1096.0</ele><time>2026-05-02T08:39:43.198Z</time></trkpt><trkpt lat="44.1829353" lon="8.0793219"><ele>1096.0</ele><time>2026-05-02T08:39:44.198Z</time></trkpt><trkpt lat="44.1829755" lon="8.0792199"><ele>1096.0</ele><time>2026-05-02T08:39:45.198Z</time></trkpt><trkpt lat="44.1830176" lon="8.0791272"><ele>1096.0</ele><time>2026-05-02T08:39:46.203Z</time></trkpt><trkpt lat="44.1830667" lon="8.0790276"><ele>1096.0</ele><time>2026-05-02T08:39:47.195Z</time></trkpt><trkpt lat="44.1831229" lon="8.0789337"><ele>1095.8</ele><time>2026-05-02T08:39:48.196Z</time></trkpt><trkpt lat="44.1831897" lon="8.0788651"><ele>1095.6</ele><time>2026-05-02T08:39:49.198Z</time></trkpt><trkpt lat="44.1832758" lon="8.0788088"><ele>1095.4</ele><time>2026-05-02T08:39:50.195Z</time></trkpt><trkpt lat="44.1833622" lon="8.0787315"><ele>1095.2</ele><time>2026-05-02T08:39:51.196Z</time></trkpt><trkpt lat="44.1834696" lon="8.0786421"><ele>1095.0</ele><time>2026-05-02T08:39:52.2Z</time></trkpt><trkpt lat="44.1835702" lon="8.0785658"><ele>1095.0</ele><time>2026-05-02T08:39:53.198Z</time></trkpt><trkpt lat="44.1836679" lon="8.0784954"><ele>1095.0</ele><time>2026-05-02T08:39:54.189Z</time></trkpt><trkpt lat="44.1837678" lon="8.07841"><ele>1095.0</ele><time>2026-05-02T08:39:55.198Z</time></trkpt><trkpt lat="44.1838746" lon="8.0783179"><ele>1095.0</ele><time>2026-05-02T08:39:56.197Z</time></trkpt><trkpt lat="44.1839623" lon="8.0782168"><ele>1094.6</ele><time>2026-05-02T08:39:57.2Z</time></trkpt><trkpt lat="44.1840476" lon="8.0781178"><ele>1094.2</ele><time>2026-05-02T08:39:58.201Z</time></trkpt><trkpt lat="44.1841364" lon="8.0780185"><ele>1093.8</ele><time>2026-05-02T08:39:59.193Z</time></trkpt><trkpt lat="44.1842144" lon="8.0779226"><ele>1093.4</ele><time>2026-05-02T08:40:00.199Z</time></trkpt><trkpt lat="44.1842579" lon="8.0778328"><ele>1093.0</ele><time>2026-05-02T08:40:01.197Z</time></trkpt><trkpt lat="44.1843016" lon="8.0777527"><ele>1093.0</ele><time>2026-05-02T08:40:02.193Z</time></trkpt><trkpt lat="44.1843393" lon="8.0776646"><ele>1093.0</ele><time>2026-05-02T08:40:03.187Z</time></trkpt><trkpt lat="44.1843753" lon="8.0775798"><ele>1093.0</ele><time>2026-05-02T08:40:04.198Z</time></trkpt><trkpt lat="44.1844227" lon="8.0775203"><ele>1093.0</ele><time>2026-05-02T08:40:05.198Z</time></trkpt><trkpt lat="44.1845237" lon="8.077541"><ele>1093.0</ele><time>2026-05-02T08:40:07.188Z</time></trkpt><trkpt lat="44.1845854" lon="8.0776385"><ele>1093.0</ele><time>2026-05-02T08:40:09.191Z</time></trkpt><trkpt lat="44.1846285" lon="8.0777197"><ele>1093.0</ele><time>2026-05-02T08:40:10.204Z</time></trkpt><trkpt lat="44.1846511" lon="8.0778171"><ele>1093.0</ele><time>2026-05-02T08:40:11.201Z</time></trkpt><trkpt lat="44.1846644" lon="8.0779547"><ele>1093.0</ele><time>2026-05-02T08:40:12.2Z</time></trkpt><trkpt lat="44.1846704" lon="8.0780979"><ele>1093.0</ele><time>2026-05-02T08:40:13.205Z</time></trkpt><trkpt lat="44.1846895" lon="8.0782166"><ele>1093.0</ele><time>2026-05-02T08:40:14.205Z</time></trkpt><trkpt lat="44.1847274" lon="8.0783636"><ele>1090.8333333333333</ele><time>2026-05-02T08:40:16.207Z</time></trkpt><trkpt lat="44.1847793" lon="8.0784353"><ele>1088.6666666666665</ele><time>2026-05-02T08:40:17.201Z</time></trkpt><trkpt lat="44.1848494" lon="8.0785034"><ele>1086.5</ele><time>2026-05-02T08:40:18.204Z</time></trkpt><trkpt lat="44.1849303" lon="8.0785501"><ele>1084.3333333333333</ele><time>2026-05-02T08:40:19.197Z</time></trkpt><trkpt lat="44.1850189" lon="8.0785605"><ele>1082.1666666666667</ele><time>2026-05-02T08:40:20.198Z</time></trkpt><trkpt lat="44.1851053" lon="8.0785658"><ele>1080.0</ele><time>2026-05-02T08:40:21.188Z</time></trkpt><trkpt lat="44.1851729" lon="8.0785903"><ele>1080.0</ele><time>2026-05-02T08:40:22.196Z</time></trkpt><trkpt lat="44.1852783" lon="8.0786722"><ele>1080.0</ele><time>2026-05-02T08:40:24.191Z</time></trkpt><trkpt lat="44.1853117" lon="8.0787728"><ele>1080.0</ele><time>2026-05-02T08:40:26.201Z</time></trkpt><trkpt lat="44.1852753" lon="8.078848"><ele>1080.0</ele><time>2026-05-02T08:40:27.197Z</time></trkpt><trkpt lat="44.185226" lon="8.0789493"><ele>1080.0</ele><time>2026-05-02T08:40:28.199Z</time></trkpt><trkpt lat="44.1851616" lon="8.0790554"><ele>1077.0</ele><time>2026-05-02T08:40:29.194Z</time></trkpt><trkpt lat="44.1850824" lon="8.0791748"><ele>1074.0</ele><time>2026-05-02T08:40:30.201Z</time></trkpt><trkpt lat="44.1849993" lon="8.0792813"><ele>1071.0</ele><time>2026-05-02T08:40:31.203Z</time></trkpt><trkpt lat="44.1849045" lon="8.0793959"><ele>1068.0</ele><time>2026-05-02T08:40:32.195Z</time></trkpt><trkpt lat="44.1848135" lon="8.079483"><ele>1064.5</ele><time>2026-05-02T08:40:33.193Z</time></trkpt><trkpt lat="44.184763" lon="8.0795782"><ele>1061.0</ele><time>2026-05-02T08:40:34.193Z</time></trkpt><trkpt lat="44.1847336" lon="8.0796798"><ele>1057.5</ele><time>2026-05-02T08:40:35.197Z</time></trkpt><trkpt lat="44.1847255" lon="8.0797935"><ele>1054.0</ele><time>2026-05-02T08:40:36.202Z</time></trkpt><trkpt lat="44.1847235" lon="8.0799156"><ele>1050.5</ele><time>2026-05-02T08:40:37.2Z</time></trkpt><trkpt lat="44.1847305" lon="8.0800312"><ele>1047.0</ele><time>2026-05-02T08:40:38.202Z</time></trkpt><trkpt lat="44.1847589" lon="8.080161"><ele>1044.0</ele><time>2026-05-02T08:40:39.207Z</time></trkpt><trkpt lat="44.1848003" lon="8.0802949"><ele>1041.0</ele><time>2026-05-02T08:40:40.191Z</time></trkpt><trkpt lat="44.1848529" lon="8.0804381"><ele>1038.0</ele><time>2026-05-02T08:40:41.198Z</time></trkpt><trkpt lat="44.1849238" lon="8.0805669"><ele>1035.0</ele><time>2026-05-02T08:40:42.196Z</time></trkpt><trkpt lat="44.1850012" lon="8.0806964"><ele>1038.5</ele><time>2026-05-02T08:40:43.203Z</time></trkpt><trkpt lat="44.1850961" lon="8.0808245"><ele>1042.0</ele><time>2026-05-02T08:40:44.194Z</time></trkpt><trkpt lat="44.1852" lon="8.0809473"><ele>1045.5</ele><time>2026-05-02T08:40:45.197Z</time></trkpt><trkpt lat="44.1852884" lon="8.081072"><ele>1049.0</ele><time>2026-05-02T08:40:46.2Z</time></trkpt><trkpt lat="44.1853375" lon="8.0811864"><ele>1049.0</ele><time>2026-05-02T08:40:47.202Z</time></trkpt><trkpt lat="44.1853794" lon="8.0812969"><ele>1049.0</ele><time>2026-05-02T08:40:48.205Z</time></trkpt><trkpt lat="44.1854066" lon="8.0814121"><ele>1049.0</ele><time>2026-05-02T08:40:49.198Z</time></trkpt><trkpt lat="44.1854297" lon="8.0815361"><ele>1049.0</ele><time>2026-05-02T08:40:50.201Z</time></trkpt><trkpt lat="44.1854528" lon="8.081657"><ele>1049.0</ele><time>2026-05-02T08:40:51.208Z</time></trkpt><trkpt lat="44.1854685" lon="8.081778"><ele>1049.0</ele><time>2026-05-02T08:40:52.209Z</time></trkpt><trkpt lat="44.185477" lon="8.0818986"><ele>1047.3333333333335</ele><time>2026-05-02T08:40:53.22Z</time></trkpt><trkpt lat="44.1854764" lon="8.0820031"><ele>1045.6666666666667</ele><time>2026-05-02T08:40:54.207Z</time></trkpt><trkpt lat="44.1854723" lon="8.0821109"><ele>1044.0</ele><time>2026-05-02T08:40:55.196Z</time></trkpt><trkpt lat="44.1854753" lon="8.0822119"><ele>1042.3333333333333</ele><time>2026-05-02T08:40:56.191Z</time></trkpt><trkpt lat="44.1854817" lon="8.0823158"><ele>1040.6666666666665</ele><time>2026-05-02T08:40:57.197Z</time></trkpt><trkpt lat="44.1855457" lon="8.0824102"><ele>1039.0</ele><time>2026-05-02T08:40:59.199Z</time></trkpt><trkpt lat="44.1856045" lon="8.0824885"><ele>1037.5</ele><time>2026-05-02T08:41:02.185Z</time></trkpt><trkpt lat="44.185723" lon="8.0824573"><ele>1036.0</ele><time>2026-05-02T08:41:04.192Z</time></trkpt><trkpt lat="44.1858427" lon="8.0824348"><ele>1034.5</ele><time>2026-05-02T08:41:05.193Z</time></trkpt><trkpt lat="44.1859802" lon="8.0823966"><ele>1033.0</ele><time>2026-05-02T08:41:06.194Z</time></trkpt><trkpt lat="44.1861155" lon="8.0823767"><ele>1033.0</ele><time>2026-05-02T08:41:07.194Z</time></trkpt><trkpt lat="44.1862309" lon="8.0824089"><ele>1033.0</ele><time>2026-05-02T08:41:08.196Z</time></trkpt><trkpt lat="44.186326" lon="8.0824638"><ele>1033.0</ele><time>2026-05-02T08:41:09.188Z</time></trkpt><trkpt lat="44.1864079" lon="8.0825127"><ele>1033.0</ele><time>2026-05-02T08:41:10.194Z</time></trkpt><trkpt lat="44.1864913" lon="8.0825542"><ele>1033.0</ele><time>2026-05-02T08:41:11.192Z</time></trkpt><trkpt lat="44.1865726" lon="8.0826071"><ele>1034.4</ele><time>2026-05-02T08:41:12.184Z</time></trkpt><trkpt lat="44.1866597" lon="8.0826705"><ele>1035.8</ele><time>2026-05-02T08:41:13.187Z</time></trkpt><trkpt lat="44.1867532" lon="8.0827512"><ele>1037.2</ele><time>2026-05-02T08:41:14.182Z</time></trkpt><trkpt lat="44.1868403" lon="8.0828283"><ele>1038.6</ele><time>2026-05-02T08:41:15.184Z</time></trkpt><trkpt lat="44.1869333" lon="8.0829016"><ele>1040.0</ele><time>2026-05-02T08:41:16.191Z</time></trkpt><trkpt lat="44.1870193" lon="8.0829914"><ele>1040.0</ele><time>2026-05-02T08:41:17.189Z</time></trkpt><trkpt lat="44.1871057" lon="8.0830748"><ele>1040.0</ele><time>2026-05-02T08:41:18.189Z</time></trkpt><trkpt lat="44.1871909" lon="8.0831637"><ele>1040.0</ele><time>2026-05-02T08:41:19.192Z</time></trkpt><trkpt lat="44.1872858" lon="8.083256"><ele>1040.0</ele><time>2026-05-02T08:41:20.183Z</time></trkpt><trkpt lat="44.1873582" lon="8.0833499"><ele>1040.0</ele><time>2026-05-02T08:41:21.2Z</time></trkpt><trkpt lat="44.1874088" lon="8.0834243"><ele>1040.8</ele><time>2026-05-02T08:41:22.19Z</time></trkpt><trkpt lat="44.1874812" lon="8.083503"><ele>1041.6</ele><time>2026-05-02T08:41:24.204Z</time></trkpt><trkpt lat="44.1875343" lon="8.0834275"><ele>1042.4</ele><time>2026-05-02T08:41:26.197Z</time></trkpt><trkpt lat="44.1875967" lon="8.0832704"><ele>1043.2</ele><time>2026-05-02T08:41:28.189Z</time></trkpt><trkpt lat="44.1876293" lon="8.0831644"><ele>1044.0</ele><time>2026-05-02T08:41:29.189Z</time></trkpt><trkpt lat="44.1876652" lon="8.0830359"><ele>1044.0</ele><time>2026-05-02T08:41:30.19Z</time></trkpt><trkpt lat="44.187708" lon="8.0828944"><ele>1044.0</ele><time>2026-05-02T08:41:31.196Z</time></trkpt><trkpt lat="44.1877581" lon="8.0827642"><ele>1044.0</ele><time>2026-05-02T08:41:32.193Z</time></trkpt><trkpt lat="44.187805" lon="8.0826014"><ele>1044.0</ele><time>2026-05-02T08:41:33.188Z</time></trkpt><trkpt lat="44.1878497" lon="8.0824554"><ele>1048.25</ele><time>2026-05-02T08:41:34.188Z</time></trkpt><trkpt lat="44.1878908" lon="8.0822958"><ele>1052.5</ele><time>2026-05-02T08:41:35.188Z</time></trkpt><trkpt lat="44.1879426" lon="8.0821364"><ele>1056.75</ele><time>2026-05-02T08:41:36.187Z</time></trkpt><trkpt lat="44.1879934" lon="8.0819947"><ele>1061.0</ele><time>2026-05-02T08:41:37.191Z</time></trkpt><trkpt lat="44.1880416" lon="8.0818846"><ele>1061.0</ele><time>2026-05-02T08:41:38.188Z</time></trkpt><trkpt lat="44.1881023" lon="8.0817571"><ele>1061.0</ele><time>2026-05-02T08:41:39.197Z</time></trkpt><trkpt lat="44.1881443" lon="8.0816253"><ele>1061.0</ele><time>2026-05-02T08:41:40.18Z</time></trkpt><trkpt lat="44.1881637" lon="8.0815164"><ele>1061.0</ele><time>2026-05-02T08:41:41.186Z</time></trkpt><trkpt lat="44.1881643" lon="8.0813961"><ele>1061.0</ele><time>2026-05-02T08:41:42.19Z</time></trkpt><trkpt lat="44.1881661" lon="8.0812923"><ele>1060.5</ele><time>2026-05-02T08:41:43.188Z</time></trkpt><trkpt lat="44.1882195" lon="8.0811878"><ele>1060.0</ele><time>2026-05-02T08:41:45.187Z</time></trkpt><trkpt lat="44.188301" lon="8.081205"><ele>1059.5</ele><time>2026-05-02T08:41:47.182Z</time></trkpt><trkpt lat="44.1883697" lon="8.0812474"><ele>1059.0</ele><time>2026-05-02T08:41:48.182Z</time></trkpt><trkpt lat="44.1884679" lon="8.0813398"><ele>1058.5</ele><time>2026-05-02T08:41:50.18Z</time></trkpt><trkpt lat="44.1885107" lon="8.0814064"><ele>1058.0</ele><time>2026-05-02T08:41:51.186Z</time></trkpt><trkpt lat="44.1885886" lon="8.0814441"><ele>1058.0</ele><time>2026-05-02T08:41:52.188Z</time></trkpt><trkpt lat="44.1886808" lon="8.0814695"><ele>1058.0</ele><time>2026-05-02T08:41:53.195Z</time></trkpt><trkpt lat="44.1887848" lon="8.0814932"><ele>1058.0</ele><time>2026-05-02T08:41:54.193Z</time></trkpt><trkpt lat="44.1888885" lon="8.0814956"><ele>1058.0</ele><time>2026-05-02T08:41:55.19Z</time></trkpt><trkpt lat="44.1889906" lon="8.0814797"><ele>1058.0</ele><time>2026-05-02T08:41:56.187Z</time></trkpt><trkpt lat="44.1890599" lon="8.0814503"><ele>1054.0</ele><time>2026-05-02T08:41:57.193Z</time></trkpt><trkpt lat="44.1891144" lon="8.0813218"><ele>1050.0</ele><time>2026-05-02T08:41:59.184Z</time></trkpt><trkpt lat="44.1891528" lon="8.0811601"><ele>1046.0</ele><time>2026-05-02T08:42:01.195Z</time></trkpt><trkpt lat="44.1891855" lon="8.0810715"><ele>1042.0</ele><time>2026-05-02T08:42:02.183Z</time></trkpt><trkpt lat="44.1892174" lon="8.0809909"><ele>1038.0</ele><time>2026-05-02T08:42:03.19Z</time></trkpt><trkpt lat="44.189261" lon="8.0808946"><ele>1034.0</ele><time>2026-05-02T08:42:04.189Z</time></trkpt><trkpt lat="44.1893086" lon="8.0808022"><ele>1040.0</ele><time>2026-05-02T08:42:05.184Z</time></trkpt><trkpt lat="44.1893555" lon="8.0807019"><ele>1046.0</ele><time>2026-05-02T08:42:06.185Z</time></trkpt><trkpt lat="44.1894219" lon="8.0806079"><ele>1052.0</ele><time>2026-05-02T08:42:07.188Z</time></trkpt><trkpt lat="44.1895107" lon="8.0805152"><ele>1058.0</ele><time>2026-05-02T08:42:08.185Z</time></trkpt><trkpt lat="44.1895922" lon="8.0804314"><ele>1064.0</ele><time>2026-05-02T08:42:09.188Z</time></trkpt><trkpt lat="44.1896903" lon="8.0803625"><ele>1064.0</ele><time>2026-05-02T08:42:10.19Z</time></trkpt><trkpt lat="44.1897776" lon="8.0802934"><ele>1064.0</ele><time>2026-05-02T08:42:11.185Z</time></trkpt><trkpt lat="44.1898621" lon="8.0802013"><ele>1064.0</ele><time>2026-05-02T08:42:12.187Z</time></trkpt><trkpt lat="44.1899452" lon="8.0800979"><ele>1064.0</ele><time>2026-05-02T08:42:13.191Z</time></trkpt><trkpt lat="44.1900412" lon="8.0799929"><ele>1064.0</ele><time>2026-05-02T08:42:14.19Z</time></trkpt><trkpt lat="44.1901236" lon="8.0799012"><ele>1061.6666666666667</ele><time>2026-05-02T08:42:15.188Z</time></trkpt><trkpt lat="44.1901715" lon="8.0798327"><ele>1059.3333333333335</ele><time>2026-05-02T08:42:16.19Z</time></trkpt><trkpt lat="44.1902136" lon="8.0797442"><ele>1057.0</ele><time>2026-05-02T08:42:17.189Z</time></trkpt><trkpt lat="44.190244" lon="8.0796468"><ele>1054.6666666666667</ele><time>2026-05-02T08:42:18.176Z</time></trkpt><trkpt lat="44.1902668" lon="8.0795403"><ele>1052.3333333333333</ele><time>2026-05-02T08:42:19.177Z</time></trkpt><trkpt lat="44.190278" lon="8.0794189"><ele>1050.0</ele><time>2026-05-02T08:42:20.181Z</time></trkpt><trkpt lat="44.1902912" lon="8.079297"><ele>1050.0</ele><time>2026-05-02T08:42:21.184Z</time></trkpt><trkpt lat="44.1902998" lon="8.0791984"><ele>1050.0</ele><time>2026-05-02T08:42:22.191Z</time></trkpt><trkpt lat="44.1903705" lon="8.0790805"><ele>1050.0</ele><time>2026-05-02T08:42:24.186Z</time></trkpt><trkpt lat="44.1904618" lon="8.0790764"><ele>1050.0</ele><time>2026-05-02T08:42:26.177Z</time></trkpt><trkpt lat="44.1905238" lon="8.0791092"><ele>1050.0</ele><time>2026-05-02T08:42:27.185Z</time></trkpt><trkpt lat="44.1906024" lon="8.0791666"><ele>1050.0</ele><time>2026-05-02T08:42:28.184Z</time></trkpt><trkpt lat="44.1906921" lon="8.0792357"><ele>1048.6</ele><time>2026-05-02T08:42:29.187Z</time></trkpt><trkpt lat="44.1907733" lon="8.0793147"><ele>1047.2</ele><time>2026-05-02T08:42:30.193Z</time></trkpt><trkpt lat="44.1908606" lon="8.0793973"><ele>1045.8</ele><time>2026-05-02T08:42:31.198Z</time></trkpt><trkpt lat="44.1909186" lon="8.0795054"><ele>1044.4</ele><time>2026-05-02T08:42:32.194Z</time></trkpt><trkpt lat="44.1909625" lon="8.0795993"><ele>1043.0</ele><time>2026-05-02T08:42:33.194Z</time></trkpt><trkpt lat="44.1910218" lon="8.0796783"><ele>1043.0</ele><time>2026-05-02T08:42:34.196Z</time></trkpt><trkpt lat="44.1910778" lon="8.0797858"><ele>1043.0</ele><time>2026-05-02T08:42:35.192Z</time></trkpt><trkpt lat="44.191123" lon="8.0799037"><ele>1043.0</ele><time>2026-05-02T08:42:36.2Z</time></trkpt><trkpt lat="44.1911804" lon="8.0800339"><ele>1043.0</ele><time>2026-05-02T08:42:37.199Z</time></trkpt><trkpt lat="44.1912207" lon="8.0801804"><ele>1043.0</ele><time>2026-05-02T08:42:38.197Z</time></trkpt><trkpt lat="44.1912541" lon="8.0803414"><ele>1038.5</ele><time>2026-05-02T08:42:39.197Z</time></trkpt><trkpt lat="44.1912726" lon="8.0805027"><ele>1034.0</ele><time>2026-05-02T08:42:40.189Z</time></trkpt><trkpt lat="44.1912777" lon="8.0806874"><ele>1029.5</ele><time>2026-05-02T08:42:41.192Z</time></trkpt><trkpt lat="44.1912747" lon="8.0808534"><ele>1025.0</ele><time>2026-05-02T08:42:42.187Z</time></trkpt><trkpt lat="44.1912736" lon="8.0810093"><ele>1021.4</ele><time>2026-05-02T08:42:43.186Z</time></trkpt><trkpt lat="44.1912737" lon="8.0811447"><ele>1017.8</ele><time>2026-05-02T08:42:44.192Z</time></trkpt><trkpt lat="44.1912838" lon="8.0812873"><ele>1014.2</ele><time>2026-05-02T08:42:45.194Z</time></trkpt><trkpt lat="44.1913001" lon="8.0814254"><ele>1010.6</ele><time>2026-05-02T08:42:46.193Z</time></trkpt><trkpt lat="44.1913113" lon="8.0815542"><ele>1007.0</ele><time>2026-05-02T08:42:47.188Z</time></trkpt><trkpt lat="44.1913172" lon="8.0816909"><ele>1007.8</ele><time>2026-05-02T08:42:48.192Z</time></trkpt><trkpt lat="44.1913451" lon="8.0818043"><ele>1008.6</ele><time>2026-05-02T08:42:49.2Z</time></trkpt><trkpt lat="44.1913942" lon="8.0819135"><ele>1009.3999999999999</ele><time>2026-05-02T08:42:50.191Z</time></trkpt><trkpt lat="44.191463" lon="8.0820329"><ele>1010.1999999999999</ele><time>2026-05-02T08:42:51.197Z</time></trkpt><trkpt lat="44.1915456" lon="8.0821178"><ele>1011.0</ele><time>2026-05-02T08:42:52.197Z</time></trkpt><trkpt lat="44.191651" lon="8.0821486"><ele>1011.0</ele><time>2026-05-02T08:42:53.199Z</time></trkpt><trkpt lat="44.1917637" lon="8.0821708"><ele>1011.0</ele><time>2026-05-02T08:42:54.189Z</time></trkpt><trkpt lat="44.1918718" lon="8.0821699"><ele>1011.0</ele><time>2026-05-02T08:42:55.202Z</time></trkpt><trkpt lat="44.1919945" lon="8.0821547"><ele>1011.0</ele><time>2026-05-02T08:42:56.196Z</time></trkpt><trkpt lat="44.1921143" lon="8.0821298"><ele>1011.0</ele><time>2026-05-02T08:42:57.204Z</time></trkpt><trkpt lat="44.1922399" lon="8.0820949"><ele>1011.0</ele><time>2026-05-02T08:42:58.197Z</time></trkpt><trkpt lat="44.1923606" lon="8.08206"><ele>1011.0</ele><time>2026-05-02T08:42:59.192Z</time></trkpt><trkpt lat="44.1924733" lon="8.082018"><ele>1011.0</ele><time>2026-05-02T08:43:00.203Z</time></trkpt><trkpt lat="44.1925763" lon="8.0819537"><ele>1009.5999999999999</ele><time>2026-05-02T08:43:01.203Z</time></trkpt><trkpt lat="44.192663" lon="8.0818785"><ele>1008.1999999999999</ele><time>2026-05-02T08:43:02.206Z</time></trkpt><trkpt lat="44.1927112" lon="8.0817783"><ele>1006.8000000000001</ele><time>2026-05-02T08:43:03.204Z</time></trkpt><trkpt lat="44.1927465" lon="8.0816638"><ele>1005.4000000000001</ele><time>2026-05-02T08:43:04.205Z</time></trkpt><trkpt lat="44.192763" lon="8.0815417"><ele>1004.0</ele><time>2026-05-02T08:43:05.2Z</time></trkpt><trkpt lat="44.1927649" lon="8.0814137"><ele>1004.0</ele><time>2026-05-02T08:43:06.198Z</time></trkpt><trkpt lat="44.1927494" lon="8.081294"><ele>1004.0000000000001</ele><time>2026-05-02T08:43:07.199Z</time></trkpt><trkpt lat="44.19272" lon="8.0811733"><ele>1004.0000000000001</ele><time>2026-05-02T08:43:08.199Z</time></trkpt><trkpt lat="44.1926697" lon="8.0810522"><ele>1004.0</ele><time>2026-05-02T08:43:09.198Z</time></trkpt><trkpt lat="44.1926236" lon="8.080932"><ele>1004.0</ele><time>2026-05-02T08:43:10.192Z</time></trkpt><trkpt lat="44.192603" lon="8.0808035"><ele>1004.6666666666667</ele><time>2026-05-02T08:43:11.19Z</time></trkpt><trkpt lat="44.1925978" lon="8.0806904"><ele>1005.3333333333334</ele><time>2026-05-02T08:43:12.202Z</time></trkpt><trkpt lat="44.1926233" lon="8.0805993"><ele>1006.0</ele><time>2026-05-02T08:43:13.197Z</time></trkpt><trkpt lat="44.1926742" lon="8.0805035"><ele>1006.6666666666667</ele><time>2026-05-02T08:43:14.202Z</time></trkpt><trkpt lat="44.1927331" lon="8.0803873"><ele>1007.3333333333334</ele><time>2026-05-02T08:43:15.193Z</time></trkpt><trkpt lat="44.1927904" lon="8.0802636"><ele>1008.0</ele><time>2026-05-02T08:43:16.194Z</time></trkpt><trkpt lat="44.1928291" lon="8.0801451"><ele>1008.0</ele><time>2026-05-02T08:43:17.196Z</time></trkpt><trkpt lat="44.1928597" lon="8.0800386"><ele>1008.0</ele><time>2026-05-02T08:43:18.198Z</time></trkpt><trkpt lat="44.192877" lon="8.0799409"><ele>1008.0</ele><time>2026-05-02T08:43:19.197Z</time></trkpt><trkpt lat="44.1928628" lon="8.0798462"><ele>1008.0</ele><time>2026-05-02T08:43:20.196Z</time></trkpt><trkpt lat="44.1928568" lon="8.0797387"><ele>1008.0</ele><time>2026-05-02T08:43:21.196Z</time></trkpt><trkpt lat="44.1928209" lon="8.0796325"><ele>1008.0</ele><time>2026-05-02T08:43:22.2Z</time></trkpt><trkpt lat="44.1927736" lon="8.0795201"><ele>1008.5</ele><time>2026-05-02T08:43:23.197Z</time></trkpt><trkpt lat="44.1927191" lon="8.0793938"><ele>1009.0</ele><time>2026-05-02T08:43:24.192Z</time></trkpt><trkpt lat="44.19266" lon="8.0792608"><ele>1009.5</ele><time>2026-05-02T08:43:25.194Z</time></trkpt><trkpt lat="44.1925905" lon="8.0791226"><ele>1010.0</ele><time>2026-05-02T08:43:26.193Z</time></trkpt><trkpt lat="44.1925351" lon="8.0789779"><ele>1010.0</ele><time>2026-05-02T08:43:27.189Z</time></trkpt><trkpt lat="44.1924884" lon="8.0788439"><ele>1010.0</ele><time>2026-05-02T08:43:28.184Z</time></trkpt><trkpt lat="44.1924534" lon="8.078704"><ele>1010.0</ele><time>2026-05-02T08:43:29.193Z</time></trkpt><trkpt lat="44.1924241" lon="8.0785708"><ele>1010.0</ele><time>2026-05-02T08:43:30.187Z</time></trkpt><trkpt lat="44.1924182" lon="8.0784595"><ele>1010.0</ele><time>2026-05-02T08:43:31.179Z</time></trkpt><trkpt lat="44.1924175" lon="8.0783597"><ele>1010.0</ele><time>2026-05-02T08:43:32.188Z</time></trkpt><trkpt lat="44.1924846" lon="8.078291"><ele>1010.0</ele><time>2026-05-02T08:43:34.183Z</time></trkpt><trkpt lat="44.192563" lon="8.0782714"><ele>1010.0</ele><time>2026-05-02T08:43:35.185Z</time></trkpt><trkpt lat="44.192655" lon="8.0782536"><ele>1010.0</ele><time>2026-05-02T08:43:36.186Z</time></trkpt><trkpt lat="44.1927854" lon="8.0782771"><ele>1010.0</ele><time>2026-05-02T08:43:37.187Z</time></trkpt><trkpt lat="44.1929645" lon="8.0783026"><ele>1010.0</ele><time>2026-05-02T08:43:38.19Z</time></trkpt><trkpt lat="44.1931426" lon="8.0783441"><ele>1010.0</ele><time>2026-05-02T08:43:39.183Z</time></trkpt><trkpt lat="44.1932878" lon="8.0783944"><ele>1010.0</ele><time>2026-05-02T08:43:40.19Z</time></trkpt><trkpt lat="44.1934597" lon="8.0784193"><ele>1011.0</ele><time>2026-05-02T08:43:41.19Z</time></trkpt><trkpt lat="44.1936386" lon="8.0784444"><ele>1012.0</ele><time>2026-05-02T08:43:42.19Z</time></trkpt><trkpt lat="44.1938223" lon="8.0784678"><ele>1013.0</ele><time>2026-05-02T08:43:43.196Z</time></trkpt><trkpt lat="44.1939861" lon="8.0784701"><ele>1013.25</ele><time>2026-05-02T08:43:44.2Z</time></trkpt><trkpt lat="44.1941387" lon="8.0784505"><ele>1013.5</ele><time>2026-05-02T08:43:45.194Z</time></trkpt><trkpt lat="44.1942411" lon="8.0783929"><ele>1013.75</ele><time>2026-05-02T08:43:46.193Z</time></trkpt><trkpt lat="44.1943504" lon="8.0783149"><ele>1014.0</ele><time>2026-05-02T08:43:47.196Z</time></trkpt><trkpt lat="44.1944188" lon="8.0782143"><ele>1017.8333333333334</ele><time>2026-05-02T08:43:48.189Z</time></trkpt><trkpt lat="44.1944692" lon="8.0781033"><ele>1021.6666666666667</ele><time>2026-05-02T08:43:49.193Z</time></trkpt><trkpt lat="44.1945053" lon="8.0780019"><ele>1025.5</ele><time>2026-05-02T08:43:50.189Z</time></trkpt><trkpt lat="44.1945266" lon="8.0778975"><ele>1029.3333333333335</ele><time>2026-05-02T08:43:51.184Z</time></trkpt><trkpt lat="44.1945356" lon="8.077788"><ele>1033.1666666666667</ele><time>2026-05-02T08:43:52.192Z</time></trkpt><trkpt lat="44.1945339" lon="8.0776701"><ele>1037.0</ele><time>2026-05-02T08:43:53.191Z</time></trkpt><trkpt lat="44.1945307" lon="8.0775556"><ele>1037.0</ele><time>2026-05-02T08:43:54.186Z</time></trkpt><trkpt lat="44.1945228" lon="8.0774368"><ele>1037.0</ele><time>2026-05-02T08:43:55.187Z</time></trkpt><trkpt lat="44.194538" lon="8.0773146"><ele>1037.0</ele><time>2026-05-02T08:43:56.184Z</time></trkpt><trkpt lat="44.1945545" lon="8.0771751"><ele>1037.0</ele><time>2026-05-02T08:43:57.192Z</time></trkpt><trkpt lat="44.1945681" lon="8.0770338"><ele>1037.0</ele><time>2026-05-02T08:43:58.191Z</time></trkpt><trkpt lat="44.194565" lon="8.0769044"><ele>1039.6666666666667</ele><time>2026-05-02T08:43:59.192Z</time></trkpt><trkpt lat="44.1945598" lon="8.0767819"><ele>1042.3333333333335</ele><time>2026-05-02T08:44:00.188Z</time></trkpt><trkpt lat="44.1945383" lon="8.0766616"><ele>1045.0</ele><time>2026-05-02T08:44:01.196Z</time></trkpt><trkpt lat="44.1945027" lon="8.076549"><ele>1047.6666666666667</ele><time>2026-05-02T08:44:02.192Z</time></trkpt><trkpt lat="44.1944668" lon="8.0764597"><ele>1050.3333333333333</ele><time>2026-05-02T08:44:03.192Z</time></trkpt><trkpt lat="44.1944303" lon="8.0763865"><ele>1053.0</ele><time>2026-05-02T08:44:04.198Z</time></trkpt><trkpt lat="44.1943843" lon="8.076242"><ele>1055.1666666666667</ele><time>2026-05-02T08:44:06.194Z</time></trkpt><trkpt lat="44.1944361" lon="8.0761266"><ele>1057.3333333333333</ele><time>2026-05-02T08:44:08.198Z</time></trkpt><trkpt lat="44.1944909" lon="8.0760772"><ele>1059.5</ele><time>2026-05-02T08:44:09.193Z</time></trkpt><trkpt lat="44.1945569" lon="8.0760295"><ele>1061.6666666666665</ele><time>2026-05-02T08:44:10.186Z</time></trkpt><trkpt lat="44.1946427" lon="8.0759731"><ele>1063.8333333333333</ele><time>2026-05-02T08:44:11.187Z</time></trkpt><trkpt lat="44.1947124" lon="8.0759077"><ele>1066.0</ele><time>2026-05-02T08:44:12.188Z</time></trkpt><trkpt lat="44.1947578" lon="8.0758364"><ele>1064.5</ele><time>2026-05-02T08:44:13.189Z</time></trkpt><trkpt lat="44.1947954" lon="8.0757423"><ele>1063.0</ele><time>2026-05-02T08:44:14.192Z</time></trkpt><trkpt lat="44.1948158" lon="8.0756325"><ele>1061.5</ele><time>2026-05-02T08:44:15.187Z</time></trkpt><trkpt lat="44.1948233" lon="8.0755228"><ele>1060.0</ele><time>2026-05-02T08:44:16.196Z</time></trkpt><trkpt lat="44.1948269" lon="8.0754223"><ele>1058.5</ele><time>2026-05-02T08:44:17.19Z</time></trkpt><trkpt lat="44.1948317" lon="8.075311"><ele>1057.0</ele><time>2026-05-02T08:44:18.191Z</time></trkpt><trkpt lat="44.1948486" lon="8.0752218"><ele>1057.0</ele><time>2026-05-02T08:44:19.187Z</time></trkpt><trkpt lat="44.1948802" lon="8.0751343"><ele>1057.0</ele><time>2026-05-02T08:44:20.191Z</time></trkpt><trkpt lat="44.1949327" lon="8.0750562"><ele>1057.0</ele><time>2026-05-02T08:44:21.187Z</time></trkpt><trkpt lat="44.1949869" lon="8.0749759"><ele>1057.0</ele><time>2026-05-02T08:44:22.194Z</time></trkpt><trkpt lat="44.1950343" lon="8.0748961"><ele>1057.0</ele><time>2026-05-02T08:44:23.191Z</time></trkpt><trkpt lat="44.1950918" lon="8.0748407"><ele>1057.0</ele><time>2026-05-02T08:44:24.197Z</time></trkpt><trkpt lat="44.1951997" lon="8.0748265"><ele>1057.0</ele><time>2026-05-02T08:44:26.19Z</time></trkpt><trkpt lat="44.1952864" lon="8.0748971"><ele>1057.0</ele><time>2026-05-02T08:44:27.182Z</time></trkpt><trkpt lat="44.1953768" lon="8.0749918"><ele>1057.0</ele><time>2026-05-02T08:44:28.186Z</time></trkpt><trkpt lat="44.1954793" lon="8.0750898"><ele>1057.0</ele><time>2026-05-02T08:44:29.187Z</time></trkpt><trkpt lat="44.1955787" lon="8.0751859"><ele>1057.0</ele><time>2026-05-02T08:44:30.189Z</time></trkpt><trkpt lat="44.195658" lon="8.0752563"><ele>1057.0</ele><time>2026-05-02T08:44:31.188Z</time></trkpt><trkpt lat="44.1957283" lon="8.0752993"><ele>1057.0</ele><time>2026-05-02T08:44:32.187Z</time></trkpt><trkpt lat="44.1957931" lon="8.075318"><ele>1057.0</ele><time>2026-05-02T08:44:33.191Z</time></trkpt><trkpt lat="44.1959184" lon="8.0752673"><ele>1057.0</ele><time>2026-05-02T08:44:35.191Z</time></trkpt><trkpt lat="44.1959646" lon="8.0751944"><ele>1057.0</ele><time>2026-05-02T08:44:36.191Z</time></trkpt><trkpt lat="44.1960112" lon="8.0751225"><ele>1057.3333333333333</ele><time>2026-05-02T08:44:37.189Z</time></trkpt><trkpt lat="44.1961257" lon="8.0750827"><ele>1057.6666666666665</ele><time>2026-05-02T08:44:39.192Z</time></trkpt><trkpt lat="44.1961875" lon="8.075103"><ele>1058.0</ele><time>2026-05-02T08:44:40.188Z</time></trkpt><trkpt lat="44.1962461" lon="8.0751388"><ele>1058.3333333333333</ele><time>2026-05-02T08:44:41.18Z</time></trkpt><trkpt lat="44.1963092" lon="8.0751741"><ele>1058.6666666666667</ele><time>2026-05-02T08:44:42.185Z</time></trkpt><trkpt lat="44.1963686" lon="8.0752088"><ele>1059.0</ele><time>2026-05-02T08:44:43.188Z</time></trkpt><trkpt lat="44.1964387" lon="8.0752526"><ele>1060.4</ele><time>2026-05-02T08:44:44.186Z</time></trkpt><trkpt lat="44.1965423" lon="8.0753464"><ele>1061.8000000000002</ele><time>2026-05-02T08:44:46.184Z</time></trkpt><trkpt lat="44.1965986" lon="8.0754972"><ele>1063.1999999999998</ele><time>2026-05-02T08:44:48.185Z</time></trkpt><trkpt lat="44.196616" lon="8.075591"><ele>1064.6</ele><time>2026-05-02T08:44:49.194Z</time></trkpt><trkpt lat="44.1966673" lon="8.0756917"><ele>1066.0</ele><time>2026-05-02T08:44:51.187Z</time></trkpt><trkpt lat="44.1966947" lon="8.0757742"><ele>1066.0</ele><time>2026-05-02T08:44:53.188Z</time></trkpt><trkpt lat="44.1968043" lon="8.0757601"><ele>1066.0</ele><time>2026-05-02T08:44:55.189Z</time></trkpt><trkpt lat="44.1968731" lon="8.0757349"><ele>1066.0</ele><time>2026-05-02T08:44:56.195Z</time></trkpt><trkpt lat="44.1969747" lon="8.0756899"><ele>1066.0</ele><time>2026-05-02T08:44:57.191Z</time></trkpt><trkpt lat="44.1970849" lon="8.0756335"><ele>1066.0</ele><time>2026-05-02T08:44:58.197Z</time></trkpt><trkpt lat="44.1972056" lon="8.0755977"><ele>1066.0</ele><time>2026-05-02T08:44:59.204Z</time></trkpt><trkpt lat="44.197317" lon="8.0755849"><ele>1066.0</ele><time>2026-05-02T08:45:00.202Z</time></trkpt><trkpt lat="44.1974229" lon="8.0756008"><ele>1066.0</ele><time>2026-05-02T08:45:01.198Z</time></trkpt><trkpt lat="44.1975457" lon="8.0756392"><ele>1066.0</ele><time>2026-05-02T08:45:02.192Z</time></trkpt><trkpt lat="44.1976696" lon="8.0757124"><ele>1064.25</ele><time>2026-05-02T08:45:03.19Z</time></trkpt><trkpt lat="44.1978012" lon="8.0758028"><ele>1062.5</ele><time>2026-05-02T08:45:04.19Z</time></trkpt><trkpt lat="44.1979288" lon="8.0758973"><ele>1060.75</ele><time>2026-05-02T08:45:05.187Z</time></trkpt><trkpt lat="44.1980474" lon="8.075988"><ele>1059.0</ele><time>2026-05-02T08:45:06.192Z</time></trkpt><trkpt lat="44.1981535" lon="8.0760686"><ele>1061.4</ele><time>2026-05-02T08:45:07.191Z</time></trkpt><trkpt lat="44.1982588" lon="8.0761331"><ele>1063.8000000000002</ele><time>2026-05-02T08:45:08.191Z</time></trkpt><trkpt lat="44.1983743" lon="8.0761663"><ele>1066.1999999999998</ele><time>2026-05-02T08:45:09.19Z</time></trkpt><trkpt lat="44.1984622" lon="8.0761897"><ele>1068.6</ele><time>2026-05-02T08:45:10.193Z</time></trkpt><trkpt lat="44.1985459" lon="8.0762245"><ele>1071.0</ele><time>2026-05-02T08:45:11.188Z</time></trkpt><trkpt lat="44.1986287" lon="8.0762685"><ele>1071.0</ele><time>2026-05-02T08:45:12.191Z</time></trkpt><trkpt lat="44.1987175" lon="8.0763277"><ele>1071.0</ele><time>2026-05-02T08:45:13.191Z</time></trkpt><trkpt lat="44.1987975" lon="8.0764168"><ele>1071.0</ele><time>2026-05-02T08:45:14.189Z</time></trkpt><trkpt lat="44.1988769" lon="8.0765426"><ele>1071.0</ele><time>2026-05-02T08:45:15.19Z</time></trkpt><trkpt lat="44.198955" lon="8.0766869"><ele>1073.0</ele><time>2026-05-02T08:45:16.186Z</time></trkpt><trkpt lat="44.1990424" lon="8.0768381"><ele>1075.0</ele><time>2026-05-02T08:45:17.186Z</time></trkpt><trkpt lat="44.1991309" lon="8.076987"><ele>1077.0</ele><time>2026-05-02T08:45:18.19Z</time></trkpt><trkpt lat="44.1992274" lon="8.0771312"><ele>1079.0</ele><time>2026-05-02T08:45:19.183Z</time></trkpt><trkpt lat="44.1993168" lon="8.0772665"><ele>1079.0</ele><time>2026-05-02T08:45:20.182Z</time></trkpt><trkpt lat="44.1994079" lon="8.0773894"><ele>1079.0</ele><time>2026-05-02T08:45:21.192Z</time></trkpt><trkpt lat="44.1994966" lon="8.0775028"><ele>1079.0</ele><time>2026-05-02T08:45:22.187Z</time></trkpt><trkpt lat="44.1995918" lon="8.0775961"><ele>1079.0</ele><time>2026-05-02T08:45:23.192Z</time></trkpt><trkpt lat="44.1996933" lon="8.0776636"><ele>1081.0</ele><time>2026-05-02T08:45:24.192Z</time></trkpt><trkpt lat="44.1997996" lon="8.0777148"><ele>1083.0</ele><time>2026-05-02T08:45:25.188Z</time></trkpt><trkpt lat="44.199902" lon="8.0777763"><ele>1085.0</ele><time>2026-05-02T08:45:26.183Z</time></trkpt><trkpt lat="44.199982" lon="8.0778407"><ele>1087.0</ele><time>2026-05-02T08:45:27.191Z</time></trkpt><trkpt lat="44.200033" lon="8.0779037"><ele>1089.0</ele><time>2026-05-02T08:45:28.193Z</time></trkpt><trkpt lat="44.2000282" lon="8.0778085"><ele>1089.0</ele><time>2026-05-02T08:45:36.192Z</time></trkpt><trkpt lat="44.1999731" lon="8.0777113"><ele>1089.0</ele><time>2026-05-02T08:45:38.188Z</time></trkpt><trkpt lat="44.1999125" lon="8.0776336"><ele>1089.0</ele><time>2026-05-02T08:47:08.2Z</time></trkpt><trkpt lat="44.1998195" lon="8.077547"><ele>1089.0</ele><time>2026-05-02T08:47:11.206Z</time></trkpt><trkpt lat="44.1997512" lon="8.0774465"><ele>1089.0</ele><time>2026-05-02T08:47:12.196Z</time></trkpt><trkpt lat="44.1996783" lon="8.0772835"><ele>1085.6666666666667</ele><time>2026-05-02T08:47:13.187Z</time></trkpt><trkpt lat="44.199584" lon="8.077091"><ele>1082.3333333333335</ele><time>2026-05-02T08:47:14.193Z</time></trkpt><trkpt lat="44.1995004" lon="8.0768848"><ele>1079.0</ele><time>2026-05-02T08:47:15.186Z</time></trkpt><trkpt lat="44.182267" lon="8.0764613"><ele>1077.1666666666667</ele><time>2026-05-02T08:38:49.187Z</time></trkpt><trkpt lat="44.1822562" lon="8.0765825"><ele>1075.3333333333335</ele><time>2026-05-02T08:38:50.195Z</time></trkpt><trkpt lat="44.1822549" lon="8.076697"><ele>1073.5</ele><time>2026-05-02T08:38:51.198Z</time></trkpt><trkpt lat="44.1822676" lon="8.0768134"><ele>1071.6666666666667</ele><time>2026-05-02T08:38:52.191Z</time></trkpt><trkpt lat="44.1822735" lon="8.0769202"><ele>1069.8333333333333</ele><time>2026-05-02T08:38:53.193Z</time></trkpt><trkpt lat="44.182286" lon="8.0770278"><ele>1068.0</ele><time>2026-05-02T08:38:54.191Z</time></trkpt><trkpt lat="44.1822906" lon="8.0771402"><ele>1068.0</ele><time>2026-05-02T08:38:55.193Z</time></trkpt><trkpt lat="44.1822708" lon="8.077242"><ele>1068.0</ele><time>2026-05-02T08:38:56.192Z</time></trkpt><trkpt lat="44.1822458" lon="8.0773573"><ele>1068.0</ele><time>2026-05-02T08:38:57.197Z</time></trkpt><trkpt lat="44.1822141" lon="8.0774708"><ele>1068.0</ele><time>2026-05-02T08:38:58.189Z</time></trkpt><trkpt lat="44.1821496" lon="8.0775843"><ele>1068.0</ele><time>2026-05-02T08:38:59.196Z</time></trkpt><trkpt lat="44.182073" lon="8.0776956"><ele>1072.5</ele><time>2026-05-02T08:39:00.198Z</time></trkpt><trkpt lat="44.1819751" lon="8.0778094"><ele>1077.0</ele><time>2026-05-02T08:39:01.192Z</time></trkpt><trkpt lat="44.1818825" lon="8.07793"><ele>1081.5</ele><time>2026-05-02T08:39:02.191Z</time></trkpt><trkpt lat="44.1817928" lon="8.0780589"><ele>1086.0</ele><time>2026-05-02T08:39:03.199Z</time></trkpt><trkpt lat="44.1817048" lon="8.0781772"><ele>1086.8</ele><time>2026-05-02T08:39:04.199Z</time></trkpt><trkpt lat="44.1816144" lon="8.0782841"><ele>1087.6</ele><time>2026-05-02T08:39:05.196Z</time></trkpt><trkpt lat="44.1815339" lon="8.078378"><ele>1088.4</ele><time>2026-05-02T08:39:06.197Z</time></trkpt><trkpt lat="44.1814545" lon="8.0784558"><ele>1089.2</ele><time>2026-05-02T08:39:07.197Z</time></trkpt><trkpt lat="44.1813613" lon="8.078524"><ele>1090.0</ele><time>2026-05-02T08:39:08.214Z</time></trkpt><trkpt lat="44.1812851" lon="8.0785934"><ele>1090.0</ele><time>2026-05-02T08:39:09.198Z</time></trkpt><trkpt lat="44.1812155" lon="8.0786688"><ele>1090.0</ele><time>2026-05-02T08:39:10.199Z</time></trkpt><trkpt lat="44.181153" lon="8.0787758"><ele>1090.0</ele><time>2026-05-02T08:39:11.192Z</time></trkpt><trkpt lat="44.181089" lon="8.0789013"><ele>1090.0</ele><time>2026-05-02T08:39:12.201Z</time></trkpt><trkpt lat="44.1810298" lon="8.0790368"><ele>1090.0</ele><time>2026-05-02T08:39:13.2Z</time></trkpt><trkpt lat="44.1809824" lon="8.0791844"><ele>1091.6</ele><time>2026-05-02T08:39:14.193Z</time></trkpt><trkpt lat="44.1809408" lon="8.0793285"><ele>1093.2</ele><time>2026-05-02T08:39:15.199Z</time></trkpt><trkpt lat="44.1809021" lon="8.0794649"><ele>1094.8</ele><time>2026-05-02T08:39:16.194Z</time></trkpt><trkpt lat="44.1808676" lon="8.0795937"><ele>1096.4</ele><time>2026-05-02T08:39:17.19Z</time></trkpt><trkpt lat="44.1808424" lon="8.0797031"><ele>1098.0</ele><time>2026-05-02T08:39:18.202Z</time></trkpt><trkpt lat="44.1808646" lon="8.079827"><ele>1098.0</ele><time>2026-05-02T08:39:20.196Z</time></trkpt><trkpt lat="44.1809739" lon="8.0798842"><ele>1098.0</ele><time>2026-05-02T08:39:22.21Z</time></trkpt><trkpt lat="44.1810575" lon="8.079885"><ele>1098.0</ele><time>2026-05-02T08:39:23.199Z</time></trkpt><trkpt lat="44.1811733" lon="8.0798865"><ele>1098.0</ele><time>2026-05-02T08:39:24.199Z</time></trkpt><trkpt lat="44.1812999" lon="8.0798739"><ele>1098.0</ele><time>2026-05-02T08:39:25.19Z</time></trkpt><trkpt lat="44.1814256" lon="8.0798691"><ele>1099.75</ele><time>2026-05-02T08:39:26.194Z</time></trkpt><trkpt lat="44.1815427" lon="8.0798367"><ele>1101.5</ele><time>2026-05-02T08:39:27.189Z</time></trkpt><trkpt lat="44.1816446" lon="8.0797958"><ele>1103.25</ele><time>2026-05-02T08:39:28.191Z</time></trkpt><trkpt lat="44.1817472" lon="8.0797349"><ele>1105.0</ele><time>2026-05-02T08:39:29.193Z</time></trkpt><trkpt lat="44.1818488" lon="8.0796588"><ele>1105.0</ele><time>2026-05-02T08:39:30.19Z</time></trkpt><trkpt lat="44.1819483" lon="8.0795814"><ele>1105.0</ele><time>2026-05-02T08:39:31.192Z</time></trkpt><trkpt lat="44.1820387" lon="8.0795045"><ele>1105.0</ele><time>2026-05-02T08:39:32.188Z</time></trkpt><trkpt lat="44.1821354" lon="8.0794439"><ele>1105.0</ele><time>2026-05-02T08:39:33.194Z</time></trkpt><trkpt lat="44.1822393" lon="8.079398"><ele>1105.0</ele><time>2026-05-02T08:39:34.189Z</time></trkpt><trkpt lat="44.1823398" lon="8.0793897"><ele>1103.5</ele><time>2026-05-02T08:39:35.185Z</time></trkpt><trkpt lat="44.1824342" lon="8.0794033"><ele>1102.0</ele><time>2026-05-02T08:39:36.193Z</time></trkpt><trkpt lat="44.1825171" lon="8.0794705"><ele>1100.5</ele><time>2026-05-02T08:39:37.191Z</time></trkpt><trkpt lat="44.182593" lon="8.0795252"><ele>1099.0</ele><time>2026-05-02T08:39:38.184Z</time></trkpt><trkpt lat="44.1826679" lon="8.0795546"><ele>1097.5</ele><time>2026-05-02T08:39:39.199Z</time></trkpt><trkpt lat="44.1827386" lon="8.0795517"><ele>1096.0</ele><time>2026-05-02T08:39:40.199Z</time></trkpt><trkpt lat="44.1828419" lon="8.0794756"><ele>1096.0</ele><time>2026-05-02T08:39:42.197Z</time></trkpt><trkpt lat="44.1828894" lon="8.0794083"><ele>1096.0</ele><time>2026-05-02T08:39:43.198Z</time></trkpt><trkpt lat="44.1829353" lon="8.0793219"><ele>1096.0</ele><time>2026-05-02T08:39:44.198Z</time></trkpt><trkpt lat="44.1829755" lon="8.0792199"><ele>1096.0</ele><time>2026-05-02T08:39:45.198Z</time></trkpt><trkpt lat="44.1830176" lon="8.0791272"><ele>1096.0</ele><time>2026-05-02T08:39:46.203Z</time></trkpt><trkpt lat="44.1830667" lon="8.0790276"><ele>1096.0</ele><time>2026-05-02T08:39:47.195Z</time></trkpt><trkpt lat="44.1831229" lon="8.0789337"><ele>1095.8</ele><time>2026-05-02T08:39:48.196Z</time></trkpt><trkpt lat="44.1831897" lon="8.0788651"><ele>1095.6</ele><time>2026-05-02T08:39:49.198Z</time></trkpt><trkpt lat="44.1832758" lon="8.0788088"><ele>1095.4</ele><time>2026-05-02T08:39:50.195Z</time></trkpt><trkpt lat="44.1833622" lon="8.0787315"><ele>1095.2</ele><time>2026-05-02T08:39:51.196Z</time></trkpt><trkpt lat="44.1834696" lon="8.0786421"><ele>1095.0</ele><time>2026-05-02T08:39:52.2Z</time></trkpt><trkpt lat="44.1835702" lon="8.0785658"><ele>1095.0</ele><time>2026-05-02T08:39:53.198Z</time></trkpt><trkpt lat="44.1836679" lon="8.0784954"><ele>1095.0</ele><time>2026-05-02T08:39:54.189Z</time></trkpt><trkpt lat="44.1837678" lon="8.07841"><ele>1095.0</ele><time>2026-05-02T08:39:55.198Z</time></trkpt><trkpt lat="44.1838746" lon="8.0783179"><ele>1095.0</ele><time>2026-05-02T08:39:56.197Z</time></trkpt><trkpt lat="44.1839623" lon="8.0782168"><ele>1094.6</ele><time>2026-05-02T08:39:57.2Z</time></trkpt><trkpt lat="44.1840476" lon="8.0781178"><ele>1094.2</ele><time>2026-05-02T08:39:58.201Z</time></trkpt><trkpt lat="44.1841364" lon="8.0780185"><ele>1093.8</ele><time>2026-05-02T08:39:59.193Z</time></trkpt><trkpt lat="44.1842144" lon="8.0779226"><ele>1093.4</ele><time>2026-05-02T08:40:00.199Z</time></trkpt><trkpt lat="44.1842579" lon="8.0778328"><ele>1093.0</ele><time>2026-05-02T08:40:01.197Z</time></trkpt><trkpt lat="44.1843016" lon="8.0777527"><ele>1093.0</ele><time>2026-05-02T08:40:02.193Z</time></trkpt><trkpt lat="44.1843393" lon="8.0776646"><ele>1093.0</ele><time>2026-05-02T08:40:03.187Z</time></trkpt><trkpt lat="44.1843753" lon="8.0775798"><ele>1093.0</ele><time>2026-05-02T08:40:04.198Z</time></trkpt><trkpt lat="44.1844227" lon="8.0775203"><ele>1093.0</ele><time>2026-05-02T08:40:05.198Z</time></trkpt><trkpt lat="44.1845237" lon="8.077541"><ele>1093.0</ele><time>2026-05-02T08:40:07.188Z</time></trkpt><trkpt lat="44.1845854" lon="8.0776385"><ele>1093.0</ele><time>2026-05-02T08:40:09.191Z</time></trkpt><trkpt lat="44.1846285" lon="8.0777197"><ele>1093.0</ele><time>2026-05-02T08:40:10.204Z</time></trkpt><trkpt lat="44.1846511" lon="8.0778171"><ele>1093.0</ele><time>2026-05-02T08:40:11.201Z</time></trkpt><trkpt lat="44.1846644" lon="8.0779547"><ele>1093.0</ele><time>2026-05-02T08:40:12.2Z</time></trkpt><trkpt lat="44.1846704" lon="8.0780979"><ele>1093.0</ele><time>2026-05-02T08:40:13.205Z</time></trkpt><trkpt lat="44.1846895" lon="8.0782166"><ele>1093.0</ele><time>2026-05-02T08:40:14.205Z</time></trkpt><trkpt lat="44.1847274" lon="8.0783636"><ele>1090.8333333333333</ele><time>2026-05-02T08:40:16.207Z</time></trkpt><trkpt lat="44.1847793" lon="8.0784353"><ele>1088.6666666666665</ele><time>2026-05-02T08:40:17.201Z</time></trkpt><trkpt lat="44.1848494" lon="8.0785034"><ele>1086.5</ele><time>2026-05-02T08:40:18.204Z</time></trkpt><trkpt lat="44.1849303" lon="8.0785501"><ele>1084.3333333333333</ele><time>2026-05-02T08:40:19.197Z</time></trkpt><trkpt lat="44.1850189" lon="8.0785605"><ele>1082.1666666666667</ele><time>2026-05-02T08:40:20.198Z</time></trkpt><trkpt lat="44.1851053" lon="8.0785658"><ele>1080.0</ele><time>2026-05-02T08:40:21.188Z</time></trkpt><trkpt lat="44.1851729" lon="8.0785903"><ele>1080.0</ele><time>2026-05-02T08:40:22.196Z</time></trkpt><trkpt lat="44.1852783" lon="8.0786722"><ele>1080.0</ele><time>2026-05-02T08:40:24.191Z</time></trkpt><trkpt lat="44.1853117" lon="8.0787728"><ele>1080.0</ele><time>2026-05-02T08:40:26.201Z</time></trkpt><trkpt lat="44.1852753" lon="8.078848"><ele>1080.0</ele><time>2026-05-02T08:40:27.197Z</time></trkpt><trkpt lat="44.185226" lon="8.0789493"><ele>1080.0</ele><time>2026-05-02T08:40:28.199Z</time></trkpt><trkpt lat="44.1851616" lon="8.0790554"><ele>1077.0</ele><time>2026-05-02T08:40:29.194Z</time></trkpt><trkpt lat="44.1850824" lon="8.0791748"><ele>1074.0</ele><time>2026-05-02T08:40:30.201Z</time></trkpt><trkpt lat="44.1849993" lon="8.0792813"><ele>1071.0</ele><time>2026-05-02T08:40:31.203Z</time></trkpt><trkpt lat="44.1849045" lon="8.0793959"><ele>1068.0</ele><time>2026-05-02T08:40:32.195Z</time></trkpt><trkpt lat="44.1848135" lon="8.079483"><ele>1064.5</ele><time>2026-05-02T08:40:33.193Z</time></trkpt><trkpt lat="44.184763" lon="8.0795782"><ele>1061.0</ele><time>2026-05-02T08:40:34.193Z</time></trkpt><trkpt lat="44.1847336" lon="8.0796798"><ele>1057.5</ele><time>2026-05-02T08:40:35.197Z</time></trkpt><trkpt lat="44.1847255" lon="8.0797935"><ele>1054.0</ele><time>2026-05-02T08:40:36.202Z</time></trkpt><trkpt lat="44.1847235" lon="8.0799156"><ele>1050.5</ele><time>2026-05-02T08:40:37.2Z</time></trkpt><trkpt lat="44.1847305" lon="8.0800312"><ele>1047.0</ele><time>2026-05-02T08:40:38.202Z</time></trkpt><trkpt lat="44.1847589" lon="8.080161"><ele>1044.0</ele><time>2026-05-02T08:40:39.207Z</time></trkpt><trkpt lat="44.1848003" lon="8.0802949"><ele>1041.0</ele><time>2026-05-02T08:40:40.191Z</time></trkpt><trkpt lat="44.1848529" lon="8.0804381"><ele>1038.0</ele><time>2026-05-02T08:40:41.198Z</time></trkpt><trkpt lat="44.1849238" lon="8.0805669"><ele>1035.0</ele><time>2026-05-02T08:40:42.196Z</time></trkpt><trkpt lat="44.1850012" lon="8.0806964"><ele>1038.5</ele><time>2026-05-02T08:40:43.203Z</time></trkpt><trkpt lat="44.1850961" lon="8.0808245"><ele>1042.0</ele><time>2026-05-02T08:40:44.194Z</time></trkpt><trkpt lat="44.1852" lon="8.0809473"><ele>1045.5</ele><time>2026-05-02T08:40:45.197Z</time></trkpt><trkpt lat="44.1852884" lon="8.081072"><ele>1049.0</ele><time>2026-05-02T08:40:46.2Z</time></trkpt><trkpt lat="44.1853375" lon="8.0811864"><ele>1049.0</ele><time>2026-05-02T08:40:47.202Z</time></trkpt><trkpt lat="44.1853794" lon="8.0812969"><ele>1049.0</ele><time>2026-05-02T08:40:48.205Z</time></trkpt><trkpt lat="44.1854066" lon="8.0814121"><ele>1049.0</ele><time>2026-05-02T08:40:49.198Z</time></trkpt><trkpt lat="44.1854297" lon="8.0815361"><ele>1049.0</ele><time>2026-05-02T08:40:50.201Z</time></trkpt><trkpt lat="44.1854528" lon="8.081657"><ele>1049.0</ele><time>2026-05-02T08:40:51.208Z</time></trkpt><trkpt lat="44.1854685" lon="8.081778"><ele>1049.0</ele><time>2026-05-02T08:40:52.209Z</time></trkpt><trkpt lat="44.185477" lon="8.0818986"><ele>1047.3333333333335</ele><time>2026-05-02T08:40:53.22Z</time></trkpt><trkpt lat="44.1854764" lon="8.0820031"><ele>1045.6666666666667</ele><time>2026-05-02T08:40:54.207Z</time></trkpt><trkpt lat="44.1854723" lon="8.0821109"><ele>1044.0</ele><time>2026-05-02T08:40:55.196Z</time></trkpt><trkpt lat="44.1854753" lon="8.0822119"><ele>1042.3333333333333</ele><time>2026-05-02T08:40:56.191Z</time></trkpt><trkpt lat="44.1854817" lon="8.0823158"><ele>1040.6666666666665</ele><time>2026-05-02T08:40:57.197Z</time></trkpt><trkpt lat="44.1855457" lon="8.0824102"><ele>1039.0</ele><time>2026-05-02T08:40:59.199Z</time></trkpt><trkpt lat="44.1856045" lon="8.0824885"><ele>1037.5</ele><time>2026-05-02T08:41:02.185Z</time></trkpt><trkpt lat="44.185723" lon="8.0824573"><ele>1036.0</ele><time>2026-05-02T08:41:04.192Z</time></trkpt><trkpt lat="44.1858427" lon="8.0824348"><ele>1034.5</ele><time>2026-05-02T08:41:05.193Z</time></trkpt><trkpt lat="44.1859802" lon="8.0823966"><ele>1033.0</ele><time>2026-05-02T08:41:06.194Z</time></trkpt><trkpt lat="44.1861155" lon="8.0823767"><ele>1033.0</ele><time>2026-05-02T08:41:07.194Z</time></trkpt><trkpt lat="44.1862309" lon="8.0824089"><ele>1033.0</ele><time>2026-05-02T08:41:08.196Z</time></trkpt><trkpt lat="44.186326" lon="8.0824638"><ele>1033.0</ele><time>2026-05-02T08:41:09.188Z</time></trkpt><trkpt lat="44.1864079" lon="8.0825127"><ele>1033.0</ele><time>2026-05-02T08:41:10.194Z</time></trkpt><trkpt lat="44.1864913" lon="8.0825542"><ele>1033.0</ele><time>2026-05-02T08:41:11.192Z</time></trkpt><trkpt lat="44.1865726" lon="8.0826071"><ele>1034.4</ele><time>2026-05-02T08:41:12.184Z</time></trkpt><trkpt lat="44.1866597" lon="8.0826705"><ele>1035.8</ele><time>2026-05-02T08:41:13.187Z</time></trkpt><trkpt lat="44.1867532" lon="8.0827512"><ele>1037.2</ele><time>2026-05-02T08:41:14.182Z</time></trkpt><trkpt lat="44.1868403" lon="8.0828283"><ele>1038.6</ele><time>2026-05-02T08:41:15.184Z</time></trkpt><trkpt lat="44.1869333" lon="8.0829016"><ele>1040.0</ele><time>2026-05-02T08:41:16.191Z</time></trkpt><trkpt lat="44.1870193" lon="8.0829914"><ele>1040.0</ele><time>2026-05-02T08:41:17.189Z</time></trkpt><trkpt lat="44.1871057" lon="8.0830748"><ele>1040.0</ele><time>2026-05-02T08:41:18.189Z</time></trkpt><trkpt lat="44.1871909" lon="8.0831637"><ele>1040.0</ele><time>2026-05-02T08:41:19.192Z</time></trkpt><trkpt lat="44.1872858" lon="8.083256"><ele>1040.0</ele><time>2026-05-02T08:41:20.183Z</time></trkpt><trkpt lat="44.1873582" lon="8.0833499"><ele>1040.0</ele><time>2026-05-02T08:41:21.2Z</time></trkpt><trkpt lat="44.1874088" lon="8.0834243"><ele>1040.8</ele><time>2026-05-02T08:41:22.19Z</time></trkpt><trkpt lat="44.1874812" lon="8.083503"><ele>1041.6</ele><time>2026-05-02T08:41:24.204Z</time></trkpt><trkpt lat="44.1875343" lon="8.0834275"><ele>1042.4</ele><time>2026-05-02T08:41:26.197Z</time></trkpt><trkpt lat="44.1875967" lon="8.0832704"><ele>1043.2</ele><time>2026-05-02T08:41:28.189Z</time></trkpt><trkpt lat="44.1876293" lon="8.0831644"><ele>1044.0</ele><time>2026-05-02T08:41:29.189Z</time></trkpt><trkpt lat="44.1876652" lon="8.0830359"><ele>1044.0</ele><time>2026-05-02T08:41:30.19Z</time></trkpt><trkpt lat="44.187708" lon="8.0828944"><ele>1044.0</ele><time>2026-05-02T08:41:31.196Z</time></trkpt><trkpt lat="44.1877581" lon="8.0827642"><ele>1044.0</ele><time>2026-05-02T08:41:32.193Z</time></trkpt><trkpt lat="44.187805" lon="8.0826014"><ele>1044.0</ele><time>2026-05-02T08:41:33.188Z</time></trkpt><trkpt lat="44.1878497" lon="8.0824554"><ele>1048.25</ele><time>2026-05-02T08:41:34.188Z</time></trkpt><trkpt lat="44.1878908" lon="8.0822958"><ele>1052.5</ele><time>2026-05-02T08:41:35.188Z</time></trkpt><trkpt lat="44.1879426" lon="8.0821364"><ele>1056.75</ele><time>2026-05-02T08:41:36.187Z</time></trkpt><trkpt lat="44.1879934" lon="8.0819947"><ele>1061.0</ele><time>2026-05-02T08:41:37.191Z</time></trkpt><trkpt lat="44.1880416" lon="8.0818846"><ele>1061.0</ele><time>2026-05-02T08:41:38.188Z</time></trkpt><trkpt lat="44.1881023" lon="8.0817571"><ele>1061.0</ele><time>2026-05-02T08:41:39.197Z</time></trkpt><trkpt lat="44.1881443" lon="8.0816253"><ele>1061.0</ele><time>2026-05-02T08:41:40.18Z</time></trkpt><trkpt lat="44.1881637" lon="8.0815164"><ele>1061.0</ele><time>2026-05-02T08:41:41.186Z</time></trkpt><trkpt lat="44.1881643" lon="8.0813961"><ele>1061.0</ele><time>2026-05-02T08:41:42.19Z</time></trkpt><trkpt lat="44.1881661" lon="8.0812923"><ele>1060.5</ele><time>2026-05-02T08:41:43.188Z</time></trkpt><trkpt lat="44.1882195" lon="8.0811878"><ele>1060.0</ele><time>2026-05-02T08:41:45.187Z</time></trkpt><trkpt lat="44.188301" lon="8.081205"><ele>1059.5</ele><time>2026-05-02T08:41:47.182Z</time></trkpt><trkpt lat="44.1883697" lon="8.0812474"><ele>1059.0</ele><time>2026-05-02T08:41:48.182Z</time></trkpt><trkpt lat="44.1884679" lon="8.0813398"><ele>1058.5</ele><time>2026-05-02T08:41:50.18Z</time></trkpt><trkpt lat="44.1885107" lon="8.0814064"><ele>1058.0</ele><time>2026-05-02T08:41:51.186Z</time></trkpt><trkpt lat="44.1885886" lon="8.0814441"><ele>1058.0</ele><time>2026-05-02T08:41:52.188Z</time></trkpt><trkpt lat="44.1886808" lon="8.0814695"><ele>1058.0</ele><time>2026-05-02T08:41:53.195Z</time></trkpt><trkpt lat="44.1887848" lon="8.0814932"><ele>1058.0</ele><time>2026-05-02T08:41:54.193Z</time></trkpt><trkpt lat="44.1888885" lon="8.0814956"><ele>1058.0</ele><time>2026-05-02T08:41:55.19Z</time></trkpt><trkpt lat="44.1889906" lon="8.0814797"><ele>1058.0</ele><time>2026-05-02T08:41:56.187Z</time></trkpt><trkpt lat="44.1890599" lon="8.0814503"><ele>1054.0</ele><time>2026-05-02T08:41:57.193Z</time></trkpt><trkpt lat="44.1891144" lon="8.0813218"><ele>1050.0</ele><time>2026-05-02T08:41:59.184Z</time></trkpt><trkpt lat="44.1891528" lon="8.0811601"><ele>1046.0</ele><time>2026-05-02T08:42:01.195Z</time></trkpt><trkpt lat="44.1891855" lon="8.0810715"><ele>1042.0</ele><time>2026-05-02T08:42:02.183Z</time></trkpt><trkpt lat="44.1892174" lon="8.0809909"><ele>1038.0</ele><time>2026-05-02T08:42:03.19Z</time></trkpt><trkpt lat="44.189261" lon="8.0808946"><ele>1034.0</ele><time>2026-05-02T08:42:04.189Z</time></trkpt><trkpt lat="44.1893086" lon="8.0808022"><ele>1040.0</ele><time>2026-05-02T08:42:05.184Z</time></trkpt><trkpt lat="44.1893555" lon="8.0807019"><ele>1046.0</ele><time>2026-05-02T08:42:06.185Z</time></trkpt><trkpt lat="44.1894219" lon="8.0806079"><ele>1052.0</ele><time>2026-05-02T08:42:07.188Z</time></trkpt><trkpt lat="44.1895107" lon="8.0805152"><ele>1058.0</ele><time>2026-05-02T08:42:08.185Z</time></trkpt><trkpt lat="44.1895922" lon="8.0804314"><ele>1064.0</ele><time>2026-05-02T08:42:09.188Z</time></trkpt><trkpt lat="44.1896903" lon="8.0803625"><ele>1064.0</ele><time>2026-05-02T08:42:10.19Z</time></trkpt><trkpt lat="44.1897776" lon="8.0802934"><ele>1064.0</ele><time>2026-05-02T08:42:11.185Z</time></trkpt><trkpt lat="44.1898621" lon="8.0802013"><ele>1064.0</ele><time>2026-05-02T08:42:12.187Z</time></trkpt><trkpt lat="44.1899452" lon="8.0800979"><ele>1064.0</ele><time>2026-05-02T08:42:13.191Z</time></trkpt><trkpt lat="44.1900412" lon="8.0799929"><ele>1064.0</ele><time>2026-05-02T08:42:14.19Z</time></trkpt><trkpt lat="44.1901236" lon="8.0799012"><ele>1061.6666666666667</ele><time>2026-05-02T08:42:15.188Z</time></trkpt><trkpt lat="44.1901715" lon="8.0798327"><ele>1059.3333333333335</ele><time>2026-05-02T08:42:16.19Z</time></trkpt><trkpt lat="44.1902136" lon="8.0797442"><ele>1057.0</ele><time>2026-05-02T08:42:17.189Z</time></trkpt><trkpt lat="44.190244" lon="8.0796468"><ele>1054.6666666666667</ele><time>2026-05-02T08:42:18.176Z</time></trkpt><trkpt lat="44.1902668" lon="8.0795403"><ele>1052.3333333333333</ele><time>2026-05-02T08:42:19.177Z</time></trkpt><trkpt lat="44.190278" lon="8.0794189"><ele>1050.0</ele><time>2026-05-02T08:42:20.181Z</time></trkpt><trkpt lat="44.1902912" lon="8.079297"><ele>1050.0</ele><time>2026-05-02T08:42:21.184Z</time></trkpt><trkpt lat="44.1902998" lon="8.0791984"><ele>1050.0</ele><time>2026-05-02T08:42:22.191Z</time></trkpt><trkpt lat="44.1903705" lon="8.0790805"><ele>1050.0</ele><time>2026-05-02T08:42:24.186Z</time></trkpt><trkpt lat="44.1904618" lon="8.0790764"><ele>1050.0</ele><time>2026-05-02T08:42:26.177Z</time></trkpt><trkpt lat="44.1905238" lon="8.0791092"><ele>1050.0</ele><time>2026-05-02T08:42:27.185Z</time></trkpt><trkpt lat="44.1906024" lon="8.0791666"><ele>1050.0</ele><time>2026-05-02T08:42:28.184Z</time></trkpt><trkpt lat="44.1906921" lon="8.0792357"><ele>1048.6</ele><time>2026-05-02T08:42:29.187Z</time></trkpt><trkpt lat="44.1907733" lon="8.0793147"><ele>1047.2</ele><time>2026-05-02T08:42:30.193Z</time></trkpt><trkpt lat="44.1908606" lon="8.0793973"><ele>1045.8</ele><time>2026-05-02T08:42:31.198Z</time></trkpt><trkpt lat="44.1909186" lon="8.0795054"><ele>1044.4</ele><time>2026-05-02T08:42:32.194Z</time></trkpt><trkpt lat="44.1909625" lon="8.0795993"><ele>1043.0</ele><time>2026-05-02T08:42:33.194Z</time></trkpt><trkpt lat="44.1910218" lon="8.0796783"><ele>1043.0</ele><time>2026-05-02T08:42:34.196Z</time></trkpt><trkpt lat="44.1910778" lon="8.0797858"><ele>1043.0</ele><time>2026-05-02T08:42:35.192Z</time></trkpt><trkpt lat="44.191123" lon="8.0799037"><ele>1043.0</ele><time>2026-05-02T08:42:36.2Z</time></trkpt><trkpt lat="44.1911804" lon="8.0800339"><ele>1043.0</ele><time>2026-05-02T08:42:37.199Z</time></trkpt><trkpt lat="44.1912207" lon="8.0801804"><ele>1043.0</ele><time>2026-05-02T08:42:38.197Z</time></trkpt><trkpt lat="44.1912541" lon="8.0803414"><ele>1038.5</ele><time>2026-05-02T08:42:39.197Z</time></trkpt><trkpt lat="44.1912726" lon="8.0805027"><ele>1034.0</ele><time>2026-05-02T08:42:40.189Z</time></trkpt><trkpt lat="44.1912777" lon="8.0806874"><ele>1029.5</ele><time>2026-05-02T08:42:41.192Z</time></trkpt><trkpt lat="44.1912747" lon="8.0808534"><ele>1025.0</ele><time>2026-05-02T08:42:42.187Z</time></trkpt><trkpt lat="44.1912736" lon="8.0810093"><ele>1021.4</ele><time>2026-05-02T08:42:43.186Z</time></trkpt><trkpt lat="44.1912737" lon="8.0811447"><ele>1017.8</ele><time>2026-05-02T08:42:44.192Z</time></trkpt><trkpt lat="44.1912838" lon="8.0812873"><ele>1014.2</ele><time>2026-05-02T08:42:45.194Z</time></trkpt><trkpt lat="44.1913001" lon="8.0814254"><ele>1010.6</ele><time>2026-05-02T08:42:46.193Z</time></trkpt><trkpt lat="44.1913113" lon="8.0815542"><ele>1007.0</ele><time>2026-05-02T08:42:47.188Z</time></trkpt><trkpt lat="44.1913172" lon="8.0816909"><ele>1007.8</ele><time>2026-05-02T08:42:48.192Z</time></trkpt><trkpt lat="44.1913451" lon="8.0818043"><ele>1008.6</ele><time>2026-05-02T08:42:49.2Z</time></trkpt><trkpt lat="44.1913942" lon="8.0819135"><ele>1009.3999999999999</ele><time>2026-05-02T08:42:50.191Z</time></trkpt><trkpt lat="44.191463" lon="8.0820329"><ele>1010.1999999999999</ele><time>2026-05-02T08:42:51.197Z</time></trkpt><trkpt lat="44.1915456" lon="8.0821178"><ele>1011.0</ele><time>2026-05-02T08:42:52.197Z</time></trkpt><trkpt lat="44.191651" lon="8.0821486"><ele>1011.0</ele><time>2026-05-02T08:42:53.199Z</time></trkpt><trkpt lat="44.1917637" lon="8.0821708"><ele>1011.0</ele><time>2026-05-02T08:42:54.189Z</time></trkpt><trkpt lat="44.1918718" lon="8.0821699"><ele>1011.0</ele><time>2026-05-02T08:42:55.202Z</time></trkpt><trkpt lat="44.1919945" lon="8.0821547"><ele>1011.0</ele><time>2026-05-02T08:42:56.196Z</time></trkpt><trkpt lat="44.1921143" lon="8.0821298"><ele>1011.0</ele><time>2026-05-02T08:42:57.204Z</time></trkpt><trkpt lat="44.1922399" lon="8.0820949"><ele>1011.0</ele><time>2026-05-02T08:42:58.197Z</time></trkpt><trkpt lat="44.1923606" lon="8.08206"><ele>1011.0</ele><time>2026-05-02T08:42:59.192Z</time></trkpt><trkpt lat="44.1924733" lon="8.082018"><ele>1011.0</ele><time>2026-05-02T08:43:00.203Z</time></trkpt><trkpt lat="44.1925763" lon="8.0819537"><ele>1009.5999999999999</ele><time>2026-05-02T08:43:01.203Z</time></trkpt><trkpt lat="44.192663" lon="8.0818785"><ele>1008.1999999999999</ele><time>2026-05-02T08:43:02.206Z</time></trkpt><trkpt lat="44.1927112" lon="8.0817783"><ele>1006.8000000000001</ele><time>2026-05-02T08:43:03.204Z</time></trkpt><trkpt lat="44.1927465" lon="8.0816638"><ele>1005.4000000000001</ele><time>2026-05-02T08:43:04.205Z</time></trkpt><trkpt lat="44.192763" lon="8.0815417"><ele>1004.0</ele><time>2026-05-02T08:43:05.2Z</time></trkpt><trkpt lat="44.1927649" lon="8.0814137"><ele>1004.0</ele><time>2026-05-02T08:43:06.198Z</time></trkpt><trkpt lat="44.1927494" lon="8.081294"><ele>1004.0000000000001</ele><time>2026-05-02T08:43:07.199Z</time></trkpt><trkpt lat="44.19272" lon="8.0811733"><ele>1004.0000000000001</ele><time>2026-05-02T08:43:08.199Z</time></trkpt><trkpt lat="44.1926697" lon="8.0810522"><ele>1004.0</ele><time>2026-05-02T08:43:09.198Z</time></trkpt><trkpt lat="44.1926236" lon="8.080932"><ele>1004.0</ele><time>2026-05-02T08:43:10.192Z</time></trkpt><trkpt lat="44.192603" lon="8.0808035"><ele>1004.6666666666667</ele><time>2026-05-02T08:43:11.19Z</time></trkpt><trkpt lat="44.1925978" lon="8.0806904"><ele>1005.3333333333334</ele><time>2026-05-02T08:43:12.202Z</time></trkpt><trkpt lat="44.1926233" lon="8.0805993"><ele>1006.0</ele><time>2026-05-02T08:43:13.197Z</time></trkpt><trkpt lat="44.1926742" lon="8.0805035"><ele>1006.6666666666667</ele><time>2026-05-02T08:43:14.202Z</time></trkpt><trkpt lat="44.1927331" lon="8.0803873"><ele>1007.3333333333334</ele><time>2026-05-02T08:43:15.193Z</time></trkpt><trkpt lat="44.1927904" lon="8.0802636"><ele>1008.0</ele><time>2026-05-02T08:43:16.194Z</time></trkpt><trkpt lat="44.1928291" lon="8.0801451"><ele>1008.0</ele><time>2026-05-02T08:43:17.196Z</time></trkpt><trkpt lat="44.1928597" lon="8.0800386"><ele>1008.0</ele><time>2026-05-02T08:43:18.198Z</time></trkpt><trkpt lat="44.192877" lon="8.0799409"><ele>1008.0</ele><time>2026-05-02T08:43:19.197Z</time></trkpt><trkpt lat="44.1928628" lon="8.0798462"><ele>1008.0</ele><time>2026-05-02T08:43:20.196Z</time></trkpt><trkpt lat="44.1928568" lon="8.0797387"><ele>1008.0</ele><time>2026-05-02T08:43:21.196Z</time></trkpt><trkpt lat="44.1928209" lon="8.0796325"><ele>1008.0</ele><time>2026-05-02T08:43:22.2Z</time></trkpt><trkpt lat="44.1927736" lon="8.0795201"><ele>1008.5</ele><time>2026-05-02T08:43:23.197Z</time></trkpt><trkpt lat="44.1927191" lon="8.0793938"><ele>1009.0</ele><time>2026-05-02T08:43:24.192Z</time></trkpt><trkpt lat="44.19266" lon="8.0792608"><ele>1009.5</ele><time>2026-05-02T08:43:25.194Z</time></trkpt><trkpt lat="44.1925905" lon="8.0791226"><ele>1010.0</ele><time>2026-05-02T08:43:26.193Z</time></trkpt><trkpt lat="44.1925351" lon="8.0789779"><ele>1010.0</ele><time>2026-05-02T08:43:27.189Z</time></trkpt><trkpt lat="44.1924884" lon="8.0788439"><ele>1010.0</ele><time>2026-05-02T08:43:28.184Z</time></trkpt><trkpt lat="44.1924534" lon="8.078704"><ele>1010.0</ele><time>2026-05-02T08:43:29.193Z</time></trkpt><trkpt lat="44.1924241" lon="8.0785708"><ele>1010.0</ele><time>2026-05-02T08:43:30.187Z</time></trkpt><trkpt lat="44.1924182" lon="8.0784595"><ele>1010.0</ele><time>2026-05-02T08:43:31.179Z</time></trkpt><trkpt lat="44.1924175" lon="8.0783597"><ele>1010.0</ele><time>2026-05-02T08:43:32.188Z</time></trkpt><trkpt lat="44.1924846" lon="8.078291"><ele>1010.0</ele><time>2026-05-02T08:43:34.183Z</time></trkpt><trkpt lat="44.192563" lon="8.0782714"><ele>1010.0</ele><time>2026-05-02T08:43:35.185Z</time></trkpt><trkpt lat="44.192655" lon="8.0782536"><ele>1010.0</ele><time>2026-05-02T08:43:36.186Z</time></trkpt><trkpt lat="44.1927854" lon="8.0782771"><ele>1010.0</ele><time>2026-05-02T08:43:37.187Z</time></trkpt><trkpt lat="44.1929645" lon="8.0783026"><ele>1010.0</ele><time>2026-05-02T08:43:38.19Z</time></trkpt><trkpt lat="44.1931426" lon="8.0783441"><ele>1010.0</ele><time>2026-05-02T08:43:39.183Z</time></trkpt><trkpt lat="44.1932878" lon="8.0783944"><ele>1010.0</ele><time>2026-05-02T08:43:40.19Z</time></trkpt><trkpt lat="44.1934597" lon="8.0784193"><ele>1011.0</ele><time>2026-05-02T08:43:41.19Z</time></trkpt><trkpt lat="44.1936386" lon="8.0784444"><ele>1012.0</ele><time>2026-05-02T08:43:42.19Z</time></trkpt><trkpt lat="44.1938223" lon="8.0784678"><ele>1013.0</ele><time>2026-05-02T08:43:43.196Z</time></trkpt><trkpt lat="44.1939861" lon="8.0784701"><ele>1013.25</ele><time>2026-05-02T08:43:44.2Z</time></trkpt><trkpt lat="44.1941387" lon="8.0784505"><ele>1013.5</ele><time>2026-05-02T08:43:45.194Z</time></trkpt><trkpt lat="44.1942411" lon="8.0783929"><ele>1013.75</ele><time>2026-05-02T08:43:46.193Z</time></trkpt><trkpt lat="44.1943504" lon="8.0783149"><ele>1014.0</ele><time>2026-05-02T08:43:47.196Z</time></trkpt><trkpt lat="44.1944188" lon="8.0782143"><ele>1017.8333333333334</ele><time>2026-05-02T08:43:48.189Z</time></trkpt><trkpt lat="44.1944692" lon="8.0781033"><ele>1021.6666666666667</ele><time>2026-05-02T08:43:49.193Z</time></trkpt><trkpt lat="44.1945053" lon="8.0780019"><ele>1025.5</ele><time>2026-05-02T08:43:50.189Z</time></trkpt><trkpt lat="44.1945266" lon="8.0778975"><ele>1029.3333333333335</ele><time>2026-05-02T08:43:51.184Z</time></trkpt><trkpt lat="44.1945356" lon="8.077788"><ele>1033.1666666666667</ele><time>2026-05-02T08:43:52.192Z</time></trkpt><trkpt lat="44.1945339" lon="8.0776701"><ele>1037.0</ele><time>2026-05-02T08:43:53.191Z</time></trkpt><trkpt lat="44.1945307" lon="8.0775556"><ele>1037.0</ele><time>2026-05-02T08:43:54.186Z</time></trkpt><trkpt lat="44.1945228" lon="8.0774368"><ele>1037.0</ele><time>2026-05-02T08:43:55.187Z</time></trkpt><trkpt lat="44.194538" lon="8.0773146"><ele>1037.0</ele><time>2026-05-02T08:43:56.184Z</time></trkpt><trkpt lat="44.1945545" lon="8.0771751"><ele>1037.0</ele><time>2026-05-02T08:43:57.192Z</time></trkpt><trkpt lat="44.1945681" lon="8.0770338"><ele>1037.0</ele><time>2026-05-02T08:43:58.191Z</time></trkpt><trkpt lat="44.194565" lon="8.0769044"><ele>1039.6666666666667</ele><time>2026-05-02T08:43:59.192Z</time></trkpt><trkpt lat="44.1945598" lon="8.0767819"><ele>1042.3333333333335</ele><time>2026-05-02T08:44:00.188Z</time></trkpt><trkpt lat="44.1945383" lon="8.0766616"><ele>1045.0</ele><time>2026-05-02T08:44:01.196Z</time></trkpt><trkpt lat="44.1945027" lon="8.076549"><ele>1047.6666666666667</ele><time>2026-05-02T08:44:02.192Z</time></trkpt><trkpt lat="44.1944668" lon="8.0764597"><ele>1050.3333333333333</ele><time>2026-05-02T08:44:03.192Z</time></trkpt><trkpt lat="44.1944303" lon="8.0763865"><ele>1053.0</ele><time>2026-05-02T08:44:04.198Z</time></trkpt><trkpt lat="44.1943843" lon="8.076242"><ele>1055.1666666666667</ele><time>2026-05-02T08:44:06.194Z</time></trkpt><trkpt lat="44.1944361" lon="8.0761266"><ele>1057.3333333333333</ele><time>2026-05-02T08:44:08.198Z</time></trkpt><trkpt lat="44.1944909" lon="8.0760772"><ele>1059.5</ele><time>2026-05-02T08:44:09.193Z</time></trkpt><trkpt lat="44.1945569" lon="8.0760295"><ele>1061.6666666666665</ele><time>2026-05-02T08:44:10.186Z</time></trkpt><trkpt lat="44.1946427" lon="8.0759731"><ele>1063.8333333333333</ele><time>2026-05-02T08:44:11.187Z</time></trkpt><trkpt lat="44.1947124" lon="8.0759077"><ele>1066.0</ele><time>2026-05-02T08:44:12.188Z</time></trkpt><trkpt lat="44.1947578" lon="8.0758364"><ele>1064.5</ele><time>2026-05-02T08:44:13.189Z</time></trkpt><trkpt lat="44.1947954" lon="8.0757423"><ele>1063.0</ele><time>2026-05-02T08:44:14.192Z</time></trkpt><trkpt lat="44.1948158" lon="8.0756325"><ele>1061.5</ele><time>2026-05-02T08:44:15.187Z</time></trkpt><trkpt lat="44.1948233" lon="8.0755228"><ele>1060.0</ele><time>2026-05-02T08:44:16.196Z</time></trkpt><trkpt lat="44.1948269" lon="8.0754223"><ele>1058.5</ele><time>2026-05-02T08:44:17.19Z</time></trkpt><trkpt lat="44.1948317" lon="8.075311"><ele>1057.0</ele><time>2026-05-02T08:44:18.191Z</time></trkpt><trkpt lat="44.1948486" lon="8.0752218"><ele>1057.0</ele><time>2026-05-02T08:44:19.187Z</time></trkpt><trkpt lat="44.1948802" lon="8.0751343"><ele>1057.0</ele><time>2026-05-02T08:44:20.191Z</time></trkpt><trkpt lat="44.1949327" lon="8.0750562"><ele>1057.0</ele><time>2026-05-02T08:44:21.187Z</time></trkpt><trkpt lat="44.1949869" lon="8.0749759"><ele>1057.0</ele><time>2026-05-02T08:44:22.194Z</time></trkpt><trkpt lat="44.1950343" lon="8.0748961"><ele>1057.0</ele><time>2026-05-02T08:44:23.191Z</time></trkpt><trkpt lat="44.1950918" lon="8.0748407"><ele>1057.0</ele><time>2026-05-02T08:44:24.197Z</time></trkpt><trkpt lat="44.1951997" lon="8.0748265"><ele>1057.0</ele><time>2026-05-02T08:44:26.19Z</time></trkpt><trkpt lat="44.1952864" lon="8.0748971"><ele>1057.0</ele><time>2026-05-02T08:44:27.182Z</time></trkpt><trkpt lat="44.1953768" lon="8.0749918"><ele>1057.0</ele><time>2026-05-02T08:44:28.186Z</time></trkpt><trkpt lat="44.1954793" lon="8.0750898"><ele>1057.0</ele><time>2026-05-02T08:44:29.187Z</time></trkpt><trkpt lat="44.1955787" lon="8.0751859"><ele>1057.0</ele><time>2026-05-02T08:44:30.189Z</time></trkpt><trkpt lat="44.195658" lon="8.0752563"><ele>1057.0</ele><time>2026-05-02T08:44:31.188Z</time></trkpt><trkpt lat="44.1957283" lon="8.0752993"><ele>1057.0</ele><time>2026-05-02T08:44:32.187Z</time></trkpt><trkpt lat="44.1957931" lon="8.075318"><ele>1057.0</ele><time>2026-05-02T08:44:33.191Z</time></trkpt><trkpt lat="44.1959184" lon="8.0752673"><ele>1057.0</ele><time>2026-05-02T08:44:35.191Z</time></trkpt><trkpt lat="44.1959646" lon="8.0751944"><ele>1057.0</ele><time>2026-05-02T08:44:36.191Z</time></trkpt><trkpt lat="44.1960112" lon="8.0751225"><ele>1057.3333333333333</ele><time>2026-05-02T08:44:37.189Z</time></trkpt><trkpt lat="44.1961257" lon="8.0750827"><ele>1057.6666666666665</ele><time>2026-05-02T08:44:39.192Z</time></trkpt><trkpt lat="44.1961875" lon="8.075103"><ele>1058.0</ele><time>2026-05-02T08:44:40.188Z</time></trkpt><trkpt lat="44.1962461" lon="8.0751388"><ele>1058.3333333333333</ele><time>2026-05-02T08:44:41.18Z</time></trkpt><trkpt lat="44.1963092" lon="8.0751741"><ele>1058.6666666666667</ele><time>2026-05-02T08:44:42.185Z</time></trkpt><trkpt lat="44.1963686" lon="8.0752088"><ele>1059.0</ele><time>2026-05-02T08:44:43.188Z</time></trkpt><trkpt lat="44.1964387" lon="8.0752526"><ele>1060.4</ele><time>2026-05-02T08:44:44.186Z</time></trkpt><trkpt lat="44.1965423" lon="8.0753464"><ele>1061.8000000000002</ele><time>2026-05-02T08:44:46.184Z</time></trkpt><trkpt lat="44.1965986" lon="8.0754972"><ele>1063.1999999999998</ele><time>2026-05-02T08:44:48.185Z</time></trkpt><trkpt lat="44.196616" lon="8.075591"><ele>1064.6</ele><time>2026-05-02T08:44:49.194Z</time></trkpt><trkpt lat="44.1966673" lon="8.0756917"><ele>1066.0</ele><time>2026-05-02T08:44:51.187Z</time></trkpt><trkpt lat="44.1966947" lon="8.0757742"><ele>1066.0</ele><time>2026-05-02T08:44:53.188Z</time></trkpt><trkpt lat="44.1968043" lon="8.0757601"><ele>1066.0</ele><time>2026-05-02T08:44:55.189Z</time></trkpt><trkpt lat="44.1968731" lon="8.0757349"><ele>1066.0</ele><time>2026-05-02T08:44:56.195Z</time></trkpt><trkpt lat="44.1969747" lon="8.0756899"><ele>1066.0</ele><time>2026-05-02T08:44:57.191Z</time></trkpt><trkpt lat="44.1970849" lon="8.0756335"><ele>1066.0</ele><time>2026-05-02T08:44:58.197Z</time></trkpt><trkpt lat="44.1972056" lon="8.0755977"><ele>1066.0</ele><time>2026-05-02T08:44:59.204Z</time></trkpt><trkpt lat="44.197317" lon="8.0755849"><ele>1066.0</ele><time>2026-05-02T08:45:00.202Z</time></trkpt><trkpt lat="44.1974229" lon="8.0756008"><ele>1066.0</ele><time>2026-05-02T08:45:01.198Z</time></trkpt><trkpt lat="44.1975457" lon="8.0756392"><ele>1066.0</ele><time>2026-05-02T08:45:02.192Z</time></trkpt><trkpt lat="44.1976696" lon="8.0757124"><ele>1064.25</ele><time>2026-05-02T08:45:03.19Z</time></trkpt><trkpt lat="44.1978012" lon="8.0758028"><ele>1062.5</ele><time>2026-05-02T08:45:04.19Z</time></trkpt><trkpt lat="44.1979288" lon="8.0758973"><ele>1060.75</ele><time>2026-05-02T08:45:05.187Z</time></trkpt><trkpt lat="44.1980474" lon="8.075988"><ele>1059.0</ele><time>2026-05-02T08:45:06.192Z</time></trkpt><trkpt lat="44.1981535" lon="8.0760686"><ele>1061.4</ele><time>2026-05-02T08:45:07.191Z</time></trkpt><trkpt lat="44.1982588" lon="8.0761331"><ele>1063.8000000000002</ele><time>2026-05-02T08:45:08.191Z</time></trkpt><trkpt lat="44.1983743" lon="8.0761663"><ele>1066.1999999999998</ele><time>2026-05-02T08:45:09.19Z</time></trkpt><trkpt lat="44.1984622" lon="8.0761897"><ele>1068.6</ele><time>2026-05-02T08:45:10.193Z</time></trkpt><trkpt lat="44.1985459" lon="8.0762245"><ele>1071.0</ele><time>2026-05-02T08:45:11.188Z</time></trkpt><trkpt lat="44.1986287" lon="8.0762685"><ele>1071.0</ele><time>2026-05-02T08:45:12.191Z</time></trkpt><trkpt lat="44.1987175" lon="8.0763277"><ele>1071.0</ele><time>2026-05-02T08:45:13.191Z</time></trkpt><trkpt lat="44.1987975" lon="8.0764168"><ele>1071.0</ele><time>2026-05-02T08:45:14.189Z</time></trkpt><trkpt lat="44.1988769" lon="8.0765426"><ele>1071.0</ele><time>2026-05-02T08:45:15.19Z</time></trkpt><trkpt lat="44.198955" lon="8.0766869"><ele>1073.0</ele><time>2026-05-02T08:45:16.186Z</time></trkpt><trkpt lat="44.1990424" lon="8.0768381"><ele>1075.0</ele><time>2026-05-02T08:45:17.186Z</time></trkpt><trkpt lat="44.1991309" lon="8.076987"><ele>1077.0</ele><time>2026-05-02T08:45:18.19Z</time></trkpt><trkpt lat="44.1992274" lon="8.0771312"><ele>1079.0</ele><time>2026-05-02T08:45:19.183Z</time></trkpt><trkpt lat="44.1993168" lon="8.0772665"><ele>1079.0</ele><time>2026-05-02T08:45:20.182Z</time></trkpt><trkpt lat="44.1994079" lon="8.0773894"><ele>1079.0</ele><time>2026-05-02T08:45:21.192Z</time></trkpt><trkpt lat="44.1994966" lon="8.0775028"><ele>1079.0</ele><time>2026-05-02T08:45:22.187Z</time></trkpt><trkpt lat="44.1995918" lon="8.0775961"><ele>1079.0</ele><time>2026-05-02T08:45:23.192Z</time></trkpt><trkpt lat="44.1996933" lon="8.0776636"><ele>1081.0</ele><time>2026-05-02T08:45:24.192Z</time></trkpt><trkpt lat="44.1997996" lon="8.0777148"><ele>1083.0</ele><time>2026-05-02T08:45:25.188Z</time></trkpt><trkpt lat="44.199902" lon="8.0777763"><ele>1085.0</ele><time>2026-05-02T08:45:26.183Z</time></trkpt><trkpt lat="44.199982" lon="8.0778407"><ele>1087.0</ele><time>2026-05-02T08:45:27.191Z</time></trkpt><trkpt lat="44.200033" lon="8.0779037"><ele>1089.0</ele><time>2026-05-02T08:45:28.193Z</time></trkpt><trkpt lat="44.2000282" lon="8.0778085"><ele>1089.0</ele><time>2026-05-02T08:45:36.192Z</time></trkpt><trkpt lat="44.1999731" lon="8.0777113"><ele>1089.0</ele><time>2026-05-02T08:45:38.188Z</time></trkpt><trkpt lat="44.1999125" lon="8.0776336"><ele>1089.0</ele><time>2026-05-02T08:47:08.2Z</time></trkpt><trkpt lat="44.1998195" lon="8.077547"><ele>1089.0</ele><time>2026-05-02T08:47:11.206Z</time></trkpt><trkpt lat="44.1997512" lon="8.0774465"><ele>1089.0</ele><time>2026-05-02T08:47:12.196Z</time></trkpt><trkpt lat="44.1996783" lon="8.0772835"><ele>1085.6666666666667</ele><time>2026-05-02T08:47:13.187Z</time></trkpt><trkpt lat="44.199584" lon="8.077091"><ele>1082.3333333333335</ele><time>2026-05-02T08:47:14.193Z</time></trkpt><trkpt lat="44.1995004" lon="8.0768848"><ele>1079.0</ele><time>2026-05-02T08:47:15.186Z</time></trkpt><trkpt lat="44.1994305" lon="8.0766563"><ele>1083.6666666666667</ele><time>2026-05-02T08:47:16.195Z</time></trkpt><trkpt lat="44.1993751" lon="8.0764252"><ele>1088.3333333333333</ele><time>2026-05-02T08:47:17.188Z</time></trkpt><trkpt lat="44.1993179" lon="8.0762297"><ele>1093.0</ele><time>2026-05-02T08:47:18.19Z</time></trkpt><trkpt lat="44.1992722" lon="8.0760495"><ele>1093.0</ele><time>2026-05-02T08:47:19.201Z</time></trkpt><trkpt lat="44.1992484" lon="8.0759368"><ele>1093.0</ele><time>2026-05-02T08:47:20.198Z</time></trkpt><trkpt lat="44.1992571" lon="8.0758408"><ele>1093.0</ele><time>2026-05-02T08:47:21.2Z</time></trkpt><trkpt lat="44.1993582" lon="8.0758772"><ele>1093.0</ele><time>2026-05-02T08:47:23.197Z</time></trkpt><trkpt lat="44.1994103" lon="8.0759549"><ele>1093.0</ele><time>2026-05-02T08:47:24.207Z</time></trkpt><trkpt lat="44.1994567" lon="8.0760572"><ele>1093.0</ele><time>2026-05-02T08:47:25.2Z</time></trkpt><trkpt lat="44.1994924" lon="8.0761647"><ele>1093.0</ele><time>2026-05-02T08:47:26.2Z</time></trkpt><trkpt lat="44.1995305" lon="8.0762379"><ele>1093.0</ele><time>2026-05-02T08:47:27.198Z</time></trkpt><trkpt lat="44.1996079" lon="8.076307"><ele>1093.0</ele><time>2026-05-02T08:47:29.204Z</time></trkpt><trkpt lat="44.1996738" lon="8.0763155"><ele>1093.0</ele><time>2026-05-02T08:47:31.211Z</time></trkpt><trkpt lat="44.1997382" lon="8.0763549"><ele>1093.0</ele><time>2026-05-02T08:47:34.204Z</time></trkpt><trkpt lat="44.1998129" lon="8.0764112"><ele>1093.0</ele><time>2026-05-02T08:48:22.198Z</time></trkpt><trkpt lat="44.199901" lon="8.0764965"><ele>1092.8</ele><time>2026-05-02T08:48:24.199Z</time></trkpt><trkpt lat="44.1999931" lon="8.0766329"><ele>1092.6</ele><time>2026-05-02T08:48:26.19Z</time></trkpt><trkpt lat="44.2000514" lon="8.0767208"><ele>1092.4</ele><time>2026-05-02T08:48:27.192Z</time></trkpt><trkpt lat="44.2001049" lon="8.0768153"><ele>1092.2</ele><time>2026-05-02T08:48:28.186Z</time></trkpt><trkpt lat="44.2001539" lon="8.0768899"><ele>1092.0</ele><time>2026-05-02T08:48:29.188Z</time></trkpt><trkpt lat="44.2002022" lon="8.0769618"><ele>1092.0</ele><time>2026-05-02T08:48:30.199Z</time></trkpt><trkpt lat="44.2002469" lon="8.0770269"><ele>1092.0</ele><time>2026-05-02T08:48:31.195Z</time></trkpt><trkpt lat="44.2002956" lon="8.0770883"><ele>1092.0</ele><time>2026-05-02T08:48:32.193Z</time></trkpt><trkpt lat="44.2003533" lon="8.0771582"><ele>1092.0</ele><time>2026-05-02T08:48:33.19Z</time></trkpt><trkpt lat="44.2004199" lon="8.0772189"><ele>1092.0</ele><time>2026-05-02T08:48:34.195Z</time></trkpt><trkpt lat="44.2004903" lon="8.0772771"><ele>1092.0</ele><time>2026-05-02T08:48:35.19Z</time></trkpt><trkpt lat="44.2005666" lon="8.0773278"><ele>1092.0</ele><time>2026-05-02T08:48:36.191Z</time></trkpt><trkpt lat="44.2006489" lon="8.0773672"><ele>1092.0</ele><time>2026-05-02T08:48:37.187Z</time></trkpt><trkpt lat="44.2007302" lon="8.077392"><ele>1092.0</ele><time>2026-05-02T08:48:38.188Z</time></trkpt><trkpt lat="44.2008167" lon="8.0774242"><ele>1092.0</ele><time>2026-05-02T08:48:39.186Z</time></trkpt><trkpt lat="44.2009046" lon="8.0774676"><ele>1092.0</ele><time>2026-05-02T08:48:40.191Z</time></trkpt><trkpt lat="44.2009911" lon="8.0775164"><ele>1092.0</ele><time>2026-05-02T08:48:41.19Z</time></trkpt><trkpt lat="44.2010723" lon="8.0775695"><ele>1093.6</ele><time>2026-05-02T08:48:42.196Z</time></trkpt><trkpt lat="44.2011495" lon="8.0776258"><ele>1095.2</ele><time>2026-05-02T08:48:43.191Z</time></trkpt><trkpt lat="44.2012282" lon="8.0776897"><ele>1096.8</ele><time>2026-05-02T08:48:44.194Z</time></trkpt><trkpt lat="44.2013024" lon="8.0777713"><ele>1098.4</ele><time>2026-05-02T08:48:45.184Z</time></trkpt><trkpt lat="44.2013763" lon="8.0778556"><ele>1100.0</ele><time>2026-05-02T08:48:46.188Z</time></trkpt><trkpt lat="44.2014655" lon="8.0779803"><ele>1099.75</ele><time>2026-05-02T08:48:47.184Z</time></trkpt><trkpt lat="44.2015531" lon="8.0781097"><ele>1099.5</ele><time>2026-05-02T08:48:48.198Z</time></trkpt><trkpt lat="44.2016403" lon="8.0782395"><ele>1099.25</ele><time>2026-05-02T08:48:49.191Z</time></trkpt><trkpt lat="44.2017162" lon="8.0783558"><ele>1099.0</ele><time>2026-05-02T08:48:50.195Z</time></trkpt><trkpt lat="44.2017822" lon="8.0784521"><ele>1099.0</ele><time>2026-05-02T08:48:51.196Z</time></trkpt><trkpt lat="44.2018629" lon="8.0785324"><ele>1099.0</ele><time>2026-05-02T08:48:52.198Z</time></trkpt><trkpt lat="44.2019383" lon="8.078616"><ele>1099.0</ele><time>2026-05-02T08:48:53.192Z</time></trkpt><trkpt lat="44.2020294" lon="8.0786985"><ele>1099.0</ele><time>2026-05-02T08:48:54.206Z</time></trkpt><trkpt lat="44.2021339" lon="8.0787956"><ele>1099.0</ele><time>2026-05-02T08:48:55.205Z</time></trkpt><trkpt lat="44.2022411" lon="8.0788882"><ele>1098.75</ele><time>2026-05-02T08:48:56.203Z</time></trkpt><trkpt lat="44.202342" lon="8.0789789"><ele>1098.5</ele><time>2026-05-02T08:48:57.195Z</time></trkpt><trkpt lat="44.2024391" lon="8.0790676"><ele>1098.25</ele><time>2026-05-02T08:48:58.198Z</time></trkpt><trkpt lat="44.2025376" lon="8.0791616"><ele>1098.0</ele><time>2026-05-02T08:48:59.194Z</time></trkpt><trkpt lat="44.2026352" lon="8.0792542"><ele>1101.5</ele><time>2026-05-02T08:49:00.2Z</time></trkpt><trkpt lat="44.20273" lon="8.0793623"><ele>1105.0</ele><time>2026-05-02T08:49:01.197Z</time></trkpt><trkpt lat="44.2028167" lon="8.079477"><ele>1108.5</ele><time>2026-05-02T08:49:02.19Z</time></trkpt><trkpt lat="44.2028986" lon="8.0795946"><ele>1112.0</ele><time>2026-05-02T08:49:03.189Z</time></trkpt><trkpt lat="44.2029734" lon="8.0797135"><ele>1112.0</ele><time>2026-05-02T08:49:04.196Z</time></trkpt><trkpt lat="44.2030429" lon="8.0798287"><ele>1112.0</ele><time>2026-05-02T08:49:05.199Z</time></trkpt><trkpt lat="44.2031174" lon="8.0799394"><ele>1112.0</ele><time>2026-05-02T08:49:06.194Z</time></trkpt><trkpt lat="44.2032048" lon="8.080042"><ele>1112.0</ele><time>2026-05-02T08:49:07.193Z</time></trkpt><trkpt lat="44.203289" lon="8.0801405"><ele>1112.0</ele><time>2026-05-02T08:49:08.19Z</time></trkpt><trkpt lat="44.203362" lon="8.0802335"><ele>1114.1666666666667</ele><time>2026-05-02T08:49:09.193Z</time></trkpt><trkpt lat="44.2034258" lon="8.0803261"><ele>1116.3333333333335</ele><time>2026-05-02T08:49:10.197Z</time></trkpt><trkpt lat="44.2034815" lon="8.0804184"><ele>1118.5</ele><time>2026-05-02T08:49:11.196Z</time></trkpt><trkpt lat="44.2035323" lon="8.0805029"><ele>1120.6666666666667</ele><time>2026-05-02T08:49:12.194Z</time></trkpt><trkpt lat="44.2035749" lon="8.0806025"><ele>1122.8333333333333</ele><time>2026-05-02T08:49:13.193Z</time></trkpt><trkpt lat="44.2036257" lon="8.0807026"><ele>1125.0</ele><time>2026-05-02T08:49:14.187Z</time></trkpt><trkpt lat="44.2036763" lon="8.0808288"><ele>1125.2</ele><time>2026-05-02T08:49:15.197Z</time></trkpt><trkpt lat="44.2037337" lon="8.0809504"><ele>1125.4</ele><time>2026-05-02T08:49:16.195Z</time></trkpt><trkpt lat="44.2038039" lon="8.0810697"><ele>1125.6</ele><time>2026-05-02T08:49:17.2Z</time></trkpt><trkpt lat="44.2038679" lon="8.0811856"><ele>1125.8</ele><time>2026-05-02T08:49:18.2Z</time></trkpt><trkpt lat="44.2039245" lon="8.0812811"><ele>1126.0</ele><time>2026-05-02T08:49:19.196Z</time></trkpt><trkpt lat="44.2039827" lon="8.0813689"><ele>1126.8333333333333</ele><time>2026-05-02T08:49:20.192Z</time></trkpt><trkpt lat="44.2040384" lon="8.0814531"><ele>1127.6666666666665</ele><time>2026-05-02T08:49:21.206Z</time></trkpt><trkpt lat="44.2041402" lon="8.0814736"><ele>1128.5</ele><time>2026-05-02T08:49:23.206Z</time></trkpt><trkpt lat="44.2041994" lon="8.0814289"><ele>1129.3333333333333</ele><time>2026-05-02T08:49:24.193Z</time></trkpt><trkpt lat="44.2042665" lon="8.0813652"><ele>1130.1666666666667</ele><time>2026-05-02T08:49:25.206Z</time></trkpt><trkpt lat="44.2043555" lon="8.0813021"><ele>1131.0</ele><time>2026-05-02T08:49:26.202Z</time></trkpt><trkpt lat="44.2044351" lon="8.0812478"><ele>1131.0</ele><time>2026-05-02T08:49:27.203Z</time></trkpt><trkpt lat="44.2045194" lon="8.0811887"><ele>1131.0</ele><time>2026-05-02T08:49:28.19Z</time></trkpt><trkpt lat="44.2046062" lon="8.0811675"><ele>1131.0</ele><time>2026-05-02T08:49:29.197Z</time></trkpt><trkpt lat="44.2047009" lon="8.0811502"><ele>1131.0</ele><time>2026-05-02T08:49:30.183Z</time></trkpt><trkpt lat="44.2048004" lon="8.0811402"><ele>1131.0</ele><time>2026-05-02T08:49:31.19Z</time></trkpt><trkpt lat="44.2049098" lon="8.0811439"><ele>1133.2</ele><time>2026-05-02T08:49:32.182Z</time></trkpt><trkpt lat="44.2050232" lon="8.0811643"><ele>1135.3999999999999</ele><time>2026-05-02T08:49:33.19Z</time></trkpt><trkpt lat="44.2051278" lon="8.0811717"><ele>1137.6</ele><time>2026-05-02T08:49:34.186Z</time></trkpt><trkpt lat="44.2052042" lon="8.0811663"><ele>1139.8</ele><time>2026-05-02T08:49:35.193Z</time></trkpt><trkpt lat="44.2052945" lon="8.0811474"><ele>1142.0</ele><time>2026-05-02T08:49:36.203Z</time></trkpt><trkpt lat="44.2053902" lon="8.0811407"><ele>1142.0</ele><time>2026-05-02T08:49:37.19Z</time></trkpt><trkpt lat="44.2054915" lon="8.0810822"><ele>1142.0</ele><time>2026-05-02T08:49:38.194Z</time></trkpt><trkpt lat="44.2055876" lon="8.0810125"><ele>1142.0</ele><time>2026-05-02T08:49:39.189Z</time></trkpt><trkpt lat="44.2056681" lon="8.0809278"><ele>1142.0</ele><time>2026-05-02T08:49:40.187Z</time></trkpt><trkpt lat="44.2057405" lon="8.0808756"><ele>1142.0</ele><time>2026-05-02T08:49:41.188Z</time></trkpt><trkpt lat="44.2058037" lon="8.0808518"><ele>1143.0</ele><time>2026-05-02T08:49:42.184Z</time></trkpt><trkpt lat="44.2058741" lon="8.0808287"><ele>1144.0</ele><time>2026-05-02T08:49:43.182Z</time></trkpt><trkpt lat="44.2059453" lon="8.0808207"><ele>1145.0</ele><time>2026-05-02T08:49:44.185Z</time></trkpt><trkpt lat="44.2060656" lon="8.0808781"><ele>1146.0</ele><time>2026-05-02T08:49:46.189Z</time></trkpt><trkpt lat="44.2061312" lon="8.080927"><ele>1147.0</ele><time>2026-05-02T08:49:47.189Z</time></trkpt><trkpt lat="44.2061952" lon="8.0809562"><ele>1148.0</ele><time>2026-05-02T08:49:48.189Z</time></trkpt><trkpt lat="44.2062865" lon="8.0809726"><ele>1148.0</ele><time>2026-05-02T08:49:50.202Z</time></trkpt><trkpt lat="44.206355" lon="8.0809338"><ele>1148.0</ele><time>2026-05-02T08:50:34.187Z</time></trkpt><trkpt lat="44.2064278" lon="8.0809813"><ele>1148.0</ele><time>2026-05-02T08:50:36.194Z</time></trkpt><trkpt lat="44.206518" lon="8.0811271"><ele>1148.0</ele><time>2026-05-02T08:50:38.188Z</time></trkpt><trkpt lat="44.2065606" lon="8.0812142"><ele>1148.0</ele><time>2026-05-02T08:50:39.189Z</time></trkpt><trkpt lat="44.2065988" lon="8.0813002"><ele>1148.0</ele><time>2026-05-02T08:50:40.188Z</time></trkpt><trkpt lat="44.2066703" lon="8.0814424"><ele>1147.5</ele><time>2026-05-02T08:50:42.179Z</time></trkpt><trkpt lat="44.2067071" lon="8.081516"><ele>1147.0</ele><time>2026-05-02T08:50:43.174Z</time></trkpt><trkpt lat="44.2067811" lon="8.0816516"><ele>1146.5</ele><time>2026-05-02T08:50:45.181Z</time></trkpt><trkpt lat="44.2068196" lon="8.0817293"><ele>1146.0</ele><time>2026-05-02T08:50:46.189Z</time></trkpt><trkpt lat="44.206864" lon="8.0818141"><ele>1145.5</ele><time>2026-05-02T08:50:47.19Z</time></trkpt><trkpt lat="44.2068929" lon="8.0819011"><ele>1145.0</ele><time>2026-05-02T08:50:48.186Z</time></trkpt><trkpt lat="44.2069218" lon="8.081996"><ele>1145.0</ele><time>2026-05-02T08:50:49.195Z</time></trkpt><trkpt lat="44.2069577" lon="8.0820902"><ele>1145.0</ele><time>2026-05-02T08:50:50.193Z</time></trkpt><trkpt lat="44.2070025" lon="8.0821841"><ele>1145.0</ele><time>2026-05-02T08:50:51.19Z</time></trkpt><trkpt lat="44.2070497" lon="8.082266"><ele>1145.0</ele><time>2026-05-02T08:50:52.195Z</time></trkpt><trkpt lat="44.2070945" lon="8.0823447"><ele>1145.0</ele><time>2026-05-02T08:50:53.189Z</time></trkpt><trkpt lat="44.2071338" lon="8.0824332"><ele>1145.0</ele><time>2026-05-02T08:50:54.197Z</time></trkpt><trkpt lat="44.207167" lon="8.08252"><ele>1141.3333333333335</ele><time>2026-05-02T08:50:55.199Z</time></trkpt><trkpt lat="44.2072" lon="8.0825956"><ele>1137.6666666666667</ele><time>2026-05-02T08:50:56.199Z</time></trkpt><trkpt lat="44.2072806" lon="8.0827035"><ele>1134.0</ele><time>2026-05-02T08:50:58.199Z</time></trkpt><trkpt lat="44.2073404" lon="8.0827462"><ele>1130.3333333333333</ele><time>2026-05-02T08:50:59.197Z</time></trkpt><trkpt lat="44.2074509" lon="8.0828252"><ele>1126.6666666666665</ele><time>2026-05-02T08:51:01.199Z</time></trkpt><trkpt lat="44.2075172" lon="8.0828607"><ele>1123.0</ele><time>2026-05-02T08:51:02.191Z</time></trkpt><trkpt lat="44.2075873" lon="8.0829108"><ele>1122.3333333333333</ele><time>2026-05-02T08:51:03.196Z</time></trkpt><trkpt lat="44.2076606" lon="8.0829615"><ele>1121.6666666666665</ele><time>2026-05-02T08:51:04.195Z</time></trkpt><trkpt lat="44.2077305" lon="8.0830425"><ele>1121.0</ele><time>2026-05-02T08:51:05.199Z</time></trkpt><trkpt lat="44.2077922" lon="8.0831388"><ele>1120.3333333333333</ele><time>2026-05-02T08:51:06.191Z</time></trkpt><trkpt lat="44.2078386" lon="8.0832328"><ele>1119.6666666666667</ele><time>2026-05-02T08:51:07.19Z</time></trkpt><trkpt lat="44.2078932" lon="8.0833353"><ele>1119.0</ele><time>2026-05-02T08:51:08.192Z</time></trkpt><trkpt lat="44.2079472" lon="8.0834454"><ele>1119.0</ele><time>2026-05-02T08:51:09.189Z</time></trkpt><trkpt lat="44.2079953" lon="8.0835627"><ele>1119.0</ele><time>2026-05-02T08:51:10.198Z</time></trkpt><trkpt lat="44.2080349" lon="8.0836758"><ele>1119.0</ele><time>2026-05-02T08:51:11.198Z</time></trkpt><trkpt lat="44.208062" lon="8.0837972"><ele>1119.0</ele><time>2026-05-02T08:51:12.197Z</time></trkpt><trkpt lat="44.2080988" lon="8.0839227"><ele>1119.0</ele><time>2026-05-02T08:51:13.198Z</time></trkpt><trkpt lat="44.2081321" lon="8.0840481"><ele>1119.4</ele><time>2026-05-02T08:51:14.201Z</time></trkpt><trkpt lat="44.2081631" lon="8.0841707"><ele>1119.8000000000002</ele><time>2026-05-02T08:51:15.197Z</time></trkpt><trkpt lat="44.2081972" lon="8.0842937"><ele>1120.1999999999998</ele><time>2026-05-02T08:51:16.195Z</time></trkpt><trkpt lat="44.2082353" lon="8.0844197"><ele>1120.6</ele><time>2026-05-02T08:51:17.196Z</time></trkpt><trkpt lat="44.2082672" lon="8.0845493"><ele>1121.0</ele><time>2026-05-02T08:51:18.197Z</time></trkpt><trkpt lat="44.2083272" lon="8.0846658"><ele>1121.0</ele><time>2026-05-02T08:51:19.207Z</time></trkpt><trkpt lat="44.208408" lon="8.0847939"><ele>1121.0</ele><time>2026-05-02T08:51:20.205Z</time></trkpt><trkpt lat="44.2084885" lon="8.0849249"><ele>1121.0</ele><time>2026-05-02T08:51:21.202Z</time></trkpt><trkpt lat="44.2085718" lon="8.0850416"><ele>1121.0</ele><time>2026-05-02T08:51:22.187Z</time></trkpt><trkpt lat="44.2086423" lon="8.085148"><ele>1119.0</ele><time>2026-05-02T08:51:23.185Z</time></trkpt><trkpt lat="44.208727" lon="8.0852634"><ele>1117.0</ele><time>2026-05-02T08:51:24.19Z</time></trkpt><trkpt lat="44.2088207" lon="8.0853477"><ele>1115.0</ele><time>2026-05-02T08:51:25.183Z</time></trkpt><trkpt lat="44.2088933" lon="8.0854106"><ele>1113.0</ele><time>2026-05-02T08:51:26.191Z</time></trkpt><trkpt lat="44.208972" lon="8.0854652"><ele>1111.0</ele><time>2026-05-02T08:51:27.194Z</time></trkpt><trkpt lat="44.2090581" lon="8.0855223"><ele>1109.8</ele><time>2026-05-02T08:51:28.197Z</time></trkpt><trkpt lat="44.2091458" lon="8.0855636"><ele>1108.6</ele><time>2026-05-02T08:51:29.194Z</time></trkpt><trkpt lat="44.2092229" lon="8.0856279"><ele>1107.4</ele><time>2026-05-02T08:51:30.19Z</time></trkpt><trkpt lat="44.2093051" lon="8.0857108"><ele>1106.2</ele><time>2026-05-02T08:51:31.181Z</time></trkpt><trkpt lat="44.2093786" lon="8.0858005"><ele>1105.0</ele><time>2026-05-02T08:51:32.187Z</time></trkpt><trkpt lat="44.2094595" lon="8.0859062"><ele>1105.0</ele><time>2026-05-02T08:51:33.197Z</time></trkpt><trkpt lat="44.2095383" lon="8.0860213"><ele>1105.0</ele><time>2026-05-02T08:51:34.19Z</time></trkpt><trkpt lat="44.2096159" lon="8.086127"><ele>1105.0</ele><time>2026-05-02T08:51:35.188Z</time></trkpt><trkpt lat="44.2096908" lon="8.0862297"><ele>1105.0</ele><time>2026-05-02T08:51:36.19Z</time></trkpt><trkpt lat="44.2097354" lon="8.0863388"><ele>1105.0</ele><time>2026-05-02T08:51:37.197Z</time></trkpt><trkpt lat="44.2097768" lon="8.0864509"><ele>1105.0</ele><time>2026-05-02T08:51:38.175Z</time></trkpt><trkpt lat="44.2098119" lon="8.0865689"><ele>1105.0</ele><time>2026-05-02T08:51:39.188Z</time></trkpt><trkpt lat="44.2098456" lon="8.0866966"><ele>1105.0</ele><time>2026-05-02T08:51:40.19Z</time></trkpt><trkpt lat="44.2098789" lon="8.0868353"><ele>1105.0</ele><time>2026-05-02T08:51:41.187Z</time></trkpt><trkpt lat="44.2099241" lon="8.0869829"><ele>1105.0</ele><time>2026-05-02T08:51:42.187Z</time></trkpt><trkpt lat="44.209976" lon="8.0871205"><ele>1102.8</ele><time>2026-05-02T08:51:43.189Z</time></trkpt><trkpt lat="44.2100241" lon="8.0872529"><ele>1100.6</ele><time>2026-05-02T08:51:44.192Z</time></trkpt><trkpt lat="44.2100888" lon="8.0873762"><ele>1098.4</ele><time>2026-05-02T08:51:45.191Z</time></trkpt><trkpt lat="44.2101617" lon="8.0874854"><ele>1096.2</ele><time>2026-05-02T08:51:46.188Z</time></trkpt><trkpt lat="44.2102342" lon="8.0875998"><ele>1094.0</ele><time>2026-05-02T08:51:47.188Z</time></trkpt><trkpt lat="44.2103142" lon="8.0877123"><ele>1094.0</ele><time>2026-05-02T08:51:48.189Z</time></trkpt><trkpt lat="44.2103853" lon="8.0878247"><ele>1094.0</ele><time>2026-05-02T08:51:49.181Z</time></trkpt><trkpt lat="44.2104501" lon="8.0879311"><ele>1094.0</ele><time>2026-05-02T08:51:50.196Z</time></trkpt><trkpt lat="44.210501" lon="8.0880309"><ele>1094.0</ele><time>2026-05-02T08:51:51.189Z</time></trkpt><trkpt lat="44.2105442" lon="8.0881194"><ele>1094.0</ele><time>2026-05-02T08:51:52.189Z</time></trkpt><trkpt lat="44.2105394" lon="8.088261"><ele>1092.0</ele><time>2026-05-02T08:52:58.178Z</time></trkpt><trkpt lat="44.2105255" lon="8.0883807"><ele>1090.0</ele><time>2026-05-02T08:53:00.191Z</time></trkpt><trkpt lat="44.2105138" lon="8.0885275"><ele>1088.0</ele><time>2026-05-02T08:53:01.191Z</time></trkpt><trkpt lat="44.2105048" lon="8.0886731"><ele>1086.0</ele><time>2026-05-02T08:53:02.186Z</time></trkpt><trkpt lat="44.2105223" lon="8.088835"><ele>1084.0</ele><time>2026-05-02T08:53:03.188Z</time></trkpt><trkpt lat="44.2105531" lon="8.089008"><ele>1084.6000000000001</ele><time>2026-05-02T08:53:04.192Z</time></trkpt><trkpt lat="44.2106034" lon="8.0891622"><ele>1085.2</ele><time>2026-05-02T08:53:05.195Z</time></trkpt><trkpt lat="44.2106492" lon="8.0892761"><ele>1085.8000000000002</ele><time>2026-05-02T08:53:06.183Z</time></trkpt><trkpt lat="44.2106832" lon="8.0893844"><ele>1086.4</ele><time>2026-05-02T08:53:07.183Z</time></trkpt><trkpt lat="44.2107267" lon="8.0894961"><ele>1087.0</ele><time>2026-05-02T08:53:08.183Z</time></trkpt><trkpt lat="44.2107685" lon="8.0896184"><ele>1087.0</ele><time>2026-05-02T08:53:09.182Z</time></trkpt><trkpt lat="44.2107985" lon="8.089736"><ele>1087.0</ele><time>2026-05-02T08:53:10.187Z</time></trkpt><trkpt lat="44.2108453" lon="8.089848"><ele>1087.0</ele><time>2026-05-02T08:53:11.185Z</time></trkpt><trkpt lat="44.2109027" lon="8.08995"><ele>1087.0</ele><time>2026-05-02T08:53:12.193Z</time></trkpt><trkpt lat="44.2109519" lon="8.0900489"><ele>1087.0</ele><time>2026-05-02T08:53:13.188Z</time></trkpt><trkpt lat="44.2109954" lon="8.0901589"><ele>1083.2</ele><time>2026-05-02T08:53:14.192Z</time></trkpt><trkpt lat="44.2110341" lon="8.0902781"><ele>1079.4</ele><time>2026-05-02T08:53:15.189Z</time></trkpt><trkpt lat="44.2110776" lon="8.0904058"><ele>1075.6</ele><time>2026-05-02T08:53:16.193Z</time></trkpt><trkpt lat="44.2111127" lon="8.0905338"><ele>1071.8</ele><time>2026-05-02T08:53:17.199Z</time></trkpt><trkpt lat="44.2111458" lon="8.0906654"><ele>1068.0</ele><time>2026-05-02T08:53:18.196Z</time></trkpt><trkpt lat="44.2111678" lon="8.0907923"><ele>1065.2</ele><time>2026-05-02T08:53:19.204Z</time></trkpt><trkpt lat="44.2112085" lon="8.090927"><ele>1062.4</ele><time>2026-05-02T08:53:20.198Z</time></trkpt><trkpt lat="44.211235" lon="8.0910446"><ele>1059.6000000000001</ele><time>2026-05-02T08:53:21.189Z</time></trkpt><trkpt lat="44.2112691" lon="8.0911791"><ele>1056.8</ele><time>2026-05-02T08:53:22.187Z</time></trkpt><trkpt lat="44.2113098" lon="8.0912985"><ele>1054.0</ele><time>2026-05-02T08:53:23.194Z</time></trkpt><trkpt lat="44.2113558" lon="8.091425"><ele>1054.0</ele><time>2026-05-02T08:53:24.192Z</time></trkpt><trkpt lat="44.2113961" lon="8.0915541"><ele>1054.0</ele><time>2026-05-02T08:53:25.185Z</time></trkpt><trkpt lat="44.2114384" lon="8.0916748"><ele>1054.0</ele><time>2026-05-02T08:53:26.187Z</time></trkpt><trkpt lat="44.2114868" lon="8.0918023"><ele>1054.0</ele><time>2026-05-02T08:53:27.196Z</time></trkpt><trkpt lat="44.2115367" lon="8.0919255"><ele>1054.0</ele><time>2026-05-02T08:53:28.189Z</time></trkpt><trkpt lat="44.2115806" lon="8.0920339"><ele>1056.0</ele><time>2026-05-02T08:53:29.19Z</time></trkpt><trkpt lat="44.2116168" lon="8.0921437"><ele>1058.0</ele><time>2026-05-02T08:53:30.197Z</time></trkpt><trkpt lat="44.2116223" lon="8.0922864"><ele>1060.0</ele><time>2026-05-02T08:53:32.199Z</time></trkpt><trkpt lat="44.2115829" lon="8.0924039"><ele>1062.0</ele><time>2026-05-02T08:53:34.192Z</time></trkpt><trkpt lat="44.2114988" lon="8.0924785"><ele>1064.0</ele><time>2026-05-02T08:53:36.197Z</time></trkpt><trkpt lat="44.2114164" lon="8.0924713"><ele>1058.2</ele><time>2026-05-02T08:53:37.196Z</time></trkpt><trkpt lat="44.2113238" lon="8.0924232"><ele>1052.4</ele><time>2026-05-02T08:53:38.194Z</time></trkpt><trkpt lat="44.2112412" lon="8.0923737"><ele>1046.6</ele><time>2026-05-02T08:53:39.198Z</time></trkpt><trkpt lat="44.2111662" lon="8.0923391"><ele>1040.8</ele><time>2026-05-02T08:53:40.198Z</time></trkpt><trkpt lat="44.2110997" lon="8.0923188"><ele>1035.0</ele><time>2026-05-02T08:53:41.197Z</time></trkpt><trkpt lat="44.210983" lon="8.0923435"><ele>1035.0</ele><time>2026-05-02T08:53:43.19Z</time></trkpt><trkpt lat="44.2109191" lon="8.0923705"><ele>1035.0</ele><time>2026-05-02T08:53:44.197Z</time></trkpt><trkpt lat="44.210843" lon="8.0923973"><ele>1035.0</ele><time>2026-05-02T08:53:45.186Z</time></trkpt><trkpt lat="44.21077" lon="8.0924591"><ele>1035.0</ele><time>2026-05-02T08:53:46.201Z</time></trkpt><trkpt lat="44.2107832" lon="8.092595"><ele>1035.0</ele><time>2026-05-02T08:53:49.193Z</time></trkpt><trkpt lat="44.2108193" lon="8.092675"><ele>1035.0</ele><time>2026-05-02T08:53:50.189Z</time></trkpt><trkpt lat="44.2108772" lon="8.0927495"><ele>1033.0</ele><time>2026-05-02T08:53:51.197Z</time></trkpt><trkpt lat="44.2109462" lon="8.0928144"><ele>1031.0</ele><time>2026-05-02T08:53:52.195Z</time></trkpt><trkpt lat="44.2110117" lon="8.0928638"><ele>1029.0</ele><time>2026-05-02T08:53:53.191Z</time></trkpt><trkpt lat="44.2110716" lon="8.0929033"><ele>1027.0</ele><time>2026-05-02T08:53:54.194Z</time></trkpt><trkpt lat="44.2110941" lon="8.0929879"><ele>1025.0</ele><time>2026-05-02T08:53:56.196Z</time></trkpt><trkpt lat="44.2109945" lon="8.0930298"><ele>1023.0</ele><time>2026-05-02T08:53:58.182Z</time></trkpt><trkpt lat="44.210903" lon="8.0930676"><ele>1023.0</ele><time>2026-05-02T08:53:59.186Z</time></trkpt><trkpt lat="44.210839" lon="8.0930934"><ele>1023.0</ele><time>2026-05-02T08:54:00.175Z</time></trkpt><trkpt lat="44.210702" lon="8.0931269"><ele>1023.0</ele><time>2026-05-02T08:54:02.186Z</time></trkpt><trkpt lat="44.2105623" lon="8.0930884"><ele>1023.0</ele><time>2026-05-02T08:54:03.18Z</time></trkpt><trkpt lat="44.2104663" lon="8.0930368"><ele>1017.2</ele><time>2026-05-02T08:54:04.181Z</time></trkpt><trkpt lat="44.2103819" lon="8.0929884"><ele>1011.4</ele><time>2026-05-02T08:54:05.188Z</time></trkpt><trkpt lat="44.2102983" lon="8.0929208"><ele>1005.6000000000001</ele><time>2026-05-02T08:54:06.186Z</time></trkpt><trkpt lat="44.2102229" lon="8.092848"><ele>999.8000000000001</ele><time>2026-05-02T08:54:07.187Z</time></trkpt><trkpt lat="44.2101678" lon="8.0927474"><ele>994.0</ele><time>2026-05-02T08:54:08.194Z</time></trkpt><trkpt lat="44.2101119" lon="8.0926547"><ele>993.9999999999999</ele><time>2026-05-02T08:54:09.186Z</time></trkpt><trkpt lat="44.2100809" lon="8.0925586"><ele>994.0</ele><time>2026-05-02T08:54:10.193Z</time></trkpt><trkpt lat="44.2100634" lon="8.0924434"><ele>994.0</ele><time>2026-05-02T08:54:11.207Z</time></trkpt><trkpt lat="44.2100703" lon="8.0923172"><ele>994.0</ele><time>2026-05-02T08:54:12.196Z</time></trkpt><trkpt lat="44.2100938" lon="8.0921958"><ele>993.9999999999999</ele><time>2026-05-02T08:54:13.202Z</time></trkpt><trkpt lat="44.2101366" lon="8.092083"><ele>994.0</ele><time>2026-05-02T08:54:14.179Z</time></trkpt><trkpt lat="44.210177" lon="8.0919839"><ele>994.8571428571429</ele><time>2026-05-02T08:54:15.182Z</time></trkpt><trkpt lat="44.2101945" lon="8.0918978"><ele>995.7142857142858</ele><time>2026-05-02T08:54:16.19Z</time></trkpt><trkpt lat="44.2101993" lon="8.0918059"><ele>996.5714285714286</ele><time>2026-05-02T08:54:17.18Z</time></trkpt><trkpt lat="44.2101871" lon="8.091717"><ele>997.4285714285714</ele><time>2026-05-02T08:54:18.188Z</time></trkpt><trkpt lat="44.2101404" lon="8.0916081"><ele>998.2857142857143</ele><time>2026-05-02T08:54:20.181Z</time></trkpt><trkpt lat="44.210127" lon="8.0916989"><ele>999.1428571428571</ele><time>2026-05-02T08:54:40.188Z</time></trkpt><trkpt lat="44.2100918" lon="8.0918235"><ele>1000.0</ele><time>2026-05-02T08:54:42.198Z</time></trkpt><trkpt lat="44.2100162" lon="8.091873"><ele>999.9999999999999</ele><time>2026-05-02T08:54:44.193Z</time></trkpt><trkpt lat="44.2099277" lon="8.0918035"><ele>1000.0</ele><time>2026-05-02T08:54:47.179Z</time></trkpt><trkpt lat="44.2099198" lon="8.0919041"><ele>1000.0</ele><time>2026-05-02T08:54:52.189Z</time></trkpt><trkpt lat="44.209895" lon="8.0919976"><ele>1000.0</ele><time>2026-05-02T08:54:53.189Z</time></trkpt><trkpt lat="44.2098596" lon="8.0921059"><ele>999.9999999999999</ele><time>2026-05-02T08:54:54.196Z</time></trkpt><trkpt lat="44.2098139" lon="8.0922032"><ele>1000.0</ele><time>2026-05-02T08:54:55.179Z</time></trkpt><trkpt lat="44.2097451" lon="8.0923265"><ele>991.4</ele><time>2026-05-02T08:54:56.19Z</time></trkpt><trkpt lat="44.2096882" lon="8.0924453"><ele>982.8</ele><time>2026-05-02T08:54:57.176Z</time></trkpt><trkpt lat="44.2096266" lon="8.0925573"><ele>974.2</ele><time>2026-05-02T08:54:58.201Z</time></trkpt><trkpt lat="44.2095778" lon="8.0926744"><ele>965.6</ele><time>2026-05-02T08:54:59.182Z</time></trkpt><trkpt lat="44.2095223" lon="8.0927852"><ele>957.0</ele><time>2026-05-02T08:55:00.189Z</time></trkpt><trkpt lat="44.2094774" lon="8.0929234"><ele>957.0</ele><time>2026-05-02T08:55:01.187Z</time></trkpt><trkpt lat="44.2094244" lon="8.0930526"><ele>957.0</ele><time>2026-05-02T08:55:02.184Z</time></trkpt><trkpt lat="44.2093685" lon="8.0931794"><ele>957.0</ele><time>2026-05-02T08:55:03.187Z</time></trkpt><trkpt lat="44.209303" lon="8.0932944"><ele>957.0</ele><time>2026-05-02T08:55:04.178Z</time></trkpt><trkpt lat="44.2092451" lon="8.0933944"><ele>957.0</ele><time>2026-05-02T08:55:05.186Z</time></trkpt><trkpt lat="44.2092062" lon="8.0934822"><ele>956.2</ele><time>2026-05-02T08:55:06.182Z</time></trkpt><trkpt lat="44.2091782" lon="8.0935723"><ele>955.4000000000001</ele><time>2026-05-02T08:55:07.183Z</time></trkpt><trkpt lat="44.2091057" lon="8.093696"><ele>954.5999999999999</ele><time>2026-05-02T08:55:09.194Z</time></trkpt><trkpt lat="44.2090747" lon="8.0938676"><ele>953.8</ele><time>2026-05-02T08:55:11.196Z</time></trkpt><trkpt lat="44.2090747" lon="8.0939806"><ele>953.0</ele><time>2026-05-02T08:55:12.198Z</time></trkpt><trkpt lat="44.2090804" lon="8.0940868"><ele>951.8333333333334</ele><time>2026-05-02T08:55:13.203Z</time></trkpt><trkpt lat="44.2090981" lon="8.0941853"><ele>950.6666666666667</ele><time>2026-05-02T08:55:14.2Z</time></trkpt><trkpt lat="44.2091254" lon="8.0942814"><ele>949.5</ele><time>2026-05-02T08:55:15.179Z</time></trkpt><trkpt lat="44.2091689" lon="8.09438"><ele>948.3333333333333</ele><time>2026-05-02T08:55:16.201Z</time></trkpt><trkpt lat="44.2092033" lon="8.094473"><ele>947.1666666666666</ele><time>2026-05-02T08:55:17.182Z</time></trkpt><trkpt lat="44.2092369" lon="8.0945653"><ele>946.0</ele><time>2026-05-02T08:55:18.197Z</time></trkpt><trkpt lat="44.2092648" lon="8.0946963"><ele>945.9999999999999</ele><time>2026-05-02T08:55:20.182Z</time></trkpt><trkpt lat="44.209213" lon="8.0947854"><ele>946.0</ele><time>2026-05-02T08:55:22.198Z</time></trkpt><trkpt lat="44.2091478" lon="8.0948007"><ele>946.0</ele><time>2026-05-02T08:55:23.187Z</time></trkpt><trkpt lat="44.2090687" lon="8.0948036"><ele>946.0</ele><time>2026-05-02T08:55:24.198Z</time></trkpt><trkpt lat="44.2089826" lon="8.0948205"><ele>945.9999999999999</ele><time>2026-05-02T08:55:25.193Z</time></trkpt><trkpt lat="44.2088934" lon="8.0948337"><ele>946.0</ele><time>2026-05-02T08:55:26.189Z</time></trkpt><trkpt lat="44.2088184" lon="8.0948157"><ele>941.1666666666666</ele><time>2026-05-02T08:55:27.199Z</time></trkpt><trkpt lat="44.2087358" lon="8.0948172"><ele>936.3333333333333</ele><time>2026-05-02T08:55:28.193Z</time></trkpt><trkpt lat="44.2086642" lon="8.0948233"><ele>931.5</ele><time>2026-05-02T08:55:29.202Z</time></trkpt><trkpt lat="44.2085949" lon="8.094841"><ele>926.6666666666667</ele><time>2026-05-02T08:55:30.196Z</time></trkpt><trkpt lat="44.208533" lon="8.0949022"><ele>921.8333333333334</ele><time>2026-05-02T08:55:32.189Z</time></trkpt><trkpt lat="44.2085875" lon="8.0949678"><ele>917.0</ele><time>2026-05-02T08:55:34.182Z</time></trkpt><trkpt lat="44.2086821" lon="8.095068"><ele>918.4000000000001</ele><time>2026-05-02T08:55:36.18Z</time></trkpt><trkpt lat="44.2087727" lon="8.0951748"><ele>919.8000000000001</ele><time>2026-05-02T08:55:38.186Z</time></trkpt><trkpt lat="44.2088395" lon="8.0952813"><ele>921.2</ele><time>2026-05-02T08:55:40.181Z</time></trkpt><trkpt lat="44.2088769" lon="8.095371"><ele>922.6</ele><time>2026-05-02T08:55:42.175Z</time></trkpt><trkpt lat="44.2089651" lon="8.0954193"><ele>924.0</ele><time>2026-05-02T08:55:44.19Z</time></trkpt><trkpt lat="44.2090516" lon="8.0954384"><ele>924.0</ele><time>2026-05-02T08:55:45.18Z</time></trkpt><trkpt lat="44.2091309" lon="8.0954533"><ele>924.0000000000001</ele><time>2026-05-02T08:55:46.186Z</time></trkpt><trkpt lat="44.2092311" lon="8.0954761"><ele>924.0000000000001</ele><time>2026-05-02T08:55:47.182Z</time></trkpt><trkpt lat="44.2093202" lon="8.0954839"><ele>924.0</ele><time>2026-05-02T08:55:48.192Z</time></trkpt><trkpt lat="44.2094139" lon="8.0955073"><ele>924.0</ele><time>2026-05-02T08:55:49.187Z</time></trkpt><trkpt lat="44.2095011" lon="8.0955248"><ele>924.0</ele><time>2026-05-02T08:55:50.183Z</time></trkpt><trkpt lat="44.2096001" lon="8.0955497"><ele>924.0000000000001</ele><time>2026-05-02T08:55:52.194Z</time></trkpt><trkpt lat="44.2096735" lon="8.095575"><ele>924.0000000000001</ele><time>2026-05-02T08:55:54.191Z</time></trkpt><trkpt lat="44.2097489" lon="8.0956176"><ele>924.0</ele><time>2026-05-02T08:55:56.188Z</time></trkpt><trkpt lat="44.2098399" lon="8.0956211"><ele>924.0</ele><time>2026-05-02T08:55:58.182Z</time></trkpt><trkpt lat="44.2099432" lon="8.0956568"><ele>922.4000000000001</ele><time>2026-05-02T08:56:00.181Z</time></trkpt><trkpt lat="44.2100273" lon="8.0956984"><ele>920.8000000000001</ele><time>2026-05-02T08:56:02.18Z</time></trkpt><trkpt lat="44.2101063" lon="8.0957468"><ele>919.1999999999999</ele><time>2026-05-02T08:56:04.182Z</time></trkpt><trkpt lat="44.2100472" lon="8.0958631"><ele>917.5999999999999</ele><time>2026-05-02T08:56:10.172Z</time></trkpt><trkpt lat="44.2099777" lon="8.0959763"><ele>916.0</ele><time>2026-05-02T08:56:29.199Z</time></trkpt><trkpt lat="44.209921" lon="8.0960332"><ele>916.0</ele><time>2026-05-02T08:59:31.208Z</time></trkpt><trkpt lat="44.2099189" lon="8.0961612"><ele>915.9999999999999</ele><time>2026-05-02T08:59:35.193Z</time></trkpt><trkpt lat="44.209912" lon="8.0963025"><ele>915.9999999999999</ele><time>2026-05-02T08:59:37.196Z</time></trkpt><trkpt lat="44.2099388" lon="8.0964392"><ele>916.0</ele><time>2026-05-02T08:59:39.196Z</time></trkpt><trkpt lat="44.2099118" lon="8.0966074"><ele>916.0</ele><time>2026-05-02T08:59:41.198Z</time></trkpt><trkpt lat="44.2098663" lon="8.0967442"><ele>914.5999999999999</ele><time>2026-05-02T08:59:42.2Z</time></trkpt><trkpt lat="44.2098403" lon="8.0968863"><ele>913.1999999999999</ele><time>2026-05-02T08:59:43.192Z</time></trkpt><trkpt lat="44.2098242" lon="8.0970213"><ele>911.8000000000001</ele><time>2026-05-02T08:59:44.196Z</time></trkpt><trkpt lat="44.2098128" lon="8.0971149"><ele>910.4000000000001</ele><time>2026-05-02T08:59:45.19Z</time></trkpt><trkpt lat="44.2098265" lon="8.097201"><ele>909.0</ele><time>2026-05-02T08:59:46.194Z</time></trkpt><trkpt lat="44.2098335" lon="8.0973759"><ele>908.5</ele><time>2026-05-02T08:59:48.2Z</time></trkpt><trkpt lat="44.2098339" lon="8.097474"><ele>908.0</ele><time>2026-05-02T08:59:49.207Z</time></trkpt><trkpt lat="44.2097692" lon="8.0976326"><ele>907.5</ele><time>2026-05-02T08:59:51.198Z</time></trkpt><trkpt lat="44.2097281" lon="8.0977051"><ele>907.0</ele><time>2026-05-02T08:59:52.193Z</time></trkpt><trkpt lat="44.2096654" lon="8.0977885"><ele>906.5</ele><time>2026-05-02T08:59:53.19Z</time></trkpt><trkpt lat="44.2096038" lon="8.0978684"><ele>906.0</ele><time>2026-05-02T08:59:54.21Z</time></trkpt><trkpt lat="44.2095341" lon="8.0979513"><ele>904.3333333333334</ele><time>2026-05-02T08:59:55.193Z</time></trkpt><trkpt lat="44.2094733" lon="8.0980337"><ele>902.6666666666667</ele><time>2026-05-02T08:59:56.189Z</time></trkpt><trkpt lat="44.2094134" lon="8.0981024"><ele>901.0</ele><time>2026-05-02T08:59:57.189Z</time></trkpt><trkpt lat="44.2093427" lon="8.0981488"><ele>899.3333333333334</ele><time>2026-05-02T08:59:58.191Z</time></trkpt><trkpt lat="44.2092775" lon="8.0982092"><ele>897.6666666666667</ele><time>2026-05-02T08:59:59.198Z</time></trkpt><trkpt lat="44.2092145" lon="8.0982747"><ele>896.0</ele><time>2026-05-02T09:00:00.195Z</time></trkpt><trkpt lat="44.2091365" lon="8.0983376"><ele>896.0000000000001</ele><time>2026-05-02T09:00:01.189Z</time></trkpt><trkpt lat="44.2090642" lon="8.0983889"><ele>896.0</ele><time>2026-05-02T09:00:02.186Z</time></trkpt><trkpt lat="44.2089967" lon="8.0984382"><ele>896.0</ele><time>2026-05-02T09:00:03.186Z</time></trkpt><trkpt lat="44.2089225" lon="8.0984844"><ele>896.0</ele><time>2026-05-02T09:00:04.192Z</time></trkpt><trkpt lat="44.2088533" lon="8.0985491"><ele>896.0000000000001</ele><time>2026-05-02T09:00:05.185Z</time></trkpt><trkpt lat="44.2087853" lon="8.0986209"><ele>896.0</ele><time>2026-05-02T09:00:06.194Z</time></trkpt><trkpt lat="44.2087171" lon="8.0986954"><ele>892.0000000000001</ele><time>2026-05-02T09:00:07.187Z</time></trkpt><trkpt lat="44.2086581" lon="8.0987689"><ele>888.0</ele><time>2026-05-02T09:00:08.197Z</time></trkpt><trkpt lat="44.2085995" lon="8.0988539"><ele>884.0</ele><time>2026-05-02T09:00:09.197Z</time></trkpt><trkpt lat="44.2085597" lon="8.0989389"><ele>880.0</ele><time>2026-05-02T09:00:10.197Z</time></trkpt><trkpt lat="44.2085478" lon="8.0990451"><ele>876.0000000000001</ele><time>2026-05-02T09:00:11.193Z</time></trkpt><trkpt lat="44.2085411" lon="8.0991488"><ele>872.0</ele><time>2026-05-02T09:00:12.186Z</time></trkpt><trkpt lat="44.2085511" lon="8.0992448"><ele>872.0000000000001</ele><time>2026-05-02T09:00:13.188Z</time></trkpt><trkpt lat="44.2085632" lon="8.0993602"><ele>872.0</ele><time>2026-05-02T09:00:14.19Z</time></trkpt><trkpt lat="44.2085861" lon="8.099452"><ele>872.0</ele><time>2026-05-02T09:00:15.202Z</time></trkpt><trkpt lat="44.2085983" lon="8.0995478"><ele>872.0</ele><time>2026-05-02T09:00:16.202Z</time></trkpt><trkpt lat="44.2085296" lon="8.0996322"><ele>872.0000000000001</ele><time>2026-05-02T09:00:18.201Z</time></trkpt><trkpt lat="44.2084294" lon="8.099691"><ele>872.0</ele><time>2026-05-02T09:00:20.194Z</time></trkpt><trkpt lat="44.2083314" lon="8.0998024"><ele>872.0000000000001</ele><time>2026-05-02T09:00:22.2Z</time></trkpt><trkpt lat="44.2082802" lon="8.0998738"><ele>872.0</ele><time>2026-05-02T09:00:23.198Z</time></trkpt><trkpt lat="44.2082272" lon="8.0999492"><ele>872.0</ele><time>2026-05-02T09:00:24.196Z</time></trkpt><trkpt lat="44.2081901" lon="8.1000304"><ele>872.0</ele><time>2026-05-02T09:00:25.203Z</time></trkpt><trkpt lat="44.2081586" lon="8.1001243"><ele>872.0000000000001</ele><time>2026-05-02T09:00:26.19Z</time></trkpt><trkpt lat="44.2081144" lon="8.1002426"><ele>872.0</ele><time>2026-05-02T09:00:27.186Z</time></trkpt><trkpt lat="44.208074" lon="8.1003736"><ele>864.5</ele><time>2026-05-02T09:00:28.2Z</time></trkpt><trkpt lat="44.2080159" lon="8.1005162"><ele>857.0</ele><time>2026-05-02T09:00:29.185Z</time></trkpt><trkpt lat="44.2079587" lon="8.1006571"><ele>849.5</ele><time>2026-05-02T09:00:30.201Z</time></trkpt><trkpt lat="44.2079117" lon="8.1008019"><ele>842.0</ele><time>2026-05-02T09:00:31.189Z</time></trkpt><trkpt lat="44.2078741" lon="8.1009426"><ele>842.0</ele><time>2026-05-02T09:00:32.2Z</time></trkpt><trkpt lat="44.2078322" lon="8.1010812"><ele>842.0</ele><time>2026-05-02T09:00:33.181Z</time></trkpt><trkpt lat="44.2077929" lon="8.1012093"><ele>842.0</ele><time>2026-05-02T09:00:34.195Z</time></trkpt><trkpt lat="44.2077565" lon="8.1013296"><ele>842.0</ele><time>2026-05-02T09:00:35.193Z</time></trkpt><trkpt lat="44.2077087" lon="8.1014423"><ele>842.0</ele><time>2026-05-02T09:00:36.193Z</time></trkpt><trkpt lat="44.2076349" lon="8.1015413"><ele>842.6666666666667</ele><time>2026-05-02T09:00:37.191Z</time></trkpt><trkpt lat="44.2075582" lon="8.1016178"><ele>843.3333333333334</ele><time>2026-05-02T09:00:38.188Z</time></trkpt><trkpt lat="44.2074879" lon="8.1016748"><ele>844.0</ele><time>2026-05-02T09:00:39.187Z</time></trkpt><trkpt lat="44.2074161" lon="8.101723"><ele>844.6666666666667</ele><time>2026-05-02T09:00:40.19Z</time></trkpt><trkpt lat="44.2073499" lon="8.1017605"><ele>845.3333333333334</ele><time>2026-05-02T09:00:41.191Z</time></trkpt><trkpt lat="44.2072718" lon="8.1018094"><ele>846.0</ele><time>2026-05-02T09:00:42.189Z</time></trkpt><trkpt lat="44.2071897" lon="8.1018719"><ele>841.6666666666666</ele><time>2026-05-02T09:00:43.177Z</time></trkpt><trkpt lat="44.2070999" lon="8.101936"><ele>837.3333333333333</ele><time>2026-05-02T09:00:44.191Z</time></trkpt><trkpt lat="44.2070397" lon="8.1019798"><ele>833.0</ele><time>2026-05-02T09:00:45.189Z</time></trkpt><trkpt lat="44.2069834" lon="8.1020679"><ele>828.6666666666666</ele><time>2026-05-02T09:00:47.199Z</time></trkpt><trkpt lat="44.2069814" lon="8.1021862"><ele>824.3333333333333</ele><time>2026-05-02T09:00:49.186Z</time></trkpt><trkpt lat="44.2069935" lon="8.1023311"><ele>820.0</ele><time>2026-05-02T09:00:51.191Z</time></trkpt><trkpt lat="44.2069589" lon="8.1024801"><ele>819.9999999999999</ele><time>2026-05-02T09:00:53.203Z</time></trkpt><trkpt lat="44.2069123" lon="8.1025647"><ele>820.0</ele><time>2026-05-02T09:00:54.19Z</time></trkpt><trkpt lat="44.2068769" lon="8.1026566"><ele>820.0</ele><time>2026-05-02T09:00:55.195Z</time></trkpt><trkpt lat="44.2068349" lon="8.1027499"><ele>820.0</ele><time>2026-05-02T09:00:56.201Z</time></trkpt><trkpt lat="44.2067927" lon="8.1028384"><ele>819.9999999999999</ele><time>2026-05-02T09:00:57.184Z</time></trkpt><trkpt lat="44.2067055" lon="8.1029036"><ele>820.0</ele><time>2026-05-02T09:00:59.219Z</time></trkpt><trkpt lat="44.2066342" lon="8.1027979"><ele>819.9999999999999</ele><time>2026-05-02T09:01:01.186Z</time></trkpt><trkpt lat="44.2065687" lon="8.1026451"><ele>820.0</ele><time>2026-05-02T09:01:03.194Z</time></trkpt><trkpt lat="44.206517" lon="8.1025816"><ele>820.0</ele><time>2026-05-02T09:01:04.198Z</time></trkpt><trkpt lat="44.2064543" lon="8.1025109"><ele>820.0</ele><time>2026-05-02T09:01:05.195Z</time></trkpt><trkpt lat="44.2063936" lon="8.1024287"><ele>819.9999999999999</ele><time>2026-05-02T09:01:06.202Z</time></trkpt><trkpt lat="44.2063422" lon="8.102335"><ele>820.0</ele><time>2026-05-02T09:01:07.189Z</time></trkpt><trkpt lat="44.2062984" lon="8.1022697"><ele>814.8</ele><time>2026-05-02T09:01:08.177Z</time></trkpt><trkpt lat="44.2062326" lon="8.1021855"><ele>809.6</ele><time>2026-05-02T09:01:10.186Z</time></trkpt><trkpt lat="44.2061641" lon="8.102165"><ele>804.4000000000001</ele><time>2026-05-02T09:01:12.188Z</time></trkpt><trkpt lat="44.2060853" lon="8.1022295"><ele>799.2</ele><time>2026-05-02T09:01:14.18Z</time></trkpt><trkpt lat="44.2059956" lon="8.1023221"><ele>794.0</ele><time>2026-05-02T09:01:16.184Z</time></trkpt><trkpt lat="44.2059318" lon="8.1024642"><ele>794.0000000000001</ele><time>2026-05-02T09:01:18.17Z</time></trkpt><trkpt lat="44.2058797" lon="8.1025554"><ele>794.0</ele><time>2026-05-02T09:01:19.195Z</time></trkpt><trkpt lat="44.2058209" lon="8.1026216"><ele>794.0</ele><time>2026-05-02T09:01:20.181Z</time></trkpt><trkpt lat="44.2057531" lon="8.1026691"><ele>794.0</ele><time>2026-05-02T09:01:21.172Z</time></trkpt><trkpt lat="44.2056857" lon="8.1026805"><ele>794.0000000000001</ele><time>2026-05-02T09:01:22.175Z</time></trkpt><trkpt lat="44.2056165" lon="8.1026774"><ele>794.0</ele><time>2026-05-02T09:01:23.176Z</time></trkpt><trkpt lat="44.2055214" lon="8.1026538"><ele>792.0</ele><time>2026-05-02T09:01:24.169Z</time></trkpt><trkpt lat="44.2054113" lon="8.1026247"><ele>790.0</ele><time>2026-05-02T09:01:25.182Z</time></trkpt><trkpt lat="44.2053201" lon="8.1026128"><ele>788.0</ele><time>2026-05-02T09:01:26.194Z</time></trkpt><trkpt lat="44.2052394" lon="8.1026179"><ele>786.0</ele><time>2026-05-02T09:01:27.175Z</time></trkpt><trkpt lat="44.2051618" lon="8.1026647"><ele>784.0</ele><time>2026-05-02T09:01:29.209Z</time></trkpt><trkpt lat="44.2051848" lon="8.102784"><ele>784.0</ele><time>2026-05-02T09:01:31.208Z</time></trkpt><trkpt lat="44.2052232" lon="8.1029193"><ele>784.0</ele><time>2026-05-02T09:01:33.205Z</time></trkpt><trkpt lat="44.205252" lon="8.1030005"><ele>784.0</ele><time>2026-05-02T09:02:42.219Z</time></trkpt><trkpt lat="44.2052541" lon="8.1031278"><ele>784.0</ele><time>2026-05-02T09:02:44.183Z</time></trkpt><trkpt lat="44.2052497" lon="8.1032707"><ele>784.0</ele><time>2026-05-02T09:02:45.189Z</time></trkpt><trkpt lat="44.2052714" lon="8.1033905"><ele>781.4000000000001</ele><time>2026-05-02T09:02:46.188Z</time></trkpt><trkpt lat="44.2052796" lon="8.1035197"><ele>778.8</ele><time>2026-05-02T09:02:47.174Z</time></trkpt><trkpt lat="44.2052811" lon="8.1036689"><ele>776.2</ele><time>2026-05-02T09:02:48.18Z</time></trkpt><trkpt lat="44.2052737" lon="8.1038262"><ele>773.5999999999999</ele><time>2026-05-02T09:02:49.181Z</time></trkpt><trkpt lat="44.2052799" lon="8.1039658"><ele>771.0</ele><time>2026-05-02T09:02:50.188Z</time></trkpt><trkpt lat="44.2052778" lon="8.1040991"><ele>769.5</ele><time>2026-05-02T09:02:51.184Z</time></trkpt><trkpt lat="44.2052777" lon="8.1042224"><ele>768.0</ele><time>2026-05-02T09:02:52.187Z</time></trkpt><trkpt lat="44.2052804" lon="8.104343"><ele>766.5</ele><time>2026-05-02T09:02:53.184Z</time></trkpt><trkpt lat="44.2052768" lon="8.1044532"><ele>765.0</ele><time>2026-05-02T09:02:54.188Z</time></trkpt><trkpt lat="44.205275" lon="8.1045615"><ele>763.5</ele><time>2026-05-02T09:02:55.187Z</time></trkpt><trkpt lat="44.2052803" lon="8.1046725"><ele>762.0</ele><time>2026-05-02T09:02:56.191Z</time></trkpt><trkpt lat="44.2053021" lon="8.104774"><ele>762.0</ele><time>2026-05-02T09:02:57.186Z</time></trkpt><trkpt lat="44.2053327" lon="8.104867"><ele>762.0</ele><time>2026-05-02T09:02:58.197Z</time></trkpt><trkpt lat="44.2054154" lon="8.1049833"><ele>762.0</ele><time>2026-05-02T09:03:00.188Z</time></trkpt><trkpt lat="44.2054782" lon="8.1050946"><ele>762.0</ele><time>2026-05-02T09:03:02.188Z</time></trkpt><trkpt lat="44.2055423" lon="8.1051788"><ele>762.0</ele><time>2026-05-02T09:03:04.178Z</time></trkpt><trkpt lat="44.2055952" lon="8.1052476"><ele>761.6666666666666</ele><time>2026-05-02T09:03:06.186Z</time></trkpt><trkpt lat="44.2056584" lon="8.1052282"><ele>761.3333333333334</ele><time>2026-05-02T09:03:35.206Z</time></trkpt><trkpt lat="44.205741" lon="8.1052517"><ele>761.0</ele><time>2026-05-02T09:03:49.178Z</time></trkpt><trkpt lat="44.2057706" lon="8.1053384"><ele>760.6666666666667</ele><time>2026-05-02T09:03:59.203Z</time></trkpt><trkpt lat="44.20584" lon="8.1054195"><ele>760.3333333333334</ele><time>2026-05-02T09:04:03.183Z</time></trkpt><trkpt lat="44.2059137" lon="8.1054537"><ele>760.0</ele><time>2026-05-02T09:04:06.178Z</time></trkpt><trkpt lat="44.2060045" lon="8.1054139"><ele>760.0</ele><time>2026-05-02T09:04:08.198Z</time></trkpt><trkpt lat="44.2060847" lon="8.1054087"><ele>760.0</ele><time>2026-05-02T09:04:09.201Z</time></trkpt><trkpt lat="44.2061613" lon="8.1053838"><ele>760.0</ele><time>2026-05-02T09:04:10.211Z</time></trkpt><trkpt lat="44.206275" lon="8.1054105"><ele>760.0</ele><time>2026-05-02T09:04:12.185Z</time></trkpt><trkpt lat="44.2063372" lon="8.1054792"><ele>760.0</ele><time>2026-05-02T09:04:13.187Z</time></trkpt><trkpt lat="44.2064119" lon="8.1056464"><ele>760.2</ele><time>2026-05-02T09:04:14.195Z</time></trkpt><trkpt lat="44.2065018" lon="8.1056996"><ele>760.4</ele><time>2026-05-02T09:04:15.193Z</time></trkpt><trkpt lat="44.2065864" lon="8.1057668"><ele>760.5999999999999</ele><time>2026-05-02T09:04:16.179Z</time></trkpt><trkpt lat="44.2066755" lon="8.1058575"><ele>760.8</ele><time>2026-05-02T09:04:17.204Z</time></trkpt><trkpt lat="44.20675" lon="8.1059558"><ele>761.0</ele><time>2026-05-02T09:04:18.212Z</time></trkpt><trkpt lat="44.2068315" lon="8.106061"><ele>761.1666666666666</ele><time>2026-05-02T09:04:19.207Z</time></trkpt><trkpt lat="44.2068746" lon="8.1061564"><ele>761.3333333333333</ele><time>2026-05-02T09:04:20.207Z</time></trkpt><trkpt lat="44.2069153" lon="8.1062322"><ele>761.5</ele><time>2026-05-02T09:04:21.214Z</time></trkpt><trkpt lat="44.2069591" lon="8.1062996"><ele>761.6666666666666</ele><time>2026-05-02T09:04:22.182Z</time></trkpt><trkpt lat="44.2069903" lon="8.1063839"><ele>761.8333333333334</ele><time>2026-05-02T09:04:23.188Z</time></trkpt><trkpt lat="44.2070365" lon="8.1064811"><ele>762.0</ele><time>2026-05-02T09:04:24.207Z</time></trkpt><trkpt lat="44.2070844" lon="8.1065805"><ele>762.5</ele><time>2026-05-02T09:04:25.215Z</time></trkpt><trkpt lat="44.2071381" lon="8.1066826"><ele>763.0</ele><time>2026-05-02T09:04:26.187Z</time></trkpt><trkpt lat="44.2071882" lon="8.1067699"><ele>763.5</ele><time>2026-05-02T09:04:27.195Z</time></trkpt><trkpt lat="44.2072489" lon="8.1068438"><ele>764.0</ele><time>2026-05-02T09:04:28.185Z</time></trkpt><trkpt lat="44.2073028" lon="8.1068996"><ele>764.5</ele><time>2026-05-02T09:04:29.179Z</time></trkpt><trkpt lat="44.207372" lon="8.106951"><ele>765.0</ele><time>2026-05-02T09:04:30.18Z</time></trkpt><trkpt lat="44.2074473" lon="8.1070025"><ele>765.0</ele><time>2026-05-02T09:04:31.21Z</time></trkpt><trkpt lat="44.2075224" lon="8.1070531"><ele>765.0</ele><time>2026-05-02T09:04:32.204Z</time></trkpt><trkpt lat="44.2075965" lon="8.1071051"><ele>765.0</ele><time>2026-05-02T09:04:33.179Z</time></trkpt><trkpt lat="44.2076812" lon="8.1071532"><ele>765.0</ele><time>2026-05-02T09:04:34.177Z</time></trkpt><trkpt lat="44.2077519" lon="8.1071942"><ele>765.0</ele><time>2026-05-02T09:04:35.181Z</time></trkpt><trkpt lat="44.207828" lon="8.1072286"><ele>765.0</ele><time>2026-05-02T09:04:36.181Z</time></trkpt><trkpt lat="44.2079245" lon="8.1072585"><ele>765.0</ele><time>2026-05-02T09:04:37.183Z</time></trkpt><trkpt lat="44.2080392" lon="8.1072577"><ele>765.0</ele><time>2026-05-02T09:04:38.211Z</time></trkpt><trkpt lat="44.2081435" lon="8.107244"><ele>765.0</ele><time>2026-05-02T09:04:39.198Z</time></trkpt><trkpt lat="44.2082444" lon="8.1072218"><ele>765.0</ele><time>2026-05-02T09:04:40.204Z</time></trkpt><trkpt lat="44.2083377" lon="8.1072095"><ele>765.0</ele><time>2026-05-02T09:04:41.208Z</time></trkpt><trkpt lat="44.2084169" lon="8.1072033"><ele>764.2</ele><time>2026-05-02T09:04:42.218Z</time></trkpt><trkpt lat="44.2085138" lon="8.1071767"><ele>763.4</ele><time>2026-05-02T09:04:43.207Z</time></trkpt><trkpt lat="44.2086095" lon="8.1071662"><ele>762.5999999999999</ele><time>2026-05-02T09:04:44.192Z</time></trkpt><trkpt lat="44.2086974" lon="8.1071711"><ele>761.8</ele><time>2026-05-02T09:04:45.207Z</time></trkpt><trkpt lat="44.2087887" lon="8.1071823"><ele>761.0</ele><time>2026-05-02T09:04:46.212Z</time></trkpt><trkpt lat="44.2088806" lon="8.1071967"><ele>761.0</ele><time>2026-05-02T09:04:47.209Z</time></trkpt><trkpt lat="44.2089829" lon="8.1072016"><ele>761.0</ele><time>2026-05-02T09:04:48.207Z</time></trkpt><trkpt lat="44.2090795" lon="8.1072002"><ele>761.0</ele><time>2026-05-02T09:04:49.209Z</time></trkpt><trkpt lat="44.2091718" lon="8.1072123"><ele>761.0</ele><time>2026-05-02T09:04:50.21Z</time></trkpt><trkpt lat="44.2092592" lon="8.1072211"><ele>761.0</ele><time>2026-05-02T09:04:51.186Z</time></trkpt><trkpt lat="44.2093437" lon="8.1072413"><ele>761.8333333333333</ele><time>2026-05-02T09:04:52.212Z</time></trkpt><trkpt lat="44.2094176" lon="8.1072525"><ele>762.6666666666666</ele><time>2026-05-02T09:04:53.205Z</time></trkpt><trkpt lat="44.2094972" lon="8.1073138"><ele>763.5</ele><time>2026-05-02T09:04:55.226Z</time></trkpt><trkpt lat="44.2094231" lon="8.10734"><ele>764.3333333333334</ele><time>2026-05-02T09:08:10.211Z</time></trkpt><trkpt lat="44.2095175" lon="8.1073845"><ele>765.1666666666667</ele><time>2026-05-02T09:10:36.223Z</time></trkpt><trkpt lat="44.2095792" lon="8.1074353"><ele>766.0</ele><time>2026-05-02T09:10:37.219Z</time></trkpt><trkpt lat="44.2096394" lon="8.1074995"><ele>769.0</ele><time>2026-05-02T09:10:38.201Z</time></trkpt><trkpt lat="44.2096963" lon="8.1075696"><ele>772.0</ele><time>2026-05-02T09:10:39.213Z</time></trkpt><trkpt lat="44.2097474" lon="8.1076447"><ele>775.0</ele><time>2026-05-02T09:10:40.208Z</time></trkpt><trkpt lat="44.2098071" lon="8.1077243"><ele>778.0</ele><time>2026-05-02T09:10:41.201Z</time></trkpt><trkpt lat="44.2098619" lon="8.1078103"><ele>780.9999999999999</ele><time>2026-05-02T09:10:42.174Z</time></trkpt><trkpt lat="44.2099126" lon="8.1078879"><ele>784.0</ele><time>2026-05-02T09:10:43.187Z</time></trkpt><trkpt lat="44.2099651" lon="8.1079612"><ele>784.0</ele><time>2026-05-02T09:10:44.183Z</time></trkpt><trkpt lat="44.2100221" lon="8.108043"><ele>784.0</ele><time>2026-05-02T09:10:45.182Z</time></trkpt><trkpt lat="44.2100874" lon="8.1081225"><ele>784.0</ele><time>2026-05-02T09:10:46.194Z</time></trkpt><trkpt lat="44.2101603" lon="8.1081997"><ele>784.0</ele><time>2026-05-02T09:10:47.192Z</time></trkpt><trkpt lat="44.2102484" lon="8.1082738"><ele>784.0</ele><time>2026-05-02T09:10:48.191Z</time></trkpt><trkpt lat="44.2103184" lon="8.1083531"><ele>784.6666666666666</ele><time>2026-05-02T09:10:49.185Z</time></trkpt><trkpt lat="44.2103922" lon="8.1084234"><ele>785.3333333333333</ele><time>2026-05-02T09:10:50.184Z</time></trkpt><trkpt lat="44.2104662" lon="8.1084963"><ele>786.0</ele><time>2026-05-02T09:10:51.191Z</time></trkpt><trkpt lat="44.2105362" lon="8.1085667"><ele>786.6666666666667</ele><time>2026-05-02T09:10:52.192Z</time></trkpt><trkpt lat="44.2106056" lon="8.1086339"><ele>787.3333333333334</ele><time>2026-05-02T09:10:53.2Z</time></trkpt><trkpt lat="44.2106751" lon="8.1086896"><ele>788.0</ele><time>2026-05-02T09:10:54.189Z</time></trkpt><trkpt lat="44.2107389" lon="8.1087485"><ele>788.0000000000001</ele><time>2026-05-02T09:10:55.195Z</time></trkpt><trkpt lat="44.2107992" lon="8.1088008"><ele>788.0</ele><time>2026-05-02T09:10:56.196Z</time></trkpt><trkpt lat="44.2108637" lon="8.10885"><ele>788.0</ele><time>2026-05-02T09:10:57.183Z</time></trkpt><trkpt lat="44.2109272" lon="8.1089079"><ele>788.0</ele><time>2026-05-02T09:10:58.197Z</time></trkpt><trkpt lat="44.2109943" lon="8.1089617"><ele>788.0000000000001</ele><time>2026-05-02T09:10:59.187Z</time></trkpt><trkpt lat="44.2110676" lon="8.1090216"><ele>788.0</ele><time>2026-05-02T09:11:00.194Z</time></trkpt><trkpt lat="44.2111383" lon="8.1090704"><ele>786.3333333333334</ele><time>2026-05-02T09:11:01.187Z</time></trkpt><trkpt lat="44.2112072" lon="8.1091214"><ele>784.6666666666667</ele><time>2026-05-02T09:11:02.194Z</time></trkpt><trkpt lat="44.2112688" lon="8.1091642"><ele>783.0</ele><time>2026-05-02T09:11:03.193Z</time></trkpt><trkpt lat="44.2113183" lon="8.1092225"><ele>781.3333333333333</ele><time>2026-05-02T09:11:04.216Z</time></trkpt><trkpt lat="44.2114009" lon="8.1093258"><ele>779.6666666666666</ele><time>2026-05-02T09:11:06.214Z</time></trkpt><trkpt lat="44.2114663" lon="8.1094196"><ele>778.0</ele><time>2026-05-02T09:11:08.217Z</time></trkpt><trkpt lat="44.2115221" lon="8.1095075"><ele>777.9999999999999</ele><time>2026-05-02T09:11:10.196Z</time></trkpt><trkpt lat="44.211596" lon="8.1096008"><ele>778.0</ele><time>2026-05-02T09:11:12.188Z</time></trkpt><trkpt lat="44.21167" lon="8.1096807"><ele>778.0</ele><time>2026-05-02T09:11:14.182Z</time></trkpt><trkpt lat="44.2117809" lon="8.1097462"><ele>778.0</ele><time>2026-05-02T09:11:16.217Z</time></trkpt><trkpt lat="44.2118462" lon="8.1097543"><ele>777.9999999999999</ele><time>2026-05-02T09:11:17.196Z</time></trkpt><trkpt lat="44.21191" lon="8.1097443"><ele>778.0</ele><time>2026-05-02T09:11:18.215Z</time></trkpt><trkpt lat="44.2119761" lon="8.1097309"><ele>778.0</ele><time>2026-05-02T09:11:19.212Z</time></trkpt><trkpt lat="44.2121064" lon="8.1097124"><ele>778.0</ele><time>2026-05-02T09:11:21.207Z</time></trkpt><trkpt lat="44.2121709" lon="8.1097038"><ele>778.0</ele><time>2026-05-02T09:11:22.185Z</time></trkpt><trkpt lat="44.2122361" lon="8.1096856"><ele>778.0</ele><time>2026-05-02T09:11:23.204Z</time></trkpt><trkpt lat="44.212328" lon="8.1096638"><ele>778.0</ele><time>2026-05-02T09:11:25.211Z</time></trkpt><trkpt lat="44.2124313" lon="8.1096649"><ele>777.4999999999999</ele><time>2026-05-02T09:11:34.202Z</time></trkpt><trkpt lat="44.2124878" lon="8.1097341"><ele>777.0</ele><time>2026-05-02T09:11:36.186Z</time></trkpt><trkpt lat="44.2125452" lon="8.109831"><ele>776.5</ele><time>2026-05-02T09:11:38.18Z</time></trkpt><trkpt lat="44.2125696" lon="8.109927"><ele>776.0</ele><time>2026-05-02T09:11:39.182Z</time></trkpt><trkpt lat="44.2125926" lon="8.1100242"><ele>775.4999999999999</ele><time>2026-05-02T09:11:40.193Z</time></trkpt><trkpt lat="44.2126244" lon="8.1101109"><ele>775.0</ele><time>2026-05-02T09:11:41.193Z</time></trkpt><trkpt lat="44.2126578" lon="8.1101951"><ele>769.4</ele><time>2026-05-02T09:11:42.19Z</time></trkpt><trkpt lat="44.2127377" lon="8.1103178"><ele>763.8</ele><time>2026-05-02T09:11:44.215Z</time></trkpt><trkpt lat="44.2128202" lon="8.1103826"><ele>758.2</ele><time>2026-05-02T09:11:46.213Z</time></trkpt><trkpt lat="44.2129151" lon="8.1104474"><ele>752.6</ele><time>2026-05-02T09:11:48.207Z</time></trkpt><trkpt lat="44.2129803" lon="8.1104937"><ele>747.0</ele><time>2026-05-02T09:11:50.193Z</time></trkpt><trkpt lat="44.2129943" lon="8.1105804"><ele>747.0</ele><time>2026-05-02T09:11:53.188Z</time></trkpt><trkpt lat="44.2130329" lon="8.1107132"><ele>747.0</ele><time>2026-05-02T09:11:56.196Z</time></trkpt><trkpt lat="44.2130907" lon="8.1107611"><ele>747.0</ele><time>2026-05-02T09:11:58.193Z</time></trkpt><trkpt lat="44.2131737" lon="8.1107926"><ele>747.0</ele><time>2026-05-02T09:12:05.181Z</time></trkpt><trkpt lat="44.2132633" lon="8.1108791"><ele>747.0</ele><time>2026-05-02T09:12:07.18Z</time></trkpt><trkpt lat="44.2133146" lon="8.1109428"><ele>747.0</ele><time>2026-05-02T09:12:09.186Z</time></trkpt><trkpt lat="44.2133913" lon="8.1110671"><ele>743.1666666666666</ele><time>2026-05-02T09:12:11.183Z</time></trkpt><trkpt lat="44.2134482" lon="8.1111562"><ele>739.3333333333334</ele><time>2026-05-02T09:12:13.184Z</time></trkpt><trkpt lat="44.2135222" lon="8.1112137"><ele>735.5</ele><time>2026-05-02T09:12:15.183Z</time></trkpt><trkpt lat="44.2136075" lon="8.111237"><ele>731.6666666666667</ele><time>2026-05-02T09:12:17.183Z</time></trkpt><trkpt lat="44.2136828" lon="8.1111992"><ele>727.8333333333334</ele><time>2026-05-02T09:12:22.206Z</time></trkpt><trkpt lat="44.21378" lon="8.1112409"><ele>724.0</ele><time>2026-05-02T09:12:24.183Z</time></trkpt><trkpt lat="44.2138366" lon="8.1113624"><ele>724.0</ele><time>2026-05-02T09:12:26.216Z</time></trkpt><trkpt lat="44.2138745" lon="8.1114472"><ele>724.0</ele><time>2026-05-02T09:12:28.183Z</time></trkpt><trkpt lat="44.2139201" lon="8.111538"><ele>724.0</ele><time>2026-05-02T09:12:30.183Z</time></trkpt><trkpt lat="44.2139816" lon="8.1116005"><ele>724.0</ele><time>2026-05-02T09:12:32.205Z</time></trkpt><trkpt lat="44.2140422" lon="8.1116423"><ele>724.0</ele><time>2026-05-02T09:12:34.209Z</time></trkpt><trkpt lat="44.2141064" lon="8.1117021"><ele>724.0</ele><time>2026-05-02T09:12:36.187Z</time></trkpt><trkpt lat="44.2141517" lon="8.1117967"><ele>720.1666666666667</ele><time>2026-05-02T09:12:38.186Z</time></trkpt><trkpt lat="44.2141449" lon="8.1119076"><ele>716.3333333333334</ele><time>2026-05-02T09:12:40.184Z</time></trkpt><trkpt lat="44.2141164" lon="8.1120156"><ele>712.5</ele><time>2026-05-02T09:12:42.18Z</time></trkpt><trkpt lat="44.2140565" lon="8.1121101"><ele>708.6666666666666</ele><time>2026-05-02T09:12:44.185Z</time></trkpt><trkpt lat="44.2139872" lon="8.112179"><ele>704.8333333333333</ele><time>2026-05-02T09:12:46.203Z</time></trkpt><trkpt lat="44.2139337" lon="8.1122549"><ele>701.0</ele><time>2026-05-02T09:12:48.187Z</time></trkpt><trkpt lat="44.2138979" lon="8.1123661"><ele>696.6666666666666</ele><time>2026-05-02T09:12:50.182Z</time></trkpt><trkpt lat="44.2138579" lon="8.1124587"><ele>692.3333333333333</ele><time>2026-05-02T09:12:52.193Z</time></trkpt><trkpt lat="44.2137863" lon="8.1124797"><ele>688.0</ele><time>2026-05-02T09:12:54.191Z</time></trkpt><trkpt lat="44.2137006" lon="8.1125012"><ele>683.6666666666666</ele><time>2026-05-02T09:12:56.189Z</time></trkpt><trkpt lat="44.2136363" lon="8.1125674"><ele>679.3333333333334</ele><time>2026-05-02T09:12:58.19Z</time></trkpt><trkpt lat="44.2135932" lon="8.1126953"><ele>675.0</ele><time>2026-05-02T09:13:00.189Z</time></trkpt><trkpt lat="44.2135656" lon="8.1128717"><ele>675.0</ele><time>2026-05-02T09:13:02.19Z</time></trkpt><trkpt lat="44.2135525" lon="8.1129686"><ele>675.0</ele><time>2026-05-02T09:13:03.187Z</time></trkpt><trkpt lat="44.2135412" lon="8.1130756"><ele>675.0</ele><time>2026-05-02T09:13:04.186Z</time></trkpt><trkpt lat="44.2135197" lon="8.1131826"><ele>675.0</ele><time>2026-05-02T09:13:05.19Z</time></trkpt><trkpt lat="44.2134958" lon="8.1132855"><ele>675.0</ele><time>2026-05-02T09:13:06.185Z</time></trkpt><trkpt lat="44.2134788" lon="8.1133911"><ele>675.0</ele><time>2026-05-02T09:13:07.185Z</time></trkpt><trkpt lat="44.2134599" lon="8.1134915"><ele>674.3333333333334</ele><time>2026-05-02T09:13:08.185Z</time></trkpt><trkpt lat="44.2134431" lon="8.113601"><ele>673.6666666666666</ele><time>2026-05-02T09:13:09.185Z</time></trkpt><trkpt lat="44.2134197" lon="8.113714"><ele>673.0</ele><time>2026-05-02T09:13:10.195Z</time></trkpt><trkpt lat="44.2133954" lon="8.113821"><ele>672.3333333333333</ele><time>2026-05-02T09:13:11.194Z</time></trkpt><trkpt lat="44.2133729" lon="8.1139182"><ele>671.6666666666666</ele><time>2026-05-02T09:13:12.194Z</time></trkpt><trkpt lat="44.2133505" lon="8.1140156"><ele>671.0</ele><time>2026-05-02T09:13:13.195Z</time></trkpt><trkpt lat="44.2133284" lon="8.11411"><ele>670.6666666666666</ele><time>2026-05-02T09:13:14.197Z</time></trkpt><trkpt lat="44.2132891" lon="8.1142576"><ele>670.3333333333333</ele><time>2026-05-02T09:13:16.197Z</time></trkpt><trkpt lat="44.213262" lon="8.1143885"><ele>670.0</ele><time>2026-05-02T09:13:18.193Z</time></trkpt><trkpt lat="44.2132484" lon="8.1144791"><ele>669.6666666666666</ele><time>2026-05-02T09:13:20.194Z</time></trkpt><trkpt lat="44.2132183" lon="8.1145567"><ele>669.3333333333334</ele><time>2026-05-02T09:13:31.209Z</time></trkpt><trkpt lat="44.2131989" lon="8.1146604"><ele>669.0</ele><time>2026-05-02T09:13:36.202Z</time></trkpt><trkpt lat="44.2131957" lon="8.1147817"><ele>670.4000000000001</ele><time>2026-05-02T09:13:39.2Z</time></trkpt><trkpt lat="44.213265" lon="8.1149045"><ele>671.8</ele><time>2026-05-02T09:13:41.205Z</time></trkpt><trkpt lat="44.2133342" lon="8.1149677"><ele>673.2</ele><time>2026-05-02T09:13:42.225Z</time></trkpt><trkpt lat="44.2134147" lon="8.1150449"><ele>674.5999999999999</ele><time>2026-05-02T09:13:43.211Z</time></trkpt><trkpt lat="44.2135017" lon="8.1151321"><ele>676.0</ele><time>2026-05-02T09:13:44.219Z</time></trkpt><trkpt lat="44.2135935" lon="8.1152319"><ele>676.0</ele><time>2026-05-02T09:13:45.218Z</time></trkpt><trkpt lat="44.2136889" lon="8.1153408"><ele>676.0</ele><time>2026-05-02T09:13:46.192Z</time></trkpt><trkpt lat="44.2137895" lon="8.1154563"><ele>676.0</ele><time>2026-05-02T09:13:47.193Z</time></trkpt><trkpt lat="44.2138884" lon="8.1155752"><ele>676.0</ele><time>2026-05-02T09:13:48.187Z</time></trkpt><trkpt lat="44.2139895" lon="8.1156983"><ele>677.0</ele><time>2026-05-02T09:13:49.192Z</time></trkpt><trkpt lat="44.2140997" lon="8.1158225"><ele>678.0</ele><time>2026-05-02T09:13:50.188Z</time></trkpt><trkpt lat="44.2142133" lon="8.1159392"><ele>679.0</ele><time>2026-05-02T09:13:51.192Z</time></trkpt><trkpt lat="44.214336" lon="8.1160613"><ele>680.0</ele><time>2026-05-02T09:13:52.205Z</time></trkpt><trkpt lat="44.2144742" lon="8.1161473"><ele>680.0</ele><time>2026-05-02T09:13:53.189Z</time></trkpt><trkpt lat="44.2146335" lon="8.1161654"><ele>680.0</ele><time>2026-05-02T09:13:54.218Z</time></trkpt><trkpt lat="44.2147965" lon="8.1161491"><ele>680.0</ele><time>2026-05-02T09:13:55.218Z</time></trkpt><trkpt lat="44.2149658" lon="8.1161054"><ele>677.0</ele><time>2026-05-02T09:13:56.218Z</time></trkpt><trkpt lat="44.2151258" lon="8.116053"><ele>674.0</ele><time>2026-05-02T09:13:57.214Z</time></trkpt><trkpt lat="44.2152792" lon="8.1160143"><ele>671.0</ele><time>2026-05-02T09:13:58.222Z</time></trkpt><trkpt lat="44.2154328" lon="8.1159979"><ele>671.0</ele><time>2026-05-02T09:13:59.228Z</time></trkpt><trkpt lat="44.2155929" lon="8.1160022"><ele>671.0</ele><time>2026-05-02T09:14:00.213Z</time></trkpt><trkpt lat="44.2157498" lon="8.1160297"><ele>671.0</ele><time>2026-05-02T09:14:01.218Z</time></trkpt><trkpt lat="44.2159076" lon="8.1160736"><ele>671.0</ele><time>2026-05-02T09:14:02.214Z</time></trkpt><trkpt lat="44.2160593" lon="8.1161364"><ele>671.0</ele><time>2026-05-02T09:14:03.193Z</time></trkpt><trkpt lat="44.2162265" lon="8.1161961"><ele>671.0</ele><time>2026-05-02T09:14:04.209Z</time></trkpt><trkpt lat="44.2163816" lon="8.1162408"><ele>670.0</ele><time>2026-05-02T09:14:05.208Z</time></trkpt><trkpt lat="44.2165185" lon="8.1162664"><ele>669.0</ele><time>2026-05-02T09:14:06.206Z</time></trkpt><trkpt lat="44.216652" lon="8.1162792"><ele>668.0</ele><time>2026-05-02T09:14:07.218Z</time></trkpt><trkpt lat="44.216781" lon="8.1162719"><ele>667.0</ele><time>2026-05-02T09:14:08.213Z</time></trkpt><trkpt lat="44.2169363" lon="8.1162693"><ele>667.0</ele><time>2026-05-02T09:14:09.213Z</time></trkpt><trkpt lat="44.2170998" lon="8.1162607"><ele>667.0</ele><time>2026-05-02T09:14:10.209Z</time></trkpt><trkpt lat="44.2172709" lon="8.1162459"><ele>667.0</ele><time>2026-05-02T09:14:11.206Z</time></trkpt><trkpt lat="44.217435" lon="8.1162093"><ele>668.3333333333334</ele><time>2026-05-02T09:14:12.215Z</time></trkpt><trkpt lat="44.2176016" lon="8.1161129"><ele>669.6666666666666</ele><time>2026-05-02T09:14:13.212Z</time></trkpt><trkpt lat="44.2177436" lon="8.1159874"><ele>671.0</ele><time>2026-05-02T09:14:14.213Z</time></trkpt><trkpt lat="44.2178791" lon="8.1158565"><ele>669.6666666666666</ele><time>2026-05-02T09:14:15.213Z</time></trkpt><trkpt lat="44.2180386" lon="8.1157326"><ele>668.3333333333334</ele><time>2026-05-02T09:14:16.215Z</time></trkpt><trkpt lat="44.218192" lon="8.1156212"><ele>667.0</ele><time>2026-05-02T09:14:17.216Z</time></trkpt><trkpt lat="44.2183497" lon="8.1155079"><ele>666.6666666666667</ele><time>2026-05-02T09:14:18.215Z</time></trkpt><trkpt lat="44.2185052" lon="8.1154074"><ele>666.3333333333334</ele><time>2026-05-02T09:14:19.218Z</time></trkpt><trkpt lat="44.2186614" lon="8.1152926"><ele>666.0</ele><time>2026-05-02T09:14:20.219Z</time></trkpt><trkpt lat="44.2188173" lon="8.1151754"><ele>666.0</ele><time>2026-05-02T09:14:21.223Z</time></trkpt><trkpt lat="44.2189788" lon="8.1150573"><ele>666.0</ele><time>2026-05-02T09:14:22.218Z</time></trkpt><trkpt lat="44.2191391" lon="8.1149388"><ele>666.0</ele><time>2026-05-02T09:14:23.23Z</time></trkpt><trkpt lat="44.2192896" lon="8.1148434"><ele>665.0</ele><time>2026-05-02T09:14:24.23Z</time></trkpt><trkpt lat="44.2194357" lon="8.1147606"><ele>664.0</ele><time>2026-05-02T09:14:25.226Z</time></trkpt><trkpt lat="44.2195785" lon="8.1147217"><ele>663.0</ele><time>2026-05-02T09:14:26.235Z</time></trkpt><trkpt lat="44.2197139" lon="8.1147416"><ele>662.0</ele><time>2026-05-02T09:14:27.231Z</time></trkpt><trkpt lat="44.2198422" lon="8.1148068"><ele>663.0</ele><time>2026-05-02T09:14:28.236Z</time></trkpt><trkpt lat="44.2199625" lon="8.1149397"><ele>664.0</ele><time>2026-05-02T09:14:29.229Z</time></trkpt><trkpt lat="44.220073" lon="8.1151099"><ele>665.0</ele><time>2026-05-02T09:14:30.227Z</time></trkpt><trkpt lat="44.2201796" lon="8.1152727"><ele>665.0</ele><time>2026-05-02T09:14:31.203Z</time></trkpt><trkpt lat="44.2202885" lon="8.115437"><ele>665.0</ele><time>2026-05-02T09:14:32.208Z</time></trkpt><trkpt lat="44.2204096" lon="8.1156048"><ele>665.0</ele><time>2026-05-02T09:14:33.204Z</time></trkpt><trkpt lat="44.2205297" lon="8.1157572"><ele>665.0</ele><time>2026-05-02T09:14:34.207Z</time></trkpt><trkpt lat="44.2206374" lon="8.115931"><ele>665.0</ele><time>2026-05-02T09:14:35.203Z</time></trkpt><trkpt lat="44.2207413" lon="8.1161068"><ele>665.0</ele><time>2026-05-02T09:14:36.205Z</time></trkpt><trkpt lat="44.2208308" lon="8.1163047"><ele>665.0</ele><time>2026-05-02T09:14:37.221Z</time></trkpt><trkpt lat="44.2209148" lon="8.1165018"><ele>665.0</ele><time>2026-05-02T09:14:38.224Z</time></trkpt><trkpt lat="44.221001" lon="8.1167067"><ele>665.0</ele><time>2026-05-02T09:14:39.224Z</time></trkpt><trkpt lat="44.2210916" lon="8.1169188"><ele>667.3333333333333</ele><time>2026-05-02T09:14:40.216Z</time></trkpt><trkpt lat="44.2211704" lon="8.1171365"><ele>669.6666666666666</ele><time>2026-05-02T09:14:41.215Z</time></trkpt><trkpt lat="44.2212552" lon="8.1173402"><ele>672.0</ele><time>2026-05-02T09:14:42.197Z</time></trkpt><trkpt lat="44.2213459" lon="8.1175252"><ele>673.6666666666666</ele><time>2026-05-02T09:14:43.192Z</time></trkpt><trkpt lat="44.2214468" lon="8.1177054"><ele>675.3333333333333</ele><time>2026-05-02T09:14:44.197Z</time></trkpt><trkpt lat="44.2215637" lon="8.1178768"><ele>677.0</ele><time>2026-05-02T09:14:45.195Z</time></trkpt><trkpt lat="44.2216824" lon="8.118049"><ele>674.3333333333333</ele><time>2026-05-02T09:14:46.195Z</time></trkpt><trkpt lat="44.2217972" lon="8.1182045"><ele>671.6666666666666</ele><time>2026-05-02T09:14:47.2Z</time></trkpt><trkpt lat="44.2219161" lon="8.118346"><ele>669.0</ele><time>2026-05-02T09:14:48.194Z</time></trkpt><trkpt lat="44.2220644" lon="8.1184627"><ele>669.0</ele><time>2026-05-02T09:14:49.199Z</time></trkpt><trkpt lat="44.2222327" lon="8.1185542"><ele>669.0</ele><time>2026-05-02T09:14:50.197Z</time></trkpt><trkpt lat="44.2223937" lon="8.1186384"><ele>669.0</ele><time>2026-05-02T09:14:51.203Z</time></trkpt><trkpt lat="44.2225562" lon="8.1187245"><ele>666.0</ele><time>2026-05-02T09:14:52.197Z</time></trkpt><trkpt lat="44.2227157" lon="8.1188266"><ele>663.0</ele><time>2026-05-02T09:14:53.204Z</time></trkpt><trkpt lat="44.222877" lon="8.1189313"><ele>660.0</ele><time>2026-05-02T09:14:54.201Z</time></trkpt><trkpt lat="44.2230379" lon="8.1190223"><ele>660.0</ele><time>2026-05-02T09:14:55.204Z</time></trkpt><trkpt lat="44.2231885" lon="8.1191282"><ele>660.0</ele><time>2026-05-02T09:14:56.227Z</time></trkpt><trkpt lat="44.2233554" lon="8.1192361"><ele>660.0</ele><time>2026-05-02T09:14:57.226Z</time></trkpt><trkpt lat="44.2235172" lon="8.1193457"><ele>660.0</ele><time>2026-05-02T09:14:58.231Z</time></trkpt><trkpt lat="44.2236743" lon="8.1194585"><ele>660.0</ele><time>2026-05-02T09:14:59.205Z</time></trkpt><trkpt lat="44.2238306" lon="8.1195681"><ele>660.0</ele><time>2026-05-02T09:15:00.209Z</time></trkpt><trkpt lat="44.2239725" lon="8.1196646"><ele>659.6666666666666</ele><time>2026-05-02T09:15:01.206Z</time></trkpt><trkpt lat="44.2241172" lon="8.1197577"><ele>659.3333333333333</ele><time>2026-05-02T09:15:02.203Z</time></trkpt><trkpt lat="44.2242657" lon="8.119854"><ele>659.0</ele><time>2026-05-02T09:15:03.21Z</time></trkpt><trkpt lat="44.2243974" lon="8.1199355"><ele>659.0</ele><time>2026-05-02T09:15:04.235Z</time></trkpt><trkpt lat="44.2245311" lon="8.1200182"><ele>659.0</ele><time>2026-05-02T09:15:05.23Z</time></trkpt><trkpt lat="44.2246624" lon="8.1201018"><ele>659.0</ele><time>2026-05-02T09:15:06.232Z</time></trkpt><trkpt lat="44.2247958" lon="8.120191"><ele>659.0</ele><time>2026-05-02T09:15:07.227Z</time></trkpt><trkpt lat="44.2249249" lon="8.1202724"><ele>658.0</ele><time>2026-05-02T09:15:08.204Z</time></trkpt><trkpt lat="44.2250669" lon="8.1203607"><ele>657.0</ele><time>2026-05-02T09:15:09.207Z</time></trkpt><trkpt lat="44.2252125" lon="8.1204166"><ele>656.0</ele><time>2026-05-02T09:15:10.2Z</time></trkpt><trkpt lat="44.2253613" lon="8.1204244"><ele>656.0</ele><time>2026-05-02T09:15:11.206Z</time></trkpt><trkpt lat="44.2255231" lon="8.1204026"><ele>656.0</ele><time>2026-05-02T09:15:12.224Z</time></trkpt><trkpt lat="44.2256838" lon="8.1203434"><ele>656.0</ele><time>2026-05-02T09:15:13.223Z</time></trkpt><trkpt lat="44.2258336" lon="8.1202402"><ele>656.0</ele><time>2026-05-02T09:15:14.216Z</time></trkpt><trkpt lat="44.2259445" lon="8.1201077"><ele>656.0</ele><time>2026-05-02T09:15:15.213Z</time></trkpt><trkpt lat="44.2260341" lon="8.1199292"><ele>656.0</ele><time>2026-05-02T09:15:16.193Z</time></trkpt><trkpt lat="44.2261208" lon="8.1197354"><ele>656.25</ele><time>2026-05-02T09:15:17.224Z</time></trkpt><trkpt lat="44.2262146" lon="8.1195631"><ele>656.5</ele><time>2026-05-02T09:15:18.221Z</time></trkpt><trkpt lat="44.2263092" lon="8.1194148"><ele>656.75</ele><time>2026-05-02T09:15:19.223Z</time></trkpt><trkpt lat="44.2264176" lon="8.1192798"><ele>657.0</ele><time>2026-05-02T09:15:20.22Z</time></trkpt><trkpt lat="44.2265339" lon="8.1191551"><ele>656.25</ele><time>2026-05-02T09:15:21.228Z</time></trkpt><trkpt lat="44.2266523" lon="8.1190378"><ele>655.5</ele><time>2026-05-02T09:15:22.226Z</time></trkpt><trkpt lat="44.2267734" lon="8.1189313"><ele>654.75</ele><time>2026-05-02T09:15:23.211Z</time></trkpt><trkpt lat="44.2268958" lon="8.1188157"><ele>654.0</ele><time>2026-05-02T09:15:24.236Z</time></trkpt><trkpt lat="44.2270187" lon="8.1186981"><ele>654.0</ele><time>2026-05-02T09:15:25.229Z</time></trkpt><trkpt lat="44.2271362" lon="8.1185767"><ele>654.0</ele><time>2026-05-02T09:15:26.234Z</time></trkpt><trkpt lat="44.227256" lon="8.1184515"><ele>654.0</ele><time>2026-05-02T09:15:27.233Z</time></trkpt><trkpt lat="44.2273816" lon="8.1183297"><ele>654.0</ele><time>2026-05-02T09:15:28.237Z</time></trkpt><trkpt lat="44.2275202" lon="8.1182168"><ele>655.6666666666666</ele><time>2026-05-02T09:15:29.235Z</time></trkpt><trkpt lat="44.2276683" lon="8.1181324"><ele>657.3333333333333</ele><time>2026-05-02T09:15:30.227Z</time></trkpt><trkpt lat="44.2278254" lon="8.1180796"><ele>659.0</ele><time>2026-05-02T09:15:31.233Z</time></trkpt><trkpt lat="44.2279994" lon="8.1180695"><ele>657.6666666666666</ele><time>2026-05-02T09:15:32.226Z</time></trkpt><trkpt lat="44.2281751" lon="8.1180933"><ele>656.3333333333334</ele><time>2026-05-02T09:15:33.228Z</time></trkpt><trkpt lat="44.2283548" lon="8.1181237"><ele>655.0</ele><time>2026-05-02T09:15:34.21Z</time></trkpt><trkpt lat="44.2285352" lon="8.1181406"><ele>655.0</ele><time>2026-05-02T09:15:35.23Z</time></trkpt><trkpt lat="44.2287165" lon="8.1181585"><ele>655.0</ele><time>2026-05-02T09:15:36.229Z</time></trkpt><trkpt lat="44.2288955" lon="8.1181696"><ele>655.0</ele><time>2026-05-02T09:15:37.229Z</time></trkpt><trkpt lat="44.2290736" lon="8.1181879"><ele>654.3333333333334</ele><time>2026-05-02T09:15:38.208Z</time></trkpt><trkpt lat="44.2292508" lon="8.1182069"><ele>653.6666666666666</ele><time>2026-05-02T09:15:39.207Z</time></trkpt><trkpt lat="44.2294229" lon="8.1182277"><ele>653.0</ele><time>2026-05-02T09:15:40.208Z</time></trkpt><trkpt lat="44.229599" lon="8.1182485"><ele>653.0</ele><time>2026-05-02T09:15:41.208Z</time></trkpt><trkpt lat="44.2297722" lon="8.1182846"><ele>653.0</ele><time>2026-05-02T09:15:42.231Z</time></trkpt><trkpt lat="44.2299479" lon="8.1183178"><ele>653.0</ele><time>2026-05-02T09:15:43.227Z</time></trkpt><trkpt lat="44.2301223" lon="8.118346"><ele>652.5</ele><time>2026-05-02T09:15:44.2Z</time></trkpt><trkpt lat="44.2302897" lon="8.1183426"><ele>652.0</ele><time>2026-05-02T09:15:45.198Z</time></trkpt><trkpt lat="44.2304386" lon="8.1183062"><ele>651.5</ele><time>2026-05-02T09:15:46.197Z</time></trkpt><trkpt lat="44.2305633" lon="8.1182601"><ele>651.0</ele><time>2026-05-02T09:15:47.197Z</time></trkpt><trkpt lat="44.2306736" lon="8.1182131"><ele>651.0</ele><time>2026-05-02T09:15:48.224Z</time></trkpt><trkpt lat="44.230777" lon="8.1181842"><ele>651.0</ele><time>2026-05-02T09:15:49.226Z</time></trkpt><trkpt lat="44.2308686" lon="8.1181564"><ele>651.0</ele><time>2026-05-02T09:15:50.225Z</time></trkpt><trkpt lat="44.2309584" lon="8.1181258"><ele>651.0</ele><time>2026-05-02T09:15:51.216Z</time></trkpt><trkpt lat="44.2310618" lon="8.1181091"><ele>651.0</ele><time>2026-05-02T09:15:52.224Z</time></trkpt><trkpt lat="44.2311732" lon="8.1180825"><ele>651.0</ele><time>2026-05-02T09:15:53.225Z</time></trkpt><trkpt lat="44.2312926" lon="8.1180503"><ele>651.0</ele><time>2026-05-02T09:15:54.226Z</time></trkpt><trkpt lat="44.2314135" lon="8.1180264"><ele>651.0</ele><time>2026-05-02T09:15:55.218Z</time></trkpt><trkpt lat="44.2315411" lon="8.1180087"><ele>651.0</ele><time>2026-05-02T09:15:56.22Z</time></trkpt><trkpt lat="44.2316695" lon="8.1179895"><ele>650.5</ele><time>2026-05-02T09:15:57.224Z</time></trkpt><trkpt lat="44.2318052" lon="8.1179656"><ele>650.0</ele><time>2026-05-02T09:15:58.232Z</time></trkpt><trkpt lat="44.2319458" lon="8.1179387"><ele>649.5</ele><time>2026-05-02T09:15:59.229Z</time></trkpt><trkpt lat="44.232088" lon="8.1179216"><ele>649.0</ele><time>2026-05-02T09:16:00.226Z</time></trkpt><trkpt lat="44.2322381" lon="8.117901"><ele>648.6666666666667</ele><time>2026-05-02T09:16:01.226Z</time></trkpt><trkpt lat="44.2323966" lon="8.1178785"><ele>648.3333333333334</ele><time>2026-05-02T09:16:02.222Z</time></trkpt><trkpt lat="44.2325526" lon="8.1178646"><ele>648.0</ele><time>2026-05-02T09:16:03.225Z</time></trkpt><trkpt lat="44.2326979" lon="8.1178377"><ele>648.0</ele><time>2026-05-02T09:16:04.226Z</time></trkpt><trkpt lat="44.2328436" lon="8.1178224"><ele>648.0</ele><time>2026-05-02T09:16:05.204Z</time></trkpt><trkpt lat="44.2329941" lon="8.1177892"><ele>648.0</ele><time>2026-05-02T09:16:06.223Z</time></trkpt><trkpt lat="44.2331533" lon="8.1177547"><ele>648.25</ele><time>2026-05-02T09:16:07.231Z</time></trkpt><trkpt lat="44.2333004" lon="8.1177122"><ele>648.5</ele><time>2026-05-02T09:16:08.231Z</time></trkpt><trkpt lat="44.2334403" lon="8.1176813"><ele>648.75</ele><time>2026-05-02T09:16:09.21Z</time></trkpt><trkpt lat="44.2335783" lon="8.1176578"><ele>649.0</ele><time>2026-05-02T09:16:10.232Z</time></trkpt><trkpt lat="44.2337159" lon="8.1176293"><ele>649.0</ele><time>2026-05-02T09:16:11.232Z</time></trkpt><trkpt lat="44.2338635" lon="8.117604"><ele>649.0</ele><time>2026-05-02T09:16:12.234Z</time></trkpt><trkpt lat="44.234013" lon="8.1175849"><ele>649.0</ele><time>2026-05-02T09:16:13.2Z</time></trkpt><trkpt lat="44.2341585" lon="8.1175715"><ele>649.0</ele><time>2026-05-02T09:16:14.204Z</time></trkpt><trkpt lat="44.2343032" lon="8.117568"><ele>648.75</ele><time>2026-05-02T09:16:15.228Z</time></trkpt><trkpt lat="44.2344385" lon="8.1175756"><ele>648.5</ele><time>2026-05-02T09:16:16.2Z</time></trkpt><trkpt lat="44.2345698" lon="8.1176017"><ele>648.25</ele><time>2026-05-02T09:16:17.201Z</time></trkpt><trkpt lat="44.2347023" lon="8.1176407"><ele>648.0</ele><time>2026-05-02T09:16:18.228Z</time></trkpt><trkpt lat="44.2348274" lon="8.1176867"><ele>647.75</ele><time>2026-05-02T09:16:19.208Z</time></trkpt><trkpt lat="44.2349582" lon="8.1177255"><ele>647.5</ele><time>2026-05-02T09:16:20.204Z</time></trkpt><trkpt lat="44.2350898" lon="8.1177441"><ele>647.25</ele><time>2026-05-02T09:16:21.214Z</time></trkpt><trkpt lat="44.2352204" lon="8.1177395"><ele>647.0</ele><time>2026-05-02T09:16:22.221Z</time></trkpt><trkpt lat="44.2353611" lon="8.1176913"><ele>647.0</ele><time>2026-05-02T09:16:23.223Z</time></trkpt><trkpt lat="44.2354942" lon="8.117587"><ele>647.0</ele><time>2026-05-02T09:16:24.221Z</time></trkpt><trkpt lat="44.2356064" lon="8.1174539"><ele>647.0</ele><time>2026-05-02T09:16:25.196Z</time></trkpt><trkpt lat="44.2357139" lon="8.117347"><ele>647.0</ele><time>2026-05-02T09:16:26.209Z</time></trkpt><trkpt lat="44.2358186" lon="8.1172684"><ele>646.6</ele><time>2026-05-02T09:16:27.225Z</time></trkpt><trkpt lat="44.2359084" lon="8.1171786"><ele>646.2</ele><time>2026-05-02T09:16:28.229Z</time></trkpt><trkpt lat="44.2359932" lon="8.1170877"><ele>645.8</ele><time>2026-05-02T09:16:29.229Z</time></trkpt><trkpt lat="44.2360714" lon="8.117021"><ele>645.4</ele><time>2026-05-02T09:16:30.229Z</time></trkpt><trkpt lat="44.2361423" lon="8.116951"><ele>645.0</ele><time>2026-05-02T09:16:31.232Z</time></trkpt><trkpt lat="44.2362087" lon="8.1168837"><ele>645.0</ele><time>2026-05-02T09:16:32.232Z</time></trkpt><trkpt lat="44.2362732" lon="8.1168196"><ele>645.0</ele><time>2026-05-02T09:16:33.233Z</time></trkpt><trkpt lat="44.2363371" lon="8.1167612"><ele>645.0</ele><time>2026-05-02T09:16:34.232Z</time></trkpt><trkpt lat="44.2363958" lon="8.1167075"><ele>645.0</ele><time>2026-05-02T09:16:35.227Z</time></trkpt><trkpt lat="44.2364928" lon="8.1166217"><ele>645.0</ele><time>2026-05-02T09:16:37.228Z</time></trkpt><trkpt lat="44.2365529" lon="8.1165721"><ele>645.0</ele><time>2026-05-02T09:16:39.229Z</time></trkpt><trkpt lat="44.2366196" lon="8.1165361"><ele>645.1666666666666</ele><time>2026-05-02T09:16:42.231Z</time></trkpt><trkpt lat="44.2366872" lon="8.116575"><ele>645.3333333333334</ele><time>2026-05-02T09:16:45.233Z</time></trkpt><trkpt lat="44.2367443" lon="8.116663"><ele>645.5</ele><time>2026-05-02T09:16:48.198Z</time></trkpt><trkpt lat="44.2367407" lon="8.1167898"><ele>645.6666666666667</ele><time>2026-05-02T09:16:51.205Z</time></trkpt><trkpt lat="44.236719" lon="8.1169096"><ele>645.8333333333334</ele><time>2026-05-02T09:16:54.2Z</time></trkpt><trkpt lat="44.2367873" lon="8.1168504"><ele>646.0</ele><time>2026-05-02T09:17:05.229Z</time></trkpt><trkpt lat="44.236848" lon="8.116802"><ele>646.0000000000001</ele><time>2026-05-02T09:17:08.217Z</time></trkpt><trkpt lat="44.2367726" lon="8.1167767"><ele>646.0</ele><time>2026-05-02T09:17:18.22Z</time></trkpt><trkpt lat="44.2367061" lon="8.1167779"><ele>646.0</ele><time>2026-05-02T09:17:22.217Z</time></trkpt><trkpt lat="44.2366327" lon="8.1167893"><ele>646.0</ele><time>2026-05-02T09:17:38.198Z</time></trkpt><trkpt lat="44.2365849" lon="8.1167284"><ele>646.0</ele><time>2026-05-02T09:19:01.215Z</time></trkpt><trkpt lat="44.236512" lon="8.1167533"><ele>646.0000000000001</ele><time>2026-05-02T09:22:15.188Z</time></trkpt><trkpt lat="44.2364542" lon="8.1167978"><ele>646.0</ele><time>2026-05-02T09:22:19.19Z</time></trkpt><trkpt lat="44.2363992" lon="8.1168588"><ele>645.75</ele><time>2026-05-02T09:22:25.196Z</time></trkpt><trkpt lat="44.2363431" lon="8.1169059"><ele>645.5</ele><time>2026-05-02T09:22:30.19Z</time></trkpt><trkpt lat="44.2362825" lon="8.116973"><ele>645.25</ele><time>2026-05-02T09:22:35.191Z</time></trkpt><trkpt lat="44.2364258" lon="8.117129"><ele>645.0</ele><time>2026-05-02T09:23:13.059Z</time></trkpt><trkpt lat="44.2381702" lon="8.1142542"><ele>644.25</ele><time>2026-05-02T09:23:39.174Z</time></trkpt><trkpt lat="44.2380961" lon="8.1143944"><ele>643.5</ele><time>2026-05-02T09:24:13.177Z</time></trkpt><trkpt lat="44.2380426" lon="8.1144954"><ele>642.75</ele><time>2026-05-02T09:24:14.176Z</time></trkpt><trkpt lat="44.2379029" lon="8.11472"><ele>642.0</ele><time>2026-05-02T09:24:31.179Z</time></trkpt><trkpt lat="44.2377596" lon="8.1149989"><ele>642.0</ele><time>2026-05-02T09:24:32.179Z</time></trkpt><trkpt lat="44.2375943" lon="8.1152895"><ele>642.0</ele><time>2026-05-02T09:24:35.18Z</time></trkpt><trkpt lat="44.2364166" lon="8.1171217"><ele>645.0</ele><time>2026-05-02T09:25:01.255Z</time></trkpt><trkpt lat="44.2364587" lon="8.1169825"><ele>645.0</ele><time>2026-05-02T09:26:57.004Z</time></trkpt></trkseg><trkseg><trkpt lat="44.3153536" lon="8.1608651"><ele>522.0</ele><time>2026-05-02T11:34:15.079Z</time></trkpt><trkpt lat="44.3152742" lon="8.1609097"><ele>522.0</ele><time>2026-05-02T11:34:18.099Z</time></trkpt><trkpt lat="44.3152307" lon="8.1610458"><ele>522.0</ele><time>2026-05-02T11:34:20.084Z</time></trkpt><trkpt lat="44.3152689" lon="8.1609622"><ele>522.0</ele><time>2026-05-02T11:34:23.086Z</time></trkpt><trkpt lat="44.3152307" lon="8.1610701"><ele>522.0</ele><time>2026-05-02T11:34:24.084Z</time></trkpt><trkpt lat="44.3152664" lon="8.1609885"><ele>522.0</ele><time>2026-05-02T11:34:38.083Z</time></trkpt><trkpt lat="44.3152827" lon="8.1608907"><ele>522.0</ele><time>2026-05-02T11:34:43.091Z</time></trkpt><trkpt lat="44.3153038" lon="8.1607807"><ele>522.0</ele><time>2026-05-02T11:34:48.092Z</time></trkpt><trkpt lat="44.3153353" lon="8.1607013"><ele>522.0</ele><time>2026-05-02T11:34:52.096Z</time></trkpt><trkpt lat="44.3153976" lon="8.1605875"><ele>522.0</ele><time>2026-05-02T11:35:36.098Z</time></trkpt><trkpt lat="44.3153363" lon="8.1606201"><ele>522.0</ele><time>2026-05-02T11:35:49.094Z</time></trkpt><trkpt lat="44.3152748" lon="8.160651"><ele>522.0</ele><time>2026-05-02T11:35:52.097Z</time></trkpt><trkpt lat="44.3152101" lon="8.1606786"><ele>522.0</ele><time>2026-05-02T11:35:57.106Z</time></trkpt><trkpt lat="44.3151437" lon="8.1606619"><ele>521.4</ele><time>2026-05-02T11:36:06.098Z</time></trkpt><trkpt lat="44.3150724" lon="8.1606513"><ele>520.8000000000001</ele><time>2026-05-02T11:38:34.126Z</time></trkpt><trkpt lat="44.3149723" lon="8.1606084"><ele>520.2</ele><time>2026-05-02T11:38:47.13Z</time></trkpt><trkpt lat="44.3148864" lon="8.160504"><ele>519.6</ele><time>2026-05-02T11:38:49.132Z</time></trkpt><trkpt lat="44.3147862" lon="8.16037"><ele>519.0</ele><time>2026-05-02T11:38:51.126Z</time></trkpt><trkpt lat="44.3147204" lon="8.1602829"><ele>519.0</ele><time>2026-05-02T11:38:52.133Z</time></trkpt><trkpt lat="44.3146408" lon="8.1601705"><ele>519.0</ele><time>2026-05-02T11:38:53.138Z</time></trkpt><trkpt lat="44.3145593" lon="8.1600565"><ele>519.0</ele><time>2026-05-02T11:38:54.137Z</time></trkpt><trkpt lat="44.3144766" lon="8.1599425"><ele>519.0</ele><time>2026-05-02T11:38:55.128Z</time></trkpt><trkpt lat="44.3143969" lon="8.1598282"><ele>522.5</ele><time>2026-05-02T11:38:56.138Z</time></trkpt><trkpt lat="44.3143103" lon="8.1597199"><ele>526.0</ele><time>2026-05-02T11:38:57.138Z</time></trkpt><trkpt lat="44.3142264" lon="8.1596124"><ele>529.5</ele><time>2026-05-02T11:38:58.139Z</time></trkpt><trkpt lat="44.3141341" lon="8.1595096"><ele>533.0</ele><time>2026-05-02T11:38:59.134Z</time></trkpt><trkpt lat="44.3140448" lon="8.1594026"><ele>533.0</ele><time>2026-05-02T11:39:00.133Z</time></trkpt><trkpt lat="44.3139485" lon="8.1593017"><ele>533.0</ele><time>2026-05-02T11:39:01.129Z</time></trkpt><trkpt lat="44.3138486" lon="8.1591921"><ele>533.0</ele><time>2026-05-02T11:39:02.137Z</time></trkpt><trkpt lat="44.31375" lon="8.159077"><ele>533.0</ele><time>2026-05-02T11:39:03.134Z</time></trkpt><trkpt lat="44.3136508" lon="8.1589598"><ele>533.75</ele><time>2026-05-02T11:39:04.132Z</time></trkpt><trkpt lat="44.3135533" lon="8.1588384"><ele>534.5</ele><time>2026-05-02T11:39:05.135Z</time></trkpt><trkpt lat="44.3134579" lon="8.1587172"><ele>535.25</ele><time>2026-05-02T11:39:06.135Z</time></trkpt><trkpt lat="44.3133614" lon="8.1585979"><ele>536.0</ele><time>2026-05-02T11:39:07.138Z</time></trkpt><trkpt lat="44.3132696" lon="8.1584745"><ele>536.0</ele><time>2026-05-02T11:39:08.133Z</time></trkpt><trkpt lat="44.313178" lon="8.15835"><ele>536.0</ele><time>2026-05-02T11:39:09.123Z</time></trkpt><trkpt lat="44.3130899" lon="8.1582291"><ele>536.0</ele><time>2026-05-02T11:39:10.13Z</time></trkpt><trkpt lat="44.3129993" lon="8.1580966"><ele>536.0</ele><time>2026-05-02T11:39:11.124Z</time></trkpt><trkpt lat="44.3129118" lon="8.1579587"><ele>536.0</ele><time>2026-05-02T11:39:12.128Z</time></trkpt><trkpt lat="44.312818" lon="8.1578216"><ele>536.0</ele><time>2026-05-02T11:39:13.124Z</time></trkpt><trkpt lat="44.3127222" lon="8.1576764"><ele>536.0</ele><time>2026-05-02T11:39:14.125Z</time></trkpt><trkpt lat="44.3126225" lon="8.1575321"><ele>536.0</ele><time>2026-05-02T11:39:15.122Z</time></trkpt><trkpt lat="44.3125131" lon="8.1573984"><ele>537.25</ele><time>2026-05-02T11:39:16.134Z</time></trkpt><trkpt lat="44.3124107" lon="8.1572642"><ele>538.5</ele><time>2026-05-02T11:39:17.133Z</time></trkpt><trkpt lat="44.3122887" lon="8.1571567"><ele>539.75</ele><time>2026-05-02T11:39:18.123Z</time></trkpt><trkpt lat="44.3121644" lon="8.1570775"><ele>541.0</ele><time>2026-05-02T11:39:19.128Z</time></trkpt><trkpt lat="44.3120401" lon="8.1570093"><ele>541.0</ele><time>2026-05-02T11:39:20.122Z</time></trkpt><trkpt lat="44.3119032" lon="8.1569848"><ele>541.0</ele><time>2026-05-02T11:39:21.125Z</time></trkpt><trkpt lat="44.3117753" lon="8.1569525"><ele>541.0</ele><time>2026-05-02T11:39:22.122Z</time></trkpt><trkpt lat="44.3116545" lon="8.1568907"><ele>541.0</ele><time>2026-05-02T11:39:23.123Z</time></trkpt><trkpt lat="44.3115463" lon="8.156797"><ele>541.0</ele><time>2026-05-02T11:39:24.125Z</time></trkpt><trkpt lat="44.3114597" lon="8.1566678"><ele>541.0</ele><time>2026-05-02T11:39:25.119Z</time></trkpt><trkpt lat="44.311374" lon="8.1565306"><ele>541.0</ele><time>2026-05-02T11:39:26.124Z</time></trkpt><trkpt lat="44.3112896" lon="8.1563794"><ele>541.0</ele><time>2026-05-02T11:39:27.128Z</time></trkpt><trkpt lat="44.3112053" lon="8.1562112"><ele>540.5</ele><time>2026-05-02T11:39:28.13Z</time></trkpt><trkpt lat="44.3111171" lon="8.1560473"><ele>540.0</ele><time>2026-05-02T11:39:29.126Z</time></trkpt><trkpt lat="44.3110275" lon="8.1558921"><ele>539.5</ele><time>2026-05-02T11:39:30.124Z</time></trkpt><trkpt lat="44.3109128" lon="8.1557656"><ele>539.0</ele><time>2026-05-02T11:39:31.121Z</time></trkpt><trkpt lat="44.310805" lon="8.1556353"><ele>536.25</ele><time>2026-05-02T11:39:32.12Z</time></trkpt><trkpt lat="44.3106773" lon="8.1555469"><ele>533.5</ele><time>2026-05-02T11:39:33.125Z</time></trkpt><trkpt lat="44.3105484" lon="8.1554753"><ele>530.75</ele><time>2026-05-02T11:39:34.131Z</time></trkpt><trkpt lat="44.3104243" lon="8.1554084"><ele>528.0</ele><time>2026-05-02T11:39:35.13Z</time></trkpt><trkpt lat="44.3103062" lon="8.1553575"><ele>528.0</ele><time>2026-05-02T11:39:36.134Z</time></trkpt><trkpt lat="44.3101965" lon="8.1553017"><ele>528.0</ele><time>2026-05-02T11:39:37.139Z</time></trkpt><trkpt lat="44.3101014" lon="8.1552229"><ele>528.0</ele><time>2026-05-02T11:39:38.137Z</time></trkpt><trkpt lat="44.310043" lon="8.1550933"><ele>528.0</ele><time>2026-05-02T11:39:39.147Z</time></trkpt><trkpt lat="44.310039" lon="8.1549137"><ele>528.25</ele><time>2026-05-02T11:39:40.129Z</time></trkpt><trkpt lat="44.3100492" lon="8.1547179"><ele>528.5</ele><time>2026-05-02T11:39:41.138Z</time></trkpt><trkpt lat="44.3100604" lon="8.1545079"><ele>528.75</ele><time>2026-05-02T11:39:42.134Z</time></trkpt><trkpt lat="44.3100671" lon="8.1543009"><ele>529.0</ele><time>2026-05-02T11:39:43.141Z</time></trkpt><trkpt lat="44.3100749" lon="8.1540802"><ele>530.0</ele><time>2026-05-02T11:39:44.143Z</time></trkpt><trkpt lat="44.3100907" lon="8.1538666"><ele>531.0</ele><time>2026-05-02T11:39:45.142Z</time></trkpt><trkpt lat="44.3100968" lon="8.1536513"><ele>532.0</ele><time>2026-05-02T11:39:46.142Z</time></trkpt><trkpt lat="44.310092" lon="8.1534442"><ele>532.0</ele><time>2026-05-02T11:39:47.138Z</time></trkpt><trkpt lat="44.3100842" lon="8.1532429"><ele>532.0</ele><time>2026-05-02T11:39:48.139Z</time></trkpt><trkpt lat="44.3100617" lon="8.1530375"><ele>532.0</ele><time>2026-05-02T11:39:49.145Z</time></trkpt><trkpt lat="44.3100169" lon="8.1528463"><ele>532.0</ele><time>2026-05-02T11:39:50.145Z</time></trkpt><trkpt lat="44.3099564" lon="8.1526471"><ele>532.75</ele><time>2026-05-02T11:39:51.143Z</time></trkpt><trkpt lat="44.3098983" lon="8.1524626"><ele>533.5</ele><time>2026-05-02T11:39:52.143Z</time></trkpt><trkpt lat="44.3098418" lon="8.1522684"><ele>534.25</ele><time>2026-05-02T11:39:53.141Z</time></trkpt><trkpt lat="44.3097974" lon="8.1520754"><ele>535.0</ele><time>2026-05-02T11:39:54.142Z</time></trkpt><trkpt lat="44.3097639" lon="8.1518853"><ele>533.0</ele><time>2026-05-02T11:39:55.145Z</time></trkpt><trkpt lat="44.3097334" lon="8.1516918"><ele>531.0</ele><time>2026-05-02T11:39:56.148Z</time></trkpt><trkpt lat="44.3097024" lon="8.1514899"><ele>529.0</ele><time>2026-05-02T11:39:57.154Z</time></trkpt><trkpt lat="44.3096749" lon="8.1512923"><ele>527.0</ele><time>2026-05-02T11:39:58.154Z</time></trkpt><trkpt lat="44.3096428" lon="8.1510982"><ele>527.0</ele><time>2026-05-02T11:39:59.147Z</time></trkpt><trkpt lat="44.3096102" lon="8.1509045"><ele>527.0</ele><time>2026-05-02T11:40:00.144Z</time></trkpt><trkpt lat="44.3095778" lon="8.150707"><ele>527.0</ele><time>2026-05-02T11:40:01.153Z</time></trkpt><trkpt lat="44.309545" lon="8.1505099"><ele>527.0</ele><time>2026-05-02T11:40:02.146Z</time></trkpt><trkpt lat="44.3095268" lon="8.1503137"><ele>527.6666666666666</ele><time>2026-05-02T11:40:03.153Z</time></trkpt><trkpt lat="44.3095248" lon="8.1500996"><ele>528.3333333333334</ele><time>2026-05-02T11:40:04.139Z</time></trkpt><trkpt lat="44.3095565" lon="8.1498916"><ele>529.0</ele><time>2026-05-02T11:40:05.139Z</time></trkpt><trkpt lat="44.3096158" lon="8.149697"><ele>531.6666666666667</ele><time>2026-05-02T11:40:06.139Z</time></trkpt><trkpt lat="44.309713" lon="8.1495148"><ele>534.3333333333334</ele><time>2026-05-02T11:40:07.137Z</time></trkpt><trkpt lat="44.3098065" lon="8.1493415"><ele>537.0</ele><time>2026-05-02T11:40:08.134Z</time></trkpt><trkpt lat="44.3098938" lon="8.1491735"><ele>538.6666666666666</ele><time>2026-05-02T11:40:09.135Z</time></trkpt><trkpt lat="44.3099988" lon="8.1490051"><ele>540.3333333333333</ele><time>2026-05-02T11:40:10.153Z</time></trkpt><trkpt lat="44.3100703" lon="8.1488129"><ele>542.0</ele><time>2026-05-02T11:40:11.142Z</time></trkpt><trkpt lat="44.3101181" lon="8.1486042"><ele>542.0</ele><time>2026-05-02T11:40:12.138Z</time></trkpt><trkpt lat="44.3101475" lon="8.1483798"><ele>542.0</ele><time>2026-05-02T11:40:13.147Z</time></trkpt><trkpt lat="44.3101389" lon="8.1481353"><ele>542.0</ele><time>2026-05-02T11:40:14.148Z</time></trkpt><trkpt lat="44.3101278" lon="8.1479152"><ele>542.3333333333333</ele><time>2026-05-02T11:40:15.151Z</time></trkpt><trkpt lat="44.3101406" lon="8.147696"><ele>542.6666666666666</ele><time>2026-05-02T11:40:16.152Z</time></trkpt><trkpt lat="44.3101502" lon="8.1474833"><ele>543.0</ele><time>2026-05-02T11:40:17.15Z</time></trkpt><trkpt lat="44.3101559" lon="8.1472848"><ele>543.0</ele><time>2026-05-02T11:40:18.152Z</time></trkpt><trkpt lat="44.3101459" lon="8.147078"><ele>543.0</ele><time>2026-05-02T11:40:19.148Z</time></trkpt><trkpt lat="44.3101311" lon="8.1468789"><ele>543.0</ele><time>2026-05-02T11:40:20.149Z</time></trkpt><trkpt lat="44.3101148" lon="8.1466853"><ele>543.0</ele><time>2026-05-02T11:40:21.149Z</time></trkpt><trkpt lat="44.3101023" lon="8.1465005"><ele>543.0</ele><time>2026-05-02T11:40:22.143Z</time></trkpt><trkpt lat="44.3100682" lon="8.1463132"><ele>543.0</ele><time>2026-05-02T11:40:23.149Z</time></trkpt><trkpt lat="44.310031" lon="8.1461216"><ele>543.0</ele><time>2026-05-02T11:40:24.147Z</time></trkpt><trkpt lat="44.3099988" lon="8.1459339"><ele>543.0</ele><time>2026-05-02T11:40:25.146Z</time></trkpt><trkpt lat="44.3099818" lon="8.1457294"><ele>541.0</ele><time>2026-05-02T11:40:26.145Z</time></trkpt><trkpt lat="44.309985" lon="8.1455179"><ele>539.0</ele><time>2026-05-02T11:40:27.142Z</time></trkpt><trkpt lat="44.310011" lon="8.145326"><ele>537.0</ele><time>2026-05-02T11:40:28.145Z</time></trkpt><trkpt lat="44.3100701" lon="8.1451314"><ele>535.0</ele><time>2026-05-02T11:40:29.144Z</time></trkpt><trkpt lat="44.310134" lon="8.1449526"><ele>536.25</ele><time>2026-05-02T11:40:30.148Z</time></trkpt><trkpt lat="44.3102161" lon="8.1447879"><ele>537.5</ele><time>2026-05-02T11:40:31.144Z</time></trkpt><trkpt lat="44.3103207" lon="8.1446283"><ele>538.75</ele><time>2026-05-02T11:40:32.143Z</time></trkpt><trkpt lat="44.310433" lon="8.1444933"><ele>540.0</ele><time>2026-05-02T11:40:33.146Z</time></trkpt><trkpt lat="44.3105582" lon="8.1443734"><ele>539.75</ele><time>2026-05-02T11:40:34.148Z</time></trkpt><trkpt lat="44.3106631" lon="8.1442483"><ele>539.5</ele><time>2026-05-02T11:40:35.151Z</time></trkpt><trkpt lat="44.3107665" lon="8.1441156"><ele>539.25</ele><time>2026-05-02T11:40:36.156Z</time></trkpt><trkpt lat="44.3108711" lon="8.143975"><ele>539.0</ele><time>2026-05-02T11:40:37.139Z</time></trkpt><trkpt lat="44.3109652" lon="8.1437997"><ele>539.0</ele><time>2026-05-02T11:40:38.148Z</time></trkpt><trkpt lat="44.3110423" lon="8.1436231"><ele>539.0</ele><time>2026-05-02T11:40:39.145Z</time></trkpt><trkpt lat="44.3110883" lon="8.1434485"><ele>539.0</ele><time>2026-05-02T11:40:40.146Z</time></trkpt><trkpt lat="44.3111377" lon="8.1432526"><ele>539.0</ele><time>2026-05-02T11:40:41.155Z</time></trkpt><trkpt lat="44.3111822" lon="8.1430518"><ele>539.6666666666666</ele><time>2026-05-02T11:40:42.15Z</time></trkpt><trkpt lat="44.31122" lon="8.1428483"><ele>540.3333333333334</ele><time>2026-05-02T11:40:43.153Z</time></trkpt><trkpt lat="44.3112426" lon="8.1426386"><ele>541.0</ele><time>2026-05-02T11:40:44.154Z</time></trkpt><trkpt lat="44.3112676" lon="8.1424196"><ele>542.6666666666667</ele><time>2026-05-02T11:40:45.149Z</time></trkpt><trkpt lat="44.3112854" lon="8.142197"><ele>544.3333333333334</ele><time>2026-05-02T11:40:46.143Z</time></trkpt><trkpt lat="44.3113021" lon="8.1419816"><ele>546.0</ele><time>2026-05-02T11:40:47.145Z</time></trkpt><trkpt lat="44.3113189" lon="8.1417631"><ele>547.6666666666666</ele><time>2026-05-02T11:40:48.152Z</time></trkpt><trkpt lat="44.3113507" lon="8.1415392"><ele>549.3333333333333</ele><time>2026-05-02T11:40:49.149Z</time></trkpt><trkpt lat="44.311377" lon="8.1413169"><ele>551.0</ele><time>2026-05-02T11:40:50.15Z</time></trkpt><trkpt lat="44.3114015" lon="8.1410948"><ele>552.3333333333333</ele><time>2026-05-02T11:40:51.149Z</time></trkpt><trkpt lat="44.3114141" lon="8.1408698"><ele>553.6666666666666</ele><time>2026-05-02T11:40:52.146Z</time></trkpt><trkpt lat="44.3114169" lon="8.1406445"><ele>555.0</ele><time>2026-05-02T11:40:53.151Z</time></trkpt><trkpt lat="44.3114154" lon="8.140408"><ele>556.0</ele><time>2026-05-02T11:40:54.152Z</time></trkpt><trkpt lat="44.3114126" lon="8.1401696"><ele>557.0</ele><time>2026-05-02T11:40:55.151Z</time></trkpt><trkpt lat="44.3114072" lon="8.1399401"><ele>558.0</ele><time>2026-05-02T11:40:56.157Z</time></trkpt><trkpt lat="44.3114098" lon="8.1397322"><ele>558.5</ele><time>2026-05-02T11:40:57.149Z</time></trkpt><trkpt lat="44.3114094" lon="8.1395385"><ele>559.0</ele><time>2026-05-02T11:40:58.152Z</time></trkpt><trkpt lat="44.3114035" lon="8.1393594"><ele>559.5</ele><time>2026-05-02T11:40:59.147Z</time></trkpt><trkpt lat="44.3114077" lon="8.1392011"><ele>560.0</ele><time>2026-05-02T11:41:00.157Z</time></trkpt><trkpt lat="44.311409" lon="8.1390421"><ele>560.25</ele><time>2026-05-02T11:41:01.157Z</time></trkpt><trkpt lat="44.3114128" lon="8.13887"><ele>560.5</ele><time>2026-05-02T11:41:02.152Z</time></trkpt><trkpt lat="44.3114144" lon="8.1386872"><ele>560.75</ele><time>2026-05-02T11:41:03.153Z</time></trkpt><trkpt lat="44.3114068" lon="8.1384769"><ele>561.0</ele><time>2026-05-02T11:41:04.152Z</time></trkpt><trkpt lat="44.3114007" lon="8.1382648"><ele>555.0</ele><time>2026-05-02T11:41:05.154Z</time></trkpt><trkpt lat="44.3113979" lon="8.1380622"><ele>549.0</ele><time>2026-05-02T11:41:06.151Z</time></trkpt><trkpt lat="44.3113965" lon="8.1378528"><ele>543.0</ele><time>2026-05-02T11:41:07.151Z</time></trkpt><trkpt lat="44.3113915" lon="8.1376351"><ele>543.0</ele><time>2026-05-02T11:41:08.167Z</time></trkpt><trkpt lat="44.3113889" lon="8.1374244"><ele>543.0</ele><time>2026-05-02T11:41:09.151Z</time></trkpt><trkpt lat="44.3113794" lon="8.1371979"><ele>543.0</ele><time>2026-05-02T11:41:10.151Z</time></trkpt><trkpt lat="44.3113682" lon="8.136975"><ele>544.6666666666666</ele><time>2026-05-02T11:41:11.159Z</time></trkpt><trkpt lat="44.3113607" lon="8.1367566"><ele>546.3333333333333</ele><time>2026-05-02T11:41:12.153Z</time></trkpt><trkpt lat="44.3113505" lon="8.1365333"><ele>548.0</ele><time>2026-05-02T11:41:13.161Z</time></trkpt><trkpt lat="44.3113377" lon="8.136315"><ele>553.6666666666666</ele><time>2026-05-02T11:41:14.165Z</time></trkpt><trkpt lat="44.3113321" lon="8.1360914"><ele>559.3333333333334</ele><time>2026-05-02T11:41:15.162Z</time></trkpt><trkpt lat="44.3113287" lon="8.135872"><ele>565.0</ele><time>2026-05-02T11:41:16.159Z</time></trkpt><trkpt lat="44.3113292" lon="8.1356431"><ele>569.3333333333334</ele><time>2026-05-02T11:41:17.165Z</time></trkpt><trkpt lat="44.3113212" lon="8.1354168"><ele>573.6666666666666</ele><time>2026-05-02T11:41:18.155Z</time></trkpt><trkpt lat="44.3113082" lon="8.1351864"><ele>578.0</ele><time>2026-05-02T11:41:19.163Z</time></trkpt><trkpt lat="44.3112968" lon="8.1349554"><ele>578.6666666666666</ele><time>2026-05-02T11:41:20.157Z</time></trkpt><trkpt lat="44.3112803" lon="8.1347178"><ele>579.3333333333334</ele><time>2026-05-02T11:41:21.157Z</time></trkpt><trkpt lat="44.3112701" lon="8.1344787"><ele>580.0</ele><time>2026-05-02T11:41:22.15Z</time></trkpt><trkpt lat="44.3112599" lon="8.1342353"><ele>575.3333333333334</ele><time>2026-05-02T11:41:23.151Z</time></trkpt><trkpt lat="44.3112482" lon="8.1339952"><ele>570.6666666666666</ele><time>2026-05-02T11:41:24.158Z</time></trkpt><trkpt lat="44.3112371" lon="8.1337608"><ele>566.0</ele><time>2026-05-02T11:41:25.158Z</time></trkpt><trkpt lat="44.3112166" lon="8.1335451"><ele>566.0</ele><time>2026-05-02T11:41:26.149Z</time></trkpt><trkpt lat="44.3111751" lon="8.1333291"><ele>566.0</ele><time>2026-05-02T11:41:27.153Z</time></trkpt><trkpt lat="44.3111021" lon="8.1331369"><ele>566.0</ele><time>2026-05-02T11:41:28.144Z</time></trkpt><trkpt lat="44.3110116" lon="8.1329556"><ele>561.3333333333333</ele><time>2026-05-02T11:41:29.146Z</time></trkpt><trkpt lat="44.3108959" lon="8.1328013"><ele>556.6666666666666</ele><time>2026-05-02T11:41:30.157Z</time></trkpt><trkpt lat="44.3107656" lon="8.1326438"><ele>552.0</ele><time>2026-05-02T11:41:31.157Z</time></trkpt><trkpt lat="44.3106282" lon="8.132494"><ele>552.3333333333334</ele><time>2026-05-02T11:41:32.15Z</time></trkpt><trkpt lat="44.3104751" lon="8.1323636"><ele>552.6666666666667</ele><time>2026-05-02T11:41:33.165Z</time></trkpt><trkpt lat="44.3103256" lon="8.1322148"><ele>553.0</ele><time>2026-05-02T11:41:34.16Z</time></trkpt><trkpt lat="44.3101817" lon="8.1320698"><ele>553.0</ele><time>2026-05-02T11:41:35.167Z</time></trkpt><trkpt lat="44.3100459" lon="8.1319125"><ele>553.0</ele><time>2026-05-02T11:41:36.168Z</time></trkpt><trkpt lat="44.3099016" lon="8.1317508"><ele>553.0</ele><time>2026-05-02T11:41:37.167Z</time></trkpt><trkpt lat="44.3097566" lon="8.1315919"><ele>558.0</ele><time>2026-05-02T11:41:38.163Z</time></trkpt><trkpt lat="44.3096214" lon="8.1314351"><ele>563.0</ele><time>2026-05-02T11:41:39.164Z</time></trkpt><trkpt lat="44.3095042" lon="8.131259"><ele>568.0</ele><time>2026-05-02T11:41:40.158Z</time></trkpt><trkpt lat="44.3093984" lon="8.1310761"><ele>568.0</ele><time>2026-05-02T11:41:41.16Z</time></trkpt><trkpt lat="44.3092925" lon="8.1308901"><ele>568.0</ele><time>2026-05-02T11:41:42.161Z</time></trkpt><trkpt lat="44.309199" lon="8.1307034"><ele>568.0</ele><time>2026-05-02T11:41:43.161Z</time></trkpt><trkpt lat="44.3091064" lon="8.1304986"><ele>563.3333333333334</ele><time>2026-05-02T11:41:44.165Z</time></trkpt><trkpt lat="44.3090193" lon="8.1303011"><ele>558.6666666666666</ele><time>2026-05-02T11:41:45.157Z</time></trkpt><trkpt lat="44.3089368" lon="8.1300938"><ele>554.0</ele><time>2026-05-02T11:41:46.152Z</time></trkpt><trkpt lat="44.3088511" lon="8.1298935"><ele>560.0</ele><time>2026-05-02T11:41:47.154Z</time></trkpt><trkpt lat="44.308766" lon="8.1296921"><ele>566.0</ele><time>2026-05-02T11:41:48.158Z</time></trkpt><trkpt lat="44.3086786" lon="8.1294939"><ele>572.0</ele><time>2026-05-02T11:41:49.155Z</time></trkpt><trkpt lat="44.3085854" lon="8.1293048"><ele>572.0</ele><time>2026-05-02T11:41:50.157Z</time></trkpt><trkpt lat="44.3084986" lon="8.1290967"><ele>572.0</ele><time>2026-05-02T11:41:51.154Z</time></trkpt><trkpt lat="44.308404" lon="8.1288909"><ele>572.0</ele><time>2026-05-02T11:41:52.15Z</time></trkpt><trkpt lat="44.3083172" lon="8.1286835"><ele>567.6666666666666</ele><time>2026-05-02T11:41:53.151Z</time></trkpt><trkpt lat="44.3082302" lon="8.1284897"><ele>563.3333333333334</ele><time>2026-05-02T11:41:54.151Z</time></trkpt><trkpt lat="44.3081522" lon="8.1282973"><ele>559.0</ele><time>2026-05-02T11:41:55.15Z</time></trkpt><trkpt lat="44.3080772" lon="8.1281079"><ele>567.0</ele><time>2026-05-02T11:41:56.156Z</time></trkpt><trkpt lat="44.3080042" lon="8.1279106"><ele>575.0</ele><time>2026-05-02T11:41:57.161Z</time></trkpt><trkpt lat="44.3079413" lon="8.1276933"><ele>583.0</ele><time>2026-05-02T11:41:58.161Z</time></trkpt><trkpt lat="44.3078995" lon="8.127463"><ele>581.6666666666667</ele><time>2026-05-02T11:41:59.162Z</time></trkpt><trkpt lat="44.3078583" lon="8.1272375"><ele>580.3333333333334</ele><time>2026-05-02T11:42:00.167Z</time></trkpt><trkpt lat="44.3078198" lon="8.1270081"><ele>579.0</ele><time>2026-05-02T11:42:01.166Z</time></trkpt><trkpt lat="44.3077891" lon="8.1267772"><ele>578.0</ele><time>2026-05-02T11:42:02.167Z</time></trkpt><trkpt lat="44.307772" lon="8.1265466"><ele>577.0</ele><time>2026-05-02T11:42:03.161Z</time></trkpt><trkpt lat="44.3077465" lon="8.1263293"><ele>576.0</ele><time>2026-05-02T11:42:04.163Z</time></trkpt><trkpt lat="44.3077418" lon="8.1261206"><ele>576.0</ele><time>2026-05-02T11:42:05.161Z</time></trkpt><trkpt lat="44.3077475" lon="8.1259223"><ele>576.0</ele><time>2026-05-02T11:42:06.161Z</time></trkpt><trkpt lat="44.3077429" lon="8.1257296"><ele>576.0</ele><time>2026-05-02T11:42:07.16Z</time></trkpt><trkpt lat="44.3077381" lon="8.125532"><ele>576.0</ele><time>2026-05-02T11:42:08.17Z</time></trkpt><trkpt lat="44.3077219" lon="8.1253356"><ele>576.0</ele><time>2026-05-02T11:42:09.169Z</time></trkpt><trkpt lat="44.3077079" lon="8.1251455"><ele>576.0</ele><time>2026-05-02T11:42:10.165Z</time></trkpt><trkpt lat="44.3076937" lon="8.12494"><ele>576.0</ele><time>2026-05-02T11:42:11.172Z</time></trkpt><trkpt lat="44.3076721" lon="8.124738"><ele>576.0</ele><time>2026-05-02T11:42:12.164Z</time></trkpt><trkpt lat="44.3076597" lon="8.1245411"><ele>576.0</ele><time>2026-05-02T11:42:13.172Z</time></trkpt><trkpt lat="44.3076416" lon="8.1243397"><ele>576.0</ele><time>2026-05-02T11:42:14.164Z</time></trkpt><trkpt lat="44.3076349" lon="8.1241439"><ele>576.0</ele><time>2026-05-02T11:42:15.165Z</time></trkpt><trkpt lat="44.3076231" lon="8.123942"><ele>576.0</ele><time>2026-05-02T11:42:16.167Z</time></trkpt><trkpt lat="44.3076083" lon="8.1237401"><ele>575.5</ele><time>2026-05-02T11:42:17.168Z</time></trkpt><trkpt lat="44.3075956" lon="8.1235409"><ele>575.0</ele><time>2026-05-02T11:42:18.167Z</time></trkpt><trkpt lat="44.3075755" lon="8.1233401"><ele>574.5</ele><time>2026-05-02T11:42:19.167Z</time></trkpt><trkpt lat="44.3075567" lon="8.1231324"><ele>574.0</ele><time>2026-05-02T11:42:20.161Z</time></trkpt><trkpt lat="44.3075455" lon="8.1229212"><ele>572.0</ele><time>2026-05-02T11:42:21.162Z</time></trkpt><trkpt lat="44.3075281" lon="8.1227182"><ele>570.0</ele><time>2026-05-02T11:42:22.165Z</time></trkpt><trkpt lat="44.3075129" lon="8.1225123"><ele>568.0</ele><time>2026-05-02T11:42:23.154Z</time></trkpt><trkpt lat="44.3074975" lon="8.1222966"><ele>568.25</ele><time>2026-05-02T11:42:24.158Z</time></trkpt><trkpt lat="44.3074617" lon="8.1221023"><ele>568.5</ele><time>2026-05-02T11:42:25.157Z</time></trkpt><trkpt lat="44.3074082" lon="8.1219243"><ele>568.75</ele><time>2026-05-02T11:42:26.156Z</time></trkpt><trkpt lat="44.3073248" lon="8.1217654"><ele>569.0</ele><time>2026-05-02T11:42:27.163Z</time></trkpt><trkpt lat="44.3072185" lon="8.1216139"><ele>566.25</ele><time>2026-05-02T11:42:28.167Z</time></trkpt><trkpt lat="44.3071117" lon="8.121471"><ele>563.5</ele><time>2026-05-02T11:42:29.167Z</time></trkpt><trkpt lat="44.3070051" lon="8.1213652"><ele>560.75</ele><time>2026-05-02T11:42:30.167Z</time></trkpt><trkpt lat="44.3068879" lon="8.1213168"><ele>558.0</ele><time>2026-05-02T11:42:31.151Z</time></trkpt><trkpt lat="44.3067618" lon="8.1213235"><ele>558.0</ele><time>2026-05-02T11:42:32.163Z</time></trkpt><trkpt lat="44.3066242" lon="8.1214067"><ele>558.0</ele><time>2026-05-02T11:42:33.162Z</time></trkpt><trkpt lat="44.3064815" lon="8.1214599"><ele>558.0</ele><time>2026-05-02T11:42:34.159Z</time></trkpt><trkpt lat="44.3063403" lon="8.1214929"><ele>558.0</ele><time>2026-05-02T11:42:35.164Z</time></trkpt><trkpt lat="44.3061902" lon="8.12152"><ele>558.25</ele><time>2026-05-02T11:42:36.163Z</time></trkpt><trkpt lat="44.3060424" lon="8.1215224"><ele>558.5</ele><time>2026-05-02T11:42:37.163Z</time></trkpt><trkpt lat="44.3059059" lon="8.1215381"><ele>558.75</ele><time>2026-05-02T11:42:38.162Z</time></trkpt><trkpt lat="44.3057658" lon="8.1215445"><ele>559.0</ele><time>2026-05-02T11:42:39.162Z</time></trkpt><trkpt lat="44.3056169" lon="8.1215587"><ele>560.25</ele><time>2026-05-02T11:42:40.159Z</time></trkpt><trkpt lat="44.3054641" lon="8.1215757"><ele>561.5</ele><time>2026-05-02T11:42:41.171Z</time></trkpt><trkpt lat="44.3053204" lon="8.1216016"><ele>562.75</ele><time>2026-05-02T11:42:42.161Z</time></trkpt><trkpt lat="44.3051715" lon="8.1216375"><ele>564.0</ele><time>2026-05-02T11:42:43.157Z</time></trkpt><trkpt lat="44.3050286" lon="8.121697"><ele>564.0</ele><time>2026-05-02T11:42:44.155Z</time></trkpt><trkpt lat="44.3049098" lon="8.1217799"><ele>564.0</ele><time>2026-05-02T11:42:45.16Z</time></trkpt><trkpt lat="44.3048053" lon="8.1218946"><ele>564.0</ele><time>2026-05-02T11:42:46.155Z</time></trkpt><trkpt lat="44.304724" lon="8.122053"><ele>564.0</ele><time>2026-05-02T11:42:47.162Z</time></trkpt><trkpt lat="44.3046744" lon="8.1222413"><ele>562.6666666666666</ele><time>2026-05-02T11:42:48.152Z</time></trkpt><trkpt lat="44.3046341" lon="8.1224375"><ele>561.3333333333333</ele><time>2026-05-02T11:42:49.156Z</time></trkpt><trkpt lat="44.3045934" lon="8.1226424"><ele>560.0</ele><time>2026-05-02T11:42:50.16Z</time></trkpt><trkpt lat="44.3045367" lon="8.122851"><ele>560.0</ele><time>2026-05-02T11:42:51.158Z</time></trkpt><trkpt lat="44.3044858" lon="8.1230546"><ele>560.0</ele><time>2026-05-02T11:42:52.164Z</time></trkpt><trkpt lat="44.3044188" lon="8.1232579"><ele>560.0</ele><time>2026-05-02T11:42:53.163Z</time></trkpt><trkpt lat="44.3043235" lon="8.1234385"><ele>560.3333333333333</ele><time>2026-05-02T11:42:54.165Z</time></trkpt><trkpt lat="44.3041998" lon="8.1235988"><ele>560.6666666666666</ele><time>2026-05-02T11:42:55.164Z</time></trkpt><trkpt lat="44.3040541" lon="8.1237323"><ele>561.0</ele><time>2026-05-02T11:42:56.166Z</time></trkpt><trkpt lat="44.3038821" lon="8.1238168"><ele>561.6666666666666</ele><time>2026-05-02T11:42:57.164Z</time></trkpt><trkpt lat="44.3037156" lon="8.1238777"><ele>562.3333333333333</ele><time>2026-05-02T11:42:58.158Z</time></trkpt><trkpt lat="44.3035592" lon="8.1239474"><ele>563.0</ele><time>2026-05-02T11:42:59.164Z</time></trkpt><trkpt lat="44.3034008" lon="8.1240194"><ele>562.6666666666666</ele><time>2026-05-02T11:43:00.167Z</time></trkpt><trkpt lat="44.3032504" lon="8.1241064"><ele>562.3333333333334</ele><time>2026-05-02T11:43:01.164Z</time></trkpt><trkpt lat="44.3031046" lon="8.1241865"><ele>562.0</ele><time>2026-05-02T11:43:02.164Z</time></trkpt><trkpt lat="44.3029566" lon="8.1242663"><ele>562.6666666666667</ele><time>2026-05-02T11:43:03.165Z</time></trkpt><trkpt lat="44.3028142" lon="8.1243382"><ele>563.3333333333334</ele><time>2026-05-02T11:43:04.17Z</time></trkpt><trkpt lat="44.3026667" lon="8.1244105"><ele>564.0</ele><time>2026-05-02T11:43:05.164Z</time></trkpt><trkpt lat="44.3025177" lon="8.1244955"><ele>564.0</ele><time>2026-05-02T11:43:06.17Z</time></trkpt><trkpt lat="44.3023651" lon="8.1245721"><ele>564.0</ele><time>2026-05-02T11:43:07.169Z</time></trkpt><trkpt lat="44.3022073" lon="8.124627"><ele>564.0</ele><time>2026-05-02T11:43:08.173Z</time></trkpt><trkpt lat="44.3020454" lon="8.1246518"><ele>565.0</ele><time>2026-05-02T11:43:09.16Z</time></trkpt><trkpt lat="44.3018729" lon="8.1246669"><ele>566.0</ele><time>2026-05-02T11:43:10.165Z</time></trkpt><trkpt lat="44.3017074" lon="8.124669"><ele>567.0</ele><time>2026-05-02T11:43:11.147Z</time></trkpt><trkpt lat="44.3015442" lon="8.1246763"><ele>569.0</ele><time>2026-05-02T11:43:12.154Z</time></trkpt><trkpt lat="44.3013839" lon="8.1246845"><ele>571.0</ele><time>2026-05-02T11:43:13.153Z</time></trkpt><trkpt lat="44.3012285" lon="8.1247095"><ele>573.0</ele><time>2026-05-02T11:43:14.15Z</time></trkpt><trkpt lat="44.3010707" lon="8.1247249"><ele>573.0</ele><time>2026-05-02T11:43:15.153Z</time></trkpt><trkpt lat="44.3009343" lon="8.1247328"><ele>573.0</ele><time>2026-05-02T11:43:16.142Z</time></trkpt><trkpt lat="44.3008026" lon="8.1247154"><ele>573.0</ele><time>2026-05-02T11:43:17.148Z</time></trkpt><trkpt lat="44.3006714" lon="8.1246323"><ele>573.0</ele><time>2026-05-02T11:43:18.14Z</time></trkpt><trkpt lat="44.3005487" lon="8.1245331"><ele>579.0</ele><time>2026-05-02T11:43:19.151Z</time></trkpt><trkpt lat="44.3004299" lon="8.1244127"><ele>585.0</ele><time>2026-05-02T11:43:20.154Z</time></trkpt><trkpt lat="44.3003086" lon="8.1242918"><ele>591.0</ele><time>2026-05-02T11:43:21.153Z</time></trkpt><trkpt lat="44.3001798" lon="8.1241602"><ele>584.3333333333334</ele><time>2026-05-02T11:43:22.163Z</time></trkpt><trkpt lat="44.3000507" lon="8.1240307"><ele>577.6666666666667</ele><time>2026-05-02T11:43:23.159Z</time></trkpt><trkpt lat="44.2999181" lon="8.1239032"><ele>571.0</ele><time>2026-05-02T11:43:24.17Z</time></trkpt><trkpt lat="44.299792" lon="8.1237557"><ele>578.3333333333334</ele><time>2026-05-02T11:43:25.159Z</time></trkpt><trkpt lat="44.299681" lon="8.1235951"><ele>585.6666666666666</ele><time>2026-05-02T11:43:26.167Z</time></trkpt><trkpt lat="44.2995737" lon="8.1234272"><ele>593.0</ele><time>2026-05-02T11:43:27.174Z</time></trkpt><trkpt lat="44.299476" lon="8.1232509"><ele>588.3333333333333</ele><time>2026-05-02T11:43:28.172Z</time></trkpt><trkpt lat="44.2993882" lon="8.1230549"><ele>583.6666666666666</ele><time>2026-05-02T11:43:29.168Z</time></trkpt><trkpt lat="44.2993054" lon="8.1228421"><ele>579.0</ele><time>2026-05-02T11:43:30.168Z</time></trkpt><trkpt lat="44.2992265" lon="8.1226376"><ele>579.0</ele><time>2026-05-02T11:43:31.161Z</time></trkpt><trkpt lat="44.2991425" lon="8.1224396"><ele>579.0</ele><time>2026-05-02T11:43:32.166Z</time></trkpt><trkpt lat="44.2990546" lon="8.1222408"><ele>579.0</ele><time>2026-05-02T11:43:33.164Z</time></trkpt><trkpt lat="44.2989657" lon="8.1220472"><ele>581.0</ele><time>2026-05-02T11:43:34.168Z</time></trkpt><trkpt lat="44.2988779" lon="8.1218731"><ele>583.0</ele><time>2026-05-02T11:43:35.16Z</time></trkpt><trkpt lat="44.2987789" lon="8.1217241"><ele>585.0</ele><time>2026-05-02T11:43:36.163Z</time></trkpt><trkpt lat="44.2986668" lon="8.1215882"><ele>587.0</ele><time>2026-05-02T11:43:37.162Z</time></trkpt><trkpt lat="44.2985316" lon="8.1214819"><ele>583.3333333333333</ele><time>2026-05-02T11:43:38.16Z</time></trkpt><trkpt lat="44.2983784" lon="8.1213858"><ele>579.6666666666666</ele><time>2026-05-02T11:43:39.155Z</time></trkpt><trkpt lat="44.2982274" lon="8.1212993"><ele>576.0</ele><time>2026-05-02T11:43:40.157Z</time></trkpt><trkpt lat="44.2980737" lon="8.1212206"><ele>576.0</ele><time>2026-05-02T11:43:41.161Z</time></trkpt><trkpt lat="44.2979323" lon="8.1211375"><ele>576.0</ele><time>2026-05-02T11:43:42.163Z</time></trkpt><trkpt lat="44.2977871" lon="8.121073"><ele>576.0</ele><time>2026-05-02T11:43:43.166Z</time></trkpt><trkpt lat="44.2976527" lon="8.1210068"><ele>576.0</ele><time>2026-05-02T11:43:44.16Z</time></trkpt><trkpt lat="44.2975124" lon="8.1209634"><ele>576.0</ele><time>2026-05-02T11:43:45.153Z</time></trkpt><trkpt lat="44.297373" lon="8.1209612"><ele>576.0</ele><time>2026-05-02T11:43:46.162Z</time></trkpt><trkpt lat="44.2972369" lon="8.1210196"><ele>576.0</ele><time>2026-05-02T11:43:47.153Z</time></trkpt><trkpt lat="44.2970962" lon="8.1211095"><ele>576.0</ele><time>2026-05-02T11:43:48.154Z</time></trkpt><trkpt lat="44.2969746" lon="8.1212013"><ele>574.75</ele><time>2026-05-02T11:43:49.151Z</time></trkpt><trkpt lat="44.2968484" lon="8.1212984"><ele>573.5</ele><time>2026-05-02T11:43:50.154Z</time></trkpt><trkpt lat="44.2967283" lon="8.1214025"><ele>572.25</ele><time>2026-05-02T11:43:51.153Z</time></trkpt><trkpt lat="44.29661" lon="8.1215171"><ele>571.0</ele><time>2026-05-02T11:43:52.165Z</time></trkpt><trkpt lat="44.2965024" lon="8.1216282"><ele>571.75</ele><time>2026-05-02T11:43:53.159Z</time></trkpt><trkpt lat="44.2964073" lon="8.1217357"><ele>572.5</ele><time>2026-05-02T11:43:54.162Z</time></trkpt><trkpt lat="44.2963174" lon="8.1218474"><ele>573.25</ele><time>2026-05-02T11:43:55.154Z</time></trkpt><trkpt lat="44.2962222" lon="8.1219549"><ele>574.0</ele><time>2026-05-02T11:43:56.157Z</time></trkpt><trkpt lat="44.2961138" lon="8.1220775"><ele>574.0</ele><time>2026-05-02T11:43:57.16Z</time></trkpt><trkpt lat="44.2960071" lon="8.122209"><ele>574.0</ele><time>2026-05-02T11:43:58.156Z</time></trkpt><trkpt lat="44.295902" lon="8.1223298"><ele>574.0</ele><time>2026-05-02T11:43:59.159Z</time></trkpt><trkpt lat="44.2957902" lon="8.1224547"><ele>574.0</ele><time>2026-05-02T11:44:00.155Z</time></trkpt><trkpt lat="44.2956794" lon="8.12258"><ele>574.5</ele><time>2026-05-02T11:44:01.164Z</time></trkpt><trkpt lat="44.2955688" lon="8.1226997"><ele>575.0</ele><time>2026-05-02T11:44:02.161Z</time></trkpt><trkpt lat="44.2954561" lon="8.1228251"><ele>575.5</ele><time>2026-05-02T11:44:03.162Z</time></trkpt><trkpt lat="44.2953341" lon="8.1229537"><ele>576.0</ele><time>2026-05-02T11:44:04.162Z</time></trkpt><trkpt lat="44.295204" lon="8.1230618"><ele>576.0</ele><time>2026-05-02T11:44:05.163Z</time></trkpt><trkpt lat="44.2950702" lon="8.1231321"><ele>576.0</ele><time>2026-05-02T11:44:06.161Z</time></trkpt><trkpt lat="44.2949311" lon="8.1231588"><ele>576.0</ele><time>2026-05-02T11:44:07.161Z</time></trkpt><trkpt lat="44.2947823" lon="8.1231733"><ele>576.0</ele><time>2026-05-02T11:44:08.156Z</time></trkpt><trkpt lat="44.294628" lon="8.1231872"><ele>576.0</ele><time>2026-05-02T11:44:09.161Z</time></trkpt><trkpt lat="44.2944799" lon="8.123203"><ele>576.0</ele><time>2026-05-02T11:44:10.164Z</time></trkpt><trkpt lat="44.2943386" lon="8.1232244"><ele>576.0</ele><time>2026-05-02T11:44:11.161Z</time></trkpt><trkpt lat="44.2941921" lon="8.1232344"><ele>576.0</ele><time>2026-05-02T11:44:12.157Z</time></trkpt><trkpt lat="44.2940458" lon="8.123239"><ele>576.0</ele><time>2026-05-02T11:44:13.159Z</time></trkpt><trkpt lat="44.293895" lon="8.1232378"><ele>576.0</ele><time>2026-05-02T11:44:14.163Z</time></trkpt><trkpt lat="44.2937498" lon="8.1232366"><ele>576.0</ele><time>2026-05-02T11:44:15.166Z</time></trkpt><trkpt lat="44.2935992" lon="8.1232186"><ele>576.0</ele><time>2026-05-02T11:44:16.159Z</time></trkpt><trkpt lat="44.2934584" lon="8.1232066"><ele>576.0</ele><time>2026-05-02T11:44:17.162Z</time></trkpt><trkpt lat="44.2933284" lon="8.1231862"><ele>576.0</ele><time>2026-05-02T11:44:18.166Z</time></trkpt><trkpt lat="44.2931884" lon="8.1231741"><ele>576.0</ele><time>2026-05-02T11:44:19.17Z</time></trkpt><trkpt lat="44.2930521" lon="8.1231543"><ele>576.0</ele><time>2026-05-02T11:44:20.169Z</time></trkpt><trkpt lat="44.2929181" lon="8.1231409"><ele>585.75</ele><time>2026-05-02T11:44:21.164Z</time></trkpt><trkpt lat="44.2927777" lon="8.1231265"><ele>595.5</ele><time>2026-05-02T11:44:22.157Z</time></trkpt><trkpt lat="44.292634" lon="8.1231102"><ele>605.25</ele><time>2026-05-02T11:44:23.151Z</time></trkpt><trkpt lat="44.2924874" lon="8.1230936"><ele>615.0</ele><time>2026-05-02T11:44:24.143Z</time></trkpt><trkpt lat="44.2923388" lon="8.1230646"><ele>617.0</ele><time>2026-05-02T11:44:25.133Z</time></trkpt><trkpt lat="44.2921973" lon="8.1230478"><ele>619.0</ele><time>2026-05-02T11:44:26.114Z</time></trkpt><trkpt lat="44.2920578" lon="8.123032"><ele>621.0</ele><time>2026-05-02T11:44:27.1Z</time></trkpt><trkpt lat="44.29191" lon="8.1230105"><ele>623.0</ele><time>2026-05-02T11:44:28.083Z</time></trkpt><trkpt lat="44.2916152" lon="8.1229435"><ele>623.0</ele><time>2026-05-02T11:44:30.083Z</time></trkpt><trkpt lat="44.2914912" lon="8.1229042"><ele>623.0</ele><time>2026-05-02T11:44:31.121Z</time></trkpt><trkpt lat="44.2913337" lon="8.1228753"><ele>623.0</ele><time>2026-05-02T11:44:32.136Z</time></trkpt><trkpt lat="44.2911809" lon="8.1228991"><ele>623.0</ele><time>2026-05-02T11:44:33.146Z</time></trkpt><trkpt lat="44.2910304" lon="8.1229312"><ele>623.3333333333333</ele><time>2026-05-02T11:44:34.144Z</time></trkpt><trkpt lat="44.2908566" lon="8.1229581"><ele>623.6666666666666</ele><time>2026-05-02T11:44:35.14Z</time></trkpt><trkpt lat="44.2906904" lon="8.1230469"><ele>624.0</ele><time>2026-05-02T11:44:36.143Z</time></trkpt><trkpt lat="44.290543" lon="8.1231382"><ele>616.0</ele><time>2026-05-02T11:44:37.139Z</time></trkpt><trkpt lat="44.2903896" lon="8.1232457"><ele>608.0</ele><time>2026-05-02T11:44:38.138Z</time></trkpt><trkpt lat="44.2902287" lon="8.1233505"><ele>600.0</ele><time>2026-05-02T11:44:39.144Z</time></trkpt><trkpt lat="44.2900707" lon="8.1234529"><ele>600.0</ele><time>2026-05-02T11:44:40.14Z</time></trkpt><trkpt lat="44.2899095" lon="8.1235589"><ele>600.0</ele><time>2026-05-02T11:44:41.145Z</time></trkpt><trkpt lat="44.2897537" lon="8.1236637"><ele>600.0</ele><time>2026-05-02T11:44:42.151Z</time></trkpt><trkpt lat="44.2895922" lon="8.123762"><ele>605.0</ele><time>2026-05-02T11:44:43.143Z</time></trkpt><trkpt lat="44.2894403" lon="8.1238492"><ele>610.0</ele><time>2026-05-02T11:44:44.146Z</time></trkpt><trkpt lat="44.2892907" lon="8.1239374"><ele>615.0</ele><time>2026-05-02T11:44:45.145Z</time></trkpt><trkpt lat="44.2891573" lon="8.1239999"><ele>612.25</ele><time>2026-05-02T11:44:46.142Z</time></trkpt><trkpt lat="44.2890194" lon="8.1240649"><ele>609.5</ele><time>2026-05-02T11:44:47.145Z</time></trkpt><trkpt lat="44.2888813" lon="8.124135"><ele>606.75</ele><time>2026-05-02T11:44:48.141Z</time></trkpt><trkpt lat="44.2887357" lon="8.1242007"><ele>604.0</ele><time>2026-05-02T11:44:49.153Z</time></trkpt><trkpt lat="44.2885888" lon="8.1242508"><ele>604.0</ele><time>2026-05-02T11:44:50.141Z</time></trkpt><trkpt lat="44.2884409" lon="8.1242678"><ele>604.0</ele><time>2026-05-02T11:44:51.141Z</time></trkpt><trkpt lat="44.2882777" lon="8.1242611"><ele>604.0</ele><time>2026-05-02T11:44:52.143Z</time></trkpt><trkpt lat="44.2881242" lon="8.1242646"><ele>606.6666666666667</ele><time>2026-05-02T11:44:53.142Z</time></trkpt><trkpt lat="44.2879825" lon="8.124284"><ele>609.3333333333334</ele><time>2026-05-02T11:44:54.147Z</time></trkpt><trkpt lat="44.2878314" lon="8.1243515"><ele>612.0</ele><time>2026-05-02T11:44:55.15Z</time></trkpt><trkpt lat="44.2876714" lon="8.1244246"><ele>612.0</ele><time>2026-05-02T11:44:56.145Z</time></trkpt><trkpt lat="44.2875126" lon="8.1244741"><ele>612.0</ele><time>2026-05-02T11:44:57.152Z</time></trkpt><trkpt lat="44.2873514" lon="8.124534"><ele>612.0</ele><time>2026-05-02T11:44:58.143Z</time></trkpt><trkpt lat="44.2871945" lon="8.1245822"><ele>617.3333333333334</ele><time>2026-05-02T11:44:59.145Z</time></trkpt><trkpt lat="44.2870445" lon="8.1246406"><ele>622.6666666666667</ele><time>2026-05-02T11:45:00.146Z</time></trkpt><trkpt lat="44.2868971" lon="8.1247158"><ele>628.0</ele><time>2026-05-02T11:45:01.143Z</time></trkpt><trkpt lat="44.2867515" lon="8.124799"><ele>628.0</ele><time>2026-05-02T11:45:02.142Z</time></trkpt><trkpt lat="44.2866096" lon="8.1248892"><ele>628.0</ele><time>2026-05-02T11:45:03.146Z</time></trkpt><trkpt lat="44.2864756" lon="8.1249871"><ele>628.0</ele><time>2026-05-02T11:45:04.148Z</time></trkpt><trkpt lat="44.2863411" lon="8.1250874"><ele>626.0</ele><time>2026-05-02T11:45:05.148Z</time></trkpt><trkpt lat="44.2862107" lon="8.1251961"><ele>624.0</ele><time>2026-05-02T11:45:06.147Z</time></trkpt><trkpt lat="44.2860777" lon="8.1252874"><ele>622.0</ele><time>2026-05-02T11:45:07.143Z</time></trkpt><trkpt lat="44.2859345" lon="8.125368"><ele>622.0</ele><time>2026-05-02T11:45:08.148Z</time></trkpt><trkpt lat="44.285791" lon="8.1254397"><ele>622.0</ele><time>2026-05-02T11:45:09.15Z</time></trkpt><trkpt lat="44.2856435" lon="8.1255078"><ele>622.0</ele><time>2026-05-02T11:45:10.15Z</time></trkpt><trkpt lat="44.2854884" lon="8.1255495"><ele>630.3333333333334</ele><time>2026-05-02T11:45:11.145Z</time></trkpt><trkpt lat="44.2853217" lon="8.1255942"><ele>638.6666666666666</ele><time>2026-05-02T11:45:12.143Z</time></trkpt><trkpt lat="44.2851736" lon="8.12565"><ele>647.0</ele><time>2026-05-02T11:45:13.142Z</time></trkpt><trkpt lat="44.2850297" lon="8.1257156"><ele>637.0</ele><time>2026-05-02T11:45:14.147Z</time></trkpt><trkpt lat="44.2848973" lon="8.1257928"><ele>627.0</ele><time>2026-05-02T11:45:15.15Z</time></trkpt><trkpt lat="44.2847738" lon="8.1258676"><ele>617.0</ele><time>2026-05-02T11:45:16.149Z</time></trkpt><trkpt lat="44.2846437" lon="8.125966"><ele>607.0</ele><time>2026-05-02T11:45:17.145Z</time></trkpt><trkpt lat="44.2845121" lon="8.1260626"><ele>606.5</ele><time>2026-05-02T11:45:18.15Z</time></trkpt><trkpt lat="44.2843843" lon="8.1261446"><ele>606.0</ele><time>2026-05-02T11:45:19.152Z</time></trkpt><trkpt lat="44.2842462" lon="8.1261646"><ele>605.5</ele><time>2026-05-02T11:45:20.149Z</time></trkpt><trkpt lat="44.2841129" lon="8.1261167"><ele>605.0</ele><time>2026-05-02T11:45:21.149Z</time></trkpt><trkpt lat="44.2839864" lon="8.1260081"><ele>603.6666666666666</ele><time>2026-05-02T11:45:22.148Z</time></trkpt><trkpt lat="44.2838978" lon="8.1258276"><ele>602.3333333333334</ele><time>2026-05-02T11:45:23.15Z</time></trkpt><trkpt lat="44.2838189" lon="8.1256517"><ele>601.0</ele><time>2026-05-02T11:45:24.149Z</time></trkpt><trkpt lat="44.2837422" lon="8.1254726"><ele>606.3333333333334</ele><time>2026-05-02T11:45:25.154Z</time></trkpt><trkpt lat="44.2836412" lon="8.1253137"><ele>611.6666666666666</ele><time>2026-05-02T11:45:26.142Z</time></trkpt><trkpt lat="44.2835205" lon="8.1251844"><ele>617.0</ele><time>2026-05-02T11:45:27.14Z</time></trkpt><trkpt lat="44.2833865" lon="8.1250876"><ele>617.0</ele><time>2026-05-02T11:45:28.137Z</time></trkpt><trkpt lat="44.2832388" lon="8.1250245"><ele>617.0</ele><time>2026-05-02T11:45:29.142Z</time></trkpt><trkpt lat="44.2830911" lon="8.1249686"><ele>617.0</ele><time>2026-05-02T11:45:30.141Z</time></trkpt><trkpt lat="44.282951" lon="8.1249209"><ele>616.25</ele><time>2026-05-02T11:45:31.145Z</time></trkpt><trkpt lat="44.2828095" lon="8.1248892"><ele>615.5</ele><time>2026-05-02T11:45:32.136Z</time></trkpt><trkpt lat="44.2826678" lon="8.1248787"><ele>614.75</ele><time>2026-05-02T11:45:33.135Z</time></trkpt><trkpt lat="44.2825266" lon="8.1249079"><ele>614.0</ele><time>2026-05-02T11:45:34.14Z</time></trkpt><trkpt lat="44.2823723" lon="8.1249412"><ele>615.6666666666666</ele><time>2026-05-02T11:45:35.135Z</time></trkpt><trkpt lat="44.2822135" lon="8.1249742"><ele>617.3333333333334</ele><time>2026-05-02T11:45:36.138Z</time></trkpt><trkpt lat="44.2820642" lon="8.1250062"><ele>619.0</ele><time>2026-05-02T11:45:37.138Z</time></trkpt><trkpt lat="44.2819054" lon="8.1250377"><ele>619.0</ele><time>2026-05-02T11:45:38.137Z</time></trkpt><trkpt lat="44.2817513" lon="8.1251061"><ele>619.0</ele><time>2026-05-02T11:45:39.136Z</time></trkpt><trkpt lat="44.2815966" lon="8.1251641"><ele>619.0</ele><time>2026-05-02T11:45:40.137Z</time></trkpt><trkpt lat="44.2814411" lon="8.1252402"><ele>625.6666666666667</ele><time>2026-05-02T11:45:41.139Z</time></trkpt><trkpt lat="44.2812749" lon="8.125313"><ele>632.3333333333334</ele><time>2026-05-02T11:45:42.139Z</time></trkpt><trkpt lat="44.2811214" lon="8.1254007"><ele>639.0</ele><time>2026-05-02T11:45:43.138Z</time></trkpt><trkpt lat="44.2809681" lon="8.1255017"><ele>639.0</ele><time>2026-05-02T11:45:44.144Z</time></trkpt><trkpt lat="44.2808138" lon="8.1256258"><ele>639.0</ele><time>2026-05-02T11:45:45.139Z</time></trkpt><trkpt lat="44.2806531" lon="8.1257424"><ele>639.0</ele><time>2026-05-02T11:45:46.136Z</time></trkpt><trkpt lat="44.2804865" lon="8.125863"><ele>634.6666666666666</ele><time>2026-05-02T11:45:47.138Z</time></trkpt><trkpt lat="44.2803259" lon="8.1259766"><ele>630.3333333333333</ele><time>2026-05-02T11:45:48.142Z</time></trkpt><trkpt lat="44.2801687" lon="8.1260667"><ele>626.0</ele><time>2026-05-02T11:45:49.128Z</time></trkpt><trkpt lat="44.2800191" lon="8.1261574"><ele>626.0</ele><time>2026-05-02T11:45:50.13Z</time></trkpt><trkpt lat="44.2798764" lon="8.1262554"><ele>626.0</ele><time>2026-05-02T11:45:51.129Z</time></trkpt><trkpt lat="44.2797115" lon="8.1263654"><ele>626.0</ele><time>2026-05-02T11:45:52.126Z</time></trkpt><trkpt lat="44.2795625" lon="8.1264996"><ele>626.0</ele><time>2026-05-02T11:45:53.129Z</time></trkpt><trkpt lat="44.2794273" lon="8.126677"><ele>626.0</ele><time>2026-05-02T11:45:54.137Z</time></trkpt><trkpt lat="44.2793067" lon="8.1268632"><ele>626.0</ele><time>2026-05-02T11:45:55.137Z</time></trkpt><trkpt lat="44.2791987" lon="8.1271032"><ele>626.0</ele><time>2026-05-02T11:45:56.144Z</time></trkpt><trkpt lat="44.2790697" lon="8.1273073"><ele>626.0</ele><time>2026-05-02T11:45:57.142Z</time></trkpt><trkpt lat="44.2789311" lon="8.1274581"><ele>626.0</ele><time>2026-05-02T11:45:58.151Z</time></trkpt><trkpt lat="44.2787703" lon="8.127574"><ele>622.0</ele><time>2026-05-02T11:45:59.139Z</time></trkpt><trkpt lat="44.278571" lon="8.1276352"><ele>618.0</ele><time>2026-05-02T11:46:00.146Z</time></trkpt><trkpt lat="44.2783861" lon="8.1276133"><ele>614.0</ele><time>2026-05-02T11:46:01.143Z</time></trkpt><trkpt lat="44.2782093" lon="8.1275662"><ele>612.6666666666666</ele><time>2026-05-02T11:46:02.138Z</time></trkpt><trkpt lat="44.2780234" lon="8.1275361"><ele>611.3333333333334</ele><time>2026-05-02T11:46:03.139Z</time></trkpt><trkpt lat="44.2778433" lon="8.1275142"><ele>610.0</ele><time>2026-05-02T11:46:04.14Z</time></trkpt><trkpt lat="44.2776778" lon="8.1274821"><ele>610.0</ele><time>2026-05-02T11:46:05.143Z</time></trkpt><trkpt lat="44.2775286" lon="8.1274261"><ele>610.0</ele><time>2026-05-02T11:46:06.137Z</time></trkpt><trkpt lat="44.2773904" lon="8.1273784"><ele>610.0</ele><time>2026-05-02T11:46:07.146Z</time></trkpt><trkpt lat="44.2772644" lon="8.1273075"><ele>610.0</ele><time>2026-05-02T11:46:08.158Z</time></trkpt><trkpt lat="44.2771516" lon="8.1272354"><ele>611.6</ele><time>2026-05-02T11:46:09.152Z</time></trkpt><trkpt lat="44.2770524" lon="8.1271591"><ele>613.2</ele><time>2026-05-02T11:46:10.151Z</time></trkpt><trkpt lat="44.2769656" lon="8.1270923"><ele>614.8</ele><time>2026-05-02T11:46:11.151Z</time></trkpt><trkpt lat="44.2769009" lon="8.1270399"><ele>616.4</ele><time>2026-05-02T11:46:12.155Z</time></trkpt><trkpt lat="44.2767967" lon="8.1269815"><ele>618.0</ele><time>2026-05-02T11:46:14.164Z</time></trkpt><trkpt lat="44.2767399" lon="8.127035"><ele>618.0</ele><time>2026-05-02T11:46:16.151Z</time></trkpt><trkpt lat="44.2767177" lon="8.1271589"><ele>618.0</ele><time>2026-05-02T11:46:18.158Z</time></trkpt><trkpt lat="44.2766946" lon="8.1273521"><ele>618.0</ele><time>2026-05-02T11:46:20.15Z</time></trkpt><trkpt lat="44.2766816" lon="8.1274579"><ele>618.0</ele><time>2026-05-02T11:46:21.15Z</time></trkpt><trkpt lat="44.2766724" lon="8.1275605"><ele>618.0</ele><time>2026-05-02T11:46:22.149Z</time></trkpt><trkpt lat="44.2767056" lon="8.1277075"><ele>617.0</ele><time>2026-05-02T11:46:24.151Z</time></trkpt><trkpt lat="44.2767953" lon="8.1278007"><ele>616.0</ele><time>2026-05-02T11:46:26.152Z</time></trkpt><trkpt lat="44.2768766" lon="8.1278324"><ele>615.0</ele><time>2026-05-02T11:46:28.14Z</time></trkpt><trkpt lat="44.2769363" lon="8.1277888"><ele>614.0</ele><time>2026-05-02T11:46:37.146Z</time></trkpt><trkpt lat="44.2770093" lon="8.1277918"><ele>613.0</ele><time>2026-05-02T11:46:53.149Z</time></trkpt><trkpt lat="44.2771051" lon="8.1278195"><ele>612.0</ele><time>2026-05-02T11:46:54.155Z</time></trkpt><trkpt lat="44.2772096" lon="8.1278528"><ele>611.6</ele><time>2026-05-02T11:46:55.152Z</time></trkpt><trkpt lat="44.2773118" lon="8.1279025"><ele>611.2</ele><time>2026-05-02T11:46:56.153Z</time></trkpt><trkpt lat="44.2774004" lon="8.1279545"><ele>610.8</ele><time>2026-05-02T11:46:57.153Z</time></trkpt><trkpt lat="44.277504" lon="8.1279977"><ele>610.4</ele><time>2026-05-02T11:46:58.153Z</time></trkpt><trkpt lat="44.2775841" lon="8.1280581"><ele>610.0</ele><time>2026-05-02T11:46:59.148Z</time></trkpt><trkpt lat="44.2776515" lon="8.1281408"><ele>609.3333333333334</ele><time>2026-05-02T11:47:00.157Z</time></trkpt><trkpt lat="44.2777111" lon="8.128237"><ele>608.6666666666667</ele><time>2026-05-02T11:47:01.15Z</time></trkpt><trkpt lat="44.2777549" lon="8.1283418"><ele>608.0</ele><time>2026-05-02T11:47:02.158Z</time></trkpt><trkpt lat="44.277788" lon="8.1284579"><ele>607.3333333333334</ele><time>2026-05-02T11:47:03.152Z</time></trkpt><trkpt lat="44.2778175" lon="8.128577"><ele>606.6666666666666</ele><time>2026-05-02T11:47:04.151Z</time></trkpt><trkpt lat="44.2778537" lon="8.1286871"><ele>606.0</ele><time>2026-05-02T11:47:05.152Z</time></trkpt><trkpt lat="44.2778929" lon="8.1287896"><ele>606.0</ele><time>2026-05-02T11:47:06.154Z</time></trkpt><trkpt lat="44.2779349" lon="8.1288761"><ele>606.0</ele><time>2026-05-02T11:47:07.165Z</time></trkpt><trkpt lat="44.2779805" lon="8.1289514"><ele>606.0</ele><time>2026-05-02T11:47:08.154Z</time></trkpt><trkpt lat="44.2780319" lon="8.1290094"><ele>606.0</ele><time>2026-05-02T11:47:09.162Z</time></trkpt><trkpt lat="44.2781656" lon="8.129027"><ele>606.0</ele><time>2026-05-02T11:47:11.162Z</time></trkpt><trkpt lat="44.2782379" lon="8.1290794"><ele>606.0</ele><time>2026-05-02T11:47:12.163Z</time></trkpt><trkpt lat="44.2782986" lon="8.1291763"><ele>608.3333333333334</ele><time>2026-05-02T11:47:13.162Z</time></trkpt><trkpt lat="44.2783463" lon="8.129287"><ele>610.6666666666666</ele><time>2026-05-02T11:47:14.16Z</time></trkpt><trkpt lat="44.2783721" lon="8.1293873"><ele>613.0</ele><time>2026-05-02T11:47:15.163Z</time></trkpt><trkpt lat="44.2784165" lon="8.1295093"><ele>615.3333333333333</ele><time>2026-05-02T11:47:17.152Z</time></trkpt><trkpt lat="44.2784935" lon="8.129425"><ele>617.6666666666666</ele><time>2026-05-02T11:47:19.154Z</time></trkpt><trkpt lat="44.2785101" lon="8.1293311"><ele>620.0</ele><time>2026-05-02T11:47:20.15Z</time></trkpt><trkpt lat="44.2784972" lon="8.1292218"><ele>620.0</ele><time>2026-05-02T11:47:21.156Z</time></trkpt><trkpt lat="44.2784744" lon="8.1291067"><ele>620.0</ele><time>2026-05-02T11:47:22.152Z</time></trkpt><trkpt lat="44.2784621" lon="8.1289792"><ele>620.0</ele><time>2026-05-02T11:47:23.16Z</time></trkpt><trkpt lat="44.278467" lon="8.1288539"><ele>620.0</ele><time>2026-05-02T11:47:24.164Z</time></trkpt><trkpt lat="44.2784871" lon="8.1287605"><ele>620.0</ele><time>2026-05-02T11:47:25.163Z</time></trkpt><trkpt lat="44.2785794" lon="8.1286625"><ele>620.0</ele><time>2026-05-02T11:47:27.156Z</time></trkpt><trkpt lat="44.278709" lon="8.1286385"><ele>620.0</ele><time>2026-05-02T11:47:29.162Z</time></trkpt><trkpt lat="44.2787841" lon="8.1286486"><ele>620.0</ele><time>2026-05-02T11:47:30.158Z</time></trkpt><trkpt lat="44.2788659" lon="8.1286552"><ele>620.0</ele><time>2026-05-02T11:47:31.158Z</time></trkpt><trkpt lat="44.2789617" lon="8.1286474"><ele>620.0</ele><time>2026-05-02T11:47:32.161Z</time></trkpt><trkpt lat="44.2790711" lon="8.1286261"><ele>620.0</ele><time>2026-05-02T11:47:33.157Z</time></trkpt><trkpt lat="44.2791855" lon="8.1285956"><ele>620.0</ele><time>2026-05-02T11:47:34.157Z</time></trkpt><trkpt lat="44.2792736" lon="8.1285713"><ele>620.0</ele><time>2026-05-02T11:47:35.161Z</time></trkpt><trkpt lat="44.2793423" lon="8.1285826"><ele>620.0</ele><time>2026-05-02T11:47:36.157Z</time></trkpt><trkpt lat="44.2794209" lon="8.1286462"><ele>620.0</ele><time>2026-05-02T11:47:38.162Z</time></trkpt><trkpt lat="44.2793501" lon="8.1287953"><ele>620.0</ele><time>2026-05-02T11:47:40.155Z</time></trkpt><trkpt lat="44.2792796" lon="8.1288535"><ele>620.0</ele><time>2026-05-02T11:47:41.157Z</time></trkpt><trkpt lat="44.2791993" lon="8.1289045"><ele>620.0</ele><time>2026-05-02T11:47:42.155Z</time></trkpt><trkpt lat="44.27911" lon="8.1289503"><ele>620.0</ele><time>2026-05-02T11:47:43.147Z</time></trkpt><trkpt lat="44.2790213" lon="8.1289982"><ele>620.0</ele><time>2026-05-02T11:47:44.153Z</time></trkpt><trkpt lat="44.278939" lon="8.1290564"><ele>620.0</ele><time>2026-05-02T11:47:45.149Z</time></trkpt><trkpt lat="44.2788701" lon="8.1291311"><ele>620.0</ele><time>2026-05-02T11:47:46.152Z</time></trkpt><trkpt lat="44.278819" lon="8.1292337"><ele>620.0</ele><time>2026-05-02T11:47:47.143Z</time></trkpt><trkpt lat="44.2787852" lon="8.1293183"><ele>620.0</ele><time>2026-05-02T11:47:48.147Z</time></trkpt><trkpt lat="44.2788642" lon="8.1292893"><ele>620.0</ele><time>2026-05-02T11:47:52.148Z</time></trkpt><trkpt lat="44.2789098" lon="8.1292098"><ele>620.0</ele><time>2026-05-02T11:47:53.159Z</time></trkpt><trkpt lat="44.2789836" lon="8.1291785"><ele>625.0</ele><time>2026-05-02T11:47:54.164Z</time></trkpt><trkpt lat="44.2790607" lon="8.129194"><ele>630.0</ele><time>2026-05-02T11:47:55.162Z</time></trkpt><trkpt lat="44.2791556" lon="8.1292358"><ele>635.0</ele><time>2026-05-02T11:47:56.158Z</time></trkpt><trkpt lat="44.2792635" lon="8.1292629"><ele>640.0</ele><time>2026-05-02T11:47:57.159Z</time></trkpt><trkpt lat="44.2793762" lon="8.1292781"><ele>645.0</ele><time>2026-05-02T11:47:58.155Z</time></trkpt><trkpt lat="44.279497" lon="8.1292666"><ele>645.0</ele><time>2026-05-02T11:47:59.157Z</time></trkpt><trkpt lat="44.2796046" lon="8.1292358"><ele>645.0</ele><time>2026-05-02T11:48:00.156Z</time></trkpt><trkpt lat="44.2797041" lon="8.1292071"><ele>645.0</ele><time>2026-05-02T11:48:01.161Z</time></trkpt><trkpt lat="44.2797848" lon="8.1292311"><ele>645.0</ele><time>2026-05-02T11:48:02.163Z</time></trkpt><trkpt lat="44.2798078" lon="8.1293937"><ele>645.0</ele><time>2026-05-02T11:48:04.163Z</time></trkpt><trkpt lat="44.2797644" lon="8.1294744"><ele>645.0</ele><time>2026-05-02T11:48:05.154Z</time></trkpt><trkpt lat="44.279711" lon="8.1295481"><ele>645.0</ele><time>2026-05-02T11:48:06.148Z</time></trkpt><trkpt lat="44.2796388" lon="8.1296009"><ele>645.0</ele><time>2026-05-02T11:48:07.151Z</time></trkpt><trkpt lat="44.2795631" lon="8.1296555"><ele>645.0</ele><time>2026-05-02T11:48:08.155Z</time></trkpt><trkpt lat="44.279479" lon="8.1297008"><ele>645.0</ele><time>2026-05-02T11:48:09.151Z</time></trkpt><trkpt lat="44.2793955" lon="8.1297514"><ele>645.0</ele><time>2026-05-02T11:48:10.151Z</time></trkpt><trkpt lat="44.2792862" lon="8.1297652"><ele>645.0</ele><time>2026-05-02T11:48:11.151Z</time></trkpt><trkpt lat="44.2791775" lon="8.1297913"><ele>645.0</ele><time>2026-05-02T11:48:12.153Z</time></trkpt><trkpt lat="44.27907" lon="8.1298327"><ele>645.0</ele><time>2026-05-02T11:48:13.162Z</time></trkpt><trkpt lat="44.2789815" lon="8.1298961"><ele>645.0</ele><time>2026-05-02T11:48:14.152Z</time></trkpt><trkpt lat="44.2788813" lon="8.1299799"><ele>645.0</ele><time>2026-05-02T11:48:15.155Z</time></trkpt><trkpt lat="44.2788007" lon="8.1300738"><ele>644.4</ele><time>2026-05-02T11:48:16.159Z</time></trkpt><trkpt lat="44.2787299" lon="8.1301801"><ele>643.8</ele><time>2026-05-02T11:48:17.162Z</time></trkpt><trkpt lat="44.2786757" lon="8.1303034"><ele>643.2</ele><time>2026-05-02T11:48:18.15Z</time></trkpt><trkpt lat="44.2786347" lon="8.1304327"><ele>642.6</ele><time>2026-05-02T11:48:19.152Z</time></trkpt><trkpt lat="44.2785961" lon="8.1305655"><ele>642.0</ele><time>2026-05-02T11:48:20.162Z</time></trkpt><trkpt lat="44.2785621" lon="8.1306984"><ele>647.6</ele><time>2026-05-02T11:48:21.164Z</time></trkpt><trkpt lat="44.2785297" lon="8.1308264"><ele>653.2</ele><time>2026-05-02T11:48:22.156Z</time></trkpt><trkpt lat="44.2784981" lon="8.1309433"><ele>658.8</ele><time>2026-05-02T11:48:23.156Z</time></trkpt><trkpt lat="44.2784768" lon="8.131064"><ele>664.4</ele><time>2026-05-02T11:48:24.162Z</time></trkpt><trkpt lat="44.2784679" lon="8.1311893"><ele>670.0</ele><time>2026-05-02T11:48:25.156Z</time></trkpt><trkpt lat="44.2784769" lon="8.131321"><ele>670.0</ele><time>2026-05-02T11:48:26.152Z</time></trkpt><trkpt lat="44.2784913" lon="8.13146"><ele>670.0</ele><time>2026-05-02T11:48:27.161Z</time></trkpt><trkpt lat="44.2785016" lon="8.1316019"><ele>670.0</ele><time>2026-05-02T11:48:28.162Z</time></trkpt><trkpt lat="44.2784989" lon="8.1317449"><ele>670.0</ele><time>2026-05-02T11:48:29.154Z</time></trkpt><trkpt lat="44.2784849" lon="8.1318794"><ele>670.0</ele><time>2026-05-02T11:48:30.166Z</time></trkpt><trkpt lat="44.2784513" lon="8.1320011"><ele>671.5</ele><time>2026-05-02T11:48:31.16Z</time></trkpt><trkpt lat="44.2784124" lon="8.132108"><ele>673.0</ele><time>2026-05-02T11:48:32.168Z</time></trkpt><trkpt lat="44.2783651" lon="8.1322161"><ele>674.5</ele><time>2026-05-02T11:48:33.16Z</time></trkpt><trkpt lat="44.2783232" lon="8.1323228"><ele>676.0</ele><time>2026-05-02T11:48:34.163Z</time></trkpt><trkpt lat="44.2782885" lon="8.1324284"><ele>677.5</ele><time>2026-05-02T11:48:35.163Z</time></trkpt><trkpt lat="44.2782533" lon="8.1325282"><ele>679.0</ele><time>2026-05-02T11:48:36.149Z</time></trkpt><trkpt lat="44.2782353" lon="8.1326232"><ele>679.8000000000001</ele><time>2026-05-02T11:48:37.158Z</time></trkpt><trkpt lat="44.2782419" lon="8.1327279"><ele>680.6</ele><time>2026-05-02T11:48:38.149Z</time></trkpt><trkpt lat="44.2782658" lon="8.1328553"><ele>681.4</ele><time>2026-05-02T11:48:39.156Z</time></trkpt><trkpt lat="44.2783044" lon="8.1329945"><ele>682.2</ele><time>2026-05-02T11:48:40.159Z</time></trkpt><trkpt lat="44.2783463" lon="8.1331415"><ele>683.0</ele><time>2026-05-02T11:48:41.158Z</time></trkpt><trkpt lat="44.2783832" lon="8.1332919"><ele>683.8</ele><time>2026-05-02T11:48:42.157Z</time></trkpt><trkpt lat="44.2784141" lon="8.1334442"><ele>684.5999999999999</ele><time>2026-05-02T11:48:43.161Z</time></trkpt><trkpt lat="44.2784431" lon="8.1335897"><ele>685.4000000000001</ele><time>2026-05-02T11:48:44.159Z</time></trkpt><trkpt lat="44.2784562" lon="8.1337204"><ele>686.2</ele><time>2026-05-02T11:48:45.152Z</time></trkpt><trkpt lat="44.278465" lon="8.1338407"><ele>687.0</ele><time>2026-05-02T11:48:46.157Z</time></trkpt><trkpt lat="44.2784864" lon="8.1339483"><ele>687.0</ele><time>2026-05-02T11:48:47.162Z</time></trkpt><trkpt lat="44.278524" lon="8.1340445"><ele>687.0</ele><time>2026-05-02T11:48:48.152Z</time></trkpt><trkpt lat="44.2785702" lon="8.134135"><ele>687.0</ele><time>2026-05-02T11:48:49.156Z</time></trkpt><trkpt lat="44.2786192" lon="8.1342153"><ele>687.0</ele><time>2026-05-02T11:48:50.15Z</time></trkpt><trkpt lat="44.2786586" lon="8.1343576"><ele>687.0</ele><time>2026-05-02T11:48:52.162Z</time></trkpt><trkpt lat="44.2785453" lon="8.1343643"><ele>689.2</ele><time>2026-05-02T11:48:55.156Z</time></trkpt><trkpt lat="44.2784765" lon="8.1343053"><ele>691.4000000000001</ele><time>2026-05-02T11:48:56.164Z</time></trkpt><trkpt lat="44.2783902" lon="8.1342401"><ele>693.5999999999999</ele><time>2026-05-02T11:48:57.153Z</time></trkpt><trkpt lat="44.2782908" lon="8.1341667"><ele>695.8</ele><time>2026-05-02T11:48:58.158Z</time></trkpt><trkpt lat="44.2781829" lon="8.1341053"><ele>698.0</ele><time>2026-05-02T11:48:59.153Z</time></trkpt><trkpt lat="44.2780612" lon="8.1340489"><ele>694.0</ele><time>2026-05-02T11:49:00.165Z</time></trkpt><trkpt lat="44.277949" lon="8.1340337"><ele>690.0</ele><time>2026-05-02T11:49:01.159Z</time></trkpt><trkpt lat="44.2778586" lon="8.1340591"><ele>686.0</ele><time>2026-05-02T11:49:02.167Z</time></trkpt><trkpt lat="44.2778098" lon="8.1341551"><ele>682.0</ele><time>2026-05-02T11:49:03.164Z</time></trkpt><trkpt lat="44.2777693" lon="8.1343048"><ele>678.0</ele><time>2026-05-02T11:49:04.154Z</time></trkpt><trkpt lat="44.2777395" lon="8.1344727"><ele>678.0</ele><time>2026-05-02T11:49:05.153Z</time></trkpt><trkpt lat="44.2777203" lon="8.1346387"><ele>678.0</ele><time>2026-05-02T11:49:06.154Z</time></trkpt><trkpt lat="44.2776934" lon="8.1348051"><ele>678.0</ele><time>2026-05-02T11:49:07.153Z</time></trkpt><trkpt lat="44.2776721" lon="8.1349756"><ele>678.0</ele><time>2026-05-02T11:49:08.152Z</time></trkpt><trkpt lat="44.2776503" lon="8.1351432"><ele>680.5</ele><time>2026-05-02T11:49:09.157Z</time></trkpt><trkpt lat="44.2776287" lon="8.1353068"><ele>683.0</ele><time>2026-05-02T11:49:10.162Z</time></trkpt><trkpt lat="44.2776105" lon="8.1354689"><ele>685.5</ele><time>2026-05-02T11:49:11.161Z</time></trkpt><trkpt lat="44.2776003" lon="8.1356303"><ele>688.0</ele><time>2026-05-02T11:49:12.159Z</time></trkpt><trkpt lat="44.2775933" lon="8.1357944"><ele>690.5</ele><time>2026-05-02T11:49:13.161Z</time></trkpt><trkpt lat="44.2776041" lon="8.1359637"><ele>693.0</ele><time>2026-05-02T11:49:14.16Z</time></trkpt><trkpt lat="44.2776276" lon="8.1361326"><ele>695.5</ele><time>2026-05-02T11:49:15.163Z</time></trkpt><trkpt lat="44.2776535" lon="8.1363009"><ele>698.0</ele><time>2026-05-02T11:49:16.162Z</time></trkpt><trkpt lat="44.2776798" lon="8.1364713"><ele>699.0</ele><time>2026-05-02T11:49:17.159Z</time></trkpt><trkpt lat="44.2777109" lon="8.1366372"><ele>700.0</ele><time>2026-05-02T11:49:18.158Z</time></trkpt><trkpt lat="44.2777539" lon="8.136788"><ele>701.0</ele><time>2026-05-02T11:49:19.161Z</time></trkpt><trkpt lat="44.2777856" lon="8.1369151"><ele>702.0</ele><time>2026-05-02T11:49:20.162Z</time></trkpt><trkpt lat="44.2777931" lon="8.1370074"><ele>703.0</ele><time>2026-05-02T11:49:21.159Z</time></trkpt><trkpt lat="44.2777567" lon="8.1371213"><ele>703.0</ele><time>2026-05-02T11:49:23.153Z</time></trkpt><trkpt lat="44.2776884" lon="8.1372305"><ele>703.0</ele><time>2026-05-02T11:49:25.157Z</time></trkpt><trkpt lat="44.2776395" lon="8.1372957"><ele>703.0</ele><time>2026-05-02T11:49:26.154Z</time></trkpt><trkpt lat="44.2775762" lon="8.1373718"><ele>703.0</ele><time>2026-05-02T11:49:27.163Z</time></trkpt><trkpt lat="44.2775007" lon="8.1374465"><ele>703.0</ele><time>2026-05-02T11:49:28.156Z</time></trkpt><trkpt lat="44.2774163" lon="8.1375218"><ele>703.0</ele><time>2026-05-02T11:49:29.161Z</time></trkpt><trkpt lat="44.2773267" lon="8.1375938"><ele>699.8</ele><time>2026-05-02T11:49:30.159Z</time></trkpt><trkpt lat="44.2772414" lon="8.137662"><ele>696.5999999999999</ele><time>2026-05-02T11:49:31.166Z</time></trkpt><trkpt lat="44.277163" lon="8.1377355"><ele>693.4000000000001</ele><time>2026-05-02T11:49:32.16Z</time></trkpt><trkpt lat="44.2771036" lon="8.1378268"><ele>690.2</ele><time>2026-05-02T11:49:33.16Z</time></trkpt><trkpt lat="44.2770696" lon="8.1379366"><ele>687.0</ele><time>2026-05-02T11:49:34.161Z</time></trkpt><trkpt lat="44.2770654" lon="8.1380631"><ele>687.0</ele><time>2026-05-02T11:49:35.157Z</time></trkpt><trkpt lat="44.2770815" lon="8.1381885"><ele>687.0</ele><time>2026-05-02T11:49:36.161Z</time></trkpt><trkpt lat="44.2771074" lon="8.1383005"><ele>687.0</ele><time>2026-05-02T11:49:37.158Z</time></trkpt><trkpt lat="44.2771389" lon="8.1384086"><ele>687.0</ele><time>2026-05-02T11:49:38.162Z</time></trkpt><trkpt lat="44.2771784" lon="8.1385056"><ele>687.0</ele><time>2026-05-02T11:49:39.157Z</time></trkpt><trkpt lat="44.2772373" lon="8.1385948"><ele>687.0</ele><time>2026-05-02T11:49:40.16Z</time></trkpt><trkpt lat="44.277313" lon="8.1386656"><ele>691.2</ele><time>2026-05-02T11:49:41.16Z</time></trkpt><trkpt lat="44.2774015" lon="8.1387208"><ele>695.4000000000001</ele><time>2026-05-02T11:49:42.166Z</time></trkpt><trkpt lat="44.2774947" lon="8.1387603"><ele>699.5999999999999</ele><time>2026-05-02T11:49:43.162Z</time></trkpt><trkpt lat="44.2775905" lon="8.1388003"><ele>703.8</ele><time>2026-05-02T11:49:44.164Z</time></trkpt><trkpt lat="44.2776818" lon="8.138852"><ele>708.0</ele><time>2026-05-02T11:49:45.17Z</time></trkpt><trkpt lat="44.2777706" lon="8.1389139"><ele>708.0</ele><time>2026-05-02T11:49:46.168Z</time></trkpt><trkpt lat="44.2778473" lon="8.1390066"><ele>708.0</ele><time>2026-05-02T11:49:47.165Z</time></trkpt><trkpt lat="44.27791" lon="8.1391132"><ele>708.0</ele><time>2026-05-02T11:49:48.165Z</time></trkpt><trkpt lat="44.2779432" lon="8.1392325"><ele>708.0</ele><time>2026-05-02T11:49:49.166Z</time></trkpt><trkpt lat="44.2779545" lon="8.1393598"><ele>708.0</ele><time>2026-05-02T11:49:50.164Z</time></trkpt><trkpt lat="44.2779645" lon="8.1394945"><ele>709.0</ele><time>2026-05-02T11:49:51.155Z</time></trkpt><trkpt lat="44.2779859" lon="8.1396234"><ele>710.0</ele><time>2026-05-02T11:49:52.152Z</time></trkpt><trkpt lat="44.2780185" lon="8.13975"><ele>711.0</ele><time>2026-05-02T11:49:53.151Z</time></trkpt><trkpt lat="44.2780639" lon="8.1398784"><ele>712.0</ele><time>2026-05-02T11:49:54.157Z</time></trkpt><trkpt lat="44.2781161" lon="8.1400065"><ele>713.0</ele><time>2026-05-02T11:49:55.15Z</time></trkpt><trkpt lat="44.2781792" lon="8.1401314"><ele>713.0</ele><time>2026-05-02T11:49:56.148Z</time></trkpt><trkpt lat="44.2782331" lon="8.1402387"><ele>713.0</ele><time>2026-05-02T11:49:57.154Z</time></trkpt><trkpt lat="44.2782698" lon="8.1403284"><ele>713.0</ele><time>2026-05-02T11:49:58.161Z</time></trkpt><trkpt lat="44.278268" lon="8.1404839"><ele>713.0</ele><time>2026-05-02T11:50:00.146Z</time></trkpt><trkpt lat="44.2781753" lon="8.1405218"><ele>713.0</ele><time>2026-05-02T11:50:02.151Z</time></trkpt><trkpt lat="44.2780456" lon="8.140469"><ele>709.5</ele><time>2026-05-02T11:50:03.149Z</time></trkpt><trkpt lat="44.2779124" lon="8.1404008"><ele>706.0</ele><time>2026-05-02T11:50:04.148Z</time></trkpt><trkpt lat="44.2777706" lon="8.1403315"><ele>702.5</ele><time>2026-05-02T11:50:05.154Z</time></trkpt><trkpt lat="44.2776226" lon="8.1402695"><ele>699.0</ele><time>2026-05-02T11:50:06.149Z</time></trkpt><trkpt lat="44.2774964" lon="8.1402278"><ele>699.0</ele><time>2026-05-02T11:50:07.15Z</time></trkpt><trkpt lat="44.2773955" lon="8.1402232"><ele>699.0</ele><time>2026-05-02T11:50:08.151Z</time></trkpt><trkpt lat="44.2772749" lon="8.1402705"><ele>699.0</ele><time>2026-05-02T11:50:09.155Z</time></trkpt><trkpt lat="44.2771691" lon="8.140309"><ele>699.0</ele><time>2026-05-02T11:50:10.166Z</time></trkpt><trkpt lat="44.2770801" lon="8.1403103"><ele>699.0</ele><time>2026-05-02T11:50:11.167Z</time></trkpt><trkpt lat="44.2769955" lon="8.1402791"><ele>698.0</ele><time>2026-05-02T11:50:12.165Z</time></trkpt><trkpt lat="44.2769142" lon="8.1401892"><ele>697.0</ele><time>2026-05-02T11:50:13.162Z</time></trkpt><trkpt lat="44.2768474" lon="8.1400637"><ele>696.0</ele><time>2026-05-02T11:50:14.16Z</time></trkpt><trkpt lat="44.276769" lon="8.1399339"><ele>695.0</ele><time>2026-05-02T11:50:15.157Z</time></trkpt><trkpt lat="44.2766848" lon="8.13984"><ele>694.0</ele><time>2026-05-02T11:50:16.162Z</time></trkpt><trkpt lat="44.2766018" lon="8.1397716"><ele>694.0</ele><time>2026-05-02T11:50:17.153Z</time></trkpt><trkpt lat="44.276512" lon="8.1397213"><ele>694.0</ele><time>2026-05-02T11:50:18.161Z</time></trkpt><trkpt lat="44.2764037" lon="8.139707"><ele>694.0</ele><time>2026-05-02T11:50:19.163Z</time></trkpt><trkpt lat="44.276303" lon="8.1396735"><ele>694.0</ele><time>2026-05-02T11:50:20.157Z</time></trkpt><trkpt lat="44.2762072" lon="8.1396373"><ele>694.0</ele><time>2026-05-02T11:50:21.157Z</time></trkpt><trkpt lat="44.2761186" lon="8.1396253"><ele>692.8000000000001</ele><time>2026-05-02T11:50:22.165Z</time></trkpt><trkpt lat="44.2760499" lon="8.1396409"><ele>691.6</ele><time>2026-05-02T11:50:23.161Z</time></trkpt><trkpt lat="44.2760009" lon="8.1397139"><ele>690.4</ele><time>2026-05-02T11:50:24.153Z</time></trkpt><trkpt lat="44.27594" lon="8.1398173"><ele>689.2</ele><time>2026-05-02T11:50:25.154Z</time></trkpt><trkpt lat="44.2758762" lon="8.1399558"><ele>688.0</ele><time>2026-05-02T11:50:26.154Z</time></trkpt><trkpt lat="44.2758082" lon="8.1401161"><ele>689.75</ele><time>2026-05-02T11:50:27.153Z</time></trkpt><trkpt lat="44.2757218" lon="8.1402632"><ele>691.5</ele><time>2026-05-02T11:50:28.15Z</time></trkpt><trkpt lat="44.2756393" lon="8.1403953"><ele>693.25</ele><time>2026-05-02T11:50:29.16Z</time></trkpt><trkpt lat="44.2755333" lon="8.1405078"><ele>695.0</ele><time>2026-05-02T11:50:30.158Z</time></trkpt><trkpt lat="44.2754175" lon="8.1405842"><ele>695.0</ele><time>2026-05-02T11:50:31.14Z</time></trkpt><trkpt lat="44.2752973" lon="8.1406391"><ele>695.0</ele><time>2026-05-02T11:50:32.145Z</time></trkpt><trkpt lat="44.2751837" lon="8.1406775"><ele>695.0</ele><time>2026-05-02T11:50:33.151Z</time></trkpt><trkpt lat="44.2750719" lon="8.1407095"><ele>695.0</ele><time>2026-05-02T11:50:34.145Z</time></trkpt><trkpt lat="44.2749631" lon="8.1407408"><ele>698.5</ele><time>2026-05-02T11:50:35.14Z</time></trkpt><trkpt lat="44.2748846" lon="8.1407793"><ele>702.0</ele><time>2026-05-02T11:50:36.148Z</time></trkpt><trkpt lat="44.274823" lon="8.1408476"><ele>705.5</ele><time>2026-05-02T11:50:37.146Z</time></trkpt><trkpt lat="44.2747901" lon="8.1409408"><ele>709.0</ele><time>2026-05-02T11:50:38.143Z</time></trkpt><trkpt lat="44.2747981" lon="8.1410591"><ele>712.5</ele><time>2026-05-02T11:50:39.148Z</time></trkpt><trkpt lat="44.2748143" lon="8.141185"><ele>716.0</ele><time>2026-05-02T11:50:40.149Z</time></trkpt><trkpt lat="44.2748262" lon="8.1413151"><ele>716.0</ele><time>2026-05-02T11:50:41.153Z</time></trkpt><trkpt lat="44.2748217" lon="8.1414414"><ele>716.0</ele><time>2026-05-02T11:50:42.16Z</time></trkpt><trkpt lat="44.2747715" lon="8.1415329"><ele>716.0</ele><time>2026-05-02T11:50:43.156Z</time></trkpt><trkpt lat="44.2746991" lon="8.1416019"><ele>716.0</ele><time>2026-05-02T11:50:44.158Z</time></trkpt><trkpt lat="44.2746312" lon="8.1416731"><ele>716.0</ele><time>2026-05-02T11:50:45.147Z</time></trkpt><trkpt lat="44.2745573" lon="8.1417454"><ele>716.0</ele><time>2026-05-02T11:50:46.156Z</time></trkpt><trkpt lat="44.2744871" lon="8.1418117"><ele>715.8333333333333</ele><time>2026-05-02T11:50:47.158Z</time></trkpt><trkpt lat="44.2744151" lon="8.1418789"><ele>715.6666666666666</ele><time>2026-05-02T11:50:48.155Z</time></trkpt><trkpt lat="44.274347" lon="8.1419479"><ele>715.5</ele><time>2026-05-02T11:50:49.155Z</time></trkpt><trkpt lat="44.2742882" lon="8.1420284"><ele>715.3333333333334</ele><time>2026-05-02T11:50:50.151Z</time></trkpt><trkpt lat="44.2742362" lon="8.142122"><ele>715.1666666666667</ele><time>2026-05-02T11:50:51.148Z</time></trkpt><trkpt lat="44.2741925" lon="8.1422353"><ele>715.0</ele><time>2026-05-02T11:50:52.156Z</time></trkpt><trkpt lat="44.2741676" lon="8.1423584"><ele>715.8333333333334</ele><time>2026-05-02T11:50:53.159Z</time></trkpt><trkpt lat="44.274179" lon="8.1424721"><ele>716.6666666666667</ele><time>2026-05-02T11:50:54.161Z</time></trkpt><trkpt lat="44.2742033" lon="8.1425676"><ele>717.5</ele><time>2026-05-02T11:50:55.168Z</time></trkpt><trkpt lat="44.2742585" lon="8.1426358"><ele>718.3333333333334</ele><time>2026-05-02T11:50:56.161Z</time></trkpt><trkpt lat="44.2743438" lon="8.1426527"><ele>719.1666666666666</ele><time>2026-05-02T11:50:57.166Z</time></trkpt><trkpt lat="44.2744323" lon="8.142622"><ele>720.0</ele><time>2026-05-02T11:50:58.157Z</time></trkpt><trkpt lat="44.2745004" lon="8.142562"><ele>720.0</ele><time>2026-05-02T11:50:59.153Z</time></trkpt><trkpt lat="44.2745649" lon="8.1424936"><ele>720.0</ele><time>2026-05-02T11:51:00.152Z</time></trkpt><trkpt lat="44.2746312" lon="8.1424232"><ele>720.0</ele><time>2026-05-02T11:51:01.156Z</time></trkpt><trkpt lat="44.2747017" lon="8.1423569"><ele>720.0</ele><time>2026-05-02T11:51:02.151Z</time></trkpt><trkpt lat="44.2747775" lon="8.1422889"><ele>720.0</ele><time>2026-05-02T11:51:03.146Z</time></trkpt><trkpt lat="44.2748556" lon="8.1422203"><ele>720.0</ele><time>2026-05-02T11:51:04.151Z</time></trkpt><trkpt lat="44.2749369" lon="8.1421599"><ele>722.0</ele><time>2026-05-02T11:51:05.145Z</time></trkpt><trkpt lat="44.275031" lon="8.1420914"><ele>724.0</ele><time>2026-05-02T11:51:06.149Z</time></trkpt><trkpt lat="44.275135" lon="8.1420271"><ele>726.0</ele><time>2026-05-02T11:51:07.159Z</time></trkpt><trkpt lat="44.2752464" lon="8.1419691"><ele>728.0</ele><time>2026-05-02T11:51:08.149Z</time></trkpt><trkpt lat="44.2753541" lon="8.1419292"><ele>728.0</ele><time>2026-05-02T11:51:09.155Z</time></trkpt><trkpt lat="44.2754508" lon="8.1418994"><ele>728.0</ele><time>2026-05-02T11:51:10.15Z</time></trkpt><trkpt lat="44.2755517" lon="8.1418673"><ele>728.0</ele><time>2026-05-02T11:51:11.144Z</time></trkpt><trkpt lat="44.2756364" lon="8.1418306"><ele>728.0</ele><time>2026-05-02T11:51:12.152Z</time></trkpt><trkpt lat="44.2757026" lon="8.1417802"><ele>728.0</ele><time>2026-05-02T11:51:13.156Z</time></trkpt><trkpt lat="44.2757579" lon="8.1417212"><ele>728.0</ele><time>2026-05-02T11:51:14.153Z</time></trkpt><trkpt lat="44.2758049" lon="8.1416372"><ele>728.3333333333333</ele><time>2026-05-02T11:51:15.154Z</time></trkpt><trkpt lat="44.2758266" lon="8.1415473"><ele>728.6666666666666</ele><time>2026-05-02T11:51:16.156Z</time></trkpt><trkpt lat="44.275846" lon="8.1414549"><ele>729.0</ele><time>2026-05-02T11:51:17.154Z</time></trkpt><trkpt lat="44.2758696" lon="8.1413656"><ele>729.3333333333334</ele><time>2026-05-02T11:51:18.147Z</time></trkpt><trkpt lat="44.2759442" lon="8.1412336"><ele>729.6666666666667</ele><time>2026-05-02T11:51:20.138Z</time></trkpt><trkpt lat="44.2760108" lon="8.1411778"><ele>730.0</ele><time>2026-05-02T11:51:21.144Z</time></trkpt><trkpt lat="44.2760814" lon="8.141127"><ele>730.0</ele><time>2026-05-02T11:51:22.163Z</time></trkpt><trkpt lat="44.2761508" lon="8.1410892"><ele>730.0</ele><time>2026-05-02T11:51:23.158Z</time></trkpt><trkpt lat="44.2762738" lon="8.1410862"><ele>730.0</ele><time>2026-05-02T11:51:25.162Z</time></trkpt><trkpt lat="44.2763345" lon="8.1411268"><ele>730.0</ele><time>2026-05-02T11:51:26.15Z</time></trkpt><trkpt lat="44.2764047" lon="8.1411748"><ele>730.0</ele><time>2026-05-02T11:51:27.156Z</time></trkpt><trkpt lat="44.2764753" lon="8.1412188"><ele>730.0</ele><time>2026-05-02T11:51:28.142Z</time></trkpt><trkpt lat="44.2765625" lon="8.1412692"><ele>731.4</ele><time>2026-05-02T11:51:29.149Z</time></trkpt><trkpt lat="44.2766516" lon="8.141319"><ele>732.8</ele><time>2026-05-02T11:51:30.152Z</time></trkpt><trkpt lat="44.2767388" lon="8.1413766"><ele>734.2</ele><time>2026-05-02T11:51:31.147Z</time></trkpt><trkpt lat="44.2768228" lon="8.1414448"><ele>735.6</ele><time>2026-05-02T11:51:32.136Z</time></trkpt><trkpt lat="44.2769055" lon="8.1415281"><ele>737.0</ele><time>2026-05-02T11:51:33.139Z</time></trkpt><trkpt lat="44.2769915" lon="8.1416245"><ele>739.6666666666666</ele><time>2026-05-02T11:51:34.153Z</time></trkpt><trkpt lat="44.2770543" lon="8.141731"><ele>742.3333333333333</ele><time>2026-05-02T11:51:35.152Z</time></trkpt><trkpt lat="44.2770978" lon="8.1418366"><ele>745.0</ele><time>2026-05-02T11:51:36.147Z</time></trkpt><trkpt lat="44.2771102" lon="8.1419721"><ele>747.6666666666666</ele><time>2026-05-02T11:51:38.14Z</time></trkpt><trkpt lat="44.2770295" lon="8.1420078"><ele>750.3333333333334</ele><time>2026-05-02T11:51:40.157Z</time></trkpt><trkpt lat="44.2769635" lon="8.1420174"><ele>753.0</ele><time>2026-05-02T11:51:41.14Z</time></trkpt><trkpt lat="44.276861" lon="8.1420334"><ele>753.0</ele><time>2026-05-02T11:51:42.146Z</time></trkpt><trkpt lat="44.2767339" lon="8.1420486"><ele>753.0</ele><time>2026-05-02T11:51:43.131Z</time></trkpt><trkpt lat="44.276638" lon="8.1420644"><ele>753.0</ele><time>2026-05-02T11:51:44.139Z</time></trkpt><trkpt lat="44.2765558" lon="8.1420941"><ele>753.0</ele><time>2026-05-02T11:51:45.134Z</time></trkpt><trkpt lat="44.2764779" lon="8.1421846"><ele>753.0</ele><time>2026-05-02T11:51:46.134Z</time></trkpt><trkpt lat="44.2764483" lon="8.1423038"><ele>754.5999999999999</ele><time>2026-05-02T11:51:47.139Z</time></trkpt><trkpt lat="44.2764203" lon="8.1424629"><ele>756.1999999999999</ele><time>2026-05-02T11:51:48.144Z</time></trkpt><trkpt lat="44.27639" lon="8.1426029"><ele>757.8</ele><time>2026-05-02T11:51:49.158Z</time></trkpt><trkpt lat="44.2763411" lon="8.1427023"><ele>759.4</ele><time>2026-05-02T11:51:50.15Z</time></trkpt><trkpt lat="44.2762727" lon="8.142791"><ele>761.0</ele><time>2026-05-02T11:51:51.139Z</time></trkpt><trkpt lat="44.2761725" lon="8.1428696"><ele>761.0</ele><time>2026-05-02T11:51:52.143Z</time></trkpt><trkpt lat="44.2760746" lon="8.142943"><ele>761.0</ele><time>2026-05-02T11:51:53.138Z</time></trkpt><trkpt lat="44.2759916" lon="8.1430234"><ele>761.0</ele><time>2026-05-02T11:51:54.142Z</time></trkpt><trkpt lat="44.2759232" lon="8.1431022"><ele>761.0</ele><time>2026-05-02T11:51:55.135Z</time></trkpt><trkpt lat="44.2758761" lon="8.1432032"><ele>761.0</ele><time>2026-05-02T11:51:56.146Z</time></trkpt><trkpt lat="44.275841" lon="8.1433244"><ele>763.1999999999999</ele><time>2026-05-02T11:51:57.146Z</time></trkpt><trkpt lat="44.2758307" lon="8.143449"><ele>765.4</ele><time>2026-05-02T11:51:58.141Z</time></trkpt><trkpt lat="44.2758266" lon="8.1435812"><ele>767.6</ele><time>2026-05-02T11:51:59.134Z</time></trkpt><trkpt lat="44.2758228" lon="8.1437166"><ele>769.8</ele><time>2026-05-02T11:52:00.138Z</time></trkpt><trkpt lat="44.2758439" lon="8.1438605"><ele>772.0</ele><time>2026-05-02T11:52:01.129Z</time></trkpt><trkpt lat="44.2758643" lon="8.1439783"><ele>772.2</ele><time>2026-05-02T11:52:02.134Z</time></trkpt><trkpt lat="44.2759145" lon="8.1440598"><ele>772.4000000000001</ele><time>2026-05-02T11:52:03.14Z</time></trkpt><trkpt lat="44.2759796" lon="8.1441135"><ele>772.5999999999999</ele><time>2026-05-02T11:52:04.133Z</time></trkpt><trkpt lat="44.2760746" lon="8.1441487"><ele>772.8</ele><time>2026-05-02T11:52:05.138Z</time></trkpt><trkpt lat="44.2761554" lon="8.1441689"><ele>773.0</ele><time>2026-05-02T11:52:06.138Z</time></trkpt><trkpt lat="44.2762683" lon="8.1442221"><ele>773.0</ele><time>2026-05-02T11:52:07.148Z</time></trkpt><trkpt lat="44.2763751" lon="8.1442819"><ele>773.0</ele><time>2026-05-02T11:52:08.151Z</time></trkpt><trkpt lat="44.2764709" lon="8.1443423"><ele>773.0</ele><time>2026-05-02T11:52:09.153Z</time></trkpt><trkpt lat="44.2765671" lon="8.1443906"><ele>773.0</ele><time>2026-05-02T11:52:10.155Z</time></trkpt><trkpt lat="44.2766679" lon="8.1444333"><ele>773.0</ele><time>2026-05-02T11:52:11.154Z</time></trkpt><trkpt lat="44.2767589" lon="8.1444808"><ele>775.6666666666667</ele><time>2026-05-02T11:52:12.156Z</time></trkpt><trkpt lat="44.2768405" lon="8.1445467"><ele>778.3333333333334</ele><time>2026-05-02T11:52:13.153Z</time></trkpt><trkpt lat="44.2768948" lon="8.14463"><ele>781.0</ele><time>2026-05-02T11:52:14.16Z</time></trkpt><trkpt lat="44.2769339" lon="8.1447234"><ele>783.6666666666667</ele><time>2026-05-02T11:52:15.156Z</time></trkpt><trkpt lat="44.2769809" lon="8.1448034"><ele>786.3333333333334</ele><time>2026-05-02T11:52:16.162Z</time></trkpt><trkpt lat="44.2770345" lon="8.1448833"><ele>789.0</ele><time>2026-05-02T11:52:17.157Z</time></trkpt><trkpt lat="44.2770966" lon="8.1449648"><ele>789.0</ele><time>2026-05-02T11:52:18.158Z</time></trkpt><trkpt lat="44.2771721" lon="8.1450352"><ele>789.0</ele><time>2026-05-02T11:52:19.155Z</time></trkpt><trkpt lat="44.2772412" lon="8.1451106"><ele>789.0</ele><time>2026-05-02T11:52:20.157Z</time></trkpt><trkpt lat="44.2773113" lon="8.1452005"><ele>789.0</ele><time>2026-05-02T11:52:21.153Z</time></trkpt><trkpt lat="44.2773833" lon="8.1452936"><ele>789.0</ele><time>2026-05-02T11:52:22.152Z</time></trkpt><trkpt lat="44.2774482" lon="8.1453841"><ele>793.4000000000001</ele><time>2026-05-02T11:52:23.154Z</time></trkpt><trkpt lat="44.2774973" lon="8.1454878"><ele>797.8</ele><time>2026-05-02T11:52:24.159Z</time></trkpt><trkpt lat="44.2775467" lon="8.1456066"><ele>802.2</ele><time>2026-05-02T11:52:25.152Z</time></trkpt><trkpt lat="44.277588" lon="8.145721"><ele>806.5999999999999</ele><time>2026-05-02T11:52:26.153Z</time></trkpt><trkpt lat="44.2776227" lon="8.1458368"><ele>811.0</ele><time>2026-05-02T11:52:27.15Z</time></trkpt><trkpt lat="44.2776567" lon="8.1459437"><ele>811.1666666666666</ele><time>2026-05-02T11:52:28.147Z</time></trkpt><trkpt lat="44.2776721" lon="8.1460371"><ele>811.3333333333333</ele><time>2026-05-02T11:52:29.153Z</time></trkpt><trkpt lat="44.2776344" lon="8.1461858"><ele>811.5</ele><time>2026-05-02T11:52:31.154Z</time></trkpt><trkpt lat="44.2775377" lon="8.1462047"><ele>811.6666666666667</ele><time>2026-05-02T11:52:33.149Z</time></trkpt><trkpt lat="44.2774779" lon="8.1461751"><ele>811.8333333333334</ele><time>2026-05-02T11:52:34.152Z</time></trkpt><trkpt lat="44.2774112" lon="8.1461494"><ele>812.0</ele><time>2026-05-02T11:52:35.157Z</time></trkpt><trkpt lat="44.2773291" lon="8.1461064"><ele>809.8333333333334</ele><time>2026-05-02T11:52:36.154Z</time></trkpt><trkpt lat="44.277239" lon="8.146065"><ele>807.6666666666667</ele><time>2026-05-02T11:52:37.154Z</time></trkpt><trkpt lat="44.2771475" lon="8.1460273"><ele>805.5</ele><time>2026-05-02T11:52:38.156Z</time></trkpt><trkpt lat="44.2770592" lon="8.1459847"><ele>803.3333333333333</ele><time>2026-05-02T11:52:39.153Z</time></trkpt><trkpt lat="44.2769753" lon="8.1459338"><ele>801.1666666666666</ele><time>2026-05-02T11:52:42.152Z</time></trkpt><trkpt lat="44.2769062" lon="8.1459023"><ele>799.0</ele><time>2026-05-02T11:52:47.143Z</time></trkpt><trkpt lat="44.276804" lon="8.1458857"><ele>799.0</ele><time>2026-05-02T11:52:49.149Z</time></trkpt><trkpt lat="44.27667" lon="8.145896"><ele>799.0</ele><time>2026-05-02T11:52:51.141Z</time></trkpt><trkpt lat="44.2765966" lon="8.1459038"><ele>799.0</ele><time>2026-05-02T11:52:52.141Z</time></trkpt><trkpt lat="44.2765265" lon="8.1459056"><ele>799.0</ele><time>2026-05-02T11:52:53.142Z</time></trkpt><trkpt lat="44.2764616" lon="8.1459095"><ele>799.0</ele><time>2026-05-02T11:52:54.152Z</time></trkpt><trkpt lat="44.2763482" lon="8.1459515"><ele>799.0</ele><time>2026-05-02T11:52:56.148Z</time></trkpt><trkpt lat="44.2762897" lon="8.1460553"><ele>799.0</ele><time>2026-05-02T11:52:58.154Z</time></trkpt><trkpt lat="44.2763101" lon="8.1461938"><ele>799.0</ele><time>2026-05-02T11:53:00.153Z</time></trkpt><trkpt lat="44.2764044" lon="8.1462914"><ele>799.0</ele><time>2026-05-02T11:53:02.154Z</time></trkpt><trkpt lat="44.2764752" lon="8.1463166"><ele>799.0</ele><time>2026-05-02T11:53:03.154Z</time></trkpt><trkpt lat="44.2765452" lon="8.146342"><ele>798.9999999999999</ele><time>2026-05-02T11:53:04.155Z</time></trkpt><trkpt lat="44.2766269" lon="8.1463701"><ele>799.0</ele><time>2026-05-02T11:53:05.151Z</time></trkpt><trkpt lat="44.2767051" lon="8.1464089"><ele>799.0</ele><time>2026-05-02T11:53:06.144Z</time></trkpt><trkpt lat="44.2767757" lon="8.1464685"><ele>799.0</ele><time>2026-05-02T11:53:07.153Z</time></trkpt><trkpt lat="44.2768436" lon="8.1465458"><ele>798.9999999999999</ele><time>2026-05-02T11:53:08.159Z</time></trkpt><trkpt lat="44.276906" lon="8.1466218"><ele>799.0</ele><time>2026-05-02T11:53:09.155Z</time></trkpt><trkpt lat="44.2769793" lon="8.1466911"><ele>800.3333333333333</ele><time>2026-05-02T11:53:10.157Z</time></trkpt><trkpt lat="44.2770479" lon="8.1467464"><ele>801.6666666666666</ele><time>2026-05-02T11:53:11.15Z</time></trkpt><trkpt lat="44.2771094" lon="8.1468009"><ele>803.0</ele><time>2026-05-02T11:53:12.146Z</time></trkpt><trkpt lat="44.2771725" lon="8.146859"><ele>804.3333333333333</ele><time>2026-05-02T11:53:13.153Z</time></trkpt><trkpt lat="44.2772466" lon="8.1469087"><ele>805.6666666666666</ele><time>2026-05-02T11:53:14.151Z</time></trkpt><trkpt lat="44.2773145" lon="8.1469701"><ele>807.0</ele><time>2026-05-02T11:53:15.159Z</time></trkpt><trkpt lat="44.2773838" lon="8.1470354"><ele>809.6666666666666</ele><time>2026-05-02T11:53:16.157Z</time></trkpt><trkpt lat="44.2774415" lon="8.1471175"><ele>812.3333333333333</ele><time>2026-05-02T11:53:17.153Z</time></trkpt><trkpt lat="44.2774756" lon="8.1472063"><ele>815.0</ele><time>2026-05-02T11:53:18.151Z</time></trkpt><trkpt lat="44.2775081" lon="8.1472954"><ele>817.6666666666666</ele><time>2026-05-02T11:53:19.15Z</time></trkpt><trkpt lat="44.277547" lon="8.1473755"><ele>820.3333333333333</ele><time>2026-05-02T11:53:20.15Z</time></trkpt><trkpt lat="44.2776241" lon="8.1475178"><ele>823.0</ele><time>2026-05-02T11:53:22.146Z</time></trkpt><trkpt lat="44.2776736" lon="8.1475902"><ele>823.9999999999999</ele><time>2026-05-02T11:53:23.146Z</time></trkpt><trkpt lat="44.2777292" lon="8.1476645"><ele>825.0</ele><time>2026-05-02T11:53:24.15Z</time></trkpt><trkpt lat="44.2777735" lon="8.1477581"><ele>826.0</ele><time>2026-05-02T11:53:25.142Z</time></trkpt><trkpt lat="44.2777991" lon="8.147863"><ele>827.0</ele><time>2026-05-02T11:53:26.15Z</time></trkpt><trkpt lat="44.277808" lon="8.1479683"><ele>827.9999999999999</ele><time>2026-05-02T11:53:27.14Z</time></trkpt><trkpt lat="44.2778095" lon="8.1480663"><ele>829.0</ele><time>2026-05-02T11:53:28.144Z</time></trkpt><trkpt lat="44.2777835" lon="8.1481633"><ele>830.8000000000001</ele><time>2026-05-02T11:53:29.141Z</time></trkpt><trkpt lat="44.2777389" lon="8.1482573"><ele>832.6</ele><time>2026-05-02T11:53:30.146Z</time></trkpt><trkpt lat="44.2776808" lon="8.148355"><ele>834.4</ele><time>2026-05-02T11:53:31.134Z</time></trkpt><trkpt lat="44.2776055" lon="8.1484398"><ele>836.2</ele><time>2026-05-02T11:53:32.142Z</time></trkpt><trkpt lat="44.2775082" lon="8.1485213"><ele>838.0</ele><time>2026-05-02T11:53:33.145Z</time></trkpt><trkpt lat="44.2774057" lon="8.1485864"><ele>837.9999999999999</ele><time>2026-05-02T11:53:34.149Z</time></trkpt><trkpt lat="44.2773127" lon="8.1486489"><ele>838.0</ele><time>2026-05-02T11:53:35.147Z</time></trkpt><trkpt lat="44.2772265" lon="8.1487211"><ele>838.0</ele><time>2026-05-02T11:53:36.145Z</time></trkpt><trkpt lat="44.277145" lon="8.1487999"><ele>838.0</ele><time>2026-05-02T11:53:37.144Z</time></trkpt><trkpt lat="44.2771022" lon="8.1488797"><ele>837.9999999999999</ele><time>2026-05-02T11:53:38.152Z</time></trkpt><trkpt lat="44.2770906" lon="8.1489786"><ele>838.0</ele><time>2026-05-02T11:53:39.156Z</time></trkpt><trkpt lat="44.2770924" lon="8.1490763"><ele>835.8333333333333</ele><time>2026-05-02T11:53:40.151Z</time></trkpt><trkpt lat="44.2771082" lon="8.1491746"><ele>833.6666666666666</ele><time>2026-05-02T11:53:41.15Z</time></trkpt><trkpt lat="44.2771289" lon="8.1492819"><ele>831.5</ele><time>2026-05-02T11:53:42.147Z</time></trkpt><trkpt lat="44.2771677" lon="8.1494032"><ele>829.3333333333333</ele><time>2026-05-02T11:53:43.144Z</time></trkpt><trkpt lat="44.2772088" lon="8.149534"><ele>827.1666666666666</ele><time>2026-05-02T11:53:44.14Z</time></trkpt><trkpt lat="44.2772421" lon="8.1496619"><ele>825.0</ele><time>2026-05-02T11:53:45.149Z</time></trkpt><trkpt lat="44.277284" lon="8.1497871"><ele>825.0</ele><time>2026-05-02T11:53:46.136Z</time></trkpt><trkpt lat="44.2773142" lon="8.1498865"><ele>825.0</ele><time>2026-05-02T11:53:47.136Z</time></trkpt><trkpt lat="44.277346" lon="8.150028"><ele>825.0</ele><time>2026-05-02T11:53:49.136Z</time></trkpt><trkpt lat="44.2772865" lon="8.1500781"><ele>825.0</ele><time>2026-05-02T11:53:52.142Z</time></trkpt><trkpt lat="44.2772147" lon="8.1499605"><ele>825.0</ele><time>2026-05-02T11:53:53.14Z</time></trkpt><trkpt lat="44.2770914" lon="8.1498281"><ele>825.0</ele><time>2026-05-02T11:53:54.137Z</time></trkpt><trkpt lat="44.2769743" lon="8.1497535"><ele>825.0</ele><time>2026-05-02T11:53:55.144Z</time></trkpt><trkpt lat="44.2768426" lon="8.1496711"><ele>825.0</ele><time>2026-05-02T11:53:56.14Z</time></trkpt><trkpt lat="44.2767247" lon="8.1496491"><ele>825.0</ele><time>2026-05-02T11:53:57.141Z</time></trkpt><trkpt lat="44.2766059" lon="8.1496572"><ele>825.0</ele><time>2026-05-02T11:53:58.136Z</time></trkpt><trkpt lat="44.2764867" lon="8.1497076"><ele>825.0</ele><time>2026-05-02T11:53:59.133Z</time></trkpt><trkpt lat="44.276377" lon="8.1497632"><ele>825.0</ele><time>2026-05-02T11:54:00.141Z</time></trkpt><trkpt lat="44.2762652" lon="8.1497996"><ele>825.0</ele><time>2026-05-02T11:54:01.152Z</time></trkpt><trkpt lat="44.2761531" lon="8.1498329"><ele>825.5</ele><time>2026-05-02T11:54:02.151Z</time></trkpt><trkpt lat="44.2760563" lon="8.1498488"><ele>826.0</ele><time>2026-05-02T11:54:03.15Z</time></trkpt><trkpt lat="44.2759775" lon="8.1498843"><ele>826.5</ele><time>2026-05-02T11:54:04.149Z</time></trkpt><trkpt lat="44.2759062" lon="8.1500015"><ele>827.0</ele><time>2026-05-02T11:54:06.144Z</time></trkpt><trkpt lat="44.2759017" lon="8.1500979"><ele>827.5</ele><time>2026-05-02T11:54:07.146Z</time></trkpt><trkpt lat="44.2759186" lon="8.1501933"><ele>828.0</ele><time>2026-05-02T11:54:08.14Z</time></trkpt><trkpt lat="44.2759361" lon="8.1502958"><ele>828.0000000000001</ele><time>2026-05-02T11:54:09.144Z</time></trkpt><trkpt lat="44.2759525" lon="8.1503976"><ele>828.0</ele><time>2026-05-02T11:54:10.144Z</time></trkpt><trkpt lat="44.2759602" lon="8.1504939"><ele>828.0</ele><time>2026-05-02T11:54:11.141Z</time></trkpt><trkpt lat="44.2759449" lon="8.1505871"><ele>828.0</ele><time>2026-05-02T11:54:12.147Z</time></trkpt><trkpt lat="44.275919" lon="8.1506684"><ele>828.0</ele><time>2026-05-02T11:54:13.145Z</time></trkpt><trkpt lat="44.2758517" lon="8.1507267"><ele>828.0000000000001</ele><time>2026-05-02T11:54:14.151Z</time></trkpt><trkpt lat="44.2757592" lon="8.1507416"><ele>828.0</ele><time>2026-05-02T11:54:15.153Z</time></trkpt><trkpt lat="44.2756572" lon="8.1507477"><ele>829.2</ele><time>2026-05-02T11:54:16.151Z</time></trkpt><trkpt lat="44.2755602" lon="8.1507591"><ele>830.4</ele><time>2026-05-02T11:54:17.151Z</time></trkpt><trkpt lat="44.2754694" lon="8.1507853"><ele>831.6</ele><time>2026-05-02T11:54:18.155Z</time></trkpt><trkpt lat="44.2753808" lon="8.1508265"><ele>832.8000000000001</ele><time>2026-05-02T11:54:19.158Z</time></trkpt><trkpt lat="44.2753087" lon="8.1508863"><ele>834.0</ele><time>2026-05-02T11:54:20.151Z</time></trkpt><trkpt lat="44.2752496" lon="8.1509664"><ele>834.0</ele><time>2026-05-02T11:54:21.156Z</time></trkpt><trkpt lat="44.2752038" lon="8.1510632"><ele>834.0</ele><time>2026-05-02T11:54:22.161Z</time></trkpt><trkpt lat="44.2751645" lon="8.1511816"><ele>834.0</ele><time>2026-05-02T11:54:23.157Z</time></trkpt><trkpt lat="44.275125" lon="8.1513159"><ele>834.0</ele><time>2026-05-02T11:54:24.163Z</time></trkpt><trkpt lat="44.2750894" lon="8.1514497"><ele>834.0</ele><time>2026-05-02T11:54:25.144Z</time></trkpt><trkpt lat="44.275058" lon="8.1515889"><ele>837.8000000000001</ele><time>2026-05-02T11:54:26.151Z</time></trkpt><trkpt lat="44.2750256" lon="8.1517208"><ele>841.6</ele><time>2026-05-02T11:54:27.153Z</time></trkpt><trkpt lat="44.2749939" lon="8.1518715"><ele>845.4</ele><time>2026-05-02T11:54:28.152Z</time></trkpt><trkpt lat="44.2749659" lon="8.1520161"><ele>849.2</ele><time>2026-05-02T11:54:29.152Z</time></trkpt><trkpt lat="44.2749363" lon="8.1521569"><ele>853.0</ele><time>2026-05-02T11:54:30.147Z</time></trkpt><trkpt lat="44.2749043" lon="8.1522791"><ele>852.9999999999999</ele><time>2026-05-02T11:54:31.147Z</time></trkpt><trkpt lat="44.2748854" lon="8.1523709"><ele>853.0</ele><time>2026-05-02T11:54:32.148Z</time></trkpt><trkpt lat="44.274843" lon="8.15253"><ele>853.0</ele><time>2026-05-02T11:54:34.14Z</time></trkpt><trkpt lat="44.2748043" lon="8.1526112"><ele>853.0</ele><time>2026-05-02T11:54:36.145Z</time></trkpt><trkpt lat="44.2747709" lon="8.1527331"><ele>852.9999999999999</ele><time>2026-05-02T11:54:39.146Z</time></trkpt><trkpt lat="44.2747322" lon="8.1528215"><ele>853.0</ele><time>2026-05-02T11:54:41.139Z</time></trkpt><trkpt lat="44.2746055" lon="8.1527357"><ele>855.6666666666666</ele><time>2026-05-02T11:54:48.137Z</time></trkpt><trkpt lat="44.2745514" lon="8.1526499"><ele>858.3333333333333</ele><time>2026-05-02T11:54:49.133Z</time></trkpt><trkpt lat="44.2744961" lon="8.152575"><ele>861.0</ele><time>2026-05-02T11:54:50.128Z</time></trkpt><trkpt lat="44.2744403" lon="8.1524706"><ele>863.6666666666667</ele><time>2026-05-02T11:54:51.125Z</time></trkpt><trkpt lat="44.2743792" lon="8.1523758"><ele>866.3333333333334</ele><time>2026-05-02T11:54:52.123Z</time></trkpt><trkpt lat="44.2743151" lon="8.1522877"><ele>869.0</ele><time>2026-05-02T11:54:53.128Z</time></trkpt><trkpt lat="44.2742548" lon="8.1521388"><ele>869.0</ele><time>2026-05-02T11:54:54.128Z</time></trkpt><trkpt lat="44.274221" lon="8.1519938"><ele>869.0</ele><time>2026-05-02T11:54:55.135Z</time></trkpt><trkpt lat="44.274172" lon="8.1518219"><ele>869.0</ele><time>2026-05-02T11:54:56.139Z</time></trkpt><trkpt lat="44.2740972" lon="8.1516482"><ele>869.0</ele><time>2026-05-02T11:54:57.13Z</time></trkpt><trkpt lat="44.274008" lon="8.1514652"><ele>873.0</ele><time>2026-05-02T11:54:58.145Z</time></trkpt><trkpt lat="44.2739184" lon="8.1512857"><ele>877.0</ele><time>2026-05-02T11:54:59.151Z</time></trkpt><trkpt lat="44.2738333" lon="8.1511226"><ele>881.0</ele><time>2026-05-02T11:55:00.156Z</time></trkpt><trkpt lat="44.2737642" lon="8.1509607"><ele>885.0</ele><time>2026-05-02T11:55:01.151Z</time></trkpt><trkpt lat="44.2736886" lon="8.1508013"><ele>878.75</ele><time>2026-05-02T11:55:02.148Z</time></trkpt><trkpt lat="44.2736114" lon="8.1506474"><ele>872.5</ele><time>2026-05-02T11:55:03.156Z</time></trkpt><trkpt lat="44.2735308" lon="8.1505158"><ele>866.25</ele><time>2026-05-02T11:55:04.165Z</time></trkpt><trkpt lat="44.2734584" lon="8.1504042"><ele>860.0</ele><time>2026-05-02T11:55:05.152Z</time></trkpt><trkpt lat="44.2733959" lon="8.1503233"><ele>860.0000000000001</ele><time>2026-05-02T11:55:06.159Z</time></trkpt><trkpt lat="44.2733429" lon="8.1502724"><ele>860.0</ele><time>2026-05-02T11:55:07.16Z</time></trkpt><trkpt lat="44.273278" lon="8.1502639"><ele>860.0</ele><time>2026-05-02T11:55:08.154Z</time></trkpt><trkpt lat="44.2732079" lon="8.1503155"><ele>860.0</ele><time>2026-05-02T11:55:09.156Z</time></trkpt><trkpt lat="44.2731373" lon="8.150396"><ele>860.0000000000001</ele><time>2026-05-02T11:55:10.162Z</time></trkpt><trkpt lat="44.2730646" lon="8.1505205"><ele>860.0</ele><time>2026-05-02T11:55:11.154Z</time></trkpt><trkpt lat="44.2729876" lon="8.1506913"><ele>867.5</ele><time>2026-05-02T11:55:12.173Z</time></trkpt><trkpt lat="44.2729087" lon="8.1508644"><ele>875.0</ele><time>2026-05-02T11:55:13.146Z</time></trkpt><trkpt lat="44.2728198" lon="8.1510041"><ele>882.5</ele><time>2026-05-02T11:55:14.154Z</time></trkpt><trkpt lat="44.2727329" lon="8.1511087"><ele>890.0</ele><time>2026-05-02T11:55:15.149Z</time></trkpt><trkpt lat="44.2726515" lon="8.1511838"><ele>890.0</ele><time>2026-05-02T11:55:16.149Z</time></trkpt><trkpt lat="44.2725688" lon="8.1512141"><ele>890.0</ele><time>2026-05-02T11:55:17.148Z</time></trkpt><trkpt lat="44.2724877" lon="8.1512157"><ele>890.0</ele><time>2026-05-02T11:55:18.153Z</time></trkpt><trkpt lat="44.2723881" lon="8.151201"><ele>890.0</ele><time>2026-05-02T11:55:19.157Z</time></trkpt><trkpt lat="44.2722942" lon="8.1511583"><ele>890.0</ele><time>2026-05-02T11:55:20.152Z</time></trkpt><trkpt lat="44.2722033" lon="8.1511156"><ele>891.0</ele><time>2026-05-02T11:55:21.141Z</time></trkpt><trkpt lat="44.2721223" lon="8.1511215"><ele>892.0</ele><time>2026-05-02T11:55:22.135Z</time></trkpt><trkpt lat="44.2720409" lon="8.1511414"><ele>893.0</ele><time>2026-05-02T11:55:23.142Z</time></trkpt><trkpt lat="44.2719786" lon="8.1511717"><ele>894.0</ele><time>2026-05-02T11:55:24.144Z</time></trkpt><trkpt lat="44.2719263" lon="8.1512353"><ele>895.0</ele><time>2026-05-02T11:55:25.146Z</time></trkpt><trkpt lat="44.2718798" lon="8.1513098"><ele>896.0</ele><time>2026-05-02T11:55:26.147Z</time></trkpt><trkpt lat="44.2718349" lon="8.1513917"><ele>897.0</ele><time>2026-05-02T11:55:27.145Z</time></trkpt><trkpt lat="44.2717891" lon="8.1514826"><ele>897.0</ele><time>2026-05-02T11:55:28.144Z</time></trkpt><trkpt lat="44.2717404" lon="8.1515468"><ele>897.0</ele><time>2026-05-02T11:55:29.147Z</time></trkpt><trkpt lat="44.271679" lon="8.1515951"><ele>897.0</ele><time>2026-05-02T11:55:30.138Z</time></trkpt><trkpt lat="44.2715968" lon="8.1516619"><ele>897.0</ele><time>2026-05-02T11:55:31.142Z</time></trkpt><trkpt lat="44.271496" lon="8.1516777"><ele>897.0</ele><time>2026-05-02T11:55:32.145Z</time></trkpt><trkpt lat="44.271409" lon="8.1516971"><ele>897.0</ele><time>2026-05-02T11:55:33.148Z</time></trkpt><trkpt lat="44.2713178" lon="8.1517186"><ele>897.0</ele><time>2026-05-02T11:55:34.144Z</time></trkpt><trkpt lat="44.27125" lon="8.1517596"><ele>897.0</ele><time>2026-05-02T11:55:35.149Z</time></trkpt><trkpt lat="44.2712079" lon="8.1518306"><ele>897.0</ele><time>2026-05-02T11:55:36.145Z</time></trkpt><trkpt lat="44.2711741" lon="8.1519193"><ele>897.0</ele><time>2026-05-02T11:55:37.141Z</time></trkpt><trkpt lat="44.2711558" lon="8.1520042"><ele>897.0</ele><time>2026-05-02T11:55:38.135Z</time></trkpt><trkpt lat="44.2711665" lon="8.1521127"><ele>897.0</ele><time>2026-05-02T11:55:39.141Z</time></trkpt><trkpt lat="44.2712009" lon="8.1522362"><ele>897.0</ele><time>2026-05-02T11:55:40.142Z</time></trkpt><trkpt lat="44.2712287" lon="8.1523609"><ele>899.4000000000001</ele><time>2026-05-02T11:55:41.145Z</time></trkpt><trkpt lat="44.271264" lon="8.1524883"><ele>901.8000000000001</ele><time>2026-05-02T11:55:42.146Z</time></trkpt><trkpt lat="44.2712716" lon="8.1526434"><ele>904.2</ele><time>2026-05-02T11:55:43.145Z</time></trkpt><trkpt lat="44.2712745" lon="8.1527962"><ele>906.6</ele><time>2026-05-02T11:55:44.145Z</time></trkpt><trkpt lat="44.2712296" lon="8.1529442"><ele>909.0</ele><time>2026-05-02T11:55:45.146Z</time></trkpt><trkpt lat="44.2711789" lon="8.1530829"><ele>912.75</ele><time>2026-05-02T11:55:46.143Z</time></trkpt><trkpt lat="44.2711151" lon="8.1532217"><ele>916.5</ele><time>2026-05-02T11:55:47.143Z</time></trkpt><trkpt lat="44.2710334" lon="8.1533634"><ele>920.25</ele><time>2026-05-02T11:55:48.137Z</time></trkpt><trkpt lat="44.2709536" lon="8.1535346"><ele>924.0</ele><time>2026-05-02T11:55:49.14Z</time></trkpt><trkpt lat="44.2708803" lon="8.153706"><ele>924.0</ele><time>2026-05-02T11:55:50.137Z</time></trkpt><trkpt lat="44.2707943" lon="8.153879"><ele>924.0</ele><time>2026-05-02T11:55:51.146Z</time></trkpt><trkpt lat="44.2706957" lon="8.1540517"><ele>924.0</ele><time>2026-05-02T11:55:52.143Z</time></trkpt><trkpt lat="44.2706188" lon="8.1542231"><ele>923.75</ele><time>2026-05-02T11:55:53.141Z</time></trkpt><trkpt lat="44.2705598" lon="8.1543833"><ele>923.5</ele><time>2026-05-02T11:55:54.146Z</time></trkpt><trkpt lat="44.2705128" lon="8.1545502"><ele>923.25</ele><time>2026-05-02T11:55:55.135Z</time></trkpt><trkpt lat="44.2704805" lon="8.1547156"><ele>923.0</ele><time>2026-05-02T11:55:56.14Z</time></trkpt><trkpt lat="44.2704495" lon="8.1548735"><ele>923.0</ele><time>2026-05-02T11:55:57.142Z</time></trkpt><trkpt lat="44.2704339" lon="8.1550314"><ele>923.0</ele><time>2026-05-02T11:55:58.146Z</time></trkpt><trkpt lat="44.2704407" lon="8.1551981"><ele>923.0</ele><time>2026-05-02T11:55:59.145Z</time></trkpt><trkpt lat="44.270452" lon="8.1553617"><ele>923.0</ele><time>2026-05-02T11:56:00.139Z</time></trkpt><trkpt lat="44.2704616" lon="8.1555247"><ele>923.0</ele><time>2026-05-02T11:56:01.144Z</time></trkpt><trkpt lat="44.2704702" lon="8.155692"><ele>923.0</ele><time>2026-05-02T11:56:02.142Z</time></trkpt><trkpt lat="44.2704846" lon="8.1558607"><ele>923.0</ele><time>2026-05-02T11:56:03.142Z</time></trkpt><trkpt lat="44.2704947" lon="8.1560179"><ele>923.0</ele><time>2026-05-02T11:56:04.153Z</time></trkpt><trkpt lat="44.2705143" lon="8.1561618"><ele>922.3333333333334</ele><time>2026-05-02T11:56:05.155Z</time></trkpt><trkpt lat="44.2705406" lon="8.1562914"><ele>921.6666666666667</ele><time>2026-05-02T11:56:06.149Z</time></trkpt><trkpt lat="44.2705728" lon="8.156398"><ele>921.0</ele><time>2026-05-02T11:56:07.155Z</time></trkpt><trkpt lat="44.2706141" lon="8.1565004"><ele>920.3333333333333</ele><time>2026-05-02T11:56:08.152Z</time></trkpt><trkpt lat="44.2706361" lon="8.1566062"><ele>919.6666666666666</ele><time>2026-05-02T11:56:09.146Z</time></trkpt><trkpt lat="44.2706424" lon="8.1567089"><ele>919.0</ele><time>2026-05-02T11:56:10.146Z</time></trkpt><trkpt lat="44.2706551" lon="8.1568092"><ele>924.6666666666666</ele><time>2026-05-02T11:56:11.156Z</time></trkpt><trkpt lat="44.2706897" lon="8.156897"><ele>930.3333333333333</ele><time>2026-05-02T11:56:12.157Z</time></trkpt><trkpt lat="44.2707678" lon="8.1570282"><ele>936.0</ele><time>2026-05-02T11:56:14.158Z</time></trkpt><trkpt lat="44.2708486" lon="8.157086"><ele>941.6666666666667</ele><time>2026-05-02T11:56:16.16Z</time></trkpt><trkpt lat="44.2709066" lon="8.1570465"><ele>947.3333333333334</ele><time>2026-05-02T11:56:17.15Z</time></trkpt><trkpt lat="44.2709868" lon="8.1569655"><ele>953.0</ele><time>2026-05-02T11:56:18.155Z</time></trkpt><trkpt lat="44.271069" lon="8.1568987"><ele>953.0</ele><time>2026-05-02T11:56:19.152Z</time></trkpt><trkpt lat="44.2711643" lon="8.1568637"><ele>953.0</ele><time>2026-05-02T11:56:20.155Z</time></trkpt><trkpt lat="44.2712748" lon="8.1568654"><ele>953.0</ele><time>2026-05-02T11:56:21.154Z</time></trkpt><trkpt lat="44.2713642" lon="8.156934"><ele>953.0</ele><time>2026-05-02T11:56:22.148Z</time></trkpt><trkpt lat="44.2714162" lon="8.1570087"><ele>953.0</ele><time>2026-05-02T11:56:23.142Z</time></trkpt><trkpt lat="44.2714551" lon="8.1570817"><ele>957.0</ele><time>2026-05-02T11:56:24.146Z</time></trkpt><trkpt lat="44.271479" lon="8.1572631"><ele>961.0</ele><time>2026-05-02T11:56:26.139Z</time></trkpt><trkpt lat="44.2714701" lon="8.1573901"><ele>965.0</ele><time>2026-05-02T11:56:27.149Z</time></trkpt><trkpt lat="44.2714575" lon="8.1575446"><ele>969.0</ele><time>2026-05-02T11:56:28.143Z</time></trkpt><trkpt lat="44.2714758" lon="8.1576902"><ele>973.0</ele><time>2026-05-02T11:56:29.157Z</time></trkpt><trkpt lat="44.271477" lon="8.1578085"><ele>973.0</ele><time>2026-05-02T11:56:30.154Z</time></trkpt><trkpt lat="44.2715099" lon="8.1579522"><ele>973.0</ele><time>2026-05-02T11:56:32.138Z</time></trkpt><trkpt lat="44.2715838" lon="8.1580547"><ele>973.0</ele><time>2026-05-02T11:56:34.149Z</time></trkpt><trkpt lat="44.2716465" lon="8.1581225"><ele>973.0</ele><time>2026-05-02T11:56:35.146Z</time></trkpt><trkpt lat="44.2717249" lon="8.15821"><ele>973.0</ele><time>2026-05-02T11:56:36.148Z</time></trkpt><trkpt lat="44.2718005" lon="8.1582975"><ele>971.5999999999999</ele><time>2026-05-02T11:56:37.153Z</time></trkpt><trkpt lat="44.2718799" lon="8.1583862"><ele>970.1999999999999</ele><time>2026-05-02T11:56:38.144Z</time></trkpt><trkpt lat="44.271957" lon="8.1584663"><ele>968.8</ele><time>2026-05-02T11:56:39.136Z</time></trkpt><trkpt lat="44.2720425" lon="8.1585256"><ele>967.4</ele><time>2026-05-02T11:56:40.143Z</time></trkpt><trkpt lat="44.272167" lon="8.1585498"><ele>966.0</ele><time>2026-05-02T11:56:41.136Z</time></trkpt><trkpt lat="44.2723055" lon="8.1585749"><ele>970.0</ele><time>2026-05-02T11:56:42.143Z</time></trkpt><trkpt lat="44.2724387" lon="8.158598"><ele>974.0</ele><time>2026-05-02T11:56:43.151Z</time></trkpt><trkpt lat="44.2725888" lon="8.1586314"><ele>978.0</ele><time>2026-05-02T11:56:44.143Z</time></trkpt><trkpt lat="44.2727342" lon="8.1586742"><ele>982.0</ele><time>2026-05-02T11:56:45.145Z</time></trkpt><trkpt lat="44.2728749" lon="8.1587474"><ele>982.0</ele><time>2026-05-02T11:56:46.143Z</time></trkpt><trkpt lat="44.2730246" lon="8.1588458"><ele>982.0</ele><time>2026-05-02T11:56:47.142Z</time></trkpt><trkpt lat="44.2731523" lon="8.1589466"><ele>982.0</ele><time>2026-05-02T11:56:48.15Z</time></trkpt><trkpt lat="44.2732576" lon="8.1590676"><ele>982.0</ele><time>2026-05-02T11:56:49.14Z</time></trkpt><trkpt lat="44.2733388" lon="8.1592078"><ele>983.4000000000001</ele><time>2026-05-02T11:56:50.151Z</time></trkpt><trkpt lat="44.2733792" lon="8.1593552"><ele>984.8000000000001</ele><time>2026-05-02T11:56:51.156Z</time></trkpt><trkpt lat="44.2734051" lon="8.1595077"><ele>986.2</ele><time>2026-05-02T11:56:52.165Z</time></trkpt><trkpt lat="44.2734007" lon="8.1596598"><ele>987.6</ele><time>2026-05-02T11:56:53.155Z</time></trkpt><trkpt lat="44.2733912" lon="8.1598187"><ele>989.0</ele><time>2026-05-02T11:56:54.158Z</time></trkpt><trkpt lat="44.2733817" lon="8.1599826"><ele>989.0</ele><time>2026-05-02T11:56:55.145Z</time></trkpt><trkpt lat="44.2733985" lon="8.1601396"><ele>989.0</ele><time>2026-05-02T11:56:56.149Z</time></trkpt><trkpt lat="44.2734306" lon="8.1602984"><ele>989.0</ele><time>2026-05-02T11:56:57.147Z</time></trkpt><trkpt lat="44.2734738" lon="8.1604568"><ele>989.0</ele><time>2026-05-02T11:56:58.138Z</time></trkpt><trkpt lat="44.2735365" lon="8.16061"><ele>987.6</ele><time>2026-05-02T11:56:59.143Z</time></trkpt><trkpt lat="44.2736033" lon="8.1607485"><ele>986.2</ele><time>2026-05-02T11:57:00.147Z</time></trkpt><trkpt lat="44.2736652" lon="8.1608889"><ele>984.8000000000001</ele><time>2026-05-02T11:57:01.15Z</time></trkpt><trkpt lat="44.2737037" lon="8.1610214"><ele>983.4000000000001</ele><time>2026-05-02T11:57:02.149Z</time></trkpt><trkpt lat="44.2737142" lon="8.1611665"><ele>982.0</ele><time>2026-05-02T11:57:03.13Z</time></trkpt><trkpt lat="44.2736861" lon="8.1613186"><ele>982.0</ele><time>2026-05-02T11:57:04.146Z</time></trkpt><trkpt lat="44.2736392" lon="8.1614611"><ele>982.0</ele><time>2026-05-02T11:57:05.135Z</time></trkpt><trkpt lat="44.2736175" lon="8.1616011"><ele>982.0</ele><time>2026-05-02T11:57:06.154Z</time></trkpt><trkpt lat="44.2736333" lon="8.1617477"><ele>982.0</ele><time>2026-05-02T11:57:07.158Z</time></trkpt><trkpt lat="44.2736693" lon="8.1618893"><ele>982.0</ele><time>2026-05-02T11:57:08.145Z</time></trkpt><trkpt lat="44.2737165" lon="8.1620324"><ele>982.25</ele><time>2026-05-02T11:57:09.138Z</time></trkpt><trkpt lat="44.2737662" lon="8.1621747"><ele>982.5</ele><time>2026-05-02T11:57:10.145Z</time></trkpt><trkpt lat="44.2738225" lon="8.1623231"><ele>982.75</ele><time>2026-05-02T11:57:11.129Z</time></trkpt><trkpt lat="44.2738733" lon="8.1624694"><ele>983.0</ele><time>2026-05-02T11:57:12.132Z</time></trkpt><trkpt lat="44.2739454" lon="8.1626081"><ele>987.5</ele><time>2026-05-02T11:57:13.136Z</time></trkpt><trkpt lat="44.2740436" lon="8.1627417"><ele>992.0</ele><time>2026-05-02T11:57:14.14Z</time></trkpt><trkpt lat="44.2741417" lon="8.1628777"><ele>996.5</ele><time>2026-05-02T11:57:15.144Z</time></trkpt><trkpt lat="44.2742472" lon="8.1629934"><ele>1001.0</ele><time>2026-05-02T11:57:16.153Z</time></trkpt><trkpt lat="44.2743263" lon="8.1630893"><ele>1001.0</ele><time>2026-05-02T11:57:17.152Z</time></trkpt><trkpt lat="44.2744078" lon="8.1631786"><ele>1000.9999999999999</ele><time>2026-05-02T11:57:18.138Z</time></trkpt><trkpt lat="44.2744749" lon="8.1632657"><ele>1000.9999999999999</ele><time>2026-05-02T11:57:19.144Z</time></trkpt><trkpt lat="44.2745217" lon="8.1633487"><ele>1001.0</ele><time>2026-05-02T11:57:20.142Z</time></trkpt><trkpt lat="44.2745608" lon="8.1634893"><ele>1001.0</ele><time>2026-05-02T11:57:22.15Z</time></trkpt><trkpt lat="44.2745275" lon="8.1636055"><ele>1001.5</ele><time>2026-05-02T11:57:25.147Z</time></trkpt><trkpt lat="44.274398" lon="8.1636476"><ele>1002.0</ele><time>2026-05-02T11:57:27.15Z</time></trkpt><trkpt lat="44.2743111" lon="8.1636555"><ele>1002.5</ele><time>2026-05-02T11:57:28.147Z</time></trkpt><trkpt lat="44.2742013" lon="8.1636781"><ele>1003.0</ele><time>2026-05-02T11:57:29.155Z</time></trkpt><trkpt lat="44.2740718" lon="8.1637096"><ele>998.5</ele><time>2026-05-02T11:57:30.15Z</time></trkpt><trkpt lat="44.2739269" lon="8.1637658"><ele>994.0</ele><time>2026-05-02T11:57:31.149Z</time></trkpt><trkpt lat="44.2737946" lon="8.1638317"><ele>989.5</ele><time>2026-05-02T11:57:32.143Z</time></trkpt><trkpt lat="44.2736751" lon="8.1639042"><ele>985.0</ele><time>2026-05-02T11:57:33.144Z</time></trkpt><trkpt lat="44.2735783" lon="8.1640025"><ele>990.75</ele><time>2026-05-02T11:57:34.153Z</time></trkpt><trkpt lat="44.2734993" lon="8.1641328"><ele>996.5</ele><time>2026-05-02T11:57:35.153Z</time></trkpt><trkpt lat="44.273414" lon="8.1642748"><ele>1002.25</ele><time>2026-05-02T11:57:36.149Z</time></trkpt><trkpt lat="44.2733148" lon="8.1644223"><ele>1008.0</ele><time>2026-05-02T11:57:37.142Z</time></trkpt><trkpt lat="44.2732276" lon="8.1645799"><ele>1008.0</ele><time>2026-05-02T11:57:38.139Z</time></trkpt><trkpt lat="44.273137" lon="8.1647399"><ele>1008.0</ele><time>2026-05-02T11:57:39.145Z</time></trkpt><trkpt lat="44.2730509" lon="8.1649061"><ele>1008.0</ele><time>2026-05-02T11:57:40.144Z</time></trkpt><trkpt lat="44.27298" lon="8.1650817"><ele>1008.0</ele><time>2026-05-02T11:57:41.148Z</time></trkpt><trkpt lat="44.2729175" lon="8.1652508"><ele>1008.4</ele><time>2026-05-02T11:57:42.147Z</time></trkpt><trkpt lat="44.2728634" lon="8.1653943"><ele>1008.8</ele><time>2026-05-02T11:57:43.147Z</time></trkpt><trkpt lat="44.2728305" lon="8.1655209"><ele>1009.2</ele><time>2026-05-02T11:57:44.153Z</time></trkpt><trkpt lat="44.2728144" lon="8.1656377"><ele>1009.6</ele><time>2026-05-02T11:57:45.153Z</time></trkpt><trkpt lat="44.2728176" lon="8.1657648"><ele>1010.0</ele><time>2026-05-02T11:57:46.148Z</time></trkpt><trkpt lat="44.2728389" lon="8.165874"><ele>1010.0</ele><time>2026-05-02T11:57:47.145Z</time></trkpt><trkpt lat="44.2728772" lon="8.1659751"><ele>1010.0</ele><time>2026-05-02T11:57:48.157Z</time></trkpt><trkpt lat="44.2729498" lon="8.1660626"><ele>1010.0</ele><time>2026-05-02T11:57:49.139Z</time></trkpt><trkpt lat="44.273027" lon="8.1661754"><ele>1010.0</ele><time>2026-05-02T11:57:50.143Z</time></trkpt><trkpt lat="44.273115" lon="8.1663078"><ele>1010.0</ele><time>2026-05-02T11:57:51.142Z</time></trkpt><trkpt lat="44.2732125" lon="8.1664325"><ele>1014.8</ele><time>2026-05-02T11:57:52.132Z</time></trkpt><trkpt lat="44.2733083" lon="8.166539"><ele>1019.6</ele><time>2026-05-02T11:57:53.138Z</time></trkpt><trkpt lat="44.2733895" lon="8.1666411"><ele>1024.4</ele><time>2026-05-02T11:57:54.13Z</time></trkpt><trkpt lat="44.2734594" lon="8.166713"><ele>1029.2</ele><time>2026-05-02T11:57:55.148Z</time></trkpt><trkpt lat="44.2734022" lon="8.1667962"><ele>1034.0</ele><time>2026-05-02T11:57:59.144Z</time></trkpt><trkpt lat="44.2732948" lon="8.1667896"><ele>1034.0</ele><time>2026-05-02T11:58:01.137Z</time></trkpt><trkpt lat="44.2732222" lon="8.1668041"><ele>1034.0</ele><time>2026-05-02T11:58:02.141Z</time></trkpt><trkpt lat="44.2731641" lon="8.1668389"><ele>1034.0</ele><time>2026-05-02T11:58:03.141Z</time></trkpt><trkpt lat="44.2731539" lon="8.1669907"><ele>1034.0</ele><time>2026-05-02T11:58:05.148Z</time></trkpt><trkpt lat="44.2731686" lon="8.1671215"><ele>1034.0</ele><time>2026-05-02T11:58:06.146Z</time></trkpt><trkpt lat="44.2731869" lon="8.1672677"><ele>1034.0</ele><time>2026-05-02T11:58:07.14Z</time></trkpt><trkpt lat="44.2732172" lon="8.1674096"><ele>1034.8333333333335</ele><time>2026-05-02T11:58:08.145Z</time></trkpt><trkpt lat="44.2732633" lon="8.1675533"><ele>1035.6666666666667</ele><time>2026-05-02T11:58:09.147Z</time></trkpt><trkpt lat="44.2732691" lon="8.1676822"><ele>1036.5</ele><time>2026-05-02T11:58:10.141Z</time></trkpt><trkpt lat="44.2732603" lon="8.1677874"><ele>1037.3333333333333</ele><time>2026-05-02T11:58:11.149Z</time></trkpt><trkpt lat="44.2732286" lon="8.1678667"><ele>1038.1666666666665</ele><time>2026-05-02T11:58:12.162Z</time></trkpt><trkpt lat="44.2731298" lon="8.1678928"><ele>1039.0</ele><time>2026-05-02T11:58:14.139Z</time></trkpt><trkpt lat="44.2729923" lon="8.1678049"><ele>1039.0</ele><time>2026-05-02T11:58:16.152Z</time></trkpt><trkpt lat="44.2728842" lon="8.1677538"><ele>1039.0</ele><time>2026-05-02T11:58:17.157Z</time></trkpt><trkpt lat="44.2727744" lon="8.1677041"><ele>1039.0</ele><time>2026-05-02T11:58:18.157Z</time></trkpt><trkpt lat="44.2726531" lon="8.1676703"><ele>1039.0</ele><time>2026-05-02T11:58:19.155Z</time></trkpt><trkpt lat="44.2725312" lon="8.167664"><ele>1039.0</ele><time>2026-05-02T11:58:20.157Z</time></trkpt><trkpt lat="44.2724138" lon="8.1676926"><ele>1039.0</ele><time>2026-05-02T11:58:21.148Z</time></trkpt><trkpt lat="44.2722953" lon="8.1677173"><ele>1039.0</ele><time>2026-05-02T11:58:22.148Z</time></trkpt><trkpt lat="44.2721812" lon="8.1677614"><ele>1039.0</ele><time>2026-05-02T11:58:23.159Z</time></trkpt><trkpt lat="44.2720736" lon="8.1677905"><ele>1037.6666666666665</ele><time>2026-05-02T11:58:24.149Z</time></trkpt><trkpt lat="44.2719799" lon="8.1678074"><ele>1036.3333333333333</ele><time>2026-05-02T11:58:25.151Z</time></trkpt><trkpt lat="44.2719087" lon="8.1678329"><ele>1035.0</ele><time>2026-05-02T11:58:26.142Z</time></trkpt><trkpt lat="44.2718453" lon="8.1678551"><ele>1033.6666666666667</ele><time>2026-05-02T11:58:27.149Z</time></trkpt><trkpt lat="44.2717824" lon="8.1679108"><ele>1032.3333333333335</ele><time>2026-05-02T11:58:28.147Z</time></trkpt><trkpt lat="44.2717182" lon="8.1680162"><ele>1031.0</ele><time>2026-05-02T11:58:29.148Z</time></trkpt><trkpt lat="44.271668" lon="8.1681615"><ele>1034.0</ele><time>2026-05-02T11:58:30.144Z</time></trkpt><trkpt lat="44.2716098" lon="8.1683163"><ele>1037.0</ele><time>2026-05-02T11:58:31.141Z</time></trkpt><trkpt lat="44.2715664" lon="8.1684739"><ele>1040.0</ele><time>2026-05-02T11:58:32.143Z</time></trkpt><trkpt lat="44.2715124" lon="8.1686093"><ele>1043.0</ele><time>2026-05-02T11:58:33.148Z</time></trkpt><trkpt lat="44.271458" lon="8.1687312"><ele>1044.2</ele><time>2026-05-02T11:58:34.157Z</time></trkpt><trkpt lat="44.2713959" lon="8.1688466"><ele>1045.4</ele><time>2026-05-02T11:58:35.142Z</time></trkpt><trkpt lat="44.2713402" lon="8.1689732"><ele>1046.6000000000001</ele><time>2026-05-02T11:58:36.139Z</time></trkpt><trkpt lat="44.2712743" lon="8.16909"><ele>1047.8</ele><time>2026-05-02T11:58:37.151Z</time></trkpt><trkpt lat="44.2712141" lon="8.1691896"><ele>1049.0</ele><time>2026-05-02T11:58:38.14Z</time></trkpt><trkpt lat="44.2711438" lon="8.1692563"><ele>1049.0</ele><time>2026-05-02T11:58:39.149Z</time></trkpt><trkpt lat="44.2710608" lon="8.1692979"><ele>1049.0</ele><time>2026-05-02T11:58:40.15Z</time></trkpt><trkpt lat="44.2709604" lon="8.1693297"><ele>1049.0</ele><time>2026-05-02T11:58:41.148Z</time></trkpt><trkpt lat="44.2708601" lon="8.1693573"><ele>1049.0</ele><time>2026-05-02T11:58:42.147Z</time></trkpt><trkpt lat="44.2707461" lon="8.1693799"><ele>1049.0</ele><time>2026-05-02T11:58:43.143Z</time></trkpt><trkpt lat="44.2706419" lon="8.1694289"><ele>1049.2</ele><time>2026-05-02T11:58:44.144Z</time></trkpt><trkpt lat="44.2705389" lon="8.1694693"><ele>1049.4</ele><time>2026-05-02T11:58:45.138Z</time></trkpt><trkpt lat="44.2704468" lon="8.1695039"><ele>1049.6</ele><time>2026-05-02T11:58:46.141Z</time></trkpt><trkpt lat="44.270355" lon="8.1695128"><ele>1049.8</ele><time>2026-05-02T11:58:47.142Z</time></trkpt><trkpt lat="44.2702623" lon="8.1694973"><ele>1050.0</ele><time>2026-05-02T11:58:48.151Z</time></trkpt><trkpt lat="44.2701727" lon="8.1694788"><ele>1050.0</ele><time>2026-05-02T11:58:49.146Z</time></trkpt><trkpt lat="44.2701017" lon="8.1694274"><ele>1050.0</ele><time>2026-05-02T11:58:50.146Z</time></trkpt><trkpt lat="44.2700238" lon="8.1693539"><ele>1050.0</ele><time>2026-05-02T11:58:51.148Z</time></trkpt><trkpt lat="44.2699421" lon="8.169278"><ele>1050.0</ele><time>2026-05-02T11:58:52.151Z</time></trkpt><trkpt lat="44.2698414" lon="8.1692068"><ele>1050.0</ele><time>2026-05-02T11:58:53.151Z</time></trkpt><trkpt lat="44.2697241" lon="8.169145"><ele>1049.75</ele><time>2026-05-02T11:58:54.152Z</time></trkpt><trkpt lat="44.2696266" lon="8.1690908"><ele>1049.5</ele><time>2026-05-02T11:58:55.145Z</time></trkpt><trkpt lat="44.2695071" lon="8.1690678"><ele>1049.25</ele><time>2026-05-02T11:58:56.154Z</time></trkpt><trkpt lat="44.269387" lon="8.1690424"><ele>1049.0</ele><time>2026-05-02T11:58:57.154Z</time></trkpt><trkpt lat="44.2692804" lon="8.1690364"><ele>1049.0</ele><time>2026-05-02T11:58:58.147Z</time></trkpt><trkpt lat="44.2691724" lon="8.1690586"><ele>1049.0</ele><time>2026-05-02T11:58:59.153Z</time></trkpt><trkpt lat="44.2690612" lon="8.1690909"><ele>1049.0</ele><time>2026-05-02T11:59:00.142Z</time></trkpt><trkpt lat="44.2689592" lon="8.169137"><ele>1049.0</ele><time>2026-05-02T11:59:01.153Z</time></trkpt><trkpt lat="44.2688665" lon="8.1691928"><ele>1049.0</ele><time>2026-05-02T11:59:02.162Z</time></trkpt><trkpt lat="44.268768" lon="8.1692881"><ele>1044.5</ele><time>2026-05-02T11:59:03.161Z</time></trkpt><trkpt lat="44.2686858" lon="8.1694046"><ele>1040.0</ele><time>2026-05-02T11:59:04.147Z</time></trkpt><trkpt lat="44.2685981" lon="8.1695125"><ele>1035.5</ele><time>2026-05-02T11:59:05.153Z</time></trkpt><trkpt lat="44.268506" lon="8.1696018"><ele>1031.0</ele><time>2026-05-02T11:59:06.152Z</time></trkpt><trkpt lat="44.2684029" lon="8.169675"><ele>1031.0</ele><time>2026-05-02T11:59:07.14Z</time></trkpt><trkpt lat="44.2682851" lon="8.1697412"><ele>1031.0</ele><time>2026-05-02T11:59:08.148Z</time></trkpt><trkpt lat="44.2681578" lon="8.1697838"><ele>1031.0</ele><time>2026-05-02T11:59:09.146Z</time></trkpt><trkpt lat="44.2680317" lon="8.1698328"><ele>1031.0</ele><time>2026-05-02T11:59:10.143Z</time></trkpt><trkpt lat="44.2678918" lon="8.16989"><ele>1036.5</ele><time>2026-05-02T11:59:11.148Z</time></trkpt><trkpt lat="44.2677753" lon="8.1699621"><ele>1042.0</ele><time>2026-05-02T11:59:12.151Z</time></trkpt><trkpt lat="44.2676627" lon="8.1700277"><ele>1047.5</ele><time>2026-05-02T11:59:13.15Z</time></trkpt><trkpt lat="44.2675648" lon="8.1700932"><ele>1053.0</ele><time>2026-05-02T11:59:14.149Z</time></trkpt><trkpt lat="44.2674678" lon="8.1701487"><ele>1053.0</ele><time>2026-05-02T11:59:15.144Z</time></trkpt><trkpt lat="44.2673621" lon="8.1701989"><ele>1053.0</ele><time>2026-05-02T11:59:16.149Z</time></trkpt><trkpt lat="44.2672514" lon="8.1702487"><ele>1053.0</ele><time>2026-05-02T11:59:17.151Z</time></trkpt><trkpt lat="44.2671448" lon="8.1702787"><ele>1053.0</ele><time>2026-05-02T11:59:18.156Z</time></trkpt><trkpt lat="44.2670395" lon="8.1703107"><ele>1053.0</ele><time>2026-05-02T11:59:19.16Z</time></trkpt><trkpt lat="44.2669279" lon="8.1703321"><ele>1053.75</ele><time>2026-05-02T11:59:20.146Z</time></trkpt><trkpt lat="44.2668076" lon="8.1703557"><ele>1054.5</ele><time>2026-05-02T11:59:21.151Z</time></trkpt><trkpt lat="44.2666817" lon="8.1703781"><ele>1055.25</ele><time>2026-05-02T11:59:22.145Z</time></trkpt><trkpt lat="44.2665549" lon="8.1703959"><ele>1056.0</ele><time>2026-05-02T11:59:23.146Z</time></trkpt><trkpt lat="44.266421" lon="8.170419"><ele>1054.5</ele><time>2026-05-02T11:59:24.146Z</time></trkpt><trkpt lat="44.2662885" lon="8.170442"><ele>1053.0</ele><time>2026-05-02T11:59:25.148Z</time></trkpt><trkpt lat="44.266152" lon="8.1704764"><ele>1051.5</ele><time>2026-05-02T11:59:26.146Z</time></trkpt><trkpt lat="44.2660386" lon="8.1705015"><ele>1050.0</ele><time>2026-05-02T11:59:27.148Z</time></trkpt><trkpt lat="44.2659281" lon="8.1705337"><ele>1050.0</ele><time>2026-05-02T11:59:28.142Z</time></trkpt><trkpt lat="44.2658338" lon="8.1705735"><ele>1050.0</ele><time>2026-05-02T11:59:29.149Z</time></trkpt><trkpt lat="44.2657426" lon="8.170619"><ele>1050.0</ele><time>2026-05-02T11:59:30.145Z</time></trkpt><trkpt lat="44.2656609" lon="8.1706806"><ele>1050.0</ele><time>2026-05-02T11:59:31.152Z</time></trkpt><trkpt lat="44.2655872" lon="8.1707453"><ele>1050.0</ele><time>2026-05-02T11:59:32.151Z</time></trkpt><trkpt lat="44.2655267" lon="8.1708105"><ele>1052.0</ele><time>2026-05-02T11:59:33.143Z</time></trkpt><trkpt lat="44.2654833" lon="8.1708975"><ele>1054.0</ele><time>2026-05-02T11:59:34.149Z</time></trkpt><trkpt lat="44.2654511" lon="8.1710284"><ele>1056.0</ele><time>2026-05-02T11:59:35.146Z</time></trkpt><trkpt lat="44.265443" lon="8.1711667"><ele>1058.0</ele><time>2026-05-02T11:59:36.145Z</time></trkpt><trkpt lat="44.2654375" lon="8.1713082"><ele>1060.0</ele><time>2026-05-02T11:59:37.153Z</time></trkpt><trkpt lat="44.2654129" lon="8.1714459"><ele>1063.4</ele><time>2026-05-02T11:59:38.14Z</time></trkpt><trkpt lat="44.2653771" lon="8.1715684"><ele>1066.8</ele><time>2026-05-02T11:59:39.147Z</time></trkpt><trkpt lat="44.2653264" lon="8.1716917"><ele>1070.2</ele><time>2026-05-02T11:59:40.139Z</time></trkpt><trkpt lat="44.2652698" lon="8.1718056"><ele>1073.6</ele><time>2026-05-02T11:59:41.138Z</time></trkpt><trkpt lat="44.265206" lon="8.1719204"><ele>1077.0</ele><time>2026-05-02T11:59:42.137Z</time></trkpt><trkpt lat="44.2651273" lon="8.1720404"><ele>1077.0</ele><time>2026-05-02T11:59:43.136Z</time></trkpt><trkpt lat="44.2650376" lon="8.172151"><ele>1077.0</ele><time>2026-05-02T11:59:44.146Z</time></trkpt><trkpt lat="44.2649099" lon="8.1722367"><ele>1077.0</ele><time>2026-05-02T11:59:45.142Z</time></trkpt><trkpt lat="44.2647775" lon="8.1723078"><ele>1077.0</ele><time>2026-05-02T11:59:46.141Z</time></trkpt><trkpt lat="44.2646391" lon="8.172374"><ele>1079.8</ele><time>2026-05-02T11:59:47.146Z</time></trkpt><trkpt lat="44.2645257" lon="8.1724397"><ele>1082.6</ele><time>2026-05-02T11:59:48.142Z</time></trkpt><trkpt lat="44.2644381" lon="8.1725206"><ele>1085.3999999999999</ele><time>2026-05-02T11:59:49.139Z</time></trkpt><trkpt lat="44.2643533" lon="8.1725994"><ele>1088.2</ele><time>2026-05-02T11:59:50.143Z</time></trkpt><trkpt lat="44.264266" lon="8.1726832"><ele>1091.0</ele><time>2026-05-02T11:59:51.152Z</time></trkpt><trkpt lat="44.2641956" lon="8.1727618"><ele>1091.0</ele><time>2026-05-02T11:59:52.147Z</time></trkpt><trkpt lat="44.2641432" lon="8.172832"><ele>1091.0</ele><time>2026-05-02T11:59:53.148Z</time></trkpt><trkpt lat="44.2641" lon="8.1728962"><ele>1091.0</ele><time>2026-05-02T11:59:54.157Z</time></trkpt><trkpt lat="44.264053" lon="8.1730093"><ele>1091.0</ele><time>2026-05-02T11:59:56.162Z</time></trkpt><trkpt lat="44.264139" lon="8.1729832"><ele>1091.0</ele><time>2026-05-02T12:03:00.174Z</time></trkpt><trkpt lat="44.2642286" lon="8.1730186"><ele>1091.0</ele><time>2026-05-02T12:03:02.18Z</time></trkpt><trkpt lat="44.2643298" lon="8.1730635"><ele>1091.0</ele><time>2026-05-02T12:03:04.166Z</time></trkpt><trkpt lat="44.2644181" lon="8.1731304"><ele>1091.0</ele><time>2026-05-02T12:03:06.154Z</time></trkpt><trkpt lat="44.2645265" lon="8.1732152"><ele>1091.0</ele><time>2026-05-02T12:03:08.166Z</time></trkpt><trkpt lat="44.2646349" lon="8.1732976"><ele>1091.0</ele><time>2026-05-02T12:03:10.17Z</time></trkpt><trkpt lat="44.2647382" lon="8.1733917"><ele>1092.6</ele><time>2026-05-02T12:03:12.16Z</time></trkpt><trkpt lat="44.264826" lon="8.1734713"><ele>1094.1999999999998</ele><time>2026-05-02T12:03:14.153Z</time></trkpt><trkpt lat="44.2649382" lon="8.1735165"><ele>1095.8000000000002</ele><time>2026-05-02T12:03:16.161Z</time></trkpt><trkpt lat="44.2650082" lon="8.1735268"><ele>1097.4</ele><time>2026-05-02T12:03:17.155Z</time></trkpt><trkpt lat="44.2650924" lon="8.1735378"><ele>1099.0</ele><time>2026-05-02T12:03:18.156Z</time></trkpt><trkpt lat="44.2651681" lon="8.1735442"><ele>1099.0</ele><time>2026-05-02T12:03:19.149Z</time></trkpt><trkpt lat="44.2653126" lon="8.1736005"><ele>1099.0</ele><time>2026-05-02T12:03:21.151Z</time></trkpt><trkpt lat="44.2654127" lon="8.1736518"><ele>1099.0</ele><time>2026-05-02T12:03:22.154Z</time></trkpt><trkpt lat="44.2655005" lon="8.1737177"><ele>1099.0</ele><time>2026-05-02T12:03:23.157Z</time></trkpt><trkpt lat="44.2655738" lon="8.173798"><ele>1099.0</ele><time>2026-05-02T12:03:24.158Z</time></trkpt><trkpt lat="44.2656497" lon="8.1738815"><ele>1101.2</ele><time>2026-05-02T12:03:25.149Z</time></trkpt><trkpt lat="44.2657214" lon="8.1739785"><ele>1103.4</ele><time>2026-05-02T12:03:26.157Z</time></trkpt><trkpt lat="44.2657847" lon="8.1740983"><ele>1105.6</ele><time>2026-05-02T12:03:27.156Z</time></trkpt><trkpt lat="44.2658326" lon="8.1742321"><ele>1107.8</ele><time>2026-05-02T12:03:28.153Z</time></trkpt><trkpt lat="44.2658888" lon="8.174364"><ele>1110.0</ele><time>2026-05-02T12:03:29.159Z</time></trkpt><trkpt lat="44.2659402" lon="8.1744874"><ele>1106.1666666666667</ele><time>2026-05-02T12:03:30.163Z</time></trkpt><trkpt lat="44.2660005" lon="8.1746013"><ele>1102.3333333333333</ele><time>2026-05-02T12:03:31.168Z</time></trkpt><trkpt lat="44.2660534" lon="8.1746994"><ele>1098.5</ele><time>2026-05-02T12:03:32.174Z</time></trkpt><trkpt lat="44.2661192" lon="8.1747779"><ele>1094.6666666666665</ele><time>2026-05-02T12:03:33.166Z</time></trkpt><trkpt lat="44.2661922" lon="8.1748464"><ele>1090.8333333333333</ele><time>2026-05-02T12:03:34.164Z</time></trkpt><trkpt lat="44.266265" lon="8.1749088"><ele>1087.0</ele><time>2026-05-02T12:03:35.165Z</time></trkpt><trkpt lat="44.2663199" lon="8.1749924"><ele>1085.3333333333333</ele><time>2026-05-02T12:03:36.16Z</time></trkpt><trkpt lat="44.2663727" lon="8.1750856"><ele>1083.6666666666665</ele><time>2026-05-02T12:03:37.16Z</time></trkpt><trkpt lat="44.2664206" lon="8.1751911"><ele>1082.0</ele><time>2026-05-02T12:03:38.171Z</time></trkpt><trkpt lat="44.2664643" lon="8.1752841"><ele>1080.3333333333333</ele><time>2026-05-02T12:03:39.166Z</time></trkpt><trkpt lat="44.26651" lon="8.1753624"><ele>1078.6666666666667</ele><time>2026-05-02T12:03:40.164Z</time></trkpt><trkpt lat="44.2665582" lon="8.1754269"><ele>1077.0</ele><time>2026-05-02T12:03:41.159Z</time></trkpt><trkpt lat="44.2666754" lon="8.1754752"><ele>1077.0</ele><time>2026-05-02T12:03:43.138Z</time></trkpt><trkpt lat="44.2667421" lon="8.1754617"><ele>1077.0</ele><time>2026-05-02T12:03:44.161Z</time></trkpt><trkpt lat="44.2668216" lon="8.175424"><ele>1077.0</ele><time>2026-05-02T12:03:45.143Z</time></trkpt><trkpt lat="44.2669199" lon="8.1753705"><ele>1077.0</ele><time>2026-05-02T12:03:46.153Z</time></trkpt><trkpt lat="44.2670055" lon="8.1753164"><ele>1077.0</ele><time>2026-05-02T12:03:47.153Z</time></trkpt><trkpt lat="44.267095" lon="8.1752699"><ele>1077.0</ele><time>2026-05-02T12:03:48.145Z</time></trkpt><trkpt lat="44.2671808" lon="8.1752392"><ele>1077.0</ele><time>2026-05-02T12:03:49.149Z</time></trkpt><trkpt lat="44.2672684" lon="8.1752002"><ele>1077.0</ele><time>2026-05-02T12:03:50.151Z</time></trkpt><trkpt lat="44.2673573" lon="8.1751686"><ele>1077.0</ele><time>2026-05-02T12:03:51.149Z</time></trkpt><trkpt lat="44.2674507" lon="8.1751354"><ele>1077.0</ele><time>2026-05-02T12:03:52.15Z</time></trkpt><trkpt lat="44.2675439" lon="8.175116"><ele>1077.0</ele><time>2026-05-02T12:03:53.135Z</time></trkpt><trkpt lat="44.2676438" lon="8.1750942"><ele>1075.4</ele><time>2026-05-02T12:03:54.144Z</time></trkpt><trkpt lat="44.2677368" lon="8.1750761"><ele>1073.8000000000002</ele><time>2026-05-02T12:03:55.142Z</time></trkpt><trkpt lat="44.2678328" lon="8.1750486"><ele>1072.2</ele><time>2026-05-02T12:03:56.148Z</time></trkpt><trkpt lat="44.2679385" lon="8.1750024"><ele>1070.6000000000001</ele><time>2026-05-02T12:03:57.137Z</time></trkpt><trkpt lat="44.2680424" lon="8.1749582"><ele>1069.0</ele><time>2026-05-02T12:03:58.141Z</time></trkpt><trkpt lat="44.2681505" lon="8.1749062"><ele>1066.8</ele><time>2026-05-02T12:03:59.141Z</time></trkpt><trkpt lat="44.2682595" lon="8.1748707"><ele>1064.6000000000001</ele><time>2026-05-02T12:04:00.134Z</time></trkpt><trkpt lat="44.2683685" lon="8.1748445"><ele>1062.4</ele><time>2026-05-02T12:04:01.137Z</time></trkpt><trkpt lat="44.2684652" lon="8.1748447"><ele>1060.2</ele><time>2026-05-02T12:04:02.145Z</time></trkpt><trkpt lat="44.2685827" lon="8.1748671"><ele>1058.0</ele><time>2026-05-02T12:04:03.131Z</time></trkpt><trkpt lat="44.2687016" lon="8.174891"><ele>1058.0</ele><time>2026-05-02T12:04:04.139Z</time></trkpt><trkpt lat="44.2688291" lon="8.1749065"><ele>1058.0</ele><time>2026-05-02T12:04:05.147Z</time></trkpt><trkpt lat="44.2689305" lon="8.1749057"><ele>1058.0</ele><time>2026-05-02T12:04:06.14Z</time></trkpt><trkpt lat="44.2690218" lon="8.1749103"><ele>1058.0</ele><time>2026-05-02T12:04:07.144Z</time></trkpt><trkpt lat="44.269113" lon="8.1749233"><ele>1058.0</ele><time>2026-05-02T12:04:08.143Z</time></trkpt><trkpt lat="44.2692242" lon="8.1749534"><ele>1058.0</ele><time>2026-05-02T12:04:09.153Z</time></trkpt><trkpt lat="44.2693323" lon="8.1749967"><ele>1058.0</ele><time>2026-05-02T12:04:10.14Z</time></trkpt><trkpt lat="44.2694332" lon="8.1750536"><ele>1058.0</ele><time>2026-05-02T12:04:11.138Z</time></trkpt><trkpt lat="44.2695407" lon="8.1751215"><ele>1058.0</ele><time>2026-05-02T12:04:12.147Z</time></trkpt><trkpt lat="44.2696363" lon="8.1751995"><ele>1058.0</ele><time>2026-05-02T12:04:13.141Z</time></trkpt><trkpt lat="44.2697083" lon="8.1752777"><ele>1058.0</ele><time>2026-05-02T12:04:14.144Z</time></trkpt><trkpt lat="44.2697706" lon="8.1753685"><ele>1058.0</ele><time>2026-05-02T12:04:15.147Z</time></trkpt><trkpt lat="44.2698399" lon="8.1754678"><ele>1058.0</ele><time>2026-05-02T12:04:16.147Z</time></trkpt><trkpt lat="44.269898" lon="8.1755767"><ele>1058.0</ele><time>2026-05-02T12:04:17.153Z</time></trkpt><trkpt lat="44.2699487" lon="8.1756881"><ele>1056.2</ele><time>2026-05-02T12:04:18.138Z</time></trkpt><trkpt lat="44.2700024" lon="8.1758099"><ele>1054.4</ele><time>2026-05-02T12:04:19.14Z</time></trkpt><trkpt lat="44.2700601" lon="8.1759212"><ele>1052.6000000000001</ele><time>2026-05-02T12:04:20.14Z</time></trkpt><trkpt lat="44.2701022" lon="8.1760459"><ele>1050.8</ele><time>2026-05-02T12:04:21.149Z</time></trkpt><trkpt lat="44.2701498" lon="8.1761652"><ele>1049.0</ele><time>2026-05-02T12:04:22.151Z</time></trkpt><trkpt lat="44.2701981" lon="8.1762768"><ele>1049.0</ele><time>2026-05-02T12:04:23.142Z</time></trkpt><trkpt lat="44.2702633" lon="8.17638"><ele>1049.0</ele><time>2026-05-02T12:04:24.154Z</time></trkpt><trkpt lat="44.2703341" lon="8.1764868"><ele>1049.0</ele><time>2026-05-02T12:04:25.142Z</time></trkpt><trkpt lat="44.2704082" lon="8.1765732"><ele>1049.0</ele><time>2026-05-02T12:04:26.146Z</time></trkpt><trkpt lat="44.2704974" lon="8.176613"><ele>1049.0</ele><time>2026-05-02T12:04:27.141Z</time></trkpt><trkpt lat="44.2705835" lon="8.1766564"><ele>1047.6666666666667</ele><time>2026-05-02T12:04:28.137Z</time></trkpt><trkpt lat="44.2706634" lon="8.1767208"><ele>1046.3333333333335</ele><time>2026-05-02T12:04:29.151Z</time></trkpt><trkpt lat="44.2707319" lon="8.176782"><ele>1045.0</ele><time>2026-05-02T12:04:30.134Z</time></trkpt><trkpt lat="44.2707792" lon="8.1768674"><ele>1043.6666666666667</ele><time>2026-05-02T12:04:31.147Z</time></trkpt><trkpt lat="44.2708012" lon="8.176963"><ele>1042.3333333333333</ele><time>2026-05-02T12:04:32.145Z</time></trkpt><trkpt lat="44.2708101" lon="8.1770649"><ele>1041.0</ele><time>2026-05-02T12:04:33.144Z</time></trkpt><trkpt lat="44.2708277" lon="8.1771689"><ele>1041.0</ele><time>2026-05-02T12:04:34.145Z</time></trkpt><trkpt lat="44.2708498" lon="8.177261"><ele>1041.0</ele><time>2026-05-02T12:04:35.143Z</time></trkpt><trkpt lat="44.2709314" lon="8.1773466"><ele>1041.0</ele><time>2026-05-02T12:04:37.147Z</time></trkpt><trkpt lat="44.2710317" lon="8.1774196"><ele>1041.0</ele><time>2026-05-02T12:04:39.143Z</time></trkpt><trkpt lat="44.2711034" lon="8.1774583"><ele>1041.0</ele><time>2026-05-02T12:04:40.138Z</time></trkpt><trkpt lat="44.2711975" lon="8.1774804"><ele>1036.8</ele><time>2026-05-02T12:04:41.141Z</time></trkpt><trkpt lat="44.2712978" lon="8.1774927"><ele>1032.6</ele><time>2026-05-02T12:04:42.131Z</time></trkpt><trkpt lat="44.2713967" lon="8.1775101"><ele>1028.4</ele><time>2026-05-02T12:04:43.133Z</time></trkpt><trkpt lat="44.2715035" lon="8.1775416"><ele>1024.2</ele><time>2026-05-02T12:04:44.143Z</time></trkpt><trkpt lat="44.2716045" lon="8.1776225"><ele>1020.0</ele><time>2026-05-02T12:04:45.151Z</time></trkpt><trkpt lat="44.2716633" lon="8.1777204"><ele>1020.0</ele><time>2026-05-02T12:04:46.15Z</time></trkpt><trkpt lat="44.2717139" lon="8.1778499"><ele>1020.0</ele><time>2026-05-02T12:04:47.142Z</time></trkpt><trkpt lat="44.2717639" lon="8.1779762"><ele>1020.0</ele><time>2026-05-02T12:04:48.154Z</time></trkpt><trkpt lat="44.2718205" lon="8.1780751"><ele>1020.0</ele><time>2026-05-02T12:04:49.151Z</time></trkpt><trkpt lat="44.2718736" lon="8.17817"><ele>1020.0</ele><time>2026-05-02T12:04:50.158Z</time></trkpt><trkpt lat="44.2719377" lon="8.1782666"><ele>1017.0</ele><time>2026-05-02T12:04:51.151Z</time></trkpt><trkpt lat="44.2720145" lon="8.1783338"><ele>1014.0</ele><time>2026-05-02T12:04:52.15Z</time></trkpt><trkpt lat="44.2721076" lon="8.1784049"><ele>1011.0</ele><time>2026-05-02T12:04:53.154Z</time></trkpt><trkpt lat="44.2721984" lon="8.1784753"><ele>1008.0</ele><time>2026-05-02T12:04:54.163Z</time></trkpt><trkpt lat="44.2722924" lon="8.1785193"><ele>1005.0</ele><time>2026-05-02T12:04:55.148Z</time></trkpt><trkpt lat="44.2723972" lon="8.1785553"><ele>1005.0</ele><time>2026-05-02T12:04:56.145Z</time></trkpt><trkpt lat="44.2725026" lon="8.1785812"><ele>1005.0</ele><time>2026-05-02T12:04:57.151Z</time></trkpt><trkpt lat="44.2725947" lon="8.1785974"><ele>1005.0</ele><time>2026-05-02T12:04:58.156Z</time></trkpt><trkpt lat="44.2726952" lon="8.1785912"><ele>1005.0</ele><time>2026-05-02T12:04:59.154Z</time></trkpt><trkpt lat="44.2727863" lon="8.1785894"><ele>1005.0</ele><time>2026-05-02T12:05:00.149Z</time></trkpt><trkpt lat="44.2728644" lon="8.178589"><ele>1005.0</ele><time>2026-05-02T12:05:01.156Z</time></trkpt><trkpt lat="44.2729445" lon="8.1785906"><ele>1005.0</ele><time>2026-05-02T12:05:02.154Z</time></trkpt><trkpt lat="44.273027" lon="8.1786005"><ele>1005.0</ele><time>2026-05-02T12:05:03.157Z</time></trkpt><trkpt lat="44.2731138" lon="8.1786224"><ele>1005.0</ele><time>2026-05-02T12:05:04.16Z</time></trkpt><trkpt lat="44.2731991" lon="8.1786727"><ele>1005.0</ele><time>2026-05-02T12:05:05.159Z</time></trkpt><trkpt lat="44.2733011" lon="8.1787372"><ele>1005.4</ele><time>2026-05-02T12:05:06.14Z</time></trkpt><trkpt lat="44.273399" lon="8.1788034"><ele>1005.8</ele><time>2026-05-02T12:05:07.157Z</time></trkpt><trkpt lat="44.2734832" lon="8.178877"><ele>1006.2</ele><time>2026-05-02T12:05:08.149Z</time></trkpt><trkpt lat="44.2735721" lon="8.1789558"><ele>1006.6</ele><time>2026-05-02T12:05:09.156Z</time></trkpt><trkpt lat="44.2736534" lon="8.1790222"><ele>1007.0</ele><time>2026-05-02T12:05:10.156Z</time></trkpt><trkpt lat="44.2737345" lon="8.179073"><ele>1002.4000000000001</ele><time>2026-05-02T12:05:11.152Z</time></trkpt><trkpt lat="44.2738243" lon="8.1791054"><ele>997.8000000000001</ele><time>2026-05-02T12:05:12.169Z</time></trkpt><trkpt lat="44.2739124" lon="8.1791205"><ele>993.2</ele><time>2026-05-02T12:05:13.164Z</time></trkpt><trkpt lat="44.2740082" lon="8.1791328"><ele>988.6</ele><time>2026-05-02T12:05:14.15Z</time></trkpt><trkpt lat="44.2741166" lon="8.1791383"><ele>984.0</ele><time>2026-05-02T12:05:15.159Z</time></trkpt><trkpt lat="44.2742218" lon="8.1791406"><ele>984.0</ele><time>2026-05-02T12:05:16.15Z</time></trkpt><trkpt lat="44.2743291" lon="8.1791458"><ele>984.0000000000001</ele><time>2026-05-02T12:05:17.165Z</time></trkpt><trkpt lat="44.2744343" lon="8.1791694"><ele>984.0000000000001</ele><time>2026-05-02T12:05:18.162Z</time></trkpt><trkpt lat="44.274536" lon="8.1792029"><ele>984.0</ele><time>2026-05-02T12:05:19.168Z</time></trkpt><trkpt lat="44.2746377" lon="8.1792467"><ele>984.0</ele><time>2026-05-02T12:05:20.166Z</time></trkpt><trkpt lat="44.2747366" lon="8.1793075"><ele>982.4000000000001</ele><time>2026-05-02T12:05:21.169Z</time></trkpt><trkpt lat="44.2748318" lon="8.1793547"><ele>980.8000000000001</ele><time>2026-05-02T12:05:22.166Z</time></trkpt><trkpt lat="44.2749325" lon="8.1793877"><ele>979.1999999999999</ele><time>2026-05-02T12:05:23.171Z</time></trkpt><trkpt lat="44.2750296" lon="8.1794127"><ele>977.5999999999999</ele><time>2026-05-02T12:05:24.17Z</time></trkpt><trkpt lat="44.2751314" lon="8.1793917"><ele>976.0</ele><time>2026-05-02T12:05:25.169Z</time></trkpt><trkpt lat="44.2752261" lon="8.1793497"><ele>975.9999999999999</ele><time>2026-05-02T12:05:26.165Z</time></trkpt><trkpt lat="44.2753184" lon="8.1792952"><ele>976.0</ele><time>2026-05-02T12:05:27.165Z</time></trkpt><trkpt lat="44.2754136" lon="8.1792423"><ele>976.0</ele><time>2026-05-02T12:05:28.151Z</time></trkpt><trkpt lat="44.275499" lon="8.1791935"><ele>976.0</ele><time>2026-05-02T12:05:29.15Z</time></trkpt><trkpt lat="44.275566" lon="8.1791442"><ele>975.9999999999999</ele><time>2026-05-02T12:05:30.147Z</time></trkpt><trkpt lat="44.275628" lon="8.1790971"><ele>976.0</ele><time>2026-05-02T12:05:31.153Z</time></trkpt><trkpt lat="44.275703" lon="8.1791007"><ele>976.0</ele><time>2026-05-02T12:05:33.158Z</time></trkpt><trkpt lat="44.2756724" lon="8.1792019"><ele>975.9999999999999</ele><time>2026-05-02T12:05:35.15Z</time></trkpt><trkpt lat="44.2755648" lon="8.1793181"><ele>975.9999999999999</ele><time>2026-05-02T12:05:37.156Z</time></trkpt><trkpt lat="44.2754739" lon="8.1793824"><ele>976.0</ele><time>2026-05-02T12:05:38.143Z</time></trkpt><trkpt lat="44.2753898" lon="8.1794572"><ele>976.0</ele><time>2026-05-02T12:05:39.148Z</time></trkpt><trkpt lat="44.2753197" lon="8.1795552"><ele>976.0</ele><time>2026-05-02T12:05:40.147Z</time></trkpt><trkpt lat="44.2752564" lon="8.179663"><ele>975.9999999999999</ele><time>2026-05-02T12:05:41.153Z</time></trkpt><trkpt lat="44.2751894" lon="8.1797623"><ele>975.9999999999999</ele><time>2026-05-02T12:05:42.141Z</time></trkpt><trkpt lat="44.275114" lon="8.1798564"><ele>976.0</ele><time>2026-05-02T12:05:43.137Z</time></trkpt><trkpt lat="44.2750267" lon="8.1799432"><ele>976.0</ele><time>2026-05-02T12:05:44.147Z</time></trkpt><trkpt lat="44.2749283" lon="8.1800111"><ele>971.0</ele><time>2026-05-02T12:05:45.152Z</time></trkpt><trkpt lat="44.2748153" lon="8.1800655"><ele>965.9999999999999</ele><time>2026-05-02T12:05:46.154Z</time></trkpt><trkpt lat="44.2747067" lon="8.180077"><ele>960.9999999999999</ele><time>2026-05-02T12:05:47.146Z</time></trkpt><trkpt lat="44.274607" lon="8.1800895"><ele>956.0</ele><time>2026-05-02T12:05:48.137Z</time></trkpt><trkpt lat="44.2745061" lon="8.1801213"><ele>951.0</ele><time>2026-05-02T12:05:49.144Z</time></trkpt><trkpt lat="44.2744157" lon="8.1801508"><ele>951.0</ele><time>2026-05-02T12:05:50.14Z</time></trkpt><trkpt lat="44.2743256" lon="8.180194"><ele>950.9999999999999</ele><time>2026-05-02T12:05:51.139Z</time></trkpt><trkpt lat="44.2742282" lon="8.1802284"><ele>950.9999999999999</ele><time>2026-05-02T12:05:52.148Z</time></trkpt><trkpt lat="44.274125" lon="8.1802725"><ele>951.0</ele><time>2026-05-02T12:05:53.144Z</time></trkpt><trkpt lat="44.2740295" lon="8.1803032"><ele>951.0</ele><time>2026-05-02T12:05:54.148Z</time></trkpt><trkpt lat="44.2739433" lon="8.1803306"><ele>951.4</ele><time>2026-05-02T12:05:55.143Z</time></trkpt><trkpt lat="44.2738583" lon="8.1803835"><ele>951.8</ele><time>2026-05-02T12:05:56.152Z</time></trkpt><trkpt lat="44.2737741" lon="8.1804579"><ele>952.1999999999999</ele><time>2026-05-02T12:05:57.145Z</time></trkpt><trkpt lat="44.2737083" lon="8.180539"><ele>952.5999999999999</ele><time>2026-05-02T12:05:58.166Z</time></trkpt><trkpt lat="44.2736536" lon="8.1806459"><ele>953.0</ele><time>2026-05-02T12:05:59.161Z</time></trkpt><trkpt lat="44.2736242" lon="8.1807571"><ele>949.0</ele><time>2026-05-02T12:06:00.161Z</time></trkpt><trkpt lat="44.2736153" lon="8.180871"><ele>945.0</ele><time>2026-05-02T12:06:01.168Z</time></trkpt><trkpt lat="44.2736293" lon="8.1810004"><ele>941.0</ele><time>2026-05-02T12:06:02.17Z</time></trkpt><trkpt lat="44.2736577" lon="8.1811464"><ele>937.0</ele><time>2026-05-02T12:06:03.163Z</time></trkpt><trkpt lat="44.27368" lon="8.1812904"><ele>933.0</ele><time>2026-05-02T12:06:04.166Z</time></trkpt><trkpt lat="44.2737085" lon="8.1814335"><ele>931.5</ele><time>2026-05-02T12:06:05.167Z</time></trkpt><trkpt lat="44.2737385" lon="8.1815717"><ele>930.0</ele><time>2026-05-02T12:06:06.159Z</time></trkpt><trkpt lat="44.2737647" lon="8.1816964"><ele>928.5</ele><time>2026-05-02T12:06:07.164Z</time></trkpt><trkpt lat="44.2737814" lon="8.181812"><ele>927.0</ele><time>2026-05-02T12:06:08.183Z</time></trkpt><trkpt lat="44.2737753" lon="8.1819137"><ele>925.5</ele><time>2026-05-02T12:06:09.162Z</time></trkpt><trkpt lat="44.2737535" lon="8.1820137"><ele>924.0</ele><time>2026-05-02T12:06:10.171Z</time></trkpt><trkpt lat="44.2737028" lon="8.1821029"><ele>924.0</ele><time>2026-05-02T12:06:11.167Z</time></trkpt><trkpt lat="44.2736424" lon="8.1821754"><ele>924.0</ele><time>2026-05-02T12:06:12.163Z</time></trkpt><trkpt lat="44.2735722" lon="8.1822375"><ele>924.0</ele><time>2026-05-02T12:06:13.161Z</time></trkpt><trkpt lat="44.2734969" lon="8.1823027"><ele>924.0</ele><time>2026-05-02T12:06:14.167Z</time></trkpt><trkpt lat="44.2734182" lon="8.1823534"><ele>924.0</ele><time>2026-05-02T12:06:15.176Z</time></trkpt><trkpt lat="44.273334" lon="8.182377"><ele>924.0</ele><time>2026-05-02T12:06:16.164Z</time></trkpt><trkpt lat="44.2732545" lon="8.182373"><ele>924.0</ele><time>2026-05-02T12:06:17.18Z</time></trkpt><trkpt lat="44.2731795" lon="8.1823091"><ele>924.0000000000001</ele><time>2026-05-02T12:06:18.181Z</time></trkpt><trkpt lat="44.2731211" lon="8.1821924"><ele>924.0000000000001</ele><time>2026-05-02T12:06:19.167Z</time></trkpt><trkpt lat="44.2730673" lon="8.1820541"><ele>924.0</ele><time>2026-05-02T12:06:20.157Z</time></trkpt><trkpt lat="44.2730298" lon="8.1819047"><ele>924.0</ele><time>2026-05-02T12:06:21.158Z</time></trkpt><trkpt lat="44.2730052" lon="8.1817706"><ele>921.0</ele><time>2026-05-02T12:06:22.156Z</time></trkpt><trkpt lat="44.2729915" lon="8.1816557"><ele>918.0</ele><time>2026-05-02T12:06:23.156Z</time></trkpt><trkpt lat="44.2729421" lon="8.1815653"><ele>915.0</ele><time>2026-05-02T12:06:25.158Z</time></trkpt><trkpt lat="44.2728853" lon="8.1816477"><ele>912.0</ele><time>2026-05-02T12:06:28.144Z</time></trkpt><trkpt lat="44.2729038" lon="8.1817877"><ele>909.0</ele><time>2026-05-02T12:06:30.147Z</time></trkpt><trkpt lat="44.2729188" lon="8.1818842"><ele>906.0</ele><time>2026-05-02T12:06:31.145Z</time></trkpt><trkpt lat="44.272933" lon="8.1819866"><ele>906.0</ele><time>2026-05-02T12:06:32.144Z</time></trkpt><trkpt lat="44.2729623" lon="8.1820844"><ele>906.0</ele><time>2026-05-02T12:06:33.141Z</time></trkpt><trkpt lat="44.2729969" lon="8.1821788"><ele>906.0</ele><time>2026-05-02T12:06:34.135Z</time></trkpt><trkpt lat="44.2730294" lon="8.1822915"><ele>906.0</ele><time>2026-05-02T12:06:35.14Z</time></trkpt><trkpt lat="44.2730655" lon="8.1824148"><ele>906.0</ele><time>2026-05-02T12:06:36.148Z</time></trkpt><trkpt lat="44.2731049" lon="8.1825421"><ele>906.0</ele><time>2026-05-02T12:06:37.141Z</time></trkpt><trkpt lat="44.2731399" lon="8.1826733"><ele>905.1999999999999</ele><time>2026-05-02T12:06:38.143Z</time></trkpt><trkpt lat="44.273164" lon="8.182808"><ele>904.3999999999999</ele><time>2026-05-02T12:06:39.147Z</time></trkpt><trkpt lat="44.2731848" lon="8.1829386"><ele>903.6</ele><time>2026-05-02T12:06:40.152Z</time></trkpt><trkpt lat="44.2732006" lon="8.1830832"><ele>902.8</ele><time>2026-05-02T12:06:41.15Z</time></trkpt><trkpt lat="44.2732254" lon="8.1831958"><ele>902.0</ele><time>2026-05-02T12:06:42.155Z</time></trkpt><trkpt lat="44.2732514" lon="8.1832796"><ele>902.0000000000001</ele><time>2026-05-02T12:06:43.151Z</time></trkpt><trkpt lat="44.2733092" lon="8.1833728"><ele>902.0</ele><time>2026-05-02T12:06:44.156Z</time></trkpt><trkpt lat="44.2733701" lon="8.183461"><ele>902.0</ele><time>2026-05-02T12:06:45.172Z</time></trkpt><trkpt lat="44.2734217" lon="8.1835525"><ele>902.0</ele><time>2026-05-02T12:06:46.169Z</time></trkpt><trkpt lat="44.27348" lon="8.1836256"><ele>902.0000000000001</ele><time>2026-05-02T12:06:47.16Z</time></trkpt><trkpt lat="44.2735144" lon="8.1837094"><ele>902.0</ele><time>2026-05-02T12:06:48.169Z</time></trkpt><trkpt lat="44.2735189" lon="8.1838102"><ele>902.0</ele><time>2026-05-02T12:06:49.158Z</time></trkpt><trkpt lat="44.2735213" lon="8.1839213"><ele>902.0</ele><time>2026-05-02T12:06:50.157Z</time></trkpt><trkpt lat="44.2735259" lon="8.1840582"><ele>902.0</ele><time>2026-05-02T12:06:51.16Z</time></trkpt><trkpt lat="44.2735386" lon="8.1841944"><ele>902.0</ele><time>2026-05-02T12:06:52.16Z</time></trkpt><trkpt lat="44.2735654" lon="8.1843305"><ele>902.0</ele><time>2026-05-02T12:06:53.157Z</time></trkpt><trkpt lat="44.2736109" lon="8.1844613"><ele>899.8</ele><time>2026-05-02T12:06:54.162Z</time></trkpt><trkpt lat="44.2736654" lon="8.1845928"><ele>897.6</ele><time>2026-05-02T12:06:55.162Z</time></trkpt><trkpt lat="44.2737291" lon="8.1847162"><ele>895.3999999999999</ele><time>2026-05-02T12:06:56.17Z</time></trkpt><trkpt lat="44.2737995" lon="8.1848451"><ele>893.1999999999999</ele><time>2026-05-02T12:06:57.17Z</time></trkpt><trkpt lat="44.2738593" lon="8.1849711"><ele>891.0</ele><time>2026-05-02T12:06:58.163Z</time></trkpt><trkpt lat="44.2739175" lon="8.1850931"><ele>889.5</ele><time>2026-05-02T12:06:59.165Z</time></trkpt><trkpt lat="44.2739822" lon="8.1851856"><ele>888.0</ele><time>2026-05-02T12:07:00.171Z</time></trkpt><trkpt lat="44.2740484" lon="8.1852716"><ele>886.5</ele><time>2026-05-02T12:07:01.177Z</time></trkpt><trkpt lat="44.2740868" lon="8.1853502"><ele>885.0</ele><time>2026-05-02T12:07:02.167Z</time></trkpt><trkpt lat="44.2741041" lon="8.1854881"><ele>883.5</ele><time>2026-05-02T12:07:04.163Z</time></trkpt><trkpt lat="44.2740256" lon="8.1855332"><ele>882.0</ele><time>2026-05-02T12:07:06.176Z</time></trkpt><trkpt lat="44.2739746" lon="8.1854684"><ele>881.0</ele><time>2026-05-02T12:07:07.169Z</time></trkpt><trkpt lat="44.2739057" lon="8.1853653"><ele>880.0</ele><time>2026-05-02T12:07:08.164Z</time></trkpt><trkpt lat="44.2738281" lon="8.185266"><ele>879.0</ele><time>2026-05-02T12:07:09.159Z</time></trkpt><trkpt lat="44.2737521" lon="8.1851641"><ele>878.0</ele><time>2026-05-02T12:07:10.157Z</time></trkpt><trkpt lat="44.2736625" lon="8.1850729"><ele>877.0</ele><time>2026-05-02T12:07:11.158Z</time></trkpt><trkpt lat="44.2735637" lon="8.184992"><ele>877.0</ele><time>2026-05-02T12:07:12.158Z</time></trkpt><trkpt lat="44.2734677" lon="8.1849207"><ele>877.0</ele><time>2026-05-02T12:07:13.158Z</time></trkpt><trkpt lat="44.2733735" lon="8.1848488"><ele>877.0</ele><time>2026-05-02T12:07:14.154Z</time></trkpt><trkpt lat="44.273276" lon="8.1847844"><ele>877.0</ele><time>2026-05-02T12:07:15.163Z</time></trkpt><trkpt lat="44.2731877" lon="8.184734"><ele>877.0</ele><time>2026-05-02T12:07:16.178Z</time></trkpt><trkpt lat="44.2731024" lon="8.1847035"><ele>876.0000000000001</ele><time>2026-05-02T12:07:17.167Z</time></trkpt><trkpt lat="44.2730314" lon="8.1846924"><ele>875.0</ele><time>2026-05-02T12:07:18.174Z</time></trkpt><trkpt lat="44.2729665" lon="8.1847139"><ele>874.0</ele><time>2026-05-02T12:07:19.171Z</time></trkpt><trkpt lat="44.272902" lon="8.1847481"><ele>873.0</ele><time>2026-05-02T12:07:20.174Z</time></trkpt><trkpt lat="44.2728305" lon="8.1847776"><ele>872.0</ele><time>2026-05-02T12:07:21.167Z</time></trkpt><trkpt lat="44.2727514" lon="8.1847921"><ele>871.0000000000001</ele><time>2026-05-02T12:07:22.171Z</time></trkpt><trkpt lat="44.2726729" lon="8.184784"><ele>870.0</ele><time>2026-05-02T12:07:23.158Z</time></trkpt><trkpt lat="44.2726038" lon="8.1847388"><ele>870.0</ele><time>2026-05-02T12:07:24.164Z</time></trkpt><trkpt lat="44.272536" lon="8.1846731"><ele>870.0</ele><time>2026-05-02T12:07:25.17Z</time></trkpt><trkpt lat="44.2724703" lon="8.1845977"><ele>870.0</ele><time>2026-05-02T12:07:26.162Z</time></trkpt><trkpt lat="44.2724088" lon="8.184522"><ele>870.0</ele><time>2026-05-02T12:07:27.167Z</time></trkpt><trkpt lat="44.2723474" lon="8.1844637"><ele>870.0</ele><time>2026-05-02T12:07:28.166Z</time></trkpt><trkpt lat="44.2722892" lon="8.1844281"><ele>870.0</ele><time>2026-05-02T12:07:29.173Z</time></trkpt><trkpt lat="44.2722072" lon="8.1844649"><ele>865.4</ele><time>2026-05-02T12:07:31.171Z</time></trkpt><trkpt lat="44.2721767" lon="8.1845535"><ele>860.8</ele><time>2026-05-02T12:07:32.172Z</time></trkpt><trkpt lat="44.2721614" lon="8.1846873"><ele>856.2</ele><time>2026-05-02T12:07:33.161Z</time></trkpt><trkpt lat="44.2721769" lon="8.1848365"><ele>851.6</ele><time>2026-05-02T12:07:34.167Z</time></trkpt><trkpt lat="44.2721943" lon="8.1849955"><ele>847.0</ele><time>2026-05-02T12:07:35.149Z</time></trkpt><trkpt lat="44.2722065" lon="8.1851598"><ele>845.25</ele><time>2026-05-02T12:07:36.162Z</time></trkpt><trkpt lat="44.2722182" lon="8.1853211"><ele>843.5</ele><time>2026-05-02T12:07:37.162Z</time></trkpt><trkpt lat="44.2722235" lon="8.1854848"><ele>841.75</ele><time>2026-05-02T12:07:38.157Z</time></trkpt><trkpt lat="44.2722227" lon="8.18564"><ele>840.0</ele><time>2026-05-02T12:07:39.164Z</time></trkpt><trkpt lat="44.2722257" lon="8.1857927"><ele>839.2</ele><time>2026-05-02T12:07:40.169Z</time></trkpt><trkpt lat="44.2722411" lon="8.1859367"><ele>838.4</ele><time>2026-05-02T12:07:41.165Z</time></trkpt><trkpt lat="44.2722619" lon="8.1860826"><ele>837.5999999999999</ele><time>2026-05-02T12:07:42.17Z</time></trkpt><trkpt lat="44.2722825" lon="8.1862247"><ele>836.8</ele><time>2026-05-02T12:07:43.162Z</time></trkpt><trkpt lat="44.2723136" lon="8.1863626"><ele>836.0</ele><time>2026-05-02T12:07:44.163Z</time></trkpt><trkpt lat="44.2723502" lon="8.1864918"><ele>838.0</ele><time>2026-05-02T12:07:45.161Z</time></trkpt><trkpt lat="44.2724032" lon="8.1866133"><ele>840.0</ele><time>2026-05-02T12:07:46.173Z</time></trkpt><trkpt lat="44.2724677" lon="8.1867118"><ele>842.0</ele><time>2026-05-02T12:07:47.162Z</time></trkpt><trkpt lat="44.27253" lon="8.1867795"><ele>844.0</ele><time>2026-05-02T12:07:48.171Z</time></trkpt><trkpt lat="44.2725797" lon="8.1868868"><ele>846.0</ele><time>2026-05-02T12:07:50.165Z</time></trkpt><trkpt lat="44.2724897" lon="8.1869369"><ele>846.0</ele><time>2026-05-02T12:07:52.155Z</time></trkpt><trkpt lat="44.272422" lon="8.1869266"><ele>846.0</ele><time>2026-05-02T12:07:53.161Z</time></trkpt><trkpt lat="44.2723396" lon="8.1869"><ele>846.0</ele><time>2026-05-02T12:07:54.169Z</time></trkpt><trkpt lat="44.2722466" lon="8.1868341"><ele>846.0</ele><time>2026-05-02T12:07:55.16Z</time></trkpt><trkpt lat="44.272147" lon="8.1867833"><ele>846.0</ele><time>2026-05-02T12:07:56.166Z</time></trkpt><trkpt lat="44.2720461" lon="8.1867333"><ele>844.0</ele><time>2026-05-02T12:07:57.165Z</time></trkpt><trkpt lat="44.271956" lon="8.1866763"><ele>842.0</ele><time>2026-05-02T12:07:58.159Z</time></trkpt><trkpt lat="44.2718742" lon="8.1865956"><ele>840.0</ele><time>2026-05-02T12:07:59.157Z</time></trkpt><trkpt lat="44.2718032" lon="8.1864982"><ele>838.0</ele><time>2026-05-02T12:08:00.154Z</time></trkpt><trkpt lat="44.2717346" lon="8.1863877"><ele>836.0</ele><time>2026-05-02T12:08:01.166Z</time></trkpt><trkpt lat="44.2716597" lon="8.186289"><ele>836.0</ele><time>2026-05-02T12:08:02.157Z</time></trkpt><trkpt lat="44.2715809" lon="8.1862035"><ele>836.0</ele><time>2026-05-02T12:08:03.156Z</time></trkpt><trkpt lat="44.2715146" lon="8.1861216"><ele>836.0</ele><time>2026-05-02T12:08:04.157Z</time></trkpt><trkpt lat="44.2714574" lon="8.1860248"><ele>836.0</ele><time>2026-05-02T12:08:05.17Z</time></trkpt><trkpt lat="44.2714253" lon="8.1859032"><ele>836.0</ele><time>2026-05-02T12:08:06.164Z</time></trkpt><trkpt lat="44.2714195" lon="8.1857706"><ele>832.1999999999999</ele><time>2026-05-02T12:08:07.165Z</time></trkpt><trkpt lat="44.2714251" lon="8.1856536"><ele>828.4</ele><time>2026-05-02T12:08:08.157Z</time></trkpt><trkpt lat="44.2714001" lon="8.1855163"><ele>824.6</ele><time>2026-05-02T12:08:10.153Z</time></trkpt><trkpt lat="44.2713219" lon="8.1856075"><ele>820.8</ele><time>2026-05-02T12:08:13.156Z</time></trkpt><trkpt lat="44.2713135" lon="8.1857809"><ele>817.0</ele><time>2026-05-02T12:08:15.155Z</time></trkpt><trkpt lat="44.2713153" lon="8.1858752"><ele>814.6666666666666</ele><time>2026-05-02T12:08:16.142Z</time></trkpt><trkpt lat="44.2713198" lon="8.1859722"><ele>812.3333333333333</ele><time>2026-05-02T12:08:17.148Z</time></trkpt><trkpt lat="44.2713298" lon="8.1860664"><ele>810.0</ele><time>2026-05-02T12:08:18.158Z</time></trkpt><trkpt lat="44.27134" lon="8.1861755"><ele>807.6666666666667</ele><time>2026-05-02T12:08:19.152Z</time></trkpt><trkpt lat="44.2713598" lon="8.1863006"><ele>805.3333333333334</ele><time>2026-05-02T12:08:20.157Z</time></trkpt><trkpt lat="44.2713937" lon="8.1864533"><ele>803.0</ele><time>2026-05-02T12:08:21.15Z</time></trkpt><trkpt lat="44.2714129" lon="8.1865888"><ele>802.3333333333334</ele><time>2026-05-02T12:08:22.141Z</time></trkpt><trkpt lat="44.2714017" lon="8.18671"><ele>801.6666666666667</ele><time>2026-05-02T12:08:23.143Z</time></trkpt><trkpt lat="44.2713468" lon="8.1868186"><ele>801.0</ele><time>2026-05-02T12:08:24.151Z</time></trkpt><trkpt lat="44.2712823" lon="8.1869025"><ele>800.3333333333333</ele><time>2026-05-02T12:08:25.164Z</time></trkpt><trkpt lat="44.2712304" lon="8.1869943"><ele>799.6666666666666</ele><time>2026-05-02T12:08:26.162Z</time></trkpt><trkpt lat="44.2711983" lon="8.1870923"><ele>799.0</ele><time>2026-05-02T12:08:27.171Z</time></trkpt><trkpt lat="44.2712016" lon="8.1871994"><ele>799.0</ele><time>2026-05-02T12:08:28.164Z</time></trkpt><trkpt lat="44.271237" lon="8.1873011"><ele>799.0</ele><time>2026-05-02T12:08:29.154Z</time></trkpt><trkpt lat="44.2712897" lon="8.1874058"><ele>799.0</ele><time>2026-05-02T12:08:30.144Z</time></trkpt><trkpt lat="44.2713491" lon="8.1875177"><ele>799.0</ele><time>2026-05-02T12:08:31.163Z</time></trkpt><trkpt lat="44.2714125" lon="8.1876351"><ele>799.0</ele><time>2026-05-02T12:08:32.152Z</time></trkpt><trkpt lat="44.2714895" lon="8.1877508"><ele>798.6666666666666</ele><time>2026-05-02T12:08:33.151Z</time></trkpt><trkpt lat="44.2715554" lon="8.1878469"><ele>798.3333333333333</ele><time>2026-05-02T12:08:34.163Z</time></trkpt><trkpt lat="44.2716172" lon="8.187908"><ele>798.0</ele><time>2026-05-02T12:08:35.152Z</time></trkpt><trkpt lat="44.2715722" lon="8.1880043"><ele>797.6666666666667</ele><time>2026-05-02T12:08:37.172Z</time></trkpt><trkpt lat="44.2714984" lon="8.1879869"><ele>797.3333333333334</ele><time>2026-05-02T12:08:38.155Z</time></trkpt><trkpt lat="44.2714137" lon="8.1879304"><ele>797.0</ele><time>2026-05-02T12:08:39.162Z</time></trkpt><trkpt lat="44.2713413" lon="8.1878526"><ele>797.0000000000001</ele><time>2026-05-02T12:08:40.156Z</time></trkpt><trkpt lat="44.2712771" lon="8.1877849"><ele>797.0</ele><time>2026-05-02T12:08:41.159Z</time></trkpt><trkpt lat="44.2711834" lon="8.1877596"><ele>797.0</ele><time>2026-05-02T12:08:43.151Z</time></trkpt><trkpt lat="44.2711471" lon="8.1878657"><ele>797.0</ele><time>2026-05-02T12:08:45.158Z</time></trkpt><trkpt lat="44.2711967" lon="8.1879645"><ele>797.0000000000001</ele><time>2026-05-02T12:08:46.146Z</time></trkpt><trkpt lat="44.2712576" lon="8.18805"><ele>797.0</ele><time>2026-05-02T12:08:47.147Z</time></trkpt><trkpt lat="44.2713213" lon="8.1881325"><ele>797.0000000000001</ele><time>2026-05-02T12:08:48.149Z</time></trkpt><trkpt lat="44.2713683" lon="8.1882135"><ele>797.0</ele><time>2026-05-02T12:08:49.16Z</time></trkpt><trkpt lat="44.2713697" lon="8.1883297"><ele>797.0</ele><time>2026-05-02T12:08:51.164Z</time></trkpt><trkpt lat="44.2712648" lon="8.1883026"><ele>797.0</ele><time>2026-05-02T12:08:53.156Z</time></trkpt><trkpt lat="44.2712111" lon="8.188241"><ele>797.0000000000001</ele><time>2026-05-02T12:08:54.162Z</time></trkpt><trkpt lat="44.2711435" lon="8.1881748"><ele>797.0</ele><time>2026-05-02T12:08:55.164Z</time></trkpt><trkpt lat="44.2710639" lon="8.1881098"><ele>797.0</ele><time>2026-05-02T12:08:56.167Z</time></trkpt><trkpt lat="44.2709744" lon="8.188055"><ele>797.0</ele><time>2026-05-02T12:08:57.167Z</time></trkpt><trkpt lat="44.2708792" lon="8.1880214"><ele>797.0</ele><time>2026-05-02T12:08:58.158Z</time></trkpt><trkpt lat="44.2707784" lon="8.1880014"><ele>797.0</ele><time>2026-05-02T12:08:59.151Z</time></trkpt><trkpt lat="44.2706819" lon="8.1879796"><ele>797.0</ele><time>2026-05-02T12:09:00.156Z</time></trkpt><trkpt lat="44.2706148" lon="8.1879508"><ele>791.8333333333334</ele><time>2026-05-02T12:09:01.166Z</time></trkpt><trkpt lat="44.2705469" lon="8.1879034"><ele>786.6666666666667</ele><time>2026-05-02T12:09:02.162Z</time></trkpt><trkpt lat="44.2704842" lon="8.1878505"><ele>781.5</ele><time>2026-05-02T12:09:03.165Z</time></trkpt><trkpt lat="44.270421" lon="8.1878032"><ele>776.3333333333334</ele><time>2026-05-02T12:09:04.165Z</time></trkpt><trkpt lat="44.2703636" lon="8.1877658"><ele>771.1666666666667</ele><time>2026-05-02T12:09:05.169Z</time></trkpt><trkpt lat="44.2702839" lon="8.1877733"><ele>766.0</ele><time>2026-05-02T12:09:07.171Z</time></trkpt><trkpt lat="44.2703116" lon="8.1878929"><ele>766.0</ele><time>2026-05-02T12:09:09.139Z</time></trkpt><trkpt lat="44.2703519" lon="8.1879881"><ele>766.0</ele><time>2026-05-02T12:09:10.152Z</time></trkpt><trkpt lat="44.2704151" lon="8.1880818"><ele>766.0</ele><time>2026-05-02T12:09:11.153Z</time></trkpt><trkpt lat="44.2704683" lon="8.1881819"><ele>766.0</ele><time>2026-05-02T12:09:12.146Z</time></trkpt><trkpt lat="44.2705607" lon="8.1882736"><ele>766.0</ele><time>2026-05-02T12:09:13.146Z</time></trkpt><trkpt lat="44.2706655" lon="8.1883626"><ele>768.4</ele><time>2026-05-02T12:09:14.145Z</time></trkpt><trkpt lat="44.270761" lon="8.188445"><ele>770.8</ele><time>2026-05-02T12:09:15.148Z</time></trkpt><trkpt lat="44.2708419" lon="8.1885246"><ele>773.1999999999999</ele><time>2026-05-02T12:09:16.145Z</time></trkpt><trkpt lat="44.2708895" lon="8.1886122"><ele>775.5999999999999</ele><time>2026-05-02T12:09:17.143Z</time></trkpt><trkpt lat="44.2709358" lon="8.1887045"><ele>778.0</ele><time>2026-05-02T12:09:18.134Z</time></trkpt><trkpt lat="44.2709718" lon="8.1888061"><ele>778.0</ele><time>2026-05-02T12:09:19.131Z</time></trkpt><trkpt lat="44.2709862" lon="8.1889207"><ele>778.0</ele><time>2026-05-02T12:09:20.142Z</time></trkpt><trkpt lat="44.2709911" lon="8.1890233"><ele>778.0</ele><time>2026-05-02T12:09:21.155Z</time></trkpt><trkpt lat="44.2709397" lon="8.1891379"><ele>778.0</ele><time>2026-05-02T12:09:23.159Z</time></trkpt><trkpt lat="44.2708528" lon="8.1890915"><ele>778.0</ele><time>2026-05-02T12:09:25.16Z</time></trkpt><trkpt lat="44.2707889" lon="8.1889503"><ele>777.9999999999999</ele><time>2026-05-02T12:09:27.163Z</time></trkpt><trkpt lat="44.2706862" lon="8.1888509"><ele>778.0</ele><time>2026-05-02T12:09:29.15Z</time></trkpt><trkpt lat="44.2706256" lon="8.1887897"><ele>778.0</ele><time>2026-05-02T12:09:30.156Z</time></trkpt><trkpt lat="44.2705656" lon="8.1887257"><ele>778.0</ele><time>2026-05-02T12:09:31.154Z</time></trkpt><trkpt lat="44.2705119" lon="8.1886489"><ele>777.9999999999999</ele><time>2026-05-02T12:09:32.155Z</time></trkpt><trkpt lat="44.2704583" lon="8.1885693"><ele>778.0</ele><time>2026-05-02T12:09:33.151Z</time></trkpt><trkpt lat="44.2703951" lon="8.1884802"><ele>774.1666666666666</ele><time>2026-05-02T12:09:34.155Z</time></trkpt><trkpt lat="44.2703292" lon="8.1884196"><ele>770.3333333333333</ele><time>2026-05-02T12:09:35.148Z</time></trkpt><trkpt lat="44.2702651" lon="8.1883936"><ele>766.5</ele><time>2026-05-02T12:09:36.139Z</time></trkpt><trkpt lat="44.2701919" lon="8.1883669"><ele>762.6666666666666</ele><time>2026-05-02T12:09:37.144Z</time></trkpt><trkpt lat="44.2700999" lon="8.1883305"><ele>758.8333333333333</ele><time>2026-05-02T12:09:38.149Z</time></trkpt><trkpt lat="44.2700256" lon="8.1883117"><ele>755.0</ele><time>2026-05-02T12:09:39.142Z</time></trkpt><trkpt lat="44.2699424" lon="8.1882786"><ele>755.0</ele><time>2026-05-02T12:09:40.149Z</time></trkpt><trkpt lat="44.2698692" lon="8.1882644"><ele>755.0</ele><time>2026-05-02T12:09:41.15Z</time></trkpt><trkpt lat="44.2697856" lon="8.188271"><ele>755.0</ele><time>2026-05-02T12:09:43.156Z</time></trkpt><trkpt lat="44.2698513" lon="8.1884055"><ele>755.0</ele><time>2026-05-02T12:09:45.154Z</time></trkpt><trkpt lat="44.2699279" lon="8.1884971"><ele>755.0</ele><time>2026-05-02T12:09:46.156Z</time></trkpt><trkpt lat="44.2700169" lon="8.1885824"><ele>755.0</ele><time>2026-05-02T12:09:47.15Z</time></trkpt><trkpt lat="44.2701106" lon="8.1886813"><ele>755.0</ele><time>2026-05-02T12:09:48.15Z</time></trkpt><trkpt lat="44.2701899" lon="8.1887973"><ele>755.0</ele><time>2026-05-02T12:09:49.141Z</time></trkpt><trkpt lat="44.2702567" lon="8.1889254"><ele>755.0</ele><time>2026-05-02T12:09:50.153Z</time></trkpt><trkpt lat="44.2703173" lon="8.189073"><ele>751.0</ele><time>2026-05-02T12:09:51.14Z</time></trkpt><trkpt lat="44.2703673" lon="8.189209"><ele>747.0</ele><time>2026-05-02T12:09:52.141Z</time></trkpt><trkpt lat="44.2704185" lon="8.1893477"><ele>743.0</ele><time>2026-05-02T12:09:53.144Z</time></trkpt><trkpt lat="44.2704567" lon="8.1894717"><ele>739.0</ele><time>2026-05-02T12:09:54.147Z</time></trkpt><trkpt lat="44.2705184" lon="8.1895968"><ele>735.0</ele><time>2026-05-02T12:09:55.152Z</time></trkpt><trkpt lat="44.2705723" lon="8.1897238"><ele>735.6</ele><time>2026-05-02T12:09:56.15Z</time></trkpt><trkpt lat="44.2706206" lon="8.1898538"><ele>736.2</ele><time>2026-05-02T12:09:57.153Z</time></trkpt><trkpt lat="44.2706595" lon="8.1899805"><ele>736.8</ele><time>2026-05-02T12:09:58.15Z</time></trkpt><trkpt lat="44.2706988" lon="8.190106"><ele>737.4</ele><time>2026-05-02T12:09:59.155Z</time></trkpt><trkpt lat="44.2707333" lon="8.1902051"><ele>738.0</ele><time>2026-05-02T12:10:00.156Z</time></trkpt><trkpt lat="44.2707855" lon="8.1902881"><ele>738.0</ele><time>2026-05-02T12:10:01.144Z</time></trkpt><trkpt lat="44.2708399" lon="8.1903404"><ele>738.0</ele><time>2026-05-02T12:10:02.161Z</time></trkpt><trkpt lat="44.2709157" lon="8.1903606"><ele>738.0</ele><time>2026-05-02T12:10:03.162Z</time></trkpt><trkpt lat="44.2710354" lon="8.190435"><ele>738.0</ele><time>2026-05-02T12:10:05.157Z</time></trkpt><trkpt lat="44.2710834" lon="8.1905067"><ele>738.0</ele><time>2026-05-02T12:10:06.159Z</time></trkpt><trkpt lat="44.2711319" lon="8.1905783"><ele>738.0</ele><time>2026-05-02T12:10:07.151Z</time></trkpt><trkpt lat="44.2711777" lon="8.1906578"><ele>737.6666666666666</ele><time>2026-05-02T12:10:08.15Z</time></trkpt><trkpt lat="44.2712366" lon="8.1907403"><ele>737.3333333333334</ele><time>2026-05-02T12:10:09.152Z</time></trkpt><trkpt lat="44.2713016" lon="8.1908168"><ele>737.0</ele><time>2026-05-02T12:10:10.154Z</time></trkpt><trkpt lat="44.2713665" lon="8.190895"><ele>736.6666666666667</ele><time>2026-05-02T12:10:11.155Z</time></trkpt><trkpt lat="44.2714268" lon="8.1909889"><ele>736.3333333333334</ele><time>2026-05-02T12:10:12.15Z</time></trkpt><trkpt lat="44.2714845" lon="8.1910898"><ele>736.0</ele><time>2026-05-02T12:10:13.153Z</time></trkpt><trkpt lat="44.2715388" lon="8.1911934"><ele>736.0</ele><time>2026-05-02T12:10:14.15Z</time></trkpt><trkpt lat="44.2715958" lon="8.1912963"><ele>736.0</ele><time>2026-05-02T12:10:15.149Z</time></trkpt><trkpt lat="44.2716626" lon="8.1913891"><ele>736.0</ele><time>2026-05-02T12:10:16.15Z</time></trkpt><trkpt lat="44.2717319" lon="8.1914659"><ele>736.0</ele><time>2026-05-02T12:10:17.157Z</time></trkpt><trkpt lat="44.271804" lon="8.1915374"><ele>736.0</ele><time>2026-05-02T12:10:18.153Z</time></trkpt><trkpt lat="44.2718707" lon="8.1916244"><ele>732.8</ele><time>2026-05-02T12:10:19.153Z</time></trkpt><trkpt lat="44.2719109" lon="8.1917296"><ele>729.5999999999999</ele><time>2026-05-02T12:10:20.158Z</time></trkpt><trkpt lat="44.2719353" lon="8.1918498"><ele>726.4</ele><time>2026-05-02T12:10:21.158Z</time></trkpt><trkpt lat="44.2719496" lon="8.1919799"><ele>723.2</ele><time>2026-05-02T12:10:22.157Z</time></trkpt><trkpt lat="44.2719552" lon="8.1921203"><ele>720.0</ele><time>2026-05-02T12:10:23.157Z</time></trkpt><trkpt lat="44.2719542" lon="8.1922554"><ele>718.6</ele><time>2026-05-02T12:10:24.149Z</time></trkpt><trkpt lat="44.2719441" lon="8.1923918"><ele>717.2</ele><time>2026-05-02T12:10:25.157Z</time></trkpt><trkpt lat="44.2719363" lon="8.1925306"><ele>715.8</ele><time>2026-05-02T12:10:26.163Z</time></trkpt><trkpt lat="44.2719375" lon="8.1926714"><ele>714.4</ele><time>2026-05-02T12:10:27.162Z</time></trkpt><trkpt lat="44.2719497" lon="8.192812"><ele>713.0</ele><time>2026-05-02T12:10:28.163Z</time></trkpt><trkpt lat="44.2719776" lon="8.1929473"><ele>713.0</ele><time>2026-05-02T12:10:29.153Z</time></trkpt><trkpt lat="44.2720083" lon="8.1930768"><ele>713.0</ele><time>2026-05-02T12:10:30.172Z</time></trkpt><trkpt lat="44.2720448" lon="8.1932037"><ele>713.0</ele><time>2026-05-02T12:10:31.169Z</time></trkpt><trkpt lat="44.2720843" lon="8.1933423"><ele>713.0</ele><time>2026-05-02T12:10:32.162Z</time></trkpt><trkpt lat="44.2721282" lon="8.1934766"><ele>713.0</ele><time>2026-05-02T12:10:33.149Z</time></trkpt><trkpt lat="44.2721737" lon="8.1936113"><ele>712.4</ele><time>2026-05-02T12:10:34.152Z</time></trkpt><trkpt lat="44.2722274" lon="8.1937385"><ele>711.8</ele><time>2026-05-02T12:10:35.155Z</time></trkpt><trkpt lat="44.2722842" lon="8.1938639"><ele>711.2</ele><time>2026-05-02T12:10:36.143Z</time></trkpt><trkpt lat="44.2723484" lon="8.1939896"><ele>710.6</ele><time>2026-05-02T12:10:37.144Z</time></trkpt><trkpt lat="44.2723977" lon="8.1941358"><ele>710.0</ele><time>2026-05-02T12:10:38.14Z</time></trkpt><trkpt lat="44.2724551" lon="8.1942747"><ele>710.0</ele><time>2026-05-02T12:10:39.138Z</time></trkpt><trkpt lat="44.2725138" lon="8.1944123"><ele>710.0</ele><time>2026-05-02T12:10:40.141Z</time></trkpt><trkpt lat="44.272568" lon="8.1945469"><ele>710.0</ele><time>2026-05-02T12:10:41.14Z</time></trkpt><trkpt lat="44.2726223" lon="8.1946759"><ele>710.0</ele><time>2026-05-02T12:10:42.14Z</time></trkpt><trkpt lat="44.2726767" lon="8.194792"><ele>710.0</ele><time>2026-05-02T12:10:43.147Z</time></trkpt><trkpt lat="44.2727415" lon="8.1948881"><ele>709.4</ele><time>2026-05-02T12:10:44.149Z</time></trkpt><trkpt lat="44.2728233" lon="8.1949688"><ele>708.8</ele><time>2026-05-02T12:10:45.15Z</time></trkpt><trkpt lat="44.2729187" lon="8.1950232"><ele>708.2</ele><time>2026-05-02T12:10:46.144Z</time></trkpt><trkpt lat="44.2730324" lon="8.1950327"><ele>707.6</ele><time>2026-05-02T12:10:47.152Z</time></trkpt><trkpt lat="44.2731459" lon="8.1950148"><ele>707.0</ele><time>2026-05-02T12:10:48.147Z</time></trkpt><trkpt lat="44.2732642" lon="8.1949855"><ele>705.25</ele><time>2026-05-02T12:10:49.148Z</time></trkpt><trkpt lat="44.273378" lon="8.1949624"><ele>703.5</ele><time>2026-05-02T12:10:50.143Z</time></trkpt><trkpt lat="44.2734794" lon="8.1949559"><ele>701.75</ele><time>2026-05-02T12:10:51.143Z</time></trkpt><trkpt lat="44.2736022" lon="8.1949811"><ele>700.0</ele><time>2026-05-02T12:10:52.143Z</time></trkpt><trkpt lat="44.2737281" lon="8.1950188"><ele>700.0</ele><time>2026-05-02T12:10:53.149Z</time></trkpt><trkpt lat="44.273866" lon="8.195045"><ele>700.0</ele><time>2026-05-02T12:10:54.149Z</time></trkpt><trkpt lat="44.2739914" lon="8.1950642"><ele>700.0</ele><time>2026-05-02T12:10:55.157Z</time></trkpt><trkpt lat="44.2741254" lon="8.1950939"><ele>700.0</ele><time>2026-05-02T12:10:56.152Z</time></trkpt><trkpt lat="44.2742591" lon="8.1951333"><ele>700.0</ele><time>2026-05-02T12:10:57.154Z</time></trkpt><trkpt lat="44.2743824" lon="8.1952028"><ele>700.0</ele><time>2026-05-02T12:10:58.159Z</time></trkpt><trkpt lat="44.2744934" lon="8.1953158"><ele>700.0</ele><time>2026-05-02T12:10:59.157Z</time></trkpt><trkpt lat="44.2745819" lon="8.1954547"><ele>700.0</ele><time>2026-05-02T12:11:00.16Z</time></trkpt><trkpt lat="44.2746521" lon="8.1956198"><ele>699.75</ele><time>2026-05-02T12:11:01.151Z</time></trkpt><trkpt lat="44.2747064" lon="8.1957975"><ele>699.5</ele><time>2026-05-02T12:11:02.147Z</time></trkpt><trkpt lat="44.2747486" lon="8.1959839"><ele>699.25</ele><time>2026-05-02T12:11:03.155Z</time></trkpt><trkpt lat="44.274791" lon="8.196167"><ele>699.0</ele><time>2026-05-02T12:11:04.158Z</time></trkpt><trkpt lat="44.2748389" lon="8.1963445"><ele>697.0</ele><time>2026-05-02T12:11:05.161Z</time></trkpt><trkpt lat="44.2748792" lon="8.1965074"><ele>695.0</ele><time>2026-05-02T12:11:06.158Z</time></trkpt><trkpt lat="44.2749229" lon="8.1966611"><ele>693.0</ele><time>2026-05-02T12:11:07.152Z</time></trkpt><trkpt lat="44.2749732" lon="8.1968044"><ele>691.0</ele><time>2026-05-02T12:11:08.159Z</time></trkpt><trkpt lat="44.2750278" lon="8.1969417"><ele>691.0</ele><time>2026-05-02T12:11:09.163Z</time></trkpt><trkpt lat="44.275071" lon="8.1970599"><ele>691.0</ele><time>2026-05-02T12:11:10.17Z</time></trkpt><trkpt lat="44.2751178" lon="8.1971587"><ele>691.0</ele><time>2026-05-02T12:11:11.164Z</time></trkpt><trkpt lat="44.2751665" lon="8.1972375"><ele>691.0</ele><time>2026-05-02T12:11:12.167Z</time></trkpt><trkpt lat="44.2752569" lon="8.1973613"><ele>691.0</ele><time>2026-05-02T12:11:14.169Z</time></trkpt><trkpt lat="44.275329" lon="8.1974709"><ele>689.8333333333334</ele><time>2026-05-02T12:11:16.161Z</time></trkpt><trkpt lat="44.2753796" lon="8.1975673"><ele>688.6666666666667</ele><time>2026-05-02T12:11:18.17Z</time></trkpt><trkpt lat="44.2753668" lon="8.1976763"><ele>687.5</ele><time>2026-05-02T12:11:20.169Z</time></trkpt><trkpt lat="44.2753473" lon="8.1978458"><ele>686.3333333333334</ele><time>2026-05-02T12:11:22.166Z</time></trkpt><trkpt lat="44.2753626" lon="8.197952"><ele>685.1666666666666</ele><time>2026-05-02T12:11:23.166Z</time></trkpt><trkpt lat="44.2753881" lon="8.1980643"><ele>684.0</ele><time>2026-05-02T12:11:24.157Z</time></trkpt><trkpt lat="44.2754268" lon="8.1981655"><ele>684.0</ele><time>2026-05-02T12:11:25.165Z</time></trkpt><trkpt lat="44.2754832" lon="8.1982588"><ele>684.0</ele><time>2026-05-02T12:11:26.165Z</time></trkpt><trkpt lat="44.2755487" lon="8.1983332"><ele>684.0</ele><time>2026-05-02T12:11:27.168Z</time></trkpt><trkpt lat="44.2756192" lon="8.1983974"><ele>684.0</ele><time>2026-05-02T12:11:28.162Z</time></trkpt><trkpt lat="44.275694" lon="8.198448"><ele>684.0</ele><time>2026-05-02T12:11:29.148Z</time></trkpt><trkpt lat="44.2757697" lon="8.1984888"><ele>684.0</ele><time>2026-05-02T12:11:30.154Z</time></trkpt><trkpt lat="44.275848" lon="8.198518"><ele>684.4000000000001</ele><time>2026-05-02T12:11:31.157Z</time></trkpt><trkpt lat="44.2759402" lon="8.198531"><ele>684.8</ele><time>2026-05-02T12:11:32.151Z</time></trkpt><trkpt lat="44.2760394" lon="8.1985288"><ele>685.2</ele><time>2026-05-02T12:11:33.144Z</time></trkpt><trkpt lat="44.2761426" lon="8.1985241"><ele>685.5999999999999</ele><time>2026-05-02T12:11:34.143Z</time></trkpt><trkpt lat="44.2762317" lon="8.1985026"><ele>686.0</ele><time>2026-05-02T12:11:35.15Z</time></trkpt><trkpt lat="44.2763273" lon="8.1984634"><ele>686.0</ele><time>2026-05-02T12:11:36.141Z</time></trkpt><trkpt lat="44.2764203" lon="8.1983891"><ele>686.0</ele><time>2026-05-02T12:11:37.137Z</time></trkpt><trkpt lat="44.2765048" lon="8.1982877"><ele>686.0</ele><time>2026-05-02T12:11:38.149Z</time></trkpt><trkpt lat="44.2765724" lon="8.1981766"><ele>686.0</ele><time>2026-05-02T12:11:39.157Z</time></trkpt><trkpt lat="44.2766323" lon="8.1980628"><ele>686.0</ele><time>2026-05-02T12:11:40.155Z</time></trkpt><trkpt lat="44.2766777" lon="8.1979465"><ele>684.1666666666666</ele><time>2026-05-02T12:11:41.163Z</time></trkpt><trkpt lat="44.2767148" lon="8.1978462"><ele>682.3333333333333</ele><time>2026-05-02T12:11:42.161Z</time></trkpt><trkpt lat="44.2767118" lon="8.1977454"><ele>680.5</ele><time>2026-05-02T12:12:43.173Z</time></trkpt><trkpt lat="44.276655" lon="8.1976053"><ele>678.6666666666666</ele><time>2026-05-02T12:12:46.166Z</time></trkpt><trkpt lat="44.2765986" lon="8.1975267"><ele>676.8333333333334</ele><time>2026-05-02T12:12:47.163Z</time></trkpt><trkpt lat="44.2765312" lon="8.1974372"><ele>675.0</ele><time>2026-05-02T12:12:48.17Z</time></trkpt><trkpt lat="44.2764669" lon="8.1973375"><ele>678.0</ele><time>2026-05-02T12:12:49.174Z</time></trkpt><trkpt lat="44.276408" lon="8.197235"><ele>681.0</ele><time>2026-05-02T12:12:50.172Z</time></trkpt><trkpt lat="44.2763467" lon="8.1971383"><ele>684.0</ele><time>2026-05-02T12:12:51.159Z</time></trkpt><trkpt lat="44.276309" lon="8.1970473"><ele>687.0</ele><time>2026-05-02T12:12:52.159Z</time></trkpt><trkpt lat="44.2762957" lon="8.1969544"><ele>690.0</ele><time>2026-05-02T12:12:53.156Z</time></trkpt><trkpt lat="44.2763756" lon="8.1968248"><ele>688.8</ele><time>2026-05-02T12:12:55.165Z</time></trkpt><trkpt lat="44.2764558" lon="8.1967799"><ele>687.6</ele><time>2026-05-02T12:12:56.156Z</time></trkpt><trkpt lat="44.2765279" lon="8.1967473"><ele>686.4000000000001</ele><time>2026-05-02T12:12:57.151Z</time></trkpt><trkpt lat="44.2766123" lon="8.1967165"><ele>685.2</ele><time>2026-05-02T12:12:58.16Z</time></trkpt><trkpt lat="44.2767079" lon="8.1967027"><ele>684.0</ele><time>2026-05-02T12:12:59.154Z</time></trkpt><trkpt lat="44.2768282" lon="8.1967223"><ele>684.0</ele><time>2026-05-02T12:13:00.15Z</time></trkpt><trkpt lat="44.2769564" lon="8.1967776"><ele>684.0</ele><time>2026-05-02T12:13:01.151Z</time></trkpt><trkpt lat="44.2770863" lon="8.1968423"><ele>684.0</ele><time>2026-05-02T12:13:02.141Z</time></trkpt><trkpt lat="44.2772234" lon="8.1969074"><ele>684.0</ele><time>2026-05-02T12:13:03.154Z</time></trkpt><trkpt lat="44.2773694" lon="8.1969659"><ele>687.0</ele><time>2026-05-02T12:13:04.153Z</time></trkpt><trkpt lat="44.2775185" lon="8.1970371"><ele>690.0</ele><time>2026-05-02T12:13:05.154Z</time></trkpt><trkpt lat="44.2776789" lon="8.1971195"><ele>693.0</ele><time>2026-05-02T12:13:06.155Z</time></trkpt><trkpt lat="44.2778411" lon="8.1972147"><ele>693.0</ele><time>2026-05-02T12:13:07.158Z</time></trkpt><trkpt lat="44.278005" lon="8.197316"><ele>693.0</ele><time>2026-05-02T12:13:08.161Z</time></trkpt><trkpt lat="44.2781527" lon="8.1974049"><ele>693.0</ele><time>2026-05-02T12:13:09.165Z</time></trkpt><trkpt lat="44.2783001" lon="8.1974703"><ele>685.3333333333334</ele><time>2026-05-02T12:13:10.169Z</time></trkpt><trkpt lat="44.2784593" lon="8.1975178"><ele>677.6666666666667</ele><time>2026-05-02T12:13:11.167Z</time></trkpt><trkpt lat="44.2786123" lon="8.1975445"><ele>670.0</ele><time>2026-05-02T12:13:12.164Z</time></trkpt><trkpt lat="44.2787616" lon="8.1975482"><ele>670.0</ele><time>2026-05-02T12:13:13.165Z</time></trkpt><trkpt lat="44.2789057" lon="8.1975274"><ele>670.0</ele><time>2026-05-02T12:13:14.174Z</time></trkpt><trkpt lat="44.2790637" lon="8.1975157"><ele>670.0</ele><time>2026-05-02T12:13:15.166Z</time></trkpt><trkpt lat="44.2792094" lon="8.1975041"><ele>670.0</ele><time>2026-05-02T12:13:16.172Z</time></trkpt><trkpt lat="44.2793468" lon="8.1974975"><ele>669.6666666666667</ele><time>2026-05-02T12:13:17.172Z</time></trkpt><trkpt lat="44.2794942" lon="8.1974955"><ele>669.3333333333334</ele><time>2026-05-02T12:13:18.168Z</time></trkpt><trkpt lat="44.2796466" lon="8.1975235"><ele>669.0</ele><time>2026-05-02T12:13:19.173Z</time></trkpt><trkpt lat="44.2798003" lon="8.1975687"><ele>669.0</ele><time>2026-05-02T12:13:20.167Z</time></trkpt><trkpt lat="44.2799404" lon="8.1976312"><ele>669.0</ele><time>2026-05-02T12:13:21.164Z</time></trkpt><trkpt lat="44.2800738" lon="8.1977075"><ele>669.0</ele><time>2026-05-02T12:13:22.165Z</time></trkpt><trkpt lat="44.2802072" lon="8.1978145"><ele>669.0</ele><time>2026-05-02T12:13:23.16Z</time></trkpt><trkpt lat="44.2803328" lon="8.1979482"><ele>669.0</ele><time>2026-05-02T12:13:24.164Z</time></trkpt><trkpt lat="44.2804257" lon="8.1981195"><ele>669.0</ele><time>2026-05-02T12:13:25.162Z</time></trkpt><trkpt lat="44.280478" lon="8.1983171"><ele>669.0</ele><time>2026-05-02T12:13:26.157Z</time></trkpt><trkpt lat="44.2804993" lon="8.198529"><ele>666.3333333333334</ele><time>2026-05-02T12:13:27.151Z</time></trkpt><trkpt lat="44.2804794" lon="8.1987428"><ele>663.6666666666667</ele><time>2026-05-02T12:13:28.151Z</time></trkpt><trkpt lat="44.2804463" lon="8.1989637"><ele>661.0</ele><time>2026-05-02T12:13:29.156Z</time></trkpt><trkpt lat="44.2803831" lon="8.1991701"><ele>661.0</ele><time>2026-05-02T12:13:30.158Z</time></trkpt><trkpt lat="44.2803454" lon="8.1993754"><ele>661.0</ele><time>2026-05-02T12:13:31.158Z</time></trkpt><trkpt lat="44.2803167" lon="8.1995788"><ele>661.0</ele><time>2026-05-02T12:13:32.153Z</time></trkpt><trkpt lat="44.280305" lon="8.1997616"><ele>661.0</ele><time>2026-05-02T12:13:33.16Z</time></trkpt><trkpt lat="44.2802904" lon="8.1999458"><ele>660.25</ele><time>2026-05-02T12:13:34.162Z</time></trkpt><trkpt lat="44.2803107" lon="8.2001216"><ele>659.5</ele><time>2026-05-02T12:13:35.167Z</time></trkpt><trkpt lat="44.2803461" lon="8.2002806"><ele>658.75</ele><time>2026-05-02T12:13:36.176Z</time></trkpt><trkpt lat="44.2804239" lon="8.2004313"><ele>658.0</ele><time>2026-05-02T12:13:37.164Z</time></trkpt><trkpt lat="44.2805226" lon="8.2005607"><ele>658.25</ele><time>2026-05-02T12:13:38.17Z</time></trkpt><trkpt lat="44.2806215" lon="8.2006636"><ele>658.5</ele><time>2026-05-02T12:13:39.165Z</time></trkpt><trkpt lat="44.2807385" lon="8.2007595"><ele>658.75</ele><time>2026-05-02T12:13:40.164Z</time></trkpt><trkpt lat="44.2808535" lon="8.2008601"><ele>659.0</ele><time>2026-05-02T12:13:41.166Z</time></trkpt><trkpt lat="44.2809709" lon="8.2009677"><ele>659.0</ele><time>2026-05-02T12:13:42.161Z</time></trkpt><trkpt lat="44.2810905" lon="8.2010718"><ele>659.0</ele><time>2026-05-02T12:13:43.178Z</time></trkpt><trkpt lat="44.2812027" lon="8.2011832"><ele>659.0</ele><time>2026-05-02T12:13:44.177Z</time></trkpt><trkpt lat="44.2813051" lon="8.2012979"><ele>659.0</ele><time>2026-05-02T12:13:45.184Z</time></trkpt><trkpt lat="44.2814089" lon="8.2014116"><ele>658.75</ele><time>2026-05-02T12:13:46.176Z</time></trkpt><trkpt lat="44.2815231" lon="8.2015199"><ele>658.5</ele><time>2026-05-02T12:13:47.176Z</time></trkpt><trkpt lat="44.2816456" lon="8.2016314"><ele>658.25</ele><time>2026-05-02T12:13:48.173Z</time></trkpt><trkpt lat="44.2817725" lon="8.2017268"><ele>658.0</ele><time>2026-05-02T12:13:49.174Z</time></trkpt><trkpt lat="44.2819064" lon="8.2018118"><ele>658.0</ele><time>2026-05-02T12:13:50.171Z</time></trkpt><trkpt lat="44.2820638" lon="8.2018894"><ele>658.0</ele><time>2026-05-02T12:13:51.162Z</time></trkpt><trkpt lat="44.2822335" lon="8.2019567"><ele>658.0</ele><time>2026-05-02T12:13:52.169Z</time></trkpt><trkpt lat="44.2823988" lon="8.2020376"><ele>659.0</ele><time>2026-05-02T12:13:53.164Z</time></trkpt><trkpt lat="44.2825509" lon="8.2021257"><ele>660.0</ele><time>2026-05-02T12:13:54.165Z</time></trkpt><trkpt lat="44.2826986" lon="8.2021919"><ele>661.0</ele><time>2026-05-02T12:13:55.165Z</time></trkpt><trkpt lat="44.2828473" lon="8.2022562"><ele>658.6666666666667</ele><time>2026-05-02T12:13:56.162Z</time></trkpt><trkpt lat="44.2829817" lon="8.2023376"><ele>656.3333333333334</ele><time>2026-05-02T12:13:57.162Z</time></trkpt><trkpt lat="44.2831115" lon="8.2024407"><ele>654.0</ele><time>2026-05-02T12:13:58.157Z</time></trkpt><trkpt lat="44.2832493" lon="8.2025514"><ele>654.0</ele><time>2026-05-02T12:13:59.167Z</time></trkpt><trkpt lat="44.2833765" lon="8.2026569"><ele>654.0</ele><time>2026-05-02T12:14:00.168Z</time></trkpt><trkpt lat="44.2835033" lon="8.2027774"><ele>654.0</ele><time>2026-05-02T12:14:01.17Z</time></trkpt><trkpt lat="44.2836334" lon="8.2028886"><ele>654.0</ele><time>2026-05-02T12:14:02.156Z</time></trkpt><trkpt lat="44.2837747" lon="8.2029586"><ele>654.0</ele><time>2026-05-02T12:14:03.16Z</time></trkpt><trkpt lat="44.2839146" lon="8.2029982"><ele>654.0</ele><time>2026-05-02T12:14:04.158Z</time></trkpt><trkpt lat="44.284055" lon="8.2030145"><ele>654.0</ele><time>2026-05-02T12:14:05.16Z</time></trkpt><trkpt lat="44.2841867" lon="8.2030163"><ele>654.5</ele><time>2026-05-02T12:14:06.162Z</time></trkpt><trkpt lat="44.2843096" lon="8.2029983"><ele>655.0</ele><time>2026-05-02T12:14:07.165Z</time></trkpt><trkpt lat="44.2844341" lon="8.2029877"><ele>655.5</ele><time>2026-05-02T12:14:08.169Z</time></trkpt><trkpt lat="44.2845494" lon="8.2029731"><ele>656.0</ele><time>2026-05-02T12:14:09.171Z</time></trkpt><trkpt lat="44.2846681" lon="8.2029856"><ele>656.0</ele><time>2026-05-02T12:14:10.173Z</time></trkpt><trkpt lat="44.2847698" lon="8.2030291"><ele>656.0</ele><time>2026-05-02T12:14:11.17Z</time></trkpt><trkpt lat="44.2848439" lon="8.2031049"><ele>656.0</ele><time>2026-05-02T12:14:12.167Z</time></trkpt><trkpt lat="44.284928" lon="8.2032011"><ele>656.0</ele><time>2026-05-02T12:14:13.167Z</time></trkpt><trkpt lat="44.2849934" lon="8.2033156"><ele>656.0</ele><time>2026-05-02T12:14:14.17Z</time></trkpt><trkpt lat="44.2850384" lon="8.2034493"><ele>653.5999999999999</ele><time>2026-05-02T12:14:15.167Z</time></trkpt><trkpt lat="44.2850789" lon="8.2035907"><ele>651.2</ele><time>2026-05-02T12:14:16.168Z</time></trkpt><trkpt lat="44.2851156" lon="8.2037356"><ele>648.8</ele><time>2026-05-02T12:14:17.173Z</time></trkpt><trkpt lat="44.2851579" lon="8.2038831"><ele>646.4000000000001</ele><time>2026-05-02T12:14:18.18Z</time></trkpt><trkpt lat="44.2852027" lon="8.2040292"><ele>644.0</ele><time>2026-05-02T12:14:19.171Z</time></trkpt><trkpt lat="44.2852576" lon="8.2041625"><ele>644.0</ele><time>2026-05-02T12:14:20.176Z</time></trkpt><trkpt lat="44.2853266" lon="8.2042687"><ele>644.0</ele><time>2026-05-02T12:14:21.175Z</time></trkpt><trkpt lat="44.2854073" lon="8.2043432"><ele>644.0</ele><time>2026-05-02T12:14:22.176Z</time></trkpt><trkpt lat="44.2855035" lon="8.2043743"><ele>644.0</ele><time>2026-05-02T12:14:23.178Z</time></trkpt><trkpt lat="44.2856252" lon="8.2043552"><ele>644.0</ele><time>2026-05-02T12:14:24.176Z</time></trkpt><trkpt lat="44.2857628" lon="8.2043088"><ele>644.75</ele><time>2026-05-02T12:14:25.16Z</time></trkpt><trkpt lat="44.2858942" lon="8.2042643"><ele>645.5</ele><time>2026-05-02T12:14:26.166Z</time></trkpt><trkpt lat="44.286026" lon="8.2042228"><ele>646.25</ele><time>2026-05-02T12:14:27.157Z</time></trkpt><trkpt lat="44.2861558" lon="8.2041861"><ele>647.0</ele><time>2026-05-02T12:14:28.158Z</time></trkpt><trkpt lat="44.2862828" lon="8.2041568"><ele>647.0</ele><time>2026-05-02T12:14:29.161Z</time></trkpt><trkpt lat="44.2864165" lon="8.2041307"><ele>647.0</ele><time>2026-05-02T12:14:30.163Z</time></trkpt><trkpt lat="44.2865488" lon="8.2041103"><ele>647.0</ele><time>2026-05-02T12:14:31.162Z</time></trkpt><trkpt lat="44.2866847" lon="8.2040872"><ele>647.0</ele><time>2026-05-02T12:14:32.158Z</time></trkpt><trkpt lat="44.2868259" lon="8.2040661"><ele>644.6666666666666</ele><time>2026-05-02T12:14:33.163Z</time></trkpt><trkpt lat="44.2869623" lon="8.2040282"><ele>642.3333333333334</ele><time>2026-05-02T12:14:34.157Z</time></trkpt><trkpt lat="44.2871127" lon="8.2039493"><ele>640.0</ele><time>2026-05-02T12:14:35.161Z</time></trkpt><trkpt lat="44.2872224" lon="8.2037968"><ele>641.25</ele><time>2026-05-02T12:14:36.154Z</time></trkpt><trkpt lat="44.2873128" lon="8.2036501"><ele>642.5</ele><time>2026-05-02T12:14:37.157Z</time></trkpt><trkpt lat="44.28742" lon="8.203538"><ele>643.75</ele><time>2026-05-02T12:14:38.157Z</time></trkpt><trkpt lat="44.287531" lon="8.2034365"><ele>645.0</ele><time>2026-05-02T12:14:39.147Z</time></trkpt><trkpt lat="44.2876482" lon="8.2033825"><ele>645.0</ele><time>2026-05-02T12:14:40.146Z</time></trkpt><trkpt lat="44.2877728" lon="8.2033452"><ele>645.0</ele><time>2026-05-02T12:14:41.144Z</time></trkpt><trkpt lat="44.287904" lon="8.2033111"><ele>645.0</ele><time>2026-05-02T12:14:42.15Z</time></trkpt><trkpt lat="44.288047" lon="8.2032992"><ele>645.0</ele><time>2026-05-02T12:14:43.147Z</time></trkpt><trkpt lat="44.2881994" lon="8.2032988"><ele>645.75</ele><time>2026-05-02T12:14:44.15Z</time></trkpt><trkpt lat="44.2883556" lon="8.2032641"><ele>646.5</ele><time>2026-05-02T12:14:45.153Z</time></trkpt><trkpt lat="44.2884882" lon="8.2031992"><ele>647.25</ele><time>2026-05-02T12:14:46.149Z</time></trkpt><trkpt lat="44.2886145" lon="8.2031092"><ele>648.0</ele><time>2026-05-02T12:14:47.152Z</time></trkpt><trkpt lat="44.2887228" lon="8.203034"><ele>646.8</ele><time>2026-05-02T12:14:48.154Z</time></trkpt><trkpt lat="44.2888151" lon="8.2029641"><ele>645.5999999999999</ele><time>2026-05-02T12:14:49.154Z</time></trkpt><trkpt lat="44.2889029" lon="8.2028881"><ele>644.4000000000001</ele><time>2026-05-02T12:14:50.154Z</time></trkpt><trkpt lat="44.2889819" lon="8.2027976"><ele>643.2</ele><time>2026-05-02T12:14:51.16Z</time></trkpt><trkpt lat="44.289064" lon="8.2026977"><ele>642.0</ele><time>2026-05-02T12:14:52.162Z</time></trkpt><trkpt lat="44.2891484" lon="8.2025815"><ele>642.0</ele><time>2026-05-02T12:14:53.164Z</time></trkpt><trkpt lat="44.2892469" lon="8.2024662"><ele>642.0</ele><time>2026-05-02T12:14:54.162Z</time></trkpt><trkpt lat="44.2893557" lon="8.2023671"><ele>642.0</ele><time>2026-05-02T12:14:55.16Z</time></trkpt><trkpt lat="44.2894682" lon="8.2022807"><ele>642.0</ele><time>2026-05-02T12:14:56.159Z</time></trkpt><trkpt lat="44.2895847" lon="8.202214"><ele>640.5</ele><time>2026-05-02T12:14:57.158Z</time></trkpt><trkpt lat="44.2897015" lon="8.2021599"><ele>639.0</ele><time>2026-05-02T12:14:58.161Z</time></trkpt><trkpt lat="44.2898224" lon="8.2021102"><ele>637.5</ele><time>2026-05-02T12:14:59.167Z</time></trkpt><trkpt lat="44.28993" lon="8.20206"><ele>636.0</ele><time>2026-05-02T12:15:00.151Z</time></trkpt><trkpt lat="44.2900418" lon="8.2020225"><ele>636.0</ele><time>2026-05-02T12:15:01.157Z</time></trkpt><trkpt lat="44.2901481" lon="8.2019876"><ele>636.0</ele><time>2026-05-02T12:15:02.15Z</time></trkpt><trkpt lat="44.2902488" lon="8.2019535"><ele>636.0</ele><time>2026-05-02T12:15:03.151Z</time></trkpt><trkpt lat="44.2903396" lon="8.2019253"><ele>636.0</ele><time>2026-05-02T12:15:04.153Z</time></trkpt><trkpt lat="44.2904287" lon="8.2019032"><ele>636.0</ele><time>2026-05-02T12:15:05.15Z</time></trkpt><trkpt lat="44.2904941" lon="8.201881"><ele>636.0</ele><time>2026-05-02T12:15:06.154Z</time></trkpt><trkpt lat="44.2905461" lon="8.2018059"><ele>636.0</ele><time>2026-05-02T12:15:12.166Z</time></trkpt><trkpt lat="44.2906149" lon="8.2017937"><ele>636.0</ele><time>2026-05-02T12:15:18.175Z</time></trkpt><trkpt lat="44.2906826" lon="8.201777"><ele>636.0</ele><time>2026-05-02T12:15:20.169Z</time></trkpt><trkpt lat="44.2907531" lon="8.2017305"><ele>636.0</ele><time>2026-05-02T12:15:22.151Z</time></trkpt><trkpt lat="44.290662" lon="8.2017755"><ele>636.0</ele><time>2026-05-02T12:15:27.148Z</time></trkpt><trkpt lat="44.2906479" lon="8.2016784"><ele>636.0</ele><time>2026-05-02T12:17:17.163Z</time></trkpt><trkpt lat="44.2907123" lon="8.2016889"><ele>636.0</ele><time>2026-05-02T12:17:34.168Z</time></trkpt><trkpt lat="44.290675" lon="8.2017778"><ele>636.0</ele><time>2026-05-02T12:17:51.167Z</time></trkpt><trkpt lat="44.2905992" lon="8.2018149"><ele>636.0</ele><time>2026-05-02T12:17:55.153Z</time></trkpt><trkpt lat="44.2905188" lon="8.2017727"><ele>636.0</ele><time>2026-05-02T12:19:01.17Z</time></trkpt><trkpt lat="44.2905199" lon="8.2018692"><ele>636.0</ele><time>2026-05-02T13:13:37.185Z</time></trkpt><trkpt lat="44.2904619" lon="8.201915"><ele>636.0</ele><time>2026-05-02T13:13:39.183Z</time></trkpt><trkpt lat="44.2903916" lon="8.2019499"><ele>636.0</ele><time>2026-05-02T13:13:41.187Z</time></trkpt><trkpt lat="44.2903197" lon="8.2019698"><ele>636.0</ele><time>2026-05-02T13:13:44.167Z</time></trkpt><trkpt lat="44.2902373" lon="8.2020189"><ele>636.0</ele><time>2026-05-02T13:15:12.187Z</time></trkpt><trkpt lat="44.2901698" lon="8.2020484"><ele>636.0</ele><time>2026-05-02T13:15:13.194Z</time></trkpt><trkpt lat="44.2900903" lon="8.2020806"><ele>636.0</ele><time>2026-05-02T13:15:14.182Z</time></trkpt><trkpt lat="44.2900064" lon="8.2021232"><ele>636.0</ele><time>2026-05-02T13:15:15.184Z</time></trkpt><trkpt lat="44.2899184" lon="8.2021668"><ele>636.0</ele><time>2026-05-02T13:15:16.182Z</time></trkpt><trkpt lat="44.2898296" lon="8.2022136"><ele>636.0</ele><time>2026-05-02T13:15:17.183Z</time></trkpt><trkpt lat="44.2897461" lon="8.2022584"><ele>636.0</ele><time>2026-05-02T13:15:18.174Z</time></trkpt><trkpt lat="44.2896638" lon="8.202295"><ele>636.0</ele><time>2026-05-02T13:15:19.177Z</time></trkpt><trkpt lat="44.2895844" lon="8.2023271"><ele>636.0</ele><time>2026-05-02T13:15:20.184Z</time></trkpt><trkpt lat="44.2895087" lon="8.2023597"><ele>636.0</ele><time>2026-05-02T13:15:21.186Z</time></trkpt><trkpt lat="44.289432" lon="8.2023949"><ele>637.0</ele><time>2026-05-02T13:15:22.185Z</time></trkpt><trkpt lat="44.2893518" lon="8.2024296"><ele>638.0</ele><time>2026-05-02T13:15:23.186Z</time></trkpt><trkpt lat="44.2892678" lon="8.20247"><ele>639.0</ele><time>2026-05-02T13:15:24.191Z</time></trkpt><trkpt lat="44.2891824" lon="8.2025125"><ele>640.0</ele><time>2026-05-02T13:15:25.196Z</time></trkpt><trkpt lat="44.2891046" lon="8.2025578"><ele>641.0</ele><time>2026-05-02T13:15:26.183Z</time></trkpt><trkpt lat="44.2890345" lon="8.2026106"><ele>642.0</ele><time>2026-05-02T13:15:27.19Z</time></trkpt><trkpt lat="44.288973" lon="8.2026743"><ele>640.5</ele><time>2026-05-02T13:15:28.186Z</time></trkpt><trkpt lat="44.2889126" lon="8.2027479"><ele>639.0</ele><time>2026-05-02T13:15:29.188Z</time></trkpt><trkpt lat="44.2888518" lon="8.2028222"><ele>637.5</ele><time>2026-05-02T13:15:30.19Z</time></trkpt><trkpt lat="44.2887921" lon="8.2028901"><ele>636.0</ele><time>2026-05-02T13:15:31.19Z</time></trkpt><trkpt lat="44.2887307" lon="8.2029535"><ele>634.5</ele><time>2026-05-02T13:15:32.189Z</time></trkpt><trkpt lat="44.2886694" lon="8.2030182"><ele>633.0</ele><time>2026-05-02T13:15:33.189Z</time></trkpt><trkpt lat="44.2886029" lon="8.2030867"><ele>633.0</ele><time>2026-05-02T13:15:34.188Z</time></trkpt><trkpt lat="44.2885316" lon="8.2031548"><ele>633.0</ele><time>2026-05-02T13:15:35.191Z</time></trkpt><trkpt lat="44.2884552" lon="8.203221"><ele>633.0</ele><time>2026-05-02T13:15:36.185Z</time></trkpt><trkpt lat="44.2883756" lon="8.2032876"><ele>633.0</ele><time>2026-05-02T13:15:37.187Z</time></trkpt><trkpt lat="44.2882945" lon="8.2033496"><ele>633.0</ele><time>2026-05-02T13:15:38.187Z</time></trkpt><trkpt lat="44.2882079" lon="8.2034052"><ele>635.4</ele><time>2026-05-02T13:15:39.187Z</time></trkpt><trkpt lat="44.2881182" lon="8.2034516"><ele>637.8</ele><time>2026-05-02T13:15:40.181Z</time></trkpt><trkpt lat="44.2880275" lon="8.203484"><ele>640.2</ele><time>2026-05-02T13:15:41.187Z</time></trkpt><trkpt lat="44.2879407" lon="8.2035078"><ele>642.6</ele><time>2026-05-02T13:15:42.187Z</time></trkpt><trkpt lat="44.2878487" lon="8.2035311"><ele>645.0</ele><time>2026-05-02T13:15:43.186Z</time></trkpt><trkpt lat="44.2877481" lon="8.2035474"><ele>645.0</ele><time>2026-05-02T13:15:44.185Z</time></trkpt><trkpt lat="44.2876419" lon="8.2035647"><ele>645.0</ele><time>2026-05-02T13:15:45.175Z</time></trkpt><trkpt lat="44.2875293" lon="8.2035867"><ele>645.0</ele><time>2026-05-02T13:15:46.175Z</time></trkpt><trkpt lat="44.2874166" lon="8.2036105"><ele>645.0</ele><time>2026-05-02T13:15:47.182Z</time></trkpt><trkpt lat="44.2873096" lon="8.2036419"><ele>645.0</ele><time>2026-05-02T13:15:48.175Z</time></trkpt><trkpt lat="44.2872085" lon="8.203689"><ele>644.0</ele><time>2026-05-02T13:15:49.174Z</time></trkpt><trkpt lat="44.287116" lon="8.2037592"><ele>643.0</ele><time>2026-05-02T13:15:50.176Z</time></trkpt><trkpt lat="44.2870328" lon="8.2038496"><ele>642.0</ele><time>2026-05-02T13:15:51.167Z</time></trkpt><trkpt lat="44.2869562" lon="8.2039413"><ele>641.0</ele><time>2026-05-02T13:15:52.171Z</time></trkpt><trkpt lat="44.2868773" lon="8.2040192"><ele>640.0</ele><time>2026-05-02T13:15:53.169Z</time></trkpt><trkpt lat="44.2867878" lon="8.2040767"><ele>641.4</ele><time>2026-05-02T13:15:54.176Z</time></trkpt><trkpt lat="44.2866901" lon="8.2041102"><ele>642.8</ele><time>2026-05-02T13:15:55.172Z</time></trkpt><trkpt lat="44.2865829" lon="8.2041274"><ele>644.2</ele><time>2026-05-02T13:15:56.18Z</time></trkpt><trkpt lat="44.2864746" lon="8.2041424"><ele>645.6</ele><time>2026-05-02T13:15:57.172Z</time></trkpt><trkpt lat="44.2863741" lon="8.2041539"><ele>647.0</ele><time>2026-05-02T13:15:58.182Z</time></trkpt><trkpt lat="44.2862834" lon="8.2041608"><ele>647.0</ele><time>2026-05-02T13:15:59.175Z</time></trkpt><trkpt lat="44.2861969" lon="8.2041667"><ele>647.0</ele><time>2026-05-02T13:16:00.175Z</time></trkpt><trkpt lat="44.2861189" lon="8.2041712"><ele>647.0</ele><time>2026-05-02T13:16:01.178Z</time></trkpt><trkpt lat="44.2860534" lon="8.2041707"><ele>647.0</ele><time>2026-05-02T13:16:02.168Z</time></trkpt><trkpt lat="44.2859518" lon="8.2041622"><ele>647.0</ele><time>2026-05-02T13:16:04.177Z</time></trkpt><trkpt lat="44.2858325" lon="8.2041887"><ele>647.0</ele><time>2026-05-02T13:16:06.181Z</time></trkpt><trkpt lat="44.2857577" lon="8.2042076"><ele>647.0</ele><time>2026-05-02T13:16:07.177Z</time></trkpt><trkpt lat="44.2856745" lon="8.2042326"><ele>647.0</ele><time>2026-05-02T13:16:08.18Z</time></trkpt><trkpt lat="44.2855792" lon="8.2042543"><ele>647.0</ele><time>2026-05-02T13:16:09.171Z</time></trkpt><trkpt lat="44.2854772" lon="8.2042716"><ele>647.0</ele><time>2026-05-02T13:16:10.179Z</time></trkpt><trkpt lat="44.2853756" lon="8.2042745"><ele>646.4000000000001</ele><time>2026-05-02T13:16:11.173Z</time></trkpt><trkpt lat="44.2852822" lon="8.204267"><ele>645.8000000000001</ele><time>2026-05-02T13:16:12.182Z</time></trkpt><trkpt lat="44.2851889" lon="8.2042243"><ele>645.2</ele><time>2026-05-02T13:16:13.185Z</time></trkpt><trkpt lat="44.2851093" lon="8.2041355"><ele>644.6</ele><time>2026-05-02T13:16:14.182Z</time></trkpt><trkpt lat="44.2850464" lon="8.204007"><ele>644.0</ele><time>2026-05-02T13:16:15.173Z</time></trkpt><trkpt lat="44.2849962" lon="8.2038578"><ele>643.75</ele><time>2026-05-02T13:16:16.179Z</time></trkpt><trkpt lat="44.2849522" lon="8.2037013"><ele>643.5</ele><time>2026-05-02T13:16:17.187Z</time></trkpt><trkpt lat="44.2849052" lon="8.2035382"><ele>643.25</ele><time>2026-05-02T13:16:18.184Z</time></trkpt><trkpt lat="44.2848539" lon="8.2033836"><ele>643.0</ele><time>2026-05-02T13:16:19.187Z</time></trkpt><trkpt lat="44.2848015" lon="8.2032331"><ele>646.25</ele><time>2026-05-02T13:16:20.181Z</time></trkpt><trkpt lat="44.2847462" lon="8.2030917"><ele>649.5</ele><time>2026-05-02T13:16:21.179Z</time></trkpt><trkpt lat="44.2846742" lon="8.2029632"><ele>652.75</ele><time>2026-05-02T13:16:22.171Z</time></trkpt><trkpt lat="44.2845958" lon="8.2028455"><ele>656.0</ele><time>2026-05-02T13:16:23.178Z</time></trkpt><trkpt lat="44.2845011" lon="8.2027667"><ele>656.0</ele><time>2026-05-02T13:16:24.175Z</time></trkpt><trkpt lat="44.2843844" lon="8.2027466"><ele>656.0</ele><time>2026-05-02T13:16:25.169Z</time></trkpt><trkpt lat="44.2842463" lon="8.202749"><ele>656.0</ele><time>2026-05-02T13:16:26.179Z</time></trkpt><trkpt lat="44.2841008" lon="8.2027545"><ele>656.0</ele><time>2026-05-02T13:16:27.17Z</time></trkpt><trkpt lat="44.2839495" lon="8.2027569"><ele>655.3333333333333</ele><time>2026-05-02T13:16:28.157Z</time></trkpt><trkpt lat="44.2837948" lon="8.202744"><ele>654.6666666666666</ele><time>2026-05-02T13:16:29.164Z</time></trkpt><trkpt lat="44.2836268" lon="8.2027164"><ele>654.0</ele><time>2026-05-02T13:16:30.163Z</time></trkpt><trkpt lat="44.2834693" lon="8.2026393"><ele>654.0</ele><time>2026-05-02T13:16:31.175Z</time></trkpt><trkpt lat="44.2833311" lon="8.2025409"><ele>654.0</ele><time>2026-05-02T13:16:32.169Z</time></trkpt><trkpt lat="44.2831962" lon="8.2024411"><ele>654.0</ele><time>2026-05-02T13:16:33.174Z</time></trkpt><trkpt lat="44.2830608" lon="8.2023517"><ele>656.3333333333334</ele><time>2026-05-02T13:16:34.172Z</time></trkpt><trkpt lat="44.2829184" lon="8.2022705"><ele>658.6666666666667</ele><time>2026-05-02T13:16:35.177Z</time></trkpt><trkpt lat="44.2827744" lon="8.2021929"><ele>661.0</ele><time>2026-05-02T13:16:36.18Z</time></trkpt><trkpt lat="44.2826294" lon="8.2021204"><ele>661.0</ele><time>2026-05-02T13:16:37.177Z</time></trkpt><trkpt lat="44.2824812" lon="8.2020571"><ele>661.0</ele><time>2026-05-02T13:16:38.176Z</time></trkpt><trkpt lat="44.2823259" lon="8.2020036"><ele>661.0</ele><time>2026-05-02T13:16:39.175Z</time></trkpt><trkpt lat="44.2821699" lon="8.2019467"><ele>660.0</ele><time>2026-05-02T13:16:40.178Z</time></trkpt><trkpt lat="44.2820178" lon="8.2018921"><ele>659.0</ele><time>2026-05-02T13:16:41.177Z</time></trkpt><trkpt lat="44.2818672" lon="8.201816"><ele>658.0</ele><time>2026-05-02T13:16:42.175Z</time></trkpt><trkpt lat="44.2817232" lon="8.2017224"><ele>658.0</ele><time>2026-05-02T13:16:43.172Z</time></trkpt><trkpt lat="44.2815885" lon="8.2016105"><ele>658.0</ele><time>2026-05-02T13:16:44.177Z</time></trkpt><trkpt lat="44.2814457" lon="8.2014909"><ele>658.0</ele><time>2026-05-02T13:16:45.177Z</time></trkpt><trkpt lat="44.2813015" lon="8.2013531"><ele>658.3333333333334</ele><time>2026-05-02T13:16:46.178Z</time></trkpt><trkpt lat="44.2811628" lon="8.2012049"><ele>658.6666666666666</ele><time>2026-05-02T13:16:47.182Z</time></trkpt><trkpt lat="44.2810265" lon="8.2010682"><ele>659.0</ele><time>2026-05-02T13:16:48.181Z</time></trkpt><trkpt lat="44.2808891" lon="8.2009316"><ele>659.0</ele><time>2026-05-02T13:16:49.19Z</time></trkpt><trkpt lat="44.2807555" lon="8.2007987"><ele>659.0</ele><time>2026-05-02T13:16:50.185Z</time></trkpt><trkpt lat="44.2806301" lon="8.2006744"><ele>659.0</ele><time>2026-05-02T13:16:51.185Z</time></trkpt><trkpt lat="44.2805013" lon="8.2005523"><ele>658.75</ele><time>2026-05-02T13:16:52.184Z</time></trkpt><trkpt lat="44.2803868" lon="8.2004258"><ele>658.5</ele><time>2026-05-02T13:16:53.181Z</time></trkpt><trkpt lat="44.2803047" lon="8.2002787"><ele>658.25</ele><time>2026-05-02T13:16:54.173Z</time></trkpt><trkpt lat="44.2802519" lon="8.2001133"><ele>658.0</ele><time>2026-05-02T13:16:55.173Z</time></trkpt><trkpt lat="44.2802495" lon="8.1999236"><ele>659.0</ele><time>2026-05-02T13:16:56.173Z</time></trkpt><trkpt lat="44.2802733" lon="8.1996976"><ele>660.0</ele><time>2026-05-02T13:16:57.172Z</time></trkpt><trkpt lat="44.2803075" lon="8.1994727"><ele>661.0</ele><time>2026-05-02T13:16:58.171Z</time></trkpt><trkpt lat="44.2803538" lon="8.199253"><ele>661.0</ele><time>2026-05-02T13:16:59.17Z</time></trkpt><trkpt lat="44.2803915" lon="8.199024"><ele>661.0</ele><time>2026-05-02T13:17:00.167Z</time></trkpt><trkpt lat="44.2804279" lon="8.198791"><ele>661.0</ele><time>2026-05-02T13:17:01.174Z</time></trkpt><trkpt lat="44.2804528" lon="8.1985599"><ele>661.0</ele><time>2026-05-02T13:17:02.169Z</time></trkpt><trkpt lat="44.2804548" lon="8.1983272"><ele>661.0</ele><time>2026-05-02T13:17:03.165Z</time></trkpt><trkpt lat="44.2804133" lon="8.1981091"><ele>661.0</ele><time>2026-05-02T13:17:04.157Z</time></trkpt><trkpt lat="44.2803129" lon="8.1979147"><ele>663.6666666666667</ele><time>2026-05-02T13:17:05.149Z</time></trkpt><trkpt lat="44.2801993" lon="8.1977551"><ele>666.3333333333334</ele><time>2026-05-02T13:17:06.166Z</time></trkpt><trkpt lat="44.2800656" lon="8.1976505"><ele>669.0</ele><time>2026-05-02T13:17:07.158Z</time></trkpt><trkpt lat="44.2799193" lon="8.1975851"><ele>668.0</ele><time>2026-05-02T13:17:08.155Z</time></trkpt><trkpt lat="44.2797632" lon="8.1975303"><ele>667.0</ele><time>2026-05-02T13:17:09.163Z</time></trkpt><trkpt lat="44.2795918" lon="8.1974915"><ele>666.0</ele><time>2026-05-02T13:17:10.158Z</time></trkpt><trkpt lat="44.2794186" lon="8.1974613"><ele>666.0</ele><time>2026-05-02T13:17:11.158Z</time></trkpt><trkpt lat="44.2792415" lon="8.1974432"><ele>666.0</ele><time>2026-05-02T13:17:12.158Z</time></trkpt><trkpt lat="44.2790589" lon="8.197448"><ele>666.0</ele><time>2026-05-02T13:17:13.158Z</time></trkpt><trkpt lat="44.2788735" lon="8.1974621"><ele>667.3333333333334</ele><time>2026-05-02T13:17:14.155Z</time></trkpt><trkpt lat="44.278689" lon="8.1974898"><ele>668.6666666666667</ele><time>2026-05-02T13:17:15.163Z</time></trkpt><trkpt lat="44.2785054" lon="8.1975095"><ele>670.0</ele><time>2026-05-02T13:17:16.162Z</time></trkpt><trkpt lat="44.2783168" lon="8.1975032"><ele>670.0</ele><time>2026-05-02T13:17:17.171Z</time></trkpt><trkpt lat="44.2781383" lon="8.1974227"><ele>670.0</ele><time>2026-05-02T13:17:18.167Z</time></trkpt><trkpt lat="44.2779711" lon="8.1973266"><ele>670.0</ele><time>2026-05-02T13:17:19.167Z</time></trkpt><trkpt lat="44.2778028" lon="8.1972322"><ele>677.6666666666667</ele><time>2026-05-02T13:17:20.169Z</time></trkpt><trkpt lat="44.2776367" lon="8.1971437"><ele>685.3333333333334</ele><time>2026-05-02T13:17:21.165Z</time></trkpt><trkpt lat="44.2774681" lon="8.1970574"><ele>693.0</ele><time>2026-05-02T13:17:22.159Z</time></trkpt><trkpt lat="44.2772963" lon="8.1969938"><ele>690.0</ele><time>2026-05-02T13:17:23.154Z</time></trkpt><trkpt lat="44.2771249" lon="8.1969509"><ele>687.0</ele><time>2026-05-02T13:17:24.164Z</time></trkpt><trkpt lat="44.2769777" lon="8.1969019"><ele>684.0</ele><time>2026-05-02T13:17:25.158Z</time></trkpt><trkpt lat="44.2768455" lon="8.1968495"><ele>684.0</ele><time>2026-05-02T13:17:26.152Z</time></trkpt><trkpt lat="44.2767181" lon="8.1968286"><ele>684.0</ele><time>2026-05-02T13:17:27.15Z</time></trkpt><trkpt lat="44.2766062" lon="8.1968202"><ele>684.0</ele><time>2026-05-02T13:17:28.145Z</time></trkpt><trkpt lat="44.2764938" lon="8.196854"><ele>684.0</ele><time>2026-05-02T13:17:29.146Z</time></trkpt><trkpt lat="44.2764049" lon="8.1969162"><ele>684.2</ele><time>2026-05-02T13:17:30.148Z</time></trkpt><trkpt lat="44.2763293" lon="8.1970005"><ele>684.4000000000001</ele><time>2026-05-02T13:17:31.148Z</time></trkpt><trkpt lat="44.2762746" lon="8.1970744"><ele>684.6</ele><time>2026-05-02T13:17:32.156Z</time></trkpt><trkpt lat="44.2762068" lon="8.1972094"><ele>684.8</ele><time>2026-05-02T13:17:34.183Z</time></trkpt><trkpt lat="44.2762099" lon="8.197301"><ele>685.0</ele><time>2026-05-02T13:17:35.173Z</time></trkpt><trkpt lat="44.2762932" lon="8.1974726"><ele>685.0</ele><time>2026-05-02T13:17:37.173Z</time></trkpt><trkpt lat="44.2763688" lon="8.1975745"><ele>685.0</ele><time>2026-05-02T13:17:38.177Z</time></trkpt><trkpt lat="44.2764566" lon="8.1976611"><ele>685.0</ele><time>2026-05-02T13:17:39.187Z</time></trkpt><trkpt lat="44.2765605" lon="8.1977214"><ele>685.0</ele><time>2026-05-02T13:17:40.187Z</time></trkpt><trkpt lat="44.2766762" lon="8.1977294"><ele>685.0</ele><time>2026-05-02T13:17:41.182Z</time></trkpt><trkpt lat="44.2767946" lon="8.1977015"><ele>683.0</ele><time>2026-05-02T13:17:42.18Z</time></trkpt><trkpt lat="44.2769095" lon="8.1977003"><ele>681.0</ele><time>2026-05-02T13:17:43.19Z</time></trkpt><trkpt lat="44.2769972" lon="8.19776"><ele>679.0</ele><time>2026-05-02T13:17:44.189Z</time></trkpt><trkpt lat="44.2770741" lon="8.1978652"><ele>677.0</ele><time>2026-05-02T13:17:45.173Z</time></trkpt><trkpt lat="44.2771308" lon="8.1979971"><ele>675.0</ele><time>2026-05-02T13:17:46.167Z</time></trkpt><trkpt lat="44.2771978" lon="8.1981333"><ele>677.75</ele><time>2026-05-02T13:17:47.166Z</time></trkpt><trkpt lat="44.27727" lon="8.1982754"><ele>680.5</ele><time>2026-05-02T13:17:48.168Z</time></trkpt><trkpt lat="44.277348" lon="8.1984096"><ele>683.25</ele><time>2026-05-02T13:17:49.169Z</time></trkpt><trkpt lat="44.2774405" lon="8.1985252"><ele>686.0</ele><time>2026-05-02T13:17:50.175Z</time></trkpt><trkpt lat="44.2775546" lon="8.1986023"><ele>686.0</ele><time>2026-05-02T13:17:51.174Z</time></trkpt><trkpt lat="44.2776923" lon="8.1986236"><ele>686.0</ele><time>2026-05-02T13:17:52.177Z</time></trkpt><trkpt lat="44.2778421" lon="8.1985851"><ele>686.0</ele><time>2026-05-02T13:17:53.173Z</time></trkpt><trkpt lat="44.2779955" lon="8.1985162"><ele>684.75</ele><time>2026-05-02T13:17:54.176Z</time></trkpt><trkpt lat="44.2781386" lon="8.1984699"><ele>683.5</ele><time>2026-05-02T13:17:55.177Z</time></trkpt><trkpt lat="44.2782727" lon="8.1984591"><ele>682.25</ele><time>2026-05-02T13:17:56.18Z</time></trkpt><trkpt lat="44.2784086" lon="8.1984823"><ele>681.0</ele><time>2026-05-02T13:17:57.177Z</time></trkpt><trkpt lat="44.2785199" lon="8.1985723"><ele>681.0</ele><time>2026-05-02T13:17:58.183Z</time></trkpt><trkpt lat="44.2785958" lon="8.1986951"><ele>681.0</ele><time>2026-05-02T13:17:59.185Z</time></trkpt><trkpt lat="44.2786367" lon="8.1988243"><ele>681.0</ele><time>2026-05-02T13:18:00.165Z</time></trkpt><trkpt lat="44.2786662" lon="8.1989681"><ele>681.0</ele><time>2026-05-02T13:18:01.174Z</time></trkpt><trkpt lat="44.278688" lon="8.1991182"><ele>681.0</ele><time>2026-05-02T13:18:02.172Z</time></trkpt><trkpt lat="44.2787035" lon="8.1992848"><ele>687.75</ele><time>2026-05-02T13:18:03.178Z</time></trkpt><trkpt lat="44.2787054" lon="8.1994696"><ele>694.5</ele><time>2026-05-02T13:18:04.173Z</time></trkpt><trkpt lat="44.2786896" lon="8.1996613"><ele>701.25</ele><time>2026-05-02T13:18:05.168Z</time></trkpt><trkpt lat="44.2786687" lon="8.1998591"><ele>708.0</ele><time>2026-05-02T13:18:06.177Z</time></trkpt><trkpt lat="44.2786194" lon="8.2000662"><ele>711.6666666666666</ele><time>2026-05-02T13:18:07.177Z</time></trkpt><trkpt lat="44.2785448" lon="8.2002577"><ele>715.3333333333333</ele><time>2026-05-02T13:18:08.181Z</time></trkpt><trkpt lat="44.2784533" lon="8.2004283"><ele>719.0</ele><time>2026-05-02T13:18:09.177Z</time></trkpt><trkpt lat="44.2783563" lon="8.2005862"><ele>716.75</ele><time>2026-05-02T13:18:10.172Z</time></trkpt><trkpt lat="44.2782344" lon="8.2007194"><ele>714.5</ele><time>2026-05-02T13:18:11.172Z</time></trkpt><trkpt lat="44.2781128" lon="8.2008461"><ele>712.25</ele><time>2026-05-02T13:18:12.167Z</time></trkpt><trkpt lat="44.2780219" lon="8.200999"><ele>710.0</ele><time>2026-05-02T13:18:13.17Z</time></trkpt><trkpt lat="44.2779589" lon="8.201178"><ele>717.6666666666666</ele><time>2026-05-02T13:18:14.168Z</time></trkpt><trkpt lat="44.2779118" lon="8.2013806"><ele>725.3333333333334</ele><time>2026-05-02T13:18:15.164Z</time></trkpt><trkpt lat="44.2778626" lon="8.2015886"><ele>733.0</ele><time>2026-05-02T13:18:16.177Z</time></trkpt><trkpt lat="44.2778281" lon="8.2018105"><ele>733.0</ele><time>2026-05-02T13:18:17.178Z</time></trkpt><trkpt lat="44.2777944" lon="8.2020333"><ele>733.0</ele><time>2026-05-02T13:18:18.178Z</time></trkpt><trkpt lat="44.277765" lon="8.2022287"><ele>733.0</ele><time>2026-05-02T13:18:19.175Z</time></trkpt><trkpt lat="44.2777233" lon="8.2024068"><ele>733.0</ele><time>2026-05-02T13:18:20.17Z</time></trkpt><trkpt lat="44.2776489" lon="8.2025564"><ele>730.3333333333334</ele><time>2026-05-02T13:18:21.18Z</time></trkpt><trkpt lat="44.2775262" lon="8.2026823"><ele>727.6666666666666</ele><time>2026-05-02T13:18:22.181Z</time></trkpt><trkpt lat="44.2773821" lon="8.2027712"><ele>725.0</ele><time>2026-05-02T13:18:23.174Z</time></trkpt><trkpt lat="44.27723" lon="8.2028437"><ele>730.6666666666666</ele><time>2026-05-02T13:18:24.18Z</time></trkpt><trkpt lat="44.2770718" lon="8.2028944"><ele>736.3333333333334</ele><time>2026-05-02T13:18:25.174Z</time></trkpt><trkpt lat="44.276911" lon="8.2029244"><ele>742.0</ele><time>2026-05-02T13:18:26.183Z</time></trkpt><trkpt lat="44.2767462" lon="8.2029636"><ele>742.0</ele><time>2026-05-02T13:18:27.18Z</time></trkpt><trkpt lat="44.2766217" lon="8.2030664"><ele>742.0</ele><time>2026-05-02T13:18:28.173Z</time></trkpt><trkpt lat="44.2765268" lon="8.2032272"><ele>742.0</ele><time>2026-05-02T13:18:29.172Z</time></trkpt><trkpt lat="44.2764203" lon="8.2033712"><ele>742.0</ele><time>2026-05-02T13:18:30.178Z</time></trkpt><trkpt lat="44.2763011" lon="8.203499"><ele>742.5</ele><time>2026-05-02T13:18:31.175Z</time></trkpt><trkpt lat="44.2761653" lon="8.2036207"><ele>743.0</ele><time>2026-05-02T13:18:32.173Z</time></trkpt><trkpt lat="44.276034" lon="8.2037212"><ele>743.5</ele><time>2026-05-02T13:18:33.174Z</time></trkpt><trkpt lat="44.2759175" lon="8.2037926"><ele>744.0</ele><time>2026-05-02T13:18:34.169Z</time></trkpt><trkpt lat="44.2758382" lon="8.2038272"><ele>744.0</ele><time>2026-05-02T13:18:35.174Z</time></trkpt><trkpt lat="44.2757701" lon="8.2036783"><ele>744.0</ele><time>2026-05-02T13:18:37.176Z</time></trkpt><trkpt lat="44.2757952" lon="8.2035854"><ele>744.0</ele><time>2026-05-02T13:18:38.17Z</time></trkpt><trkpt lat="44.2758669" lon="8.2034937"><ele>744.0</ele><time>2026-05-02T13:18:39.179Z</time></trkpt><trkpt lat="44.2759905" lon="8.203404"><ele>744.0</ele><time>2026-05-02T13:18:40.173Z</time></trkpt><trkpt lat="44.276107" lon="8.2032958"><ele>744.0</ele><time>2026-05-02T13:18:41.172Z</time></trkpt><trkpt lat="44.2762178" lon="8.2031699"><ele>744.0</ele><time>2026-05-02T13:18:42.174Z</time></trkpt><trkpt lat="44.2763234" lon="8.2030209"><ele>744.0</ele><time>2026-05-02T13:18:43.178Z</time></trkpt><trkpt lat="44.2764293" lon="8.2028456"><ele>743.3333333333334</ele><time>2026-05-02T13:18:44.181Z</time></trkpt><trkpt lat="44.2765318" lon="8.2026296"><ele>742.6666666666667</ele><time>2026-05-02T13:18:45.171Z</time></trkpt><trkpt lat="44.2766499" lon="8.2024087"><ele>742.0</ele><time>2026-05-02T13:18:46.182Z</time></trkpt><trkpt lat="44.2767892" lon="8.2022268"><ele>745.5</ele><time>2026-05-02T13:18:47.181Z</time></trkpt><trkpt lat="44.2769164" lon="8.2020661"><ele>749.0</ele><time>2026-05-02T13:18:48.181Z</time></trkpt><trkpt lat="44.2770241" lon="8.2019102"><ele>752.5</ele><time>2026-05-02T13:18:49.186Z</time></trkpt><trkpt lat="44.2770869" lon="8.2017869"><ele>756.0</ele><time>2026-05-02T13:18:50.181Z</time></trkpt><trkpt lat="44.2771294" lon="8.2016815"><ele>756.0</ele><time>2026-05-02T13:18:51.182Z</time></trkpt><trkpt lat="44.2771053" lon="8.2015978"><ele>756.0</ele><time>2026-05-02T13:18:52.184Z</time></trkpt><trkpt lat="44.2769587" lon="8.2015853"><ele>756.0</ele><time>2026-05-02T13:18:54.182Z</time></trkpt><trkpt lat="44.2768666" lon="8.2016195"><ele>756.0</ele><time>2026-05-02T13:18:55.174Z</time></trkpt><trkpt lat="44.2767658" lon="8.2017019"><ele>756.0</ele><time>2026-05-02T13:18:56.175Z</time></trkpt><trkpt lat="44.2766647" lon="8.2018038"><ele>756.0</ele><time>2026-05-02T13:18:57.175Z</time></trkpt><trkpt lat="44.2765426" lon="8.2019005"><ele>756.0</ele><time>2026-05-02T13:18:58.174Z</time></trkpt><trkpt lat="44.2764097" lon="8.2019806"><ele>756.0</ele><time>2026-05-02T13:18:59.17Z</time></trkpt><trkpt lat="44.2762703" lon="8.2020542"><ele>756.0</ele><time>2026-05-02T13:19:00.168Z</time></trkpt><trkpt lat="44.2761261" lon="8.2021246"><ele>757.0</ele><time>2026-05-02T13:19:01.18Z</time></trkpt><trkpt lat="44.2759777" lon="8.2022234"><ele>758.0</ele><time>2026-05-02T13:19:02.167Z</time></trkpt><trkpt lat="44.2758204" lon="8.2023576"><ele>759.0</ele><time>2026-05-02T13:19:03.166Z</time></trkpt><trkpt lat="44.2756645" lon="8.2024757"><ele>761.0</ele><time>2026-05-02T13:19:04.168Z</time></trkpt><trkpt lat="44.275524" lon="8.2025955"><ele>763.0</ele><time>2026-05-02T13:19:05.165Z</time></trkpt><trkpt lat="44.275408" lon="8.2027034"><ele>765.0</ele><time>2026-05-02T13:19:06.164Z</time></trkpt><trkpt lat="44.2752875" lon="8.202763"><ele>767.0</ele><time>2026-05-02T13:19:07.169Z</time></trkpt><trkpt lat="44.2751557" lon="8.2027701"><ele>767.0</ele><time>2026-05-02T13:19:08.175Z</time></trkpt><trkpt lat="44.2750248" lon="8.2027107"><ele>767.0</ele><time>2026-05-02T13:19:09.176Z</time></trkpt><trkpt lat="44.2748931" lon="8.2026414"><ele>767.0</ele><time>2026-05-02T13:19:10.174Z</time></trkpt><trkpt lat="44.2747714" lon="8.2025741"><ele>767.0</ele><time>2026-05-02T13:19:11.167Z</time></trkpt><trkpt lat="44.2746582" lon="8.2025699"><ele>770.0</ele><time>2026-05-02T13:19:12.165Z</time></trkpt><trkpt lat="44.2745393" lon="8.2025973"><ele>773.0</ele><time>2026-05-02T13:19:13.162Z</time></trkpt><trkpt lat="44.2744215" lon="8.2026285"><ele>776.0</ele><time>2026-05-02T13:19:14.165Z</time></trkpt><trkpt lat="44.2743024" lon="8.2026777"><ele>779.0</ele><time>2026-05-02T13:19:15.16Z</time></trkpt><trkpt lat="44.2741827" lon="8.2027517"><ele>779.0</ele><time>2026-05-02T13:19:16.166Z</time></trkpt><trkpt lat="44.2740661" lon="8.2028566"><ele>779.0</ele><time>2026-05-02T13:19:17.166Z</time></trkpt><trkpt lat="44.2739644" lon="8.2029693"><ele>779.0</ele><time>2026-05-02T13:19:18.172Z</time></trkpt><trkpt lat="44.2738653" lon="8.2030833"><ele>779.0</ele><time>2026-05-02T13:19:19.17Z</time></trkpt><trkpt lat="44.273766" lon="8.2032084"><ele>781.75</ele><time>2026-05-02T13:19:20.175Z</time></trkpt><trkpt lat="44.2736612" lon="8.2033435"><ele>784.5</ele><time>2026-05-02T13:19:21.176Z</time></trkpt><trkpt lat="44.2735376" lon="8.2034515"><ele>787.25</ele><time>2026-05-02T13:19:22.173Z</time></trkpt><trkpt lat="44.2734036" lon="8.2035309"><ele>790.0</ele><time>2026-05-02T13:19:23.178Z</time></trkpt><trkpt lat="44.2732823" lon="8.2036297"><ele>790.0</ele><time>2026-05-02T13:19:24.169Z</time></trkpt><trkpt lat="44.2731884" lon="8.2037426"><ele>790.0</ele><time>2026-05-02T13:19:25.174Z</time></trkpt><trkpt lat="44.2731016" lon="8.2038565"><ele>790.0</ele><time>2026-05-02T13:19:26.168Z</time></trkpt><trkpt lat="44.2730059" lon="8.2039365"><ele>790.0</ele><time>2026-05-02T13:19:27.175Z</time></trkpt><trkpt lat="44.2728923" lon="8.2039873"><ele>790.0</ele><time>2026-05-02T13:19:28.166Z</time></trkpt><trkpt lat="44.2727729" lon="8.2040287"><ele>790.0</ele><time>2026-05-02T13:19:29.164Z</time></trkpt><trkpt lat="44.272677" lon="8.2040651"><ele>790.0</ele><time>2026-05-02T13:19:30.17Z</time></trkpt><trkpt lat="44.272607" lon="8.204093"><ele>790.0</ele><time>2026-05-02T13:19:31.17Z</time></trkpt><trkpt lat="44.2726035" lon="8.2039557"><ele>790.0</ele><time>2026-05-02T13:19:35.18Z</time></trkpt><trkpt lat="44.2726641" lon="8.2038751"><ele>793.0</ele><time>2026-05-02T13:19:36.163Z</time></trkpt><trkpt lat="44.2727419" lon="8.2037902"><ele>796.0</ele><time>2026-05-02T13:19:37.173Z</time></trkpt><trkpt lat="44.2728223" lon="8.2037128"><ele>799.0</ele><time>2026-05-02T13:19:38.17Z</time></trkpt><trkpt lat="44.2729113" lon="8.2036386"><ele>802.0</ele><time>2026-05-02T13:19:39.171Z</time></trkpt><trkpt lat="44.2729806" lon="8.2035587"><ele>805.0</ele><time>2026-05-02T13:19:40.172Z</time></trkpt><trkpt lat="44.2730229" lon="8.2034751"><ele>805.0</ele><time>2026-05-02T13:19:41.181Z</time></trkpt><trkpt lat="44.2730713" lon="8.2033791"><ele>805.0</ele><time>2026-05-02T13:19:43.177Z</time></trkpt><trkpt lat="44.2729282" lon="8.2033339"><ele>805.0</ele><time>2026-05-02T13:19:46.176Z</time></trkpt><trkpt lat="44.2728218" lon="8.2033599"><ele>805.0</ele><time>2026-05-02T13:19:47.162Z</time></trkpt><trkpt lat="44.2727108" lon="8.2033836"><ele>805.0</ele><time>2026-05-02T13:19:48.165Z</time></trkpt><trkpt lat="44.2725935" lon="8.2034133"><ele>805.0</ele><time>2026-05-02T13:19:49.174Z</time></trkpt><trkpt lat="44.2724718" lon="8.2034632"><ele>805.0</ele><time>2026-05-02T13:19:50.161Z</time></trkpt><trkpt lat="44.2723471" lon="8.203517"><ele>805.0</ele><time>2026-05-02T13:19:51.164Z</time></trkpt><trkpt lat="44.2722296" lon="8.2036044"><ele>805.5</ele><time>2026-05-02T13:19:52.158Z</time></trkpt><trkpt lat="44.2721138" lon="8.2037087"><ele>806.0</ele><time>2026-05-02T13:19:53.151Z</time></trkpt><trkpt lat="44.2720041" lon="8.2038298"><ele>806.5</ele><time>2026-05-02T13:19:54.154Z</time></trkpt><trkpt lat="44.2719132" lon="8.2039349"><ele>807.0</ele><time>2026-05-02T13:19:55.144Z</time></trkpt><trkpt lat="44.2717991" lon="8.2040509"><ele>807.0</ele><time>2026-05-02T13:19:56.154Z</time></trkpt><trkpt lat="44.2716831" lon="8.2041449"><ele>807.0</ele><time>2026-05-02T13:19:57.151Z</time></trkpt><trkpt lat="44.2715493" lon="8.2042152"><ele>807.0</ele><time>2026-05-02T13:19:58.159Z</time></trkpt><trkpt lat="44.2714129" lon="8.204269"><ele>807.0</ele><time>2026-05-02T13:19:59.155Z</time></trkpt><trkpt lat="44.2712719" lon="8.2043122"><ele>812.25</ele><time>2026-05-02T13:20:00.152Z</time></trkpt><trkpt lat="44.2711315" lon="8.2043691"><ele>817.5</ele><time>2026-05-02T13:20:01.153Z</time></trkpt><trkpt lat="44.270994" lon="8.2044474"><ele>822.75</ele><time>2026-05-02T13:20:02.157Z</time></trkpt><trkpt lat="44.270863" lon="8.2045469"><ele>828.0</ele><time>2026-05-02T13:20:03.164Z</time></trkpt><trkpt lat="44.2707448" lon="8.204665"><ele>828.0</ele><time>2026-05-02T13:20:04.162Z</time></trkpt><trkpt lat="44.2706474" lon="8.2048122"><ele>828.0</ele><time>2026-05-02T13:20:05.167Z</time></trkpt><trkpt lat="44.2705693" lon="8.2049949"><ele>828.0</ele><time>2026-05-02T13:20:06.173Z</time></trkpt><trkpt lat="44.2705085" lon="8.2051981"><ele>832.0</ele><time>2026-05-02T13:20:07.165Z</time></trkpt><trkpt lat="44.2704578" lon="8.2054251"><ele>836.0</ele><time>2026-05-02T13:20:08.165Z</time></trkpt><trkpt lat="44.2704314" lon="8.2056733"><ele>840.0</ele><time>2026-05-02T13:20:09.174Z</time></trkpt><trkpt lat="44.2704126" lon="8.2059336"><ele>840.0</ele><time>2026-05-02T13:20:10.174Z</time></trkpt><trkpt lat="44.2703918" lon="8.2061719"><ele>840.0</ele><time>2026-05-02T13:20:11.17Z</time></trkpt><trkpt lat="44.2703584" lon="8.2063857"><ele>840.0</ele><time>2026-05-02T13:20:12.175Z</time></trkpt><trkpt lat="44.2703267" lon="8.206596"><ele>838.3333333333333</ele><time>2026-05-02T13:20:13.173Z</time></trkpt><trkpt lat="44.2702848" lon="8.2068119"><ele>836.6666666666666</ele><time>2026-05-02T13:20:14.172Z</time></trkpt><trkpt lat="44.2702456" lon="8.207028"><ele>835.0</ele><time>2026-05-02T13:20:15.171Z</time></trkpt><trkpt lat="44.270204" lon="8.2072582"><ele>832.3333333333333</ele><time>2026-05-02T13:20:16.18Z</time></trkpt><trkpt lat="44.2701749" lon="8.2075079"><ele>829.6666666666667</ele><time>2026-05-02T13:20:17.181Z</time></trkpt><trkpt lat="44.2701383" lon="8.2077428"><ele>827.0</ele><time>2026-05-02T13:20:18.177Z</time></trkpt><trkpt lat="44.270115" lon="8.2079474"><ele>827.0</ele><time>2026-05-02T13:20:19.18Z</time></trkpt><trkpt lat="44.2700719" lon="8.2081413"><ele>827.0</ele><time>2026-05-02T13:20:20.177Z</time></trkpt><trkpt lat="44.2700033" lon="8.2083168"><ele>827.0</ele><time>2026-05-02T13:20:21.184Z</time></trkpt><trkpt lat="44.2699099" lon="8.2084865"><ele>827.0</ele><time>2026-05-02T13:20:22.181Z</time></trkpt><trkpt lat="44.2698391" lon="8.2086585"><ele>825.0</ele><time>2026-05-02T13:20:23.182Z</time></trkpt><trkpt lat="44.2698178" lon="8.2088192"><ele>823.0</ele><time>2026-05-02T13:20:24.183Z</time></trkpt><trkpt lat="44.2698422" lon="8.2090087"><ele>821.0</ele><time>2026-05-02T13:20:25.182Z</time></trkpt><trkpt lat="44.2698971" lon="8.2092036"><ele>819.0</ele><time>2026-05-02T13:20:26.178Z</time></trkpt><trkpt lat="44.269959" lon="8.2094061"><ele>818.5</ele><time>2026-05-02T13:20:27.187Z</time></trkpt><trkpt lat="44.2700118" lon="8.209615"><ele>818.0</ele><time>2026-05-02T13:20:28.178Z</time></trkpt><trkpt lat="44.2700602" lon="8.2098166"><ele>817.5</ele><time>2026-05-02T13:20:29.181Z</time></trkpt><trkpt lat="44.2700986" lon="8.2099977"><ele>817.0</ele><time>2026-05-02T13:20:30.18Z</time></trkpt><trkpt lat="44.2701554" lon="8.210148"><ele>817.0</ele><time>2026-05-02T13:20:31.184Z</time></trkpt><trkpt lat="44.2702201" lon="8.2102385"><ele>817.0</ele><time>2026-05-02T13:20:32.184Z</time></trkpt><trkpt lat="44.270319" lon="8.2102559"><ele>817.0</ele><time>2026-05-02T13:20:33.17Z</time></trkpt><trkpt lat="44.270442" lon="8.2102209"><ele>817.0</ele><time>2026-05-02T13:20:34.181Z</time></trkpt><trkpt lat="44.2705621" lon="8.2102363"><ele>817.0</ele><time>2026-05-02T13:20:35.169Z</time></trkpt><trkpt lat="44.2706609" lon="8.210332"><ele>813.75</ele><time>2026-05-02T13:20:36.186Z</time></trkpt><trkpt lat="44.2707542" lon="8.2104986"><ele>810.5</ele><time>2026-05-02T13:20:37.182Z</time></trkpt><trkpt lat="44.270812" lon="8.2106741"><ele>807.25</ele><time>2026-05-02T13:20:38.181Z</time></trkpt><trkpt lat="44.2708604" lon="8.2108329"><ele>804.0</ele><time>2026-05-02T13:20:39.184Z</time></trkpt><trkpt lat="44.2709137" lon="8.2109861"><ele>804.0</ele><time>2026-05-02T13:20:40.184Z</time></trkpt><trkpt lat="44.2709703" lon="8.2111279"><ele>804.0</ele><time>2026-05-02T13:20:41.18Z</time></trkpt><trkpt lat="44.2710219" lon="8.2112577"><ele>804.0</ele><time>2026-05-02T13:20:42.176Z</time></trkpt><trkpt lat="44.2710631" lon="8.2113783"><ele>804.0</ele><time>2026-05-02T13:20:43.18Z</time></trkpt><trkpt lat="44.2710941" lon="8.2114865"><ele>804.0</ele><time>2026-05-02T13:20:44.183Z</time></trkpt><trkpt lat="44.2710895" lon="8.2115773"><ele>804.4000000000001</ele><time>2026-05-02T13:20:45.173Z</time></trkpt><trkpt lat="44.2710639" lon="8.211664"><ele>804.8</ele><time>2026-05-02T13:20:46.183Z</time></trkpt><trkpt lat="44.2710056" lon="8.211749"><ele>805.2</ele><time>2026-05-02T13:20:47.175Z</time></trkpt><trkpt lat="44.2709284" lon="8.2118331"><ele>805.5999999999999</ele><time>2026-05-02T13:20:48.18Z</time></trkpt><trkpt lat="44.2708358" lon="8.2119123"><ele>806.0</ele><time>2026-05-02T13:20:49.173Z</time></trkpt><trkpt lat="44.270728" lon="8.2119898"><ele>806.0</ele><time>2026-05-02T13:20:50.174Z</time></trkpt><trkpt lat="44.2706108" lon="8.2120582"><ele>806.0</ele><time>2026-05-02T13:20:51.172Z</time></trkpt><trkpt lat="44.2704883" lon="8.2121206"><ele>806.0</ele><time>2026-05-02T13:20:52.168Z</time></trkpt><trkpt lat="44.2703631" lon="8.2121795"><ele>806.0</ele><time>2026-05-02T13:20:53.172Z</time></trkpt><trkpt lat="44.2702286" lon="8.2122343"><ele>806.75</ele><time>2026-05-02T13:20:54.177Z</time></trkpt><trkpt lat="44.2700856" lon="8.2122764"><ele>807.5</ele><time>2026-05-02T13:20:55.17Z</time></trkpt><trkpt lat="44.2699456" lon="8.2123218"><ele>808.25</ele><time>2026-05-02T13:20:56.166Z</time></trkpt><trkpt lat="44.2697996" lon="8.2123648"><ele>809.0</ele><time>2026-05-02T13:20:57.164Z</time></trkpt><trkpt lat="44.2696555" lon="8.2124072"><ele>810.5</ele><time>2026-05-02T13:20:58.162Z</time></trkpt><trkpt lat="44.2695151" lon="8.2124312"><ele>812.0</ele><time>2026-05-02T13:20:59.162Z</time></trkpt><trkpt lat="44.2693727" lon="8.2124435"><ele>813.5</ele><time>2026-05-02T13:21:00.163Z</time></trkpt><trkpt lat="44.2692316" lon="8.2124386"><ele>815.0</ele><time>2026-05-02T13:21:01.164Z</time></trkpt><trkpt lat="44.2690946" lon="8.2124049"><ele>815.0</ele><time>2026-05-02T13:21:02.163Z</time></trkpt><trkpt lat="44.268955" lon="8.2123731"><ele>815.0</ele><time>2026-05-02T13:21:03.16Z</time></trkpt><trkpt lat="44.2688026" lon="8.2123466"><ele>815.0</ele><time>2026-05-02T13:21:04.163Z</time></trkpt><trkpt lat="44.2686575" lon="8.2123796"><ele>815.0</ele><time>2026-05-02T13:21:05.155Z</time></trkpt><trkpt lat="44.2685178" lon="8.2124487"><ele>819.0</ele><time>2026-05-02T13:21:06.156Z</time></trkpt><trkpt lat="44.2683791" lon="8.2125491"><ele>823.0</ele><time>2026-05-02T13:21:07.158Z</time></trkpt><trkpt lat="44.2682366" lon="8.2126134"><ele>827.0</ele><time>2026-05-02T13:21:08.161Z</time></trkpt><trkpt lat="44.2680922" lon="8.2126409"><ele>828.3333333333334</ele><time>2026-05-02T13:21:09.172Z</time></trkpt><trkpt lat="44.26794" lon="8.2126204"><ele>829.6666666666667</ele><time>2026-05-02T13:21:10.169Z</time></trkpt><trkpt lat="44.2677758" lon="8.2125551"><ele>831.0</ele><time>2026-05-02T13:21:11.168Z</time></trkpt><trkpt lat="44.2676188" lon="8.2124517"><ele>831.0</ele><time>2026-05-02T13:21:12.174Z</time></trkpt><trkpt lat="44.2674509" lon="8.2123427"><ele>831.0</ele><time>2026-05-02T13:21:13.169Z</time></trkpt><trkpt lat="44.2672676" lon="8.2122266"><ele>831.0</ele><time>2026-05-02T13:21:14.169Z</time></trkpt><trkpt lat="44.267088" lon="8.2121103"><ele>835.0</ele><time>2026-05-02T13:21:15.165Z</time></trkpt><trkpt lat="44.2669124" lon="8.2120057"><ele>839.0</ele><time>2026-05-02T13:21:16.163Z</time></trkpt><trkpt lat="44.266741" lon="8.2118851"><ele>843.0</ele><time>2026-05-02T13:21:17.156Z</time></trkpt><trkpt lat="44.2665735" lon="8.2117937"><ele>844.3333333333333</ele><time>2026-05-02T13:21:18.164Z</time></trkpt><trkpt lat="44.2664312" lon="8.2116978"><ele>845.6666666666666</ele><time>2026-05-02T13:21:19.167Z</time></trkpt><trkpt lat="44.2663151" lon="8.2115815"><ele>847.0</ele><time>2026-05-02T13:21:20.17Z</time></trkpt><trkpt lat="44.2662352" lon="8.2114044"><ele>849.8</ele><time>2026-05-02T13:21:21.166Z</time></trkpt><trkpt lat="44.2661697" lon="8.2112175"><ele>852.6</ele><time>2026-05-02T13:21:22.169Z</time></trkpt><trkpt lat="44.266107" lon="8.2110716"><ele>855.3999999999999</ele><time>2026-05-02T13:21:23.168Z</time></trkpt><trkpt lat="44.2660374" lon="8.2110147"><ele>858.1999999999999</ele><time>2026-05-02T13:21:24.174Z</time></trkpt><trkpt lat="44.2659441" lon="8.2110208"><ele>861.0</ele><time>2026-05-02T13:21:25.165Z</time></trkpt><trkpt lat="44.2658694" lon="8.2110693"><ele>861.0</ele><time>2026-05-02T13:21:26.161Z</time></trkpt><trkpt lat="44.265803" lon="8.2111591"><ele>861.0</ele><time>2026-05-02T13:21:27.155Z</time></trkpt><trkpt lat="44.2657377" lon="8.211314"><ele>861.0</ele><time>2026-05-02T13:21:28.155Z</time></trkpt><trkpt lat="44.2656579" lon="8.2115051"><ele>861.0</ele><time>2026-05-02T13:21:29.156Z</time></trkpt><trkpt lat="44.2655817" lon="8.2116916"><ele>864.0</ele><time>2026-05-02T13:21:30.162Z</time></trkpt><trkpt lat="44.2655125" lon="8.211905"><ele>867.0</ele><time>2026-05-02T13:21:31.155Z</time></trkpt><trkpt lat="44.2654419" lon="8.2121015"><ele>870.0</ele><time>2026-05-02T13:21:32.166Z</time></trkpt><trkpt lat="44.2653511" lon="8.2122537"><ele>870.0</ele><time>2026-05-02T13:21:33.166Z</time></trkpt><trkpt lat="44.2652283" lon="8.2123006"><ele>870.0</ele><time>2026-05-02T13:21:34.165Z</time></trkpt><trkpt lat="44.2650604" lon="8.2122802"><ele>870.0</ele><time>2026-05-02T13:21:35.165Z</time></trkpt><trkpt lat="44.2649113" lon="8.2122654"><ele>870.0</ele><time>2026-05-02T13:21:36.163Z</time></trkpt><trkpt lat="44.2647589" lon="8.2122565"><ele>873.3333333333333</ele><time>2026-05-02T13:21:37.162Z</time></trkpt><trkpt lat="44.2646009" lon="8.212245"><ele>876.6666666666666</ele><time>2026-05-02T13:21:38.163Z</time></trkpt><trkpt lat="44.2644252" lon="8.2122256"><ele>880.0</ele><time>2026-05-02T13:21:39.15Z</time></trkpt><trkpt lat="44.2642605" lon="8.2121797"><ele>880.0</ele><time>2026-05-02T13:21:40.161Z</time></trkpt><trkpt lat="44.2641361" lon="8.2120612"><ele>880.0</ele><time>2026-05-02T13:21:41.158Z</time></trkpt><trkpt lat="44.2640312" lon="8.2119174"><ele>880.0</ele><time>2026-05-02T13:21:42.16Z</time></trkpt><trkpt lat="44.2639409" lon="8.2117873"><ele>880.0</ele><time>2026-05-02T13:21:43.166Z</time></trkpt><trkpt lat="44.2638256" lon="8.2117078"><ele>882.2</ele><time>2026-05-02T13:21:44.159Z</time></trkpt><trkpt lat="44.2637273" lon="8.2116763"><ele>884.4</ele><time>2026-05-02T13:21:45.173Z</time></trkpt><trkpt lat="44.2636324" lon="8.2116955"><ele>886.5999999999999</ele><time>2026-05-02T13:21:46.159Z</time></trkpt><trkpt lat="44.2635554" lon="8.2118017"><ele>888.8</ele><time>2026-05-02T13:21:47.159Z</time></trkpt><trkpt lat="44.2634722" lon="8.2119243"><ele>891.0</ele><time>2026-05-02T13:21:48.16Z</time></trkpt><trkpt lat="44.2633976" lon="8.2120778"><ele>891.0</ele><time>2026-05-02T13:21:49.159Z</time></trkpt><trkpt lat="44.2633174" lon="8.2122502"><ele>891.0</ele><time>2026-05-02T13:21:50.162Z</time></trkpt><trkpt lat="44.2632457" lon="8.2124552"><ele>891.0</ele><time>2026-05-02T13:21:51.159Z</time></trkpt><trkpt lat="44.263173" lon="8.2126702"><ele>893.0</ele><time>2026-05-02T13:21:52.161Z</time></trkpt><trkpt lat="44.2630812" lon="8.2128749"><ele>895.0</ele><time>2026-05-02T13:21:53.156Z</time></trkpt><trkpt lat="44.2629605" lon="8.213031"><ele>897.0</ele><time>2026-05-02T13:21:54.174Z</time></trkpt><trkpt lat="44.2628193" lon="8.2130957"><ele>897.0</ele><time>2026-05-02T13:21:55.164Z</time></trkpt><trkpt lat="44.2626811" lon="8.2130705"><ele>897.0</ele><time>2026-05-02T13:21:56.172Z</time></trkpt><trkpt lat="44.2625388" lon="8.2130032"><ele>897.0</ele><time>2026-05-02T13:21:57.168Z</time></trkpt><trkpt lat="44.2623921" lon="8.2129412"><ele>897.0</ele><time>2026-05-02T13:21:58.174Z</time></trkpt><trkpt lat="44.2622456" lon="8.2128667"><ele>899.0</ele><time>2026-05-02T13:21:59.168Z</time></trkpt><trkpt lat="44.2620989" lon="8.2127798"><ele>901.0</ele><time>2026-05-02T13:22:00.171Z</time></trkpt><trkpt lat="44.2619442" lon="8.2126882"><ele>903.0</ele><time>2026-05-02T13:22:01.166Z</time></trkpt><trkpt lat="44.261775" lon="8.2126028"><ele>903.0</ele><time>2026-05-02T13:22:02.169Z</time></trkpt><trkpt lat="44.2616021" lon="8.2125541"><ele>903.0</ele><time>2026-05-02T13:22:03.166Z</time></trkpt><trkpt lat="44.2614136" lon="8.2125818"><ele>903.0</ele><time>2026-05-02T13:22:04.158Z</time></trkpt><trkpt lat="44.2612355" lon="8.2126404"><ele>906.6666666666667</ele><time>2026-05-02T13:22:05.158Z</time></trkpt><trkpt lat="44.2610533" lon="8.2126992"><ele>910.3333333333334</ele><time>2026-05-02T13:22:06.162Z</time></trkpt><trkpt lat="44.2608793" lon="8.2127758"><ele>914.0</ele><time>2026-05-02T13:22:07.158Z</time></trkpt><trkpt lat="44.260713" lon="8.2128933"><ele>915.0</ele><time>2026-05-02T13:22:08.163Z</time></trkpt><trkpt lat="44.2605859" lon="8.2130673"><ele>916.0</ele><time>2026-05-02T13:22:09.158Z</time></trkpt><trkpt lat="44.2604689" lon="8.2132175"><ele>917.0</ele><time>2026-05-02T13:22:10.169Z</time></trkpt><trkpt lat="44.2603622" lon="8.213335"><ele>917.0</ele><time>2026-05-02T13:22:11.175Z</time></trkpt><trkpt lat="44.2602353" lon="8.2134329"><ele>917.0</ele><time>2026-05-02T13:22:12.177Z</time></trkpt><trkpt lat="44.2600799" lon="8.2134783"><ele>917.0</ele><time>2026-05-02T13:22:13.177Z</time></trkpt><trkpt lat="44.2599142" lon="8.2134435"><ele>917.3333333333334</ele><time>2026-05-02T13:22:14.175Z</time></trkpt><trkpt lat="44.2597257" lon="8.2133716"><ele>917.6666666666667</ele><time>2026-05-02T13:22:15.176Z</time></trkpt><trkpt lat="44.2595675" lon="8.2132344"><ele>918.0</ele><time>2026-05-02T13:22:16.168Z</time></trkpt><trkpt lat="44.259401" lon="8.2131586"><ele>922.3333333333333</ele><time>2026-05-02T13:22:17.173Z</time></trkpt><trkpt lat="44.2592205" lon="8.2130926"><ele>926.6666666666666</ele><time>2026-05-02T13:22:18.17Z</time></trkpt><trkpt lat="44.2590258" lon="8.2130444"><ele>931.0</ele><time>2026-05-02T13:22:19.17Z</time></trkpt><trkpt lat="44.2588056" lon="8.2130256"><ele>931.0</ele><time>2026-05-02T13:22:20.17Z</time></trkpt><trkpt lat="44.2585849" lon="8.2130005"><ele>931.0</ele><time>2026-05-02T13:22:21.167Z</time></trkpt><trkpt lat="44.2583661" lon="8.2129336"><ele>931.0</ele><time>2026-05-02T13:22:22.17Z</time></trkpt><trkpt lat="44.2581497" lon="8.2128493"><ele>928.0</ele><time>2026-05-02T13:22:23.176Z</time></trkpt><trkpt lat="44.2579513" lon="8.2127365"><ele>925.0</ele><time>2026-05-02T13:22:24.175Z</time></trkpt><trkpt lat="44.2578001" lon="8.2126247"><ele>922.0</ele><time>2026-05-02T13:22:25.166Z</time></trkpt><trkpt lat="44.2576906" lon="8.2125269"><ele>922.0</ele><time>2026-05-02T13:22:26.173Z</time></trkpt><trkpt lat="44.2576301" lon="8.2123906"><ele>922.0</ele><time>2026-05-02T13:22:27.163Z</time></trkpt><trkpt lat="44.2576147" lon="8.2122313"><ele>922.0</ele><time>2026-05-02T13:22:28.169Z</time></trkpt><trkpt lat="44.2576712" lon="8.2120395"><ele>922.0</ele><time>2026-05-02T13:22:29.175Z</time></trkpt><trkpt lat="44.2577672" lon="8.2118569"><ele>922.5</ele><time>2026-05-02T13:22:30.168Z</time></trkpt><trkpt lat="44.2578383" lon="8.211695"><ele>923.0</ele><time>2026-05-02T13:22:31.17Z</time></trkpt><trkpt lat="44.2578889" lon="8.2115293"><ele>923.5</ele><time>2026-05-02T13:22:32.162Z</time></trkpt><trkpt lat="44.2579044" lon="8.2113428"><ele>924.0</ele><time>2026-05-02T13:22:33.164Z</time></trkpt><trkpt lat="44.2578674" lon="8.2111441"><ele>926.3333333333333</ele><time>2026-05-02T13:22:34.175Z</time></trkpt><trkpt lat="44.2577742" lon="8.2109324"><ele>928.6666666666666</ele><time>2026-05-02T13:22:35.171Z</time></trkpt><trkpt lat="44.2576602" lon="8.2107042"><ele>931.0</ele><time>2026-05-02T13:22:36.175Z</time></trkpt><trkpt lat="44.2575719" lon="8.2104691"><ele>931.3333333333333</ele><time>2026-05-02T13:22:37.179Z</time></trkpt><trkpt lat="44.2575263" lon="8.2102152"><ele>931.6666666666667</ele><time>2026-05-02T13:22:38.172Z</time></trkpt><trkpt lat="44.2575048" lon="8.2099742"><ele>932.0</ele><time>2026-05-02T13:22:39.183Z</time></trkpt><trkpt lat="44.2575594" lon="8.209746"><ele>932.0</ele><time>2026-05-02T13:22:40.177Z</time></trkpt><trkpt lat="44.2576365" lon="8.2095362"><ele>932.0</ele><time>2026-05-02T13:22:41.178Z</time></trkpt><trkpt lat="44.257749" lon="8.2093595"><ele>932.0</ele><time>2026-05-02T13:22:42.169Z</time></trkpt><trkpt lat="44.2578163" lon="8.2091846"><ele>939.3333333333334</ele><time>2026-05-02T13:22:43.162Z</time></trkpt><trkpt lat="44.2578478" lon="8.2089867"><ele>946.6666666666667</ele><time>2026-05-02T13:22:44.17Z</time></trkpt><trkpt lat="44.2578175" lon="8.2087636"><ele>954.0</ele><time>2026-05-02T13:22:45.17Z</time></trkpt><trkpt lat="44.2577603" lon="8.2085239"><ele>954.0</ele><time>2026-05-02T13:22:46.168Z</time></trkpt><trkpt lat="44.2576839" lon="8.2083029"><ele>954.0</ele><time>2026-05-02T13:22:47.173Z</time></trkpt><trkpt lat="44.2575784" lon="8.208106"><ele>954.0</ele><time>2026-05-02T13:22:48.172Z</time></trkpt><trkpt lat="44.2574499" lon="8.2079453"><ele>960.0</ele><time>2026-05-02T13:22:49.172Z</time></trkpt><trkpt lat="44.2573218" lon="8.2078247"><ele>966.0</ele><time>2026-05-02T13:22:50.171Z</time></trkpt><trkpt lat="44.2572037" lon="8.2077479"><ele>972.0</ele><time>2026-05-02T13:22:51.169Z</time></trkpt><trkpt lat="44.2570606" lon="8.2077179"><ele>978.0</ele><time>2026-05-02T13:22:52.176Z</time></trkpt><trkpt lat="44.2569197" lon="8.2077501"><ele>979.6666666666667</ele><time>2026-05-02T13:22:53.166Z</time></trkpt><trkpt lat="44.2567855" lon="8.2078349"><ele>981.3333333333334</ele><time>2026-05-02T13:22:54.173Z</time></trkpt><trkpt lat="44.2566404" lon="8.2079392"><ele>983.0</ele><time>2026-05-02T13:22:55.16Z</time></trkpt><trkpt lat="44.2564954" lon="8.2080195"><ele>985.6666666666667</ele><time>2026-05-02T13:22:56.159Z</time></trkpt><trkpt lat="44.2563409" lon="8.2080795"><ele>988.3333333333333</ele><time>2026-05-02T13:22:57.159Z</time></trkpt><trkpt lat="44.2561712" lon="8.2081521"><ele>991.0</ele><time>2026-05-02T13:22:58.161Z</time></trkpt><trkpt lat="44.2560029" lon="8.2082602"><ele>981.0</ele><time>2026-05-02T13:22:59.16Z</time></trkpt><trkpt lat="44.2558483" lon="8.2083609"><ele>971.0</ele><time>2026-05-02T13:23:00.161Z</time></trkpt><trkpt lat="44.255711" lon="8.2084523"><ele>961.0</ele><time>2026-05-02T13:23:01.17Z</time></trkpt><trkpt lat="44.2555716" lon="8.208489"><ele>959.4</ele><time>2026-05-02T13:23:02.175Z</time></trkpt><trkpt lat="44.2554398" lon="8.2084685"><ele>957.8</ele><time>2026-05-02T13:23:03.166Z</time></trkpt><trkpt lat="44.2553242" lon="8.208422"><ele>956.1999999999999</ele><time>2026-05-02T13:23:04.171Z</time></trkpt><trkpt lat="44.2552592" lon="8.2083409"><ele>954.5999999999999</ele><time>2026-05-02T13:23:05.179Z</time></trkpt><trkpt lat="44.2552494" lon="8.2082076"><ele>953.0</ele><time>2026-05-02T13:23:06.179Z</time></trkpt><trkpt lat="44.2552815" lon="8.2080333"><ele>957.5</ele><time>2026-05-02T13:23:07.173Z</time></trkpt><trkpt lat="44.2553132" lon="8.207847"><ele>962.0</ele><time>2026-05-02T13:23:08.173Z</time></trkpt><trkpt lat="44.2553327" lon="8.2076718"><ele>966.5</ele><time>2026-05-02T13:23:09.169Z</time></trkpt><trkpt lat="44.2553346" lon="8.2075225"><ele>971.0</ele><time>2026-05-02T13:23:10.176Z</time></trkpt><trkpt lat="44.2553017" lon="8.2073975"><ele>979.75</ele><time>2026-05-02T13:23:11.168Z</time></trkpt><trkpt lat="44.2552107" lon="8.2073148"><ele>988.5</ele><time>2026-05-02T13:23:12.167Z</time></trkpt><trkpt lat="44.2550896" lon="8.2072608"><ele>997.25</ele><time>2026-05-02T13:23:13.167Z</time></trkpt><trkpt lat="44.2549468" lon="8.207241"><ele>1006.0</ele><time>2026-05-02T13:23:14.162Z</time></trkpt><trkpt lat="44.2548196" lon="8.2072021"><ele>999.75</ele><time>2026-05-02T13:23:15.16Z</time></trkpt><trkpt lat="44.2547004" lon="8.2071147"><ele>993.5</ele><time>2026-05-02T13:23:16.162Z</time></trkpt><trkpt lat="44.2546032" lon="8.2069851"><ele>987.25</ele><time>2026-05-02T13:23:17.161Z</time></trkpt><trkpt lat="44.2545294" lon="8.2068009"><ele>981.0</ele><time>2026-05-02T13:23:18.16Z</time></trkpt><trkpt lat="44.25445" lon="8.2066142"><ele>991.75</ele><time>2026-05-02T13:23:19.161Z</time></trkpt><trkpt lat="44.2543521" lon="8.2064462"><ele>1002.5</ele><time>2026-05-02T13:23:20.171Z</time></trkpt><trkpt lat="44.2542185" lon="8.2063782"><ele>1013.25</ele><time>2026-05-02T13:23:21.161Z</time></trkpt><trkpt lat="44.2540966" lon="8.2063495"><ele>1024.0</ele><time>2026-05-02T13:23:22.153Z</time></trkpt><trkpt lat="44.25395" lon="8.2063916"><ele>1028.6666666666665</ele><time>2026-05-02T13:23:23.154Z</time></trkpt><trkpt lat="44.2538074" lon="8.2064889"><ele>1033.3333333333333</ele><time>2026-05-02T13:23:24.166Z</time></trkpt><trkpt lat="44.2536746" lon="8.2065829"><ele>1038.0</ele><time>2026-05-02T13:23:25.162Z</time></trkpt><trkpt lat="44.2535439" lon="8.206697"><ele>1034.25</ele><time>2026-05-02T13:23:26.17Z</time></trkpt><trkpt lat="44.253432" lon="8.2067101"><ele>1030.5</ele><time>2026-05-02T13:23:27.156Z</time></trkpt><trkpt lat="44.2532973" lon="8.2066398"><ele>1026.75</ele><time>2026-05-02T13:23:28.153Z</time></trkpt><trkpt lat="44.2531679" lon="8.2065713"><ele>1023.0</ele><time>2026-05-02T13:23:29.154Z</time></trkpt><trkpt lat="44.2530502" lon="8.2065818"><ele>1023.0</ele><time>2026-05-02T13:23:30.158Z</time></trkpt><trkpt lat="44.2529481" lon="8.2066918"><ele>1023.0</ele><time>2026-05-02T13:23:31.157Z</time></trkpt><trkpt lat="44.2528625" lon="8.2068628"><ele>1023.0</ele><time>2026-05-02T13:23:32.156Z</time></trkpt><trkpt lat="44.2527772" lon="8.2070939"><ele>1023.0</ele><time>2026-05-02T13:23:33.15Z</time></trkpt><trkpt lat="44.2526625" lon="8.2072922"><ele>1023.0</ele><time>2026-05-02T13:23:34.157Z</time></trkpt><trkpt lat="44.2525398" lon="8.2074586"><ele>1023.0</ele><time>2026-05-02T13:23:35.153Z</time></trkpt><trkpt lat="44.252412" lon="8.2076038"><ele>1014.0</ele><time>2026-05-02T13:23:36.16Z</time></trkpt><trkpt lat="44.2523075" lon="8.2077002"><ele>1005.0</ele><time>2026-05-02T13:23:37.162Z</time></trkpt><trkpt lat="44.2522165" lon="8.2077293"><ele>996.0</ele><time>2026-05-02T13:23:38.168Z</time></trkpt><trkpt lat="44.2521344" lon="8.2076571"><ele>987.0</ele><time>2026-05-02T13:23:39.184Z</time></trkpt><trkpt lat="44.2520376" lon="8.2074834"><ele>997.3333333333333</ele><time>2026-05-02T13:23:40.175Z</time></trkpt><trkpt lat="44.2519446" lon="8.2073099"><ele>1007.6666666666666</ele><time>2026-05-02T13:23:41.153Z</time></trkpt><trkpt lat="44.2518439" lon="8.2071392"><ele>1018.0</ele><time>2026-05-02T13:23:42.158Z</time></trkpt><trkpt lat="44.2517284" lon="8.2069652"><ele>1018.0</ele><time>2026-05-02T13:23:43.162Z</time></trkpt><trkpt lat="44.251591" lon="8.2068261"><ele>1018.0</ele><time>2026-05-02T13:23:44.156Z</time></trkpt><trkpt lat="44.2514206" lon="8.2067119"><ele>1018.0</ele><time>2026-05-02T13:23:45.163Z</time></trkpt><trkpt lat="44.2512673" lon="8.2065785"><ele>1019.6666666666666</ele><time>2026-05-02T13:23:46.161Z</time></trkpt><trkpt lat="44.2511195" lon="8.2064537"><ele>1021.3333333333333</ele><time>2026-05-02T13:23:47.169Z</time></trkpt><trkpt lat="44.2509784" lon="8.2063163"><ele>1023.0</ele><time>2026-05-02T13:23:48.166Z</time></trkpt><trkpt lat="44.2508359" lon="8.2061773"><ele>1023.0</ele><time>2026-05-02T13:23:49.166Z</time></trkpt><trkpt lat="44.2506826" lon="8.2060526"><ele>1023.0</ele><time>2026-05-02T13:23:50.157Z</time></trkpt><trkpt lat="44.2505163" lon="8.2059423"><ele>1023.0</ele><time>2026-05-02T13:23:51.166Z</time></trkpt><trkpt lat="44.2503459" lon="8.2058333"><ele>1027.3333333333333</ele><time>2026-05-02T13:23:52.163Z</time></trkpt><trkpt lat="44.2501803" lon="8.205734"><ele>1031.6666666666665</ele><time>2026-05-02T13:23:53.167Z</time></trkpt><trkpt lat="44.2500157" lon="8.2056404"><ele>1036.0</ele><time>2026-05-02T13:23:54.169Z</time></trkpt><trkpt lat="44.2498493" lon="8.2055686"><ele>1039.3333333333333</ele><time>2026-05-02T13:23:55.162Z</time></trkpt><trkpt lat="44.2496793" lon="8.2055454"><ele>1042.6666666666667</ele><time>2026-05-02T13:23:56.162Z</time></trkpt><trkpt lat="44.2495031" lon="8.2055704"><ele>1046.0</ele><time>2026-05-02T13:23:57.16Z</time></trkpt><trkpt lat="44.2493416" lon="8.2056559"><ele>1048.25</ele><time>2026-05-02T13:23:58.161Z</time></trkpt><trkpt lat="44.2492186" lon="8.2057587"><ele>1050.5</ele><time>2026-05-02T13:23:59.162Z</time></trkpt><trkpt lat="44.2491186" lon="8.2059223"><ele>1052.75</ele><time>2026-05-02T13:24:00.158Z</time></trkpt><trkpt lat="44.2490316" lon="8.2060908"><ele>1055.0</ele><time>2026-05-02T13:24:01.166Z</time></trkpt><trkpt lat="44.2489392" lon="8.2062905"><ele>1055.0</ele><time>2026-05-02T13:24:02.154Z</time></trkpt><trkpt lat="44.2488592" lon="8.2064805"><ele>1055.0</ele><time>2026-05-02T13:24:03.162Z</time></trkpt><trkpt lat="44.2487919" lon="8.2066822"><ele>1055.0</ele><time>2026-05-02T13:24:04.163Z</time></trkpt><trkpt lat="44.248779" lon="8.2069318"><ele>1052.0</ele><time>2026-05-02T13:24:05.163Z</time></trkpt><trkpt lat="44.2488078" lon="8.2071693"><ele>1049.0</ele><time>2026-05-02T13:24:06.158Z</time></trkpt><trkpt lat="44.2488252" lon="8.2073712"><ele>1046.0</ele><time>2026-05-02T13:24:07.158Z</time></trkpt><trkpt lat="44.2487954" lon="8.2075222"><ele>1043.0</ele><time>2026-05-02T13:24:08.165Z</time></trkpt><trkpt lat="44.2487198" lon="8.207598"><ele>1036.25</ele><time>2026-05-02T13:24:09.164Z</time></trkpt><trkpt lat="44.2486229" lon="8.2076099"><ele>1029.5</ele><time>2026-05-02T13:24:10.172Z</time></trkpt><trkpt lat="44.2484921" lon="8.2075939"><ele>1022.75</ele><time>2026-05-02T13:24:11.166Z</time></trkpt><trkpt lat="44.2483443" lon="8.2075655"><ele>1016.0</ele><time>2026-05-02T13:24:12.164Z</time></trkpt><trkpt lat="44.2481728" lon="8.207572"><ele>1022.0</ele><time>2026-05-02T13:24:13.16Z</time></trkpt><trkpt lat="44.2480002" lon="8.2075972"><ele>1028.0</ele><time>2026-05-02T13:24:14.164Z</time></trkpt><trkpt lat="44.247831" lon="8.2076536"><ele>1034.0</ele><time>2026-05-02T13:24:15.155Z</time></trkpt><trkpt lat="44.2476554" lon="8.2077351"><ele>1034.0</ele><time>2026-05-02T13:24:16.163Z</time></trkpt><trkpt lat="44.2474955" lon="8.2078094"><ele>1034.0</ele><time>2026-05-02T13:24:17.163Z</time></trkpt><trkpt lat="44.2473821" lon="8.207902"><ele>1034.0</ele><time>2026-05-02T13:24:18.158Z</time></trkpt><trkpt lat="44.2473205" lon="8.2080307"><ele>1034.0</ele><time>2026-05-02T13:24:19.161Z</time></trkpt><trkpt lat="44.2473011" lon="8.208184"><ele>1027.5</ele><time>2026-05-02T13:24:20.163Z</time></trkpt><trkpt lat="44.2473011" lon="8.2083467"><ele>1021.0</ele><time>2026-05-02T13:24:21.153Z</time></trkpt><trkpt lat="44.2473324" lon="8.2085163"><ele>1014.5</ele><time>2026-05-02T13:24:22.161Z</time></trkpt><trkpt lat="44.2473802" lon="8.2086517"><ele>1008.0</ele><time>2026-05-02T13:24:23.161Z</time></trkpt><trkpt lat="44.2474837" lon="8.2087633"><ele>1008.0</ele><time>2026-05-02T13:24:24.164Z</time></trkpt><trkpt lat="44.2475961" lon="8.2088243"><ele>1008.0</ele><time>2026-05-02T13:24:25.157Z</time></trkpt><trkpt lat="44.2477082" lon="8.2088754"><ele>1008.0</ele><time>2026-05-02T13:24:26.156Z</time></trkpt><trkpt lat="44.2477814" lon="8.2089362"><ele>1008.0</ele><time>2026-05-02T13:24:27.166Z</time></trkpt><trkpt lat="44.2477853" lon="8.2091069"><ele>1008.0</ele><time>2026-05-02T13:24:29.166Z</time></trkpt><trkpt lat="44.247719" lon="8.209194"><ele>1008.5</ele><time>2026-05-02T13:24:30.166Z</time></trkpt><trkpt lat="44.2476183" lon="8.2092703"><ele>1009.0</ele><time>2026-05-02T13:24:31.165Z</time></trkpt><trkpt lat="44.247493" lon="8.2093331"><ele>1009.5</ele><time>2026-05-02T13:24:32.165Z</time></trkpt><trkpt lat="44.2473604" lon="8.2093878"><ele>1010.0</ele><time>2026-05-02T13:24:33.157Z</time></trkpt><trkpt lat="44.2472178" lon="8.2094178"><ele>1010.0</ele><time>2026-05-02T13:24:34.159Z</time></trkpt><trkpt lat="44.2470637" lon="8.2094437"><ele>1010.0</ele><time>2026-05-02T13:24:35.16Z</time></trkpt><trkpt lat="44.24688" lon="8.20945"><ele>1010.0</ele><time>2026-05-02T13:24:36.162Z</time></trkpt><trkpt lat="44.24669" lon="8.2094242"><ele>1010.0</ele><time>2026-05-02T13:24:37.166Z</time></trkpt><trkpt lat="44.2464917" lon="8.2094229"><ele>1010.0</ele><time>2026-05-02T13:24:38.161Z</time></trkpt><trkpt lat="44.2462888" lon="8.2094273"><ele>1010.0</ele><time>2026-05-02T13:24:39.16Z</time></trkpt><trkpt lat="44.2460927" lon="8.2094365"><ele>1011.75</ele><time>2026-05-02T13:24:40.16Z</time></trkpt><trkpt lat="44.2459337" lon="8.2094298"><ele>1013.5</ele><time>2026-05-02T13:24:41.156Z</time></trkpt><trkpt lat="44.2458017" lon="8.209454"><ele>1015.25</ele><time>2026-05-02T13:24:42.156Z</time></trkpt><trkpt lat="44.2457206" lon="8.2095072"><ele>1017.0</ele><time>2026-05-02T13:24:43.158Z</time></trkpt><trkpt lat="44.2456867" lon="8.2096137"><ele>1017.0</ele><time>2026-05-02T13:24:44.156Z</time></trkpt><trkpt lat="44.2456402" lon="8.2097681"><ele>1017.0</ele><time>2026-05-02T13:24:45.156Z</time></trkpt><trkpt lat="44.2456335" lon="8.2099296"><ele>1017.0</ele><time>2026-05-02T13:24:46.16Z</time></trkpt><trkpt lat="44.2456407" lon="8.2101065"><ele>1017.0</ele><time>2026-05-02T13:24:47.167Z</time></trkpt><trkpt lat="44.2456721" lon="8.210308"><ele>1008.3333333333333</ele><time>2026-05-02T13:24:48.155Z</time></trkpt><trkpt lat="44.2457327" lon="8.2105341"><ele>999.6666666666666</ele><time>2026-05-02T13:24:49.156Z</time></trkpt><trkpt lat="44.2457851" lon="8.210769"><ele>991.0</ele><time>2026-05-02T13:24:50.159Z</time></trkpt><trkpt lat="44.2458357" lon="8.211032"><ele>990.3333333333333</ele><time>2026-05-02T13:24:51.158Z</time></trkpt><trkpt lat="44.2458963" lon="8.2112926"><ele>989.6666666666667</ele><time>2026-05-02T13:24:52.163Z</time></trkpt><trkpt lat="44.2459461" lon="8.2115582"><ele>989.0</ele><time>2026-05-02T13:24:53.169Z</time></trkpt><trkpt lat="44.2460126" lon="8.2118171"><ele>992.0</ele><time>2026-05-02T13:24:54.158Z</time></trkpt><trkpt lat="44.2461085" lon="8.2120381"><ele>995.0</ele><time>2026-05-02T13:24:55.162Z</time></trkpt><trkpt lat="44.2462383" lon="8.2122273"><ele>998.0</ele><time>2026-05-02T13:24:56.157Z</time></trkpt><trkpt lat="44.2464045" lon="8.2124084"><ele>985.3333333333334</ele><time>2026-05-02T13:24:57.163Z</time></trkpt><trkpt lat="44.2465411" lon="8.2125663"><ele>972.6666666666667</ele><time>2026-05-02T13:24:58.165Z</time></trkpt><trkpt lat="44.2466605" lon="8.212719"><ele>960.0</ele><time>2026-05-02T13:24:59.169Z</time></trkpt><trkpt lat="44.2467492" lon="8.2128741"><ele>960.0</ele><time>2026-05-02T13:25:00.174Z</time></trkpt><trkpt lat="44.2467868" lon="8.2130709"><ele>960.0</ele><time>2026-05-02T13:25:01.178Z</time></trkpt><trkpt lat="44.2467754" lon="8.2132762"><ele>960.0</ele><time>2026-05-02T13:25:02.171Z</time></trkpt><trkpt lat="44.2467449" lon="8.2134646"><ele>960.0</ele><time>2026-05-02T13:25:03.172Z</time></trkpt><trkpt lat="44.2466658" lon="8.2135987"><ele>961.25</ele><time>2026-05-02T13:25:04.172Z</time></trkpt><trkpt lat="44.2465816" lon="8.2136568"><ele>962.5</ele><time>2026-05-02T13:25:05.164Z</time></trkpt><trkpt lat="44.2464683" lon="8.2136488"><ele>963.75</ele><time>2026-05-02T13:25:06.175Z</time></trkpt><trkpt lat="44.2463203" lon="8.2135996"><ele>965.0</ele><time>2026-05-02T13:25:07.176Z</time></trkpt><trkpt lat="44.246187" lon="8.2135254"><ele>971.5</ele><time>2026-05-02T13:25:08.158Z</time></trkpt><trkpt lat="44.2460592" lon="8.2134763"><ele>978.0</ele><time>2026-05-02T13:25:09.158Z</time></trkpt><trkpt lat="44.2459204" lon="8.2134461"><ele>984.5</ele><time>2026-05-02T13:25:10.16Z</time></trkpt><trkpt lat="44.2457761" lon="8.2134198"><ele>991.0</ele><time>2026-05-02T13:25:11.151Z</time></trkpt><trkpt lat="44.2456375" lon="8.2134368"><ele>985.5</ele><time>2026-05-02T13:25:12.16Z</time></trkpt><trkpt lat="44.2455173" lon="8.2135403"><ele>980.0</ele><time>2026-05-02T13:25:13.158Z</time></trkpt><trkpt lat="44.2454311" lon="8.2136881"><ele>974.5</ele><time>2026-05-02T13:25:14.158Z</time></trkpt><trkpt lat="44.2453889" lon="8.2138647"><ele>969.0</ele><time>2026-05-02T13:25:15.159Z</time></trkpt><trkpt lat="44.24535" lon="8.214039"><ele>969.0</ele><time>2026-05-02T13:25:16.163Z</time></trkpt><trkpt lat="44.245271" lon="8.2141643"><ele>969.0</ele><time>2026-05-02T13:25:17.167Z</time></trkpt><trkpt lat="44.2451547" lon="8.2142137"><ele>969.0</ele><time>2026-05-02T13:25:18.168Z</time></trkpt><trkpt lat="44.2450166" lon="8.2142405"><ele>969.0</ele><time>2026-05-02T13:25:19.162Z</time></trkpt><trkpt lat="44.2448796" lon="8.2142344"><ele>973.25</ele><time>2026-05-02T13:25:20.169Z</time></trkpt><trkpt lat="44.2447435" lon="8.2142081"><ele>977.5</ele><time>2026-05-02T13:25:21.158Z</time></trkpt><trkpt lat="44.2446173" lon="8.2141646"><ele>981.75</ele><time>2026-05-02T13:25:22.156Z</time></trkpt><trkpt lat="44.2445068" lon="8.2141458"><ele>986.0</ele><time>2026-05-02T13:25:23.16Z</time></trkpt><trkpt lat="44.2444119" lon="8.2141819"><ele>986.0</ele><time>2026-05-02T13:25:24.163Z</time></trkpt><trkpt lat="44.2443471" lon="8.2142517"><ele>986.0</ele><time>2026-05-02T13:25:25.155Z</time></trkpt><trkpt lat="44.2443153" lon="8.2143772"><ele>986.0</ele><time>2026-05-02T13:25:26.16Z</time></trkpt><trkpt lat="44.2442653" lon="8.2145463"><ele>986.0</ele><time>2026-05-02T13:25:27.157Z</time></trkpt><trkpt lat="44.2441813" lon="8.2147057"><ele>982.0</ele><time>2026-05-02T13:25:28.161Z</time></trkpt><trkpt lat="44.2440534" lon="8.2148329"><ele>978.0</ele><time>2026-05-02T13:25:29.171Z</time></trkpt><trkpt lat="44.2438655" lon="8.2149182"><ele>974.0</ele><time>2026-05-02T13:25:30.165Z</time></trkpt><trkpt lat="44.2436987" lon="8.2149799"><ele>974.0</ele><time>2026-05-02T13:25:31.162Z</time></trkpt><trkpt lat="44.2435433" lon="8.2150559"><ele>974.0</ele><time>2026-05-02T13:25:32.159Z</time></trkpt><trkpt lat="44.243383" lon="8.2151181"><ele>974.0</ele><time>2026-05-02T13:25:33.154Z</time></trkpt><trkpt lat="44.2432239" lon="8.2151796"><ele>971.25</ele><time>2026-05-02T13:25:34.165Z</time></trkpt><trkpt lat="44.2430841" lon="8.2152364"><ele>968.5</ele><time>2026-05-02T13:25:35.156Z</time></trkpt><trkpt lat="44.2429591" lon="8.2152727"><ele>965.75</ele><time>2026-05-02T13:25:36.158Z</time></trkpt><trkpt lat="44.2428233" lon="8.2152832"><ele>963.0</ele><time>2026-05-02T13:25:37.158Z</time></trkpt><trkpt lat="44.242728" lon="8.2152233"><ele>963.0</ele><time>2026-05-02T13:25:38.159Z</time></trkpt><trkpt lat="44.2426597" lon="8.2150462"><ele>963.0</ele><time>2026-05-02T13:25:39.156Z</time></trkpt><trkpt lat="44.2425976" lon="8.2148736"><ele>963.0</ele><time>2026-05-02T13:25:40.159Z</time></trkpt><trkpt lat="44.2425242" lon="8.214699"><ele>963.0</ele><time>2026-05-02T13:25:41.154Z</time></trkpt><trkpt lat="44.2424482" lon="8.2145297"><ele>969.3333333333333</ele><time>2026-05-02T13:25:42.154Z</time></trkpt><trkpt lat="44.242382" lon="8.2143482"><ele>975.6666666666666</ele><time>2026-05-02T13:25:43.161Z</time></trkpt><trkpt lat="44.2423153" lon="8.2141375"><ele>982.0</ele><time>2026-05-02T13:25:44.157Z</time></trkpt><trkpt lat="44.2422413" lon="8.213936"><ele>982.0</ele><time>2026-05-02T13:25:45.158Z</time></trkpt><trkpt lat="44.242165" lon="8.2137317"><ele>982.0</ele><time>2026-05-02T13:25:46.159Z</time></trkpt><trkpt lat="44.2420801" lon="8.2135498"><ele>982.0</ele><time>2026-05-02T13:25:47.162Z</time></trkpt><trkpt lat="44.2419646" lon="8.2134059"><ele>982.0</ele><time>2026-05-02T13:25:48.157Z</time></trkpt><trkpt lat="44.241861" lon="8.2132855"><ele>982.0</ele><time>2026-05-02T13:25:49.159Z</time></trkpt><trkpt lat="44.24176" lon="8.2131807"><ele>982.0</ele><time>2026-05-02T13:25:50.175Z</time></trkpt><trkpt lat="44.2416507" lon="8.2131221"><ele>982.0</ele><time>2026-05-02T13:25:51.173Z</time></trkpt><trkpt lat="44.2415519" lon="8.2131114"><ele>982.0</ele><time>2026-05-02T13:25:52.165Z</time></trkpt><trkpt lat="44.2414826" lon="8.2132059"><ele>982.0</ele><time>2026-05-02T13:25:53.167Z</time></trkpt><trkpt lat="44.241402" lon="8.2133215"><ele>982.0</ele><time>2026-05-02T13:25:54.168Z</time></trkpt><trkpt lat="44.2413206" lon="8.2135079"><ele>982.0</ele><time>2026-05-02T13:25:55.164Z</time></trkpt><trkpt lat="44.2412396" lon="8.2137016"><ele>982.3333333333333</ele><time>2026-05-02T13:25:56.158Z</time></trkpt><trkpt lat="44.2411485" lon="8.2139172"><ele>982.6666666666667</ele><time>2026-05-02T13:25:57.163Z</time></trkpt><trkpt lat="44.2410186" lon="8.2140755"><ele>983.0</ele><time>2026-05-02T13:25:58.156Z</time></trkpt><trkpt lat="44.2408865" lon="8.2142429"><ele>983.0</ele><time>2026-05-02T13:25:59.152Z</time></trkpt><trkpt lat="44.2407491" lon="8.2144113"><ele>983.0</ele><time>2026-05-02T13:26:00.153Z</time></trkpt><trkpt lat="44.2406256" lon="8.2146147"><ele>983.0</ele><time>2026-05-02T13:26:01.155Z</time></trkpt><trkpt lat="44.2405008" lon="8.2148436"><ele>990.3333333333334</ele><time>2026-05-02T13:26:02.153Z</time></trkpt><trkpt lat="44.2403913" lon="8.2151009"><ele>997.6666666666667</ele><time>2026-05-02T13:26:03.159Z</time></trkpt><trkpt lat="44.2402842" lon="8.2153514"><ele>1005.0</ele><time>2026-05-02T13:26:04.158Z</time></trkpt><trkpt lat="44.240211" lon="8.2155932"><ele>998.75</ele><time>2026-05-02T13:26:05.16Z</time></trkpt><trkpt lat="44.2401407" lon="8.2157894"><ele>992.5</ele><time>2026-05-02T13:26:06.166Z</time></trkpt><trkpt lat="44.240069" lon="8.2159607"><ele>986.25</ele><time>2026-05-02T13:26:07.166Z</time></trkpt><trkpt lat="44.2399883" lon="8.2160751"><ele>980.0</ele><time>2026-05-02T13:26:08.167Z</time></trkpt><trkpt lat="44.2398693" lon="8.216132"><ele>985.6666666666667</ele><time>2026-05-02T13:26:09.168Z</time></trkpt><trkpt lat="44.2397193" lon="8.216144"><ele>991.3333333333333</ele><time>2026-05-02T13:26:10.166Z</time></trkpt><trkpt lat="44.239564" lon="8.2161332"><ele>997.0</ele><time>2026-05-02T13:26:11.166Z</time></trkpt><trkpt lat="44.2393915" lon="8.2161152"><ele>997.0</ele><time>2026-05-02T13:26:12.164Z</time></trkpt><trkpt lat="44.239204" lon="8.2161476"><ele>997.0</ele><time>2026-05-02T13:26:13.169Z</time></trkpt><trkpt lat="44.2390324" lon="8.2162184"><ele>997.0</ele><time>2026-05-02T13:26:14.167Z</time></trkpt><trkpt lat="44.2388876" lon="8.2162448"><ele>997.0</ele><time>2026-05-02T13:26:15.164Z</time></trkpt><trkpt lat="44.2387608" lon="8.2162517"><ele>997.0</ele><time>2026-05-02T13:26:16.17Z</time></trkpt><trkpt lat="44.2386396" lon="8.2162216"><ele>997.0</ele><time>2026-05-02T13:26:17.169Z</time></trkpt><trkpt lat="44.2385348" lon="8.2161611"><ele>997.0</ele><time>2026-05-02T13:26:18.165Z</time></trkpt><trkpt lat="44.2384532" lon="8.2161893"><ele>997.0</ele><time>2026-05-02T13:26:19.171Z</time></trkpt><trkpt lat="44.2383782" lon="8.2163622"><ele>994.25</ele><time>2026-05-02T13:26:21.166Z</time></trkpt><trkpt lat="44.2383641" lon="8.2164924"><ele>991.5</ele><time>2026-05-02T13:26:22.161Z</time></trkpt><trkpt lat="44.2383507" lon="8.2166741"><ele>988.75</ele><time>2026-05-02T13:26:23.168Z</time></trkpt><trkpt lat="44.2383263" lon="8.2168829"><ele>986.0</ele><time>2026-05-02T13:26:24.17Z</time></trkpt><trkpt lat="44.2382871" lon="8.217105"><ele>988.3333333333334</ele><time>2026-05-02T13:26:25.164Z</time></trkpt><trkpt lat="44.2382029" lon="8.2173384"><ele>990.6666666666667</ele><time>2026-05-02T13:26:26.17Z</time></trkpt><trkpt lat="44.2380576" lon="8.2175524"><ele>993.0</ele><time>2026-05-02T13:26:27.17Z</time></trkpt><trkpt lat="44.2379062" lon="8.2177455"><ele>993.0</ele><time>2026-05-02T13:26:28.167Z</time></trkpt><trkpt lat="44.2377734" lon="8.2179439"><ele>993.0</ele><time>2026-05-02T13:26:29.173Z</time></trkpt><trkpt lat="44.2376972" lon="8.2181887"><ele>993.0</ele><time>2026-05-02T13:26:30.172Z</time></trkpt><trkpt lat="44.2376664" lon="8.2184379"><ele>991.6666666666667</ele><time>2026-05-02T13:26:31.164Z</time></trkpt><trkpt lat="44.2376851" lon="8.2186872"><ele>990.3333333333334</ele><time>2026-05-02T13:26:32.166Z</time></trkpt><trkpt lat="44.2377263" lon="8.2189395"><ele>989.0</ele><time>2026-05-02T13:26:33.175Z</time></trkpt><trkpt lat="44.237763" lon="8.2191921"><ele>987.0</ele><time>2026-05-02T13:26:34.177Z</time></trkpt><trkpt lat="44.237786" lon="8.2194444"><ele>985.0</ele><time>2026-05-02T13:26:35.17Z</time></trkpt><trkpt lat="44.2378355" lon="8.2196982"><ele>983.0</ele><time>2026-05-02T13:26:36.172Z</time></trkpt><trkpt lat="44.2379082" lon="8.2198937"><ele>981.8</ele><time>2026-05-02T13:26:37.174Z</time></trkpt><trkpt lat="44.2380236" lon="8.2200634"><ele>980.5999999999999</ele><time>2026-05-02T13:26:38.17Z</time></trkpt><trkpt lat="44.2380848" lon="8.2201767"><ele>979.4000000000001</ele><time>2026-05-02T13:26:39.17Z</time></trkpt><trkpt lat="44.2381202" lon="8.2202822"><ele>978.2</ele><time>2026-05-02T13:26:40.173Z</time></trkpt><trkpt lat="44.238131" lon="8.2203851"><ele>977.0</ele><time>2026-05-02T13:26:41.178Z</time></trkpt><trkpt lat="44.238097" lon="8.2205092"><ele>975.5</ele><time>2026-05-02T13:26:43.177Z</time></trkpt><trkpt lat="44.2381733" lon="8.2204883"><ele>974.0</ele><time>2026-05-02T13:27:25.169Z</time></trkpt><trkpt lat="44.2383216" lon="8.2205039"><ele>972.5</ele><time>2026-05-02T13:27:27.177Z</time></trkpt><trkpt lat="44.2384273" lon="8.2205363"><ele>971.0</ele><time>2026-05-02T13:27:28.18Z</time></trkpt><trkpt lat="44.2385461" lon="8.2205676"><ele>971.0</ele><time>2026-05-02T13:27:29.181Z</time></trkpt><trkpt lat="44.2386722" lon="8.2205992"><ele>971.0</ele><time>2026-05-02T13:27:30.183Z</time></trkpt><trkpt lat="44.2388023" lon="8.2206319"><ele>971.0</ele><time>2026-05-02T13:27:31.182Z</time></trkpt><trkpt lat="44.2389498" lon="8.220671"><ele>971.0</ele><time>2026-05-02T13:27:32.171Z</time></trkpt><trkpt lat="44.2391037" lon="8.2207112"><ele>975.0</ele><time>2026-05-02T13:27:33.173Z</time></trkpt><trkpt lat="44.2392586" lon="8.2207537"><ele>979.0</ele><time>2026-05-02T13:27:34.174Z</time></trkpt><trkpt lat="44.2394074" lon="8.2207966"><ele>983.0</ele><time>2026-05-02T13:27:35.18Z</time></trkpt><trkpt lat="44.2395612" lon="8.2208772"><ele>983.0</ele><time>2026-05-02T13:27:36.188Z</time></trkpt><trkpt lat="44.2396931" lon="8.2210183"><ele>983.0</ele><time>2026-05-02T13:27:37.179Z</time></trkpt><trkpt lat="44.2398116" lon="8.2211817"><ele>983.0</ele><time>2026-05-02T13:27:38.183Z</time></trkpt><trkpt lat="44.2399115" lon="8.2214035"><ele>984.0</ele><time>2026-05-02T13:27:39.18Z</time></trkpt><trkpt lat="44.2399822" lon="8.2216286"><ele>985.0</ele><time>2026-05-02T13:27:40.178Z</time></trkpt><trkpt lat="44.2400463" lon="8.2218604"><ele>986.0</ele><time>2026-05-02T13:27:41.169Z</time></trkpt><trkpt lat="44.240099" lon="8.2220941"><ele>987.3333333333334</ele><time>2026-05-02T13:27:42.165Z</time></trkpt><trkpt lat="44.2401424" lon="8.2223197"><ele>988.6666666666667</ele><time>2026-05-02T13:27:43.173Z</time></trkpt><trkpt lat="44.2401905" lon="8.2225422"><ele>990.0</ele><time>2026-05-02T13:27:44.173Z</time></trkpt><trkpt lat="44.2402366" lon="8.2227534"><ele>990.0</ele><time>2026-05-02T13:27:45.175Z</time></trkpt><trkpt lat="44.2402813" lon="8.2229383"><ele>990.0</ele><time>2026-05-02T13:27:46.179Z</time></trkpt><trkpt lat="44.2403504" lon="8.2230988"><ele>990.0</ele><time>2026-05-02T13:27:47.185Z</time></trkpt><trkpt lat="44.2404543" lon="8.2232241"><ele>990.0</ele><time>2026-05-02T13:27:48.186Z</time></trkpt><trkpt lat="44.2405864" lon="8.2232615"><ele>990.3333333333333</ele><time>2026-05-02T13:27:49.187Z</time></trkpt><trkpt lat="44.2407536" lon="8.223296"><ele>990.6666666666666</ele><time>2026-05-02T13:27:50.183Z</time></trkpt><trkpt lat="44.2409092" lon="8.2233177"><ele>991.0</ele><time>2026-05-02T13:27:51.185Z</time></trkpt><trkpt lat="44.2410649" lon="8.2233937"><ele>991.0</ele><time>2026-05-02T13:27:52.18Z</time></trkpt><trkpt lat="44.2411869" lon="8.2235079"><ele>991.0</ele><time>2026-05-02T13:27:53.175Z</time></trkpt><trkpt lat="44.2412929" lon="8.2236415"><ele>991.0</ele><time>2026-05-02T13:27:54.175Z</time></trkpt><trkpt lat="44.2413818" lon="8.2238046"><ele>991.0</ele><time>2026-05-02T13:27:55.181Z</time></trkpt><trkpt lat="44.2414648" lon="8.2240149"><ele>985.6666666666666</ele><time>2026-05-02T13:27:56.178Z</time></trkpt><trkpt lat="44.2415266" lon="8.2242398"><ele>980.3333333333333</ele><time>2026-05-02T13:27:57.164Z</time></trkpt><trkpt lat="44.2415896" lon="8.2244574"><ele>975.0</ele><time>2026-05-02T13:27:58.178Z</time></trkpt><trkpt lat="44.2416015" lon="8.2246597"><ele>977.6666666666667</ele><time>2026-05-02T13:27:59.17Z</time></trkpt><trkpt lat="44.241584" lon="8.2248571"><ele>980.3333333333334</ele><time>2026-05-02T13:28:00.174Z</time></trkpt><trkpt lat="44.2415388" lon="8.2250634"><ele>983.0</ele><time>2026-05-02T13:28:01.186Z</time></trkpt><trkpt lat="44.2414738" lon="8.2252765"><ele>984.6666666666667</ele><time>2026-05-02T13:28:02.179Z</time></trkpt><trkpt lat="44.2413976" lon="8.2254991"><ele>986.3333333333333</ele><time>2026-05-02T13:28:03.186Z</time></trkpt><trkpt lat="44.2413312" lon="8.2257168"><ele>988.0</ele><time>2026-05-02T13:28:04.183Z</time></trkpt><trkpt lat="44.2412771" lon="8.225931"><ele>988.0</ele><time>2026-05-02T13:28:05.181Z</time></trkpt><trkpt lat="44.241264" lon="8.2261553"><ele>988.0</ele><time>2026-05-02T13:28:06.182Z</time></trkpt><trkpt lat="44.2412962" lon="8.2263796"><ele>988.0</ele><time>2026-05-02T13:28:07.178Z</time></trkpt><trkpt lat="44.2413334" lon="8.2265788"><ele>986.75</ele><time>2026-05-02T13:28:08.183Z</time></trkpt><trkpt lat="44.2413557" lon="8.2267726"><ele>985.5</ele><time>2026-05-02T13:28:09.17Z</time></trkpt><trkpt lat="44.2413512" lon="8.226969"><ele>984.25</ele><time>2026-05-02T13:28:10.178Z</time></trkpt><trkpt lat="44.2413185" lon="8.2271585"><ele>983.0</ele><time>2026-05-02T13:28:11.16Z</time></trkpt><trkpt lat="44.2412849" lon="8.2273564"><ele>980.3333333333334</ele><time>2026-05-02T13:28:12.174Z</time></trkpt><trkpt lat="44.2412883" lon="8.2275646"><ele>977.6666666666667</ele><time>2026-05-02T13:28:13.17Z</time></trkpt><trkpt lat="44.241315" lon="8.2277918"><ele>975.0</ele><time>2026-05-02T13:28:14.166Z</time></trkpt><trkpt lat="44.2413593" lon="8.2280092"><ele>971.6666666666667</ele><time>2026-05-02T13:28:15.179Z</time></trkpt><trkpt lat="44.2414001" lon="8.2282328"><ele>968.3333333333334</ele><time>2026-05-02T13:28:16.174Z</time></trkpt><trkpt lat="44.2414365" lon="8.2284565"><ele>965.0</ele><time>2026-05-02T13:28:17.175Z</time></trkpt><trkpt lat="44.2414499" lon="8.2286903"><ele>978.6666666666667</ele><time>2026-05-02T13:28:18.17Z</time></trkpt><trkpt lat="44.2414743" lon="8.2289229"><ele>992.3333333333333</ele><time>2026-05-02T13:28:19.165Z</time></trkpt><trkpt lat="44.2415102" lon="8.2291512"><ele>1006.0</ele><time>2026-05-02T13:28:20.16Z</time></trkpt><trkpt lat="44.241534" lon="8.2293755"><ele>1006.0</ele><time>2026-05-02T13:28:21.173Z</time></trkpt><trkpt lat="44.2415346" lon="8.2295938"><ele>1006.0</ele><time>2026-05-02T13:28:22.177Z</time></trkpt><trkpt lat="44.2415149" lon="8.2297977"><ele>1006.0</ele><time>2026-05-02T13:28:23.171Z</time></trkpt><trkpt lat="44.241495" lon="8.2299984"><ele>1006.0</ele><time>2026-05-02T13:28:24.181Z</time></trkpt><trkpt lat="44.2414805" lon="8.230213"><ele>1004.0</ele><time>2026-05-02T13:28:25.177Z</time></trkpt><trkpt lat="44.2414609" lon="8.230428"><ele>1002.0</ele><time>2026-05-02T13:28:26.185Z</time></trkpt><trkpt lat="44.2414611" lon="8.2306376"><ele>1000.0</ele><time>2026-05-02T13:28:27.188Z</time></trkpt><trkpt lat="44.24147" lon="8.2308473"><ele>1000.0</ele><time>2026-05-02T13:28:28.169Z</time></trkpt><trkpt lat="44.2414997" lon="8.2310431"><ele>1000.0</ele><time>2026-05-02T13:28:29.171Z</time></trkpt><trkpt lat="44.2415546" lon="8.2312275"><ele>1000.0</ele><time>2026-05-02T13:28:30.18Z</time></trkpt><trkpt lat="44.2416198" lon="8.2313944"><ele>1000.0</ele><time>2026-05-02T13:28:31.172Z</time></trkpt><trkpt lat="44.2416952" lon="8.2315483"><ele>996.75</ele><time>2026-05-02T13:28:32.171Z</time></trkpt><trkpt lat="44.2417981" lon="8.231665"><ele>993.5</ele><time>2026-05-02T13:28:33.163Z</time></trkpt><trkpt lat="44.2419299" lon="8.2317596"><ele>990.25</ele><time>2026-05-02T13:28:34.172Z</time></trkpt><trkpt lat="44.2420712" lon="8.2318582"><ele>987.0</ele><time>2026-05-02T13:28:35.168Z</time></trkpt><trkpt lat="44.2422105" lon="8.2319734"><ele>992.0</ele><time>2026-05-02T13:28:36.166Z</time></trkpt><trkpt lat="44.2423536" lon="8.2320922"><ele>997.0</ele><time>2026-05-02T13:28:37.169Z</time></trkpt><trkpt lat="44.2424955" lon="8.2321941"><ele>1002.0</ele><time>2026-05-02T13:28:38.17Z</time></trkpt><trkpt lat="44.2426504" lon="8.2322593"><ele>998.25</ele><time>2026-05-02T13:28:39.169Z</time></trkpt><trkpt lat="44.2427879" lon="8.2323287"><ele>994.5</ele><time>2026-05-02T13:28:40.178Z</time></trkpt><trkpt lat="44.2429242" lon="8.232403"><ele>990.75</ele><time>2026-05-02T13:28:41.184Z</time></trkpt><trkpt lat="44.2430361" lon="8.2324441"><ele>987.0</ele><time>2026-05-02T13:28:42.187Z</time></trkpt><trkpt lat="44.2431394" lon="8.2324934"><ele>987.0</ele><time>2026-05-02T13:28:43.186Z</time></trkpt><trkpt lat="44.2432401" lon="8.2325729"><ele>987.0</ele><time>2026-05-02T13:28:44.187Z</time></trkpt><trkpt lat="44.243344" lon="8.2326716"><ele>987.0</ele><time>2026-05-02T13:28:45.185Z</time></trkpt><trkpt lat="44.2434407" lon="8.2328088"><ele>987.0</ele><time>2026-05-02T13:28:46.193Z</time></trkpt><trkpt lat="44.243538" lon="8.2329718"><ele>983.3333333333333</ele><time>2026-05-02T13:28:47.193Z</time></trkpt><trkpt lat="44.2436253" lon="8.2331556"><ele>979.6666666666666</ele><time>2026-05-02T13:28:48.191Z</time></trkpt><trkpt lat="44.2437125" lon="8.2333493"><ele>976.0</ele><time>2026-05-02T13:28:49.193Z</time></trkpt><trkpt lat="44.2438069" lon="8.2335724"><ele>976.0</ele><time>2026-05-02T13:28:50.19Z</time></trkpt><trkpt lat="44.2438943" lon="8.2338068"><ele>976.0</ele><time>2026-05-02T13:28:51.197Z</time></trkpt><trkpt lat="44.2439749" lon="8.2340179"><ele>976.0</ele><time>2026-05-02T13:28:52.195Z</time></trkpt><trkpt lat="44.2440465" lon="8.2342232"><ele>975.6666666666666</ele><time>2026-05-02T13:28:53.193Z</time></trkpt><trkpt lat="44.2441092" lon="8.2344232"><ele>975.3333333333333</ele><time>2026-05-02T13:28:54.196Z</time></trkpt><trkpt lat="44.2441661" lon="8.234618"><ele>975.0</ele><time>2026-05-02T13:28:55.196Z</time></trkpt><trkpt lat="44.244234" lon="8.2348137"><ele>975.0</ele><time>2026-05-02T13:28:56.187Z</time></trkpt><trkpt lat="44.2443067" lon="8.2350052"><ele>975.0</ele><time>2026-05-02T13:28:57.188Z</time></trkpt><trkpt lat="44.2443865" lon="8.2352033"><ele>975.0</ele><time>2026-05-02T13:28:58.186Z</time></trkpt><trkpt lat="44.24445" lon="8.2354083"><ele>975.0</ele><time>2026-05-02T13:28:59.186Z</time></trkpt><trkpt lat="44.2445101" lon="8.235619"><ele>975.0</ele><time>2026-05-02T13:29:00.177Z</time></trkpt><trkpt lat="44.2445469" lon="8.2358418"><ele>975.0</ele><time>2026-05-02T13:29:01.186Z</time></trkpt><trkpt lat="44.2445363" lon="8.2360622"><ele>971.3333333333333</ele><time>2026-05-02T13:29:02.181Z</time></trkpt><trkpt lat="44.2444998" lon="8.2362639"><ele>967.6666666666666</ele><time>2026-05-02T13:29:03.185Z</time></trkpt><trkpt lat="44.2444698" lon="8.236472"><ele>964.0</ele><time>2026-05-02T13:29:04.184Z</time></trkpt><trkpt lat="44.2444565" lon="8.2366836"><ele>961.0</ele><time>2026-05-02T13:29:05.191Z</time></trkpt><trkpt lat="44.2444773" lon="8.2369085"><ele>958.0</ele><time>2026-05-02T13:29:06.182Z</time></trkpt><trkpt lat="44.2444996" lon="8.2371304"><ele>955.0</ele><time>2026-05-02T13:29:07.182Z</time></trkpt><trkpt lat="44.2445217" lon="8.2373462"><ele>953.3333333333333</ele><time>2026-05-02T13:29:08.182Z</time></trkpt><trkpt lat="44.2445352" lon="8.2375667"><ele>951.6666666666667</ele><time>2026-05-02T13:29:09.185Z</time></trkpt><trkpt lat="44.2445387" lon="8.237791"><ele>950.0</ele><time>2026-05-02T13:29:10.183Z</time></trkpt><trkpt lat="44.244534" lon="8.2379998"><ele>948.0</ele><time>2026-05-02T13:29:11.181Z</time></trkpt><trkpt lat="44.2445346" lon="8.238208"><ele>946.0</ele><time>2026-05-02T13:29:12.176Z</time></trkpt><trkpt lat="44.2445373" lon="8.238425"><ele>944.0</ele><time>2026-05-02T13:29:13.178Z</time></trkpt><trkpt lat="44.2445372" lon="8.2386279"><ele>944.0</ele><time>2026-05-02T13:29:14.181Z</time></trkpt><trkpt lat="44.2445402" lon="8.2388224"><ele>944.0</ele><time>2026-05-02T13:29:15.177Z</time></trkpt><trkpt lat="44.2445366" lon="8.2390108"><ele>944.0</ele><time>2026-05-02T13:29:16.172Z</time></trkpt><trkpt lat="44.2445374" lon="8.2391954"><ele>944.0</ele><time>2026-05-02T13:29:17.173Z</time></trkpt><trkpt lat="44.2445387" lon="8.2393807"><ele>943.0</ele><time>2026-05-02T13:29:18.174Z</time></trkpt><trkpt lat="44.2445327" lon="8.2395751"><ele>942.0</ele><time>2026-05-02T13:29:19.178Z</time></trkpt><trkpt lat="44.2445361" lon="8.239768"><ele>941.0</ele><time>2026-05-02T13:29:20.173Z</time></trkpt><trkpt lat="44.2445425" lon="8.2399546"><ele>940.0</ele><time>2026-05-02T13:29:21.18Z</time></trkpt><trkpt lat="44.2445353" lon="8.2401252"><ele>938.75</ele><time>2026-05-02T13:29:22.181Z</time></trkpt><trkpt lat="44.2445304" lon="8.240291"><ele>937.5</ele><time>2026-05-02T13:29:23.179Z</time></trkpt><trkpt lat="44.2445313" lon="8.2404496"><ele>936.25</ele><time>2026-05-02T13:29:24.192Z</time></trkpt><trkpt lat="44.2445336" lon="8.2406084"><ele>935.0</ele><time>2026-05-02T13:29:25.189Z</time></trkpt><trkpt lat="44.2445227" lon="8.240774"><ele>933.75</ele><time>2026-05-02T13:29:26.194Z</time></trkpt><trkpt lat="44.2445107" lon="8.2409418"><ele>932.5</ele><time>2026-05-02T13:29:27.192Z</time></trkpt><trkpt lat="44.2444948" lon="8.2411095"><ele>931.25</ele><time>2026-05-02T13:29:28.187Z</time></trkpt><trkpt lat="44.2444789" lon="8.2412682"><ele>930.0</ele><time>2026-05-02T13:29:29.188Z</time></trkpt><trkpt lat="44.244459" lon="8.2414189"><ele>930.2</ele><time>2026-05-02T13:29:30.19Z</time></trkpt><trkpt lat="44.2444333" lon="8.2415623"><ele>930.4</ele><time>2026-05-02T13:29:31.195Z</time></trkpt><trkpt lat="44.244407" lon="8.2416995"><ele>930.5999999999999</ele><time>2026-05-02T13:29:32.193Z</time></trkpt><trkpt lat="44.2443802" lon="8.2418304"><ele>930.8</ele><time>2026-05-02T13:29:33.192Z</time></trkpt><trkpt lat="44.2443446" lon="8.2419608"><ele>931.0</ele><time>2026-05-02T13:29:34.185Z</time></trkpt><trkpt lat="44.2443068" lon="8.2420895"><ele>931.0</ele><time>2026-05-02T13:29:35.189Z</time></trkpt><trkpt lat="44.244263" lon="8.2422181"><ele>930.9999999999999</ele><time>2026-05-02T13:29:36.197Z</time></trkpt><trkpt lat="44.2442199" lon="8.242339"><ele>930.9999999999999</ele><time>2026-05-02T13:29:37.191Z</time></trkpt><trkpt lat="44.2441803" lon="8.2424567"><ele>931.0</ele><time>2026-05-02T13:29:38.188Z</time></trkpt><trkpt lat="44.244146" lon="8.2425694"><ele>931.0</ele><time>2026-05-02T13:29:39.192Z</time></trkpt><trkpt lat="44.2441156" lon="8.2426838"><ele>932.1999999999999</ele><time>2026-05-02T13:29:40.188Z</time></trkpt><trkpt lat="44.2440872" lon="8.2428051"><ele>933.3999999999999</ele><time>2026-05-02T13:29:41.185Z</time></trkpt><trkpt lat="44.2440608" lon="8.242935"><ele>934.6</ele><time>2026-05-02T13:29:42.18Z</time></trkpt><trkpt lat="44.2440311" lon="8.2430786"><ele>935.8</ele><time>2026-05-02T13:29:43.176Z</time></trkpt><trkpt lat="44.2440016" lon="8.2432289"><ele>937.0</ele><time>2026-05-02T13:29:44.18Z</time></trkpt><trkpt lat="44.2439726" lon="8.2433915"><ele>932.75</ele><time>2026-05-02T13:29:45.182Z</time></trkpt><trkpt lat="44.2439498" lon="8.2435619"><ele>928.5</ele><time>2026-05-02T13:29:46.162Z</time></trkpt><trkpt lat="44.2439306" lon="8.2437418"><ele>924.25</ele><time>2026-05-02T13:29:47.177Z</time></trkpt><trkpt lat="44.2439199" lon="8.243929"><ele>920.0</ele><time>2026-05-02T13:29:48.171Z</time></trkpt><trkpt lat="44.243916" lon="8.2441211"><ele>920.0</ele><time>2026-05-02T13:29:49.169Z</time></trkpt><trkpt lat="44.2439102" lon="8.2443134"><ele>920.0</ele><time>2026-05-02T13:29:50.176Z</time></trkpt><trkpt lat="44.243909" lon="8.2445036"><ele>920.0</ele><time>2026-05-02T13:29:51.176Z</time></trkpt><trkpt lat="44.2439124" lon="8.2446939"><ele>920.0</ele><time>2026-05-02T13:29:52.184Z</time></trkpt><trkpt lat="44.2439209" lon="8.2448842"><ele>920.25</ele><time>2026-05-02T13:29:53.186Z</time></trkpt><trkpt lat="44.2439299" lon="8.2450702"><ele>920.5</ele><time>2026-05-02T13:29:54.176Z</time></trkpt><trkpt lat="44.2439543" lon="8.2452549"><ele>920.75</ele><time>2026-05-02T13:29:55.181Z</time></trkpt><trkpt lat="44.2439839" lon="8.2454365"><ele>921.0</ele><time>2026-05-02T13:29:56.163Z</time></trkpt><trkpt lat="44.2440189" lon="8.2456249"><ele>931.0</ele><time>2026-05-02T13:29:57.182Z</time></trkpt><trkpt lat="44.2440558" lon="8.2458188"><ele>941.0</ele><time>2026-05-02T13:29:58.181Z</time></trkpt><trkpt lat="44.2440848" lon="8.246025"><ele>951.0</ele><time>2026-05-02T13:29:59.177Z</time></trkpt><trkpt lat="44.2441143" lon="8.2462526"><ele>950.6666666666667</ele><time>2026-05-02T13:30:00.187Z</time></trkpt><trkpt lat="44.2441358" lon="8.2464703"><ele>950.3333333333334</ele><time>2026-05-02T13:30:01.185Z</time></trkpt><trkpt lat="44.2441451" lon="8.2466935"><ele>950.0</ele><time>2026-05-02T13:30:02.189Z</time></trkpt><trkpt lat="44.2441506" lon="8.2469292"><ele>950.0</ele><time>2026-05-02T13:30:03.174Z</time></trkpt><trkpt lat="44.2441696" lon="8.2471571"><ele>950.0</ele><time>2026-05-02T13:30:04.176Z</time></trkpt><trkpt lat="44.2442151" lon="8.2473678"><ele>950.0</ele><time>2026-05-02T13:30:05.19Z</time></trkpt><trkpt lat="44.2442418" lon="8.2475842"><ele>950.3333333333334</ele><time>2026-05-02T13:30:06.19Z</time></trkpt><trkpt lat="44.2442799" lon="8.2477971"><ele>950.6666666666667</ele><time>2026-05-02T13:30:07.179Z</time></trkpt><trkpt lat="44.2443208" lon="8.248007"><ele>951.0</ele><time>2026-05-02T13:30:08.184Z</time></trkpt><trkpt lat="44.2443676" lon="8.2481952"><ele>949.25</ele><time>2026-05-02T13:30:09.178Z</time></trkpt><trkpt lat="44.2444381" lon="8.2483789"><ele>947.5</ele><time>2026-05-02T13:30:10.186Z</time></trkpt><trkpt lat="44.2445328" lon="8.2485418"><ele>945.75</ele><time>2026-05-02T13:30:11.173Z</time></trkpt><trkpt lat="44.2446451" lon="8.2486761"><ele>944.0</ele><time>2026-05-02T13:30:12.171Z</time></trkpt><trkpt lat="44.2447927" lon="8.2487829"><ele>946.3333333333334</ele><time>2026-05-02T13:30:13.175Z</time></trkpt><trkpt lat="44.2449502" lon="8.2488652"><ele>948.6666666666667</ele><time>2026-05-02T13:30:14.179Z</time></trkpt><trkpt lat="44.2450896" lon="8.2489821"><ele>951.0</ele><time>2026-05-02T13:30:15.179Z</time></trkpt><trkpt lat="44.2452134" lon="8.2491313"><ele>951.0</ele><time>2026-05-02T13:30:16.18Z</time></trkpt><trkpt lat="44.2453082" lon="8.2493022"><ele>951.0</ele><time>2026-05-02T13:30:17.174Z</time></trkpt><trkpt lat="44.2454031" lon="8.2494789"><ele>951.0</ele><time>2026-05-02T13:30:18.181Z</time></trkpt><trkpt lat="44.2454892" lon="8.2496481"><ele>948.6666666666667</ele><time>2026-05-02T13:30:19.177Z</time></trkpt><trkpt lat="44.2455856" lon="8.2498276"><ele>946.3333333333334</ele><time>2026-05-02T13:30:20.179Z</time></trkpt><trkpt lat="44.2456823" lon="8.2500112"><ele>944.0</ele><time>2026-05-02T13:30:21.185Z</time></trkpt><trkpt lat="44.2457837" lon="8.2501912"><ele>946.6666666666667</ele><time>2026-05-02T13:30:22.173Z</time></trkpt><trkpt lat="44.2458795" lon="8.2503793"><ele>949.3333333333333</ele><time>2026-05-02T13:30:23.184Z</time></trkpt><trkpt lat="44.2459775" lon="8.2505565"><ele>952.0</ele><time>2026-05-02T13:30:24.179Z</time></trkpt><trkpt lat="44.2460634" lon="8.2507346"><ele>952.0</ele><time>2026-05-02T13:30:25.18Z</time></trkpt><trkpt lat="44.2461362" lon="8.250908"><ele>952.0</ele><time>2026-05-02T13:30:26.169Z</time></trkpt><trkpt lat="44.2462099" lon="8.2511088"><ele>952.0</ele><time>2026-05-02T13:30:27.164Z</time></trkpt><trkpt lat="44.2462516" lon="8.2513084"><ele>949.75</ele><time>2026-05-02T13:30:28.172Z</time></trkpt><trkpt lat="44.2462794" lon="8.2515223"><ele>947.5</ele><time>2026-05-02T13:30:29.181Z</time></trkpt><trkpt lat="44.246309" lon="8.2517245"><ele>945.25</ele><time>2026-05-02T13:30:30.179Z</time></trkpt><trkpt lat="44.2463543" lon="8.2519075"><ele>943.0</ele><time>2026-05-02T13:30:31.178Z</time></trkpt><trkpt lat="44.2464291" lon="8.2520628"><ele>945.25</ele><time>2026-05-02T13:30:32.173Z</time></trkpt><trkpt lat="44.2465265" lon="8.2522014"><ele>947.5</ele><time>2026-05-02T13:30:33.17Z</time></trkpt><trkpt lat="44.2466411" lon="8.252335"><ele>949.75</ele><time>2026-05-02T13:30:34.172Z</time></trkpt><trkpt lat="44.2467354" lon="8.2524933"><ele>952.0</ele><time>2026-05-02T13:30:35.164Z</time></trkpt><trkpt lat="44.2468269" lon="8.2526375"><ele>952.0</ele><time>2026-05-02T13:30:36.168Z</time></trkpt><trkpt lat="44.2468987" lon="8.2527941"><ele>952.0</ele><time>2026-05-02T13:30:37.171Z</time></trkpt><trkpt lat="44.2469665" lon="8.2529769"><ele>952.0</ele><time>2026-05-02T13:30:38.164Z</time></trkpt><trkpt lat="44.2469825" lon="8.2531914"><ele>952.0</ele><time>2026-05-02T13:30:39.165Z</time></trkpt><trkpt lat="44.2469536" lon="8.2533834"><ele>950.6666666666666</ele><time>2026-05-02T13:30:40.155Z</time></trkpt><trkpt lat="44.2469185" lon="8.2535861"><ele>949.3333333333333</ele><time>2026-05-02T13:30:41.157Z</time></trkpt><trkpt lat="44.246886" lon="8.2538039"><ele>948.0</ele><time>2026-05-02T13:30:42.152Z</time></trkpt><trkpt lat="44.2468557" lon="8.2540256"><ele>948.0</ele><time>2026-05-02T13:30:43.156Z</time></trkpt><trkpt lat="44.2468149" lon="8.2542501"><ele>948.0</ele><time>2026-05-02T13:30:44.154Z</time></trkpt><trkpt lat="44.2467857" lon="8.2544574"><ele>948.0</ele><time>2026-05-02T13:30:45.155Z</time></trkpt><trkpt lat="44.2467876" lon="8.2546512"><ele>947.0</ele><time>2026-05-02T13:30:46.149Z</time></trkpt><trkpt lat="44.2468302" lon="8.2548189"><ele>946.0</ele><time>2026-05-02T13:30:47.15Z</time></trkpt><trkpt lat="44.2469211" lon="8.2549601"><ele>945.0</ele><time>2026-05-02T13:30:48.138Z</time></trkpt><trkpt lat="44.2470241" lon="8.2550798"><ele>944.0</ele><time>2026-05-02T13:30:49.151Z</time></trkpt><trkpt lat="44.2470971" lon="8.2551762"><ele>944.0</ele><time>2026-05-02T13:30:50.151Z</time></trkpt><trkpt lat="44.2471553" lon="8.2553175"><ele>944.0</ele><time>2026-05-02T13:30:51.157Z</time></trkpt><trkpt lat="44.2471846" lon="8.2554782"><ele>944.0</ele><time>2026-05-02T13:30:52.152Z</time></trkpt><trkpt lat="44.2471995" lon="8.2556509"><ele>944.0</ele><time>2026-05-02T13:30:53.159Z</time></trkpt><trkpt lat="44.2471747" lon="8.255815"><ele>943.5</ele><time>2026-05-02T13:30:54.162Z</time></trkpt><trkpt lat="44.2471203" lon="8.2559929"><ele>943.0</ele><time>2026-05-02T13:30:55.154Z</time></trkpt><trkpt lat="44.2470674" lon="8.2561664"><ele>942.5</ele><time>2026-05-02T13:30:56.155Z</time></trkpt><trkpt lat="44.2470066" lon="8.2563501"><ele>942.0</ele><time>2026-05-02T13:30:57.157Z</time></trkpt><trkpt lat="44.2469579" lon="8.2565487"><ele>942.0</ele><time>2026-05-02T13:30:58.158Z</time></trkpt><trkpt lat="44.2469201" lon="8.2567714"><ele>942.0</ele><time>2026-05-02T13:30:59.166Z</time></trkpt><trkpt lat="44.2469226" lon="8.2570076"><ele>942.0</ele><time>2026-05-02T13:31:00.147Z</time></trkpt><trkpt lat="44.2469294" lon="8.2572483"><ele>941.0</ele><time>2026-05-02T13:31:01.161Z</time></trkpt><trkpt lat="44.2469337" lon="8.2574695"><ele>940.0</ele><time>2026-05-02T13:31:02.152Z</time></trkpt><trkpt lat="44.246957" lon="8.2576874"><ele>939.0</ele><time>2026-05-02T13:31:03.149Z</time></trkpt><trkpt lat="44.246964" lon="8.257921"><ele>937.0</ele><time>2026-05-02T13:31:04.16Z</time></trkpt><trkpt lat="44.2470003" lon="8.2581693"><ele>935.0</ele><time>2026-05-02T13:31:05.155Z</time></trkpt><trkpt lat="44.2470477" lon="8.2584043"><ele>933.0</ele><time>2026-05-02T13:31:06.164Z</time></trkpt><trkpt lat="44.2471023" lon="8.2586522"><ele>933.0</ele><time>2026-05-02T13:31:07.16Z</time></trkpt><trkpt lat="44.2471553" lon="8.2588834"><ele>933.0</ele><time>2026-05-02T13:31:08.162Z</time></trkpt><trkpt lat="44.2472224" lon="8.2591209"><ele>933.0</ele><time>2026-05-02T13:31:09.166Z</time></trkpt><trkpt lat="44.2472772" lon="8.2593697"><ele>938.0</ele><time>2026-05-02T13:31:10.157Z</time></trkpt><trkpt lat="44.2473047" lon="8.2596169"><ele>943.0</ele><time>2026-05-02T13:31:11.158Z</time></trkpt><trkpt lat="44.2473069" lon="8.2598493"><ele>948.0</ele><time>2026-05-02T13:31:12.162Z</time></trkpt><trkpt lat="44.2473124" lon="8.2601063"><ele>948.0</ele><time>2026-05-02T13:31:13.164Z</time></trkpt><trkpt lat="44.2473325" lon="8.2603502"><ele>948.0</ele><time>2026-05-02T13:31:14.16Z</time></trkpt><trkpt lat="44.247375" lon="8.2605828"><ele>948.0</ele><time>2026-05-02T13:31:15.163Z</time></trkpt><trkpt lat="44.2474163" lon="8.2608068"><ele>947.0</ele><time>2026-05-02T13:31:16.166Z</time></trkpt><trkpt lat="44.2474534" lon="8.2610278"><ele>946.0</ele><time>2026-05-02T13:31:17.168Z</time></trkpt><trkpt lat="44.2474825" lon="8.2612096"><ele>945.0</ele><time>2026-05-02T13:31:18.167Z</time></trkpt><trkpt lat="44.2474892" lon="8.2613956"><ele>944.0</ele><time>2026-05-02T13:31:19.163Z</time></trkpt><trkpt lat="44.2474909" lon="8.2615771"><ele>943.75</ele><time>2026-05-02T13:31:20.163Z</time></trkpt><trkpt lat="44.2474506" lon="8.2617697"><ele>943.5</ele><time>2026-05-02T13:31:21.168Z</time></trkpt><trkpt lat="44.2473966" lon="8.2619409"><ele>943.25</ele><time>2026-05-02T13:31:22.17Z</time></trkpt><trkpt lat="44.2473318" lon="8.2620996"><ele>943.0</ele><time>2026-05-02T13:31:23.171Z</time></trkpt><trkpt lat="44.2472738" lon="8.2622587"><ele>939.75</ele><time>2026-05-02T13:31:24.164Z</time></trkpt><trkpt lat="44.2472054" lon="8.2623898"><ele>936.5</ele><time>2026-05-02T13:31:25.178Z</time></trkpt><trkpt lat="44.2471328" lon="8.2625244"><ele>933.25</ele><time>2026-05-02T13:31:26.17Z</time></trkpt><trkpt lat="44.2470553" lon="8.2626573"><ele>930.0</ele><time>2026-05-02T13:31:27.169Z</time></trkpt><trkpt lat="44.246971" lon="8.2627836"><ele>930.0</ele><time>2026-05-02T13:31:28.165Z</time></trkpt><trkpt lat="44.2468843" lon="8.2629068"><ele>930.0</ele><time>2026-05-02T13:31:29.169Z</time></trkpt><trkpt lat="44.2467957" lon="8.2630277"><ele>930.0</ele><time>2026-05-02T13:31:30.165Z</time></trkpt><trkpt lat="44.2467015" lon="8.2631536"><ele>930.0</ele><time>2026-05-02T13:31:31.171Z</time></trkpt><trkpt lat="44.2466057" lon="8.2632819"><ele>933.25</ele><time>2026-05-02T13:31:32.171Z</time></trkpt><trkpt lat="44.2465184" lon="8.2634173"><ele>936.5</ele><time>2026-05-02T13:31:33.17Z</time></trkpt><trkpt lat="44.2464351" lon="8.26356"><ele>939.75</ele><time>2026-05-02T13:31:34.167Z</time></trkpt><trkpt lat="44.2463606" lon="8.2637108"><ele>943.0</ele><time>2026-05-02T13:31:35.162Z</time></trkpt><trkpt lat="44.2462933" lon="8.2638527"><ele>938.75</ele><time>2026-05-02T13:31:36.166Z</time></trkpt><trkpt lat="44.2462305" lon="8.2640005"><ele>934.5</ele><time>2026-05-02T13:31:37.161Z</time></trkpt><trkpt lat="44.246169" lon="8.2641685"><ele>930.25</ele><time>2026-05-02T13:31:38.163Z</time></trkpt><trkpt lat="44.2461024" lon="8.2643369"><ele>926.0</ele><time>2026-05-02T13:31:39.156Z</time></trkpt><trkpt lat="44.246026" lon="8.2645129"><ele>926.0</ele><time>2026-05-02T13:31:40.169Z</time></trkpt><trkpt lat="44.2459611" lon="8.2646652"><ele>926.0</ele><time>2026-05-02T13:31:41.167Z</time></trkpt><trkpt lat="44.2458961" lon="8.264823"><ele>926.0</ele><time>2026-05-02T13:31:42.167Z</time></trkpt><trkpt lat="44.2458292" lon="8.2649865"><ele>926.0</ele><time>2026-05-02T13:31:43.17Z</time></trkpt><trkpt lat="44.2457606" lon="8.2651684"><ele>928.25</ele><time>2026-05-02T13:31:44.168Z</time></trkpt><trkpt lat="44.2456968" lon="8.2653389"><ele>930.5</ele><time>2026-05-02T13:31:45.174Z</time></trkpt><trkpt lat="44.2456183" lon="8.2655105"><ele>932.75</ele><time>2026-05-02T13:31:46.169Z</time></trkpt><trkpt lat="44.2455484" lon="8.2656743"><ele>935.0</ele><time>2026-05-02T13:31:47.173Z</time></trkpt><trkpt lat="44.2454956" lon="8.2658401"><ele>929.5</ele><time>2026-05-02T13:31:48.163Z</time></trkpt><trkpt lat="44.2454777" lon="8.2660205"><ele>924.0</ele><time>2026-05-02T13:31:49.168Z</time></trkpt><trkpt lat="44.2454936" lon="8.266212"><ele>918.5</ele><time>2026-05-02T13:31:50.162Z</time></trkpt><trkpt lat="44.2454964" lon="8.2664034"><ele>913.0</ele><time>2026-05-02T13:31:51.168Z</time></trkpt><trkpt lat="44.2454979" lon="8.2665921"><ele>913.0</ele><time>2026-05-02T13:31:52.172Z</time></trkpt><trkpt lat="44.24548" lon="8.2667698"><ele>913.0</ele><time>2026-05-02T13:31:53.163Z</time></trkpt><trkpt lat="44.2454446" lon="8.2669262"><ele>913.0</ele><time>2026-05-02T13:31:54.169Z</time></trkpt><trkpt lat="44.2453802" lon="8.267097"><ele>913.0</ele><time>2026-05-02T13:31:55.165Z</time></trkpt><trkpt lat="44.2453076" lon="8.2672678"><ele>914.6666666666666</ele><time>2026-05-02T13:31:56.16Z</time></trkpt><trkpt lat="44.245209" lon="8.2674372"><ele>916.3333333333333</ele><time>2026-05-02T13:31:57.164Z</time></trkpt><trkpt lat="44.2451059" lon="8.2675948"><ele>918.0</ele><time>2026-05-02T13:31:58.169Z</time></trkpt><trkpt lat="44.2449892" lon="8.267725"><ele>918.0</ele><time>2026-05-02T13:31:59.165Z</time></trkpt><trkpt lat="44.2448651" lon="8.2677919"><ele>918.0</ele><time>2026-05-02T13:32:00.162Z</time></trkpt><trkpt lat="44.2447112" lon="8.2678248"><ele>918.0</ele><time>2026-05-02T13:32:01.163Z</time></trkpt><trkpt lat="44.2445853" lon="8.2678672"><ele>918.0</ele><time>2026-05-02T13:32:02.159Z</time></trkpt><trkpt lat="44.2444752" lon="8.2679443"><ele>914.0</ele><time>2026-05-02T13:32:03.158Z</time></trkpt><trkpt lat="44.2443861" lon="8.2680366"><ele>910.0</ele><time>2026-05-02T13:32:04.16Z</time></trkpt><trkpt lat="44.2442957" lon="8.2681655"><ele>906.0</ele><time>2026-05-02T13:32:05.158Z</time></trkpt><trkpt lat="44.2442144" lon="8.2683295"><ele>902.0</ele><time>2026-05-02T13:32:06.156Z</time></trkpt><trkpt lat="44.2441533" lon="8.2684912"><ele>902.0</ele><time>2026-05-02T13:32:07.154Z</time></trkpt><trkpt lat="44.2441012" lon="8.2686772"><ele>902.0</ele><time>2026-05-02T13:32:08.155Z</time></trkpt><trkpt lat="44.2440384" lon="8.2688501"><ele>902.0</ele><time>2026-05-02T13:32:09.161Z</time></trkpt><trkpt lat="44.243952" lon="8.2690211"><ele>902.0</ele><time>2026-05-02T13:32:10.16Z</time></trkpt><trkpt lat="44.2438749" lon="8.2691833"><ele>900.25</ele><time>2026-05-02T13:32:11.163Z</time></trkpt><trkpt lat="44.2437883" lon="8.2693392"><ele>898.5</ele><time>2026-05-02T13:32:12.155Z</time></trkpt><trkpt lat="44.2437122" lon="8.2694976"><ele>896.75</ele><time>2026-05-02T13:32:13.16Z</time></trkpt><trkpt lat="44.2436159" lon="8.2696558"><ele>895.0</ele><time>2026-05-02T13:32:14.158Z</time></trkpt><trkpt lat="44.2434987" lon="8.2697819"><ele>895.0</ele><time>2026-05-02T13:32:15.151Z</time></trkpt><trkpt lat="44.2433714" lon="8.2698987"><ele>895.0</ele><time>2026-05-02T13:32:16.162Z</time></trkpt><trkpt lat="44.2432446" lon="8.2700285"><ele>895.0</ele><time>2026-05-02T13:32:17.153Z</time></trkpt><trkpt lat="44.2431179" lon="8.2701497"><ele>893.25</ele><time>2026-05-02T13:32:18.152Z</time></trkpt><trkpt lat="44.243007" lon="8.2702839"><ele>891.5</ele><time>2026-05-02T13:32:19.156Z</time></trkpt><trkpt lat="44.2429038" lon="8.2703998"><ele>889.75</ele><time>2026-05-02T13:32:20.156Z</time></trkpt><trkpt lat="44.2427874" lon="8.2705521"><ele>888.0</ele><time>2026-05-02T13:32:21.161Z</time></trkpt><trkpt lat="44.2426871" lon="8.2707007"><ele>888.0</ele><time>2026-05-02T13:32:22.157Z</time></trkpt><trkpt lat="44.242572" lon="8.2708363"><ele>888.0</ele><time>2026-05-02T13:32:23.159Z</time></trkpt><trkpt lat="44.2424246" lon="8.2709499"><ele>888.0</ele><time>2026-05-02T13:32:24.161Z</time></trkpt><trkpt lat="44.2422701" lon="8.2710136"><ele>884.25</ele><time>2026-05-02T13:32:25.166Z</time></trkpt><trkpt lat="44.2421213" lon="8.2710201"><ele>880.5</ele><time>2026-05-02T13:32:26.16Z</time></trkpt><trkpt lat="44.2419717" lon="8.2710407"><ele>876.75</ele><time>2026-05-02T13:32:27.16Z</time></trkpt><trkpt lat="44.2418303" lon="8.2710932"><ele>873.0</ele><time>2026-05-02T13:32:28.158Z</time></trkpt><trkpt lat="44.2416985" lon="8.2711664"><ele>873.0</ele><time>2026-05-02T13:32:29.155Z</time></trkpt><trkpt lat="44.2415762" lon="8.2712784"><ele>873.0</ele><time>2026-05-02T13:32:30.16Z</time></trkpt><trkpt lat="44.2414728" lon="8.2714215"><ele>873.0</ele><time>2026-05-02T13:32:31.171Z</time></trkpt><trkpt lat="44.241357" lon="8.2715422"><ele>873.0</ele><time>2026-05-02T13:32:32.156Z</time></trkpt><trkpt lat="44.2412515" lon="8.2716624"><ele>871.25</ele><time>2026-05-02T13:32:33.156Z</time></trkpt><trkpt lat="44.2411514" lon="8.2718088"><ele>869.5</ele><time>2026-05-02T13:32:34.159Z</time></trkpt><trkpt lat="44.2410544" lon="8.2719684"><ele>867.75</ele><time>2026-05-02T13:32:35.164Z</time></trkpt><trkpt lat="44.2409517" lon="8.2721272"><ele>866.0</ele><time>2026-05-02T13:32:36.159Z</time></trkpt><trkpt lat="44.2408569" lon="8.2722815"><ele>863.3333333333334</ele><time>2026-05-02T13:32:37.162Z</time></trkpt><trkpt lat="44.2407474" lon="8.27242"><ele>860.6666666666667</ele><time>2026-05-02T13:32:38.162Z</time></trkpt><trkpt lat="44.2406301" lon="8.2725455"><ele>858.0</ele><time>2026-05-02T13:32:39.163Z</time></trkpt><trkpt lat="44.240499" lon="8.2726625"><ele>858.0</ele><time>2026-05-02T13:32:40.165Z</time></trkpt><trkpt lat="44.2403644" lon="8.2727852"><ele>858.0</ele><time>2026-05-02T13:32:41.147Z</time></trkpt><trkpt lat="44.2402432" lon="8.2729055"><ele>858.0</ele><time>2026-05-02T13:32:42.167Z</time></trkpt><trkpt lat="44.2401182" lon="8.2730499"><ele>861.25</ele><time>2026-05-02T13:32:43.161Z</time></trkpt><trkpt lat="44.2399866" lon="8.2731769"><ele>864.5</ele><time>2026-05-02T13:32:44.161Z</time></trkpt><trkpt lat="44.239869" lon="8.2732893"><ele>867.75</ele><time>2026-05-02T13:32:45.156Z</time></trkpt><trkpt lat="44.2397641" lon="8.2734092"><ele>871.0</ele><time>2026-05-02T13:32:46.152Z</time></trkpt><trkpt lat="44.2396681" lon="8.2735532"><ele>866.25</ele><time>2026-05-02T13:32:47.155Z</time></trkpt><trkpt lat="44.2395897" lon="8.2737036"><ele>861.5</ele><time>2026-05-02T13:32:48.162Z</time></trkpt><trkpt lat="44.2395073" lon="8.2738767"><ele>856.75</ele><time>2026-05-02T13:32:49.155Z</time></trkpt><trkpt lat="44.239418" lon="8.2740603"><ele>852.0</ele><time>2026-05-02T13:32:50.161Z</time></trkpt><trkpt lat="44.2393216" lon="8.274248"><ele>852.0</ele><time>2026-05-02T13:32:51.163Z</time></trkpt><trkpt lat="44.2392149" lon="8.2744235"><ele>852.0</ele><time>2026-05-02T13:32:52.165Z</time></trkpt><trkpt lat="44.2391193" lon="8.2745806"><ele>852.0</ele><time>2026-05-02T13:32:53.166Z</time></trkpt><trkpt lat="44.2390253" lon="8.2747414"><ele>847.75</ele><time>2026-05-02T13:32:54.17Z</time></trkpt><trkpt lat="44.2389419" lon="8.2748963"><ele>843.5</ele><time>2026-05-02T13:32:55.169Z</time></trkpt><trkpt lat="44.2388615" lon="8.275057"><ele>839.25</ele><time>2026-05-02T13:32:56.168Z</time></trkpt><trkpt lat="44.2387704" lon="8.275198"><ele>835.0</ele><time>2026-05-02T13:32:57.175Z</time></trkpt><trkpt lat="44.238668" lon="8.2753168"><ele>835.0</ele><time>2026-05-02T13:32:58.172Z</time></trkpt><trkpt lat="44.2385618" lon="8.2754398"><ele>835.0</ele><time>2026-05-02T13:32:59.176Z</time></trkpt><trkpt lat="44.2384758" lon="8.2755404"><ele>835.0</ele><time>2026-05-02T13:33:00.164Z</time></trkpt><trkpt lat="44.2384085" lon="8.2756463"><ele>835.0</ele><time>2026-05-02T13:33:01.162Z</time></trkpt><trkpt lat="44.2383525" lon="8.2757558"><ele>835.0</ele><time>2026-05-02T13:33:02.162Z</time></trkpt><trkpt lat="44.2382947" lon="8.2758771"><ele>836.4</ele><time>2026-05-02T13:33:03.169Z</time></trkpt><trkpt lat="44.2382392" lon="8.2760067"><ele>837.8</ele><time>2026-05-02T13:33:04.161Z</time></trkpt><trkpt lat="44.2381901" lon="8.276142"><ele>839.2</ele><time>2026-05-02T13:33:05.163Z</time></trkpt><trkpt lat="44.2381493" lon="8.2762513"><ele>840.6</ele><time>2026-05-02T13:33:06.156Z</time></trkpt><trkpt lat="44.238133" lon="8.2763607"><ele>842.0</ele><time>2026-05-02T13:33:07.159Z</time></trkpt><trkpt lat="44.2381276" lon="8.2764606"><ele>840.0000000000001</ele><time>2026-05-02T13:33:08.161Z</time></trkpt><trkpt lat="44.2381431" lon="8.2765531"><ele>838.0</ele><time>2026-05-02T13:33:09.156Z</time></trkpt><trkpt lat="44.23818" lon="8.2766359"><ele>836.0</ele><time>2026-05-02T13:33:10.15Z</time></trkpt><trkpt lat="44.2382267" lon="8.2767109"><ele>834.0</ele><time>2026-05-02T13:33:11.153Z</time></trkpt><trkpt lat="44.2382803" lon="8.2767675"><ele>832.0000000000001</ele><time>2026-05-02T13:33:12.156Z</time></trkpt><trkpt lat="44.2384165" lon="8.2768237"><ele>830.0</ele><time>2026-05-02T13:33:14.155Z</time></trkpt><trkpt lat="44.2384932" lon="8.276821"><ele>830.0</ele><time>2026-05-02T13:33:15.152Z</time></trkpt><trkpt lat="44.2385848" lon="8.2768048"><ele>830.0</ele><time>2026-05-02T13:33:16.149Z</time></trkpt><trkpt lat="44.2386889" lon="8.2767746"><ele>830.0</ele><time>2026-05-02T13:33:17.16Z</time></trkpt><trkpt lat="44.2388179" lon="8.2767502"><ele>830.0</ele><time>2026-05-02T13:33:18.15Z</time></trkpt><trkpt lat="44.2389453" lon="8.2767251"><ele>831.75</ele><time>2026-05-02T13:33:19.16Z</time></trkpt><trkpt lat="44.2390871" lon="8.2767222"><ele>833.5</ele><time>2026-05-02T13:33:20.16Z</time></trkpt><trkpt lat="44.2392308" lon="8.2767673"><ele>835.25</ele><time>2026-05-02T13:33:21.153Z</time></trkpt><trkpt lat="44.239366" lon="8.2768469"><ele>837.0</ele><time>2026-05-02T13:33:22.147Z</time></trkpt><trkpt lat="44.2394918" lon="8.2769609"><ele>837.0</ele><time>2026-05-02T13:33:23.155Z</time></trkpt><trkpt lat="44.2396171" lon="8.2771088"><ele>837.0</ele><time>2026-05-02T13:33:24.161Z</time></trkpt><trkpt lat="44.2397209" lon="8.2772599"><ele>837.0</ele><time>2026-05-02T13:33:25.163Z</time></trkpt><trkpt lat="44.2398235" lon="8.2774121"><ele>834.5</ele><time>2026-05-02T13:33:26.164Z</time></trkpt><trkpt lat="44.239925" lon="8.2775511"><ele>832.0</ele><time>2026-05-02T13:33:27.152Z</time></trkpt><trkpt lat="44.240023" lon="8.2776695"><ele>829.5</ele><time>2026-05-02T13:33:28.155Z</time></trkpt><trkpt lat="44.2401281" lon="8.2777872"><ele>827.0</ele><time>2026-05-02T13:33:29.157Z</time></trkpt><trkpt lat="44.2402319" lon="8.2779061"><ele>827.0</ele><time>2026-05-02T13:33:30.162Z</time></trkpt><trkpt lat="44.2403293" lon="8.2780088"><ele>827.0</ele><time>2026-05-02T13:33:31.169Z</time></trkpt><trkpt lat="44.240426" lon="8.2780924"><ele>827.0</ele><time>2026-05-02T13:33:32.17Z</time></trkpt><trkpt lat="44.2405183" lon="8.278169"><ele>827.0</ele><time>2026-05-02T13:33:33.166Z</time></trkpt><trkpt lat="44.2406109" lon="8.2782463"><ele>827.4000000000001</ele><time>2026-05-02T13:33:34.167Z</time></trkpt><trkpt lat="44.2406785" lon="8.2783349"><ele>827.8000000000001</ele><time>2026-05-02T13:33:35.16Z</time></trkpt><trkpt lat="44.240734" lon="8.2784312"><ele>828.2</ele><time>2026-05-02T13:33:36.168Z</time></trkpt><trkpt lat="44.2407812" lon="8.27854"><ele>828.6</ele><time>2026-05-02T13:33:37.164Z</time></trkpt><trkpt lat="44.2408445" lon="8.278667"><ele>829.0</ele><time>2026-05-02T13:33:38.165Z</time></trkpt><trkpt lat="44.2409134" lon="8.2787967"><ele>829.0</ele><time>2026-05-02T13:33:39.169Z</time></trkpt><trkpt lat="44.2409838" lon="8.2789183"><ele>829.0</ele><time>2026-05-02T13:33:40.166Z</time></trkpt><trkpt lat="44.241041" lon="8.2790578"><ele>829.0</ele><time>2026-05-02T13:33:41.168Z</time></trkpt><trkpt lat="44.2410824" lon="8.2792139"><ele>829.0</ele><time>2026-05-02T13:33:42.166Z</time></trkpt><trkpt lat="44.2410989" lon="8.2793848"><ele>824.75</ele><time>2026-05-02T13:33:43.161Z</time></trkpt><trkpt lat="44.2410884" lon="8.2795559"><ele>820.5</ele><time>2026-05-02T13:33:44.168Z</time></trkpt><trkpt lat="44.2410464" lon="8.2797525"><ele>816.25</ele><time>2026-05-02T13:33:45.149Z</time></trkpt><trkpt lat="44.2410107" lon="8.2799452"><ele>812.0</ele><time>2026-05-02T13:33:46.149Z</time></trkpt><trkpt lat="44.2409918" lon="8.2801409"><ele>810.4000000000001</ele><time>2026-05-02T13:33:47.145Z</time></trkpt><trkpt lat="44.2409608" lon="8.2803168"><ele>808.8000000000001</ele><time>2026-05-02T13:33:48.151Z</time></trkpt><trkpt lat="44.2409567" lon="8.280469"><ele>807.2</ele><time>2026-05-02T13:33:49.151Z</time></trkpt><trkpt lat="44.2409663" lon="8.2806072"><ele>805.6</ele><time>2026-05-02T13:33:50.157Z</time></trkpt><trkpt lat="44.2409952" lon="8.2807143"><ele>804.0</ele><time>2026-05-02T13:33:51.156Z</time></trkpt><trkpt lat="44.2410441" lon="8.280791"><ele>799.75</ele><time>2026-05-02T13:33:52.16Z</time></trkpt><trkpt lat="44.241104" lon="8.2808577"><ele>795.5</ele><time>2026-05-02T13:33:53.158Z</time></trkpt><trkpt lat="44.241198" lon="8.280925"><ele>791.25</ele><time>2026-05-02T13:33:54.167Z</time></trkpt><trkpt lat="44.241313" lon="8.2810005"><ele>787.0</ele><time>2026-05-02T13:33:55.151Z</time></trkpt><trkpt lat="44.2414564" lon="8.2810728"><ele>791.0</ele><time>2026-05-02T13:33:56.151Z</time></trkpt><trkpt lat="44.241614" lon="8.2811383"><ele>795.0</ele><time>2026-05-02T13:33:57.159Z</time></trkpt><trkpt lat="44.2417706" lon="8.2812032"><ele>799.0</ele><time>2026-05-02T13:33:58.147Z</time></trkpt><trkpt lat="44.2419424" lon="8.2812361"><ele>799.0</ele><time>2026-05-02T13:33:59.143Z</time></trkpt><trkpt lat="44.2421239" lon="8.2812267"><ele>799.0</ele><time>2026-05-02T13:34:00.156Z</time></trkpt><trkpt lat="44.2422882" lon="8.2811827"><ele>799.0</ele><time>2026-05-02T13:34:01.154Z</time></trkpt><trkpt lat="44.2423925" lon="8.2811357"><ele>799.8000000000001</ele><time>2026-05-02T13:34:02.156Z</time></trkpt><trkpt lat="44.2424631" lon="8.281112"><ele>800.6</ele><time>2026-05-02T13:34:03.154Z</time></trkpt><trkpt lat="44.2425314" lon="8.2811071"><ele>801.4</ele><time>2026-05-02T13:34:04.157Z</time></trkpt><trkpt lat="44.2425871" lon="8.2811608"><ele>802.2</ele><time>2026-05-02T13:34:06.149Z</time></trkpt><trkpt lat="44.2425019" lon="8.281326"><ele>803.0</ele><time>2026-05-02T13:34:08.158Z</time></trkpt><trkpt lat="44.2424042" lon="8.2814344"><ele>792.6666666666667</ele><time>2026-05-02T13:34:09.149Z</time></trkpt><trkpt lat="44.2422733" lon="8.2815579"><ele>782.3333333333333</ele><time>2026-05-02T13:34:10.16Z</time></trkpt><trkpt lat="44.2421371" lon="8.2816768"><ele>772.0</ele><time>2026-05-02T13:34:11.158Z</time></trkpt><trkpt lat="44.2419897" lon="8.2817858"><ele>772.0</ele><time>2026-05-02T13:34:12.158Z</time></trkpt><trkpt lat="44.2418425" lon="8.2819032"><ele>772.0</ele><time>2026-05-02T13:34:13.152Z</time></trkpt><trkpt lat="44.2416916" lon="8.2820112"><ele>772.0</ele><time>2026-05-02T13:34:14.153Z</time></trkpt><trkpt lat="44.2415464" lon="8.2821468"><ele>764.3333333333333</ele><time>2026-05-02T13:34:15.154Z</time></trkpt><trkpt lat="44.241413" lon="8.2823009"><ele>756.6666666666666</ele><time>2026-05-02T13:34:16.158Z</time></trkpt><trkpt lat="44.2412938" lon="8.2824723"><ele>749.0</ele><time>2026-05-02T13:34:17.156Z</time></trkpt><trkpt lat="44.2412006" lon="8.2826587"><ele>749.0</ele><time>2026-05-02T13:34:18.155Z</time></trkpt><trkpt lat="44.2411326" lon="8.2828543"><ele>749.0</ele><time>2026-05-02T13:34:19.159Z</time></trkpt><trkpt lat="44.2410576" lon="8.2830288"><ele>749.0</ele><time>2026-05-02T13:34:20.149Z</time></trkpt><trkpt lat="44.2409768" lon="8.2832245"><ele>751.5</ele><time>2026-05-02T13:34:21.15Z</time></trkpt><trkpt lat="44.2408755" lon="8.2833979"><ele>754.0</ele><time>2026-05-02T13:34:22.16Z</time></trkpt><trkpt lat="44.2407797" lon="8.2835594"><ele>756.5</ele><time>2026-05-02T13:34:23.158Z</time></trkpt><trkpt lat="44.2406778" lon="8.2836907"><ele>759.0</ele><time>2026-05-02T13:34:24.156Z</time></trkpt><trkpt lat="44.2405648" lon="8.283786"><ele>755.6</ele><time>2026-05-02T13:34:25.156Z</time></trkpt><trkpt lat="44.2404675" lon="8.2838949"><ele>752.2</ele><time>2026-05-02T13:34:26.146Z</time></trkpt><trkpt lat="44.2403714" lon="8.2839963"><ele>748.8000000000001</ele><time>2026-05-02T13:34:27.152Z</time></trkpt><trkpt lat="44.2403076" lon="8.2841165"><ele>745.4000000000001</ele><time>2026-05-02T13:34:28.155Z</time></trkpt><trkpt lat="44.240245" lon="8.2842094"><ele>742.0</ele><time>2026-05-02T13:34:29.152Z</time></trkpt><trkpt lat="44.2401932" lon="8.2842959"><ele>742.0</ele><time>2026-05-02T13:34:30.155Z</time></trkpt><trkpt lat="44.2401473" lon="8.2843752"><ele>742.0</ele><time>2026-05-02T13:34:31.161Z</time></trkpt><trkpt lat="44.2400892" lon="8.2845048"><ele>742.0</ele><time>2026-05-02T13:34:33.162Z</time></trkpt><trkpt lat="44.2400568" lon="8.2846176"><ele>742.0</ele><time>2026-05-02T13:34:35.159Z</time></trkpt><trkpt lat="44.2400211" lon="8.2846925"><ele>742.0</ele><time>2026-05-02T13:34:37.163Z</time></trkpt><trkpt lat="44.2399553" lon="8.2847439"><ele>742.0</ele><time>2026-05-02T13:34:49.167Z</time></trkpt><trkpt lat="44.239931" lon="8.2848574"><ele>739.5</ele><time>2026-05-02T13:37:06.168Z</time></trkpt><trkpt lat="44.2398976" lon="8.2849687"><ele>737.0</ele><time>2026-05-02T13:37:08.17Z</time></trkpt><trkpt lat="44.2398453" lon="8.2851124"><ele>734.5</ele><time>2026-05-02T13:37:10.167Z</time></trkpt><trkpt lat="44.2398181" lon="8.2851936"><ele>732.0</ele><time>2026-05-02T13:37:11.162Z</time></trkpt><trkpt lat="44.2397818" lon="8.2852817"><ele>729.5</ele><time>2026-05-02T13:37:12.173Z</time></trkpt><trkpt lat="44.2397399" lon="8.2853757"><ele>727.0</ele><time>2026-05-02T13:37:13.167Z</time></trkpt><trkpt lat="44.2397095" lon="8.2854887"><ele>727.0</ele><time>2026-05-02T13:37:14.174Z</time></trkpt><trkpt lat="44.2396891" lon="8.2855947"><ele>727.0</ele><time>2026-05-02T13:37:15.171Z</time></trkpt><trkpt lat="44.2396857" lon="8.2856987"><ele>727.0</ele><time>2026-05-02T13:37:16.174Z</time></trkpt><trkpt lat="44.2396974" lon="8.2858024"><ele>727.0</ele><time>2026-05-02T13:37:17.169Z</time></trkpt><trkpt lat="44.2397147" lon="8.2859029"><ele>727.0</ele><time>2026-05-02T13:37:18.17Z</time></trkpt><trkpt lat="44.2397386" lon="8.285998"><ele>727.0</ele><time>2026-05-02T13:37:19.172Z</time></trkpt><trkpt lat="44.2397648" lon="8.2860946"><ele>727.0</ele><time>2026-05-02T13:37:20.169Z</time></trkpt><trkpt lat="44.2398045" lon="8.2861866"><ele>733.3333333333334</ele><time>2026-05-02T13:37:21.172Z</time></trkpt><trkpt lat="44.2398353" lon="8.2862871"><ele>739.6666666666667</ele><time>2026-05-02T13:37:22.171Z</time></trkpt><trkpt lat="44.2398713" lon="8.2863922"><ele>746.0</ele><time>2026-05-02T13:37:23.169Z</time></trkpt><trkpt lat="44.2399103" lon="8.2865016"><ele>752.3333333333334</ele><time>2026-05-02T13:37:24.173Z</time></trkpt><trkpt lat="44.2399353" lon="8.2866137"><ele>758.6666666666666</ele><time>2026-05-02T13:37:25.171Z</time></trkpt><trkpt lat="44.2399539" lon="8.2867257"><ele>765.0</ele><time>2026-05-02T13:37:26.161Z</time></trkpt><trkpt lat="44.2399672" lon="8.2868384"><ele>765.0</ele><time>2026-05-02T13:37:27.174Z</time></trkpt><trkpt lat="44.2399761" lon="8.2869569"><ele>765.0</ele><time>2026-05-02T13:37:28.167Z</time></trkpt><trkpt lat="44.2399862" lon="8.2870858"><ele>765.0</ele><time>2026-05-02T13:37:29.171Z</time></trkpt><trkpt lat="44.2399943" lon="8.2872189"><ele>765.0</ele><time>2026-05-02T13:37:30.165Z</time></trkpt><trkpt lat="44.2400012" lon="8.2873611"><ele>765.0</ele><time>2026-05-02T13:37:31.17Z</time></trkpt><trkpt lat="44.2400095" lon="8.2875039"><ele>764.8</ele><time>2026-05-02T13:37:32.175Z</time></trkpt><trkpt lat="44.2400323" lon="8.2876529"><ele>764.6</ele><time>2026-05-02T13:37:33.169Z</time></trkpt><trkpt lat="44.2400598" lon="8.2877973"><ele>764.4000000000001</ele><time>2026-05-02T13:37:34.165Z</time></trkpt><trkpt lat="44.2400956" lon="8.2879378"><ele>764.2</ele><time>2026-05-02T13:37:35.168Z</time></trkpt><trkpt lat="44.2401229" lon="8.2880753"><ele>764.0</ele><time>2026-05-02T13:37:36.165Z</time></trkpt><trkpt lat="44.2401456" lon="8.2882071"><ele>764.0</ele><time>2026-05-02T13:37:37.166Z</time></trkpt><trkpt lat="44.2401551" lon="8.2883303"><ele>764.0</ele><time>2026-05-02T13:37:38.166Z</time></trkpt><trkpt lat="44.2401566" lon="8.2884528"><ele>764.0</ele><time>2026-05-02T13:37:39.166Z</time></trkpt><trkpt lat="44.2401419" lon="8.2885675"><ele>764.0</ele><time>2026-05-02T13:37:40.166Z</time></trkpt><trkpt lat="44.2401192" lon="8.288682"><ele>764.0</ele><time>2026-05-02T13:37:41.169Z</time></trkpt><trkpt lat="44.2400972" lon="8.2887957"><ele>764.0</ele><time>2026-05-02T13:37:42.169Z</time></trkpt><trkpt lat="44.2400828" lon="8.2889126"><ele>764.8000000000001</ele><time>2026-05-02T13:37:43.174Z</time></trkpt><trkpt lat="44.2400705" lon="8.2890386"><ele>765.6</ele><time>2026-05-02T13:37:44.174Z</time></trkpt><trkpt lat="44.2400516" lon="8.2891711"><ele>766.4</ele><time>2026-05-02T13:37:45.174Z</time></trkpt><trkpt lat="44.2400349" lon="8.2893052"><ele>767.2</ele><time>2026-05-02T13:37:46.182Z</time></trkpt><trkpt lat="44.2400174" lon="8.289436"><ele>768.0</ele><time>2026-05-02T13:37:47.17Z</time></trkpt><trkpt lat="44.2400153" lon="8.2895616"><ele>768.0</ele><time>2026-05-02T13:37:48.168Z</time></trkpt><trkpt lat="44.2400213" lon="8.2896745"><ele>768.0</ele><time>2026-05-02T13:37:49.173Z</time></trkpt><trkpt lat="44.2400432" lon="8.2897814"><ele>768.0</ele><time>2026-05-02T13:37:50.173Z</time></trkpt><trkpt lat="44.2400795" lon="8.2898764"><ele>768.0</ele><time>2026-05-02T13:37:51.178Z</time></trkpt><trkpt lat="44.2401327" lon="8.2899693"><ele>768.0</ele><time>2026-05-02T13:37:52.177Z</time></trkpt><trkpt lat="44.2401844" lon="8.2900733"><ele>768.0</ele><time>2026-05-02T13:37:53.175Z</time></trkpt><trkpt lat="44.240237" lon="8.2901981"><ele>767.2</ele><time>2026-05-02T13:37:54.168Z</time></trkpt><trkpt lat="44.2402792" lon="8.2903314"><ele>766.4</ele><time>2026-05-02T13:37:55.167Z</time></trkpt><trkpt lat="44.2403031" lon="8.2904682"><ele>765.6</ele><time>2026-05-02T13:37:56.163Z</time></trkpt><trkpt lat="44.2403318" lon="8.2905985"><ele>764.8000000000001</ele><time>2026-05-02T13:37:57.165Z</time></trkpt><trkpt lat="44.2403596" lon="8.2907267"><ele>764.0</ele><time>2026-05-02T13:37:58.18Z</time></trkpt><trkpt lat="44.2403913" lon="8.2908532"><ele>763.6666666666666</ele><time>2026-05-02T13:37:59.169Z</time></trkpt><trkpt lat="44.2404279" lon="8.2909678"><ele>763.3333333333333</ele><time>2026-05-02T13:38:00.166Z</time></trkpt><trkpt lat="44.2404695" lon="8.2910731"><ele>763.0</ele><time>2026-05-02T13:38:01.169Z</time></trkpt><trkpt lat="44.2405145" lon="8.291173"><ele>762.6666666666666</ele><time>2026-05-02T13:38:02.166Z</time></trkpt><trkpt lat="44.2405627" lon="8.2912606"><ele>762.3333333333334</ele><time>2026-05-02T13:38:03.172Z</time></trkpt><trkpt lat="44.2406262" lon="8.2913259"><ele>762.0</ele><time>2026-05-02T13:38:04.173Z</time></trkpt><trkpt lat="44.2406978" lon="8.2913707"><ele>764.8333333333334</ele><time>2026-05-02T13:38:05.172Z</time></trkpt><trkpt lat="44.2407756" lon="8.2913926"><ele>767.6666666666667</ele><time>2026-05-02T13:38:06.176Z</time></trkpt><trkpt lat="44.2408613" lon="8.2913876"><ele>770.5</ele><time>2026-05-02T13:38:07.181Z</time></trkpt><trkpt lat="44.2409415" lon="8.2913602"><ele>773.3333333333334</ele><time>2026-05-02T13:38:08.186Z</time></trkpt><trkpt lat="44.2410101" lon="8.2913048"><ele>776.1666666666667</ele><time>2026-05-02T13:38:09.171Z</time></trkpt><trkpt lat="44.2410748" lon="8.291229"><ele>779.0</ele><time>2026-05-02T13:38:10.175Z</time></trkpt><trkpt lat="44.2411283" lon="8.291149"><ele>779.0</ele><time>2026-05-02T13:38:11.17Z</time></trkpt><trkpt lat="44.2411873" lon="8.2910583"><ele>779.0</ele><time>2026-05-02T13:38:12.178Z</time></trkpt><trkpt lat="44.2412566" lon="8.2909717"><ele>779.0</ele><time>2026-05-02T13:38:13.171Z</time></trkpt><trkpt lat="44.2413334" lon="8.2908919"><ele>779.0</ele><time>2026-05-02T13:38:14.167Z</time></trkpt><trkpt lat="44.2414106" lon="8.2908299"><ele>779.0</ele><time>2026-05-02T13:38:15.164Z</time></trkpt><trkpt lat="44.2414904" lon="8.2907747"><ele>778.1666666666667</ele><time>2026-05-02T13:38:16.166Z</time></trkpt><trkpt lat="44.241568" lon="8.2907271"><ele>777.3333333333334</ele><time>2026-05-02T13:38:17.169Z</time></trkpt><trkpt lat="44.2416497" lon="8.290684"><ele>776.5</ele><time>2026-05-02T13:38:18.167Z</time></trkpt><trkpt lat="44.2417378" lon="8.290662"><ele>775.6666666666667</ele><time>2026-05-02T13:38:19.169Z</time></trkpt><trkpt lat="44.2418255" lon="8.29064"><ele>774.8333333333334</ele><time>2026-05-02T13:38:20.168Z</time></trkpt><trkpt lat="44.2419165" lon="8.2906164"><ele>774.0</ele><time>2026-05-02T13:38:21.169Z</time></trkpt><trkpt lat="44.2420109" lon="8.2906035"><ele>774.0</ele><time>2026-05-02T13:38:22.168Z</time></trkpt><trkpt lat="44.2421106" lon="8.2905947"><ele>774.0</ele><time>2026-05-02T13:38:23.167Z</time></trkpt><trkpt lat="44.2422106" lon="8.290582"><ele>774.0</ele><time>2026-05-02T13:38:24.172Z</time></trkpt><trkpt lat="44.2423056" lon="8.2905746"><ele>774.0</ele><time>2026-05-02T13:38:25.167Z</time></trkpt><trkpt lat="44.24239" lon="8.2905517"><ele>774.0</ele><time>2026-05-02T13:38:26.165Z</time></trkpt><trkpt lat="44.2424696" lon="8.2905233"><ele>778.3333333333334</ele><time>2026-05-02T13:38:27.16Z</time></trkpt><trkpt lat="44.2425424" lon="8.2904885"><ele>782.6666666666667</ele><time>2026-05-02T13:38:28.167Z</time></trkpt><trkpt lat="44.2426063" lon="8.2904349"><ele>787.0</ele><time>2026-05-02T13:38:29.177Z</time></trkpt><trkpt lat="44.2426695" lon="8.2903699"><ele>791.3333333333334</ele><time>2026-05-02T13:38:30.176Z</time></trkpt><trkpt lat="44.2427244" lon="8.2903106"><ele>795.6666666666667</ele><time>2026-05-02T13:38:31.17Z</time></trkpt><trkpt lat="44.2427705" lon="8.2902504"><ele>800.0</ele><time>2026-05-02T13:38:32.176Z</time></trkpt><trkpt lat="44.2428532" lon="8.2901584"><ele>800.0</ele><time>2026-05-02T13:38:34.172Z</time></trkpt><trkpt lat="44.2429436" lon="8.2900451"><ele>800.0</ele><time>2026-05-02T13:38:36.174Z</time></trkpt><trkpt lat="44.2430398" lon="8.2899194"><ele>800.0</ele><time>2026-05-02T13:38:38.181Z</time></trkpt><trkpt lat="44.243082" lon="8.2898505"><ele>800.0</ele><time>2026-05-02T13:38:39.18Z</time></trkpt><trkpt lat="44.2431325" lon="8.2897724"><ele>800.0</ele><time>2026-05-02T13:38:40.175Z</time></trkpt><trkpt lat="44.2431819" lon="8.2896934"><ele>800.4</ele><time>2026-05-02T13:38:41.177Z</time></trkpt><trkpt lat="44.2432495" lon="8.2896048"><ele>800.8</ele><time>2026-05-02T13:38:42.176Z</time></trkpt><trkpt lat="44.2433238" lon="8.2895171"><ele>801.2</ele><time>2026-05-02T13:38:43.175Z</time></trkpt><trkpt lat="44.2433923" lon="8.2894119"><ele>801.6</ele><time>2026-05-02T13:38:44.172Z</time></trkpt><trkpt lat="44.2434389" lon="8.2893127"><ele>802.0</ele><time>2026-05-02T13:38:45.175Z</time></trkpt><trkpt lat="44.2435085" lon="8.289222"><ele>802.0</ele><time>2026-05-02T13:38:46.176Z</time></trkpt><trkpt lat="44.2435835" lon="8.2891246"><ele>802.0</ele><time>2026-05-02T13:38:47.165Z</time></trkpt><trkpt lat="44.2436453" lon="8.2890297"><ele>802.0</ele><time>2026-05-02T13:38:48.166Z</time></trkpt><trkpt lat="44.2437058" lon="8.2889297"><ele>802.0</ele><time>2026-05-02T13:38:49.16Z</time></trkpt><trkpt lat="44.2437783" lon="8.2888328"><ele>802.0</ele><time>2026-05-02T13:38:50.165Z</time></trkpt><trkpt lat="44.2438478" lon="8.2887385"><ele>802.8</ele><time>2026-05-02T13:38:51.164Z</time></trkpt><trkpt lat="44.2439205" lon="8.288634"><ele>803.6</ele><time>2026-05-02T13:38:52.167Z</time></trkpt><trkpt lat="44.243988" lon="8.2885372"><ele>804.4</ele><time>2026-05-02T13:38:53.168Z</time></trkpt><trkpt lat="44.244066" lon="8.2884408"><ele>805.1999999999999</ele><time>2026-05-02T13:38:54.171Z</time></trkpt><trkpt lat="44.2441597" lon="8.2883496"><ele>806.0</ele><time>2026-05-02T13:38:55.162Z</time></trkpt><trkpt lat="44.2442599" lon="8.2882742"><ele>806.0</ele><time>2026-05-02T13:38:56.159Z</time></trkpt><trkpt lat="44.2443596" lon="8.2882027"><ele>806.0</ele><time>2026-05-02T13:38:57.165Z</time></trkpt><trkpt lat="44.2444529" lon="8.2881363"><ele>806.0</ele><time>2026-05-02T13:38:58.163Z</time></trkpt><trkpt lat="44.2445604" lon="8.2880652"><ele>806.0</ele><time>2026-05-02T13:38:59.16Z</time></trkpt><trkpt lat="44.244671" lon="8.2879924"><ele>809.25</ele><time>2026-05-02T13:39:00.172Z</time></trkpt><trkpt lat="44.2447833" lon="8.2879346"><ele>812.5</ele><time>2026-05-02T13:39:01.171Z</time></trkpt><trkpt lat="44.2448804" lon="8.2878752"><ele>815.75</ele><time>2026-05-02T13:39:02.16Z</time></trkpt><trkpt lat="44.2449947" lon="8.2878301"><ele>819.0</ele><time>2026-05-02T13:39:03.166Z</time></trkpt><trkpt lat="44.2450988" lon="8.2877917"><ele>819.0</ele><time>2026-05-02T13:39:04.17Z</time></trkpt><trkpt lat="44.245198" lon="8.2877497"><ele>819.0</ele><time>2026-05-02T13:39:05.162Z</time></trkpt><trkpt lat="44.2452977" lon="8.2876979"><ele>819.0</ele><time>2026-05-02T13:39:06.158Z</time></trkpt><trkpt lat="44.2454001" lon="8.2876516"><ele>819.0</ele><time>2026-05-02T13:39:07.161Z</time></trkpt><trkpt lat="44.2454925" lon="8.28759"><ele>819.0</ele><time>2026-05-02T13:39:08.17Z</time></trkpt><trkpt lat="44.245581" lon="8.2875244"><ele>821.0</ele><time>2026-05-02T13:39:09.161Z</time></trkpt><trkpt lat="44.2456792" lon="8.2874739"><ele>823.0</ele><time>2026-05-02T13:39:10.164Z</time></trkpt><trkpt lat="44.2457732" lon="8.2874304"><ele>825.0</ele><time>2026-05-02T13:39:11.166Z</time></trkpt><trkpt lat="44.2458681" lon="8.2873883"><ele>827.0</ele><time>2026-05-02T13:39:12.155Z</time></trkpt><trkpt lat="44.2459654" lon="8.2873162"><ele>829.0</ele><time>2026-05-02T13:39:13.161Z</time></trkpt><trkpt lat="44.246061" lon="8.2872344"><ele>828.9999999999999</ele><time>2026-05-02T13:39:14.157Z</time></trkpt><trkpt lat="44.2461467" lon="8.2871624"><ele>829.0</ele><time>2026-05-02T13:39:15.164Z</time></trkpt><trkpt lat="44.2462219" lon="8.2870866"><ele>829.0</ele><time>2026-05-02T13:39:16.163Z</time></trkpt><trkpt lat="44.2462954" lon="8.2870193"><ele>829.0</ele><time>2026-05-02T13:39:17.165Z</time></trkpt><trkpt lat="44.2463695" lon="8.2869666"><ele>828.9999999999999</ele><time>2026-05-02T13:39:18.164Z</time></trkpt><trkpt lat="44.2464499" lon="8.286926"><ele>829.0</ele><time>2026-05-02T13:39:19.165Z</time></trkpt><trkpt lat="44.2465279" lon="8.2869114"><ele>828.5714285714286</ele><time>2026-05-02T13:39:20.166Z</time></trkpt><trkpt lat="44.2466089" lon="8.2869117"><ele>828.1428571428571</ele><time>2026-05-02T13:39:21.167Z</time></trkpt><trkpt lat="44.2466745" lon="8.2869469"><ele>827.7142857142858</ele><time>2026-05-02T13:39:22.159Z</time></trkpt><trkpt lat="44.2467471" lon="8.2869832"><ele>827.2857142857142</ele><time>2026-05-02T13:39:23.159Z</time></trkpt><trkpt lat="44.246811" lon="8.2870182"><ele>826.8571428571429</ele><time>2026-05-02T13:39:24.17Z</time></trkpt><trkpt lat="44.2468707" lon="8.2870515"><ele>826.4285714285714</ele><time>2026-05-02T13:39:25.165Z</time></trkpt><trkpt lat="44.2469408" lon="8.2870784"><ele>826.0</ele><time>2026-05-02T13:39:26.162Z</time></trkpt><trkpt lat="44.2470252" lon="8.2870566"><ele>826.0</ele><time>2026-05-02T13:39:27.16Z</time></trkpt><trkpt lat="44.2471231" lon="8.2870317"><ele>826.0</ele><time>2026-05-02T13:39:28.158Z</time></trkpt><trkpt lat="44.2472207" lon="8.2870062"><ele>826.0</ele><time>2026-05-02T13:39:29.158Z</time></trkpt><trkpt lat="44.2473143" lon="8.2869758"><ele>826.0</ele><time>2026-05-02T13:39:30.162Z</time></trkpt><trkpt lat="44.2474021" lon="8.2869638"><ele>826.0</ele><time>2026-05-02T13:39:31.168Z</time></trkpt><trkpt lat="44.2474892" lon="8.2869602"><ele>823.4999999999999</ele><time>2026-05-02T13:39:32.161Z</time></trkpt><trkpt lat="44.2475694" lon="8.2869522"><ele>821.0</ele><time>2026-05-02T13:39:33.167Z</time></trkpt><trkpt lat="44.2476503" lon="8.2869416"><ele>818.5</ele><time>2026-05-02T13:39:34.154Z</time></trkpt><trkpt lat="44.2477283" lon="8.2869146"><ele>816.0</ele><time>2026-05-02T13:39:35.158Z</time></trkpt><trkpt lat="44.2477988" lon="8.286866"><ele>813.4999999999999</ele><time>2026-05-02T13:39:36.158Z</time></trkpt><trkpt lat="44.2478804" lon="8.286809"><ele>811.0</ele><time>2026-05-02T13:39:37.159Z</time></trkpt><trkpt lat="44.2479595" lon="8.2867497"><ele>810.9999999999999</ele><time>2026-05-02T13:39:38.161Z</time></trkpt><trkpt lat="44.2480364" lon="8.2866818"><ele>811.0</ele><time>2026-05-02T13:39:39.151Z</time></trkpt><trkpt lat="44.2481034" lon="8.2866133"><ele>811.0</ele><time>2026-05-02T13:39:40.157Z</time></trkpt><trkpt lat="44.2481595" lon="8.2865312"><ele>811.0</ele><time>2026-05-02T13:39:41.155Z</time></trkpt><trkpt lat="44.2482117" lon="8.286433"><ele>810.9999999999999</ele><time>2026-05-02T13:39:42.16Z</time></trkpt><trkpt lat="44.2482581" lon="8.2863383"><ele>811.0</ele><time>2026-05-02T13:39:43.154Z</time></trkpt><trkpt lat="44.2483102" lon="8.2862546"><ele>810.8333333333333</ele><time>2026-05-02T13:39:44.16Z</time></trkpt><trkpt lat="44.2483655" lon="8.2861744"><ele>810.6666666666666</ele><time>2026-05-02T13:39:45.155Z</time></trkpt><trkpt lat="44.2484148" lon="8.2860992"><ele>810.5</ele><time>2026-05-02T13:39:46.162Z</time></trkpt><trkpt lat="44.2484762" lon="8.2860363"><ele>810.3333333333333</ele><time>2026-05-02T13:39:47.155Z</time></trkpt><trkpt lat="44.2485335" lon="8.2859732"><ele>810.1666666666666</ele><time>2026-05-02T13:39:48.161Z</time></trkpt><trkpt lat="44.2485952" lon="8.2859228"><ele>810.0</ele><time>2026-05-02T13:39:49.162Z</time></trkpt><trkpt lat="44.2486665" lon="8.2858685"><ele>810.0</ele><time>2026-05-02T13:39:50.158Z</time></trkpt><trkpt lat="44.2487309" lon="8.2858156"><ele>810.0</ele><time>2026-05-02T13:39:51.164Z</time></trkpt><trkpt lat="44.2487877" lon="8.285745"><ele>810.0</ele><time>2026-05-02T13:39:52.16Z</time></trkpt><trkpt lat="44.2488434" lon="8.2856559"><ele>810.0</ele><time>2026-05-02T13:39:53.155Z</time></trkpt><trkpt lat="44.2488894" lon="8.2855612"><ele>810.0</ele><time>2026-05-02T13:39:54.164Z</time></trkpt><trkpt lat="44.2489266" lon="8.2854626"><ele>810.0</ele><time>2026-05-02T13:39:55.156Z</time></trkpt><trkpt lat="44.2489481" lon="8.2853709"><ele>811.5</ele><time>2026-05-02T13:39:56.16Z</time></trkpt><trkpt lat="44.2489707" lon="8.2852717"><ele>813.0</ele><time>2026-05-02T13:39:57.164Z</time></trkpt><trkpt lat="44.2489885" lon="8.2851781"><ele>814.5</ele><time>2026-05-02T13:39:58.159Z</time></trkpt><trkpt lat="44.2490464" lon="8.2850684"><ele>816.0</ele><time>2026-05-02T13:40:00.165Z</time></trkpt><trkpt lat="44.2491368" lon="8.2850748"><ele>817.5</ele><time>2026-05-02T13:40:02.164Z</time></trkpt><trkpt lat="44.2492004" lon="8.2851114"><ele>819.0</ele><time>2026-05-02T13:40:03.156Z</time></trkpt><trkpt lat="44.2492667" lon="8.2851704"><ele>819.0</ele><time>2026-05-02T13:40:04.152Z</time></trkpt><trkpt lat="44.2493126" lon="8.2852312"><ele>819.0</ele><time>2026-05-02T13:40:05.153Z</time></trkpt><trkpt lat="44.2493821" lon="8.2853839"><ele>819.0</ele><time>2026-05-02T13:40:07.162Z</time></trkpt><trkpt lat="44.2494198" lon="8.2854598"><ele>819.0</ele><time>2026-05-02T13:40:08.166Z</time></trkpt><trkpt lat="44.2494674" lon="8.2855643"><ele>819.0</ele><time>2026-05-02T13:40:09.168Z</time></trkpt><trkpt lat="44.2495223" lon="8.2856739"><ele>819.0</ele><time>2026-05-02T13:40:10.165Z</time></trkpt><trkpt lat="44.2495728" lon="8.2857746"><ele>817.4000000000001</ele><time>2026-05-02T13:40:11.167Z</time></trkpt><trkpt lat="44.2496298" lon="8.2858579"><ele>815.8</ele><time>2026-05-02T13:40:12.154Z</time></trkpt><trkpt lat="44.2496893" lon="8.2859211"><ele>814.2</ele><time>2026-05-02T13:40:13.16Z</time></trkpt><trkpt lat="44.2497569" lon="8.2859629"><ele>812.5999999999999</ele><time>2026-05-02T13:40:14.163Z</time></trkpt><trkpt lat="44.2498275" lon="8.2859852"><ele>811.0</ele><time>2026-05-02T13:40:15.162Z</time></trkpt><trkpt lat="44.2499768" lon="8.2859313"><ele>811.0</ele><time>2026-05-02T13:40:17.159Z</time></trkpt><trkpt lat="44.2500733" lon="8.285894"><ele>811.0</ele><time>2026-05-02T13:40:18.159Z</time></trkpt><trkpt lat="44.250169" lon="8.2858766"><ele>811.0</ele><time>2026-05-02T13:40:19.163Z</time></trkpt><trkpt lat="44.2502717" lon="8.2858728"><ele>811.0</ele><time>2026-05-02T13:40:20.166Z</time></trkpt><trkpt lat="44.2503729" lon="8.2858831"><ele>811.0</ele><time>2026-05-02T13:40:21.164Z</time></trkpt><trkpt lat="44.2504614" lon="8.2859032"><ele>811.0</ele><time>2026-05-02T13:40:22.151Z</time></trkpt><trkpt lat="44.2505462" lon="8.2859397"><ele>811.0</ele><time>2026-05-02T13:40:23.157Z</time></trkpt><trkpt lat="44.2506277" lon="8.2859765"><ele>811.0</ele><time>2026-05-02T13:40:24.157Z</time></trkpt><trkpt lat="44.2507151" lon="8.2860153"><ele>811.0</ele><time>2026-05-02T13:40:25.157Z</time></trkpt><trkpt lat="44.2507947" lon="8.2860849"><ele>811.0</ele><time>2026-05-02T13:40:26.156Z</time></trkpt><trkpt lat="44.2508697" lon="8.2861636"><ele>812.8</ele><time>2026-05-02T13:40:27.158Z</time></trkpt><trkpt lat="44.2509366" lon="8.2862498"><ele>814.5999999999999</ele><time>2026-05-02T13:40:28.158Z</time></trkpt><trkpt lat="44.2510191" lon="8.2863235"><ele>816.4</ele><time>2026-05-02T13:40:29.159Z</time></trkpt><trkpt lat="44.251108" lon="8.2863657"><ele>818.2</ele><time>2026-05-02T13:40:30.164Z</time></trkpt><trkpt lat="44.2511966" lon="8.2863936"><ele>820.0</ele><time>2026-05-02T13:40:31.164Z</time></trkpt><trkpt lat="44.251289" lon="8.2863892"><ele>819.9999999999999</ele><time>2026-05-02T13:40:32.147Z</time></trkpt><trkpt lat="44.2513711" lon="8.286385"><ele>820.0</ele><time>2026-05-02T13:40:33.161Z</time></trkpt><trkpt lat="44.2514453" lon="8.2863777"><ele>820.0</ele><time>2026-05-02T13:40:34.154Z</time></trkpt><trkpt lat="44.2515222" lon="8.2863897"><ele>820.0</ele><time>2026-05-02T13:40:35.155Z</time></trkpt><trkpt lat="44.2516105" lon="8.2864118"><ele>819.9999999999999</ele><time>2026-05-02T13:40:36.157Z</time></trkpt><trkpt lat="44.25169" lon="8.2864363"><ele>820.0</ele><time>2026-05-02T13:40:37.152Z</time></trkpt><trkpt lat="44.2517709" lon="8.2864697"><ele>818.8</ele><time>2026-05-02T13:40:38.155Z</time></trkpt><trkpt lat="44.251847" lon="8.2865222"><ele>817.6</ele><time>2026-05-02T13:40:39.153Z</time></trkpt><trkpt lat="44.2519201" lon="8.28656"><ele>816.4000000000001</ele><time>2026-05-02T13:40:40.153Z</time></trkpt><trkpt lat="44.2520086" lon="8.286616"><ele>815.2</ele><time>2026-05-02T13:40:41.153Z</time></trkpt><trkpt lat="44.2521012" lon="8.2866947"><ele>814.0</ele><time>2026-05-02T13:40:42.148Z</time></trkpt><trkpt lat="44.2521924" lon="8.2867871"><ele>818.5</ele><time>2026-05-02T13:40:43.16Z</time></trkpt><trkpt lat="44.2522942" lon="8.2868887"><ele>823.0</ele><time>2026-05-02T13:40:44.158Z</time></trkpt><trkpt lat="44.2523842" lon="8.2869973"><ele>827.5</ele><time>2026-05-02T13:40:45.15Z</time></trkpt><trkpt lat="44.2524743" lon="8.2871223"><ele>832.0</ele><time>2026-05-02T13:40:46.158Z</time></trkpt><trkpt lat="44.2525604" lon="8.2872529"><ele>827.5</ele><time>2026-05-02T13:40:47.148Z</time></trkpt><trkpt lat="44.252626" lon="8.2873994"><ele>823.0</ele><time>2026-05-02T13:40:48.161Z</time></trkpt><trkpt lat="44.2527002" lon="8.2875478"><ele>818.5</ele><time>2026-05-02T13:40:49.162Z</time></trkpt><trkpt lat="44.2527717" lon="8.2877049"><ele>814.0</ele><time>2026-05-02T13:40:50.166Z</time></trkpt><trkpt lat="44.2528338" lon="8.2878549"><ele>814.0</ele><time>2026-05-02T13:40:51.167Z</time></trkpt><trkpt lat="44.2529169" lon="8.2879777"><ele>814.0</ele><time>2026-05-02T13:40:52.156Z</time></trkpt><trkpt lat="44.2530112" lon="8.2880848"><ele>814.0</ele><time>2026-05-02T13:40:53.162Z</time></trkpt><trkpt lat="44.2530989" lon="8.2881827"><ele>814.0</ele><time>2026-05-02T13:40:54.164Z</time></trkpt><trkpt lat="44.2532061" lon="8.288254"><ele>813.6</ele><time>2026-05-02T13:40:55.16Z</time></trkpt><trkpt lat="44.2533214" lon="8.2883018"><ele>813.2</ele><time>2026-05-02T13:40:56.16Z</time></trkpt><trkpt lat="44.2534355" lon="8.2883428"><ele>812.8000000000001</ele><time>2026-05-02T13:40:57.162Z</time></trkpt><trkpt lat="44.2535414" lon="8.2883817"><ele>812.4000000000001</ele><time>2026-05-02T13:40:58.166Z</time></trkpt><trkpt lat="44.2536336" lon="8.2884136"><ele>812.0</ele><time>2026-05-02T13:40:59.162Z</time></trkpt><trkpt lat="44.253732" lon="8.2884494"><ele>812.0000000000001</ele><time>2026-05-02T13:41:00.16Z</time></trkpt><trkpt lat="44.2538154" lon="8.2884882"><ele>812.0</ele><time>2026-05-02T13:41:01.16Z</time></trkpt><trkpt lat="44.2539004" lon="8.288503"><ele>812.0</ele><time>2026-05-02T13:41:02.16Z</time></trkpt><trkpt lat="44.2539805" lon="8.2885063"><ele>812.0</ele><time>2026-05-02T13:41:03.161Z</time></trkpt><trkpt lat="44.2540647" lon="8.2884911"><ele>812.0000000000001</ele><time>2026-05-02T13:41:04.159Z</time></trkpt><trkpt lat="44.25414" lon="8.2884595"><ele>812.0</ele><time>2026-05-02T13:41:05.154Z</time></trkpt><trkpt lat="44.2542061" lon="8.2884273"><ele>814.2</ele><time>2026-05-02T13:41:06.158Z</time></trkpt><trkpt lat="44.2542677" lon="8.2884069"><ele>816.4000000000001</ele><time>2026-05-02T13:41:07.16Z</time></trkpt><trkpt lat="44.2543705" lon="8.2884339"><ele>818.5999999999999</ele><time>2026-05-02T13:41:09.161Z</time></trkpt><trkpt lat="44.2544565" lon="8.2885163"><ele>820.8</ele><time>2026-05-02T13:41:11.168Z</time></trkpt><trkpt lat="44.2545133" lon="8.2886496"><ele>823.0</ele><time>2026-05-02T13:41:13.164Z</time></trkpt><trkpt lat="44.2545271" lon="8.2887897"><ele>820.0</ele><time>2026-05-02T13:41:15.161Z</time></trkpt><trkpt lat="44.254569" lon="8.2889522"><ele>817.0</ele><time>2026-05-02T13:41:17.153Z</time></trkpt><trkpt lat="44.2546007" lon="8.2890429"><ele>814.0</ele><time>2026-05-02T13:41:18.162Z</time></trkpt><trkpt lat="44.2546418" lon="8.2892208"><ele>811.0</ele><time>2026-05-02T13:41:20.161Z</time></trkpt><trkpt lat="44.2546621" lon="8.2893055"><ele>808.0</ele><time>2026-05-02T13:41:21.16Z</time></trkpt><trkpt lat="44.2546853" lon="8.2894091"><ele>808.0</ele><time>2026-05-02T13:41:22.16Z</time></trkpt><trkpt lat="44.2547083" lon="8.2895353"><ele>808.0</ele><time>2026-05-02T13:41:23.158Z</time></trkpt><trkpt lat="44.2547229" lon="8.289659"><ele>808.0</ele><time>2026-05-02T13:41:24.162Z</time></trkpt><trkpt lat="44.2547431" lon="8.289774"><ele>808.0</ele><time>2026-05-02T13:41:25.161Z</time></trkpt><trkpt lat="44.2547702" lon="8.2898963"><ele>808.0</ele><time>2026-05-02T13:41:26.165Z</time></trkpt><trkpt lat="44.2548063" lon="8.2900376"><ele>811.2</ele><time>2026-05-02T13:41:27.167Z</time></trkpt><trkpt lat="44.2548395" lon="8.2901803"><ele>814.4</ele><time>2026-05-02T13:41:28.156Z</time></trkpt><trkpt lat="44.2548681" lon="8.2903169"><ele>817.6</ele><time>2026-05-02T13:41:29.156Z</time></trkpt><trkpt lat="44.2548854" lon="8.2904496"><ele>820.8000000000001</ele><time>2026-05-02T13:41:30.155Z</time></trkpt><trkpt lat="44.2548954" lon="8.2905703"><ele>824.0</ele><time>2026-05-02T13:41:31.16Z</time></trkpt><trkpt lat="44.2549061" lon="8.2907065"><ele>824.0</ele><time>2026-05-02T13:41:32.162Z</time></trkpt><trkpt lat="44.254926" lon="8.2908256"><ele>824.0</ele><time>2026-05-02T13:41:33.162Z</time></trkpt><trkpt lat="44.2549306" lon="8.2909672"><ele>824.0</ele><time>2026-05-02T13:41:34.162Z</time></trkpt><trkpt lat="44.2549255" lon="8.2911196"><ele>824.0</ele><time>2026-05-02T13:41:35.165Z</time></trkpt><trkpt lat="44.2549218" lon="8.2912845"><ele>824.0</ele><time>2026-05-02T13:41:36.166Z</time></trkpt><trkpt lat="44.2549182" lon="8.2914536"><ele>824.5</ele><time>2026-05-02T13:41:37.164Z</time></trkpt><trkpt lat="44.2549154" lon="8.2916378"><ele>825.0</ele><time>2026-05-02T13:41:38.165Z</time></trkpt><trkpt lat="44.2548986" lon="8.2918497"><ele>825.5</ele><time>2026-05-02T13:41:39.165Z</time></trkpt><trkpt lat="44.2548754" lon="8.2920761"><ele>826.0</ele><time>2026-05-02T13:41:40.164Z</time></trkpt><trkpt lat="44.2548569" lon="8.292261"><ele>825.0</ele><time>2026-05-02T13:41:41.163Z</time></trkpt><trkpt lat="44.2548556" lon="8.2924414"><ele>824.0</ele><time>2026-05-02T13:41:42.166Z</time></trkpt><trkpt lat="44.2548577" lon="8.2926326"><ele>823.0</ele><time>2026-05-02T13:41:43.162Z</time></trkpt><trkpt lat="44.2548727" lon="8.292814"><ele>822.0</ele><time>2026-05-02T13:41:44.162Z</time></trkpt><trkpt lat="44.2549023" lon="8.2929919"><ele>820.25</ele><time>2026-05-02T13:41:45.165Z</time></trkpt><trkpt lat="44.254923" lon="8.2931632"><ele>818.5</ele><time>2026-05-02T13:41:46.162Z</time></trkpt><trkpt lat="44.2549324" lon="8.2933334"><ele>816.75</ele><time>2026-05-02T13:41:47.16Z</time></trkpt><trkpt lat="44.2549436" lon="8.2934884"><ele>815.0</ele><time>2026-05-02T13:41:48.161Z</time></trkpt><trkpt lat="44.2549561" lon="8.293619"><ele>815.0000000000001</ele><time>2026-05-02T13:41:49.166Z</time></trkpt><trkpt lat="44.2549777" lon="8.2937304"><ele>815.0</ele><time>2026-05-02T13:41:50.17Z</time></trkpt><trkpt lat="44.2550046" lon="8.2938176"><ele>815.0</ele><time>2026-05-02T13:41:51.178Z</time></trkpt><trkpt lat="44.2550468" lon="8.2938848"><ele>815.0</ele><time>2026-05-02T13:41:52.17Z</time></trkpt><trkpt lat="44.2551608" lon="8.2939296"><ele>815.0000000000001</ele><time>2026-05-02T13:41:54.176Z</time></trkpt><trkpt lat="44.2552292" lon="8.293912"><ele>815.0</ele><time>2026-05-02T13:41:55.173Z</time></trkpt><trkpt lat="44.2553099" lon="8.2938988"><ele>815.0</ele><time>2026-05-02T13:41:56.167Z</time></trkpt><trkpt lat="44.2554114" lon="8.2939118"><ele>815.0</ele><time>2026-05-02T13:41:57.173Z</time></trkpt><trkpt lat="44.2555103" lon="8.2939505"><ele>815.0</ele><time>2026-05-02T13:41:58.168Z</time></trkpt><trkpt lat="44.255571" lon="8.2940029"><ele>815.0</ele><time>2026-05-02T13:41:59.164Z</time></trkpt><trkpt lat="44.2555968" lon="8.2941292"><ele>815.0</ele><time>2026-05-02T13:42:01.163Z</time></trkpt><trkpt lat="44.2555389" lon="8.2942971"><ele>813.6</ele><time>2026-05-02T13:42:03.156Z</time></trkpt><trkpt lat="44.2554999" lon="8.2944128"><ele>812.2</ele><time>2026-05-02T13:42:04.155Z</time></trkpt><trkpt lat="44.255458" lon="8.2945549"><ele>810.8</ele><time>2026-05-02T13:42:05.159Z</time></trkpt><trkpt lat="44.2554147" lon="8.2946965"><ele>809.4</ele><time>2026-05-02T13:42:06.154Z</time></trkpt><trkpt lat="44.2553655" lon="8.2948417"><ele>808.0</ele><time>2026-05-02T13:42:07.157Z</time></trkpt><trkpt lat="44.2553327" lon="8.2949884"><ele>806.75</ele><time>2026-05-02T13:42:08.161Z</time></trkpt><trkpt lat="44.2553165" lon="8.2951341"><ele>805.5</ele><time>2026-05-02T13:42:09.159Z</time></trkpt><trkpt lat="44.2553078" lon="8.2952916"><ele>804.25</ele><time>2026-05-02T13:42:10.151Z</time></trkpt><trkpt lat="44.2553079" lon="8.2954653"><ele>803.0</ele><time>2026-05-02T13:42:11.165Z</time></trkpt><trkpt lat="44.2553073" lon="8.29562"><ele>802.0</ele><time>2026-05-02T13:42:12.155Z</time></trkpt><trkpt lat="44.2553009" lon="8.295767"><ele>801.0</ele><time>2026-05-02T13:42:13.157Z</time></trkpt><trkpt lat="44.2552961" lon="8.2959153"><ele>800.0</ele><time>2026-05-02T13:42:14.159Z</time></trkpt><trkpt lat="44.2553183" lon="8.296068"><ele>799.0</ele><time>2026-05-02T13:42:15.153Z</time></trkpt><trkpt lat="44.2553524" lon="8.2962219"><ele>798.0</ele><time>2026-05-02T13:42:16.152Z</time></trkpt><trkpt lat="44.2554022" lon="8.296353"><ele>796.0</ele><time>2026-05-02T13:42:17.153Z</time></trkpt><trkpt lat="44.2554537" lon="8.2965055"><ele>794.0</ele><time>2026-05-02T13:42:18.157Z</time></trkpt><trkpt lat="44.2555212" lon="8.2966654"><ele>792.0</ele><time>2026-05-02T13:42:19.162Z</time></trkpt><trkpt lat="44.2555936" lon="8.2968269"><ele>790.0</ele><time>2026-05-02T13:42:20.158Z</time></trkpt><trkpt lat="44.255692" lon="8.2969898"><ele>796.0</ele><time>2026-05-02T13:42:21.172Z</time></trkpt><trkpt lat="44.2557845" lon="8.297147"><ele>802.0</ele><time>2026-05-02T13:42:22.158Z</time></trkpt><trkpt lat="44.25587" lon="8.2972841"><ele>808.0</ele><time>2026-05-02T13:42:23.164Z</time></trkpt><trkpt lat="44.2559586" lon="8.2974086"><ele>814.0</ele><time>2026-05-02T13:42:24.163Z</time></trkpt><trkpt lat="44.2560483" lon="8.2975275"><ele>814.0</ele><time>2026-05-02T13:42:25.17Z</time></trkpt><trkpt lat="44.2561168" lon="8.297656"><ele>814.0</ele><time>2026-05-02T13:42:26.162Z</time></trkpt><trkpt lat="44.2561554" lon="8.2977999"><ele>814.0</ele><time>2026-05-02T13:42:27.163Z</time></trkpt><trkpt lat="44.2561921" lon="8.2979524"><ele>814.0</ele><time>2026-05-02T13:42:28.172Z</time></trkpt><trkpt lat="44.2562241" lon="8.298104"><ele>812.75</ele><time>2026-05-02T13:42:29.166Z</time></trkpt><trkpt lat="44.2562711" lon="8.2982644"><ele>811.5</ele><time>2026-05-02T13:42:30.167Z</time></trkpt><trkpt lat="44.2563159" lon="8.2984288"><ele>810.25</ele><time>2026-05-02T13:42:31.174Z</time></trkpt><trkpt lat="44.2563733" lon="8.2985803"><ele>809.0</ele><time>2026-05-02T13:42:32.171Z</time></trkpt><trkpt lat="44.2564271" lon="8.2987239"><ele>814.6</ele><time>2026-05-02T13:42:33.171Z</time></trkpt><trkpt lat="44.2564646" lon="8.298863"><ele>820.2</ele><time>2026-05-02T13:42:34.165Z</time></trkpt><trkpt lat="44.2564947" lon="8.2989952"><ele>825.8000000000001</ele><time>2026-05-02T13:42:35.167Z</time></trkpt><trkpt lat="44.2565204" lon="8.2991176"><ele>831.4000000000001</ele><time>2026-05-02T13:42:36.164Z</time></trkpt><trkpt lat="44.256532" lon="8.2992243"><ele>837.0</ele><time>2026-05-02T13:42:37.162Z</time></trkpt><trkpt lat="44.2565256" lon="8.2993574"><ele>837.0</ele><time>2026-05-02T13:42:39.166Z</time></trkpt><trkpt lat="44.2564533" lon="8.2993333"><ele>837.0</ele><time>2026-05-02T13:42:43.158Z</time></trkpt><trkpt lat="44.2563791" lon="8.2994094"><ele>837.0</ele><time>2026-05-02T13:42:46.151Z</time></trkpt><trkpt lat="44.256315" lon="8.2995156"><ele>837.0</ele><time>2026-05-02T13:42:48.159Z</time></trkpt><trkpt lat="44.2562623" lon="8.2996411"><ele>837.0</ele><time>2026-05-02T13:42:50.156Z</time></trkpt><trkpt lat="44.256207" lon="8.2997827"><ele>832.4000000000001</ele><time>2026-05-02T13:42:52.165Z</time></trkpt><trkpt lat="44.2561521" lon="8.2999364"><ele>827.8000000000001</ele><time>2026-05-02T13:42:54.162Z</time></trkpt><trkpt lat="44.2561109" lon="8.3000111"><ele>823.2</ele><time>2026-05-02T13:42:55.157Z</time></trkpt><trkpt lat="44.2560567" lon="8.300096"><ele>818.6</ele><time>2026-05-02T13:42:56.161Z</time></trkpt><trkpt lat="44.2560031" lon="8.3002125"><ele>814.0</ele><time>2026-05-02T13:42:57.163Z</time></trkpt><trkpt lat="44.2559399" lon="8.3002957"><ele>814.0</ele><time>2026-05-02T13:42:58.146Z</time></trkpt><trkpt lat="44.2558736" lon="8.3003739"><ele>814.0</ele><time>2026-05-02T13:42:59.155Z</time></trkpt><trkpt lat="44.2558181" lon="8.3004738"><ele>814.0</ele><time>2026-05-02T13:43:00.156Z</time></trkpt><trkpt lat="44.2557614" lon="8.3005732"><ele>814.0</ele><time>2026-05-02T13:43:01.157Z</time></trkpt><trkpt lat="44.2557023" lon="8.3006914"><ele>814.0</ele><time>2026-05-02T13:43:02.151Z</time></trkpt><trkpt lat="44.2556377" lon="8.3008302"><ele>813.5</ele><time>2026-05-02T13:43:03.151Z</time></trkpt><trkpt lat="44.2555894" lon="8.3009718"><ele>813.0</ele><time>2026-05-02T13:43:04.154Z</time></trkpt><trkpt lat="44.2555423" lon="8.3011217"><ele>812.5</ele><time>2026-05-02T13:43:05.15Z</time></trkpt><trkpt lat="44.2554893" lon="8.3012858"><ele>812.0</ele><time>2026-05-02T13:43:06.149Z</time></trkpt><trkpt lat="44.2554396" lon="8.3014455"><ele>812.0</ele><time>2026-05-02T13:43:07.144Z</time></trkpt><trkpt lat="44.2553974" lon="8.3015981"><ele>812.0</ele><time>2026-05-02T13:43:08.143Z</time></trkpt><trkpt lat="44.2553584" lon="8.3017246"><ele>812.0</ele><time>2026-05-02T13:43:09.149Z</time></trkpt><trkpt lat="44.2553016" lon="8.301853"><ele>812.0</ele><time>2026-05-02T13:43:10.145Z</time></trkpt><trkpt lat="44.2552321" lon="8.3019764"><ele>812.0</ele><time>2026-05-02T13:43:11.147Z</time></trkpt><trkpt lat="44.2551576" lon="8.3020899"><ele>812.0</ele><time>2026-05-02T13:43:12.147Z</time></trkpt><trkpt lat="44.2550749" lon="8.3021952"><ele>812.0</ele><time>2026-05-02T13:43:13.148Z</time></trkpt><trkpt lat="44.254995" lon="8.3022941"><ele>812.0</ele><time>2026-05-02T13:43:14.15Z</time></trkpt><trkpt lat="44.2549174" lon="8.3024064"><ele>812.0</ele><time>2026-05-02T13:43:15.161Z</time></trkpt><trkpt lat="44.2548423" lon="8.3025149"><ele>812.0</ele><time>2026-05-02T13:43:16.155Z</time></trkpt><trkpt lat="44.2547599" lon="8.3026231"><ele>811.3333333333334</ele><time>2026-05-02T13:43:17.158Z</time></trkpt><trkpt lat="44.2547042" lon="8.3027175"><ele>810.6666666666667</ele><time>2026-05-02T13:43:18.157Z</time></trkpt><trkpt lat="44.2546592" lon="8.3028025"><ele>810.0</ele><time>2026-05-02T13:43:19.156Z</time></trkpt><trkpt lat="44.2546139" lon="8.3028812"><ele>809.3333333333333</ele><time>2026-05-02T13:43:20.157Z</time></trkpt><trkpt lat="44.2545927" lon="8.3029877"><ele>808.6666666666666</ele><time>2026-05-02T13:43:21.153Z</time></trkpt><trkpt lat="44.2545791" lon="8.3031038"><ele>808.0</ele><time>2026-05-02T13:43:22.151Z</time></trkpt><trkpt lat="44.2545549" lon="8.3032287"><ele>807.9999999999999</ele><time>2026-05-02T13:43:23.161Z</time></trkpt><trkpt lat="44.2545454" lon="8.3033395"><ele>808.0</ele><time>2026-05-02T13:43:24.159Z</time></trkpt><trkpt lat="44.2545254" lon="8.3034426"><ele>808.0</ele><time>2026-05-02T13:43:25.157Z</time></trkpt><trkpt lat="44.2544992" lon="8.3035485"><ele>808.0</ele><time>2026-05-02T13:43:26.159Z</time></trkpt><trkpt lat="44.254483" lon="8.3036574"><ele>807.9999999999999</ele><time>2026-05-02T13:43:27.157Z</time></trkpt><trkpt lat="44.2544648" lon="8.3037657"><ele>808.0</ele><time>2026-05-02T13:43:28.161Z</time></trkpt><trkpt lat="44.2544442" lon="8.3038926"><ele>809.5999999999999</ele><time>2026-05-02T13:43:29.161Z</time></trkpt><trkpt lat="44.2543914" lon="8.3040032"><ele>811.1999999999999</ele><time>2026-05-02T13:43:30.165Z</time></trkpt><trkpt lat="44.2543473" lon="8.3041414"><ele>812.8</ele><time>2026-05-02T13:43:31.172Z</time></trkpt><trkpt lat="44.2542878" lon="8.3042795"><ele>814.4</ele><time>2026-05-02T13:43:32.158Z</time></trkpt><trkpt lat="44.2542473" lon="8.3044075"><ele>816.0</ele><time>2026-05-02T13:43:33.159Z</time></trkpt><trkpt lat="44.2542077" lon="8.3045287"><ele>816.0</ele><time>2026-05-02T13:43:34.162Z</time></trkpt><trkpt lat="44.2541797" lon="8.3046637"><ele>816.0</ele><time>2026-05-02T13:43:35.157Z</time></trkpt><trkpt lat="44.2541629" lon="8.3047998"><ele>816.0</ele><time>2026-05-02T13:43:36.168Z</time></trkpt><trkpt lat="44.2541418" lon="8.3049404"><ele>816.0</ele><time>2026-05-02T13:43:37.157Z</time></trkpt><trkpt lat="44.2541339" lon="8.3050816"><ele>816.0</ele><time>2026-05-02T13:43:38.16Z</time></trkpt><trkpt lat="44.254142" lon="8.3052361"><ele>815.1999999999999</ele><time>2026-05-02T13:43:39.154Z</time></trkpt><trkpt lat="44.2541399" lon="8.3053889"><ele>814.4</ele><time>2026-05-02T13:43:40.164Z</time></trkpt><trkpt lat="44.2541463" lon="8.3055456"><ele>813.6</ele><time>2026-05-02T13:43:41.165Z</time></trkpt><trkpt lat="44.2541743" lon="8.3056753"><ele>812.8</ele><time>2026-05-02T13:43:42.17Z</time></trkpt><trkpt lat="44.2542052" lon="8.3058005"><ele>812.0</ele><time>2026-05-02T13:43:43.166Z</time></trkpt><trkpt lat="44.2542377" lon="8.30593"><ele>811.0</ele><time>2026-05-02T13:43:44.168Z</time></trkpt><trkpt lat="44.2542698" lon="8.3060391"><ele>810.0</ele><time>2026-05-02T13:43:45.166Z</time></trkpt><trkpt lat="44.254306" lon="8.3061305"><ele>809.0</ele><time>2026-05-02T13:43:46.167Z</time></trkpt><trkpt lat="44.2543615" lon="8.3062342"><ele>808.0</ele><time>2026-05-02T13:43:47.161Z</time></trkpt><trkpt lat="44.2544039" lon="8.3063627"><ele>807.0</ele><time>2026-05-02T13:43:48.171Z</time></trkpt><trkpt lat="44.2544357" lon="8.3065018"><ele>806.3333333333334</ele><time>2026-05-02T13:43:49.166Z</time></trkpt><trkpt lat="44.254476" lon="8.3066255"><ele>805.6666666666667</ele><time>2026-05-02T13:43:50.168Z</time></trkpt><trkpt lat="44.2544988" lon="8.3067373"><ele>805.0</ele><time>2026-05-02T13:43:51.18Z</time></trkpt><trkpt lat="44.2545051" lon="8.3068511"><ele>804.3333333333334</ele><time>2026-05-02T13:43:52.17Z</time></trkpt><trkpt lat="44.2545024" lon="8.3069583"><ele>803.6666666666667</ele><time>2026-05-02T13:43:53.173Z</time></trkpt><trkpt lat="44.2544837" lon="8.307066"><ele>803.0</ele><time>2026-05-02T13:43:54.174Z</time></trkpt><trkpt lat="44.2544904" lon="8.3071842"><ele>804.1666666666667</ele><time>2026-05-02T13:43:55.174Z</time></trkpt><trkpt lat="44.2544999" lon="8.3072991"><ele>805.3333333333334</ele><time>2026-05-02T13:43:56.171Z</time></trkpt><trkpt lat="44.2545379" lon="8.3073932"><ele>806.5</ele><time>2026-05-02T13:43:57.176Z</time></trkpt><trkpt lat="44.2545823" lon="8.3074808"><ele>807.6666666666667</ele><time>2026-05-02T13:43:58.178Z</time></trkpt><trkpt lat="44.254635" lon="8.3075481"><ele>808.8333333333334</ele><time>2026-05-02T13:43:59.172Z</time></trkpt><trkpt lat="44.2547394" lon="8.3076198"><ele>810.0</ele><time>2026-05-02T13:44:01.174Z</time></trkpt><trkpt lat="44.2548782" lon="8.3076914"><ele>810.0</ele><time>2026-05-02T13:44:03.171Z</time></trkpt><trkpt lat="44.2549354" lon="8.3077522"><ele>810.0</ele><time>2026-05-02T13:44:04.17Z</time></trkpt><trkpt lat="44.2549901" lon="8.3078333"><ele>810.0</ele><time>2026-05-02T13:44:05.172Z</time></trkpt><trkpt lat="44.2550377" lon="8.3079264"><ele>810.0</ele><time>2026-05-02T13:44:06.175Z</time></trkpt><trkpt lat="44.2550996" lon="8.3079977"><ele>810.0</ele><time>2026-05-02T13:44:07.162Z</time></trkpt><trkpt lat="44.2551975" lon="8.3081075"><ele>810.0</ele><time>2026-05-02T13:44:09.171Z</time></trkpt><trkpt lat="44.255263" lon="8.3081678"><ele>810.4</ele><time>2026-05-02T13:44:10.166Z</time></trkpt><trkpt lat="44.2553187" lon="8.3082201"><ele>810.8</ele><time>2026-05-02T13:44:11.163Z</time></trkpt><trkpt lat="44.2554028" lon="8.308262"><ele>811.2</ele><time>2026-05-02T13:44:12.166Z</time></trkpt><trkpt lat="44.255488" lon="8.3082806"><ele>811.6</ele><time>2026-05-02T13:44:13.166Z</time></trkpt><trkpt lat="44.2555898" lon="8.3083056"><ele>812.0</ele><time>2026-05-02T13:44:14.17Z</time></trkpt><trkpt lat="44.2556923" lon="8.3083603"><ele>812.0</ele><time>2026-05-02T13:44:15.165Z</time></trkpt><trkpt lat="44.2558137" lon="8.3084291"><ele>812.0</ele><time>2026-05-02T13:44:16.174Z</time></trkpt><trkpt lat="44.2559232" lon="8.3084886"><ele>812.0</ele><time>2026-05-02T13:44:17.175Z</time></trkpt><trkpt lat="44.2560395" lon="8.3085611"><ele>812.0</ele><time>2026-05-02T13:44:18.166Z</time></trkpt><trkpt lat="44.2561516" lon="8.3086398"><ele>812.0</ele><time>2026-05-02T13:44:19.169Z</time></trkpt><trkpt lat="44.256246" lon="8.3087337"><ele>812.0</ele><time>2026-05-02T13:44:20.168Z</time></trkpt><trkpt lat="44.2563389" lon="8.308834"><ele>812.0</ele><time>2026-05-02T13:44:21.169Z</time></trkpt><trkpt lat="44.2564024" lon="8.3089427"><ele>812.0</ele><time>2026-05-02T13:44:22.168Z</time></trkpt><trkpt lat="44.2564649" lon="8.3090463"><ele>812.0</ele><time>2026-05-02T13:44:23.169Z</time></trkpt><trkpt lat="44.256526" lon="8.3091278"><ele>811.8</ele><time>2026-05-02T13:44:24.177Z</time></trkpt><trkpt lat="44.2565956" lon="8.3091936"><ele>811.6</ele><time>2026-05-02T13:44:25.176Z</time></trkpt><trkpt lat="44.2566701" lon="8.3092433"><ele>811.4</ele><time>2026-05-02T13:44:26.175Z</time></trkpt><trkpt lat="44.2567564" lon="8.3092781"><ele>811.1999999999999</ele><time>2026-05-02T13:44:27.176Z</time></trkpt><trkpt lat="44.2568532" lon="8.3093092"><ele>811.0</ele><time>2026-05-02T13:44:28.177Z</time></trkpt><trkpt lat="44.256955" lon="8.3093574"><ele>811.0</ele><time>2026-05-02T13:44:29.17Z</time></trkpt><trkpt lat="44.257052" lon="8.3094323"><ele>811.0</ele><time>2026-05-02T13:44:30.176Z</time></trkpt><trkpt lat="44.2571466" lon="8.3095259"><ele>811.0</ele><time>2026-05-02T13:44:31.175Z</time></trkpt><trkpt lat="44.2572367" lon="8.3096193"><ele>811.0</ele><time>2026-05-02T13:44:32.17Z</time></trkpt><trkpt lat="44.2573234" lon="8.3097048"><ele>811.0</ele><time>2026-05-02T13:44:33.17Z</time></trkpt><trkpt lat="44.2574053" lon="8.3097922"><ele>810.1999999999999</ele><time>2026-05-02T13:44:34.17Z</time></trkpt><trkpt lat="44.2574911" lon="8.3098679"><ele>809.4</ele><time>2026-05-02T13:44:35.169Z</time></trkpt><trkpt lat="44.2575843" lon="8.3099464"><ele>808.6</ele><time>2026-05-02T13:44:36.16Z</time></trkpt><trkpt lat="44.2576806" lon="8.3100181"><ele>807.8</ele><time>2026-05-02T13:44:37.164Z</time></trkpt><trkpt lat="44.2577646" lon="8.3100973"><ele>807.0</ele><time>2026-05-02T13:44:38.158Z</time></trkpt><trkpt lat="44.2578444" lon="8.3101686"><ele>807.0</ele><time>2026-05-02T13:44:39.158Z</time></trkpt><trkpt lat="44.2579063" lon="8.3102701"><ele>807.0</ele><time>2026-05-02T13:44:40.166Z</time></trkpt><trkpt lat="44.2579792" lon="8.3103634"><ele>807.0</ele><time>2026-05-02T13:44:41.161Z</time></trkpt><trkpt lat="44.2580498" lon="8.3104404"><ele>807.0</ele><time>2026-05-02T13:44:42.167Z</time></trkpt><trkpt lat="44.2581315" lon="8.3105025"><ele>807.0</ele><time>2026-05-02T13:44:43.166Z</time></trkpt><trkpt lat="44.2582131" lon="8.3105517"><ele>808.6</ele><time>2026-05-02T13:44:44.164Z</time></trkpt><trkpt lat="44.2582987" lon="8.3105731"><ele>810.2</ele><time>2026-05-02T13:44:45.162Z</time></trkpt><trkpt lat="44.2583923" lon="8.3105677"><ele>811.8</ele><time>2026-05-02T13:44:46.16Z</time></trkpt><trkpt lat="44.258493" lon="8.3105571"><ele>813.4</ele><time>2026-05-02T13:44:47.168Z</time></trkpt><trkpt lat="44.258577" lon="8.3105173"><ele>815.0</ele><time>2026-05-02T13:44:48.166Z</time></trkpt><trkpt lat="44.2586796" lon="8.3104699"><ele>815.0</ele><time>2026-05-02T13:44:49.177Z</time></trkpt><trkpt lat="44.2587813" lon="8.3104112"><ele>815.0</ele><time>2026-05-02T13:44:50.174Z</time></trkpt><trkpt lat="44.2588918" lon="8.3103751"><ele>815.0</ele><time>2026-05-02T13:44:51.181Z</time></trkpt><trkpt lat="44.2590206" lon="8.3103301"><ele>815.0</ele><time>2026-05-02T13:44:52.177Z</time></trkpt><trkpt lat="44.2591265" lon="8.310272"><ele>813.4</ele><time>2026-05-02T13:44:53.18Z</time></trkpt><trkpt lat="44.2592306" lon="8.3102286"><ele>811.8</ele><time>2026-05-02T13:44:54.174Z</time></trkpt><trkpt lat="44.2593276" lon="8.3101878"><ele>810.2</ele><time>2026-05-02T13:44:55.179Z</time></trkpt><trkpt lat="44.2594256" lon="8.3101692"><ele>808.6</ele><time>2026-05-02T13:44:56.171Z</time></trkpt><trkpt lat="44.2595125" lon="8.3101817"><ele>807.0</ele><time>2026-05-02T13:44:57.167Z</time></trkpt><trkpt lat="44.2595886" lon="8.3102196"><ele>807.0</ele><time>2026-05-02T13:44:58.166Z</time></trkpt><trkpt lat="44.2596551" lon="8.3102624"><ele>807.0</ele><time>2026-05-02T13:44:59.178Z</time></trkpt><trkpt lat="44.259712" lon="8.3103409"><ele>807.0</ele><time>2026-05-02T13:45:00.185Z</time></trkpt><trkpt lat="44.2597447" lon="8.310424"><ele>807.0</ele><time>2026-05-02T13:45:01.178Z</time></trkpt><trkpt lat="44.2597759" lon="8.3105093"><ele>807.0</ele><time>2026-05-02T13:45:02.177Z</time></trkpt><trkpt lat="44.2598067" lon="8.310594"><ele>807.0</ele><time>2026-05-02T13:45:03.172Z</time></trkpt><trkpt lat="44.2598526" lon="8.3107531"><ele>807.5</ele><time>2026-05-02T13:45:05.174Z</time></trkpt><trkpt lat="44.259865" lon="8.31092"><ele>808.0</ele><time>2026-05-02T13:45:07.165Z</time></trkpt><trkpt lat="44.259841" lon="8.3110854"><ele>808.5</ele><time>2026-05-02T13:45:09.169Z</time></trkpt><trkpt lat="44.2598188" lon="8.3112325"><ele>809.0</ele><time>2026-05-02T13:45:11.159Z</time></trkpt><trkpt lat="44.2597773" lon="8.3113639"><ele>806.6</ele><time>2026-05-02T13:45:13.16Z</time></trkpt><trkpt lat="44.2597463" lon="8.3115078"><ele>804.2</ele><time>2026-05-02T13:45:15.167Z</time></trkpt><trkpt lat="44.2597183" lon="8.3116644"><ele>801.8000000000001</ele><time>2026-05-02T13:45:17.159Z</time></trkpt><trkpt lat="44.259704" lon="8.3118332"><ele>799.4000000000001</ele><time>2026-05-02T13:45:19.158Z</time></trkpt><trkpt lat="44.2596863" lon="8.3119288"><ele>797.0</ele><time>2026-05-02T13:45:20.155Z</time></trkpt><trkpt lat="44.2596609" lon="8.3120318"><ele>797.0000000000001</ele><time>2026-05-02T13:45:21.155Z</time></trkpt><trkpt lat="44.2596335" lon="8.3121506"><ele>797.0</ele><time>2026-05-02T13:45:22.151Z</time></trkpt><trkpt lat="44.2596089" lon="8.3122544"><ele>797.0</ele><time>2026-05-02T13:45:23.154Z</time></trkpt><trkpt lat="44.2595915" lon="8.3123687"><ele>797.0</ele><time>2026-05-02T13:45:24.163Z</time></trkpt><trkpt lat="44.2595707" lon="8.3124927"><ele>797.0000000000001</ele><time>2026-05-02T13:45:25.16Z</time></trkpt><trkpt lat="44.2595554" lon="8.3126171"><ele>797.0</ele><time>2026-05-02T13:45:26.164Z</time></trkpt><trkpt lat="44.2595452" lon="8.3127479"><ele>796.8</ele><time>2026-05-02T13:45:27.153Z</time></trkpt><trkpt lat="44.2595375" lon="8.3128918"><ele>796.6</ele><time>2026-05-02T13:45:28.151Z</time></trkpt><trkpt lat="44.2595241" lon="8.3130471"><ele>796.4</ele><time>2026-05-02T13:45:29.15Z</time></trkpt><trkpt lat="44.2595243" lon="8.3131939"><ele>796.1999999999999</ele><time>2026-05-02T13:45:30.15Z</time></trkpt><trkpt lat="44.2595223" lon="8.313336"><ele>796.0</ele><time>2026-05-02T13:45:31.152Z</time></trkpt><trkpt lat="44.2595241" lon="8.3134898"><ele>796.0</ele><time>2026-05-02T13:45:32.154Z</time></trkpt><trkpt lat="44.2595204" lon="8.31364"><ele>796.0</ele><time>2026-05-02T13:45:33.155Z</time></trkpt><trkpt lat="44.2595047" lon="8.3137892"><ele>796.0</ele><time>2026-05-02T13:45:34.148Z</time></trkpt><trkpt lat="44.2594882" lon="8.3139331"><ele>796.0</ele><time>2026-05-02T13:45:35.155Z</time></trkpt><trkpt lat="44.2594678" lon="8.3140585"><ele>796.0</ele><time>2026-05-02T13:45:36.156Z</time></trkpt><trkpt lat="44.2594425" lon="8.314201"><ele>795.8</ele><time>2026-05-02T13:45:37.162Z</time></trkpt><trkpt lat="44.2594166" lon="8.3143327"><ele>795.5999999999999</ele><time>2026-05-02T13:45:38.16Z</time></trkpt><trkpt lat="44.2593932" lon="8.3144636"><ele>795.4</ele><time>2026-05-02T13:45:39.164Z</time></trkpt><trkpt lat="44.2593773" lon="8.3146"><ele>795.2</ele><time>2026-05-02T13:45:40.16Z</time></trkpt><trkpt lat="44.2593739" lon="8.314738"><ele>795.0</ele><time>2026-05-02T13:45:41.156Z</time></trkpt><trkpt lat="44.2593872" lon="8.3148742"><ele>793.8</ele><time>2026-05-02T13:45:42.17Z</time></trkpt><trkpt lat="44.2594096" lon="8.3150016"><ele>792.6</ele><time>2026-05-02T13:45:43.167Z</time></trkpt><trkpt lat="44.2594301" lon="8.315142"><ele>791.4000000000001</ele><time>2026-05-02T13:45:44.169Z</time></trkpt><trkpt lat="44.2594731" lon="8.3152575"><ele>790.2</ele><time>2026-05-02T13:45:45.171Z</time></trkpt><trkpt lat="44.2595289" lon="8.3153599"><ele>789.0</ele><time>2026-05-02T13:45:46.152Z</time></trkpt><trkpt lat="44.2595865" lon="8.3154632"><ele>786.8000000000001</ele><time>2026-05-02T13:45:47.166Z</time></trkpt><trkpt lat="44.2596499" lon="8.3155728"><ele>784.6</ele><time>2026-05-02T13:45:48.163Z</time></trkpt><trkpt lat="44.2597069" lon="8.3156878"><ele>782.4</ele><time>2026-05-02T13:45:49.153Z</time></trkpt><trkpt lat="44.2597458" lon="8.3158056"><ele>780.2</ele><time>2026-05-02T13:45:50.158Z</time></trkpt><trkpt lat="44.2597697" lon="8.3159077"><ele>778.0</ele><time>2026-05-02T13:45:51.145Z</time></trkpt><trkpt lat="44.2597781" lon="8.3160248"><ele>778.0</ele><time>2026-05-02T13:45:52.154Z</time></trkpt><trkpt lat="44.2597791" lon="8.3161493"><ele>778.0</ele><time>2026-05-02T13:45:53.163Z</time></trkpt><trkpt lat="44.2597655" lon="8.3162691"><ele>778.0</ele><time>2026-05-02T13:45:54.154Z</time></trkpt><trkpt lat="44.2597483" lon="8.3164"><ele>778.0</ele><time>2026-05-02T13:45:55.16Z</time></trkpt><trkpt lat="44.2597357" lon="8.3165298"><ele>778.0</ele><time>2026-05-02T13:45:56.157Z</time></trkpt><trkpt lat="44.2597077" lon="8.3166592"><ele>777.8</ele><time>2026-05-02T13:45:57.161Z</time></trkpt><trkpt lat="44.2596844" lon="8.3167811"><ele>777.5999999999999</ele><time>2026-05-02T13:45:58.165Z</time></trkpt><trkpt lat="44.2596547" lon="8.3169123"><ele>777.4000000000001</ele><time>2026-05-02T13:45:59.162Z</time></trkpt><trkpt lat="44.2596197" lon="8.3170384"><ele>777.2</ele><time>2026-05-02T13:46:00.161Z</time></trkpt><trkpt lat="44.2595717" lon="8.3171547"><ele>777.0</ele><time>2026-05-02T13:46:01.158Z</time></trkpt><trkpt lat="44.259525" lon="8.31726"><ele>777.5</ele><time>2026-05-02T13:46:02.155Z</time></trkpt><trkpt lat="44.2594844" lon="8.3173467"><ele>778.0</ele><time>2026-05-02T13:46:03.154Z</time></trkpt><trkpt lat="44.2594626" lon="8.3174455"><ele>778.5</ele><time>2026-05-02T13:46:04.158Z</time></trkpt><trkpt lat="44.2594491" lon="8.3175476"><ele>779.0</ele><time>2026-05-02T13:46:05.156Z</time></trkpt><trkpt lat="44.2594304" lon="8.3176493"><ele>779.5</ele><time>2026-05-02T13:46:06.161Z</time></trkpt><trkpt lat="44.2594059" lon="8.317755"><ele>780.0</ele><time>2026-05-02T13:46:07.151Z</time></trkpt><trkpt lat="44.2593684" lon="8.317857"><ele>780.0</ele><time>2026-05-02T13:46:08.153Z</time></trkpt><trkpt lat="44.2593278" lon="8.3179506"><ele>780.0</ele><time>2026-05-02T13:46:09.151Z</time></trkpt><trkpt lat="44.2592764" lon="8.3180355"><ele>780.0</ele><time>2026-05-02T13:46:10.152Z</time></trkpt><trkpt lat="44.2592172" lon="8.3181273"><ele>780.0</ele><time>2026-05-02T13:46:11.15Z</time></trkpt><trkpt lat="44.2591513" lon="8.3182153"><ele>780.0</ele><time>2026-05-02T13:46:12.149Z</time></trkpt><trkpt lat="44.2590877" lon="8.3183109"><ele>780.0</ele><time>2026-05-02T13:46:13.159Z</time></trkpt><trkpt lat="44.2590451" lon="8.3184206"><ele>780.6666666666666</ele><time>2026-05-02T13:46:14.156Z</time></trkpt><trkpt lat="44.2590099" lon="8.3185289"><ele>781.3333333333333</ele><time>2026-05-02T13:46:15.166Z</time></trkpt><trkpt lat="44.2589685" lon="8.3186393"><ele>782.0</ele><time>2026-05-02T13:46:16.163Z</time></trkpt><trkpt lat="44.2589237" lon="8.3187405"><ele>782.6666666666666</ele><time>2026-05-02T13:46:17.163Z</time></trkpt><trkpt lat="44.2588823" lon="8.3188402"><ele>783.3333333333333</ele><time>2026-05-02T13:46:18.151Z</time></trkpt><trkpt lat="44.2588344" lon="8.3189317"><ele>784.0</ele><time>2026-05-02T13:46:19.153Z</time></trkpt><trkpt lat="44.258775" lon="8.3190199"><ele>780.6666666666666</ele><time>2026-05-02T13:46:20.166Z</time></trkpt><trkpt lat="44.2587071" lon="8.3190919"><ele>777.3333333333333</ele><time>2026-05-02T13:46:21.157Z</time></trkpt><trkpt lat="44.2586266" lon="8.3191427"><ele>774.0</ele><time>2026-05-02T13:46:22.147Z</time></trkpt><trkpt lat="44.2585508" lon="8.319183"><ele>770.6666666666666</ele><time>2026-05-02T13:46:23.137Z</time></trkpt><trkpt lat="44.2584729" lon="8.3192183"><ele>767.3333333333333</ele><time>2026-05-02T13:46:24.147Z</time></trkpt><trkpt lat="44.2583899" lon="8.319262"><ele>764.0</ele><time>2026-05-02T13:46:25.155Z</time></trkpt><trkpt lat="44.2583189" lon="8.3193215"><ele>764.0</ele><time>2026-05-02T13:46:26.155Z</time></trkpt><trkpt lat="44.258254" lon="8.319398"><ele>764.0</ele><time>2026-05-02T13:46:27.15Z</time></trkpt><trkpt lat="44.2581995" lon="8.3194896"><ele>764.0</ele><time>2026-05-02T13:46:28.159Z</time></trkpt><trkpt lat="44.2581415" lon="8.3195881"><ele>764.0</ele><time>2026-05-02T13:46:29.157Z</time></trkpt><trkpt lat="44.2580942" lon="8.3196887"><ele>764.0</ele><time>2026-05-02T13:46:30.162Z</time></trkpt><trkpt lat="44.2580541" lon="8.3197939"><ele>764.0</ele><time>2026-05-02T13:46:31.16Z</time></trkpt><trkpt lat="44.258005" lon="8.3198967"><ele>760.5</ele><time>2026-05-02T13:46:32.159Z</time></trkpt><trkpt lat="44.2579446" lon="8.3199918"><ele>757.0</ele><time>2026-05-02T13:46:33.162Z</time></trkpt><trkpt lat="44.2578873" lon="8.3200901"><ele>753.5</ele><time>2026-05-02T13:46:34.166Z</time></trkpt><trkpt lat="44.2578334" lon="8.3201816"><ele>750.0</ele><time>2026-05-02T13:46:35.168Z</time></trkpt><trkpt lat="44.2577802" lon="8.3202752"><ele>746.5</ele><time>2026-05-02T13:46:36.169Z</time></trkpt><trkpt lat="44.2577337" lon="8.3203628"><ele>743.0</ele><time>2026-05-02T13:46:37.167Z</time></trkpt><trkpt lat="44.2576909" lon="8.3204466"><ele>743.0</ele><time>2026-05-02T13:46:38.154Z</time></trkpt><trkpt lat="44.2576484" lon="8.320531"><ele>743.0</ele><time>2026-05-02T13:46:39.154Z</time></trkpt><trkpt lat="44.2576031" lon="8.3206121"><ele>743.0</ele><time>2026-05-02T13:46:40.16Z</time></trkpt><trkpt lat="44.2575567" lon="8.320698"><ele>743.0</ele><time>2026-05-02T13:46:41.155Z</time></trkpt><trkpt lat="44.2575201" lon="8.3208057"><ele>743.0</ele><time>2026-05-02T13:46:42.157Z</time></trkpt><trkpt lat="44.2574768" lon="8.3209081"><ele>743.0</ele><time>2026-05-02T13:46:43.158Z</time></trkpt><trkpt lat="44.2574352" lon="8.3210206"><ele>741.2</ele><time>2026-05-02T13:46:44.159Z</time></trkpt><trkpt lat="44.2573941" lon="8.3211303"><ele>739.4</ele><time>2026-05-02T13:46:45.159Z</time></trkpt><trkpt lat="44.2573501" lon="8.3212495"><ele>737.6</ele><time>2026-05-02T13:46:46.163Z</time></trkpt><trkpt lat="44.2573002" lon="8.3213604"><ele>735.8000000000001</ele><time>2026-05-02T13:46:47.16Z</time></trkpt><trkpt lat="44.2572557" lon="8.3214781"><ele>734.0</ele><time>2026-05-02T13:46:48.154Z</time></trkpt><trkpt lat="44.2572171" lon="8.3216082"><ele>734.0</ele><time>2026-05-02T13:46:49.158Z</time></trkpt><trkpt lat="44.2571745" lon="8.3217402"><ele>734.0</ele><time>2026-05-02T13:46:50.163Z</time></trkpt><trkpt lat="44.2571283" lon="8.3218617"><ele>734.0</ele><time>2026-05-02T13:46:51.166Z</time></trkpt><trkpt lat="44.2570914" lon="8.3219843"><ele>734.0</ele><time>2026-05-02T13:46:52.167Z</time></trkpt><trkpt lat="44.2570461" lon="8.3221103"><ele>734.0</ele><time>2026-05-02T13:46:53.154Z</time></trkpt><trkpt lat="44.2570009" lon="8.3222346"><ele>735.4000000000001</ele><time>2026-05-02T13:46:54.154Z</time></trkpt><trkpt lat="44.2569458" lon="8.3223528"><ele>736.8</ele><time>2026-05-02T13:46:55.166Z</time></trkpt><trkpt lat="44.2568754" lon="8.3224569"><ele>738.2</ele><time>2026-05-02T13:46:56.162Z</time></trkpt><trkpt lat="44.2568081" lon="8.322554"><ele>739.5999999999999</ele><time>2026-05-02T13:46:57.157Z</time></trkpt><trkpt lat="44.2567426" lon="8.3226436"><ele>741.0</ele><time>2026-05-02T13:46:58.157Z</time></trkpt><trkpt lat="44.2566841" lon="8.3227352"><ele>741.0</ele><time>2026-05-02T13:46:59.148Z</time></trkpt><trkpt lat="44.2566292" lon="8.322817"><ele>741.0</ele><time>2026-05-02T13:47:00.149Z</time></trkpt><trkpt lat="44.2565803" lon="8.3228901"><ele>741.0</ele><time>2026-05-02T13:47:01.158Z</time></trkpt><trkpt lat="44.2565411" lon="8.3229686"><ele>741.0</ele><time>2026-05-02T13:47:02.162Z</time></trkpt><trkpt lat="44.2564854" lon="8.323023"><ele>741.0</ele><time>2026-05-02T13:47:03.159Z</time></trkpt><trkpt lat="44.2564241" lon="8.3230779"><ele>741.0</ele><time>2026-05-02T13:47:04.161Z</time></trkpt><trkpt lat="44.256364" lon="8.3231363"><ele>741.0</ele><time>2026-05-02T13:47:05.159Z</time></trkpt><trkpt lat="44.2563062" lon="8.323189"><ele>738.8571428571428</ele><time>2026-05-02T13:47:06.157Z</time></trkpt><trkpt lat="44.2562336" lon="8.3232318"><ele>736.7142857142858</ele><time>2026-05-02T13:47:07.154Z</time></trkpt><trkpt lat="44.2561516" lon="8.3232595"><ele>734.5714285714286</ele><time>2026-05-02T13:47:08.147Z</time></trkpt><trkpt lat="44.2560776" lon="8.3232768"><ele>732.4285714285713</ele><time>2026-05-02T13:47:09.143Z</time></trkpt><trkpt lat="44.2560026" lon="8.3233049"><ele>730.2857142857142</ele><time>2026-05-02T13:47:10.141Z</time></trkpt><trkpt lat="44.255937" lon="8.3233098"><ele>728.1428571428571</ele><time>2026-05-02T13:47:11.144Z</time></trkpt><trkpt lat="44.2558721" lon="8.3233222"><ele>726.0</ele><time>2026-05-02T13:47:12.143Z</time></trkpt><trkpt lat="44.2557574" lon="8.3233419"><ele>726.0</ele><time>2026-05-02T13:47:14.148Z</time></trkpt><trkpt lat="44.2556915" lon="8.3233546"><ele>726.0</ele><time>2026-05-02T13:47:15.153Z</time></trkpt><trkpt lat="44.2555682" lon="8.3234229"><ele>726.0</ele><time>2026-05-02T13:47:17.152Z</time></trkpt><trkpt lat="44.2555125" lon="8.3234806"><ele>726.0</ele><time>2026-05-02T13:47:18.149Z</time></trkpt><trkpt lat="44.255453" lon="8.3235366"><ele>726.0</ele><time>2026-05-02T13:47:19.155Z</time></trkpt><trkpt lat="44.2554058" lon="8.3236092"><ele>726.0</ele><time>2026-05-02T13:47:20.151Z</time></trkpt><trkpt lat="44.2553578" lon="8.3236834"><ele>722.6666666666666</ele><time>2026-05-02T13:47:21.161Z</time></trkpt><trkpt lat="44.2553171" lon="8.3237732"><ele>719.3333333333334</ele><time>2026-05-02T13:47:22.156Z</time></trkpt><trkpt lat="44.2553063" lon="8.3238689"><ele>716.0</ele><time>2026-05-02T13:47:23.165Z</time></trkpt><trkpt lat="44.2553104" lon="8.323984"><ele>712.6666666666667</ele><time>2026-05-02T13:47:24.168Z</time></trkpt><trkpt lat="44.2553297" lon="8.3240836"><ele>709.3333333333334</ele><time>2026-05-02T13:47:25.174Z</time></trkpt><trkpt lat="44.2553656" lon="8.3242188"><ele>706.0</ele><time>2026-05-02T13:47:27.172Z</time></trkpt><trkpt lat="44.2553957" lon="8.3243249"><ele>705.4</ele><time>2026-05-02T13:47:29.167Z</time></trkpt><trkpt lat="44.255436" lon="8.3244436"><ele>704.8</ele><time>2026-05-02T13:47:31.169Z</time></trkpt><trkpt lat="44.2555013" lon="8.3245909"><ele>704.1999999999999</ele><time>2026-05-02T13:47:33.162Z</time></trkpt><trkpt lat="44.2555403" lon="8.3247022"><ele>703.5999999999999</ele><time>2026-05-02T13:47:34.157Z</time></trkpt><trkpt lat="44.255555" lon="8.324802"><ele>703.0</ele><time>2026-05-02T13:47:35.165Z</time></trkpt><trkpt lat="44.2555762" lon="8.3249049"><ele>703.0</ele><time>2026-05-02T13:47:36.165Z</time></trkpt><trkpt lat="44.2556015" lon="8.3250091"><ele>703.0</ele><time>2026-05-02T13:47:37.151Z</time></trkpt><trkpt lat="44.255637" lon="8.3251222"><ele>703.0</ele><time>2026-05-02T13:47:38.165Z</time></trkpt><trkpt lat="44.2556615" lon="8.3252396"><ele>703.0</ele><time>2026-05-02T13:47:39.168Z</time></trkpt><trkpt lat="44.2557072" lon="8.3253566"><ele>703.0</ele><time>2026-05-02T13:47:40.163Z</time></trkpt><trkpt lat="44.2557558" lon="8.3254744"><ele>703.0</ele><time>2026-05-02T13:47:41.163Z</time></trkpt><trkpt lat="44.2557938" lon="8.3255812"><ele>703.0</ele><time>2026-05-02T13:47:42.165Z</time></trkpt><trkpt lat="44.2558415" lon="8.3256875"><ele>703.0</ele><time>2026-05-02T13:47:43.162Z</time></trkpt><trkpt lat="44.2558922" lon="8.3257798"><ele>703.0</ele><time>2026-05-02T13:47:44.161Z</time></trkpt><trkpt lat="44.2559445" lon="8.3258969"><ele>703.0</ele><time>2026-05-02T13:47:45.166Z</time></trkpt><trkpt lat="44.2559892" lon="8.3260162"><ele>703.0</ele><time>2026-05-02T13:47:46.168Z</time></trkpt><trkpt lat="44.2560356" lon="8.3261362"><ele>703.0</ele><time>2026-05-02T13:47:47.156Z</time></trkpt><trkpt lat="44.2560841" lon="8.3262442"><ele>703.0</ele><time>2026-05-02T13:47:48.166Z</time></trkpt><trkpt lat="44.2561277" lon="8.3263572"><ele>703.0</ele><time>2026-05-02T13:47:49.171Z</time></trkpt><trkpt lat="44.2561637" lon="8.3264634"><ele>703.0</ele><time>2026-05-02T13:47:50.17Z</time></trkpt><trkpt lat="44.256196" lon="8.3265785"><ele>703.0</ele><time>2026-05-02T13:47:51.172Z</time></trkpt><trkpt lat="44.2562104" lon="8.3267055"><ele>703.0</ele><time>2026-05-02T13:47:52.17Z</time></trkpt><trkpt lat="44.2562114" lon="8.326838"><ele>700.8</ele><time>2026-05-02T13:47:53.159Z</time></trkpt><trkpt lat="44.2562132" lon="8.3269755"><ele>698.5999999999999</ele><time>2026-05-02T13:47:54.17Z</time></trkpt><trkpt lat="44.2562167" lon="8.3271076"><ele>696.4000000000001</ele><time>2026-05-02T13:47:55.172Z</time></trkpt><trkpt lat="44.256223" lon="8.3272524"><ele>694.2</ele><time>2026-05-02T13:47:56.17Z</time></trkpt><trkpt lat="44.2562304" lon="8.3274051"><ele>692.0</ele><time>2026-05-02T13:47:57.165Z</time></trkpt><trkpt lat="44.2562496" lon="8.3275399"><ele>691.8</ele><time>2026-05-02T13:47:58.164Z</time></trkpt><trkpt lat="44.256269" lon="8.3276621"><ele>691.6</ele><time>2026-05-02T13:47:59.168Z</time></trkpt><trkpt lat="44.2562993" lon="8.3277742"><ele>691.4</ele><time>2026-05-02T13:48:00.171Z</time></trkpt><trkpt lat="44.2563371" lon="8.3278915"><ele>691.1999999999999</ele><time>2026-05-02T13:48:01.175Z</time></trkpt><trkpt lat="44.2563666" lon="8.3280226"><ele>691.0</ele><time>2026-05-02T13:48:02.175Z</time></trkpt><trkpt lat="44.2563855" lon="8.3281583"><ele>688.8</ele><time>2026-05-02T13:48:03.164Z</time></trkpt><trkpt lat="44.2563945" lon="8.3282821"><ele>686.5999999999999</ele><time>2026-05-02T13:48:04.175Z</time></trkpt><trkpt lat="44.2564082" lon="8.3284074"><ele>684.4</ele><time>2026-05-02T13:48:05.164Z</time></trkpt><trkpt lat="44.2564114" lon="8.3285438"><ele>682.2</ele><time>2026-05-02T13:48:06.166Z</time></trkpt><trkpt lat="44.2563975" lon="8.3286724"><ele>680.0</ele><time>2026-05-02T13:48:07.156Z</time></trkpt><trkpt lat="44.2563854" lon="8.3288027"><ele>678.8</ele><time>2026-05-02T13:48:08.155Z</time></trkpt><trkpt lat="44.2563683" lon="8.328928"><ele>677.6</ele><time>2026-05-02T13:48:09.162Z</time></trkpt><trkpt lat="44.2563603" lon="8.3290501"><ele>676.4000000000001</ele><time>2026-05-02T13:48:10.162Z</time></trkpt><trkpt lat="44.2563396" lon="8.329176"><ele>675.2</ele><time>2026-05-02T13:48:11.159Z</time></trkpt><trkpt lat="44.2563179" lon="8.3293068"><ele>674.0</ele><time>2026-05-02T13:48:12.165Z</time></trkpt><trkpt lat="44.2562833" lon="8.3294405"><ele>674.0</ele><time>2026-05-02T13:48:13.168Z</time></trkpt><trkpt lat="44.2562439" lon="8.3295614"><ele>674.0</ele><time>2026-05-02T13:48:14.156Z</time></trkpt><trkpt lat="44.2562013" lon="8.3296807"><ele>674.0</ele><time>2026-05-02T13:48:15.168Z</time></trkpt><trkpt lat="44.2561535" lon="8.3297805"><ele>674.0</ele><time>2026-05-02T13:48:16.162Z</time></trkpt><trkpt lat="44.256099" lon="8.3298742"><ele>674.0</ele><time>2026-05-02T13:48:17.163Z</time></trkpt><trkpt lat="44.2560495" lon="8.329946"><ele>674.0</ele><time>2026-05-02T13:48:18.167Z</time></trkpt><trkpt lat="44.2559991" lon="8.3300199"><ele>674.0</ele><time>2026-05-02T13:48:19.173Z</time></trkpt><trkpt lat="44.2559551" lon="8.3300986"><ele>674.0</ele><time>2026-05-02T13:48:20.162Z</time></trkpt><trkpt lat="44.255913" lon="8.330173"><ele>674.0</ele><time>2026-05-02T13:48:21.161Z</time></trkpt><trkpt lat="44.255852" lon="8.3302757"><ele>674.0</ele><time>2026-05-02T13:48:23.162Z</time></trkpt><trkpt lat="44.2558097" lon="8.3303419"><ele>674.0</ele><time>2026-05-02T13:48:25.176Z</time></trkpt><trkpt lat="44.2558081" lon="8.3304649"><ele>674.0</ele><time>2026-05-02T13:48:32.184Z</time></trkpt><trkpt lat="44.2557933" lon="8.3305797"><ele>674.0</ele><time>2026-05-02T13:48:35.155Z</time></trkpt><trkpt lat="44.2557452" lon="8.3307432"><ele>674.0</ele><time>2026-05-02T13:48:37.153Z</time></trkpt><trkpt lat="44.2557066" lon="8.3308757"><ele>674.0</ele><time>2026-05-02T13:48:38.157Z</time></trkpt><trkpt lat="44.2556918" lon="8.3310032"><ele>674.0</ele><time>2026-05-02T13:48:39.158Z</time></trkpt><trkpt lat="44.2556598" lon="8.3311083"><ele>674.0</ele><time>2026-05-02T13:48:40.154Z</time></trkpt><trkpt lat="44.2556317" lon="8.3312061"><ele>672.3333333333333</ele><time>2026-05-02T13:48:41.162Z</time></trkpt><trkpt lat="44.2555995" lon="8.3312879"><ele>670.6666666666666</ele><time>2026-05-02T13:48:42.154Z</time></trkpt><trkpt lat="44.2556133" lon="8.3313873"><ele>669.0</ele><time>2026-05-02T13:48:44.158Z</time></trkpt><trkpt lat="44.2556663" lon="8.3314524"><ele>667.3333333333334</ele><time>2026-05-02T13:48:50.162Z</time></trkpt><trkpt lat="44.2557087" lon="8.3315366"><ele>665.6666666666667</ele><time>2026-05-02T13:48:52.155Z</time></trkpt><trkpt lat="44.2557857" lon="8.3316406"><ele>664.0</ele><time>2026-05-02T13:48:54.161Z</time></trkpt><trkpt lat="44.2558277" lon="8.3317929"><ele>664.0</ele><time>2026-05-02T13:48:56.164Z</time></trkpt><trkpt lat="44.2558834" lon="8.3319145"><ele>664.0</ele><time>2026-05-02T13:48:58.16Z</time></trkpt><trkpt lat="44.2559526" lon="8.3319891"><ele>664.0</ele><time>2026-05-02T13:49:00.161Z</time></trkpt><trkpt lat="44.256023" lon="8.3320314"><ele>664.0</ele><time>2026-05-02T13:49:02.173Z</time></trkpt><trkpt lat="44.2560847" lon="8.3320097"><ele>664.0</ele><time>2026-05-02T13:49:03.156Z</time></trkpt><trkpt lat="44.2561438" lon="8.3319315"><ele>664.0</ele><time>2026-05-02T13:49:04.163Z</time></trkpt><trkpt lat="44.2562051" lon="8.3318467"><ele>664.0</ele><time>2026-05-02T13:49:05.156Z</time></trkpt><trkpt lat="44.2562738" lon="8.3317622"><ele>664.0</ele><time>2026-05-02T13:49:06.163Z</time></trkpt><trkpt lat="44.25634" lon="8.3316762"><ele>664.0</ele><time>2026-05-02T13:49:07.165Z</time></trkpt><trkpt lat="44.2563773" lon="8.3316041"><ele>664.0</ele><time>2026-05-02T13:49:08.152Z</time></trkpt><trkpt lat="44.2564204" lon="8.3315161"><ele>664.0</ele><time>2026-05-02T13:49:21.171Z</time></trkpt><trkpt lat="44.2565146" lon="8.3315261"><ele>664.0</ele><time>2026-05-02T13:49:24.166Z</time></trkpt><trkpt lat="44.256562" lon="8.3316856"><ele>664.0</ele><time>2026-05-02T13:49:26.17Z</time></trkpt><trkpt lat="44.2565566" lon="8.3318668"><ele>664.0</ele><time>2026-05-02T13:49:28.166Z</time></trkpt><trkpt lat="44.2565386" lon="8.3319726"><ele>664.0</ele><time>2026-05-02T13:49:29.162Z</time></trkpt><trkpt lat="44.2565013" lon="8.3320662"><ele>664.0</ele><time>2026-05-02T13:49:30.165Z</time></trkpt><trkpt lat="44.2564392" lon="8.3321598"><ele>664.0</ele><time>2026-05-02T13:49:31.168Z</time></trkpt><trkpt lat="44.2563795" lon="8.3322569"><ele>662.2</ele><time>2026-05-02T13:49:32.157Z</time></trkpt><trkpt lat="44.2563075" lon="8.332339"><ele>660.4000000000001</ele><time>2026-05-02T13:49:33.171Z</time></trkpt><trkpt lat="44.2562207" lon="8.3324195"><ele>658.6</ele><time>2026-05-02T13:49:34.169Z</time></trkpt><trkpt lat="44.2561364" lon="8.3325053"><ele>656.8</ele><time>2026-05-02T13:49:35.172Z</time></trkpt><trkpt lat="44.2560509" lon="8.3325776"><ele>655.0</ele><time>2026-05-02T13:49:36.174Z</time></trkpt><trkpt lat="44.2559626" lon="8.3326378"><ele>655.0</ele><time>2026-05-02T13:49:37.179Z</time></trkpt><trkpt lat="44.2558766" lon="8.3327003"><ele>655.0</ele><time>2026-05-02T13:49:38.172Z</time></trkpt><trkpt lat="44.2557923" lon="8.3327619"><ele>655.0</ele><time>2026-05-02T13:49:39.17Z</time></trkpt><trkpt lat="44.2557139" lon="8.3328232"><ele>655.0</ele><time>2026-05-02T13:49:40.173Z</time></trkpt><trkpt lat="44.2556291" lon="8.3328827"><ele>655.0</ele><time>2026-05-02T13:49:41.152Z</time></trkpt><trkpt lat="44.2555535" lon="8.3329457"><ele>653.5</ele><time>2026-05-02T13:49:42.159Z</time></trkpt><trkpt lat="44.2554847" lon="8.3329989"><ele>652.0</ele><time>2026-05-02T13:49:43.157Z</time></trkpt><trkpt lat="44.2554128" lon="8.3330595"><ele>650.5</ele><time>2026-05-02T13:49:44.157Z</time></trkpt><trkpt lat="44.2553357" lon="8.3331073"><ele>649.0</ele><time>2026-05-02T13:49:45.155Z</time></trkpt><trkpt lat="44.2552549" lon="8.3331604"><ele>647.5</ele><time>2026-05-02T13:49:46.157Z</time></trkpt><trkpt lat="44.2551791" lon="8.3332132"><ele>646.0</ele><time>2026-05-02T13:49:47.162Z</time></trkpt><trkpt lat="44.2551165" lon="8.3332667"><ele>645.8333333333334</ele><time>2026-05-02T13:49:48.159Z</time></trkpt><trkpt lat="44.2550596" lon="8.3333135"><ele>645.6666666666667</ele><time>2026-05-02T13:49:49.16Z</time></trkpt><trkpt lat="44.2549998" lon="8.3333684"><ele>645.5</ele><time>2026-05-02T13:49:50.166Z</time></trkpt><trkpt lat="44.2549458" lon="8.3334144"><ele>645.3333333333334</ele><time>2026-05-02T13:49:51.159Z</time></trkpt><trkpt lat="44.2548643" lon="8.3334879"><ele>645.1666666666666</ele><time>2026-05-02T13:49:53.168Z</time></trkpt><trkpt lat="44.2547958" lon="8.3335604"><ele>645.0</ele><time>2026-05-02T13:49:55.17Z</time></trkpt><trkpt lat="44.254762" lon="8.3336686"><ele>643.4</ele><time>2026-05-02T13:49:57.175Z</time></trkpt><trkpt lat="44.2547331" lon="8.333771"><ele>641.8</ele><time>2026-05-02T13:49:59.169Z</time></trkpt><trkpt lat="44.2546997" lon="8.3338801"><ele>640.2</ele><time>2026-05-02T13:50:01.173Z</time></trkpt><trkpt lat="44.2546418" lon="8.3340066"><ele>638.6</ele><time>2026-05-02T13:50:03.174Z</time></trkpt><trkpt lat="44.2546288" lon="8.33418"><ele>637.0</ele><time>2026-05-02T13:50:05.166Z</time></trkpt><trkpt lat="44.2546319" lon="8.3342757"><ele>637.0</ele><time>2026-05-02T13:50:06.159Z</time></trkpt><trkpt lat="44.2546149" lon="8.334383"><ele>637.0</ele><time>2026-05-02T13:50:07.164Z</time></trkpt><trkpt lat="44.2545849" lon="8.3344837"><ele>637.0</ele><time>2026-05-02T13:50:08.169Z</time></trkpt><trkpt lat="44.2545407" lon="8.3345508"><ele>637.0</ele><time>2026-05-02T13:50:09.169Z</time></trkpt><trkpt lat="44.2544711" lon="8.3345982"><ele>637.0</ele><time>2026-05-02T13:50:10.164Z</time></trkpt><trkpt lat="44.2543758" lon="8.334645"><ele>637.0</ele><time>2026-05-02T13:50:11.171Z</time></trkpt><trkpt lat="44.2542781" lon="8.3346958"><ele>636.4</ele><time>2026-05-02T13:50:12.162Z</time></trkpt><trkpt lat="44.254189" lon="8.3347543"><ele>635.8000000000001</ele><time>2026-05-02T13:50:13.163Z</time></trkpt><trkpt lat="44.2541139" lon="8.3348124"><ele>635.2</ele><time>2026-05-02T13:50:14.159Z</time></trkpt><trkpt lat="44.2540374" lon="8.3348917"><ele>634.6</ele><time>2026-05-02T13:50:15.158Z</time></trkpt><trkpt lat="44.2539695" lon="8.3349801"><ele>634.0</ele><time>2026-05-02T13:50:16.163Z</time></trkpt><trkpt lat="44.2539079" lon="8.3350833"><ele>634.25</ele><time>2026-05-02T13:50:17.164Z</time></trkpt><trkpt lat="44.2538483" lon="8.3352047"><ele>634.5</ele><time>2026-05-02T13:50:18.164Z</time></trkpt><trkpt lat="44.2537879" lon="8.335344"><ele>634.75</ele><time>2026-05-02T13:50:19.17Z</time></trkpt><trkpt lat="44.2537238" lon="8.3354821"><ele>635.0</ele><time>2026-05-02T13:50:20.171Z</time></trkpt><trkpt lat="44.2536732" lon="8.3356186"><ele>635.0</ele><time>2026-05-02T13:50:21.174Z</time></trkpt><trkpt lat="44.2536364" lon="8.3357396"><ele>635.0</ele><time>2026-05-02T13:50:22.162Z</time></trkpt><trkpt lat="44.2536103" lon="8.3358609"><ele>635.0</ele><time>2026-05-02T13:50:23.165Z</time></trkpt><trkpt lat="44.2535987" lon="8.3359759"><ele>635.0</ele><time>2026-05-02T13:50:24.165Z</time></trkpt><trkpt lat="44.2535991" lon="8.3360953"><ele>635.0</ele><time>2026-05-02T13:50:25.151Z</time></trkpt><trkpt lat="44.2536233" lon="8.336186"><ele>635.0</ele><time>2026-05-02T13:50:26.157Z</time></trkpt><trkpt lat="44.2536701" lon="8.3362656"><ele>635.0</ele><time>2026-05-02T13:50:28.168Z</time></trkpt><trkpt lat="44.2537223" lon="8.3363409"><ele>635.0</ele><time>2026-05-02T13:50:33.159Z</time></trkpt><trkpt lat="44.2537824" lon="8.3364119"><ele>635.0</ele><time>2026-05-02T13:50:34.166Z</time></trkpt><trkpt lat="44.253819" lon="8.3365563"><ele>635.0</ele><time>2026-05-02T13:50:36.156Z</time></trkpt><trkpt lat="44.2538408" lon="8.3366783"><ele>635.0</ele><time>2026-05-02T13:50:38.156Z</time></trkpt><trkpt lat="44.2538104" lon="8.3368335"><ele>634.1666666666666</ele><time>2026-05-02T13:50:40.161Z</time></trkpt><trkpt lat="44.2537746" lon="8.3369176"><ele>633.3333333333333</ele><time>2026-05-02T13:50:41.163Z</time></trkpt><trkpt lat="44.2537425" lon="8.3370028"><ele>632.5</ele><time>2026-05-02T13:50:42.167Z</time></trkpt><trkpt lat="44.2536981" lon="8.3371651"><ele>631.6666666666666</ele><time>2026-05-02T13:50:44.164Z</time></trkpt><trkpt lat="44.2536484" lon="8.3372383"><ele>630.8333333333334</ele><time>2026-05-02T13:50:45.156Z</time></trkpt><trkpt lat="44.2535974" lon="8.3373107"><ele>630.0</ele><time>2026-05-02T13:50:46.16Z</time></trkpt><trkpt lat="44.2535371" lon="8.3373815"><ele>630.0</ele><time>2026-05-02T13:50:47.158Z</time></trkpt><trkpt lat="44.2534824" lon="8.3374485"><ele>630.0</ele><time>2026-05-02T13:50:48.169Z</time></trkpt><trkpt lat="44.2534285" lon="8.3375173"><ele>630.0</ele><time>2026-05-02T13:50:49.173Z</time></trkpt><trkpt lat="44.2533728" lon="8.3375875"><ele>630.0</ele><time>2026-05-02T13:50:50.172Z</time></trkpt><trkpt lat="44.2533119" lon="8.3376684"><ele>630.0</ele><time>2026-05-02T13:50:51.171Z</time></trkpt><trkpt lat="44.2532588" lon="8.3377566"><ele>630.0</ele><time>2026-05-02T13:50:52.172Z</time></trkpt><trkpt lat="44.2532079" lon="8.3378624"><ele>630.0</ele><time>2026-05-02T13:50:53.168Z</time></trkpt><trkpt lat="44.2531607" lon="8.3379724"><ele>630.0</ele><time>2026-05-02T13:50:54.173Z</time></trkpt><trkpt lat="44.2531256" lon="8.3380994"><ele>630.0</ele><time>2026-05-02T13:50:55.156Z</time></trkpt><trkpt lat="44.2530982" lon="8.3382178"><ele>630.0</ele><time>2026-05-02T13:50:56.156Z</time></trkpt><trkpt lat="44.2530783" lon="8.3383412"><ele>630.0</ele><time>2026-05-02T13:50:57.157Z</time></trkpt><trkpt lat="44.2530658" lon="8.3384532"><ele>631.1666666666666</ele><time>2026-05-02T13:50:58.151Z</time></trkpt><trkpt lat="44.2530692" lon="8.3385628"><ele>632.3333333333334</ele><time>2026-05-02T13:50:59.159Z</time></trkpt><trkpt lat="44.2530878" lon="8.3386761"><ele>633.5</ele><time>2026-05-02T13:51:00.166Z</time></trkpt><trkpt lat="44.2531179" lon="8.3387844"><ele>634.6666666666667</ele><time>2026-05-02T13:51:01.163Z</time></trkpt><trkpt lat="44.2531608" lon="8.3389055"><ele>635.8333333333334</ele><time>2026-05-02T13:51:02.159Z</time></trkpt><trkpt lat="44.2532015" lon="8.3390307"><ele>637.0</ele><time>2026-05-02T13:51:03.16Z</time></trkpt><trkpt lat="44.2532568" lon="8.3391626"><ele>630.2</ele><time>2026-05-02T13:51:04.156Z</time></trkpt><trkpt lat="44.2533244" lon="8.3392981"><ele>623.4000000000001</ele><time>2026-05-02T13:51:05.162Z</time></trkpt><trkpt lat="44.2533901" lon="8.3394307"><ele>616.5999999999999</ele><time>2026-05-02T13:51:06.167Z</time></trkpt><trkpt lat="44.2534328" lon="8.3395576"><ele>609.8</ele><time>2026-05-02T13:51:07.159Z</time></trkpt><trkpt lat="44.2534627" lon="8.3396871"><ele>603.0</ele><time>2026-05-02T13:51:08.163Z</time></trkpt><trkpt lat="44.2534631" lon="8.3398164"><ele>601.8333333333334</ele><time>2026-05-02T13:51:09.168Z</time></trkpt><trkpt lat="44.2534404" lon="8.3399376"><ele>600.6666666666666</ele><time>2026-05-02T13:51:10.16Z</time></trkpt><trkpt lat="44.2534061" lon="8.3400401"><ele>599.5</ele><time>2026-05-02T13:51:11.172Z</time></trkpt><trkpt lat="44.2533669" lon="8.3401309"><ele>598.3333333333333</ele><time>2026-05-02T13:51:12.161Z</time></trkpt><trkpt lat="44.2533244" lon="8.3402145"><ele>597.1666666666666</ele><time>2026-05-02T13:51:13.166Z</time></trkpt><trkpt lat="44.2532689" lon="8.3402847"><ele>596.0</ele><time>2026-05-02T13:51:14.169Z</time></trkpt><trkpt lat="44.2532125" lon="8.340347"><ele>596.0</ele><time>2026-05-02T13:51:15.168Z</time></trkpt><trkpt lat="44.2531698" lon="8.3404129"><ele>596.0</ele><time>2026-05-02T13:51:16.174Z</time></trkpt><trkpt lat="44.2531117" lon="8.3405483"><ele>596.0</ele><time>2026-05-02T13:51:18.178Z</time></trkpt><trkpt lat="44.2530511" lon="8.3406628"><ele>596.0</ele><time>2026-05-02T13:51:20.178Z</time></trkpt><trkpt lat="44.2529694" lon="8.3407454"><ele>596.0</ele><time>2026-05-02T13:51:22.173Z</time></trkpt><trkpt lat="44.2529009" lon="8.3408031"><ele>595.3333333333333</ele><time>2026-05-02T13:51:24.164Z</time></trkpt><trkpt lat="44.2528517" lon="8.3409041"><ele>594.6666666666666</ele><time>2026-05-02T13:51:27.171Z</time></trkpt><trkpt lat="44.2528191" lon="8.341003"><ele>594.0</ele><time>2026-05-02T13:51:29.17Z</time></trkpt><trkpt lat="44.2527436" lon="8.3410989"><ele>593.3333333333334</ele><time>2026-05-02T13:51:31.166Z</time></trkpt><trkpt lat="44.252687" lon="8.3411562"><ele>592.6666666666667</ele><time>2026-05-02T13:51:32.15Z</time></trkpt><trkpt lat="44.2526283" lon="8.3412187"><ele>592.0</ele><time>2026-05-02T13:51:33.154Z</time></trkpt><trkpt lat="44.2525638" lon="8.3412946"><ele>592.0</ele><time>2026-05-02T13:51:34.154Z</time></trkpt><trkpt lat="44.2524958" lon="8.3413757"><ele>592.0</ele><time>2026-05-02T13:51:35.158Z</time></trkpt><trkpt lat="44.2524361" lon="8.3414675"><ele>592.0</ele><time>2026-05-02T13:51:36.161Z</time></trkpt><trkpt lat="44.252381" lon="8.3415643"><ele>592.0</ele><time>2026-05-02T13:51:37.161Z</time></trkpt><trkpt lat="44.2523358" lon="8.3416589"><ele>592.0</ele><time>2026-05-02T13:51:38.17Z</time></trkpt><trkpt lat="44.2522975" lon="8.3417517"><ele>592.0</ele><time>2026-05-02T13:51:39.167Z</time></trkpt><trkpt lat="44.252266" lon="8.3418411"><ele>591.1428571428571</ele><time>2026-05-02T13:51:40.163Z</time></trkpt><trkpt lat="44.2522389" lon="8.3419294"><ele>590.2857142857142</ele><time>2026-05-02T13:51:41.165Z</time></trkpt><trkpt lat="44.2522126" lon="8.3420101"><ele>589.4285714285713</ele><time>2026-05-02T13:51:42.156Z</time></trkpt><trkpt lat="44.2521836" lon="8.3420908"><ele>588.5714285714286</ele><time>2026-05-02T13:51:43.159Z</time></trkpt><trkpt lat="44.2521513" lon="8.3421768"><ele>587.7142857142857</ele><time>2026-05-02T13:51:44.168Z</time></trkpt><trkpt lat="44.2521161" lon="8.3422616"><ele>586.8571428571428</ele><time>2026-05-02T13:51:45.168Z</time></trkpt><trkpt lat="44.2520822" lon="8.3423467"><ele>586.0</ele><time>2026-05-02T13:51:46.169Z</time></trkpt><trkpt lat="44.2520549" lon="8.3424288"><ele>587.8571428571428</ele><time>2026-05-02T13:51:47.171Z</time></trkpt><trkpt lat="44.2520397" lon="8.342515"><ele>589.7142857142857</ele><time>2026-05-02T13:51:48.17Z</time></trkpt><trkpt lat="44.2520261" lon="8.342607"><ele>591.5714285714286</ele><time>2026-05-02T13:51:49.171Z</time></trkpt><trkpt lat="44.252017" lon="8.3427031"><ele>593.4285714285713</ele><time>2026-05-02T13:51:50.169Z</time></trkpt><trkpt lat="44.2520098" lon="8.3428039"><ele>595.2857142857142</ele><time>2026-05-02T13:51:51.165Z</time></trkpt><trkpt lat="44.2520044" lon="8.3429086"><ele>597.1428571428571</ele><time>2026-05-02T13:51:52.166Z</time></trkpt><trkpt lat="44.252004" lon="8.3430082"><ele>599.0</ele><time>2026-05-02T13:51:53.168Z</time></trkpt><trkpt lat="44.2520062" lon="8.3431066"><ele>599.0</ele><time>2026-05-02T13:51:54.156Z</time></trkpt><trkpt lat="44.2520099" lon="8.3432052"><ele>599.0</ele><time>2026-05-02T13:51:55.165Z</time></trkpt><trkpt lat="44.2520194" lon="8.3433037"><ele>599.0</ele><time>2026-05-02T13:51:56.167Z</time></trkpt><trkpt lat="44.2520298" lon="8.3434032"><ele>599.0</ele><time>2026-05-02T13:51:57.158Z</time></trkpt><trkpt lat="44.2520389" lon="8.3435053"><ele>599.0</ele><time>2026-05-02T13:51:58.167Z</time></trkpt><trkpt lat="44.2520451" lon="8.3436196"><ele>599.0</ele><time>2026-05-02T13:51:59.159Z</time></trkpt><trkpt lat="44.2520571" lon="8.3437319"><ele>599.0</ele><time>2026-05-02T13:52:00.166Z</time></trkpt><trkpt lat="44.2520659" lon="8.3438527"><ele>599.0</ele><time>2026-05-02T13:52:01.167Z</time></trkpt><trkpt lat="44.2520736" lon="8.3439727"><ele>599.0</ele><time>2026-05-02T13:52:02.168Z</time></trkpt><trkpt lat="44.2520919" lon="8.3440753"><ele>599.0</ele><time>2026-05-02T13:52:03.157Z</time></trkpt><trkpt lat="44.2521125" lon="8.3441642"><ele>599.0</ele><time>2026-05-02T13:52:04.166Z</time></trkpt><trkpt lat="44.2521483" lon="8.3443036"><ele>599.0</ele><time>2026-05-02T13:52:06.171Z</time></trkpt><trkpt lat="44.2521854" lon="8.3444303"><ele>598.6666666666666</ele><time>2026-05-02T13:52:08.177Z</time></trkpt><trkpt lat="44.2522279" lon="8.3445872"><ele>598.3333333333333</ele><time>2026-05-02T13:52:10.181Z</time></trkpt><trkpt lat="44.2522448" lon="8.3446748"><ele>598.0</ele><time>2026-05-02T13:52:11.177Z</time></trkpt><trkpt lat="44.2522651" lon="8.344758"><ele>597.6666666666666</ele><time>2026-05-02T13:52:12.16Z</time></trkpt><trkpt lat="44.2522879" lon="8.3449235"><ele>597.3333333333334</ele><time>2026-05-02T13:52:14.173Z</time></trkpt><trkpt lat="44.2522936" lon="8.3450159"><ele>597.0</ele><time>2026-05-02T13:52:15.169Z</time></trkpt><trkpt lat="44.2522943" lon="8.3451056"><ele>596.6</ele><time>2026-05-02T13:52:16.166Z</time></trkpt><trkpt lat="44.2522905" lon="8.3452001"><ele>596.2</ele><time>2026-05-02T13:52:17.17Z</time></trkpt><trkpt lat="44.2522622" lon="8.3453596"><ele>595.8</ele><time>2026-05-02T13:52:19.163Z</time></trkpt><trkpt lat="44.2522227" lon="8.3454779"><ele>595.4</ele><time>2026-05-02T13:52:21.171Z</time></trkpt><trkpt lat="44.2521727" lon="8.345587"><ele>595.0</ele><time>2026-05-02T13:52:23.175Z</time></trkpt><trkpt lat="44.2521045" lon="8.3456621"><ele>595.0</ele><time>2026-05-02T13:52:25.178Z</time></trkpt><trkpt lat="44.2520546" lon="8.3457358"><ele>595.0</ele><time>2026-05-02T13:52:27.174Z</time></trkpt><trkpt lat="44.252045" lon="8.3458542"><ele>595.0</ele><time>2026-05-02T13:52:29.172Z</time></trkpt><trkpt lat="44.2520683" lon="8.3460048"><ele>595.0</ele><time>2026-05-02T13:52:31.163Z</time></trkpt><trkpt lat="44.2520826" lon="8.3460904"><ele>595.0</ele><time>2026-05-02T13:52:32.177Z</time></trkpt><trkpt lat="44.2520969" lon="8.3461923"><ele>595.0</ele><time>2026-05-02T13:52:33.165Z</time></trkpt><trkpt lat="44.2521068" lon="8.3463033"><ele>595.3333333333334</ele><time>2026-05-02T13:52:34.162Z</time></trkpt><trkpt lat="44.2521186" lon="8.346416"><ele>595.6666666666667</ele><time>2026-05-02T13:52:35.169Z</time></trkpt><trkpt lat="44.2521285" lon="8.3465262"><ele>596.0</ele><time>2026-05-02T13:52:36.167Z</time></trkpt><trkpt lat="44.2521359" lon="8.3466392"><ele>596.3333333333334</ele><time>2026-05-02T13:52:37.177Z</time></trkpt><trkpt lat="44.2521455" lon="8.3467509"><ele>596.6666666666666</ele><time>2026-05-02T13:52:38.169Z</time></trkpt><trkpt lat="44.2521553" lon="8.3468651"><ele>597.0</ele><time>2026-05-02T13:52:39.173Z</time></trkpt><trkpt lat="44.2521642" lon="8.3469796"><ele>597.0</ele><time>2026-05-02T13:52:40.165Z</time></trkpt><trkpt lat="44.2521635" lon="8.3470975"><ele>597.0</ele><time>2026-05-02T13:52:41.166Z</time></trkpt><trkpt lat="44.2521523" lon="8.3472026"><ele>597.0</ele><time>2026-05-02T13:52:42.167Z</time></trkpt><trkpt lat="44.2521379" lon="8.3473048"><ele>597.0</ele><time>2026-05-02T13:52:43.172Z</time></trkpt><trkpt lat="44.2521264" lon="8.3473971"><ele>597.0</ele><time>2026-05-02T13:52:44.163Z</time></trkpt><trkpt lat="44.2521369" lon="8.3475582"><ele>597.0</ele><time>2026-05-02T13:52:46.162Z</time></trkpt><trkpt lat="44.2521109" lon="8.3477019"><ele>597.2</ele><time>2026-05-02T13:52:48.164Z</time></trkpt><trkpt lat="44.2520293" lon="8.3478401"><ele>597.4000000000001</ele><time>2026-05-02T13:52:50.162Z</time></trkpt><trkpt lat="44.2519699" lon="8.3479095"><ele>597.5999999999999</ele><time>2026-05-02T13:52:51.156Z</time></trkpt><trkpt lat="44.2519031" lon="8.3479873"><ele>597.8</ele><time>2026-05-02T13:52:52.164Z</time></trkpt><trkpt lat="44.2518236" lon="8.3480682"><ele>598.0</ele><time>2026-05-02T13:52:53.16Z</time></trkpt><trkpt lat="44.2517614" lon="8.3481531"><ele>600.1999999999999</ele><time>2026-05-02T13:52:54.16Z</time></trkpt><trkpt lat="44.2516925" lon="8.3482488"><ele>602.4</ele><time>2026-05-02T13:52:55.158Z</time></trkpt><trkpt lat="44.2516288" lon="8.3483512"><ele>604.5999999999999</ele><time>2026-05-02T13:52:56.16Z</time></trkpt><trkpt lat="44.2515739" lon="8.3484385"><ele>606.8</ele><time>2026-05-02T13:52:57.154Z</time></trkpt><trkpt lat="44.2515065" lon="8.3485312"><ele>609.0</ele><time>2026-05-02T13:52:58.162Z</time></trkpt><trkpt lat="44.2514384" lon="8.3486166"><ele>606.4</ele><time>2026-05-02T13:52:59.146Z</time></trkpt><trkpt lat="44.2513684" lon="8.3487076"><ele>603.8</ele><time>2026-05-02T13:53:00.158Z</time></trkpt><trkpt lat="44.2512925" lon="8.3487949"><ele>601.2</ele><time>2026-05-02T13:53:01.163Z</time></trkpt><trkpt lat="44.2512211" lon="8.348877"><ele>598.6</ele><time>2026-05-02T13:53:02.156Z</time></trkpt><trkpt lat="44.2511596" lon="8.348967"><ele>596.0</ele><time>2026-05-02T13:53:03.163Z</time></trkpt><trkpt lat="44.2510992" lon="8.3490491"><ele>596.0</ele><time>2026-05-02T13:53:04.169Z</time></trkpt><trkpt lat="44.2510417" lon="8.3491402"><ele>596.0</ele><time>2026-05-02T13:53:05.16Z</time></trkpt><trkpt lat="44.2509778" lon="8.3492252"><ele>596.0</ele><time>2026-05-02T13:53:06.156Z</time></trkpt><trkpt lat="44.2509105" lon="8.349312"><ele>596.0</ele><time>2026-05-02T13:53:07.166Z</time></trkpt><trkpt lat="44.250844" lon="8.3494019"><ele>596.0</ele><time>2026-05-02T13:53:08.169Z</time></trkpt><trkpt lat="44.2507783" lon="8.3494774"><ele>596.0</ele><time>2026-05-02T13:53:09.156Z</time></trkpt><trkpt lat="44.2507124" lon="8.3495498"><ele>596.0</ele><time>2026-05-02T13:53:10.167Z</time></trkpt><trkpt lat="44.2506446" lon="8.3496391"><ele>596.0</ele><time>2026-05-02T13:53:11.16Z</time></trkpt><trkpt lat="44.2505965" lon="8.3497222"><ele>596.0</ele><time>2026-05-02T13:53:12.157Z</time></trkpt><trkpt lat="44.25055" lon="8.3498193"><ele>596.0</ele><time>2026-05-02T13:53:13.165Z</time></trkpt><trkpt lat="44.2505137" lon="8.3498967"><ele>596.0</ele><time>2026-05-02T13:53:14.16Z</time></trkpt><trkpt lat="44.2504673" lon="8.3500237"><ele>596.0</ele><time>2026-05-02T13:53:16.167Z</time></trkpt><trkpt lat="44.250447" lon="8.3501395"><ele>594.0</ele><time>2026-05-02T13:53:19.158Z</time></trkpt><trkpt lat="44.2504319" lon="8.350243"><ele>592.0</ele><time>2026-05-02T13:53:21.163Z</time></trkpt><trkpt lat="44.250375" lon="8.35034"><ele>590.0</ele><time>2026-05-02T13:53:23.158Z</time></trkpt><trkpt lat="44.2503158" lon="8.3504593"><ele>588.0</ele><time>2026-05-02T13:53:25.161Z</time></trkpt><trkpt lat="44.2502734" lon="8.3505252"><ele>586.0</ele><time>2026-05-02T13:53:26.162Z</time></trkpt><trkpt lat="44.2501964" lon="8.3506736"><ele>586.0</ele><time>2026-05-02T13:53:28.167Z</time></trkpt><trkpt lat="44.2501644" lon="8.3507603"><ele>586.0</ele><time>2026-05-02T13:53:29.164Z</time></trkpt><trkpt lat="44.2501447" lon="8.3508604"><ele>586.0</ele><time>2026-05-02T13:53:30.164Z</time></trkpt><trkpt lat="44.2501229" lon="8.3509733"><ele>586.0</ele><time>2026-05-02T13:53:31.165Z</time></trkpt><trkpt lat="44.2500988" lon="8.3510725"><ele>586.0</ele><time>2026-05-02T13:53:32.147Z</time></trkpt><trkpt lat="44.250056" lon="8.3511786"><ele>586.0</ele><time>2026-05-02T13:53:33.157Z</time></trkpt><trkpt lat="44.2500208" lon="8.3512565"><ele>586.0</ele><time>2026-05-02T13:53:34.15Z</time></trkpt><trkpt lat="44.2499651" lon="8.3513242"><ele>586.0</ele><time>2026-05-02T13:53:35.158Z</time></trkpt><trkpt lat="44.2498945" lon="8.3513683"><ele>586.0</ele><time>2026-05-02T13:53:36.165Z</time></trkpt><trkpt lat="44.2498185" lon="8.3514181"><ele>586.0</ele><time>2026-05-02T13:53:37.162Z</time></trkpt><trkpt lat="44.2497421" lon="8.3514767"><ele>586.0</ele><time>2026-05-02T13:53:38.164Z</time></trkpt><trkpt lat="44.249674" lon="8.3515496"><ele>586.0</ele><time>2026-05-02T13:53:39.161Z</time></trkpt><trkpt lat="44.2495981" lon="8.351618"><ele>584.5</ele><time>2026-05-02T13:53:40.16Z</time></trkpt><trkpt lat="44.2495254" lon="8.3517037"><ele>583.0</ele><time>2026-05-02T13:53:41.164Z</time></trkpt><trkpt lat="44.2494616" lon="8.3517906"><ele>581.5</ele><time>2026-05-02T13:53:42.154Z</time></trkpt><trkpt lat="44.2494117" lon="8.3518762"><ele>580.0</ele><time>2026-05-02T13:53:43.162Z</time></trkpt><trkpt lat="44.2493681" lon="8.3519662"><ele>578.5</ele><time>2026-05-02T13:53:44.148Z</time></trkpt><trkpt lat="44.2493219" lon="8.352059"><ele>577.0</ele><time>2026-05-02T13:53:45.16Z</time></trkpt><trkpt lat="44.2492974" lon="8.3521683"><ele>577.5</ele><time>2026-05-02T13:53:46.157Z</time></trkpt><trkpt lat="44.2492835" lon="8.3522741"><ele>578.0</ele><time>2026-05-02T13:53:47.162Z</time></trkpt><trkpt lat="44.2492792" lon="8.352391"><ele>578.5</ele><time>2026-05-02T13:53:48.156Z</time></trkpt><trkpt lat="44.2492894" lon="8.3525131"><ele>579.0</ele><time>2026-05-02T13:53:49.159Z</time></trkpt><trkpt lat="44.2493154" lon="8.3526379"><ele>579.5</ele><time>2026-05-02T13:53:50.162Z</time></trkpt><trkpt lat="44.2493448" lon="8.3527624"><ele>580.0</ele><time>2026-05-02T13:53:51.163Z</time></trkpt><trkpt lat="44.249334" lon="8.3528878"><ele>580.0</ele><time>2026-05-02T13:53:52.167Z</time></trkpt><trkpt lat="44.2493074" lon="8.353016"><ele>580.0</ele><time>2026-05-02T13:53:53.165Z</time></trkpt><trkpt lat="44.2492829" lon="8.3531552"><ele>580.0</ele><time>2026-05-02T13:53:54.159Z</time></trkpt><trkpt lat="44.2492661" lon="8.353296"><ele>580.0</ele><time>2026-05-02T13:53:55.168Z</time></trkpt><trkpt lat="44.2492588" lon="8.3534226"><ele>580.0</ele><time>2026-05-02T13:53:56.166Z</time></trkpt><trkpt lat="44.2492513" lon="8.3535599"><ele>580.1666666666667</ele><time>2026-05-02T13:53:57.164Z</time></trkpt><trkpt lat="44.2492494" lon="8.3536762"><ele>580.3333333333334</ele><time>2026-05-02T13:53:58.167Z</time></trkpt><trkpt lat="44.2492551" lon="8.3537938"><ele>580.5</ele><time>2026-05-02T13:53:59.168Z</time></trkpt><trkpt lat="44.2492823" lon="8.3538913"><ele>580.6666666666666</ele><time>2026-05-02T13:54:00.169Z</time></trkpt><trkpt lat="44.2493141" lon="8.3539856"><ele>580.8333333333333</ele><time>2026-05-02T13:54:01.165Z</time></trkpt><trkpt lat="44.2493481" lon="8.3540714"><ele>581.0</ele><time>2026-05-02T13:54:02.173Z</time></trkpt><trkpt lat="44.2493838" lon="8.3541477"><ele>581.2</ele><time>2026-05-02T13:54:03.165Z</time></trkpt><trkpt lat="44.2493952" lon="8.3542378"><ele>581.4000000000001</ele><time>2026-05-02T13:54:04.168Z</time></trkpt><trkpt lat="44.2493626" lon="8.3544382"><ele>581.6</ele><time>2026-05-02T13:54:06.157Z</time></trkpt><trkpt lat="44.2493311" lon="8.3545558"><ele>581.8000000000001</ele><time>2026-05-02T13:54:07.147Z</time></trkpt><trkpt lat="44.249297" lon="8.3546723"><ele>582.0</ele><time>2026-05-02T13:54:08.155Z</time></trkpt><trkpt lat="44.2492773" lon="8.3548038"><ele>582.3333333333334</ele><time>2026-05-02T13:54:09.158Z</time></trkpt><trkpt lat="44.2492387" lon="8.3549251"><ele>582.6666666666666</ele><time>2026-05-02T13:54:10.163Z</time></trkpt><trkpt lat="44.2491983" lon="8.3550306"><ele>583.0</ele><time>2026-05-02T13:54:11.168Z</time></trkpt><trkpt lat="44.2491645" lon="8.3551279"><ele>583.3333333333333</ele><time>2026-05-02T13:54:12.169Z</time></trkpt><trkpt lat="44.2491261" lon="8.3552357"><ele>583.6666666666666</ele><time>2026-05-02T13:54:13.171Z</time></trkpt><trkpt lat="44.2490805" lon="8.3553397"><ele>584.0</ele><time>2026-05-02T13:54:14.165Z</time></trkpt><trkpt lat="44.2490599" lon="8.3554472"><ele>584.0</ele><time>2026-05-02T13:54:15.162Z</time></trkpt><trkpt lat="44.2490511" lon="8.3555583"><ele>584.0</ele><time>2026-05-02T13:54:16.155Z</time></trkpt><trkpt lat="44.2490372" lon="8.3556682"><ele>584.0</ele><time>2026-05-02T13:54:17.17Z</time></trkpt><trkpt lat="44.2490235" lon="8.3557826"><ele>584.0</ele><time>2026-05-02T13:54:18.151Z</time></trkpt><trkpt lat="44.2490175" lon="8.3559022"><ele>584.0</ele><time>2026-05-02T13:54:19.151Z</time></trkpt><trkpt lat="44.2490157" lon="8.3560093"><ele>584.0</ele><time>2026-05-02T13:54:20.149Z</time></trkpt><trkpt lat="44.2490208" lon="8.3561126"><ele>584.0</ele><time>2026-05-02T13:54:21.149Z</time></trkpt><trkpt lat="44.2490089" lon="8.3562084"><ele>584.0</ele><time>2026-05-02T13:54:22.148Z</time></trkpt><trkpt lat="44.2489761" lon="8.3562971"><ele>584.0</ele><time>2026-05-02T13:54:23.157Z</time></trkpt><trkpt lat="44.2489343" lon="8.3563876"><ele>584.0</ele><time>2026-05-02T13:54:24.155Z</time></trkpt><trkpt lat="44.248891" lon="8.3564713"><ele>584.0</ele><time>2026-05-02T13:54:25.151Z</time></trkpt><trkpt lat="44.2488494" lon="8.3565548"><ele>584.0</ele><time>2026-05-02T13:54:26.157Z</time></trkpt><trkpt lat="44.24881" lon="8.3566522"><ele>584.0</ele><time>2026-05-02T13:54:27.153Z</time></trkpt><trkpt lat="44.2487752" lon="8.3567545"><ele>581.0</ele><time>2026-05-02T13:54:28.156Z</time></trkpt><trkpt lat="44.2487486" lon="8.3568654"><ele>578.0</ele><time>2026-05-02T13:54:29.151Z</time></trkpt><trkpt lat="44.2487072" lon="8.3569744"><ele>575.0</ele><time>2026-05-02T13:54:30.15Z</time></trkpt><trkpt lat="44.2486704" lon="8.357069"><ele>572.0</ele><time>2026-05-02T13:54:31.155Z</time></trkpt><trkpt lat="44.2486307" lon="8.3571535"><ele>569.0</ele><time>2026-05-02T13:54:32.157Z</time></trkpt><trkpt lat="44.2485936" lon="8.3572448"><ele>566.0</ele><time>2026-05-02T13:54:33.168Z</time></trkpt><trkpt lat="44.2485441" lon="8.3573315"><ele>566.0</ele><time>2026-05-02T13:54:34.16Z</time></trkpt><trkpt lat="44.2485025" lon="8.3574264"><ele>566.0</ele><time>2026-05-02T13:54:35.162Z</time></trkpt><trkpt lat="44.2484665" lon="8.3575273"><ele>566.0</ele><time>2026-05-02T13:54:36.166Z</time></trkpt><trkpt lat="44.2484272" lon="8.3576356"><ele>566.0</ele><time>2026-05-02T13:54:37.164Z</time></trkpt><trkpt lat="44.2483968" lon="8.3577523"><ele>566.0</ele><time>2026-05-02T13:54:38.163Z</time></trkpt><trkpt lat="44.2483734" lon="8.3578677"><ele>566.0</ele><time>2026-05-02T13:54:39.162Z</time></trkpt><trkpt lat="44.2483436" lon="8.3579545"><ele>566.0</ele><time>2026-05-02T13:54:40.159Z</time></trkpt><trkpt lat="44.2483096" lon="8.3580291"><ele>566.0</ele><time>2026-05-02T13:54:41.168Z</time></trkpt><trkpt lat="44.2482517" lon="8.358109"><ele>566.0</ele><time>2026-05-02T13:54:43.174Z</time></trkpt><trkpt lat="44.2482028" lon="8.3581801"><ele>566.0</ele><time>2026-05-02T13:54:47.174Z</time></trkpt><trkpt lat="44.2481333" lon="8.3581733"><ele>566.0</ele><time>2026-05-02T13:55:06.18Z</time></trkpt><trkpt lat="44.2480039" lon="8.3581769"><ele>566.0</ele><time>2026-05-02T13:55:08.189Z</time></trkpt><trkpt lat="44.2479225" lon="8.358188"><ele>564.1666666666666</ele><time>2026-05-02T13:55:09.171Z</time></trkpt><trkpt lat="44.2478405" lon="8.358197"><ele>562.3333333333333</ele><time>2026-05-02T13:55:10.173Z</time></trkpt><trkpt lat="44.2477577" lon="8.3582347"><ele>560.5</ele><time>2026-05-02T13:55:11.164Z</time></trkpt><trkpt lat="44.2476756" lon="8.3582795"><ele>558.6666666666666</ele><time>2026-05-02T13:55:12.177Z</time></trkpt><trkpt lat="44.2476" lon="8.3583271"><ele>556.8333333333334</ele><time>2026-05-02T13:55:13.166Z</time></trkpt><trkpt lat="44.2475286" lon="8.3583775"><ele>555.0</ele><time>2026-05-02T13:55:14.174Z</time></trkpt><trkpt lat="44.2474566" lon="8.3584336"><ele>555.0</ele><time>2026-05-02T13:55:15.168Z</time></trkpt><trkpt lat="44.2473761" lon="8.3584934"><ele>555.0</ele><time>2026-05-02T13:55:16.178Z</time></trkpt><trkpt lat="44.2472942" lon="8.3585526"><ele>555.0</ele><time>2026-05-02T13:55:17.185Z</time></trkpt><trkpt lat="44.247219" lon="8.3586105"><ele>555.0</ele><time>2026-05-02T13:55:18.173Z</time></trkpt><trkpt lat="44.2471403" lon="8.3586932"><ele>555.0</ele><time>2026-05-02T13:55:19.181Z</time></trkpt><trkpt lat="44.2470636" lon="8.3587888"><ele>552.8333333333334</ele><time>2026-05-02T13:55:20.16Z</time></trkpt><trkpt lat="44.247" lon="8.3588826"><ele>550.6666666666666</ele><time>2026-05-02T13:55:21.172Z</time></trkpt><trkpt lat="44.2469329" lon="8.3589674"><ele>548.5</ele><time>2026-05-02T13:55:22.165Z</time></trkpt><trkpt lat="44.2468728" lon="8.3590507"><ele>546.3333333333333</ele><time>2026-05-02T13:55:23.175Z</time></trkpt><trkpt lat="44.2468117" lon="8.3591299"><ele>544.1666666666666</ele><time>2026-05-02T13:55:24.173Z</time></trkpt><trkpt lat="44.2467604" lon="8.3592105"><ele>542.0</ele><time>2026-05-02T13:55:25.163Z</time></trkpt><trkpt lat="44.246712" lon="8.3592918"><ele>542.0</ele><time>2026-05-02T13:55:26.171Z</time></trkpt><trkpt lat="44.2466544" lon="8.3593706"><ele>542.0</ele><time>2026-05-02T13:55:27.167Z</time></trkpt><trkpt lat="44.2465912" lon="8.3594501"><ele>542.0</ele><time>2026-05-02T13:55:28.172Z</time></trkpt><trkpt lat="44.246528" lon="8.3595303"><ele>542.0</ele><time>2026-05-02T13:55:29.174Z</time></trkpt><trkpt lat="44.2464649" lon="8.359605"><ele>542.0</ele><time>2026-05-02T13:55:30.168Z</time></trkpt><trkpt lat="44.2463948" lon="8.3596745"><ele>542.0</ele><time>2026-05-02T13:55:31.177Z</time></trkpt><trkpt lat="44.2463155" lon="8.3597351"><ele>539.5</ele><time>2026-05-02T13:55:32.169Z</time></trkpt><trkpt lat="44.2462323" lon="8.3597811"><ele>537.0</ele><time>2026-05-02T13:55:33.176Z</time></trkpt><trkpt lat="44.2461381" lon="8.3598115"><ele>534.5</ele><time>2026-05-02T13:55:34.169Z</time></trkpt><trkpt lat="44.2460506" lon="8.3598233"><ele>532.0</ele><time>2026-05-02T13:55:35.167Z</time></trkpt><trkpt lat="44.2459797" lon="8.359818"><ele>529.5</ele><time>2026-05-02T13:55:36.171Z</time></trkpt><trkpt lat="44.2459135" lon="8.359813"><ele>527.0</ele><time>2026-05-02T13:55:37.165Z</time></trkpt><trkpt lat="44.2458405" lon="8.3598208"><ele>527.0</ele><time>2026-05-02T13:55:38.17Z</time></trkpt><trkpt lat="44.2457583" lon="8.3598342"><ele>527.0</ele><time>2026-05-02T13:55:39.179Z</time></trkpt><trkpt lat="44.2456831" lon="8.3598476"><ele>527.0</ele><time>2026-05-02T13:55:40.159Z</time></trkpt><trkpt lat="44.2456146" lon="8.3598845"><ele>527.0</ele><time>2026-05-02T13:55:41.171Z</time></trkpt><trkpt lat="44.2455475" lon="8.3599276"><ele>527.0</ele><time>2026-05-02T13:55:42.179Z</time></trkpt><trkpt lat="44.245481" lon="8.3599714"><ele>527.0</ele><time>2026-05-02T13:55:43.175Z</time></trkpt><trkpt lat="44.2454174" lon="8.3600427"><ele>525.0</ele><time>2026-05-02T13:55:44.173Z</time></trkpt><trkpt lat="44.2453565" lon="8.3601195"><ele>523.0</ele><time>2026-05-02T13:55:45.178Z</time></trkpt><trkpt lat="44.2452986" lon="8.3601985"><ele>521.0</ele><time>2026-05-02T13:55:46.165Z</time></trkpt><trkpt lat="44.2452465" lon="8.3602761"><ele>519.0</ele><time>2026-05-02T13:55:47.185Z</time></trkpt><trkpt lat="44.2451921" lon="8.3603374"><ele>517.0</ele><time>2026-05-02T13:55:48.182Z</time></trkpt><trkpt lat="44.2451396" lon="8.3603921"><ele>515.0</ele><time>2026-05-02T13:55:49.177Z</time></trkpt><trkpt lat="44.2450367" lon="8.3604671"><ele>515.0</ele><time>2026-05-02T13:55:51.174Z</time></trkpt><trkpt lat="44.2449877" lon="8.3605344"><ele>515.0</ele><time>2026-05-02T13:56:57.19Z</time></trkpt><trkpt lat="44.2449035" lon="8.3604985"><ele>515.0</ele><time>2026-05-02T13:57:01.177Z</time></trkpt><trkpt lat="44.2448383" lon="8.3604325"><ele>515.0</ele><time>2026-05-02T13:57:03.172Z</time></trkpt><trkpt lat="44.2447668" lon="8.3603559"><ele>515.0</ele><time>2026-05-02T13:57:05.17Z</time></trkpt><trkpt lat="44.2447222" lon="8.3602406"><ele>515.0</ele><time>2026-05-02T13:57:07.165Z</time></trkpt><trkpt lat="44.2447014" lon="8.3600893"><ele>514.0</ele><time>2026-05-02T13:57:09.164Z</time></trkpt><trkpt lat="44.2446873" lon="8.3599832"><ele>513.0</ele><time>2026-05-02T13:57:11.165Z</time></trkpt><trkpt lat="44.2446174" lon="8.3599246"><ele>512.0</ele><time>2026-05-02T13:57:14.169Z</time></trkpt><trkpt lat="44.2445333" lon="8.3599575"><ele>511.0</ele><time>2026-05-02T13:57:16.172Z</time></trkpt><trkpt lat="44.2444649" lon="8.3600033"><ele>509.99999999999994</ele><time>2026-05-02T13:57:18.173Z</time></trkpt><trkpt lat="44.2443961" lon="8.3600051"><ele>509.0</ele><time>2026-05-02T13:57:22.171Z</time></trkpt><trkpt lat="44.2442971" lon="8.3599739"><ele>508.99999999999994</ele><time>2026-05-02T13:57:24.176Z</time></trkpt><trkpt lat="44.2442315" lon="8.359935"><ele>509.0</ele><time>2026-05-02T13:57:25.174Z</time></trkpt><trkpt lat="44.2441662" lon="8.3598848"><ele>509.0</ele><time>2026-05-02T13:57:26.165Z</time></trkpt><trkpt lat="44.2441081" lon="8.3598156"><ele>509.0</ele><time>2026-05-02T13:57:27.167Z</time></trkpt><trkpt lat="44.2440408" lon="8.3597638"><ele>508.99999999999994</ele><time>2026-05-02T13:57:28.169Z</time></trkpt><trkpt lat="44.2439635" lon="8.3597023"><ele>509.0</ele><time>2026-05-02T13:57:29.167Z</time></trkpt><trkpt lat="44.2438785" lon="8.3596801"><ele>504.4</ele><time>2026-05-02T13:57:30.169Z</time></trkpt><trkpt lat="44.243789" lon="8.3596681"><ele>499.79999999999995</ele><time>2026-05-02T13:57:31.163Z</time></trkpt><trkpt lat="44.2436942" lon="8.3596669"><ele>495.20000000000005</ele><time>2026-05-02T13:57:32.17Z</time></trkpt><trkpt lat="44.2435864" lon="8.359684"><ele>490.6</ele><time>2026-05-02T13:57:33.164Z</time></trkpt><trkpt lat="44.2434771" lon="8.359688"><ele>486.0</ele><time>2026-05-02T13:57:34.166Z</time></trkpt><trkpt lat="44.2433767" lon="8.3596969"><ele>487.4</ele><time>2026-05-02T13:57:35.16Z</time></trkpt><trkpt lat="44.243277" lon="8.3597065"><ele>488.8</ele><time>2026-05-02T13:57:36.161Z</time></trkpt><trkpt lat="44.2431738" lon="8.3597102"><ele>490.19999999999993</ele><time>2026-05-02T13:57:37.163Z</time></trkpt><trkpt lat="44.2430724" lon="8.359718"><ele>491.59999999999997</ele><time>2026-05-02T13:57:38.161Z</time></trkpt><trkpt lat="44.2429779" lon="8.3597295"><ele>493.0</ele><time>2026-05-02T13:57:39.165Z</time></trkpt><trkpt lat="44.2428838" lon="8.3597485"><ele>493.0</ele><time>2026-05-02T13:57:40.156Z</time></trkpt><trkpt lat="44.2427882" lon="8.3597678"><ele>492.99999999999994</ele><time>2026-05-02T13:57:41.156Z</time></trkpt><trkpt lat="44.2426925" lon="8.3597946"><ele>492.99999999999994</ele><time>2026-05-02T13:57:42.166Z</time></trkpt><trkpt lat="44.2426028" lon="8.3598382"><ele>493.0</ele><time>2026-05-02T13:57:43.162Z</time></trkpt><trkpt lat="44.2425187" lon="8.3598906"><ele>493.0</ele><time>2026-05-02T13:57:44.174Z</time></trkpt><trkpt lat="44.2424268" lon="8.3599508"><ele>493.0</ele><time>2026-05-02T13:57:45.163Z</time></trkpt><trkpt lat="44.2423312" lon="8.3600086"><ele>492.99999999999994</ele><time>2026-05-02T13:57:46.157Z</time></trkpt><trkpt lat="44.2422373" lon="8.3600653"><ele>492.99999999999994</ele><time>2026-05-02T13:57:47.159Z</time></trkpt><trkpt lat="44.2421409" lon="8.3601447"><ele>493.0</ele><time>2026-05-02T13:57:48.163Z</time></trkpt><trkpt lat="44.2420473" lon="8.3602183"><ele>493.0</ele><time>2026-05-02T13:57:49.164Z</time></trkpt><trkpt lat="44.2419552" lon="8.3602971"><ele>493.0</ele><time>2026-05-02T13:57:50.171Z</time></trkpt><trkpt lat="44.2418663" lon="8.3603636"><ele>492.99999999999994</ele><time>2026-05-02T13:57:51.16Z</time></trkpt><trkpt lat="44.2417755" lon="8.3604469"><ele>492.99999999999994</ele><time>2026-05-02T13:57:52.157Z</time></trkpt><trkpt lat="44.2416857" lon="8.3605287"><ele>493.0</ele><time>2026-05-02T13:57:53.155Z</time></trkpt><trkpt lat="44.2415934" lon="8.3606138"><ele>493.0</ele><time>2026-05-02T13:57:54.169Z</time></trkpt><trkpt lat="44.2414986" lon="8.3607041"><ele>489.25</ele><time>2026-05-02T13:57:55.161Z</time></trkpt><trkpt lat="44.2413917" lon="8.3608022"><ele>485.5</ele><time>2026-05-02T13:57:56.166Z</time></trkpt><trkpt lat="44.2412947" lon="8.3608913"><ele>481.75</ele><time>2026-05-02T13:57:57.167Z</time></trkpt><trkpt lat="44.2412079" lon="8.3609681"><ele>478.0</ele><time>2026-05-02T13:57:58.185Z</time></trkpt><trkpt lat="44.2411228" lon="8.3610563"><ele>478.0</ele><time>2026-05-02T13:57:59.164Z</time></trkpt><trkpt lat="44.2410527" lon="8.3611481"><ele>477.99999999999994</ele><time>2026-05-02T13:58:00.173Z</time></trkpt><trkpt lat="44.2409882" lon="8.3612441"><ele>477.99999999999994</ele><time>2026-05-02T13:58:01.18Z</time></trkpt><trkpt lat="44.2409273" lon="8.3613643"><ele>478.0</ele><time>2026-05-02T13:58:02.174Z</time></trkpt><trkpt lat="44.2408723" lon="8.3614938"><ele>478.0</ele><time>2026-05-02T13:58:03.187Z</time></trkpt><trkpt lat="44.2408194" lon="8.3616279"><ele>477.50000000000006</ele><time>2026-05-02T13:58:04.174Z</time></trkpt><trkpt lat="44.2407694" lon="8.3617318"><ele>477.0</ele><time>2026-05-02T13:58:05.175Z</time></trkpt><trkpt lat="44.2407103" lon="8.3618112"><ele>476.5</ele><time>2026-05-02T13:58:06.167Z</time></trkpt><trkpt lat="44.240655" lon="8.361871"><ele>476.0</ele><time>2026-05-02T13:58:07.164Z</time></trkpt><trkpt lat="44.2406031" lon="8.3619271"><ele>475.50000000000006</ele><time>2026-05-02T13:58:08.168Z</time></trkpt><trkpt lat="44.2405096" lon="8.3620044"><ele>475.0</ele><time>2026-05-02T13:58:10.184Z</time></trkpt><trkpt lat="44.2404198" lon="8.3620394"><ele>475.00000000000006</ele><time>2026-05-02T13:58:12.175Z</time></trkpt><trkpt lat="44.2403215" lon="8.3620797"><ele>475.0</ele><time>2026-05-02T13:58:15.161Z</time></trkpt><trkpt lat="44.2402294" lon="8.362058"><ele>475.0</ele><time>2026-05-02T13:58:17.165Z</time></trkpt><trkpt lat="44.2401661" lon="8.3620189"><ele>475.0</ele><time>2026-05-02T13:58:19.175Z</time></trkpt><trkpt lat="44.2400663" lon="8.3619968"><ele>475.00000000000006</ele><time>2026-05-02T13:58:30.177Z</time></trkpt><trkpt lat="44.2399963" lon="8.3620003"><ele>475.0</ele><time>2026-05-02T13:58:33.18Z</time></trkpt><trkpt lat="44.2399316" lon="8.3619939"><ele>475.00000000000006</ele><time>2026-05-02T13:58:40.175Z</time></trkpt><trkpt lat="44.2399999" lon="8.3619465"><ele>475.0</ele><time>2026-05-02T13:58:46.182Z</time></trkpt><trkpt lat="44.2401034" lon="8.3618674"><ele>475.0</ele><time>2026-05-02T13:58:48.173Z</time></trkpt><trkpt lat="44.2401689" lon="8.3618307"><ele>475.0</ele><time>2026-05-02T13:58:49.164Z</time></trkpt><trkpt lat="44.2402443" lon="8.3617907"><ele>475.00000000000006</ele><time>2026-05-02T13:58:50.166Z</time></trkpt><trkpt lat="44.2403259" lon="8.3617514"><ele>475.0</ele><time>2026-05-02T13:58:51.165Z</time></trkpt><trkpt lat="44.2404209" lon="8.3617105"><ele>475.0</ele><time>2026-05-02T13:58:52.17Z</time></trkpt><trkpt lat="44.2405145" lon="8.3616808"><ele>475.0</ele><time>2026-05-02T13:58:53.164Z</time></trkpt><trkpt lat="44.2406224" lon="8.3616547"><ele>475.0</ele><time>2026-05-02T13:58:54.17Z</time></trkpt><trkpt lat="44.2407159" lon="8.3616273"><ele>475.0</ele><time>2026-05-02T13:58:55.175Z</time></trkpt><trkpt lat="44.240792" lon="8.3616299"><ele>475.0</ele><time>2026-05-02T13:58:56.177Z</time></trkpt><trkpt lat="44.2408766" lon="8.3617042"><ele>475.00000000000006</ele><time>2026-05-02T13:58:59.164Z</time></trkpt><trkpt lat="44.2408632" lon="8.3617929"><ele>475.0</ele><time>2026-05-02T13:59:03.179Z</time></trkpt><trkpt lat="44.2407685" lon="8.3618462"><ele>475.0</ele><time>2026-05-02T13:59:05.17Z</time></trkpt><trkpt lat="44.2407053" lon="8.3618666"><ele>475.0</ele><time>2026-05-02T13:59:06.17Z</time></trkpt><trkpt lat="44.2406265" lon="8.3619102"><ele>475.00000000000006</ele><time>2026-05-02T13:59:07.174Z</time></trkpt><trkpt lat="44.2405583" lon="8.3619665"><ele>475.0</ele><time>2026-05-02T13:59:08.168Z</time></trkpt><trkpt lat="44.2404852" lon="8.3620421"><ele>475.0</ele><time>2026-05-02T13:59:09.173Z</time></trkpt><trkpt lat="44.2404173" lon="8.3621266"><ele>475.0</ele><time>2026-05-02T13:59:10.176Z</time></trkpt><trkpt lat="44.2403696" lon="8.3621944"><ele>475.0</ele><time>2026-05-02T13:59:11.182Z</time></trkpt><trkpt lat="44.2403064" lon="8.3623388"><ele>475.0</ele><time>2026-05-02T13:59:13.177Z</time></trkpt><trkpt lat="44.2402735" lon="8.3624837"><ele>475.0</ele><time>2026-05-02T13:59:15.168Z</time></trkpt><trkpt lat="44.2402095" lon="8.3626293"><ele>475.6666666666667</ele><time>2026-05-02T13:59:17.165Z</time></trkpt><trkpt lat="44.2401225" lon="8.3627476"><ele>476.33333333333337</ele><time>2026-05-02T13:59:19.17Z</time></trkpt><trkpt lat="44.2400675" lon="8.3628114"><ele>477.0</ele><time>2026-05-02T13:59:20.173Z</time></trkpt><trkpt lat="44.2400103" lon="8.3628773"><ele>477.66666666666663</ele><time>2026-05-02T13:59:21.173Z</time></trkpt><trkpt lat="44.239966" lon="8.3629486"><ele>478.3333333333333</ele><time>2026-05-02T13:59:22.181Z</time></trkpt><trkpt lat="44.2399181" lon="8.3630325"><ele>479.0</ele><time>2026-05-02T13:59:23.168Z</time></trkpt><trkpt lat="44.2398637" lon="8.3631089"><ele>479.0</ele><time>2026-05-02T13:59:24.169Z</time></trkpt><trkpt lat="44.2398028" lon="8.3632009"><ele>479.0</ele><time>2026-05-02T13:59:25.168Z</time></trkpt><trkpt lat="44.2397432" lon="8.3632914"><ele>479.0</ele><time>2026-05-02T13:59:26.169Z</time></trkpt><trkpt lat="44.2396765" lon="8.3633846"><ele>479.0</ele><time>2026-05-02T13:59:27.166Z</time></trkpt><trkpt lat="44.2396026" lon="8.3634718"><ele>479.0</ele><time>2026-05-02T13:59:28.166Z</time></trkpt><trkpt lat="44.2395334" lon="8.3635574"><ele>480.6</ele><time>2026-05-02T13:59:29.169Z</time></trkpt><trkpt lat="44.239463" lon="8.3636533"><ele>482.2</ele><time>2026-05-02T13:59:30.176Z</time></trkpt><trkpt lat="44.2394001" lon="8.3637533"><ele>483.80000000000007</ele><time>2026-05-02T13:59:31.17Z</time></trkpt><trkpt lat="44.2393399" lon="8.3638641"><ele>485.40000000000003</ele><time>2026-05-02T13:59:32.182Z</time></trkpt><trkpt lat="44.2392779" lon="8.3639634"><ele>487.0</ele><time>2026-05-02T13:59:33.169Z</time></trkpt><trkpt lat="44.2392166" lon="8.3640681"><ele>487.0</ele><time>2026-05-02T13:59:34.176Z</time></trkpt><trkpt lat="44.2391512" lon="8.3641736"><ele>487.00000000000006</ele><time>2026-05-02T13:59:35.175Z</time></trkpt><trkpt lat="44.2390966" lon="8.3642881"><ele>487.00000000000006</ele><time>2026-05-02T13:59:36.17Z</time></trkpt><trkpt lat="44.2390594" lon="8.3644069"><ele>487.0</ele><time>2026-05-02T13:59:37.172Z</time></trkpt><trkpt lat="44.2390165" lon="8.3645258"><ele>487.0</ele><time>2026-05-02T13:59:38.164Z</time></trkpt><trkpt lat="44.2389865" lon="8.3646472"><ele>489.8</ele><time>2026-05-02T13:59:39.167Z</time></trkpt><trkpt lat="44.2389521" lon="8.3647713"><ele>492.6</ele><time>2026-05-02T13:59:40.186Z</time></trkpt><trkpt lat="44.238917" lon="8.3649041"><ele>495.40000000000003</ele><time>2026-05-02T13:59:41.174Z</time></trkpt><trkpt lat="44.2388946" lon="8.3650365"><ele>498.20000000000005</ele><time>2026-05-02T13:59:42.178Z</time></trkpt><trkpt lat="44.2388817" lon="8.3651657"><ele>501.0</ele><time>2026-05-02T13:59:43.18Z</time></trkpt><trkpt lat="44.238882" lon="8.3652872"><ele>501.0</ele><time>2026-05-02T13:59:44.184Z</time></trkpt><trkpt lat="44.2388739" lon="8.365396"><ele>501.0</ele><time>2026-05-02T13:59:45.178Z</time></trkpt><trkpt lat="44.2388585" lon="8.3654985"><ele>501.0</ele><time>2026-05-02T13:59:46.18Z</time></trkpt><trkpt lat="44.2388435" lon="8.3656099"><ele>501.0</ele><time>2026-05-02T13:59:47.182Z</time></trkpt><trkpt lat="44.2388246" lon="8.3657236"><ele>501.0</ele><time>2026-05-02T13:59:48.176Z</time></trkpt><trkpt lat="44.2388017" lon="8.365843"><ele>501.0</ele><time>2026-05-02T13:59:49.167Z</time></trkpt><trkpt lat="44.2387836" lon="8.3659473"><ele>501.1666666666667</ele><time>2026-05-02T13:59:50.182Z</time></trkpt><trkpt lat="44.2387714" lon="8.3660459"><ele>501.33333333333337</ele><time>2026-05-02T13:59:51.164Z</time></trkpt><trkpt lat="44.2387638" lon="8.3661414"><ele>501.5</ele><time>2026-05-02T13:59:52.184Z</time></trkpt><trkpt lat="44.2387909" lon="8.3663162"><ele>501.6666666666667</ele><time>2026-05-02T13:59:54.174Z</time></trkpt><trkpt lat="44.2388014" lon="8.3664083"><ele>501.83333333333337</ele><time>2026-05-02T13:59:55.175Z</time></trkpt><trkpt lat="44.2388308" lon="8.3665034"><ele>502.0</ele><time>2026-05-02T13:59:56.175Z</time></trkpt><trkpt lat="44.2388561" lon="8.3666008"><ele>502.0</ele><time>2026-05-02T13:59:57.164Z</time></trkpt><trkpt lat="44.2388815" lon="8.366712"><ele>502.00000000000006</ele><time>2026-05-02T13:59:58.189Z</time></trkpt><trkpt lat="44.2388961" lon="8.3668137"><ele>502.00000000000006</ele><time>2026-05-02T13:59:59.171Z</time></trkpt><trkpt lat="44.2389056" lon="8.3669818"><ele>502.0</ele><time>2026-05-02T14:00:01.173Z</time></trkpt><trkpt lat="44.2388807" lon="8.3671495"><ele>502.0</ele><time>2026-05-02T14:00:03.177Z</time></trkpt><trkpt lat="44.2388703" lon="8.3672399"><ele>502.00000000000006</ele><time>2026-05-02T14:00:04.174Z</time></trkpt><trkpt lat="44.2388659" lon="8.3673365"><ele>502.0</ele><time>2026-05-02T14:00:05.174Z</time></trkpt><trkpt lat="44.2388759" lon="8.3674287"><ele>502.0</ele><time>2026-05-02T14:00:06.165Z</time></trkpt><trkpt lat="44.2389152" lon="8.3675623"><ele>502.0</ele><time>2026-05-02T14:00:08.177Z</time></trkpt><trkpt lat="44.2389831" lon="8.3675642"><ele>502.00000000000006</ele><time>2026-05-02T14:00:16.172Z</time></trkpt><trkpt lat="44.2390576" lon="8.3676366"><ele>502.0</ele><time>2026-05-02T14:00:19.183Z</time></trkpt><trkpt lat="44.2391017" lon="8.3677756"><ele>491.8</ele><time>2026-05-02T14:00:21.167Z</time></trkpt><trkpt lat="44.2390975" lon="8.3679214"><ele>481.6</ele><time>2026-05-02T14:00:23.172Z</time></trkpt><trkpt lat="44.2390948" lon="8.3680968"><ele>471.40000000000003</ele><time>2026-05-02T14:00:25.165Z</time></trkpt><trkpt lat="44.2391189" lon="8.3681983"><ele>461.20000000000005</ele><time>2026-05-02T14:00:26.17Z</time></trkpt><trkpt lat="44.2391352" lon="8.3683145"><ele>451.0</ele><time>2026-05-02T14:00:27.163Z</time></trkpt><trkpt lat="44.2391439" lon="8.3684416"><ele>451.00000000000006</ele><time>2026-05-02T14:00:28.161Z</time></trkpt><trkpt lat="44.2391595" lon="8.3685652"><ele>451.0</ele><time>2026-05-02T14:00:29.178Z</time></trkpt><trkpt lat="44.2391806" lon="8.3686822"><ele>451.0</ele><time>2026-05-02T14:00:30.18Z</time></trkpt><trkpt lat="44.2391782" lon="8.3688066"><ele>451.0</ele><time>2026-05-02T14:00:31.17Z</time></trkpt><trkpt lat="44.2391686" lon="8.368933"><ele>451.00000000000006</ele><time>2026-05-02T14:00:32.167Z</time></trkpt><trkpt lat="44.2391484" lon="8.3690511"><ele>451.0</ele><time>2026-05-02T14:00:33.163Z</time></trkpt><trkpt lat="44.2391435" lon="8.3691785"><ele>451.4</ele><time>2026-05-02T14:00:34.164Z</time></trkpt><trkpt lat="44.2391313" lon="8.3693183"><ele>451.8</ele><time>2026-05-02T14:00:35.172Z</time></trkpt><trkpt lat="44.2391227" lon="8.3694639"><ele>452.19999999999993</ele><time>2026-05-02T14:00:36.168Z</time></trkpt><trkpt lat="44.239129" lon="8.3696103"><ele>452.59999999999997</ele><time>2026-05-02T14:00:37.172Z</time></trkpt><trkpt lat="44.2391388" lon="8.3697511"><ele>453.0</ele><time>2026-05-02T14:00:38.183Z</time></trkpt><trkpt lat="44.2391282" lon="8.3698546"><ele>451.5714285714285</ele><time>2026-05-02T14:00:39.185Z</time></trkpt><trkpt lat="44.239087" lon="8.3699307"><ele>450.1428571428571</ele><time>2026-05-02T14:00:40.179Z</time></trkpt><trkpt lat="44.2390357" lon="8.3699945"><ele>448.71428571428567</ele><time>2026-05-02T14:00:41.177Z</time></trkpt><trkpt lat="44.2389817" lon="8.370058"><ele>447.2857142857142</ele><time>2026-05-02T14:00:42.165Z</time></trkpt><trkpt lat="44.2389208" lon="8.3701317"><ele>445.8571428571429</ele><time>2026-05-02T14:00:43.161Z</time></trkpt><trkpt lat="44.2388557" lon="8.3702085"><ele>444.42857142857144</ele><time>2026-05-02T14:00:44.169Z</time></trkpt><trkpt lat="44.2388053" lon="8.3702833"><ele>443.0</ele><time>2026-05-02T14:00:45.169Z</time></trkpt><trkpt lat="44.2387559" lon="8.3703624"><ele>448.0</ele><time>2026-05-02T14:00:46.165Z</time></trkpt><trkpt lat="44.2387209" lon="8.3704615"><ele>452.99999999999994</ele><time>2026-05-02T14:00:47.165Z</time></trkpt><trkpt lat="44.2386988" lon="8.3705715"><ele>457.99999999999994</ele><time>2026-05-02T14:00:48.161Z</time></trkpt><trkpt lat="44.2386954" lon="8.3707124"><ele>463.0</ele><time>2026-05-02T14:00:49.17Z</time></trkpt><trkpt lat="44.238696" lon="8.3708541"><ele>468.0</ele><time>2026-05-02T14:00:50.169Z</time></trkpt><trkpt lat="44.2387064" lon="8.3709809"><ele>468.0</ele><time>2026-05-02T14:00:51.175Z</time></trkpt><trkpt lat="44.2387125" lon="8.371101"><ele>468.0</ele><time>2026-05-02T14:00:52.178Z</time></trkpt><trkpt lat="44.2387177" lon="8.3712004"><ele>468.0</ele><time>2026-05-02T14:00:53.171Z</time></trkpt><trkpt lat="44.2387129" lon="8.3713625"><ele>468.0</ele><time>2026-05-02T14:00:55.181Z</time></trkpt><trkpt lat="44.2386689" lon="8.3714974"><ele>468.0</ele><time>2026-05-02T14:00:57.182Z</time></trkpt><trkpt lat="44.2386317" lon="8.3715683"><ele>468.0</ele><time>2026-05-02T14:00:58.176Z</time></trkpt><trkpt lat="44.2385881" lon="8.3716507"><ele>462.5</ele><time>2026-05-02T14:00:59.183Z</time></trkpt><trkpt lat="44.2385322" lon="8.3717304"><ele>457.0</ele><time>2026-05-02T14:01:00.175Z</time></trkpt><trkpt lat="44.2384735" lon="8.3718095"><ele>451.5</ele><time>2026-05-02T14:01:01.165Z</time></trkpt><trkpt lat="44.2384249" lon="8.3718819"><ele>446.0</ele><time>2026-05-02T14:01:02.168Z</time></trkpt><trkpt lat="44.2383717" lon="8.3719445"><ele>440.5</ele><time>2026-05-02T14:01:03.169Z</time></trkpt><trkpt lat="44.2383221" lon="8.3720107"><ele>435.0</ele><time>2026-05-02T14:01:04.177Z</time></trkpt><trkpt lat="44.2382173" lon="8.3721153"><ele>435.0</ele><time>2026-05-02T14:01:06.178Z</time></trkpt><trkpt lat="44.2381647" lon="8.3721709"><ele>435.0</ele><time>2026-05-02T14:01:07.161Z</time></trkpt><trkpt lat="44.2380747" lon="8.3722663"><ele>435.0</ele><time>2026-05-02T14:01:09.17Z</time></trkpt><trkpt lat="44.2380193" lon="8.3723324"><ele>435.0</ele><time>2026-05-02T14:01:10.166Z</time></trkpt><trkpt lat="44.2379593" lon="8.3724028"><ele>435.0</ele><time>2026-05-02T14:01:11.171Z</time></trkpt><trkpt lat="44.237902" lon="8.3724564"><ele>435.0</ele><time>2026-05-02T14:01:12.16Z</time></trkpt><trkpt lat="44.2378388" lon="8.3725746"><ele>435.3333333333333</ele><time>2026-05-02T14:01:14.165Z</time></trkpt><trkpt lat="44.2378165" lon="8.3726599"><ele>435.66666666666663</ele><time>2026-05-02T14:01:15.172Z</time></trkpt><trkpt lat="44.2377963" lon="8.3727558"><ele>436.0</ele><time>2026-05-02T14:01:16.165Z</time></trkpt><trkpt lat="44.2377761" lon="8.3728699"><ele>436.3333333333333</ele><time>2026-05-02T14:01:17.17Z</time></trkpt><trkpt lat="44.2377481" lon="8.3729766"><ele>436.66666666666663</ele><time>2026-05-02T14:01:18.173Z</time></trkpt><trkpt lat="44.2377178" lon="8.3730761"><ele>437.0</ele><time>2026-05-02T14:01:19.172Z</time></trkpt><trkpt lat="44.2376725" lon="8.3731789"><ele>433.99999999999994</ele><time>2026-05-02T14:01:20.167Z</time></trkpt><trkpt lat="44.2376339" lon="8.3732854"><ele>431.0</ele><time>2026-05-02T14:01:21.168Z</time></trkpt><trkpt lat="44.2376094" lon="8.3733965"><ele>428.0</ele><time>2026-05-02T14:01:22.161Z</time></trkpt><trkpt lat="44.2375933" lon="8.3735053"><ele>425.0</ele><time>2026-05-02T14:01:23.173Z</time></trkpt><trkpt lat="44.23757" lon="8.373613"><ele>421.99999999999994</ele><time>2026-05-02T14:01:24.173Z</time></trkpt><trkpt lat="44.2375391" lon="8.3737134"><ele>419.0</ele><time>2026-05-02T14:01:25.173Z</time></trkpt><trkpt lat="44.2374864" lon="8.3738165"><ele>416.4</ele><time>2026-05-02T14:01:26.185Z</time></trkpt><trkpt lat="44.2374269" lon="8.3738964"><ele>413.79999999999995</ele><time>2026-05-02T14:01:27.177Z</time></trkpt><trkpt lat="44.2373609" lon="8.3739639"><ele>411.20000000000005</ele><time>2026-05-02T14:01:28.176Z</time></trkpt><trkpt lat="44.237275" lon="8.3740627"><ele>408.6</ele><time>2026-05-02T14:01:30.182Z</time></trkpt><trkpt lat="44.2372264" lon="8.3741972"><ele>406.0</ele><time>2026-05-02T14:01:32.175Z</time></trkpt><trkpt lat="44.237289" lon="8.3742548"><ele>406.0</ele><time>2026-05-02T14:01:50.19Z</time></trkpt><trkpt lat="44.2373871" lon="8.3743196"><ele>406.0</ele><time>2026-05-02T14:01:52.177Z</time></trkpt><trkpt lat="44.2374543" lon="8.3743843"><ele>406.0</ele><time>2026-05-02T14:01:53.186Z</time></trkpt><trkpt lat="44.2375249" lon="8.374447"><ele>406.0</ele><time>2026-05-02T14:01:54.17Z</time></trkpt><trkpt lat="44.2375934" lon="8.3744856"><ele>406.0</ele><time>2026-05-02T14:01:55.183Z</time></trkpt><trkpt lat="44.2377046" lon="8.3745155"><ele>406.00000000000006</ele><time>2026-05-02T14:01:57.177Z</time></trkpt><trkpt lat="44.237811" lon="8.3745415"><ele>406.0</ele><time>2026-05-02T14:01:59.168Z</time></trkpt><trkpt lat="44.2379306" lon="8.3745413"><ele>406.0</ele><time>2026-05-02T14:02:01.169Z</time></trkpt><trkpt lat="44.2379929" lon="8.3745173"><ele>406.0</ele><time>2026-05-02T14:02:02.157Z</time></trkpt><trkpt lat="44.2380534" lon="8.3744842"><ele>406.00000000000006</ele><time>2026-05-02T14:02:03.162Z</time></trkpt><trkpt lat="44.2381162" lon="8.3744481"><ele>406.0</ele><time>2026-05-02T14:02:04.159Z</time></trkpt><trkpt lat="44.2381907" lon="8.3744155"><ele>404.33333333333337</ele><time>2026-05-02T14:02:05.164Z</time></trkpt><trkpt lat="44.2382661" lon="8.3744084"><ele>402.6666666666667</ele><time>2026-05-02T14:02:06.172Z</time></trkpt><trkpt lat="44.2383543" lon="8.3743795"><ele>401.0</ele><time>2026-05-02T14:02:07.165Z</time></trkpt><trkpt lat="44.2384432" lon="8.3743502"><ele>399.33333333333337</ele><time>2026-05-02T14:02:08.162Z</time></trkpt><trkpt lat="44.2385197" lon="8.374303"><ele>397.6666666666667</ele><time>2026-05-02T14:02:09.167Z</time></trkpt><trkpt lat="44.2386061" lon="8.3742927"><ele>396.0</ele><time>2026-05-02T14:02:10.17Z</time></trkpt><trkpt lat="44.2386906" lon="8.3743349"><ele>396.0</ele><time>2026-05-02T14:02:11.17Z</time></trkpt><trkpt lat="44.2387605" lon="8.3743871"><ele>396.0</ele><time>2026-05-02T14:02:12.17Z</time></trkpt><trkpt lat="44.238836" lon="8.3744538"><ele>396.0</ele><time>2026-05-02T14:02:13.158Z</time></trkpt><trkpt lat="44.2389154" lon="8.3745125"><ele>396.0</ele><time>2026-05-02T14:02:14.171Z</time></trkpt><trkpt lat="44.2389986" lon="8.3745769"><ele>396.0</ele><time>2026-05-02T14:02:15.171Z</time></trkpt><trkpt lat="44.2390665" lon="8.3746272"><ele>396.0</ele><time>2026-05-02T14:02:16.168Z</time></trkpt><trkpt lat="44.2391312" lon="8.3746536"><ele>394.0</ele><time>2026-05-02T14:02:17.166Z</time></trkpt><trkpt lat="44.2391916" lon="8.3746806"><ele>392.0</ele><time>2026-05-02T14:02:18.167Z</time></trkpt><trkpt lat="44.2393083" lon="8.3747547"><ele>390.0</ele><time>2026-05-02T14:02:20.167Z</time></trkpt><trkpt lat="44.2393898" lon="8.3747807"><ele>388.0</ele><time>2026-05-02T14:02:21.162Z</time></trkpt><trkpt lat="44.2394714" lon="8.3748078"><ele>386.0</ele><time>2026-05-02T14:02:22.165Z</time></trkpt><trkpt lat="44.2395393" lon="8.3748474"><ele>384.0</ele><time>2026-05-02T14:02:23.167Z</time></trkpt><trkpt lat="44.239608" lon="8.3748873"><ele>388.0</ele><time>2026-05-02T14:02:24.167Z</time></trkpt><trkpt lat="44.2396819" lon="8.374924"><ele>392.0</ele><time>2026-05-02T14:02:25.167Z</time></trkpt><trkpt lat="44.2397561" lon="8.3749573"><ele>396.0</ele><time>2026-05-02T14:02:26.163Z</time></trkpt><trkpt lat="44.2398359" lon="8.3749715"><ele>400.0</ele><time>2026-05-02T14:02:27.158Z</time></trkpt><trkpt lat="44.2399226" lon="8.3749699"><ele>404.0</ele><time>2026-05-02T14:02:28.174Z</time></trkpt><trkpt lat="44.2400041" lon="8.374979"><ele>408.0</ele><time>2026-05-02T14:02:29.17Z</time></trkpt><trkpt lat="44.2400811" lon="8.375001"><ele>408.0</ele><time>2026-05-02T14:02:30.172Z</time></trkpt><trkpt lat="44.2401528" lon="8.3750305"><ele>408.0</ele><time>2026-05-02T14:02:31.166Z</time></trkpt><trkpt lat="44.2402283" lon="8.3750277"><ele>408.0</ele><time>2026-05-02T14:02:32.164Z</time></trkpt><trkpt lat="44.2403089" lon="8.3750236"><ele>408.0</ele><time>2026-05-02T14:02:33.166Z</time></trkpt><trkpt lat="44.2403937" lon="8.3750102"><ele>408.0</ele><time>2026-05-02T14:02:34.167Z</time></trkpt><trkpt lat="44.2404641" lon="8.3750026"><ele>408.0</ele><time>2026-05-02T14:02:35.17Z</time></trkpt><trkpt lat="44.2405654" lon="8.3749979"><ele>408.0</ele><time>2026-05-02T14:02:37.179Z</time></trkpt><trkpt lat="44.2406288" lon="8.3750334"><ele>408.0</ele><time>2026-05-02T14:02:38.166Z</time></trkpt><trkpt lat="44.240692" lon="8.3750979"><ele>408.0</ele><time>2026-05-02T14:02:39.177Z</time></trkpt><trkpt lat="44.240724" lon="8.3751953"><ele>408.0</ele><time>2026-05-02T14:02:40.167Z</time></trkpt><trkpt lat="44.240733" lon="8.3752939"><ele>408.0</ele><time>2026-05-02T14:02:41.163Z</time></trkpt><trkpt lat="44.2407436" lon="8.3753973"><ele>408.0</ele><time>2026-05-02T14:02:42.167Z</time></trkpt><trkpt lat="44.2407654" lon="8.3755058"><ele>408.5</ele><time>2026-05-02T14:02:43.163Z</time></trkpt><trkpt lat="44.2407668" lon="8.3756149"><ele>409.0</ele><time>2026-05-02T14:02:44.171Z</time></trkpt><trkpt lat="44.2407628" lon="8.3757266"><ele>409.5</ele><time>2026-05-02T14:02:45.167Z</time></trkpt><trkpt lat="44.2407456" lon="8.3758453"><ele>410.0</ele><time>2026-05-02T14:02:46.166Z</time></trkpt><trkpt lat="44.2407565" lon="8.3759488"><ele>410.5</ele><time>2026-05-02T14:02:47.166Z</time></trkpt><trkpt lat="44.2407789" lon="8.3760444"><ele>411.0</ele><time>2026-05-02T14:02:48.165Z</time></trkpt><trkpt lat="44.2408147" lon="8.3761451"><ele>411.0</ele><time>2026-05-02T14:02:49.167Z</time></trkpt><trkpt lat="44.240852" lon="8.3762536"><ele>411.0</ele><time>2026-05-02T14:02:50.167Z</time></trkpt><trkpt lat="44.2408853" lon="8.3763667"><ele>411.0</ele><time>2026-05-02T14:02:51.168Z</time></trkpt><trkpt lat="44.2409204" lon="8.3764852"><ele>411.0</ele><time>2026-05-02T14:02:52.168Z</time></trkpt><trkpt lat="44.2409541" lon="8.3766134"><ele>411.0</ele><time>2026-05-02T14:02:53.17Z</time></trkpt><trkpt lat="44.2409872" lon="8.3767442"><ele>413.20000000000005</ele><time>2026-05-02T14:02:54.168Z</time></trkpt><trkpt lat="44.2410333" lon="8.3768615"><ele>415.40000000000003</ele><time>2026-05-02T14:02:55.175Z</time></trkpt><trkpt lat="44.241084" lon="8.3769852"><ele>417.6</ele><time>2026-05-02T14:02:56.168Z</time></trkpt><trkpt lat="44.241136" lon="8.3771057"><ele>419.8</ele><time>2026-05-02T14:02:57.17Z</time></trkpt><trkpt lat="44.2411938" lon="8.3772132"><ele>422.0</ele><time>2026-05-02T14:02:58.177Z</time></trkpt><trkpt lat="44.2412569" lon="8.3773098"><ele>422.8571428571429</ele><time>2026-05-02T14:02:59.174Z</time></trkpt><trkpt lat="44.2412929" lon="8.3774102"><ele>423.7142857142857</ele><time>2026-05-02T14:03:00.172Z</time></trkpt><trkpt lat="44.2412802" lon="8.3775064"><ele>424.57142857142856</ele><time>2026-05-02T14:03:01.174Z</time></trkpt><trkpt lat="44.2412445" lon="8.3775821"><ele>425.42857142857144</ele><time>2026-05-02T14:03:02.176Z</time></trkpt><trkpt lat="44.2411778" lon="8.3776302"><ele>426.2857142857143</ele><time>2026-05-02T14:03:03.166Z</time></trkpt><trkpt lat="44.2411069" lon="8.3776675"><ele>427.14285714285717</ele><time>2026-05-02T14:03:04.168Z</time></trkpt><trkpt lat="44.2410397" lon="8.3777122"><ele>428.0</ele><time>2026-05-02T14:03:05.166Z</time></trkpt><trkpt lat="44.2409825" lon="8.377809"><ele>427.99999999999994</ele><time>2026-05-02T14:03:07.177Z</time></trkpt><trkpt lat="44.2410036" lon="8.377932"><ele>428.0</ele><time>2026-05-02T14:03:09.178Z</time></trkpt><trkpt lat="44.2410318" lon="8.3780267"><ele>428.0</ele><time>2026-05-02T14:03:10.172Z</time></trkpt><trkpt lat="44.24106" lon="8.3781275"><ele>428.0</ele><time>2026-05-02T14:03:11.175Z</time></trkpt><trkpt lat="44.2410773" lon="8.3782185"><ele>427.99999999999994</ele><time>2026-05-02T14:03:12.167Z</time></trkpt><trkpt lat="44.2411269" lon="8.3783613"><ele>428.0</ele><time>2026-05-02T14:03:14.168Z</time></trkpt><trkpt lat="44.2411776" lon="8.3784191"><ele>428.79999999999995</ele><time>2026-05-02T14:03:15.166Z</time></trkpt><trkpt lat="44.241229" lon="8.3784904"><ele>429.59999999999997</ele><time>2026-05-02T14:03:16.177Z</time></trkpt><trkpt lat="44.241274" lon="8.3786487"><ele>430.40000000000003</ele><time>2026-05-02T14:03:18.168Z</time></trkpt><trkpt lat="44.2412093" lon="8.3788149"><ele>431.20000000000005</ele><time>2026-05-02T14:03:20.181Z</time></trkpt><trkpt lat="44.2411603" lon="8.3788975"><ele>432.0</ele><time>2026-05-02T14:03:21.179Z</time></trkpt><trkpt lat="44.241118" lon="8.3789626"><ele>432.0</ele><time>2026-05-02T14:03:22.17Z</time></trkpt><trkpt lat="44.2410568" lon="8.3790905"><ele>432.00000000000006</ele><time>2026-05-02T14:03:24.172Z</time></trkpt><trkpt lat="44.2410422" lon="8.3792572"><ele>432.00000000000006</ele><time>2026-05-02T14:03:26.184Z</time></trkpt><trkpt lat="44.2410468" lon="8.3793583"><ele>432.0</ele><time>2026-05-02T14:03:27.175Z</time></trkpt><trkpt lat="44.2410518" lon="8.3794686"><ele>432.0</ele><time>2026-05-02T14:03:28.171Z</time></trkpt><trkpt lat="44.2410584" lon="8.3795838"><ele>432.5</ele><time>2026-05-02T14:03:29.184Z</time></trkpt><trkpt lat="44.2410749" lon="8.3796869"><ele>433.0</ele><time>2026-05-02T14:03:30.168Z</time></trkpt><trkpt lat="44.2410893" lon="8.3797884"><ele>433.5</ele><time>2026-05-02T14:03:31.179Z</time></trkpt><trkpt lat="44.241098" lon="8.3798828"><ele>434.0</ele><time>2026-05-02T14:03:32.174Z</time></trkpt><trkpt lat="44.2410967" lon="8.3800457"><ele>434.5</ele><time>2026-05-02T14:03:34.173Z</time></trkpt><trkpt lat="44.2410764" lon="8.3801632"><ele>435.0</ele><time>2026-05-02T14:03:36.171Z</time></trkpt><trkpt lat="44.2411052" lon="8.3802965"><ele>435.0</ele><time>2026-05-02T14:03:39.173Z</time></trkpt><trkpt lat="44.2412132" lon="8.3803963"><ele>435.0</ele><time>2026-05-02T14:03:41.185Z</time></trkpt><trkpt lat="44.2412739" lon="8.3804483"><ele>435.0</ele><time>2026-05-02T14:03:42.171Z</time></trkpt><trkpt lat="44.2413397" lon="8.380511"><ele>435.0</ele><time>2026-05-02T14:03:43.18Z</time></trkpt><trkpt lat="44.2413778" lon="8.3806344"><ele>435.0</ele><time>2026-05-02T14:03:45.177Z</time></trkpt><trkpt lat="44.2413294" lon="8.3807267"><ele>435.6</ele><time>2026-05-02T14:03:47.164Z</time></trkpt><trkpt lat="44.2412656" lon="8.3808153"><ele>436.2</ele><time>2026-05-02T14:03:49.17Z</time></trkpt><trkpt lat="44.2412979" lon="8.3809062"><ele>436.79999999999995</ele><time>2026-05-02T14:03:52.169Z</time></trkpt><trkpt lat="44.2413707" lon="8.380967"><ele>437.4</ele><time>2026-05-02T14:03:53.166Z</time></trkpt><trkpt lat="44.2414933" lon="8.3810679"><ele>438.0</ele><time>2026-05-02T14:03:54.171Z</time></trkpt><trkpt lat="44.2415697" lon="8.3811884"><ele>432.59999999999997</ele><time>2026-05-02T14:03:55.166Z</time></trkpt><trkpt lat="44.2416219" lon="8.3813119"><ele>427.19999999999993</ele><time>2026-05-02T14:03:56.169Z</time></trkpt><trkpt lat="44.2416145" lon="8.3814397"><ele>421.8</ele><time>2026-05-02T14:03:57.172Z</time></trkpt><trkpt lat="44.2415943" lon="8.3815743"><ele>416.4</ele><time>2026-05-02T14:03:58.168Z</time></trkpt><trkpt lat="44.2415962" lon="8.3816775"><ele>411.0</ele><time>2026-05-02T14:03:59.166Z</time></trkpt><trkpt lat="44.2416462" lon="8.3817938"><ele>411.0</ele><time>2026-05-02T14:04:01.168Z</time></trkpt><trkpt lat="44.2416583" lon="8.3818865"><ele>411.0</ele><time>2026-05-02T14:04:02.174Z</time></trkpt><trkpt lat="44.2416766" lon="8.3819843"><ele>411.0</ele><time>2026-05-02T14:04:03.174Z</time></trkpt><trkpt lat="44.2417048" lon="8.3820914"><ele>411.0</ele><time>2026-05-02T14:04:04.168Z</time></trkpt><trkpt lat="44.2417404" lon="8.3822009"><ele>411.0</ele><time>2026-05-02T14:04:05.174Z</time></trkpt><trkpt lat="44.2417836" lon="8.3822982"><ele>411.0</ele><time>2026-05-02T14:04:06.178Z</time></trkpt><trkpt lat="44.2418549" lon="8.3824264"><ele>412.5</ele><time>2026-05-02T14:04:07.156Z</time></trkpt><trkpt lat="44.2419217" lon="8.3825611"><ele>414.0</ele><time>2026-05-02T14:04:08.176Z</time></trkpt><trkpt lat="44.2419826" lon="8.3827051"><ele>415.5</ele><time>2026-05-02T14:04:09.166Z</time></trkpt><trkpt lat="44.2420155" lon="8.3828448"><ele>417.0</ele><time>2026-05-02T14:04:10.172Z</time></trkpt><trkpt lat="44.2420553" lon="8.3829891"><ele>417.40000000000003</ele><time>2026-05-02T14:04:11.166Z</time></trkpt><trkpt lat="44.2420866" lon="8.383134"><ele>417.8</ele><time>2026-05-02T14:04:12.172Z</time></trkpt><trkpt lat="44.2421234" lon="8.3832721"><ele>418.2</ele><time>2026-05-02T14:04:13.169Z</time></trkpt><trkpt lat="44.2421746" lon="8.3834029"><ele>418.6</ele><time>2026-05-02T14:04:14.172Z</time></trkpt><trkpt lat="44.2422315" lon="8.3835228"><ele>419.0</ele><time>2026-05-02T14:04:15.167Z</time></trkpt><trkpt lat="44.2422899" lon="8.3836267"><ele>414.4</ele><time>2026-05-02T14:04:16.172Z</time></trkpt><trkpt lat="44.2423319" lon="8.3837234"><ele>409.79999999999995</ele><time>2026-05-02T14:04:17.167Z</time></trkpt><trkpt lat="44.2423665" lon="8.3838157"><ele>405.20000000000005</ele><time>2026-05-02T14:04:18.181Z</time></trkpt><trkpt lat="44.2424031" lon="8.3839394"><ele>400.6</ele><time>2026-05-02T14:04:20.173Z</time></trkpt><trkpt lat="44.2424336" lon="8.3840253"><ele>396.0</ele><time>2026-05-02T14:04:45.167Z</time></trkpt><trkpt lat="44.2423963" lon="8.3841998"><ele>395.6</ele><time>2026-05-02T14:04:47.162Z</time></trkpt><trkpt lat="44.2423158" lon="8.384318"><ele>395.20000000000005</ele><time>2026-05-02T14:04:49.168Z</time></trkpt><trkpt lat="44.2422488" lon="8.3843805"><ele>394.79999999999995</ele><time>2026-05-02T14:04:50.166Z</time></trkpt><trkpt lat="44.2421687" lon="8.3844411"><ele>394.4</ele><time>2026-05-02T14:04:51.166Z</time></trkpt><trkpt lat="44.2421176" lon="8.3844998"><ele>394.0</ele><time>2026-05-02T14:04:52.171Z</time></trkpt><trkpt lat="44.2420593" lon="8.384621"><ele>398.6666666666667</ele><time>2026-05-02T14:04:54.178Z</time></trkpt><trkpt lat="44.2420473" lon="8.3847732"><ele>403.33333333333337</ele><time>2026-05-02T14:04:56.172Z</time></trkpt><trkpt lat="44.2420401" lon="8.384866"><ele>408.0</ele><time>2026-05-02T14:04:57.18Z</time></trkpt><trkpt lat="44.2420276" lon="8.3849704"><ele>412.66666666666663</ele><time>2026-05-02T14:04:58.168Z</time></trkpt><trkpt lat="44.24203" lon="8.3850725"><ele>417.3333333333333</ele><time>2026-05-02T14:04:59.17Z</time></trkpt><trkpt lat="44.242027" lon="8.3851656"><ele>422.0</ele><time>2026-05-02T14:05:00.173Z</time></trkpt><trkpt lat="44.2420103" lon="8.3853223"><ele>422.0</ele><time>2026-05-02T14:05:02.173Z</time></trkpt><trkpt lat="44.2419907" lon="8.3854989"><ele>422.0</ele><time>2026-05-02T14:05:04.181Z</time></trkpt><trkpt lat="44.2419955" lon="8.3856666"><ele>422.0</ele><time>2026-05-02T14:05:06.169Z</time></trkpt><trkpt lat="44.2420249" lon="8.3858458"><ele>422.0</ele><time>2026-05-02T14:05:08.172Z</time></trkpt><trkpt lat="44.242057" lon="8.3859578"><ele>421.99999999999994</ele><time>2026-05-02T14:05:09.181Z</time></trkpt><trkpt lat="44.2420827" lon="8.3860555"><ele>422.0</ele><time>2026-05-02T14:05:10.189Z</time></trkpt><trkpt lat="44.2420948" lon="8.3861527"><ele>422.0</ele><time>2026-05-02T14:05:11.179Z</time></trkpt><trkpt lat="44.2420917" lon="8.3862448"><ele>422.0</ele><time>2026-05-02T14:05:12.18Z</time></trkpt><trkpt lat="44.2420996" lon="8.3863327"><ele>421.99999999999994</ele><time>2026-05-02T14:05:13.177Z</time></trkpt><trkpt lat="44.2421242" lon="8.3864822"><ele>422.0</ele><time>2026-05-02T14:05:15.175Z</time></trkpt><trkpt lat="44.2421527" lon="8.3865831"><ele>422.0</ele><time>2026-05-02T14:05:17.175Z</time></trkpt><trkpt lat="44.2421492" lon="8.3867177"><ele>422.0</ele><time>2026-05-02T14:05:19.175Z</time></trkpt><trkpt lat="44.2421349" lon="8.3868739"><ele>422.0</ele><time>2026-05-02T14:05:21.172Z</time></trkpt><trkpt lat="44.2421431" lon="8.3870396"><ele>422.0</ele><time>2026-05-02T14:05:23.179Z</time></trkpt><trkpt lat="44.2421702" lon="8.3871447"><ele>422.0</ele><time>2026-05-02T14:05:24.172Z</time></trkpt><trkpt lat="44.24221" lon="8.3872541"><ele>422.3333333333333</ele><time>2026-05-02T14:05:25.168Z</time></trkpt><trkpt lat="44.2422547" lon="8.3873589"><ele>422.66666666666663</ele><time>2026-05-02T14:05:26.168Z</time></trkpt><trkpt lat="44.2422928" lon="8.3874654"><ele>423.0</ele><time>2026-05-02T14:05:27.177Z</time></trkpt><trkpt lat="44.242313" lon="8.3875689"><ele>423.33333333333337</ele><time>2026-05-02T14:05:28.164Z</time></trkpt><trkpt lat="44.2423076" lon="8.3876688"><ele>423.6666666666667</ele><time>2026-05-02T14:05:29.17Z</time></trkpt><trkpt lat="44.2423104" lon="8.3877662"><ele>424.0</ele><time>2026-05-02T14:05:30.175Z</time></trkpt><trkpt lat="44.2422975" lon="8.3878556"><ele>420.79999999999995</ele><time>2026-05-02T14:05:31.166Z</time></trkpt><trkpt lat="44.2423459" lon="8.3880176"><ele>417.59999999999997</ele><time>2026-05-02T14:05:33.168Z</time></trkpt><trkpt lat="44.2423696" lon="8.3881039"><ele>414.4</ele><time>2026-05-02T14:05:34.159Z</time></trkpt><trkpt lat="44.2424048" lon="8.3881778"><ele>411.2</ele><time>2026-05-02T14:05:35.173Z</time></trkpt><trkpt lat="44.2425097" lon="8.3883055"><ele>408.0</ele><time>2026-05-02T14:05:37.161Z</time></trkpt><trkpt lat="44.2425923" lon="8.3883799"><ele>408.0</ele><time>2026-05-02T14:05:38.165Z</time></trkpt><trkpt lat="44.2426694" lon="8.3884517"><ele>408.0</ele><time>2026-05-02T14:05:39.164Z</time></trkpt><trkpt lat="44.2427441" lon="8.3885175"><ele>408.0</ele><time>2026-05-02T14:05:40.17Z</time></trkpt><trkpt lat="44.2428114" lon="8.388588"><ele>408.0</ele><time>2026-05-02T14:05:41.17Z</time></trkpt><trkpt lat="44.2428682" lon="8.3886738"><ele>408.0</ele><time>2026-05-02T14:05:42.171Z</time></trkpt><trkpt lat="44.2429236" lon="8.3887616"><ele>408.0</ele><time>2026-05-02T14:05:43.162Z</time></trkpt><trkpt lat="44.2429619" lon="8.3888636"><ele>409.8333333333333</ele><time>2026-05-02T14:05:44.171Z</time></trkpt><trkpt lat="44.243003" lon="8.3889772"><ele>411.66666666666663</ele><time>2026-05-02T14:05:45.164Z</time></trkpt><trkpt lat="44.2430127" lon="8.389087"><ele>413.5</ele><time>2026-05-02T14:05:46.168Z</time></trkpt><trkpt lat="44.243003" lon="8.3891882"><ele>415.3333333333333</ele><time>2026-05-02T14:05:47.169Z</time></trkpt><trkpt lat="44.2429762" lon="8.3892772"><ele>417.16666666666663</ele><time>2026-05-02T14:05:48.164Z</time></trkpt><trkpt lat="44.2429469" lon="8.3893762"><ele>419.0</ele><time>2026-05-02T14:05:49.163Z</time></trkpt><trkpt lat="44.2429144" lon="8.3894835"><ele>419.0</ele><time>2026-05-02T14:05:50.169Z</time></trkpt><trkpt lat="44.2428652" lon="8.3896016"><ele>419.0</ele><time>2026-05-02T14:05:51.166Z</time></trkpt><trkpt lat="44.2428116" lon="8.3896988"><ele>419.0</ele><time>2026-05-02T14:05:52.163Z</time></trkpt><trkpt lat="44.2427402" lon="8.3897908"><ele>419.0</ele><time>2026-05-02T14:05:53.162Z</time></trkpt><trkpt lat="44.2426602" lon="8.3898852"><ele>419.0</ele><time>2026-05-02T14:05:54.166Z</time></trkpt><trkpt lat="44.2425675" lon="8.3899758"><ele>417.99999999999994</ele><time>2026-05-02T14:05:55.174Z</time></trkpt><trkpt lat="44.242492" lon="8.3900581"><ele>417.0</ele><time>2026-05-02T14:05:56.167Z</time></trkpt><trkpt lat="44.2424486" lon="8.3901258"><ele>416.0</ele><time>2026-05-02T14:05:57.176Z</time></trkpt><trkpt lat="44.2423972" lon="8.3902318"><ele>415.0</ele><time>2026-05-02T14:05:59.172Z</time></trkpt><trkpt lat="44.242425" lon="8.3903134"><ele>413.99999999999994</ele><time>2026-05-02T14:06:27.184Z</time></trkpt><trkpt lat="44.2424116" lon="8.390415"><ele>413.0</ele><time>2026-05-02T14:06:29.178Z</time></trkpt><trkpt lat="44.2424273" lon="8.3905941"><ele>411.99999999999994</ele><time>2026-05-02T14:06:31.178Z</time></trkpt><trkpt lat="44.2424554" lon="8.3906888"><ele>411.0</ele><time>2026-05-02T14:06:32.175Z</time></trkpt><trkpt lat="44.2424772" lon="8.3908018"><ele>410.0</ele><time>2026-05-02T14:06:33.179Z</time></trkpt><trkpt lat="44.2425027" lon="8.3909399"><ele>409.0</ele><time>2026-05-02T14:06:34.181Z</time></trkpt><trkpt lat="44.2425153" lon="8.3910697"><ele>407.99999999999994</ele><time>2026-05-02T14:06:35.168Z</time></trkpt><trkpt lat="44.2425479" lon="8.391194"><ele>407.0</ele><time>2026-05-02T14:06:36.181Z</time></trkpt><trkpt lat="44.2425708" lon="8.3913241"><ele>406.3333333333333</ele><time>2026-05-02T14:06:37.178Z</time></trkpt><trkpt lat="44.2426013" lon="8.391445"><ele>405.66666666666663</ele><time>2026-05-02T14:06:38.186Z</time></trkpt><trkpt lat="44.2426279" lon="8.3915484"><ele>405.0</ele><time>2026-05-02T14:06:39.18Z</time></trkpt><trkpt lat="44.2426616" lon="8.3916256"><ele>404.33333333333337</ele><time>2026-05-02T14:06:40.178Z</time></trkpt><trkpt lat="44.2427131" lon="8.3917875"><ele>403.6666666666667</ele><time>2026-05-02T14:06:42.189Z</time></trkpt><trkpt lat="44.2427504" lon="8.3918774"><ele>403.0</ele><time>2026-05-02T14:06:43.192Z</time></trkpt><trkpt lat="44.2427869" lon="8.391956"><ele>403.0</ele><time>2026-05-02T14:06:44.193Z</time></trkpt><trkpt lat="44.2428922" lon="8.392052"><ele>403.0</ele><time>2026-05-02T14:06:46.177Z</time></trkpt><trkpt lat="44.2429678" lon="8.3920974"><ele>403.0</ele><time>2026-05-02T14:06:47.181Z</time></trkpt><trkpt lat="44.2430424" lon="8.3921547"><ele>403.0</ele><time>2026-05-02T14:06:48.19Z</time></trkpt><trkpt lat="44.2431151" lon="8.392237"><ele>403.0</ele><time>2026-05-02T14:06:49.191Z</time></trkpt><trkpt lat="44.2431765" lon="8.3923312"><ele>404.4</ele><time>2026-05-02T14:06:50.179Z</time></trkpt><trkpt lat="44.2432296" lon="8.3924335"><ele>405.79999999999995</ele><time>2026-05-02T14:06:51.179Z</time></trkpt><trkpt lat="44.2432827" lon="8.3925506"><ele>407.2</ele><time>2026-05-02T14:06:52.182Z</time></trkpt><trkpt lat="44.2433298" lon="8.3926775"><ele>408.6</ele><time>2026-05-02T14:06:53.186Z</time></trkpt><trkpt lat="44.24338" lon="8.3928037"><ele>410.0</ele><time>2026-05-02T14:06:54.184Z</time></trkpt><trkpt lat="44.2434311" lon="8.3929317"><ele>409.2</ele><time>2026-05-02T14:06:55.174Z</time></trkpt><trkpt lat="44.2434734" lon="8.3930586"><ele>408.4</ele><time>2026-05-02T14:06:56.178Z</time></trkpt><trkpt lat="44.2435125" lon="8.3931962"><ele>407.6</ele><time>2026-05-02T14:06:57.188Z</time></trkpt><trkpt lat="44.243543" lon="8.3933311"><ele>406.8</ele><time>2026-05-02T14:06:58.197Z</time></trkpt><trkpt lat="44.2435604" lon="8.3934651"><ele>406.0</ele><time>2026-05-02T14:06:59.183Z</time></trkpt><trkpt lat="44.2435565" lon="8.3936107"><ele>406.0</ele><time>2026-05-02T14:07:00.192Z</time></trkpt><trkpt lat="44.2435508" lon="8.393756"><ele>406.0</ele><time>2026-05-02T14:07:01.191Z</time></trkpt><trkpt lat="44.2435555" lon="8.3939063"><ele>406.0</ele><time>2026-05-02T14:07:02.19Z</time></trkpt><trkpt lat="44.2435674" lon="8.3940574"><ele>406.0</ele><time>2026-05-02T14:07:03.185Z</time></trkpt><trkpt lat="44.2435817" lon="8.3941982"><ele>406.0</ele><time>2026-05-02T14:07:04.195Z</time></trkpt><trkpt lat="44.2436127" lon="8.3943506"><ele>405.8</ele><time>2026-05-02T14:07:05.184Z</time></trkpt><trkpt lat="44.2436473" lon="8.394502"><ele>405.6</ele><time>2026-05-02T14:07:06.186Z</time></trkpt><trkpt lat="44.2436875" lon="8.3946493"><ele>405.4</ele><time>2026-05-02T14:07:07.173Z</time></trkpt><trkpt lat="44.2437333" lon="8.3947819"><ele>405.2</ele><time>2026-05-02T14:07:08.178Z</time></trkpt><trkpt lat="44.2437961" lon="8.3949148"><ele>405.0</ele><time>2026-05-02T14:07:09.174Z</time></trkpt><trkpt lat="44.2438481" lon="8.3950502"><ele>406.2</ele><time>2026-05-02T14:07:10.179Z</time></trkpt><trkpt lat="44.2438919" lon="8.3951849"><ele>407.4</ele><time>2026-05-02T14:07:11.177Z</time></trkpt><trkpt lat="44.2439294" lon="8.3953193"><ele>408.6</ele><time>2026-05-02T14:07:12.172Z</time></trkpt><trkpt lat="44.2439705" lon="8.3954553"><ele>409.8</ele><time>2026-05-02T14:07:13.186Z</time></trkpt><trkpt lat="44.2440155" lon="8.3955855"><ele>411.0</ele><time>2026-05-02T14:07:14.18Z</time></trkpt><trkpt lat="44.2440592" lon="8.3957202"><ele>411.20000000000005</ele><time>2026-05-02T14:07:15.189Z</time></trkpt><trkpt lat="44.2440985" lon="8.3958616"><ele>411.40000000000003</ele><time>2026-05-02T14:07:16.185Z</time></trkpt><trkpt lat="44.244115" lon="8.3960129"><ele>411.6</ele><time>2026-05-02T14:07:17.179Z</time></trkpt><trkpt lat="44.244133" lon="8.396166"><ele>411.8</ele><time>2026-05-02T14:07:18.177Z</time></trkpt><trkpt lat="44.2441499" lon="8.396311"><ele>412.0</ele><time>2026-05-02T14:07:19.184Z</time></trkpt><trkpt lat="44.2441538" lon="8.3964479"><ele>412.0</ele><time>2026-05-02T14:07:20.188Z</time></trkpt><trkpt lat="44.2441521" lon="8.3965644"><ele>412.0</ele><time>2026-05-02T14:07:21.188Z</time></trkpt><trkpt lat="44.2441346" lon="8.3966729"><ele>412.0</ele><time>2026-05-02T14:07:22.183Z</time></trkpt><trkpt lat="44.2440989" lon="8.3967855"><ele>412.0</ele><time>2026-05-02T14:07:23.177Z</time></trkpt><trkpt lat="44.244058" lon="8.3969099"><ele>412.0</ele><time>2026-05-02T14:07:24.184Z</time></trkpt><trkpt lat="44.2439994" lon="8.3970388"><ele>408.6</ele><time>2026-05-02T14:07:25.184Z</time></trkpt><trkpt lat="44.2439424" lon="8.3971725"><ele>405.20000000000005</ele><time>2026-05-02T14:07:26.185Z</time></trkpt><trkpt lat="44.243893" lon="8.3973113"><ele>401.8</ele><time>2026-05-02T14:07:27.188Z</time></trkpt><trkpt lat="44.243866" lon="8.397445"><ele>398.4</ele><time>2026-05-02T14:07:28.191Z</time></trkpt><trkpt lat="44.243861" lon="8.3975851"><ele>395.0</ele><time>2026-05-02T14:07:29.177Z</time></trkpt><trkpt lat="44.2438681" lon="8.397728"><ele>395.0</ele><time>2026-05-02T14:07:30.187Z</time></trkpt><trkpt lat="44.2438761" lon="8.3978724"><ele>395.0</ele><time>2026-05-02T14:07:31.185Z</time></trkpt><trkpt lat="44.2438733" lon="8.3980243"><ele>395.0</ele><time>2026-05-02T14:07:32.192Z</time></trkpt><trkpt lat="44.2438571" lon="8.3981711"><ele>395.0</ele><time>2026-05-02T14:07:33.181Z</time></trkpt><trkpt lat="44.2438227" lon="8.3983039"><ele>395.0</ele><time>2026-05-02T14:07:34.188Z</time></trkpt><trkpt lat="44.2437819" lon="8.3984072"><ele>396.8</ele><time>2026-05-02T14:07:35.192Z</time></trkpt><trkpt lat="44.2437306" lon="8.3985174"><ele>398.6</ele><time>2026-05-02T14:07:36.179Z</time></trkpt><trkpt lat="44.2436799" lon="8.3986245"><ele>400.4</ele><time>2026-05-02T14:07:37.192Z</time></trkpt><trkpt lat="44.2436425" lon="8.3987388"><ele>402.2</ele><time>2026-05-02T14:07:38.192Z</time></trkpt><trkpt lat="44.2436183" lon="8.39887"><ele>404.0</ele><time>2026-05-02T14:07:39.191Z</time></trkpt><trkpt lat="44.2436021" lon="8.3990045"><ele>406.4</ele><time>2026-05-02T14:07:40.183Z</time></trkpt><trkpt lat="44.2436067" lon="8.39914"><ele>408.79999999999995</ele><time>2026-05-02T14:07:41.187Z</time></trkpt><trkpt lat="44.243606" lon="8.3992835"><ele>411.20000000000005</ele><time>2026-05-02T14:07:42.194Z</time></trkpt><trkpt lat="44.2436094" lon="8.3994303"><ele>413.6</ele><time>2026-05-02T14:07:43.193Z</time></trkpt><trkpt lat="44.2435983" lon="8.3995627"><ele>416.0</ele><time>2026-05-02T14:07:44.194Z</time></trkpt><trkpt lat="44.2435779" lon="8.3997005"><ele>416.20000000000005</ele><time>2026-05-02T14:07:45.191Z</time></trkpt><trkpt lat="44.2435588" lon="8.399841"><ele>416.40000000000003</ele><time>2026-05-02T14:07:46.189Z</time></trkpt><trkpt lat="44.2435405" lon="8.3999734"><ele>416.6</ele><time>2026-05-02T14:07:47.189Z</time></trkpt><trkpt lat="44.2435231" lon="8.4000938"><ele>416.8</ele><time>2026-05-02T14:07:48.188Z</time></trkpt><trkpt lat="44.2435044" lon="8.400222"><ele>417.0</ele><time>2026-05-02T14:07:49.189Z</time></trkpt><trkpt lat="44.2435015" lon="8.4003557"><ele>415.40000000000003</ele><time>2026-05-02T14:07:50.191Z</time></trkpt><trkpt lat="44.2435036" lon="8.4005108"><ele>413.8</ele><time>2026-05-02T14:07:51.185Z</time></trkpt><trkpt lat="44.2435187" lon="8.4006662"><ele>412.2</ele><time>2026-05-02T14:07:52.191Z</time></trkpt><trkpt lat="44.243526" lon="8.4008238"><ele>410.6</ele><time>2026-05-02T14:07:53.189Z</time></trkpt><trkpt lat="44.243529" lon="8.4009791"><ele>409.0</ele><time>2026-05-02T14:07:54.182Z</time></trkpt><trkpt lat="44.2435288" lon="8.4011384"><ele>409.0</ele><time>2026-05-02T14:07:55.187Z</time></trkpt><trkpt lat="44.2435312" lon="8.4012918"><ele>409.0</ele><time>2026-05-02T14:07:56.185Z</time></trkpt><trkpt lat="44.2435402" lon="8.4014359"><ele>409.0</ele><time>2026-05-02T14:07:57.178Z</time></trkpt><trkpt lat="44.2435558" lon="8.4015798"><ele>409.0</ele><time>2026-05-02T14:07:58.187Z</time></trkpt><trkpt lat="44.2435835" lon="8.4017209"><ele>409.0</ele><time>2026-05-02T14:07:59.19Z</time></trkpt><trkpt lat="44.2436137" lon="8.4018673"><ele>408.4</ele><time>2026-05-02T14:08:00.183Z</time></trkpt><trkpt lat="44.2436406" lon="8.4020248"><ele>407.79999999999995</ele><time>2026-05-02T14:08:01.192Z</time></trkpt><trkpt lat="44.2436716" lon="8.402173"><ele>407.20000000000005</ele><time>2026-05-02T14:08:02.188Z</time></trkpt><trkpt lat="44.2437016" lon="8.4022912"><ele>406.6</ele><time>2026-05-02T14:08:03.194Z</time></trkpt><trkpt lat="44.2437764" lon="8.4023495"><ele>406.0</ele><time>2026-05-02T14:08:05.182Z</time></trkpt><trkpt lat="44.2438171" lon="8.4022569"><ele>406.00000000000006</ele><time>2026-05-02T14:08:25.183Z</time></trkpt><trkpt lat="44.2438583" lon="8.4021597"><ele>406.0</ele><time>2026-05-02T14:08:27.187Z</time></trkpt><trkpt lat="44.2438887" lon="8.4020502"><ele>406.0</ele><time>2026-05-02T14:08:29.183Z</time></trkpt><trkpt lat="44.2439227" lon="8.4019721"><ele>406.0</ele><time>2026-05-02T14:08:31.185Z</time></trkpt><trkpt lat="44.2439949" lon="8.4019036"><ele>406.00000000000006</ele><time>2026-05-02T14:08:34.189Z</time></trkpt><trkpt lat="44.2440757" lon="8.4018678"><ele>406.0</ele><time>2026-05-02T14:08:37.183Z</time></trkpt><trkpt lat="44.2441382" lon="8.4018441"><ele>407.00000000000006</ele><time>2026-05-02T14:08:39.181Z</time></trkpt><trkpt lat="44.2442169" lon="8.4017754"><ele>408.0</ele><time>2026-05-02T14:08:41.17Z</time></trkpt><trkpt lat="44.2442656" lon="8.4017118"><ele>409.0</ele><time>2026-05-02T14:08:42.174Z</time></trkpt><trkpt lat="44.2443169" lon="8.4016539"><ele>410.0</ele><time>2026-05-02T14:08:43.172Z</time></trkpt><trkpt lat="44.2443687" lon="8.401602"><ele>411.00000000000006</ele><time>2026-05-02T14:08:44.176Z</time></trkpt><trkpt lat="44.2444677" lon="8.4015739"><ele>412.0</ele><time>2026-05-02T14:08:46.174Z</time></trkpt><trkpt lat="44.2445257" lon="8.4016113"><ele>412.0</ele><time>2026-05-02T14:08:47.177Z</time></trkpt><trkpt lat="44.244621" lon="8.4016946"><ele>412.0</ele><time>2026-05-02T14:08:49.177Z</time></trkpt><trkpt lat="44.2447109" lon="8.4017943"><ele>412.0</ele><time>2026-05-02T14:08:51.176Z</time></trkpt><trkpt lat="44.2447403" lon="8.4019225"><ele>412.0</ele><time>2026-05-02T14:08:53.187Z</time></trkpt><trkpt lat="44.2447089" lon="8.402082"><ele>412.0</ele><time>2026-05-02T14:08:55.173Z</time></trkpt><trkpt lat="44.244686" lon="8.4021726"><ele>411.2857142857143</ele><time>2026-05-02T14:08:56.185Z</time></trkpt><trkpt lat="44.2446594" lon="8.4022586"><ele>410.57142857142856</ele><time>2026-05-02T14:08:57.181Z</time></trkpt><trkpt lat="44.2446419" lon="8.4023508"><ele>409.8571428571429</ele><time>2026-05-02T14:08:58.175Z</time></trkpt><trkpt lat="44.24463" lon="8.4024415"><ele>409.1428571428571</ele><time>2026-05-02T14:08:59.182Z</time></trkpt><trkpt lat="44.2446239" lon="8.4025399"><ele>408.42857142857144</ele><time>2026-05-02T14:09:00.182Z</time></trkpt><trkpt lat="44.2446196" lon="8.4026416"><ele>407.7142857142857</ele><time>2026-05-02T14:09:01.181Z</time></trkpt><trkpt lat="44.2446139" lon="8.4027433"><ele>407.0</ele><time>2026-05-02T14:09:02.178Z</time></trkpt><trkpt lat="44.2445987" lon="8.4028496"><ele>407.00000000000006</ele><time>2026-05-02T14:09:03.185Z</time></trkpt><trkpt lat="44.2445923" lon="8.4029562"><ele>407.0</ele><time>2026-05-02T14:09:04.183Z</time></trkpt><trkpt lat="44.2445833" lon="8.403061"><ele>407.0</ele><time>2026-05-02T14:09:05.184Z</time></trkpt><trkpt lat="44.2445726" lon="8.4031616"><ele>407.0</ele><time>2026-05-02T14:09:06.183Z</time></trkpt><trkpt lat="44.2445505" lon="8.4032577"><ele>407.0</ele><time>2026-05-02T14:09:07.179Z</time></trkpt><trkpt lat="44.2445121" lon="8.4033386"><ele>407.00000000000006</ele><time>2026-05-02T14:09:08.177Z</time></trkpt><trkpt lat="44.2444685" lon="8.4034135"><ele>407.0</ele><time>2026-05-02T14:09:09.17Z</time></trkpt><trkpt lat="44.2444293" lon="8.4034834"><ele>404.3333333333333</ele><time>2026-05-02T14:09:10.175Z</time></trkpt><trkpt lat="44.244388" lon="8.4035796"><ele>401.66666666666663</ele><time>2026-05-02T14:09:12.172Z</time></trkpt><trkpt lat="44.2444419" lon="8.4036586"><ele>399.0</ele><time>2026-05-02T14:09:16.184Z</time></trkpt><trkpt lat="44.2444188" lon="8.4037667"><ele>396.33333333333337</ele><time>2026-05-02T14:09:19.175Z</time></trkpt><trkpt lat="44.2443467" lon="8.4038239"><ele>393.6666666666667</ele><time>2026-05-02T14:09:21.173Z</time></trkpt><trkpt lat="44.2442704" lon="8.4038581"><ele>391.0</ele><time>2026-05-02T14:09:23.171Z</time></trkpt><trkpt lat="44.2441532" lon="8.403892"><ele>386.8</ele><time>2026-05-02T14:09:25.167Z</time></trkpt><trkpt lat="44.2440635" lon="8.4039013"><ele>382.6</ele><time>2026-05-02T14:09:26.16Z</time></trkpt><trkpt lat="44.243981" lon="8.4038947"><ele>378.4</ele><time>2026-05-02T14:09:27.158Z</time></trkpt><trkpt lat="44.2438879" lon="8.4038828"><ele>374.2</ele><time>2026-05-02T14:09:28.163Z</time></trkpt><trkpt lat="44.2438002" lon="8.4038603"><ele>370.0</ele><time>2026-05-02T14:09:29.163Z</time></trkpt><trkpt lat="44.2436959" lon="8.4038461"><ele>371.8</ele><time>2026-05-02T14:09:30.169Z</time></trkpt><trkpt lat="44.2435955" lon="8.4038335"><ele>373.6</ele><time>2026-05-02T14:09:31.154Z</time></trkpt><trkpt lat="44.2434977" lon="8.4038123"><ele>375.4</ele><time>2026-05-02T14:09:32.161Z</time></trkpt><trkpt lat="44.2433998" lon="8.4037928"><ele>377.2</ele><time>2026-05-02T14:09:33.162Z</time></trkpt><trkpt lat="44.2433133" lon="8.4037871"><ele>379.0</ele><time>2026-05-02T14:09:34.168Z</time></trkpt><trkpt lat="44.2432308" lon="8.4037705"><ele>379.0</ele><time>2026-05-02T14:09:35.166Z</time></trkpt><trkpt lat="44.2431581" lon="8.4037595"><ele>379.0</ele><time>2026-05-02T14:09:36.17Z</time></trkpt><trkpt lat="44.2430677" lon="8.4037533"><ele>379.0</ele><time>2026-05-02T14:09:37.164Z</time></trkpt><trkpt lat="44.2429743" lon="8.4037488"><ele>379.0</ele><time>2026-05-02T14:09:38.155Z</time></trkpt><trkpt lat="44.2428694" lon="8.4037481"><ele>379.0</ele><time>2026-05-02T14:09:39.166Z</time></trkpt><trkpt lat="44.2427611" lon="8.4037496"><ele>374.6</ele><time>2026-05-02T14:09:40.168Z</time></trkpt><trkpt lat="44.2426569" lon="8.4037696"><ele>370.2</ele><time>2026-05-02T14:09:41.163Z</time></trkpt><trkpt lat="44.242551" lon="8.4037583"><ele>365.8</ele><time>2026-05-02T14:09:42.171Z</time></trkpt><trkpt lat="44.2424364" lon="8.4037502"><ele>361.40000000000003</ele><time>2026-05-02T14:09:43.175Z</time></trkpt><trkpt lat="44.2423131" lon="8.4037528"><ele>357.0</ele><time>2026-05-02T14:09:44.172Z</time></trkpt><trkpt lat="44.2421997" lon="8.4037509"><ele>352.6666666666667</ele><time>2026-05-02T14:09:45.172Z</time></trkpt><trkpt lat="44.2420919" lon="8.4037547"><ele>348.3333333333333</ele><time>2026-05-02T14:09:46.172Z</time></trkpt><trkpt lat="44.2420183" lon="8.4037337"><ele>344.0</ele><time>2026-05-02T14:09:47.182Z</time></trkpt><trkpt lat="44.2419482" lon="8.4037336"><ele>339.66666666666663</ele><time>2026-05-02T14:09:48.165Z</time></trkpt><trkpt lat="44.241877" lon="8.4037401"><ele>335.3333333333333</ele><time>2026-05-02T14:09:50.182Z</time></trkpt><trkpt lat="44.2419379" lon="8.4037771"><ele>331.0</ele><time>2026-05-02T14:10:21.18Z</time></trkpt><trkpt lat="44.2418882" lon="8.4038374"><ele>331.0</ele><time>2026-05-02T14:10:24.173Z</time></trkpt><trkpt lat="44.2418294" lon="8.4038779"><ele>331.0</ele><time>2026-05-02T14:10:26.176Z</time></trkpt><trkpt lat="44.2417402" lon="8.4039117"><ele>331.0</ele><time>2026-05-02T14:10:28.18Z</time></trkpt><trkpt lat="44.2416466" lon="8.4039415"><ele>331.0</ele><time>2026-05-02T14:10:30.174Z</time></trkpt><trkpt lat="44.2417191" lon="8.4040173"><ele>331.0</ele><time>2026-05-02T14:10:37.185Z</time></trkpt><trkpt lat="44.2417933" lon="8.4040329"><ele>331.0</ele><time>2026-05-02T14:10:39.168Z</time></trkpt><trkpt lat="44.2418815" lon="8.404029"><ele>331.0</ele><time>2026-05-02T14:10:41.169Z</time></trkpt><trkpt lat="44.2420151" lon="8.4040153"><ele>331.0</ele><time>2026-05-02T14:10:43.172Z</time></trkpt><trkpt lat="44.2421048" lon="8.4040153"><ele>331.0</ele><time>2026-05-02T14:10:44.172Z</time></trkpt><trkpt lat="44.2421684" lon="8.4040213"><ele>331.0</ele><time>2026-05-02T14:10:45.169Z</time></trkpt><trkpt lat="44.2422644" lon="8.404064"><ele>331.0</ele><time>2026-05-02T14:10:47.169Z</time></trkpt><trkpt lat="44.2423315" lon="8.4041175"><ele>333.3333333333333</ele><time>2026-05-02T14:10:48.167Z</time></trkpt><trkpt lat="44.2423865" lon="8.4041615"><ele>335.66666666666663</ele><time>2026-05-02T14:10:49.17Z</time></trkpt><trkpt lat="44.2424717" lon="8.4042273"><ele>338.0</ele><time>2026-05-02T14:10:50.173Z</time></trkpt><trkpt lat="44.2425413" lon="8.4042923"><ele>340.3333333333333</ele><time>2026-05-02T14:10:51.167Z</time></trkpt><trkpt lat="44.2425995" lon="8.40435"><ele>342.6666666666667</ele><time>2026-05-02T14:10:52.175Z</time></trkpt><trkpt lat="44.2426525" lon="8.4044055"><ele>345.0</ele><time>2026-05-02T14:10:53.171Z</time></trkpt><trkpt lat="44.2427063" lon="8.404467"><ele>345.0</ele><time>2026-05-02T14:10:54.168Z</time></trkpt><trkpt lat="44.2427772" lon="8.4045339"><ele>345.0</ele><time>2026-05-02T14:10:55.174Z</time></trkpt><trkpt lat="44.2428513" lon="8.4045927"><ele>345.0</ele><time>2026-05-02T14:10:56.173Z</time></trkpt><trkpt lat="44.2429236" lon="8.4046392"><ele>345.0</ele><time>2026-05-02T14:10:57.17Z</time></trkpt><trkpt lat="44.2430039" lon="8.4046898"><ele>345.0</ele><time>2026-05-02T14:10:58.174Z</time></trkpt><trkpt lat="44.2430836" lon="8.4047354"><ele>345.0</ele><time>2026-05-02T14:10:59.169Z</time></trkpt><trkpt lat="44.2431725" lon="8.4047856"><ele>343.4</ele><time>2026-05-02T14:11:00.169Z</time></trkpt><trkpt lat="44.2432631" lon="8.4048458"><ele>341.8</ele><time>2026-05-02T14:11:01.175Z</time></trkpt><trkpt lat="44.2433546" lon="8.4048959"><ele>340.20000000000005</ele><time>2026-05-02T14:11:02.168Z</time></trkpt><trkpt lat="44.2434494" lon="8.4049539"><ele>338.6</ele><time>2026-05-02T14:11:03.171Z</time></trkpt><trkpt lat="44.2435319" lon="8.4050042"><ele>337.0</ele><time>2026-05-02T14:11:04.167Z</time></trkpt><trkpt lat="44.2435996" lon="8.4050481"><ele>337.0</ele><time>2026-05-02T14:11:05.177Z</time></trkpt><trkpt lat="44.2436808" lon="8.4050852"><ele>337.0</ele><time>2026-05-02T14:11:06.173Z</time></trkpt><trkpt lat="44.2437579" lon="8.4051436"><ele>337.0</ele><time>2026-05-02T14:11:07.168Z</time></trkpt><trkpt lat="44.2438389" lon="8.4052055"><ele>337.0</ele><time>2026-05-02T14:11:08.168Z</time></trkpt><trkpt lat="44.243918" lon="8.4052721"><ele>337.0</ele><time>2026-05-02T14:11:09.174Z</time></trkpt><trkpt lat="44.2440016" lon="8.4053344"><ele>335.8</ele><time>2026-05-02T14:11:10.17Z</time></trkpt><trkpt lat="44.2440767" lon="8.4053969"><ele>334.6</ele><time>2026-05-02T14:11:11.168Z</time></trkpt><trkpt lat="44.2441487" lon="8.4054546"><ele>333.40000000000003</ele><time>2026-05-02T14:11:12.171Z</time></trkpt><trkpt lat="44.2442382" lon="8.4055265"><ele>332.20000000000005</ele><time>2026-05-02T14:11:13.182Z</time></trkpt><trkpt lat="44.2443261" lon="8.4055974"><ele>331.0</ele><time>2026-05-02T14:11:14.171Z</time></trkpt><trkpt lat="44.2444001" lon="8.4056733"><ele>331.0</ele><time>2026-05-02T14:11:15.175Z</time></trkpt><trkpt lat="44.2444682" lon="8.4057525"><ele>331.0</ele><time>2026-05-02T14:11:16.175Z</time></trkpt><trkpt lat="44.2445361" lon="8.4058449"><ele>331.0</ele><time>2026-05-02T14:11:17.17Z</time></trkpt><trkpt lat="44.2445953" lon="8.4059474"><ele>331.0</ele><time>2026-05-02T14:11:18.172Z</time></trkpt><trkpt lat="44.2446447" lon="8.4060495"><ele>331.0</ele><time>2026-05-02T14:11:19.167Z</time></trkpt><trkpt lat="44.244679" lon="8.4061472"><ele>331.0</ele><time>2026-05-02T14:11:20.178Z</time></trkpt><trkpt lat="44.2447078" lon="8.4062509"><ele>329.0</ele><time>2026-05-02T14:11:21.177Z</time></trkpt><trkpt lat="44.2447276" lon="8.4063543"><ele>327.0</ele><time>2026-05-02T14:11:22.181Z</time></trkpt><trkpt lat="44.2447422" lon="8.4064532"><ele>325.0</ele><time>2026-05-02T14:11:23.173Z</time></trkpt><trkpt lat="44.2447437" lon="8.4065504"><ele>323.0</ele><time>2026-05-02T14:11:24.174Z</time></trkpt><trkpt lat="44.2447414" lon="8.4066521"><ele>321.0</ele><time>2026-05-02T14:11:25.178Z</time></trkpt><trkpt lat="44.2447329" lon="8.4067605"><ele>319.0</ele><time>2026-05-02T14:11:26.182Z</time></trkpt><trkpt lat="44.2447269" lon="8.4068796"><ele>319.0</ele><time>2026-05-02T14:11:27.177Z</time></trkpt><trkpt lat="44.2447348" lon="8.4069836"><ele>319.0</ele><time>2026-05-02T14:11:28.188Z</time></trkpt><trkpt lat="44.2447494" lon="8.4070904"><ele>319.0</ele><time>2026-05-02T14:11:29.178Z</time></trkpt><trkpt lat="44.2447785" lon="8.4072042"><ele>319.0</ele><time>2026-05-02T14:11:30.185Z</time></trkpt><trkpt lat="44.2448146" lon="8.4073262"><ele>319.0</ele><time>2026-05-02T14:11:31.178Z</time></trkpt><trkpt lat="44.2448614" lon="8.4074517"><ele>319.0</ele><time>2026-05-02T14:11:32.178Z</time></trkpt><trkpt lat="44.244921" lon="8.4075906"><ele>319.79999999999995</ele><time>2026-05-02T14:11:33.178Z</time></trkpt><trkpt lat="44.2449814" lon="8.4077332"><ele>320.59999999999997</ele><time>2026-05-02T14:11:34.183Z</time></trkpt><trkpt lat="44.2450262" lon="8.407877"><ele>321.4</ele><time>2026-05-02T14:11:35.186Z</time></trkpt><trkpt lat="44.245062" lon="8.4080165"><ele>322.2</ele><time>2026-05-02T14:11:36.183Z</time></trkpt><trkpt lat="44.2450852" lon="8.4081608"><ele>323.0</ele><time>2026-05-02T14:11:37.169Z</time></trkpt><trkpt lat="44.245108" lon="8.4083047"><ele>323.0</ele><time>2026-05-02T14:11:38.179Z</time></trkpt><trkpt lat="44.2451305" lon="8.4084337"><ele>323.0</ele><time>2026-05-02T14:11:39.175Z</time></trkpt><trkpt lat="44.245152" lon="8.40856"><ele>323.0</ele><time>2026-05-02T14:11:40.183Z</time></trkpt><trkpt lat="44.2451902" lon="8.4086773"><ele>323.0</ele><time>2026-05-02T14:11:41.181Z</time></trkpt><trkpt lat="44.2452149" lon="8.4087954"><ele>323.0</ele><time>2026-05-02T14:11:42.181Z</time></trkpt><trkpt lat="44.2452266" lon="8.4089087"><ele>322.0</ele><time>2026-05-02T14:11:43.173Z</time></trkpt><trkpt lat="44.2452334" lon="8.4090168"><ele>321.0</ele><time>2026-05-02T14:11:44.184Z</time></trkpt><trkpt lat="44.2452427" lon="8.4091083"><ele>320.0</ele><time>2026-05-02T14:11:45.183Z</time></trkpt><trkpt lat="44.2452691" lon="8.4092435"><ele>319.0</ele><time>2026-05-02T14:11:47.188Z</time></trkpt><trkpt lat="44.245293" lon="8.4093446"><ele>318.0</ele><time>2026-05-02T14:11:49.182Z</time></trkpt><trkpt lat="44.2453076" lon="8.4094905"><ele>317.0</ele><time>2026-05-02T14:11:59.172Z</time></trkpt><trkpt lat="44.245315" lon="8.4096398"><ele>316.5</ele><time>2026-05-02T14:12:01.174Z</time></trkpt><trkpt lat="44.2453258" lon="8.4097967"><ele>316.0</ele><time>2026-05-02T14:12:03.173Z</time></trkpt><trkpt lat="44.2453418" lon="8.4099688"><ele>315.5</ele><time>2026-05-02T14:12:05.165Z</time></trkpt><trkpt lat="44.245359" lon="8.4100684"><ele>315.0</ele><time>2026-05-02T14:12:06.164Z</time></trkpt><trkpt lat="44.2453794" lon="8.4101625"><ele>314.5</ele><time>2026-05-02T14:12:07.163Z</time></trkpt><trkpt lat="44.2453957" lon="8.4102502"><ele>314.0</ele><time>2026-05-02T14:12:08.167Z</time></trkpt><trkpt lat="44.2454016" lon="8.4103566"><ele>314.0</ele><time>2026-05-02T14:12:09.158Z</time></trkpt><trkpt lat="44.2454014" lon="8.4104576"><ele>314.0</ele><time>2026-05-02T14:12:10.159Z</time></trkpt><trkpt lat="44.2454003" lon="8.410555"><ele>314.0</ele><time>2026-05-02T14:12:11.156Z</time></trkpt><trkpt lat="44.2453938" lon="8.4106747"><ele>314.0</ele><time>2026-05-02T14:12:12.156Z</time></trkpt><trkpt lat="44.2453805" lon="8.4107962"><ele>314.0</ele><time>2026-05-02T14:12:13.16Z</time></trkpt><trkpt lat="44.2453686" lon="8.4109269"><ele>314.0</ele><time>2026-05-02T14:12:14.159Z</time></trkpt><trkpt lat="44.2453493" lon="8.4110854"><ele>315.0</ele><time>2026-05-02T14:12:15.164Z</time></trkpt><trkpt lat="44.2453288" lon="8.4112387"><ele>316.0</ele><time>2026-05-02T14:12:16.164Z</time></trkpt><trkpt lat="44.2453076" lon="8.4113985"><ele>317.0</ele><time>2026-05-02T14:12:17.162Z</time></trkpt><trkpt lat="44.2452842" lon="8.4115562"><ele>318.0</ele><time>2026-05-02T14:12:18.162Z</time></trkpt><trkpt lat="44.2452586" lon="8.4116928"><ele>319.0</ele><time>2026-05-02T14:12:19.16Z</time></trkpt><trkpt lat="44.2452458" lon="8.4117948"><ele>320.3333333333333</ele><time>2026-05-02T14:12:20.173Z</time></trkpt><trkpt lat="44.2452336" lon="8.4119166"><ele>321.66666666666663</ele><time>2026-05-02T14:12:21.165Z</time></trkpt><trkpt lat="44.2452208" lon="8.4120215"><ele>323.0</ele><time>2026-05-02T14:12:22.17Z</time></trkpt><trkpt lat="44.2452052" lon="8.4121218"><ele>324.3333333333333</ele><time>2026-05-02T14:12:23.174Z</time></trkpt><trkpt lat="44.2451808" lon="8.4122226"><ele>325.6666666666667</ele><time>2026-05-02T14:12:24.166Z</time></trkpt><trkpt lat="44.2451403" lon="8.4123284"><ele>327.0</ele><time>2026-05-02T14:12:25.171Z</time></trkpt><trkpt lat="44.2451054" lon="8.4124295"><ele>329.6</ele><time>2026-05-02T14:12:26.175Z</time></trkpt><trkpt lat="44.2450727" lon="8.412554"><ele>332.20000000000005</ele><time>2026-05-02T14:12:27.168Z</time></trkpt><trkpt lat="44.2450495" lon="8.4126914"><ele>334.8</ele><time>2026-05-02T14:12:28.172Z</time></trkpt><trkpt lat="44.2450337" lon="8.4128247"><ele>337.4</ele><time>2026-05-02T14:12:29.176Z</time></trkpt><trkpt lat="44.2450192" lon="8.4129524"><ele>340.0</ele><time>2026-05-02T14:12:30.173Z</time></trkpt><trkpt lat="44.2450157" lon="8.4130492"><ele>341.8333333333333</ele><time>2026-05-02T14:12:31.177Z</time></trkpt><trkpt lat="44.245052" lon="8.413136"><ele>343.66666666666663</ele><time>2026-05-02T14:12:57.185Z</time></trkpt><trkpt lat="44.2450802" lon="8.4132251"><ele>345.5</ele><time>2026-05-02T14:13:00.174Z</time></trkpt><trkpt lat="44.2450824" lon="8.4133643"><ele>347.3333333333333</ele><time>2026-05-02T14:13:02.176Z</time></trkpt><trkpt lat="44.2450652" lon="8.4135236"><ele>349.1666666666667</ele><time>2026-05-02T14:13:04.17Z</time></trkpt><trkpt lat="44.2450424" lon="8.4136115"><ele>351.0</ele><time>2026-05-02T14:13:05.166Z</time></trkpt><trkpt lat="44.2450244" lon="8.4136967"><ele>352.20000000000005</ele><time>2026-05-02T14:13:06.172Z</time></trkpt><trkpt lat="44.2450031" lon="8.4138809"><ele>353.40000000000003</ele><time>2026-05-02T14:13:08.171Z</time></trkpt><trkpt lat="44.2449886" lon="8.414057"><ele>354.6</ele><time>2026-05-02T14:13:10.169Z</time></trkpt><trkpt lat="44.2449828" lon="8.4142222"><ele>355.8</ele><time>2026-05-02T14:13:12.173Z</time></trkpt><trkpt lat="44.2449789" lon="8.4143189"><ele>357.0</ele><time>2026-05-02T14:13:13.17Z</time></trkpt><trkpt lat="44.2449848" lon="8.4144216"><ele>357.0</ele><time>2026-05-02T14:13:14.177Z</time></trkpt><trkpt lat="44.2449777" lon="8.4145303"><ele>357.0</ele><time>2026-05-02T14:13:15.164Z</time></trkpt><trkpt lat="44.2449823" lon="8.4146239"><ele>357.0</ele><time>2026-05-02T14:13:16.167Z</time></trkpt><trkpt lat="44.2449942" lon="8.4147479"><ele>357.0</ele><time>2026-05-02T14:13:17.169Z</time></trkpt><trkpt lat="44.2450079" lon="8.4148522"><ele>357.0</ele><time>2026-05-02T14:13:18.165Z</time></trkpt><trkpt lat="44.2450225" lon="8.414951"><ele>357.0</ele><time>2026-05-02T14:13:19.167Z</time></trkpt><trkpt lat="44.2450503" lon="8.4150524"><ele>358.8</ele><time>2026-05-02T14:13:20.17Z</time></trkpt><trkpt lat="44.2450758" lon="8.4151623"><ele>360.6</ele><time>2026-05-02T14:13:21.175Z</time></trkpt><trkpt lat="44.2450935" lon="8.4152889"><ele>362.40000000000003</ele><time>2026-05-02T14:13:22.168Z</time></trkpt><trkpt lat="44.2451083" lon="8.4154286"><ele>364.20000000000005</ele><time>2026-05-02T14:13:23.174Z</time></trkpt><trkpt lat="44.2451259" lon="8.4155771"><ele>366.0</ele><time>2026-05-02T14:13:24.172Z</time></trkpt><trkpt lat="44.2451124" lon="8.4157365"><ele>366.0</ele><time>2026-05-02T14:13:25.179Z</time></trkpt><trkpt lat="44.2451046" lon="8.4158849"><ele>366.0</ele><time>2026-05-02T14:13:26.176Z</time></trkpt><trkpt lat="44.2450997" lon="8.4160239"><ele>366.0</ele><time>2026-05-02T14:13:27.172Z</time></trkpt><trkpt lat="44.2450754" lon="8.4161453"><ele>366.0</ele><time>2026-05-02T14:13:28.168Z</time></trkpt><trkpt lat="44.2450277" lon="8.4162506"><ele>366.0</ele><time>2026-05-02T14:13:29.165Z</time></trkpt><trkpt lat="44.2449783" lon="8.4163492"><ele>366.0</ele><time>2026-05-02T14:13:30.162Z</time></trkpt><trkpt lat="44.2449267" lon="8.4164425"><ele>366.0</ele><time>2026-05-02T14:13:31.172Z</time></trkpt><trkpt lat="44.2448677" lon="8.4165218"><ele>366.0</ele><time>2026-05-02T14:13:32.171Z</time></trkpt><trkpt lat="44.2448146" lon="8.4165945"><ele>366.0</ele><time>2026-05-02T14:13:33.166Z</time></trkpt><trkpt lat="44.2447563" lon="8.4166898"><ele>366.0</ele><time>2026-05-02T14:13:34.169Z</time></trkpt><trkpt lat="44.2447055" lon="8.4167743"><ele>366.0</ele><time>2026-05-02T14:13:35.176Z</time></trkpt><trkpt lat="44.2446715" lon="8.4168645"><ele>368.6</ele><time>2026-05-02T14:13:36.174Z</time></trkpt><trkpt lat="44.2446461" lon="8.4169763"><ele>371.20000000000005</ele><time>2026-05-02T14:13:37.177Z</time></trkpt><trkpt lat="44.2446297" lon="8.4170945"><ele>373.79999999999995</ele><time>2026-05-02T14:13:38.174Z</time></trkpt><trkpt lat="44.244626" lon="8.4172286"><ele>376.4</ele><time>2026-05-02T14:13:39.171Z</time></trkpt><trkpt lat="44.2446414" lon="8.4173612"><ele>379.0</ele><time>2026-05-02T14:13:40.178Z</time></trkpt><trkpt lat="44.2446579" lon="8.4175139"><ele>380.2</ele><time>2026-05-02T14:13:41.174Z</time></trkpt><trkpt lat="44.2446674" lon="8.4176611"><ele>381.4</ele><time>2026-05-02T14:13:42.18Z</time></trkpt><trkpt lat="44.2446806" lon="8.4177989"><ele>382.6</ele><time>2026-05-02T14:13:43.171Z</time></trkpt><trkpt lat="44.2446978" lon="8.4179204"><ele>383.8</ele><time>2026-05-02T14:13:44.174Z</time></trkpt><trkpt lat="44.2447183" lon="8.4180279"><ele>385.0</ele><time>2026-05-02T14:13:45.176Z</time></trkpt><trkpt lat="44.244701" lon="8.4181846"><ele>385.8</ele><time>2026-05-02T14:13:47.18Z</time></trkpt><trkpt lat="44.2446796" lon="8.4183094"><ele>386.6</ele><time>2026-05-02T14:13:49.166Z</time></trkpt><trkpt lat="44.244676" lon="8.4184352"><ele>387.4</ele><time>2026-05-02T14:13:51.171Z</time></trkpt><trkpt lat="44.2446853" lon="8.4185772"><ele>388.2</ele><time>2026-05-02T14:13:53.172Z</time></trkpt><trkpt lat="44.2446935" lon="8.4187512"><ele>389.0</ele><time>2026-05-02T14:13:55.169Z</time></trkpt><trkpt lat="44.2447086" lon="8.4188459"><ele>389.4</ele><time>2026-05-02T14:13:56.178Z</time></trkpt><trkpt lat="44.2447295" lon="8.4190204"><ele>389.79999999999995</ele><time>2026-05-02T14:13:58.17Z</time></trkpt><trkpt lat="44.244698" lon="8.4191903"><ele>390.20000000000005</ele><time>2026-05-02T14:14:00.177Z</time></trkpt><trkpt lat="44.2446693" lon="8.4192843"><ele>390.6</ele><time>2026-05-02T14:14:01.17Z</time></trkpt><trkpt lat="44.2446311" lon="8.4193792"><ele>391.0</ele><time>2026-05-02T14:14:02.17Z</time></trkpt><trkpt lat="44.2445964" lon="8.4194778"><ele>391.00000000000006</ele><time>2026-05-02T14:14:03.17Z</time></trkpt><trkpt lat="44.2445559" lon="8.4195687"><ele>391.0</ele><time>2026-05-02T14:14:04.169Z</time></trkpt><trkpt lat="44.2445373" lon="8.4196532"><ele>391.0</ele><time>2026-05-02T14:14:05.171Z</time></trkpt><trkpt lat="44.2445265" lon="8.4198147"><ele>391.0</ele><time>2026-05-02T14:14:07.173Z</time></trkpt><trkpt lat="44.244533" lon="8.4199072"><ele>391.00000000000006</ele><time>2026-05-02T14:14:08.173Z</time></trkpt><trkpt lat="44.2445491" lon="8.4200084"><ele>391.0</ele><time>2026-05-02T14:14:09.172Z</time></trkpt><trkpt lat="44.2445882" lon="8.4201193"><ele>390.33333333333337</ele><time>2026-05-02T14:14:10.17Z</time></trkpt><trkpt lat="44.2446317" lon="8.4202201"><ele>389.6666666666667</ele><time>2026-05-02T14:14:11.163Z</time></trkpt><trkpt lat="44.2446774" lon="8.4202955"><ele>389.0</ele><time>2026-05-02T14:14:12.166Z</time></trkpt><trkpt lat="44.2447381" lon="8.4203579"><ele>388.33333333333337</ele><time>2026-05-02T14:14:13.172Z</time></trkpt><trkpt lat="44.2448211" lon="8.4204347"><ele>387.6666666666667</ele><time>2026-05-02T14:14:14.158Z</time></trkpt><trkpt lat="44.2449052" lon="8.4205118"><ele>387.0</ele><time>2026-05-02T14:14:15.163Z</time></trkpt><trkpt lat="44.2449878" lon="8.4205921"><ele>380.40000000000003</ele><time>2026-05-02T14:14:16.161Z</time></trkpt><trkpt lat="44.2450711" lon="8.4206621"><ele>373.8</ele><time>2026-05-02T14:14:17.165Z</time></trkpt><trkpt lat="44.245163" lon="8.4207186"><ele>367.2</ele><time>2026-05-02T14:14:18.169Z</time></trkpt><trkpt lat="44.2452524" lon="8.4207738"><ele>360.6</ele><time>2026-05-02T14:14:19.166Z</time></trkpt><trkpt lat="44.2453422" lon="8.420846"><ele>354.0</ele><time>2026-05-02T14:14:20.171Z</time></trkpt><trkpt lat="44.2454163" lon="8.4209327"><ele>354.0</ele><time>2026-05-02T14:14:21.171Z</time></trkpt><trkpt lat="44.2454758" lon="8.4210257"><ele>354.0</ele><time>2026-05-02T14:14:22.171Z</time></trkpt><trkpt lat="44.2455111" lon="8.4211273"><ele>354.0</ele><time>2026-05-02T14:14:23.171Z</time></trkpt><trkpt lat="44.2455336" lon="8.4212424"><ele>354.0</ele><time>2026-05-02T14:14:24.166Z</time></trkpt><trkpt lat="44.245559" lon="8.4213686"><ele>354.0</ele><time>2026-05-02T14:14:25.171Z</time></trkpt><trkpt lat="44.2455848" lon="8.4214895"><ele>354.0</ele><time>2026-05-02T14:14:26.171Z</time></trkpt><trkpt lat="44.2456048" lon="8.4216189"><ele>354.0</ele><time>2026-05-02T14:14:27.164Z</time></trkpt><trkpt lat="44.2456131" lon="8.421758"><ele>354.0</ele><time>2026-05-02T14:14:28.168Z</time></trkpt><trkpt lat="44.2456059" lon="8.4219012"><ele>354.0</ele><time>2026-05-02T14:14:29.169Z</time></trkpt><trkpt lat="44.2455894" lon="8.42204"><ele>354.0</ele><time>2026-05-02T14:14:30.167Z</time></trkpt><trkpt lat="44.2455881" lon="8.422183"><ele>354.0</ele><time>2026-05-02T14:14:31.172Z</time></trkpt><trkpt lat="44.2455916" lon="8.4223133"><ele>354.0</ele><time>2026-05-02T14:14:32.171Z</time></trkpt><trkpt lat="44.2455848" lon="8.4224513"><ele>354.0</ele><time>2026-05-02T14:14:33.171Z</time></trkpt><trkpt lat="44.2455809" lon="8.4225915"><ele>354.0</ele><time>2026-05-02T14:14:34.165Z</time></trkpt><trkpt lat="44.2455756" lon="8.4227246"><ele>354.0</ele><time>2026-05-02T14:14:35.171Z</time></trkpt><trkpt lat="44.2455716" lon="8.4228657"><ele>354.0</ele><time>2026-05-02T14:14:36.171Z</time></trkpt><trkpt lat="44.2455946" lon="8.4229882"><ele>349.6666666666667</ele><time>2026-05-02T14:14:37.166Z</time></trkpt><trkpt lat="44.2456216" lon="8.4230979"><ele>345.3333333333333</ele><time>2026-05-02T14:14:38.174Z</time></trkpt><trkpt lat="44.2456339" lon="8.4231883"><ele>341.0</ele><time>2026-05-02T14:14:39.173Z</time></trkpt><trkpt lat="44.2456752" lon="8.4233114"><ele>336.66666666666663</ele><time>2026-05-02T14:14:41.173Z</time></trkpt><trkpt lat="44.2456066" lon="8.4233729"><ele>332.3333333333333</ele><time>2026-05-02T14:14:44.177Z</time></trkpt><trkpt lat="44.2455389" lon="8.4233825"><ele>328.0</ele><time>2026-05-02T14:14:45.175Z</time></trkpt><trkpt lat="44.2454534" lon="8.4233958"><ele>328.0</ele><time>2026-05-02T14:14:46.173Z</time></trkpt><trkpt lat="44.2453624" lon="8.4234356"><ele>328.0</ele><time>2026-05-02T14:14:47.169Z</time></trkpt><trkpt lat="44.2452632" lon="8.4234732"><ele>328.0</ele><time>2026-05-02T14:14:48.173Z</time></trkpt><trkpt lat="44.245166" lon="8.42351"><ele>328.0</ele><time>2026-05-02T14:14:49.168Z</time></trkpt><trkpt lat="44.2450748" lon="8.4235384"><ele>328.0</ele><time>2026-05-02T14:14:50.176Z</time></trkpt><trkpt lat="44.2449976" lon="8.4235782"><ele>328.0</ele><time>2026-05-02T14:14:51.173Z</time></trkpt><trkpt lat="44.2449222" lon="8.4236314"><ele>328.0</ele><time>2026-05-02T14:14:52.161Z</time></trkpt><trkpt lat="44.2448491" lon="8.4236902"><ele>328.0</ele><time>2026-05-02T14:14:53.174Z</time></trkpt><trkpt lat="44.2447844" lon="8.4237743"><ele>328.0</ele><time>2026-05-02T14:14:54.175Z</time></trkpt><trkpt lat="44.2447414" lon="8.4238724"><ele>328.0</ele><time>2026-05-02T14:14:55.169Z</time></trkpt><trkpt lat="44.244701" lon="8.4239929"><ele>328.0</ele><time>2026-05-02T14:14:56.172Z</time></trkpt><trkpt lat="44.2446643" lon="8.4241185"><ele>322.59999999999997</ele><time>2026-05-02T14:14:57.174Z</time></trkpt><trkpt lat="44.2446435" lon="8.4242453"><ele>317.2</ele><time>2026-05-02T14:14:58.172Z</time></trkpt><trkpt lat="44.2446325" lon="8.4243662"><ele>311.8</ele><time>2026-05-02T14:14:59.175Z</time></trkpt><trkpt lat="44.2446225" lon="8.4244753"><ele>306.4</ele><time>2026-05-02T14:15:00.159Z</time></trkpt><trkpt lat="44.2446106" lon="8.4245742"><ele>301.0</ele><time>2026-05-02T14:15:01.151Z</time></trkpt><trkpt lat="44.2446142" lon="8.4247541"><ele>298.66666666666663</ele><time>2026-05-02T14:15:03.16Z</time></trkpt><trkpt lat="44.2446302" lon="8.4248531"><ele>296.3333333333333</ele><time>2026-05-02T14:15:04.162Z</time></trkpt><trkpt lat="44.2446508" lon="8.4249733"><ele>294.0</ele><time>2026-05-02T14:15:05.161Z</time></trkpt><trkpt lat="44.2446751" lon="8.4250887"><ele>291.6666666666667</ele><time>2026-05-02T14:15:06.165Z</time></trkpt><trkpt lat="44.2446859" lon="8.425212"><ele>289.33333333333337</ele><time>2026-05-02T14:15:07.162Z</time></trkpt><trkpt lat="44.2446905" lon="8.4253326"><ele>287.0</ele><time>2026-05-02T14:15:08.158Z</time></trkpt><trkpt lat="44.2446927" lon="8.4254692"><ele>286.33333333333337</ele><time>2026-05-02T14:15:09.157Z</time></trkpt><trkpt lat="44.2447001" lon="8.4256083"><ele>285.6666666666667</ele><time>2026-05-02T14:15:10.161Z</time></trkpt><trkpt lat="44.2447025" lon="8.4257383"><ele>285.0</ele><time>2026-05-02T14:15:11.16Z</time></trkpt><trkpt lat="44.2447161" lon="8.4258602"><ele>284.3333333333333</ele><time>2026-05-02T14:15:12.162Z</time></trkpt><trkpt lat="44.2447369" lon="8.4259743"><ele>283.66666666666663</ele><time>2026-05-02T14:15:13.159Z</time></trkpt><trkpt lat="44.2447629" lon="8.4260778"><ele>283.0</ele><time>2026-05-02T14:15:14.165Z</time></trkpt><trkpt lat="44.2448081" lon="8.4261628"><ele>283.0</ele><time>2026-05-02T14:15:15.155Z</time></trkpt><trkpt lat="44.2448659" lon="8.4262341"><ele>283.0</ele><time>2026-05-02T14:15:16.152Z</time></trkpt><trkpt lat="44.244919" lon="8.4263111"><ele>283.0</ele><time>2026-05-02T14:15:17.155Z</time></trkpt><trkpt lat="44.244976" lon="8.4263924"><ele>283.0</ele><time>2026-05-02T14:15:18.148Z</time></trkpt><trkpt lat="44.2450258" lon="8.4264842"><ele>283.0</ele><time>2026-05-02T14:15:19.164Z</time></trkpt><trkpt lat="44.2450794" lon="8.4265769"><ele>283.0</ele><time>2026-05-02T14:15:20.166Z</time></trkpt><trkpt lat="44.2451226" lon="8.4266635"><ele>282.0</ele><time>2026-05-02T14:15:21.161Z</time></trkpt><trkpt lat="44.2451647" lon="8.4267664"><ele>281.0</ele><time>2026-05-02T14:15:22.172Z</time></trkpt><trkpt lat="44.2451954" lon="8.4268707"><ele>280.0</ele><time>2026-05-02T14:15:23.166Z</time></trkpt><trkpt lat="44.2452187" lon="8.4269816"><ele>279.0</ele><time>2026-05-02T14:15:24.166Z</time></trkpt><trkpt lat="44.2452416" lon="8.4270907"><ele>278.0</ele><time>2026-05-02T14:15:25.177Z</time></trkpt><trkpt lat="44.2452752" lon="8.4271904"><ele>277.0</ele><time>2026-05-02T14:15:26.166Z</time></trkpt><trkpt lat="44.2453104" lon="8.427275"><ele>275.85714285714283</ele><time>2026-05-02T14:15:27.164Z</time></trkpt><trkpt lat="44.2453582" lon="8.4273459"><ele>274.71428571428567</ele><time>2026-05-02T14:15:28.165Z</time></trkpt><trkpt lat="44.2454148" lon="8.4274134"><ele>273.57142857142856</ele><time>2026-05-02T14:15:29.163Z</time></trkpt><trkpt lat="44.2454737" lon="8.4274732"><ele>272.42857142857144</ele><time>2026-05-02T14:15:30.166Z</time></trkpt><trkpt lat="44.2455364" lon="8.4275229"><ele>271.28571428571433</ele><time>2026-05-02T14:15:31.165Z</time></trkpt><trkpt lat="44.2456017" lon="8.4275596"><ele>270.14285714285717</ele><time>2026-05-02T14:15:32.174Z</time></trkpt><trkpt lat="44.2456757" lon="8.4275774"><ele>269.0</ele><time>2026-05-02T14:15:33.156Z</time></trkpt><trkpt lat="44.2457677" lon="8.4276028"><ele>268.5</ele><time>2026-05-02T14:15:34.162Z</time></trkpt><trkpt lat="44.2458646" lon="8.4276482"><ele>268.0</ele><time>2026-05-02T14:15:35.162Z</time></trkpt><trkpt lat="44.2459551" lon="8.427697"><ele>267.5</ele><time>2026-05-02T14:15:36.16Z</time></trkpt><trkpt lat="44.2460234" lon="8.4277561"><ele>267.0</ele><time>2026-05-02T14:15:37.172Z</time></trkpt><trkpt lat="44.2460823" lon="8.4278185"><ele>266.5</ele><time>2026-05-02T14:15:38.163Z</time></trkpt><trkpt lat="44.246135" lon="8.4279031"><ele>266.0</ele><time>2026-05-02T14:15:39.163Z</time></trkpt><trkpt lat="44.2461731" lon="8.4279891"><ele>265.0</ele><time>2026-05-02T14:15:40.168Z</time></trkpt><trkpt lat="44.2462143" lon="8.428088"><ele>264.0</ele><time>2026-05-02T14:15:41.163Z</time></trkpt><trkpt lat="44.2462347" lon="8.4281874"><ele>263.0</ele><time>2026-05-02T14:15:42.157Z</time></trkpt><trkpt lat="44.2462489" lon="8.4282737"><ele>262.0</ele><time>2026-05-02T14:15:43.163Z</time></trkpt><trkpt lat="44.2462482" lon="8.4284058"><ele>261.0</ele><time>2026-05-02T14:15:45.163Z</time></trkpt><trkpt lat="44.2461807" lon="8.4285126"><ele>260.0</ele><time>2026-05-02T14:15:47.156Z</time></trkpt><trkpt lat="44.2460964" lon="8.4286194"><ele>260.0</ele><time>2026-05-02T14:15:49.154Z</time></trkpt><trkpt lat="44.2460564" lon="8.4286926"><ele>260.0</ele><time>2026-05-02T14:15:50.163Z</time></trkpt><trkpt lat="44.2460312" lon="8.4287852"><ele>260.0</ele><time>2026-05-02T14:15:52.163Z</time></trkpt><trkpt lat="44.2461115" lon="8.4288418"><ele>260.0</ele><time>2026-05-02T14:15:55.155Z</time></trkpt><trkpt lat="44.2462323" lon="8.4288302"><ele>260.0</ele><time>2026-05-02T14:15:57.16Z</time></trkpt><trkpt lat="44.2463015" lon="8.4288245"><ele>260.0</ele><time>2026-05-02T14:15:58.155Z</time></trkpt><trkpt lat="44.2464048" lon="8.4288562"><ele>259.4</ele><time>2026-05-02T14:16:00.154Z</time></trkpt><trkpt lat="44.2464826" lon="8.4288732"><ele>258.8</ele><time>2026-05-02T14:16:02.158Z</time></trkpt><trkpt lat="44.2465564" lon="8.4287853"><ele>258.2</ele><time>2026-05-02T14:16:18.156Z</time></trkpt><trkpt lat="44.2466737" lon="8.4287443"><ele>257.6</ele><time>2026-05-02T14:16:20.154Z</time></trkpt><trkpt lat="44.2467493" lon="8.4287393"><ele>257.0</ele><time>2026-05-02T14:16:21.16Z</time></trkpt><trkpt lat="44.2468381" lon="8.4287267"><ele>255.6</ele><time>2026-05-02T14:16:22.15Z</time></trkpt><trkpt lat="44.2469232" lon="8.4287199"><ele>254.2</ele><time>2026-05-02T14:16:23.16Z</time></trkpt><trkpt lat="44.2470268" lon="8.4287337"><ele>252.8</ele><time>2026-05-02T14:16:24.148Z</time></trkpt><trkpt lat="44.2471337" lon="8.4287637"><ele>251.4</ele><time>2026-05-02T14:16:25.158Z</time></trkpt><trkpt lat="44.2472588" lon="8.4287977"><ele>250.0</ele><time>2026-05-02T14:16:26.164Z</time></trkpt><trkpt lat="44.2473789" lon="8.4288327"><ele>250.0</ele><time>2026-05-02T14:16:27.168Z</time></trkpt><trkpt lat="44.2474898" lon="8.428874"><ele>250.0</ele><time>2026-05-02T14:16:28.159Z</time></trkpt><trkpt lat="44.247592" lon="8.4289161"><ele>250.0</ele><time>2026-05-02T14:16:29.164Z</time></trkpt><trkpt lat="44.2476948" lon="8.4289767"><ele>250.0</ele><time>2026-05-02T14:16:30.163Z</time></trkpt><trkpt lat="44.2477956" lon="8.4290555"><ele>250.0</ele><time>2026-05-02T14:16:31.162Z</time></trkpt><trkpt lat="44.247891" lon="8.4291533"><ele>250.0</ele><time>2026-05-02T14:16:32.164Z</time></trkpt><trkpt lat="44.2479774" lon="8.4292669"><ele>250.0</ele><time>2026-05-02T14:16:33.172Z</time></trkpt><trkpt lat="44.2480468" lon="8.4293916"><ele>250.0</ele><time>2026-05-02T14:16:34.168Z</time></trkpt><trkpt lat="44.248133" lon="8.4295094"><ele>250.0</ele><time>2026-05-02T14:16:35.158Z</time></trkpt><trkpt lat="44.2482208" lon="8.4295978"><ele>251.2</ele><time>2026-05-02T14:16:36.159Z</time></trkpt><trkpt lat="44.2483224" lon="8.4296629"><ele>252.4</ele><time>2026-05-02T14:16:37.154Z</time></trkpt><trkpt lat="44.248419" lon="8.4297242"><ele>253.60000000000002</ele><time>2026-05-02T14:16:38.166Z</time></trkpt><trkpt lat="44.2485194" lon="8.4297601"><ele>254.8</ele><time>2026-05-02T14:16:39.158Z</time></trkpt><trkpt lat="44.2486265" lon="8.4297819"><ele>256.0</ele><time>2026-05-02T14:16:40.159Z</time></trkpt><trkpt lat="44.2487484" lon="8.4297912"><ele>256.0</ele><time>2026-05-02T14:16:41.149Z</time></trkpt><trkpt lat="44.2488627" lon="8.4298004"><ele>256.0</ele><time>2026-05-02T14:16:42.156Z</time></trkpt><trkpt lat="44.2489706" lon="8.4298041"><ele>256.0</ele><time>2026-05-02T14:16:43.151Z</time></trkpt><trkpt lat="44.2490734" lon="8.4297989"><ele>256.0</ele><time>2026-05-02T14:16:44.167Z</time></trkpt><trkpt lat="44.2491922" lon="8.4298036"><ele>256.0</ele><time>2026-05-02T14:16:45.157Z</time></trkpt><trkpt lat="44.2493055" lon="8.4298273"><ele>254.20000000000002</ele><time>2026-05-02T14:16:46.158Z</time></trkpt><trkpt lat="44.2494172" lon="8.4298392"><ele>252.40000000000003</ele><time>2026-05-02T14:16:47.165Z</time></trkpt><trkpt lat="44.2495286" lon="8.4298396"><ele>250.6</ele><time>2026-05-02T14:16:48.171Z</time></trkpt><trkpt lat="44.2496367" lon="8.4298388"><ele>248.8</ele><time>2026-05-02T14:16:49.163Z</time></trkpt><trkpt lat="44.2497477" lon="8.4298682"><ele>247.0</ele><time>2026-05-02T14:16:50.16Z</time></trkpt><trkpt lat="44.2498599" lon="8.4298966"><ele>243.5</ele><time>2026-05-02T14:16:51.165Z</time></trkpt><trkpt lat="44.2499665" lon="8.4299482"><ele>240.0</ele><time>2026-05-02T14:16:52.161Z</time></trkpt><trkpt lat="44.2500776" lon="8.430038"><ele>236.5</ele><time>2026-05-02T14:16:53.156Z</time></trkpt><trkpt lat="44.2501797" lon="8.4301485"><ele>233.0</ele><time>2026-05-02T14:16:54.163Z</time></trkpt><trkpt lat="44.2502822" lon="8.4302741"><ele>233.0</ele><time>2026-05-02T14:16:55.152Z</time></trkpt><trkpt lat="44.2503754" lon="8.4304033"><ele>233.0</ele><time>2026-05-02T14:16:56.159Z</time></trkpt><trkpt lat="44.2504635" lon="8.430526"><ele>233.0</ele><time>2026-05-02T14:16:57.156Z</time></trkpt><trkpt lat="44.2505196" lon="8.4306456"><ele>233.0</ele><time>2026-05-02T14:16:58.149Z</time></trkpt><trkpt lat="44.2505915" lon="8.4307612"><ele>232.0</ele><time>2026-05-02T14:16:59.148Z</time></trkpt><trkpt lat="44.2506607" lon="8.4308761"><ele>231.0</ele><time>2026-05-02T14:17:00.152Z</time></trkpt><trkpt lat="44.2507331" lon="8.4309891"><ele>230.0</ele><time>2026-05-02T14:17:01.148Z</time></trkpt><trkpt lat="44.2507899" lon="8.4311026"><ele>229.0</ele><time>2026-05-02T14:17:02.15Z</time></trkpt><trkpt lat="44.2508291" lon="8.4312148"><ele>228.0</ele><time>2026-05-02T14:17:03.161Z</time></trkpt><trkpt lat="44.2508497" lon="8.4313304"><ele>228.0</ele><time>2026-05-02T14:17:04.157Z</time></trkpt><trkpt lat="44.2508616" lon="8.4314436"><ele>228.0</ele><time>2026-05-02T14:17:05.157Z</time></trkpt><trkpt lat="44.2508708" lon="8.4315503"><ele>228.0</ele><time>2026-05-02T14:17:06.161Z</time></trkpt><trkpt lat="44.2508774" lon="8.4316552"><ele>228.0</ele><time>2026-05-02T14:17:07.159Z</time></trkpt><trkpt lat="44.25087" lon="8.4317592"><ele>228.0</ele><time>2026-05-02T14:17:08.158Z</time></trkpt><trkpt lat="44.2508684" lon="8.4318615"><ele>228.0</ele><time>2026-05-02T14:17:09.156Z</time></trkpt><trkpt lat="44.250886" lon="8.4319593"><ele>228.0</ele><time>2026-05-02T14:17:10.158Z</time></trkpt><trkpt lat="44.2508927" lon="8.4320671"><ele>228.0</ele><time>2026-05-02T14:17:11.155Z</time></trkpt><trkpt lat="44.250904" lon="8.4321806"><ele>228.0</ele><time>2026-05-02T14:17:12.153Z</time></trkpt><trkpt lat="44.2508991" lon="8.4323056"><ele>228.0</ele><time>2026-05-02T14:17:13.159Z</time></trkpt><trkpt lat="44.2509038" lon="8.4324302"><ele>228.0</ele><time>2026-05-02T14:17:14.154Z</time></trkpt><trkpt lat="44.2509339" lon="8.4325409"><ele>228.0</ele><time>2026-05-02T14:17:15.157Z</time></trkpt><trkpt lat="44.2509724" lon="8.4326489"><ele>230.2</ele><time>2026-05-02T14:17:16.153Z</time></trkpt><trkpt lat="44.2509763" lon="8.4327664"><ele>232.4</ele><time>2026-05-02T14:17:17.157Z</time></trkpt><trkpt lat="44.2509684" lon="8.4328868"><ele>234.59999999999997</ele><time>2026-05-02T14:17:18.158Z</time></trkpt><trkpt lat="44.2509614" lon="8.4330193"><ele>236.79999999999998</ele><time>2026-05-02T14:17:19.15Z</time></trkpt><trkpt lat="44.2509391" lon="8.4331481"><ele>239.0</ele><time>2026-05-02T14:17:20.159Z</time></trkpt><trkpt lat="44.2508986" lon="8.4332879"><ele>240.39999999999998</ele><time>2026-05-02T14:17:21.152Z</time></trkpt><trkpt lat="44.2508872" lon="8.4334326"><ele>241.79999999999998</ele><time>2026-05-02T14:17:22.151Z</time></trkpt><trkpt lat="44.2509029" lon="8.4335748"><ele>243.20000000000002</ele><time>2026-05-02T14:17:23.158Z</time></trkpt><trkpt lat="44.2509444" lon="8.4337116"><ele>244.60000000000002</ele><time>2026-05-02T14:17:24.145Z</time></trkpt><trkpt lat="44.2509706" lon="8.4338225"><ele>246.0</ele><time>2026-05-02T14:17:25.156Z</time></trkpt><trkpt lat="44.250977" lon="8.4339113"><ele>249.20000000000002</ele><time>2026-05-02T14:17:26.155Z</time></trkpt><trkpt lat="44.2511137" lon="8.434003"><ele>252.40000000000003</ele><time>2026-05-02T14:17:28.147Z</time></trkpt><trkpt lat="44.2511933" lon="8.4340484"><ele>255.6</ele><time>2026-05-02T14:17:29.151Z</time></trkpt><trkpt lat="44.251271" lon="8.4341198"><ele>258.8</ele><time>2026-05-02T14:17:30.152Z</time></trkpt><trkpt lat="44.2513283" lon="8.4341972"><ele>262.0</ele><time>2026-05-02T14:17:31.153Z</time></trkpt><trkpt lat="44.2513931" lon="8.4342889"><ele>262.0</ele><time>2026-05-02T14:17:32.147Z</time></trkpt><trkpt lat="44.2514294" lon="8.4344"><ele>262.0</ele><time>2026-05-02T14:17:33.156Z</time></trkpt><trkpt lat="44.2514302" lon="8.4345295"><ele>262.0</ele><time>2026-05-02T14:17:34.16Z</time></trkpt><trkpt lat="44.2514202" lon="8.4346934"><ele>262.0</ele><time>2026-05-02T14:17:35.16Z</time></trkpt><trkpt lat="44.2514006" lon="8.4348603"><ele>262.0</ele><time>2026-05-02T14:17:36.148Z</time></trkpt><trkpt lat="44.2513891" lon="8.4350267"><ele>266.25</ele><time>2026-05-02T14:17:37.152Z</time></trkpt><trkpt lat="44.2513682" lon="8.4351964"><ele>270.5</ele><time>2026-05-02T14:17:38.15Z</time></trkpt><trkpt lat="44.2513515" lon="8.4353827"><ele>274.75</ele><time>2026-05-02T14:17:39.154Z</time></trkpt><trkpt lat="44.2513357" lon="8.4355605"><ele>279.0</ele><time>2026-05-02T14:17:40.157Z</time></trkpt><trkpt lat="44.2513505" lon="8.435738"><ele>279.4</ele><time>2026-05-02T14:17:41.158Z</time></trkpt><trkpt lat="44.2513498" lon="8.4359073"><ele>279.79999999999995</ele><time>2026-05-02T14:17:42.165Z</time></trkpt><trkpt lat="44.2513423" lon="8.4360567"><ele>280.20000000000005</ele><time>2026-05-02T14:17:43.162Z</time></trkpt><trkpt lat="44.2513243" lon="8.4361926"><ele>280.6</ele><time>2026-05-02T14:17:44.162Z</time></trkpt><trkpt lat="44.2513055" lon="8.4363156"><ele>281.0</ele><time>2026-05-02T14:17:45.157Z</time></trkpt><trkpt lat="44.2512807" lon="8.4364315"><ele>281.0</ele><time>2026-05-02T14:17:46.158Z</time></trkpt><trkpt lat="44.2512601" lon="8.4365595"><ele>281.0</ele><time>2026-05-02T14:17:47.154Z</time></trkpt><trkpt lat="44.2512523" lon="8.4366839"><ele>281.0</ele><time>2026-05-02T14:17:48.153Z</time></trkpt><trkpt lat="44.2512488" lon="8.4368032"><ele>281.0</ele><time>2026-05-02T14:17:49.146Z</time></trkpt><trkpt lat="44.2512414" lon="8.4369099"><ele>281.0</ele><time>2026-05-02T14:17:50.158Z</time></trkpt><trkpt lat="44.251258" lon="8.4370732"><ele>280.0</ele><time>2026-05-02T14:17:52.155Z</time></trkpt><trkpt lat="44.251369" lon="8.4371978"><ele>279.0</ele><time>2026-05-02T14:17:54.15Z</time></trkpt><trkpt lat="44.2514782" lon="8.4372186"><ele>278.0</ele><time>2026-05-02T14:17:55.147Z</time></trkpt><trkpt lat="44.2516021" lon="8.4372174"><ele>277.0</ele><time>2026-05-02T14:17:56.148Z</time></trkpt><trkpt lat="44.2517629" lon="8.4371968"><ele>277.0</ele><time>2026-05-02T14:17:57.151Z</time></trkpt><trkpt lat="44.2518939" lon="8.4372175"><ele>277.0</ele><time>2026-05-02T14:17:58.153Z</time></trkpt><trkpt lat="44.2520297" lon="8.437254"><ele>277.0</ele><time>2026-05-02T14:17:59.155Z</time></trkpt><trkpt lat="44.2521662" lon="8.4372935"><ele>277.0</ele><time>2026-05-02T14:18:00.152Z</time></trkpt><trkpt lat="44.2522951" lon="8.4373427"><ele>273.25</ele><time>2026-05-02T14:18:01.148Z</time></trkpt><trkpt lat="44.2524291" lon="8.4373897"><ele>269.5</ele><time>2026-05-02T14:18:02.15Z</time></trkpt><trkpt lat="44.2525294" lon="8.4374139"><ele>265.75</ele><time>2026-05-02T14:18:03.153Z</time></trkpt><trkpt lat="44.2526806" lon="8.4374049"><ele>262.0</ele><time>2026-05-02T14:18:04.156Z</time></trkpt><trkpt lat="44.2528258" lon="8.4373491"><ele>262.0</ele><time>2026-05-02T14:18:05.153Z</time></trkpt><trkpt lat="44.2529668" lon="8.4372555"><ele>262.0</ele><time>2026-05-02T14:18:06.157Z</time></trkpt><trkpt lat="44.2531093" lon="8.4371579"><ele>262.0</ele><time>2026-05-02T14:18:07.151Z</time></trkpt><trkpt lat="44.2532426" lon="8.4370396"><ele>255.25</ele><time>2026-05-02T14:18:08.157Z</time></trkpt><trkpt lat="44.2533656" lon="8.4368975"><ele>248.5</ele><time>2026-05-02T14:18:09.159Z</time></trkpt><trkpt lat="44.2534711" lon="8.436746"><ele>241.75</ele><time>2026-05-02T14:18:10.156Z</time></trkpt><trkpt lat="44.2535565" lon="8.4366076"><ele>235.0</ele><time>2026-05-02T14:18:11.164Z</time></trkpt><trkpt lat="44.2536318" lon="8.436507"><ele>235.0</ele><time>2026-05-02T14:18:12.169Z</time></trkpt><trkpt lat="44.2537196" lon="8.4364924"><ele>235.0</ele><time>2026-05-02T14:18:13.173Z</time></trkpt><trkpt lat="44.2538177" lon="8.4365142"><ele>235.0</ele><time>2026-05-02T14:18:14.165Z</time></trkpt><trkpt lat="44.2539211" lon="8.4365556"><ele>235.0</ele><time>2026-05-02T14:18:15.168Z</time></trkpt><trkpt lat="44.2540295" lon="8.4366041"><ele>235.0</ele><time>2026-05-02T14:18:16.157Z</time></trkpt><trkpt lat="44.254137" lon="8.4366514"><ele>232.8</ele><time>2026-05-02T14:18:17.165Z</time></trkpt><trkpt lat="44.2542346" lon="8.4367066"><ele>230.6</ele><time>2026-05-02T14:18:18.159Z</time></trkpt><trkpt lat="44.2543239" lon="8.4367723"><ele>228.39999999999998</ele><time>2026-05-02T14:18:19.159Z</time></trkpt><trkpt lat="44.2544072" lon="8.4368441"><ele>226.2</ele><time>2026-05-02T14:18:20.163Z</time></trkpt><trkpt lat="44.2544484" lon="8.4369341"><ele>224.0</ele><time>2026-05-02T14:18:21.182Z</time></trkpt><trkpt lat="44.2544456" lon="8.4370512"><ele>224.2</ele><time>2026-05-02T14:18:22.175Z</time></trkpt><trkpt lat="44.2544285" lon="8.4371848"><ele>224.39999999999998</ele><time>2026-05-02T14:18:23.155Z</time></trkpt><trkpt lat="44.2544131" lon="8.4373175"><ele>224.6</ele><time>2026-05-02T14:18:24.172Z</time></trkpt><trkpt lat="44.2543922" lon="8.437471"><ele>224.8</ele><time>2026-05-02T14:18:25.18Z</time></trkpt><trkpt lat="44.254355" lon="8.4376395"><ele>225.0</ele><time>2026-05-02T14:18:26.158Z</time></trkpt><trkpt lat="44.2543156" lon="8.4378139"><ele>224.0</ele><time>2026-05-02T14:18:27.157Z</time></trkpt><trkpt lat="44.2542891" lon="8.4379908"><ele>223.0</ele><time>2026-05-02T14:18:28.165Z</time></trkpt><trkpt lat="44.2542643" lon="8.4381673"><ele>222.0</ele><time>2026-05-02T14:18:29.169Z</time></trkpt><trkpt lat="44.2542517" lon="8.4383137"><ele>221.0</ele><time>2026-05-02T14:18:30.171Z</time></trkpt><trkpt lat="44.254269" lon="8.4384463"><ele>221.00000000000003</ele><time>2026-05-02T14:18:31.162Z</time></trkpt><trkpt lat="44.2542891" lon="8.4385739"><ele>221.0</ele><time>2026-05-02T14:18:32.166Z</time></trkpt><trkpt lat="44.2543162" lon="8.4386913"><ele>221.0</ele><time>2026-05-02T14:18:33.195Z</time></trkpt><trkpt lat="44.2543295" lon="8.4388088"><ele>221.0</ele><time>2026-05-02T14:18:34.166Z</time></trkpt><trkpt lat="44.2543385" lon="8.4389245"><ele>221.00000000000003</ele><time>2026-05-02T14:18:35.166Z</time></trkpt><trkpt lat="44.2543371" lon="8.4390334"><ele>221.0</ele><time>2026-05-02T14:18:36.159Z</time></trkpt><trkpt lat="44.2543116" lon="8.4391342"><ele>221.20000000000002</ele><time>2026-05-02T14:18:37.157Z</time></trkpt><trkpt lat="44.2543064" lon="8.4392405"><ele>221.40000000000003</ele><time>2026-05-02T14:18:38.148Z</time></trkpt><trkpt lat="44.2542983" lon="8.4393297"><ele>221.6</ele><time>2026-05-02T14:18:39.151Z</time></trkpt><trkpt lat="44.2542961" lon="8.4394664"><ele>221.8</ele><time>2026-05-02T14:18:41.158Z</time></trkpt><trkpt lat="44.2544424" lon="8.4395091"><ele>222.0</ele><time>2026-05-02T14:18:43.16Z</time></trkpt><trkpt lat="44.2545394" lon="8.4395467"><ele>222.0</ele><time>2026-05-02T14:18:44.161Z</time></trkpt><trkpt lat="44.2546446" lon="8.4396099"><ele>222.0</ele><time>2026-05-02T14:18:45.161Z</time></trkpt><trkpt lat="44.2547143" lon="8.4397238"><ele>222.0</ele><time>2026-05-02T14:18:46.161Z</time></trkpt><trkpt lat="44.2547545" lon="8.4398514"><ele>222.0</ele><time>2026-05-02T14:18:47.158Z</time></trkpt><trkpt lat="44.2547971" lon="8.4399868"><ele>222.0</ele><time>2026-05-02T14:18:48.159Z</time></trkpt><trkpt lat="44.2548516" lon="8.4401268"><ele>218.0</ele><time>2026-05-02T14:18:49.161Z</time></trkpt><trkpt lat="44.25489" lon="8.4402681"><ele>214.0</ele><time>2026-05-02T14:18:50.159Z</time></trkpt><trkpt lat="44.254935" lon="8.4404053"><ele>210.0</ele><time>2026-05-02T14:18:51.156Z</time></trkpt><trkpt lat="44.2549443" lon="8.4405388"><ele>206.0</ele><time>2026-05-02T14:18:52.164Z</time></trkpt><trkpt lat="44.2549371" lon="8.44067"><ele>202.0</ele><time>2026-05-02T14:18:53.152Z</time></trkpt><trkpt lat="44.2549178" lon="8.4407917"><ele>202.0</ele><time>2026-05-02T14:18:54.155Z</time></trkpt><trkpt lat="44.254912" lon="8.4408945"><ele>202.0</ele><time>2026-05-02T14:18:55.148Z</time></trkpt><trkpt lat="44.2549479" lon="8.4409936"><ele>202.0</ele><time>2026-05-02T14:18:56.144Z</time></trkpt><trkpt lat="44.25495" lon="8.4410859"><ele>202.0</ele><time>2026-05-02T14:18:57.163Z</time></trkpt><trkpt lat="44.254924" lon="8.4411804"><ele>202.0</ele><time>2026-05-02T14:18:58.159Z</time></trkpt><trkpt lat="44.2548834" lon="8.4412583"><ele>202.0</ele><time>2026-05-02T14:18:59.154Z</time></trkpt><trkpt lat="44.2548243" lon="8.4413355"><ele>202.0</ele><time>2026-05-02T14:19:00.158Z</time></trkpt><trkpt lat="44.2547534" lon="8.4414105"><ele>205.0</ele><time>2026-05-02T14:19:01.158Z</time></trkpt><trkpt lat="44.2546812" lon="8.4414867"><ele>208.0</ele><time>2026-05-02T14:19:02.154Z</time></trkpt><trkpt lat="44.2545883" lon="8.4415749"><ele>211.0</ele><time>2026-05-02T14:19:03.152Z</time></trkpt><trkpt lat="44.2544867" lon="8.4416771"><ele>214.0</ele><time>2026-05-02T14:19:04.153Z</time></trkpt><trkpt lat="44.25439" lon="8.4417932"><ele>214.0</ele><time>2026-05-02T14:19:05.16Z</time></trkpt><trkpt lat="44.2542955" lon="8.4419185"><ele>214.0</ele><time>2026-05-02T14:19:06.162Z</time></trkpt><trkpt lat="44.2542101" lon="8.4420388"><ele>214.0</ele><time>2026-05-02T14:19:07.154Z</time></trkpt><trkpt lat="44.2540986" lon="8.4421816"><ele>214.0</ele><time>2026-05-02T14:19:08.161Z</time></trkpt><trkpt lat="44.253991" lon="8.4422925"><ele>217.75</ele><time>2026-05-02T14:19:09.155Z</time></trkpt><trkpt lat="44.2538853" lon="8.4424055"><ele>221.5</ele><time>2026-05-02T14:19:10.155Z</time></trkpt><trkpt lat="44.2537826" lon="8.442514"><ele>225.25</ele><time>2026-05-02T14:19:11.153Z</time></trkpt><trkpt lat="44.2536966" lon="8.4426128"><ele>229.0</ele><time>2026-05-02T14:19:12.155Z</time></trkpt><trkpt lat="44.2536257" lon="8.4427093"><ele>228.99999999999997</ele><time>2026-05-02T14:19:13.159Z</time></trkpt><trkpt lat="44.2535532" lon="8.4428123"><ele>229.0</ele><time>2026-05-02T14:19:14.146Z</time></trkpt><trkpt lat="44.2534872" lon="8.4429014"><ele>229.0</ele><time>2026-05-02T14:19:15.161Z</time></trkpt><trkpt lat="44.2534139" lon="8.4429847"><ele>229.0</ele><time>2026-05-02T14:19:16.161Z</time></trkpt><trkpt lat="44.2533488" lon="8.4430351"><ele>228.99999999999997</ele><time>2026-05-02T14:19:17.17Z</time></trkpt><trkpt lat="44.2532866" lon="8.4430624"><ele>229.0</ele><time>2026-05-02T14:19:18.163Z</time></trkpt><trkpt lat="44.2532183" lon="8.4430814"><ele>226.6</ele><time>2026-05-02T14:19:19.165Z</time></trkpt><trkpt lat="44.2531532" lon="8.4430567"><ele>224.2</ele><time>2026-05-02T14:19:20.17Z</time></trkpt><trkpt lat="44.2530948" lon="8.4429928"><ele>221.79999999999998</ele><time>2026-05-02T14:19:21.172Z</time></trkpt><trkpt lat="44.2530386" lon="8.4428802"><ele>219.39999999999998</ele><time>2026-05-02T14:19:22.166Z</time></trkpt><trkpt lat="44.252944" lon="8.4427677"><ele>217.0</ele><time>2026-05-02T14:19:23.157Z</time></trkpt><trkpt lat="44.2528431" lon="8.4426452"><ele>216.25</ele><time>2026-05-02T14:19:24.157Z</time></trkpt><trkpt lat="44.2527316" lon="8.4425234"><ele>215.5</ele><time>2026-05-02T14:19:25.145Z</time></trkpt><trkpt lat="44.252614" lon="8.4423988"><ele>214.75</ele><time>2026-05-02T14:19:26.158Z</time></trkpt><trkpt lat="44.2524911" lon="8.4422694"><ele>214.0</ele><time>2026-05-02T14:19:27.158Z</time></trkpt><trkpt lat="44.252369" lon="8.4421389"><ele>218.25</ele><time>2026-05-02T14:19:28.169Z</time></trkpt><trkpt lat="44.2522676" lon="8.4419934"><ele>222.5</ele><time>2026-05-02T14:19:29.162Z</time></trkpt><trkpt lat="44.2521706" lon="8.4418597"><ele>226.75</ele><time>2026-05-02T14:19:30.158Z</time></trkpt><trkpt lat="44.2520709" lon="8.4417392"><ele>231.0</ele><time>2026-05-02T14:19:31.16Z</time></trkpt><trkpt lat="44.2519622" lon="8.441656"><ele>231.0</ele><time>2026-05-02T14:19:32.161Z</time></trkpt><trkpt lat="44.2518608" lon="8.4415863"><ele>231.00000000000003</ele><time>2026-05-02T14:19:33.165Z</time></trkpt><trkpt lat="44.2517613" lon="8.4415271"><ele>231.00000000000003</ele><time>2026-05-02T14:19:34.162Z</time></trkpt><trkpt lat="44.251657" lon="8.4415017"><ele>231.0</ele><time>2026-05-02T14:19:35.156Z</time></trkpt><trkpt lat="44.251551" lon="8.441466"><ele>231.0</ele><time>2026-05-02T14:19:36.162Z</time></trkpt><trkpt lat="44.2514414" lon="8.4414359"><ele>229.75</ele><time>2026-05-02T14:19:37.147Z</time></trkpt><trkpt lat="44.2513268" lon="8.4414073"><ele>228.5</ele><time>2026-05-02T14:19:38.154Z</time></trkpt><trkpt lat="44.2511999" lon="8.4414236"><ele>227.25</ele><time>2026-05-02T14:19:39.155Z</time></trkpt><trkpt lat="44.2510812" lon="8.4414633"><ele>226.0</ele><time>2026-05-02T14:19:40.162Z</time></trkpt><trkpt lat="44.2509885" lon="8.441508"><ele>225.99999999999997</ele><time>2026-05-02T14:19:41.158Z</time></trkpt><trkpt lat="44.2508993" lon="8.4415303"><ele>226.0</ele><time>2026-05-02T14:19:42.154Z</time></trkpt><trkpt lat="44.2508109" lon="8.4415572"><ele>226.0</ele><time>2026-05-02T14:19:43.156Z</time></trkpt><trkpt lat="44.2507316" lon="8.4415719"><ele>226.0</ele><time>2026-05-02T14:19:44.158Z</time></trkpt><trkpt lat="44.2506477" lon="8.4415578"><ele>225.99999999999997</ele><time>2026-05-02T14:19:45.144Z</time></trkpt><trkpt lat="44.2505711" lon="8.4415415"><ele>226.0</ele><time>2026-05-02T14:19:46.151Z</time></trkpt><trkpt lat="44.2504989" lon="8.4415194"><ele>224.14285714285714</ele><time>2026-05-02T14:19:47.154Z</time></trkpt><trkpt lat="44.2504436" lon="8.4414748"><ele>222.28571428571428</ele><time>2026-05-02T14:19:48.157Z</time></trkpt><trkpt lat="44.2503931" lon="8.4414141"><ele>220.42857142857142</ele><time>2026-05-02T14:19:49.156Z</time></trkpt><trkpt lat="44.2503434" lon="8.4413467"><ele>218.57142857142856</ele><time>2026-05-02T14:19:50.16Z</time></trkpt><trkpt lat="44.2503001" lon="8.4412688"><ele>216.71428571428572</ele><time>2026-05-02T14:19:51.159Z</time></trkpt><trkpt lat="44.2502462" lon="8.4411849"><ele>214.85714285714283</ele><time>2026-05-02T14:19:52.156Z</time></trkpt><trkpt lat="44.2501697" lon="8.4410996"><ele>213.0</ele><time>2026-05-02T14:19:53.158Z</time></trkpt><trkpt lat="44.250083" lon="8.4410053"><ele>213.0</ele><time>2026-05-02T14:19:54.156Z</time></trkpt><trkpt lat="44.2499996" lon="8.4409181"><ele>213.0</ele><time>2026-05-02T14:19:55.153Z</time></trkpt><trkpt lat="44.2499062" lon="8.4408211"><ele>213.0</ele><time>2026-05-02T14:19:56.156Z</time></trkpt><trkpt lat="44.2498071" lon="8.4406945"><ele>213.0</ele><time>2026-05-02T14:19:57.158Z</time></trkpt><trkpt lat="44.2497061" lon="8.440555"><ele>207.0</ele><time>2026-05-02T14:19:58.158Z</time></trkpt><trkpt lat="44.2496234" lon="8.4404213"><ele>201.0</ele><time>2026-05-02T14:19:59.155Z</time></trkpt><trkpt lat="44.2495209" lon="8.4402939"><ele>195.0</ele><time>2026-05-02T14:20:00.158Z</time></trkpt><trkpt lat="44.2494223" lon="8.440187"><ele>189.0</ele><time>2026-05-02T14:20:01.151Z</time></trkpt><trkpt lat="44.2493043" lon="8.4400778"><ele>189.0</ele><time>2026-05-02T14:20:02.151Z</time></trkpt><trkpt lat="44.2491916" lon="8.4399703"><ele>189.0</ele><time>2026-05-02T14:20:03.153Z</time></trkpt><trkpt lat="44.2490864" lon="8.43985"><ele>189.0</ele><time>2026-05-02T14:20:04.159Z</time></trkpt><trkpt lat="44.2489798" lon="8.4397487"><ele>189.0</ele><time>2026-05-02T14:20:05.155Z</time></trkpt><trkpt lat="44.2488743" lon="8.43965"><ele>187.39999999999998</ele><time>2026-05-02T14:20:06.151Z</time></trkpt><trkpt lat="44.2487692" lon="8.4395543"><ele>185.8</ele><time>2026-05-02T14:20:07.155Z</time></trkpt><trkpt lat="44.2486652" lon="8.4394902"><ele>184.2</ele><time>2026-05-02T14:20:08.154Z</time></trkpt><trkpt lat="44.2485855" lon="8.4394314"><ele>182.60000000000002</ele><time>2026-05-02T14:20:09.154Z</time></trkpt><trkpt lat="44.2485131" lon="8.4393895"><ele>181.0</ele><time>2026-05-02T14:20:10.157Z</time></trkpt><trkpt lat="44.2484376" lon="8.4394419"><ele>181.0</ele><time>2026-05-02T14:20:12.154Z</time></trkpt><trkpt lat="44.2484039" lon="8.4395319"><ele>181.0</ele><time>2026-05-02T14:20:14.144Z</time></trkpt><trkpt lat="44.2484203" lon="8.4396494"><ele>181.0</ele><time>2026-05-02T14:20:20.158Z</time></trkpt><trkpt lat="44.2484309" lon="8.4398178"><ele>181.0</ele><time>2026-05-02T14:20:22.162Z</time></trkpt><trkpt lat="44.2484387" lon="8.4399136"><ele>181.0</ele><time>2026-05-02T14:20:23.165Z</time></trkpt><trkpt lat="44.2484606" lon="8.4400955"><ele>179.33333333333334</ele><time>2026-05-02T14:20:25.157Z</time></trkpt><trkpt lat="44.2484878" lon="8.4401799"><ele>177.66666666666669</ele><time>2026-05-02T14:20:26.158Z</time></trkpt><trkpt lat="44.2485261" lon="8.4402519"><ele>176.0</ele><time>2026-05-02T14:20:27.161Z</time></trkpt><trkpt lat="44.2485801" lon="8.4403123"><ele>174.33333333333334</ele><time>2026-05-02T14:20:28.165Z</time></trkpt><trkpt lat="44.248678" lon="8.4403713"><ele>172.66666666666666</ele><time>2026-05-02T14:20:29.156Z</time></trkpt><trkpt lat="44.2487703" lon="8.4404509"><ele>171.0</ele><time>2026-05-02T14:20:30.157Z</time></trkpt><trkpt lat="44.2488724" lon="8.4405372"><ele>174.5</ele><time>2026-05-02T14:20:31.156Z</time></trkpt><trkpt lat="44.2489713" lon="8.4406234"><ele>178.0</ele><time>2026-05-02T14:20:32.159Z</time></trkpt><trkpt lat="44.2464858" lon="8.4394018"><ele>138.0</ele><time>2026-05-02T14:21:16.159Z</time></trkpt><trkpt lat="44.2443911" lon="8.4396109"><ele>121.0</ele><time>2026-05-02T14:21:56.168Z</time></trkpt><trkpt lat="44.2424746" lon="8.4405769"><ele>122.0</ele><time>2026-05-02T14:22:14.149Z</time></trkpt><trkpt lat="44.240555" lon="8.441671"><ele>77.0</ele><time>2026-05-02T14:22:34.157Z</time></trkpt><trkpt lat="44.2385925" lon="8.4408787"><ele>77.0</ele><time>2026-05-02T14:22:54.168Z</time></trkpt></trkseg></trk></gpx>